<?xml version="1.0" encoding="UTF-8" standalone="no" ?>
<gpx xmlns="http://www.topografix.com/GPX/1/1" xmlns:xsi="http://www.w3.org/2001/XMLSchema-instance" xsi:schemaLocation="http://www.topografix.com/GPX/1/1 http://www.topografix.com/GPX/1/1/gpx.xsd" version="1.1" creator="VisuGPX - https://www.visugpx.com">
  <metadata>
    <name>Boucle Bousignies Rosult, Nivelle.</name>
  </metadata>
  <wpt lat="50.42763" lon="3.4621">
    <ele>18.5</ele>
    <name><![CDATA[Bayou zone!]]></name>
    <desc><![CDATA[Le chemin est envahi par une zone marécageuse et trois cours d'eau traversable sur des ponts de fortune en branchage bancale...]]></desc>
    <type><![CDATA[danger]]></type>
  </wpt>
  <trk>
    <name><![CDATA[Parcours du 2022-04-15 14:45:52]]></name>
    <extensions>
      <line xmlns="http://www.topografix.com/GPX/gpx_style/0/2">
        <color>0000FF</color>
        <width>4</width>
      </line>
    </extensions>
    <trkseg>
      <trkpt lat="50.44956" lon="3.5265">
        <ele>29.8</ele>
        <time>2022-04-15T12:46:04.224Z</time>
      </trkpt>
      <trkpt lat="50.44948" lon="3.52655">
        <ele>29.9</ele>
        <time>2022-04-15T12:46:05.480Z</time>
      </trkpt>
      <trkpt lat="50.44928" lon="3.52668">
        <ele>30</ele>
        <time>2022-04-15T12:46:07.000Z</time>
      </trkpt>
      <trkpt lat="50.44922" lon="3.52672">
        <ele>30</ele>
        <time>2022-04-15T12:46:08.000Z</time>
      </trkpt>
      <trkpt lat="50.44916" lon="3.52676">
        <ele>30</ele>
        <time>2022-04-15T12:46:09.000Z</time>
      </trkpt>
      <trkpt lat="50.44911" lon="3.5268">
        <ele>30</ele>
        <time>2022-04-15T12:46:10.000Z</time>
      </trkpt>
      <trkpt lat="50.44905" lon="3.52684">
        <ele>30</ele>
        <time>2022-04-15T12:46:11.000Z</time>
      </trkpt>
      <trkpt lat="50.449" lon="3.52687">
        <ele>30</ele>
        <time>2022-04-15T12:46:12.000Z</time>
      </trkpt>
      <trkpt lat="50.44895" lon="3.5269">
        <ele>30</ele>
        <time>2022-04-15T12:46:13.000Z</time>
      </trkpt>
      <trkpt lat="50.44891" lon="3.52693">
        <ele>30</ele>
        <time>2022-04-15T12:46:14.000Z</time>
      </trkpt>
      <trkpt lat="50.44886" lon="3.52696">
        <ele>29.9</ele>
        <time>2022-04-15T12:46:15.000Z</time>
      </trkpt>
      <trkpt lat="50.44881" lon="3.527">
        <ele>29.8</ele>
        <time>2022-04-15T12:46:16.000Z</time>
      </trkpt>
      <trkpt lat="50.44876" lon="3.52704">
        <ele>29.7</ele>
        <time>2022-04-15T12:46:17.000Z</time>
      </trkpt>
      <trkpt lat="50.44871" lon="3.52707">
        <ele>29.6</ele>
        <time>2022-04-15T12:46:18.000Z</time>
      </trkpt>
      <trkpt lat="50.44867" lon="3.5271">
        <ele>29.7</ele>
        <time>2022-04-15T12:46:19.000Z</time>
      </trkpt>
      <trkpt lat="50.44862" lon="3.52712">
        <ele>29.6</ele>
        <time>2022-04-15T12:46:20.000Z</time>
      </trkpt>
      <trkpt lat="50.44857" lon="3.52716">
        <ele>29.8</ele>
        <time>2022-04-15T12:46:21.000Z</time>
      </trkpt>
      <trkpt lat="50.44853" lon="3.52719">
        <ele>29.9</ele>
        <time>2022-04-15T12:46:22.000Z</time>
      </trkpt>
      <trkpt lat="50.44846" lon="3.52724">
        <ele>30</ele>
        <time>2022-04-15T12:46:24.000Z</time>
      </trkpt>
      <trkpt lat="50.44839" lon="3.52729">
        <ele>30.2</ele>
        <time>2022-04-15T12:46:26.000Z</time>
      </trkpt>
      <trkpt lat="50.44835" lon="3.52732">
        <ele>30.3</ele>
        <time>2022-04-15T12:46:27.000Z</time>
      </trkpt>
      <trkpt lat="50.44828" lon="3.52737">
        <ele>30.5</ele>
        <time>2022-04-15T12:46:29.126Z</time>
      </trkpt>
      <trkpt lat="50.44824" lon="3.52739">
        <ele>30.6</ele>
        <time>2022-04-15T12:46:31.000Z</time>
      </trkpt>
      <trkpt lat="50.44814" lon="3.52746">
        <ele>30.9</ele>
        <time>2022-04-15T12:46:33.044Z</time>
      </trkpt>
      <trkpt lat="50.4481" lon="3.52749">
        <ele>31</ele>
        <time>2022-04-15T12:46:34.387Z</time>
      </trkpt>
      <trkpt lat="50.44802" lon="3.52755">
        <ele>31.1</ele>
        <time>2022-04-15T12:46:36.704Z</time>
      </trkpt>
      <trkpt lat="50.44794" lon="3.52762">
        <ele>31.2</ele>
        <time>2022-04-15T12:46:39.000Z</time>
      </trkpt>
      <trkpt lat="50.44789" lon="3.52766">
        <ele>31.3</ele>
        <time>2022-04-15T12:46:40.000Z</time>
      </trkpt>
      <trkpt lat="50.44784" lon="3.52768">
        <ele>31.3</ele>
        <time>2022-04-15T12:46:41.526Z</time>
      </trkpt>
      <trkpt lat="50.44779" lon="3.5277">
        <ele>31.3</ele>
        <time>2022-04-15T12:46:42.955Z</time>
      </trkpt>
      <trkpt lat="50.44774" lon="3.52772">
        <ele>31.3</ele>
        <time>2022-04-15T12:46:44.000Z</time>
      </trkpt>
      <trkpt lat="50.44766" lon="3.52776">
        <ele>31.5</ele>
        <time>2022-04-15T12:46:46.000Z</time>
      </trkpt>
      <trkpt lat="50.44761" lon="3.52778">
        <ele>31.6</ele>
        <time>2022-04-15T12:46:46.966Z</time>
      </trkpt>
      <trkpt lat="50.44757" lon="3.52779">
        <ele>31.8</ele>
        <time>2022-04-15T12:46:48.000Z</time>
      </trkpt>
      <trkpt lat="50.44752" lon="3.52781">
        <ele>31.9</ele>
        <time>2022-04-15T12:46:49.000Z</time>
      </trkpt>
      <trkpt lat="50.44736" lon="3.52786">
        <ele>32.7</ele>
        <time>2022-04-15T12:46:53.000Z</time>
      </trkpt>
      <trkpt lat="50.44725" lon="3.52788">
        <ele>33.2</ele>
        <time>2022-04-15T12:46:55.433Z</time>
      </trkpt>
      <trkpt lat="50.4471" lon="3.52791">
        <ele>33.7</ele>
        <time>2022-04-15T12:46:57.991Z</time>
      </trkpt>
      <trkpt lat="50.44703" lon="3.52791">
        <ele>33.8</ele>
        <time>2022-04-15T12:47:00.437Z</time>
      </trkpt>
      <trkpt lat="50.44698" lon="3.52793">
        <ele>33.9</ele>
        <time>2022-04-15T12:47:01.832Z</time>
      </trkpt>
      <trkpt lat="50.4469" lon="3.52794">
        <ele>34.2</ele>
        <time>2022-04-15T12:47:04.551Z</time>
      </trkpt>
      <trkpt lat="50.44686" lon="3.52795">
        <ele>34.3</ele>
        <time>2022-04-15T12:47:05.750Z</time>
      </trkpt>
      <trkpt lat="50.44677" lon="3.52799">
        <ele>34.6</ele>
        <time>2022-04-15T12:47:08.071Z</time>
      </trkpt>
      <trkpt lat="50.44672" lon="3.52799">
        <ele>34.8</ele>
        <time>2022-04-15T12:47:09.433Z</time>
      </trkpt>
      <trkpt lat="50.44666" lon="3.52801">
        <ele>35</ele>
        <time>2022-04-15T12:47:12.050Z</time>
      </trkpt>
      <trkpt lat="50.44656" lon="3.528">
        <ele>35.1</ele>
        <time>2022-04-15T12:47:14.977Z</time>
      </trkpt>
      <trkpt lat="50.4465" lon="3.528">
        <ele>35.1</ele>
        <time>2022-04-15T12:47:17.000Z</time>
      </trkpt>
      <trkpt lat="50.44645" lon="3.52801">
        <ele>35.1</ele>
        <time>2022-04-15T12:47:19.073Z</time>
      </trkpt>
      <trkpt lat="50.4464" lon="3.52799">
        <ele>35.2</ele>
        <time>2022-04-15T12:47:21.000Z</time>
      </trkpt>
      <trkpt lat="50.44634" lon="3.52798">
        <ele>35.4</ele>
        <time>2022-04-15T12:47:24.000Z</time>
      </trkpt>
      <trkpt lat="50.44627" lon="3.52797">
        <ele>35.6</ele>
        <time>2022-04-15T12:47:27.000Z</time>
      </trkpt>
      <trkpt lat="50.44622" lon="3.52799">
        <ele>35.7</ele>
        <time>2022-04-15T12:47:29.013Z</time>
      </trkpt>
      <trkpt lat="50.44617" lon="3.528">
        <ele>35.8</ele>
        <time>2022-04-15T12:47:31.000Z</time>
      </trkpt>
      <trkpt lat="50.44612" lon="3.528">
        <ele>36</ele>
        <time>2022-04-15T12:47:33.272Z</time>
      </trkpt>
      <trkpt lat="50.44605" lon="3.52799">
        <ele>36.2</ele>
        <time>2022-04-15T12:47:36.000Z</time>
      </trkpt>
      <trkpt lat="50.44599" lon="3.52798">
        <ele>36.4</ele>
        <time>2022-04-15T12:47:38.000Z</time>
      </trkpt>
      <trkpt lat="50.44592" lon="3.52795">
        <ele>36.7</ele>
        <time>2022-04-15T12:47:40.000Z</time>
      </trkpt>
      <trkpt lat="50.44585" lon="3.52787">
        <ele>36.9</ele>
        <time>2022-04-15T12:47:42.410Z</time>
      </trkpt>
      <trkpt lat="50.4458" lon="3.52778">
        <ele>37</ele>
        <time>2022-04-15T12:47:44.931Z</time>
      </trkpt>
      <trkpt lat="50.44576" lon="3.52772">
        <ele>37</ele>
        <time>2022-04-15T12:47:47.000Z</time>
      </trkpt>
      <trkpt lat="50.44573" lon="3.52767">
        <ele>37</ele>
        <time>2022-04-15T12:47:48.114Z</time>
      </trkpt>
      <trkpt lat="50.44569" lon="3.52759">
        <ele>37</ele>
        <time>2022-04-15T12:47:51.000Z</time>
      </trkpt>
      <trkpt lat="50.44565" lon="3.52755">
        <ele>37</ele>
        <time>2022-04-15T12:47:54.011Z</time>
      </trkpt>
      <trkpt lat="50.4456" lon="3.52749">
        <ele>37</ele>
        <time>2022-04-15T12:47:56.000Z</time>
      </trkpt>
      <trkpt lat="50.44555" lon="3.52742">
        <ele>37</ele>
        <time>2022-04-15T12:47:59.011Z</time>
      </trkpt>
      <trkpt lat="50.44551" lon="3.52739">
        <ele>37</ele>
        <time>2022-04-15T12:48:01.000Z</time>
      </trkpt>
      <trkpt lat="50.44546" lon="3.5273">
        <ele>37</ele>
        <time>2022-04-15T12:48:03.110Z</time>
      </trkpt>
      <trkpt lat="50.44541" lon="3.52724">
        <ele>37</ele>
        <time>2022-04-15T12:48:06.000Z</time>
      </trkpt>
      <trkpt lat="50.44537" lon="3.52719">
        <ele>37</ele>
        <time>2022-04-15T12:48:08.056Z</time>
      </trkpt>
      <trkpt lat="50.4453" lon="3.52712">
        <ele>37</ele>
        <time>2022-04-15T12:48:10.752Z</time>
      </trkpt>
      <trkpt lat="50.44526" lon="3.52708">
        <ele>37</ele>
        <time>2022-04-15T12:48:12.000Z</time>
      </trkpt>
      <trkpt lat="50.4452" lon="3.52701">
        <ele>37</ele>
        <time>2022-04-15T12:48:14.031Z</time>
      </trkpt>
      <trkpt lat="50.44514" lon="3.52693">
        <ele>37</ele>
        <time>2022-04-15T12:48:16.000Z</time>
      </trkpt>
      <trkpt lat="50.4451" lon="3.52688">
        <ele>37.1</ele>
        <time>2022-04-15T12:48:18.332Z</time>
      </trkpt>
      <trkpt lat="50.44504" lon="3.52681">
        <ele>37.4</ele>
        <time>2022-04-15T12:48:20.272Z</time>
      </trkpt>
      <trkpt lat="50.44498" lon="3.52674">
        <ele>37.8</ele>
        <time>2022-04-15T12:48:22.876Z</time>
      </trkpt>
      <trkpt lat="50.44494" lon="3.5267">
        <ele>37.9</ele>
        <time>2022-04-15T12:48:24.000Z</time>
      </trkpt>
      <trkpt lat="50.44491" lon="3.52665">
        <ele>38</ele>
        <time>2022-04-15T12:48:26.138Z</time>
      </trkpt>
      <trkpt lat="50.44485" lon="3.52658">
        <ele>38</ele>
        <time>2022-04-15T12:48:29.053Z</time>
      </trkpt>
      <trkpt lat="50.4448" lon="3.52653">
        <ele>38</ele>
        <time>2022-04-15T12:50:48.000Z</time>
      </trkpt>
      <trkpt lat="50.44475" lon="3.52644">
        <ele>38</ele>
        <time>2022-04-15T12:50:49.000Z</time>
      </trkpt>
      <trkpt lat="50.44471" lon="3.52638">
        <ele>38</ele>
        <time>2022-04-15T12:50:51.000Z</time>
      </trkpt>
      <trkpt lat="50.44467" lon="3.52633">
        <ele>38</ele>
        <time>2022-04-15T12:50:52.000Z</time>
      </trkpt>
      <trkpt lat="50.44461" lon="3.52626">
        <ele>38</ele>
        <time>2022-04-15T12:50:54.000Z</time>
      </trkpt>
      <trkpt lat="50.44454" lon="3.52619">
        <ele>38</ele>
        <time>2022-04-15T12:50:56.000Z</time>
      </trkpt>
      <trkpt lat="50.44449" lon="3.52614">
        <ele>38</ele>
        <time>2022-04-15T12:50:58.000Z</time>
      </trkpt>
      <trkpt lat="50.44444" lon="3.52608">
        <ele>37.9</ele>
        <time>2022-04-15T12:51:00.131Z</time>
      </trkpt>
      <trkpt lat="50.4444" lon="3.52602">
        <ele>37.7</ele>
        <time>2022-04-15T12:51:01.711Z</time>
      </trkpt>
      <trkpt lat="50.44437" lon="3.52595">
        <ele>37.4</ele>
        <time>2022-04-15T12:51:03.113Z</time>
      </trkpt>
      <trkpt lat="50.44433" lon="3.52588">
        <ele>37.2</ele>
        <time>2022-04-15T12:51:04.472Z</time>
      </trkpt>
      <trkpt lat="50.44426" lon="3.52581">
        <ele>36.9</ele>
        <time>2022-04-15T12:51:05.969Z</time>
      </trkpt>
      <trkpt lat="50.44421" lon="3.52574">
        <ele>36.7</ele>
        <time>2022-04-15T12:51:07.000Z</time>
      </trkpt>
      <trkpt lat="50.44417" lon="3.52568">
        <ele>36.4</ele>
        <time>2022-04-15T12:51:08.000Z</time>
      </trkpt>
      <trkpt lat="50.44412" lon="3.52564">
        <ele>36.3</ele>
        <time>2022-04-15T12:51:09.000Z</time>
      </trkpt>
      <trkpt lat="50.44406" lon="3.52558">
        <ele>36.1</ele>
        <time>2022-04-15T12:51:10.000Z</time>
      </trkpt>
      <trkpt lat="50.44402" lon="3.52553">
        <ele>35.9</ele>
        <time>2022-04-15T12:51:11.000Z</time>
      </trkpt>
      <trkpt lat="50.44397" lon="3.52547">
        <ele>35.7</ele>
        <time>2022-04-15T12:51:12.000Z</time>
      </trkpt>
      <trkpt lat="50.44386" lon="3.52533">
        <ele>35.3</ele>
        <time>2022-04-15T12:51:14.000Z</time>
      </trkpt>
      <trkpt lat="50.44379" lon="3.52525">
        <ele>35.3</ele>
        <time>2022-04-15T12:51:15.000Z</time>
      </trkpt>
      <trkpt lat="50.44373" lon="3.52517">
        <ele>35.2</ele>
        <time>2022-04-15T12:51:16.000Z</time>
      </trkpt>
      <trkpt lat="50.44367" lon="3.52509">
        <ele>35.1</ele>
        <time>2022-04-15T12:51:17.000Z</time>
      </trkpt>
      <trkpt lat="50.44361" lon="3.52502">
        <ele>35.1</ele>
        <time>2022-04-15T12:51:18.000Z</time>
      </trkpt>
      <trkpt lat="50.44357" lon="3.52497">
        <ele>34.9</ele>
        <time>2022-04-15T12:51:19.000Z</time>
      </trkpt>
      <trkpt lat="50.44352" lon="3.52492">
        <ele>34.8</ele>
        <time>2022-04-15T12:51:20.000Z</time>
      </trkpt>
      <trkpt lat="50.44346" lon="3.52485">
        <ele>34.8</ele>
        <time>2022-04-15T12:51:21.000Z</time>
      </trkpt>
      <trkpt lat="50.44342" lon="3.52479">
        <ele>34.8</ele>
        <time>2022-04-15T12:51:22.000Z</time>
      </trkpt>
      <trkpt lat="50.44337" lon="3.52474">
        <ele>34.9</ele>
        <time>2022-04-15T12:51:23.000Z</time>
      </trkpt>
      <trkpt lat="50.44332" lon="3.52469">
        <ele>34.9</ele>
        <time>2022-04-15T12:51:24.000Z</time>
      </trkpt>
      <trkpt lat="50.44327" lon="3.52464">
        <ele>34.9</ele>
        <time>2022-04-15T12:51:25.000Z</time>
      </trkpt>
      <trkpt lat="50.44323" lon="3.52458">
        <ele>34.9</ele>
        <time>2022-04-15T12:51:26.000Z</time>
      </trkpt>
      <trkpt lat="50.44318" lon="3.52452">
        <ele>34.8</ele>
        <time>2022-04-15T12:51:27.000Z</time>
      </trkpt>
      <trkpt lat="50.44313" lon="3.52444">
        <ele>34.7</ele>
        <time>2022-04-15T12:51:28.000Z</time>
      </trkpt>
      <trkpt lat="50.44308" lon="3.52437">
        <ele>34.6</ele>
        <time>2022-04-15T12:51:29.000Z</time>
      </trkpt>
      <trkpt lat="50.44304" lon="3.52431">
        <ele>34.6</ele>
        <time>2022-04-15T12:51:30.000Z</time>
      </trkpt>
      <trkpt lat="50.443" lon="3.52425">
        <ele>34.6</ele>
        <time>2022-04-15T12:51:31.000Z</time>
      </trkpt>
      <trkpt lat="50.44296" lon="3.5242">
        <ele>34.8</ele>
        <time>2022-04-15T12:51:32.000Z</time>
      </trkpt>
      <trkpt lat="50.44292" lon="3.52414">
        <ele>35</ele>
        <time>2022-04-15T12:51:33.000Z</time>
      </trkpt>
      <trkpt lat="50.44288" lon="3.5241">
        <ele>35.3</ele>
        <time>2022-04-15T12:51:34.000Z</time>
      </trkpt>
      <trkpt lat="50.44284" lon="3.52405">
        <ele>35.6</ele>
        <time>2022-04-15T12:51:35.000Z</time>
      </trkpt>
      <trkpt lat="50.44279" lon="3.524">
        <ele>35.9</ele>
        <time>2022-04-15T12:51:36.000Z</time>
      </trkpt>
      <trkpt lat="50.44275" lon="3.52397">
        <ele>36.1</ele>
        <time>2022-04-15T12:51:37.000Z</time>
      </trkpt>
      <trkpt lat="50.44267" lon="3.52387">
        <ele>36.3</ele>
        <time>2022-04-15T12:51:39.000Z</time>
      </trkpt>
      <trkpt lat="50.44263" lon="3.52381">
        <ele>36.4</ele>
        <time>2022-04-15T12:51:40.000Z</time>
      </trkpt>
      <trkpt lat="50.44259" lon="3.52376">
        <ele>36.5</ele>
        <time>2022-04-15T12:51:41.000Z</time>
      </trkpt>
      <trkpt lat="50.44253" lon="3.52367">
        <ele>36.8</ele>
        <time>2022-04-15T12:51:43.000Z</time>
      </trkpt>
      <trkpt lat="50.44247" lon="3.52359">
        <ele>37</ele>
        <time>2022-04-15T12:51:45.000Z</time>
      </trkpt>
      <trkpt lat="50.44242" lon="3.52353">
        <ele>37.1</ele>
        <time>2022-04-15T12:51:46.000Z</time>
      </trkpt>
      <trkpt lat="50.44236" lon="3.52345">
        <ele>37.2</ele>
        <time>2022-04-15T12:51:49.231Z</time>
      </trkpt>
      <trkpt lat="50.4423" lon="3.52337">
        <ele>37.5</ele>
        <time>2022-04-15T12:51:50.229Z</time>
      </trkpt>
      <trkpt lat="50.44227" lon="3.52332">
        <ele>37.6</ele>
        <time>2022-04-15T12:51:51.591Z</time>
      </trkpt>
      <trkpt lat="50.44224" lon="3.52324">
        <ele>37.6</ele>
        <time>2022-04-15T12:51:52.531Z</time>
      </trkpt>
      <trkpt lat="50.44219" lon="3.52318">
        <ele>37.5</ele>
        <time>2022-04-15T12:51:53.933Z</time>
      </trkpt>
      <trkpt lat="50.44213" lon="3.52311">
        <ele>37.5</ele>
        <time>2022-04-15T12:51:56.000Z</time>
      </trkpt>
      <trkpt lat="50.4421" lon="3.52305">
        <ele>37.4</ele>
        <time>2022-04-15T12:51:57.000Z</time>
      </trkpt>
      <trkpt lat="50.44206" lon="3.52301">
        <ele>37.6</ele>
        <time>2022-04-15T12:51:58.313Z</time>
      </trkpt>
      <trkpt lat="50.442" lon="3.52295">
        <ele>37.8</ele>
        <time>2022-04-15T12:52:00.732Z</time>
      </trkpt>
      <trkpt lat="50.44195" lon="3.52287">
        <ele>38</ele>
        <time>2022-04-15T12:52:03.000Z</time>
      </trkpt>
      <trkpt lat="50.4419" lon="3.52278">
        <ele>38.2</ele>
        <time>2022-04-15T12:52:06.000Z</time>
      </trkpt>
      <trkpt lat="50.44186" lon="3.52269">
        <ele>38.3</ele>
        <time>2022-04-15T12:52:09.000Z</time>
      </trkpt>
      <trkpt lat="50.4418" lon="3.5226">
        <ele>38.5</ele>
        <time>2022-04-15T12:52:12.419Z</time>
      </trkpt>
      <trkpt lat="50.44175" lon="3.52254">
        <ele>38.7</ele>
        <time>2022-04-15T12:52:14.833Z</time>
      </trkpt>
      <trkpt lat="50.44171" lon="3.5225">
        <ele>38.8</ele>
        <time>2022-04-15T12:52:17.309Z</time>
      </trkpt>
      <trkpt lat="50.44167" lon="3.52244">
        <ele>38.8</ele>
        <time>2022-04-15T12:52:19.417Z</time>
      </trkpt>
      <trkpt lat="50.44164" lon="3.52237">
        <ele>38.6</ele>
        <time>2022-04-15T12:52:22.000Z</time>
      </trkpt>
      <trkpt lat="50.4416" lon="3.52228">
        <ele>38.4</ele>
        <time>2022-04-15T12:52:25.000Z</time>
      </trkpt>
      <trkpt lat="50.44155" lon="3.5222">
        <ele>38.4</ele>
        <time>2022-04-15T12:52:28.570Z</time>
      </trkpt>
      <trkpt lat="50.44152" lon="3.52215">
        <ele>38.5</ele>
        <time>2022-04-15T12:52:31.000Z</time>
      </trkpt>
      <trkpt lat="50.44148" lon="3.52209">
        <ele>38.7</ele>
        <time>2022-04-15T12:52:33.000Z</time>
      </trkpt>
      <trkpt lat="50.44144" lon="3.52204">
        <ele>38.8</ele>
        <time>2022-04-15T12:52:35.532Z</time>
      </trkpt>
      <trkpt lat="50.44141" lon="3.52199">
        <ele>38.9</ele>
        <time>2022-04-15T12:52:37.693Z</time>
      </trkpt>
      <trkpt lat="50.44138" lon="3.52191">
        <ele>39</ele>
        <time>2022-04-15T12:52:40.910Z</time>
      </trkpt>
      <trkpt lat="50.44134" lon="3.52184">
        <ele>39.2</ele>
        <time>2022-04-15T12:52:43.000Z</time>
      </trkpt>
      <trkpt lat="50.4413" lon="3.52179">
        <ele>39.3</ele>
        <time>2022-04-15T12:52:45.014Z</time>
      </trkpt>
      <trkpt lat="50.44127" lon="3.52174">
        <ele>39.4</ele>
        <time>2022-04-15T12:52:47.000Z</time>
      </trkpt>
      <trkpt lat="50.44123" lon="3.52167">
        <ele>39.6</ele>
        <time>2022-04-15T12:52:49.000Z</time>
      </trkpt>
      <trkpt lat="50.44119" lon="3.52157">
        <ele>39.7</ele>
        <time>2022-04-15T12:52:51.110Z</time>
      </trkpt>
      <trkpt lat="50.44115" lon="3.5215">
        <ele>39.9</ele>
        <time>2022-04-15T12:52:53.000Z</time>
      </trkpt>
      <trkpt lat="50.44112" lon="3.52141">
        <ele>40</ele>
        <time>2022-04-15T12:52:55.187Z</time>
      </trkpt>
      <trkpt lat="50.44107" lon="3.52133">
        <ele>40</ele>
        <time>2022-04-15T12:52:57.391Z</time>
      </trkpt>
      <trkpt lat="50.44105" lon="3.52125">
        <ele>40</ele>
        <time>2022-04-15T12:52:59.000Z</time>
      </trkpt>
      <trkpt lat="50.44102" lon="3.52116">
        <ele>40</ele>
        <time>2022-04-15T12:53:01.068Z</time>
      </trkpt>
      <trkpt lat="50.44096" lon="3.52108">
        <ele>39.9</ele>
        <time>2022-04-15T12:53:03.000Z</time>
      </trkpt>
      <trkpt lat="50.44091" lon="3.52109">
        <ele>40</ele>
        <time>2022-04-15T12:53:05.000Z</time>
      </trkpt>
      <trkpt lat="50.44086" lon="3.52113">
        <ele>40</ele>
        <time>2022-04-15T12:53:07.590Z</time>
      </trkpt>
      <trkpt lat="50.44081" lon="3.52119">
        <ele>40.1</ele>
        <time>2022-04-15T12:53:10.000Z</time>
      </trkpt>
      <trkpt lat="50.44075" lon="3.52126">
        <ele>40.1</ele>
        <time>2022-04-15T12:53:12.000Z</time>
      </trkpt>
      <trkpt lat="50.44068" lon="3.52133">
        <ele>40.1</ele>
        <time>2022-04-15T12:53:14.369Z</time>
      </trkpt>
      <trkpt lat="50.44061" lon="3.52141">
        <ele>40</ele>
        <time>2022-04-15T12:53:17.000Z</time>
      </trkpt>
      <trkpt lat="50.44056" lon="3.52149">
        <ele>40</ele>
        <time>2022-04-15T12:53:19.000Z</time>
      </trkpt>
      <trkpt lat="50.44052" lon="3.52155">
        <ele>40</ele>
        <time>2022-04-15T12:53:20.000Z</time>
      </trkpt>
      <trkpt lat="50.44048" lon="3.52165">
        <ele>40</ele>
        <time>2022-04-15T12:53:22.610Z</time>
      </trkpt>
      <trkpt lat="50.44044" lon="3.5217">
        <ele>40</ele>
        <time>2022-04-15T12:53:23.751Z</time>
      </trkpt>
      <trkpt lat="50.44037" lon="3.52181">
        <ele>39.7</ele>
        <time>2022-04-15T12:53:25.000Z</time>
      </trkpt>
      <trkpt lat="50.44034" lon="3.52186">
        <ele>39.5</ele>
        <time>2022-04-15T12:53:26.896Z</time>
      </trkpt>
      <trkpt lat="50.44028" lon="3.52194">
        <ele>39</ele>
        <time>2022-04-15T12:53:28.000Z</time>
      </trkpt>
      <trkpt lat="50.44024" lon="3.522">
        <ele>39</ele>
        <time>2022-04-15T12:53:29.000Z</time>
      </trkpt>
      <trkpt lat="50.4402" lon="3.52206">
        <ele>39</ele>
        <time>2022-04-15T12:53:30.000Z</time>
      </trkpt>
      <trkpt lat="50.44016" lon="3.52211">
        <ele>39</ele>
        <time>2022-04-15T12:53:31.000Z</time>
      </trkpt>
      <trkpt lat="50.44012" lon="3.52216">
        <ele>39</ele>
        <time>2022-04-15T12:53:32.000Z</time>
      </trkpt>
      <trkpt lat="50.44007" lon="3.52221">
        <ele>39</ele>
        <time>2022-04-15T12:53:33.000Z</time>
      </trkpt>
      <trkpt lat="50.44002" lon="3.52226">
        <ele>39</ele>
        <time>2022-04-15T12:53:34.000Z</time>
      </trkpt>
      <trkpt lat="50.43998" lon="3.52233">
        <ele>38.9</ele>
        <time>2022-04-15T12:53:35.000Z</time>
      </trkpt>
      <trkpt lat="50.43993" lon="3.52241">
        <ele>38.7</ele>
        <time>2022-04-15T12:53:36.000Z</time>
      </trkpt>
      <trkpt lat="50.43989" lon="3.52248">
        <ele>38.6</ele>
        <time>2022-04-15T12:53:37.000Z</time>
      </trkpt>
      <trkpt lat="50.43983" lon="3.52256">
        <ele>38.3</ele>
        <time>2022-04-15T12:53:38.000Z</time>
      </trkpt>
      <trkpt lat="50.43979" lon="3.52262">
        <ele>38.1</ele>
        <time>2022-04-15T12:53:39.000Z</time>
      </trkpt>
      <trkpt lat="50.43974" lon="3.52269">
        <ele>38</ele>
        <time>2022-04-15T12:53:40.000Z</time>
      </trkpt>
      <trkpt lat="50.4397" lon="3.52275">
        <ele>37.9</ele>
        <time>2022-04-15T12:53:41.000Z</time>
      </trkpt>
      <trkpt lat="50.43965" lon="3.52282">
        <ele>37.7</ele>
        <time>2022-04-15T12:53:42.000Z</time>
      </trkpt>
      <trkpt lat="50.4396" lon="3.52288">
        <ele>37.6</ele>
        <time>2022-04-15T12:53:43.000Z</time>
      </trkpt>
      <trkpt lat="50.43955" lon="3.52294">
        <ele>37.4</ele>
        <time>2022-04-15T12:53:44.000Z</time>
      </trkpt>
      <trkpt lat="50.43949" lon="3.52302">
        <ele>37.2</ele>
        <time>2022-04-15T12:53:45.000Z</time>
      </trkpt>
      <trkpt lat="50.43944" lon="3.52308">
        <ele>37</ele>
        <time>2022-04-15T12:53:46.000Z</time>
      </trkpt>
      <trkpt lat="50.43939" lon="3.52314">
        <ele>36.9</ele>
        <time>2022-04-15T12:53:47.000Z</time>
      </trkpt>
      <trkpt lat="50.43934" lon="3.52322">
        <ele>36.8</ele>
        <time>2022-04-15T12:53:48.000Z</time>
      </trkpt>
      <trkpt lat="50.4393" lon="3.52327">
        <ele>36.9</ele>
        <time>2022-04-15T12:53:49.000Z</time>
      </trkpt>
      <trkpt lat="50.43925" lon="3.52333">
        <ele>37</ele>
        <time>2022-04-15T12:53:50.000Z</time>
      </trkpt>
      <trkpt lat="50.43919" lon="3.52342">
        <ele>37</ele>
        <time>2022-04-15T12:53:51.000Z</time>
      </trkpt>
      <trkpt lat="50.43915" lon="3.52347">
        <ele>36.9</ele>
        <time>2022-04-15T12:53:52.000Z</time>
      </trkpt>
      <trkpt lat="50.4391" lon="3.52354">
        <ele>36.8</ele>
        <time>2022-04-15T12:53:53.000Z</time>
      </trkpt>
      <trkpt lat="50.43905" lon="3.52363">
        <ele>36.6</ele>
        <time>2022-04-15T12:53:54.000Z</time>
      </trkpt>
      <trkpt lat="50.439" lon="3.52371">
        <ele>36.4</ele>
        <time>2022-04-15T12:53:55.000Z</time>
      </trkpt>
      <trkpt lat="50.43896" lon="3.52378">
        <ele>36.3</ele>
        <time>2022-04-15T12:53:56.000Z</time>
      </trkpt>
      <trkpt lat="50.43892" lon="3.52384">
        <ele>36.1</ele>
        <time>2022-04-15T12:53:57.000Z</time>
      </trkpt>
      <trkpt lat="50.43886" lon="3.52392">
        <ele>36</ele>
        <time>2022-04-15T12:53:58.000Z</time>
      </trkpt>
      <trkpt lat="50.43882" lon="3.52398">
        <ele>36</ele>
        <time>2022-04-15T12:53:59.000Z</time>
      </trkpt>
      <trkpt lat="50.43877" lon="3.52403">
        <ele>36</ele>
        <time>2022-04-15T12:54:00.000Z</time>
      </trkpt>
      <trkpt lat="50.43873" lon="3.52408">
        <ele>36</ele>
        <time>2022-04-15T12:54:01.000Z</time>
      </trkpt>
      <trkpt lat="50.43869" lon="3.52414">
        <ele>36</ele>
        <time>2022-04-15T12:54:02.000Z</time>
      </trkpt>
      <trkpt lat="50.43865" lon="3.52423">
        <ele>36</ele>
        <time>2022-04-15T12:54:03.000Z</time>
      </trkpt>
      <trkpt lat="50.43861" lon="3.52428">
        <ele>36</ele>
        <time>2022-04-15T12:54:04.000Z</time>
      </trkpt>
      <trkpt lat="50.43857" lon="3.52435">
        <ele>36</ele>
        <time>2022-04-15T12:54:05.000Z</time>
      </trkpt>
      <trkpt lat="50.43853" lon="3.5244">
        <ele>36</ele>
        <time>2022-04-15T12:54:06.000Z</time>
      </trkpt>
      <trkpt lat="50.43849" lon="3.52446">
        <ele>36</ele>
        <time>2022-04-15T12:54:07.000Z</time>
      </trkpt>
      <trkpt lat="50.43844" lon="3.52451">
        <ele>36</ele>
        <time>2022-04-15T12:54:08.000Z</time>
      </trkpt>
      <trkpt lat="50.43836" lon="3.52459">
        <ele>36</ele>
        <time>2022-04-15T12:54:10.000Z</time>
      </trkpt>
      <trkpt lat="50.43832" lon="3.52464">
        <ele>36</ele>
        <time>2022-04-15T12:54:11.000Z</time>
      </trkpt>
      <trkpt lat="50.43828" lon="3.5247">
        <ele>36</ele>
        <time>2022-04-15T12:54:12.000Z</time>
      </trkpt>
      <trkpt lat="50.43822" lon="3.5248">
        <ele>36</ele>
        <time>2022-04-15T12:54:14.000Z</time>
      </trkpt>
      <trkpt lat="50.43817" lon="3.52489">
        <ele>36</ele>
        <time>2022-04-15T12:54:16.000Z</time>
      </trkpt>
      <trkpt lat="50.43813" lon="3.52494">
        <ele>36</ele>
        <time>2022-04-15T12:54:17.000Z</time>
      </trkpt>
      <trkpt lat="50.4381" lon="3.52499">
        <ele>36</ele>
        <time>2022-04-15T12:54:18.000Z</time>
      </trkpt>
      <trkpt lat="50.43804" lon="3.52507">
        <ele>36.1</ele>
        <time>2022-04-15T12:54:20.000Z</time>
      </trkpt>
      <trkpt lat="50.43798" lon="3.52513">
        <ele>36.3</ele>
        <time>2022-04-15T12:54:21.000Z</time>
      </trkpt>
      <trkpt lat="50.43792" lon="3.52522">
        <ele>36.5</ele>
        <time>2022-04-15T12:54:23.000Z</time>
      </trkpt>
      <trkpt lat="50.43784" lon="3.52535">
        <ele>36.6</ele>
        <time>2022-04-15T12:54:25.543Z</time>
      </trkpt>
      <trkpt lat="50.43777" lon="3.52541">
        <ele>36.5</ele>
        <time>2022-04-15T12:54:28.000Z</time>
      </trkpt>
      <trkpt lat="50.43772" lon="3.52547">
        <ele>36.5</ele>
        <time>2022-04-15T12:54:30.000Z</time>
      </trkpt>
      <trkpt lat="50.43768" lon="3.52551">
        <ele>36.5</ele>
        <time>2022-04-15T12:54:31.122Z</time>
      </trkpt>
      <trkpt lat="50.43766" lon="3.52559">
        <ele>36.4</ele>
        <time>2022-04-15T12:54:32.665Z</time>
      </trkpt>
      <trkpt lat="50.43763" lon="3.52568">
        <ele>36.3</ele>
        <time>2022-04-15T12:54:35.000Z</time>
      </trkpt>
      <trkpt lat="50.43759" lon="3.52573">
        <ele>36.3</ele>
        <time>2022-04-15T12:54:38.023Z</time>
      </trkpt>
      <trkpt lat="50.43753" lon="3.52578">
        <ele>36.2</ele>
        <time>2022-04-15T12:54:41.143Z</time>
      </trkpt>
      <trkpt lat="50.43751" lon="3.52586">
        <ele>36</ele>
        <time>2022-04-15T12:54:44.000Z</time>
      </trkpt>
      <trkpt lat="50.43747" lon="3.52593">
        <ele>36.1</ele>
        <time>2022-04-15T12:54:46.824Z</time>
      </trkpt>
      <trkpt lat="50.43743" lon="3.52597">
        <ele>36.3</ele>
        <time>2022-04-15T12:54:48.000Z</time>
      </trkpt>
      <trkpt lat="50.43738" lon="3.52602">
        <ele>36.4</ele>
        <time>2022-04-15T12:54:50.041Z</time>
      </trkpt>
      <trkpt lat="50.43733" lon="3.52609">
        <ele>36.6</ele>
        <time>2022-04-15T12:54:52.081Z</time>
      </trkpt>
      <trkpt lat="50.43729" lon="3.52616">
        <ele>36.6</ele>
        <time>2022-04-15T12:54:54.003Z</time>
      </trkpt>
      <trkpt lat="50.43726" lon="3.52621">
        <ele>36.6</ele>
        <time>2022-04-15T12:54:55.045Z</time>
      </trkpt>
      <trkpt lat="50.4372" lon="3.52628">
        <ele>36.4</ele>
        <time>2022-04-15T12:54:57.003Z</time>
      </trkpt>
      <trkpt lat="50.43716" lon="3.52635">
        <ele>36.1</ele>
        <time>2022-04-15T12:54:58.103Z</time>
      </trkpt>
      <trkpt lat="50.43713" lon="3.52642">
        <ele>36</ele>
        <time>2022-04-15T12:54:59.704Z</time>
      </trkpt>
      <trkpt lat="50.4371" lon="3.5265">
        <ele>36</ele>
        <time>2022-04-15T12:55:00.822Z</time>
      </trkpt>
      <trkpt lat="50.43706" lon="3.52659">
        <ele>36</ele>
        <time>2022-04-15T12:55:02.000Z</time>
      </trkpt>
      <trkpt lat="50.43702" lon="3.52666">
        <ele>36</ele>
        <time>2022-04-15T12:55:03.360Z</time>
      </trkpt>
      <trkpt lat="50.43694" lon="3.52672">
        <ele>36</ele>
        <time>2022-04-15T12:55:05.944Z</time>
      </trkpt>
      <trkpt lat="50.43689" lon="3.52674">
        <ele>36</ele>
        <time>2022-04-15T12:55:08.000Z</time>
      </trkpt>
      <trkpt lat="50.43683" lon="3.52677">
        <ele>36</ele>
        <time>2022-04-15T12:55:10.000Z</time>
      </trkpt>
      <trkpt lat="50.43677" lon="3.52687">
        <ele>36</ele>
        <time>2022-04-15T12:55:12.422Z</time>
      </trkpt>
      <trkpt lat="50.43671" lon="3.52694">
        <ele>36</ele>
        <time>2022-04-15T12:55:14.784Z</time>
      </trkpt>
      <trkpt lat="50.43667" lon="3.527">
        <ele>36</ele>
        <time>2022-04-15T12:55:17.022Z</time>
      </trkpt>
      <trkpt lat="50.43661" lon="3.52708">
        <ele>36</ele>
        <time>2022-04-15T12:55:19.000Z</time>
      </trkpt>
      <trkpt lat="50.43657" lon="3.52713">
        <ele>36</ele>
        <time>2022-04-15T12:55:21.000Z</time>
      </trkpt>
      <trkpt lat="50.43651" lon="3.52725">
        <ele>36</ele>
        <time>2022-04-15T12:55:24.000Z</time>
      </trkpt>
      <trkpt lat="50.43646" lon="3.52736">
        <ele>36</ele>
        <time>2022-04-15T12:55:26.000Z</time>
      </trkpt>
      <trkpt lat="50.43642" lon="3.52742">
        <ele>36</ele>
        <time>2022-04-15T12:55:28.000Z</time>
      </trkpt>
      <trkpt lat="50.43639" lon="3.52748">
        <ele>36</ele>
        <time>2022-04-15T12:55:28.902Z</time>
      </trkpt>
      <trkpt lat="50.43632" lon="3.52751">
        <ele>36</ele>
        <time>2022-04-15T12:55:31.662Z</time>
      </trkpt>
      <trkpt lat="50.43627" lon="3.52755">
        <ele>36</ele>
        <time>2022-04-15T12:55:34.000Z</time>
      </trkpt>
      <trkpt lat="50.43621" lon="3.52762">
        <ele>36</ele>
        <time>2022-04-15T12:55:37.000Z</time>
      </trkpt>
      <trkpt lat="50.43618" lon="3.52769">
        <ele>36</ele>
        <time>2022-04-15T12:55:39.649Z</time>
      </trkpt>
      <trkpt lat="50.43614" lon="3.52773">
        <ele>36</ele>
        <time>2022-04-15T12:55:42.000Z</time>
      </trkpt>
      <trkpt lat="50.43608" lon="3.52779">
        <ele>36</ele>
        <time>2022-04-15T12:55:46.000Z</time>
      </trkpt>
      <trkpt lat="50.43604" lon="3.52786">
        <ele>36</ele>
        <time>2022-04-15T12:55:49.523Z</time>
      </trkpt>
      <trkpt lat="50.43601" lon="3.52792">
        <ele>36</ele>
        <time>2022-04-15T12:55:53.000Z</time>
      </trkpt>
      <trkpt lat="50.43597" lon="3.52797">
        <ele>36</ele>
        <time>2022-04-15T12:55:55.000Z</time>
      </trkpt>
      <trkpt lat="50.43593" lon="3.52804">
        <ele>36</ele>
        <time>2022-04-15T12:55:57.000Z</time>
      </trkpt>
      <trkpt lat="50.43589" lon="3.5281">
        <ele>36</ele>
        <time>2022-04-15T12:55:59.652Z</time>
      </trkpt>
      <trkpt lat="50.43584" lon="3.52816">
        <ele>36</ele>
        <time>2022-04-15T12:56:02.901Z</time>
      </trkpt>
      <trkpt lat="50.43579" lon="3.52816">
        <ele>36</ele>
        <time>2022-04-15T12:56:04.943Z</time>
      </trkpt>
      <trkpt lat="50.43573" lon="3.52821">
        <ele>36</ele>
        <time>2022-04-15T12:56:07.648Z</time>
      </trkpt>
      <trkpt lat="50.43569" lon="3.5283">
        <ele>36</ele>
        <time>2022-04-15T12:56:11.401Z</time>
      </trkpt>
      <trkpt lat="50.43564" lon="3.52839">
        <ele>35.9</ele>
        <time>2022-04-15T12:56:14.041Z</time>
      </trkpt>
      <trkpt lat="50.4356" lon="3.52845">
        <ele>35.6</ele>
        <time>2022-04-15T12:56:16.643Z</time>
      </trkpt>
      <trkpt lat="50.43557" lon="3.52851">
        <ele>35.4</ele>
        <time>2022-04-15T12:56:19.103Z</time>
      </trkpt>
      <trkpt lat="50.43553" lon="3.52856">
        <ele>35.3</ele>
        <time>2022-04-15T12:56:20.902Z</time>
      </trkpt>
      <trkpt lat="50.43549" lon="3.52863">
        <ele>35.2</ele>
        <time>2022-04-15T12:56:23.000Z</time>
      </trkpt>
      <trkpt lat="50.43544" lon="3.52869">
        <ele>35.3</ele>
        <time>2022-04-15T12:56:25.662Z</time>
      </trkpt>
      <trkpt lat="50.43538" lon="3.52864">
        <ele>35.6</ele>
        <time>2022-04-15T12:56:28.000Z</time>
      </trkpt>
      <trkpt lat="50.43534" lon="3.52858">
        <ele>35.8</ele>
        <time>2022-04-15T12:56:30.000Z</time>
      </trkpt>
      <trkpt lat="50.43529" lon="3.52853">
        <ele>36</ele>
        <time>2022-04-15T12:56:32.080Z</time>
      </trkpt>
      <trkpt lat="50.43524" lon="3.52849">
        <ele>36</ele>
        <time>2022-04-15T12:56:34.925Z</time>
      </trkpt>
      <trkpt lat="50.43518" lon="3.52843">
        <ele>36</ele>
        <time>2022-04-15T12:56:37.042Z</time>
      </trkpt>
      <trkpt lat="50.43514" lon="3.52838">
        <ele>36</ele>
        <time>2022-04-15T12:56:39.523Z</time>
      </trkpt>
      <trkpt lat="50.4351" lon="3.52829">
        <ele>36</ele>
        <time>2022-04-15T12:56:42.141Z</time>
      </trkpt>
      <trkpt lat="50.43502" lon="3.52822">
        <ele>36</ele>
        <time>2022-04-15T12:56:44.363Z</time>
      </trkpt>
      <trkpt lat="50.43498" lon="3.52815">
        <ele>36</ele>
        <time>2022-04-15T12:56:47.000Z</time>
      </trkpt>
      <trkpt lat="50.43494" lon="3.52811">
        <ele>36</ele>
        <time>2022-04-15T12:56:48.000Z</time>
      </trkpt>
      <trkpt lat="50.4349" lon="3.52804">
        <ele>36</ele>
        <time>2022-04-15T12:56:50.000Z</time>
      </trkpt>
      <trkpt lat="50.43486" lon="3.52797">
        <ele>36</ele>
        <time>2022-04-15T12:56:52.000Z</time>
      </trkpt>
      <trkpt lat="50.43482" lon="3.52792">
        <ele>36</ele>
        <time>2022-04-15T12:56:54.000Z</time>
      </trkpt>
      <trkpt lat="50.43478" lon="3.52784">
        <ele>36</ele>
        <time>2022-04-15T12:57:08.000Z</time>
      </trkpt>
      <trkpt lat="50.43473" lon="3.52778">
        <ele>36</ele>
        <time>2022-04-15T12:57:10.182Z</time>
      </trkpt>
      <trkpt lat="50.43468" lon="3.52771">
        <ele>36</ele>
        <time>2022-04-15T12:57:11.545Z</time>
      </trkpt>
      <trkpt lat="50.43465" lon="3.52765">
        <ele>36</ele>
        <time>2022-04-15T12:57:14.042Z</time>
      </trkpt>
      <trkpt lat="50.43462" lon="3.52759">
        <ele>36</ele>
        <time>2022-04-15T12:57:36.000Z</time>
      </trkpt>
      <trkpt lat="50.43458" lon="3.52753">
        <ele>36</ele>
        <time>2022-04-15T12:57:37.000Z</time>
      </trkpt>
      <trkpt lat="50.43453" lon="3.52746">
        <ele>36</ele>
        <time>2022-04-15T12:57:41.124Z</time>
      </trkpt>
      <trkpt lat="50.43448" lon="3.52741">
        <ele>36</ele>
        <time>2022-04-15T12:57:43.084Z</time>
      </trkpt>
      <trkpt lat="50.43443" lon="3.52732">
        <ele>36</ele>
        <time>2022-04-15T12:57:46.124Z</time>
      </trkpt>
      <trkpt lat="50.43439" lon="3.52728">
        <ele>36</ele>
        <time>2022-04-15T12:57:48.479Z</time>
      </trkpt>
      <trkpt lat="50.43434" lon="3.5272">
        <ele>36</ele>
        <time>2022-04-15T12:57:51.000Z</time>
      </trkpt>
      <trkpt lat="50.4343" lon="3.5271">
        <ele>36</ele>
        <time>2022-04-15T12:57:55.081Z</time>
      </trkpt>
      <trkpt lat="50.43427" lon="3.52705">
        <ele>36</ele>
        <time>2022-04-15T12:57:57.705Z</time>
      </trkpt>
      <trkpt lat="50.43422" lon="3.52698">
        <ele>36</ele>
        <time>2022-04-15T12:58:00.000Z</time>
      </trkpt>
      <trkpt lat="50.43419" lon="3.52693">
        <ele>36</ele>
        <time>2022-04-15T12:58:02.520Z</time>
      </trkpt>
      <trkpt lat="50.43415" lon="3.52687">
        <ele>36</ele>
        <time>2022-04-15T12:58:05.000Z</time>
      </trkpt>
      <trkpt lat="50.43409" lon="3.52681">
        <ele>36</ele>
        <time>2022-04-15T12:58:08.000Z</time>
      </trkpt>
      <trkpt lat="50.43406" lon="3.52677">
        <ele>36</ele>
        <time>2022-04-15T12:58:10.923Z</time>
      </trkpt>
      <trkpt lat="50.43401" lon="3.52669">
        <ele>36</ele>
        <time>2022-04-15T12:58:14.082Z</time>
      </trkpt>
      <trkpt lat="50.43396" lon="3.52659">
        <ele>36</ele>
        <time>2022-04-15T12:58:16.844Z</time>
      </trkpt>
      <trkpt lat="50.4339" lon="3.52651">
        <ele>36</ele>
        <time>2022-04-15T12:58:19.541Z</time>
      </trkpt>
      <trkpt lat="50.43386" lon="3.52644">
        <ele>36</ele>
        <time>2022-04-15T12:58:23.000Z</time>
      </trkpt>
      <trkpt lat="50.43381" lon="3.52637">
        <ele>36</ele>
        <time>2022-04-15T12:58:26.000Z</time>
      </trkpt>
      <trkpt lat="50.43376" lon="3.52628">
        <ele>36</ele>
        <time>2022-04-15T12:58:29.000Z</time>
      </trkpt>
      <trkpt lat="50.43373" lon="3.52623">
        <ele>36</ele>
        <time>2022-04-15T12:58:31.142Z</time>
      </trkpt>
      <trkpt lat="50.43368" lon="3.52617">
        <ele>36</ele>
        <time>2022-04-15T12:58:34.461Z</time>
      </trkpt>
      <trkpt lat="50.43363" lon="3.52609">
        <ele>36</ele>
        <time>2022-04-15T12:58:36.964Z</time>
      </trkpt>
      <trkpt lat="50.43359" lon="3.52602">
        <ele>36</ele>
        <time>2022-04-15T12:58:40.000Z</time>
      </trkpt>
      <trkpt lat="50.43355" lon="3.52596">
        <ele>36</ele>
        <time>2022-04-15T12:58:42.902Z</time>
      </trkpt>
      <trkpt lat="50.43351" lon="3.52592">
        <ele>36</ele>
        <time>2022-04-15T12:58:45.000Z</time>
      </trkpt>
      <trkpt lat="50.43347" lon="3.52586">
        <ele>36</ele>
        <time>2022-04-15T12:58:46.642Z</time>
      </trkpt>
      <trkpt lat="50.43343" lon="3.52582">
        <ele>36</ele>
        <time>2022-04-15T12:58:48.904Z</time>
      </trkpt>
      <trkpt lat="50.43338" lon="3.52577">
        <ele>36</ele>
        <time>2022-04-15T12:58:51.000Z</time>
      </trkpt>
      <trkpt lat="50.43335" lon="3.52571">
        <ele>36</ele>
        <time>2022-04-15T12:58:53.440Z</time>
      </trkpt>
      <trkpt lat="50.43331" lon="3.52565">
        <ele>36</ele>
        <time>2022-04-15T12:58:55.904Z</time>
      </trkpt>
      <trkpt lat="50.43328" lon="3.52557">
        <ele>36</ele>
        <time>2022-04-15T12:58:59.065Z</time>
      </trkpt>
      <trkpt lat="50.43324" lon="3.52552">
        <ele>36</ele>
        <time>2022-04-15T12:59:01.561Z</time>
      </trkpt>
      <trkpt lat="50.4332" lon="3.52546">
        <ele>36</ele>
        <time>2022-04-15T12:59:04.505Z</time>
      </trkpt>
      <trkpt lat="50.43317" lon="3.5254">
        <ele>36</ele>
        <time>2022-04-15T12:59:06.982Z</time>
      </trkpt>
      <trkpt lat="50.43314" lon="3.52533">
        <ele>36</ele>
        <time>2022-04-15T12:59:09.000Z</time>
      </trkpt>
      <trkpt lat="50.43309" lon="3.52527">
        <ele>36</ele>
        <time>2022-04-15T12:59:11.063Z</time>
      </trkpt>
      <trkpt lat="50.43305" lon="3.52519">
        <ele>36.3</ele>
        <time>2022-04-15T12:59:14.159Z</time>
      </trkpt>
      <trkpt lat="50.43299" lon="3.52511">
        <ele>36.7</ele>
        <time>2022-04-15T12:59:17.000Z</time>
      </trkpt>
      <trkpt lat="50.43296" lon="3.52505">
        <ele>36.9</ele>
        <time>2022-04-15T12:59:19.000Z</time>
      </trkpt>
      <trkpt lat="50.43292" lon="3.525">
        <ele>37</ele>
        <time>2022-04-15T12:59:21.000Z</time>
      </trkpt>
      <trkpt lat="50.43286" lon="3.52492">
        <ele>37</ele>
        <time>2022-04-15T12:59:23.421Z</time>
      </trkpt>
      <trkpt lat="50.4328" lon="3.52485">
        <ele>37</ele>
        <time>2022-04-15T12:59:25.565Z</time>
      </trkpt>
      <trkpt lat="50.43276" lon="3.52478">
        <ele>37</ele>
        <time>2022-04-15T12:59:27.984Z</time>
      </trkpt>
      <trkpt lat="50.43274" lon="3.52472">
        <ele>37</ele>
        <time>2022-04-15T12:59:30.221Z</time>
      </trkpt>
      <trkpt lat="50.43269" lon="3.52466">
        <ele>37</ele>
        <time>2022-04-15T12:59:32.842Z</time>
      </trkpt>
      <trkpt lat="50.43265" lon="3.5246">
        <ele>37</ele>
        <time>2022-04-15T12:59:35.000Z</time>
      </trkpt>
      <trkpt lat="50.43262" lon="3.52454">
        <ele>37</ele>
        <time>2022-04-15T12:59:37.000Z</time>
      </trkpt>
      <trkpt lat="50.43258" lon="3.52448">
        <ele>37</ele>
        <time>2022-04-15T12:59:40.000Z</time>
      </trkpt>
      <trkpt lat="50.43254" lon="3.52443">
        <ele>37</ele>
        <time>2022-04-15T12:59:42.000Z</time>
      </trkpt>
      <trkpt lat="50.43249" lon="3.52439">
        <ele>37</ele>
        <time>2022-04-15T12:59:43.965Z</time>
      </trkpt>
      <trkpt lat="50.43246" lon="3.52435">
        <ele>37</ele>
        <time>2022-04-15T12:59:45.000Z</time>
      </trkpt>
      <trkpt lat="50.43241" lon="3.52431">
        <ele>37</ele>
        <time>2022-04-15T12:59:46.023Z</time>
      </trkpt>
      <trkpt lat="50.43238" lon="3.52423">
        <ele>37</ele>
        <time>2022-04-15T12:59:48.000Z</time>
      </trkpt>
      <trkpt lat="50.43233" lon="3.52418">
        <ele>37</ele>
        <time>2022-04-15T12:59:50.461Z</time>
      </trkpt>
      <trkpt lat="50.43229" lon="3.52412">
        <ele>37</ele>
        <time>2022-04-15T12:59:53.000Z</time>
      </trkpt>
      <trkpt lat="50.43225" lon="3.52406">
        <ele>37</ele>
        <time>2022-04-15T12:59:55.000Z</time>
      </trkpt>
      <trkpt lat="50.4322" lon="3.52397">
        <ele>37</ele>
        <time>2022-04-15T12:59:58.000Z</time>
      </trkpt>
      <trkpt lat="50.43216" lon="3.5239">
        <ele>37</ele>
        <time>2022-04-15T13:00:00.803Z</time>
      </trkpt>
      <trkpt lat="50.43212" lon="3.52382">
        <ele>37</ele>
        <time>2022-04-15T13:00:03.000Z</time>
      </trkpt>
      <trkpt lat="50.43207" lon="3.52375">
        <ele>37</ele>
        <time>2022-04-15T13:00:06.000Z</time>
      </trkpt>
      <trkpt lat="50.43204" lon="3.52369">
        <ele>37</ele>
        <time>2022-04-15T13:00:08.100Z</time>
      </trkpt>
      <trkpt lat="50.43201" lon="3.52363">
        <ele>37</ele>
        <time>2022-04-15T13:00:10.000Z</time>
      </trkpt>
      <trkpt lat="50.43196" lon="3.52356">
        <ele>37</ele>
        <time>2022-04-15T13:00:12.940Z</time>
      </trkpt>
      <trkpt lat="50.43191" lon="3.52347">
        <ele>37</ele>
        <time>2022-04-15T13:00:15.000Z</time>
      </trkpt>
      <trkpt lat="50.43189" lon="3.5234">
        <ele>37</ele>
        <time>2022-04-15T13:00:17.124Z</time>
      </trkpt>
      <trkpt lat="50.43186" lon="3.52334">
        <ele>37</ele>
        <time>2022-04-15T13:00:18.260Z</time>
      </trkpt>
      <trkpt lat="50.43181" lon="3.52327">
        <ele>37</ele>
        <time>2022-04-15T13:00:21.000Z</time>
      </trkpt>
      <trkpt lat="50.43173" lon="3.5232">
        <ele>37</ele>
        <time>2022-04-15T13:00:23.720Z</time>
      </trkpt>
      <trkpt lat="50.4317" lon="3.52315">
        <ele>37</ele>
        <time>2022-04-15T13:00:26.000Z</time>
      </trkpt>
      <trkpt lat="50.43165" lon="3.52306">
        <ele>37</ele>
        <time>2022-04-15T13:00:28.484Z</time>
      </trkpt>
      <trkpt lat="50.43162" lon="3.52301">
        <ele>37</ele>
        <time>2022-04-15T13:00:30.741Z</time>
      </trkpt>
      <trkpt lat="50.43158" lon="3.52295">
        <ele>37</ele>
        <time>2022-04-15T13:00:33.121Z</time>
      </trkpt>
      <trkpt lat="50.43154" lon="3.52288">
        <ele>37</ele>
        <time>2022-04-15T13:00:35.200Z</time>
      </trkpt>
      <trkpt lat="50.43149" lon="3.52283">
        <ele>37</ele>
        <time>2022-04-15T13:00:37.324Z</time>
      </trkpt>
      <trkpt lat="50.43145" lon="3.52279">
        <ele>37</ele>
        <time>2022-04-15T13:00:39.642Z</time>
      </trkpt>
      <trkpt lat="50.4314" lon="3.52271">
        <ele>37</ele>
        <time>2022-04-15T13:00:42.883Z</time>
      </trkpt>
      <trkpt lat="50.43137" lon="3.52264">
        <ele>37</ele>
        <time>2022-04-15T13:00:45.183Z</time>
      </trkpt>
      <trkpt lat="50.43134" lon="3.52257">
        <ele>37</ele>
        <time>2022-04-15T13:00:47.540Z</time>
      </trkpt>
      <trkpt lat="50.43129" lon="3.5225">
        <ele>37</ele>
        <time>2022-04-15T13:00:50.000Z</time>
      </trkpt>
      <trkpt lat="50.43125" lon="3.52244">
        <ele>37</ele>
        <time>2022-04-15T13:00:52.085Z</time>
      </trkpt>
      <trkpt lat="50.4312" lon="3.52237">
        <ele>37</ele>
        <time>2022-04-15T13:00:55.042Z</time>
      </trkpt>
      <trkpt lat="50.43116" lon="3.5223">
        <ele>37</ele>
        <time>2022-04-15T13:00:57.663Z</time>
      </trkpt>
      <trkpt lat="50.43112" lon="3.52224">
        <ele>37</ele>
        <time>2022-04-15T13:01:00.039Z</time>
      </trkpt>
      <trkpt lat="50.43107" lon="3.52219">
        <ele>37</ele>
        <time>2022-04-15T13:01:03.000Z</time>
      </trkpt>
      <trkpt lat="50.43101" lon="3.52211">
        <ele>37</ele>
        <time>2022-04-15T13:01:07.000Z</time>
      </trkpt>
      <trkpt lat="50.43096" lon="3.522">
        <ele>37</ele>
        <time>2022-04-15T13:01:10.103Z</time>
      </trkpt>
      <trkpt lat="50.43091" lon="3.52194">
        <ele>37</ele>
        <time>2022-04-15T13:01:13.000Z</time>
      </trkpt>
      <trkpt lat="50.43088" lon="3.52189">
        <ele>37</ele>
        <time>2022-04-15T13:01:15.022Z</time>
      </trkpt>
      <trkpt lat="50.43083" lon="3.52181">
        <ele>37</ele>
        <time>2022-04-15T13:01:18.161Z</time>
      </trkpt>
      <trkpt lat="50.43078" lon="3.52174">
        <ele>37</ele>
        <time>2022-04-15T13:01:20.842Z</time>
      </trkpt>
      <trkpt lat="50.43073" lon="3.52166">
        <ele>37</ele>
        <time>2022-04-15T13:01:23.000Z</time>
      </trkpt>
      <trkpt lat="50.43066" lon="3.52155">
        <ele>37</ele>
        <time>2022-04-15T13:01:25.963Z</time>
      </trkpt>
      <trkpt lat="50.4306" lon="3.52145">
        <ele>37</ele>
        <time>2022-04-15T13:01:28.000Z</time>
      </trkpt>
      <trkpt lat="50.43056" lon="3.52138">
        <ele>37</ele>
        <time>2022-04-15T13:01:30.000Z</time>
      </trkpt>
      <trkpt lat="50.4305" lon="3.5213">
        <ele>37</ele>
        <time>2022-04-15T13:01:31.542Z</time>
      </trkpt>
      <trkpt lat="50.43044" lon="3.5212">
        <ele>37</ele>
        <time>2022-04-15T13:01:33.647Z</time>
      </trkpt>
      <trkpt lat="50.43039" lon="3.52111">
        <ele>37</ele>
        <time>2022-04-15T13:01:35.102Z</time>
      </trkpt>
      <trkpt lat="50.43033" lon="3.52101">
        <ele>37</ele>
        <time>2022-04-15T13:01:37.000Z</time>
      </trkpt>
      <trkpt lat="50.4303" lon="3.52096">
        <ele>37</ele>
        <time>2022-04-15T13:01:38.020Z</time>
      </trkpt>
      <trkpt lat="50.43024" lon="3.52088">
        <ele>37</ele>
        <time>2022-04-15T13:01:40.000Z</time>
      </trkpt>
      <trkpt lat="50.43019" lon="3.52077">
        <ele>37</ele>
        <time>2022-04-15T13:01:42.684Z</time>
      </trkpt>
      <trkpt lat="50.43011" lon="3.52063">
        <ele>37</ele>
        <time>2022-04-15T13:01:45.924Z</time>
      </trkpt>
      <trkpt lat="50.43005" lon="3.5206">
        <ele>37</ele>
        <time>2022-04-15T13:01:48.000Z</time>
      </trkpt>
      <trkpt lat="50.42999" lon="3.52052">
        <ele>37</ele>
        <time>2022-04-15T13:01:50.765Z</time>
      </trkpt>
      <trkpt lat="50.42996" lon="3.52044">
        <ele>37</ele>
        <time>2022-04-15T13:01:53.000Z</time>
      </trkpt>
      <trkpt lat="50.42992" lon="3.52037">
        <ele>37</ele>
        <time>2022-04-15T13:01:55.000Z</time>
      </trkpt>
      <trkpt lat="50.42985" lon="3.5203">
        <ele>37</ele>
        <time>2022-04-15T13:01:57.000Z</time>
      </trkpt>
      <trkpt lat="50.4298" lon="3.5202">
        <ele>37</ele>
        <time>2022-04-15T13:02:00.021Z</time>
      </trkpt>
      <trkpt lat="50.42976" lon="3.52014">
        <ele>37</ele>
        <time>2022-04-15T13:02:02.303Z</time>
      </trkpt>
      <trkpt lat="50.42974" lon="3.52005">
        <ele>37</ele>
        <time>2022-04-15T13:02:04.500Z</time>
      </trkpt>
      <trkpt lat="50.42971" lon="3.52">
        <ele>37</ele>
        <time>2022-04-15T13:02:06.939Z</time>
      </trkpt>
      <trkpt lat="50.42966" lon="3.51993">
        <ele>37</ele>
        <time>2022-04-15T13:02:09.000Z</time>
      </trkpt>
      <trkpt lat="50.42958" lon="3.51981">
        <ele>37</ele>
        <time>2022-04-15T13:02:12.961Z</time>
      </trkpt>
      <trkpt lat="50.42952" lon="3.51976">
        <ele>37</ele>
        <time>2022-04-15T13:02:15.000Z</time>
      </trkpt>
      <trkpt lat="50.42946" lon="3.51965">
        <ele>37</ele>
        <time>2022-04-15T13:02:17.783Z</time>
      </trkpt>
      <trkpt lat="50.42942" lon="3.51958">
        <ele>37</ele>
        <time>2022-04-15T13:02:19.743Z</time>
      </trkpt>
      <trkpt lat="50.42939" lon="3.51953">
        <ele>37</ele>
        <time>2022-04-15T13:02:22.105Z</time>
      </trkpt>
      <trkpt lat="50.42934" lon="3.51946">
        <ele>37</ele>
        <time>2022-04-15T13:02:24.583Z</time>
      </trkpt>
      <trkpt lat="50.42929" lon="3.5194">
        <ele>37</ele>
        <time>2022-04-15T13:02:26.842Z</time>
      </trkpt>
      <trkpt lat="50.42925" lon="3.51935">
        <ele>37</ele>
        <time>2022-04-15T13:02:29.383Z</time>
      </trkpt>
      <trkpt lat="50.42922" lon="3.51929">
        <ele>37</ele>
        <time>2022-04-15T13:02:30.824Z</time>
      </trkpt>
      <trkpt lat="50.42919" lon="3.51923">
        <ele>37</ele>
        <time>2022-04-15T13:02:32.000Z</time>
      </trkpt>
      <trkpt lat="50.42914" lon="3.51915">
        <ele>37.1</ele>
        <time>2022-04-15T13:02:34.000Z</time>
      </trkpt>
      <trkpt lat="50.42911" lon="3.5191">
        <ele>37.2</ele>
        <time>2022-04-15T13:02:36.000Z</time>
      </trkpt>
      <trkpt lat="50.42905" lon="3.51902">
        <ele>37.2</ele>
        <time>2022-04-15T13:02:39.904Z</time>
      </trkpt>
      <trkpt lat="50.42901" lon="3.51894">
        <ele>37.1</ele>
        <time>2022-04-15T13:02:42.000Z</time>
      </trkpt>
      <trkpt lat="50.42896" lon="3.51886">
        <ele>37</ele>
        <time>2022-04-15T13:02:44.725Z</time>
      </trkpt>
      <trkpt lat="50.42892" lon="3.51878">
        <ele>37</ele>
        <time>2022-04-15T13:02:47.202Z</time>
      </trkpt>
      <trkpt lat="50.42888" lon="3.51869">
        <ele>37</ele>
        <time>2022-04-15T13:02:49.182Z</time>
      </trkpt>
      <trkpt lat="50.42883" lon="3.5186">
        <ele>37</ele>
        <time>2022-04-15T13:02:51.864Z</time>
      </trkpt>
      <trkpt lat="50.42878" lon="3.51853">
        <ele>37</ele>
        <time>2022-04-15T13:02:54.000Z</time>
      </trkpt>
      <trkpt lat="50.42874" lon="3.51847">
        <ele>37</ele>
        <time>2022-04-15T13:02:55.383Z</time>
      </trkpt>
      <trkpt lat="50.42867" lon="3.5184">
        <ele>37</ele>
        <time>2022-04-15T13:02:57.743Z</time>
      </trkpt>
      <trkpt lat="50.42863" lon="3.51831">
        <ele>37</ele>
        <time>2022-04-15T13:03:00.142Z</time>
      </trkpt>
      <trkpt lat="50.42859" lon="3.51825">
        <ele>37</ele>
        <time>2022-04-15T13:03:01.843Z</time>
      </trkpt>
      <trkpt lat="50.42853" lon="3.51818">
        <ele>37</ele>
        <time>2022-04-15T13:03:04.000Z</time>
      </trkpt>
      <trkpt lat="50.42849" lon="3.51811">
        <ele>37</ele>
        <time>2022-04-15T13:03:07.000Z</time>
      </trkpt>
      <trkpt lat="50.42845" lon="3.51804">
        <ele>37</ele>
        <time>2022-04-15T13:03:09.501Z</time>
      </trkpt>
      <trkpt lat="50.42842" lon="3.51797">
        <ele>37</ele>
        <time>2022-04-15T13:03:11.902Z</time>
      </trkpt>
      <trkpt lat="50.42838" lon="3.5179">
        <ele>37</ele>
        <time>2022-04-15T13:03:13.960Z</time>
      </trkpt>
      <trkpt lat="50.42834" lon="3.51784">
        <ele>37</ele>
        <time>2022-04-15T13:03:16.121Z</time>
      </trkpt>
      <trkpt lat="50.42831" lon="3.5178">
        <ele>37</ele>
        <time>2022-04-15T13:03:17.442Z</time>
      </trkpt>
      <trkpt lat="50.42827" lon="3.51775">
        <ele>37</ele>
        <time>2022-04-15T13:03:19.059Z</time>
      </trkpt>
      <trkpt lat="50.42824" lon="3.51769">
        <ele>37</ele>
        <time>2022-04-15T13:03:21.000Z</time>
      </trkpt>
      <trkpt lat="50.42821" lon="3.51764">
        <ele>37</ele>
        <time>2022-04-15T13:03:22.005Z</time>
      </trkpt>
      <trkpt lat="50.42816" lon="3.51757">
        <ele>37</ele>
        <time>2022-04-15T13:03:24.322Z</time>
      </trkpt>
      <trkpt lat="50.42811" lon="3.51748">
        <ele>37</ele>
        <time>2022-04-15T13:03:26.650Z</time>
      </trkpt>
      <trkpt lat="50.42807" lon="3.51739">
        <ele>37</ele>
        <time>2022-04-15T13:03:28.947Z</time>
      </trkpt>
      <trkpt lat="50.42802" lon="3.51732">
        <ele>37.1</ele>
        <time>2022-04-15T13:03:31.684Z</time>
      </trkpt>
      <trkpt lat="50.42799" lon="3.51726">
        <ele>37.2</ele>
        <time>2022-04-15T13:03:35.143Z</time>
      </trkpt>
      <trkpt lat="50.42796" lon="3.51718">
        <ele>37.3</ele>
        <time>2022-04-15T13:04:12.000Z</time>
      </trkpt>
      <trkpt lat="50.42796" lon="3.5171">
        <ele>37.3</ele>
        <time>2022-04-15T13:04:14.000Z</time>
      </trkpt>
      <trkpt lat="50.42798" lon="3.51702">
        <ele>37.3</ele>
        <time>2022-04-15T13:04:16.000Z</time>
      </trkpt>
      <trkpt lat="50.42801" lon="3.51691">
        <ele>37.2</ele>
        <time>2022-04-15T13:04:18.000Z</time>
      </trkpt>
      <trkpt lat="50.42804" lon="3.51685">
        <ele>37.1</ele>
        <time>2022-04-15T13:04:20.861Z</time>
      </trkpt>
      <trkpt lat="50.42806" lon="3.51672">
        <ele>37</ele>
        <time>2022-04-15T13:04:22.782Z</time>
      </trkpt>
      <trkpt lat="50.42809" lon="3.51662">
        <ele>37.1</ele>
        <time>2022-04-15T13:04:24.000Z</time>
      </trkpt>
      <trkpt lat="50.42812" lon="3.51647">
        <ele>37.5</ele>
        <time>2022-04-15T13:04:26.143Z</time>
      </trkpt>
      <trkpt lat="50.42815" lon="3.51637">
        <ele>37.7</ele>
        <time>2022-04-15T13:04:28.000Z</time>
      </trkpt>
      <trkpt lat="50.42811" lon="3.51643">
        <ele>37.7</ele>
        <time>2022-04-15T13:04:43.002Z</time>
      </trkpt>
      <trkpt lat="50.42808" lon="3.51652">
        <ele>37.5</ele>
        <time>2022-04-15T13:04:45.964Z</time>
      </trkpt>
      <trkpt lat="50.42807" lon="3.5166">
        <ele>37.2</ele>
        <time>2022-04-15T13:04:48.000Z</time>
      </trkpt>
      <trkpt lat="50.42805" lon="3.5167">
        <ele>37</ele>
        <time>2022-04-15T13:04:50.103Z</time>
      </trkpt>
      <trkpt lat="50.42803" lon="3.51681">
        <ele>37.1</ele>
        <time>2022-04-15T13:04:53.000Z</time>
      </trkpt>
      <trkpt lat="50.42803" lon="3.5169">
        <ele>37.1</ele>
        <time>2022-04-15T13:04:55.120Z</time>
      </trkpt>
      <trkpt lat="50.42801" lon="3.51696">
        <ele>37.2</ele>
        <time>2022-04-15T13:04:56.542Z</time>
      </trkpt>
      <trkpt lat="50.42799" lon="3.51709">
        <ele>37.2</ele>
        <time>2022-04-15T13:04:59.222Z</time>
      </trkpt>
      <trkpt lat="50.42794" lon="3.51713">
        <ele>37.4</ele>
        <time>2022-04-15T13:05:01.702Z</time>
      </trkpt>
      <trkpt lat="50.4279" lon="3.51709">
        <ele>37.6</ele>
        <time>2022-04-15T13:05:04.000Z</time>
      </trkpt>
      <trkpt lat="50.42784" lon="3.51706">
        <ele>37.8</ele>
        <time>2022-04-15T13:05:07.000Z</time>
      </trkpt>
      <trkpt lat="50.42777" lon="3.51699">
        <ele>38</ele>
        <time>2022-04-15T13:05:09.904Z</time>
      </trkpt>
      <trkpt lat="50.42773" lon="3.51694">
        <ele>38</ele>
        <time>2022-04-15T13:05:11.700Z</time>
      </trkpt>
      <trkpt lat="50.42769" lon="3.51686">
        <ele>38</ele>
        <time>2022-04-15T13:05:13.000Z</time>
      </trkpt>
      <trkpt lat="50.42759" lon="3.51673">
        <ele>38</ele>
        <time>2022-04-15T13:05:16.000Z</time>
      </trkpt>
      <trkpt lat="50.42752" lon="3.5166">
        <ele>38</ele>
        <time>2022-04-15T13:05:18.941Z</time>
      </trkpt>
      <trkpt lat="50.42748" lon="3.51654">
        <ele>37.9</ele>
        <time>2022-04-15T13:05:20.000Z</time>
      </trkpt>
      <trkpt lat="50.42736" lon="3.51643">
        <ele>37.5</ele>
        <time>2022-04-15T13:05:23.000Z</time>
      </trkpt>
      <trkpt lat="50.42731" lon="3.51642">
        <ele>37.3</ele>
        <time>2022-04-15T13:05:24.000Z</time>
      </trkpt>
      <trkpt lat="50.42722" lon="3.51638">
        <ele>37</ele>
        <time>2022-04-15T13:05:26.303Z</time>
      </trkpt>
      <trkpt lat="50.42712" lon="3.51632">
        <ele>37</ele>
        <time>2022-04-15T13:05:28.804Z</time>
      </trkpt>
      <trkpt lat="50.42704" lon="3.51629">
        <ele>37</ele>
        <time>2022-04-15T13:05:31.000Z</time>
      </trkpt>
      <trkpt lat="50.42698" lon="3.51624">
        <ele>37</ele>
        <time>2022-04-15T13:05:32.000Z</time>
      </trkpt>
      <trkpt lat="50.42695" lon="3.5162">
        <ele>37</ele>
        <time>2022-04-15T13:05:33.903Z</time>
      </trkpt>
      <trkpt lat="50.42689" lon="3.51616">
        <ele>37</ele>
        <time>2022-04-15T13:05:35.022Z</time>
      </trkpt>
      <trkpt lat="50.42684" lon="3.51613">
        <ele>37</ele>
        <time>2022-04-15T13:05:36.525Z</time>
      </trkpt>
      <trkpt lat="50.42678" lon="3.5161">
        <ele>37</ele>
        <time>2022-04-15T13:05:37.719Z</time>
      </trkpt>
      <trkpt lat="50.42669" lon="3.51605">
        <ele>37</ele>
        <time>2022-04-15T13:05:40.000Z</time>
      </trkpt>
      <trkpt lat="50.42669" lon="3.51594">
        <ele>37</ele>
        <time>2022-04-15T13:05:42.000Z</time>
      </trkpt>
      <trkpt lat="50.42669" lon="3.51586">
        <ele>37</ele>
        <time>2022-04-15T13:05:43.000Z</time>
      </trkpt>
      <trkpt lat="50.42666" lon="3.5158">
        <ele>37</ele>
        <time>2022-04-15T13:05:44.000Z</time>
      </trkpt>
      <trkpt lat="50.42663" lon="3.51566">
        <ele>36.9</ele>
        <time>2022-04-15T13:05:46.000Z</time>
      </trkpt>
      <trkpt lat="50.42662" lon="3.51559">
        <ele>36.8</ele>
        <time>2022-04-15T13:05:47.000Z</time>
      </trkpt>
      <trkpt lat="50.42661" lon="3.51549">
        <ele>36.6</ele>
        <time>2022-04-15T13:05:48.000Z</time>
      </trkpt>
      <trkpt lat="50.4266" lon="3.51541">
        <ele>36.4</ele>
        <time>2022-04-15T13:05:49.000Z</time>
      </trkpt>
      <trkpt lat="50.4266" lon="3.51532">
        <ele>36.1</ele>
        <time>2022-04-15T13:05:50.000Z</time>
      </trkpt>
      <trkpt lat="50.4266" lon="3.51521">
        <ele>36</ele>
        <time>2022-04-15T13:05:51.000Z</time>
      </trkpt>
      <trkpt lat="50.4266" lon="3.51514">
        <ele>36</ele>
        <time>2022-04-15T13:05:52.000Z</time>
      </trkpt>
      <trkpt lat="50.4266" lon="3.51506">
        <ele>36</ele>
        <time>2022-04-15T13:05:53.000Z</time>
      </trkpt>
      <trkpt lat="50.42659" lon="3.51496">
        <ele>36</ele>
        <time>2022-04-15T13:05:54.000Z</time>
      </trkpt>
      <trkpt lat="50.42655" lon="3.51479">
        <ele>36</ele>
        <time>2022-04-15T13:05:57.000Z</time>
      </trkpt>
      <trkpt lat="50.42653" lon="3.51467">
        <ele>36</ele>
        <time>2022-04-15T13:05:58.000Z</time>
      </trkpt>
      <trkpt lat="50.42651" lon="3.51454">
        <ele>36</ele>
        <time>2022-04-15T13:05:59.000Z</time>
      </trkpt>
      <trkpt lat="50.42648" lon="3.51443">
        <ele>36</ele>
        <time>2022-04-15T13:06:00.000Z</time>
      </trkpt>
      <trkpt lat="50.42647" lon="3.51434">
        <ele>36</ele>
        <time>2022-04-15T13:06:01.000Z</time>
      </trkpt>
      <trkpt lat="50.42646" lon="3.51424">
        <ele>36</ele>
        <time>2022-04-15T13:06:02.000Z</time>
      </trkpt>
      <trkpt lat="50.42645" lon="3.51416">
        <ele>36</ele>
        <time>2022-04-15T13:06:03.000Z</time>
      </trkpt>
      <trkpt lat="50.42643" lon="3.51408">
        <ele>36</ele>
        <time>2022-04-15T13:06:04.000Z</time>
      </trkpt>
      <trkpt lat="50.4264" lon="3.51401">
        <ele>36</ele>
        <time>2022-04-15T13:06:05.000Z</time>
      </trkpt>
      <trkpt lat="50.42638" lon="3.51393">
        <ele>36</ele>
        <time>2022-04-15T13:06:06.000Z</time>
      </trkpt>
      <trkpt lat="50.42636" lon="3.51386">
        <ele>36</ele>
        <time>2022-04-15T13:06:07.000Z</time>
      </trkpt>
      <trkpt lat="50.42634" lon="3.51369">
        <ele>36</ele>
        <time>2022-04-15T13:06:09.000Z</time>
      </trkpt>
      <trkpt lat="50.42633" lon="3.5136">
        <ele>36</ele>
        <time>2022-04-15T13:06:10.880Z</time>
      </trkpt>
      <trkpt lat="50.42631" lon="3.51351">
        <ele>36</ele>
        <time>2022-04-15T13:06:12.000Z</time>
      </trkpt>
      <trkpt lat="50.42629" lon="3.51342">
        <ele>36</ele>
        <time>2022-04-15T13:06:13.000Z</time>
      </trkpt>
      <trkpt lat="50.42627" lon="3.51335">
        <ele>36</ele>
        <time>2022-04-15T13:06:14.000Z</time>
      </trkpt>
      <trkpt lat="50.42625" lon="3.51326">
        <ele>36</ele>
        <time>2022-04-15T13:06:15.000Z</time>
      </trkpt>
      <trkpt lat="50.42624" lon="3.51312">
        <ele>36</ele>
        <time>2022-04-15T13:06:17.000Z</time>
      </trkpt>
      <trkpt lat="50.42622" lon="3.51302">
        <ele>36</ele>
        <time>2022-04-15T13:06:18.000Z</time>
      </trkpt>
      <trkpt lat="50.4262" lon="3.51293">
        <ele>36</ele>
        <time>2022-04-15T13:06:19.000Z</time>
      </trkpt>
      <trkpt lat="50.42623" lon="3.51286">
        <ele>36</ele>
        <time>2022-04-15T13:06:20.119Z</time>
      </trkpt>
      <trkpt lat="50.42622" lon="3.51277">
        <ele>36</ele>
        <time>2022-04-15T13:06:22.000Z</time>
      </trkpt>
      <trkpt lat="50.42622" lon="3.51269">
        <ele>36</ele>
        <time>2022-04-15T13:06:23.000Z</time>
      </trkpt>
      <trkpt lat="50.42619" lon="3.51254">
        <ele>36</ele>
        <time>2022-04-15T13:06:25.388Z</time>
      </trkpt>
      <trkpt lat="50.42618" lon="3.51246">
        <ele>36</ele>
        <time>2022-04-15T13:06:27.783Z</time>
      </trkpt>
      <trkpt lat="50.4262" lon="3.51235">
        <ele>36</ele>
        <time>2022-04-15T13:06:30.000Z</time>
      </trkpt>
      <trkpt lat="50.42621" lon="3.51225">
        <ele>36</ele>
        <time>2022-04-15T13:06:31.478Z</time>
      </trkpt>
      <trkpt lat="50.42622" lon="3.51213">
        <ele>36</ele>
        <time>2022-04-15T13:06:33.121Z</time>
      </trkpt>
      <trkpt lat="50.42622" lon="3.51205">
        <ele>36</ele>
        <time>2022-04-15T13:06:34.618Z</time>
      </trkpt>
      <trkpt lat="50.42621" lon="3.51196">
        <ele>36</ele>
        <time>2022-04-15T13:06:36.021Z</time>
      </trkpt>
      <trkpt lat="50.42621" lon="3.51188">
        <ele>35.9</ele>
        <time>2022-04-15T13:06:37.000Z</time>
      </trkpt>
      <trkpt lat="50.42623" lon="3.51174">
        <ele>35.6</ele>
        <time>2022-04-15T13:06:39.099Z</time>
      </trkpt>
      <trkpt lat="50.42627" lon="3.51159">
        <ele>35.6</ele>
        <time>2022-04-15T13:06:41.301Z</time>
      </trkpt>
      <trkpt lat="50.42627" lon="3.51146">
        <ele>35.6</ele>
        <time>2022-04-15T13:06:43.000Z</time>
      </trkpt>
      <trkpt lat="50.42628" lon="3.51139">
        <ele>35.6</ele>
        <time>2022-04-15T13:06:44.000Z</time>
      </trkpt>
      <trkpt lat="50.42629" lon="3.51127">
        <ele>35.4</ele>
        <time>2022-04-15T13:06:46.127Z</time>
      </trkpt>
      <trkpt lat="50.42632" lon="3.51122">
        <ele>35.3</ele>
        <time>2022-04-15T13:06:47.271Z</time>
      </trkpt>
      <trkpt lat="50.42633" lon="3.51106">
        <ele>35</ele>
        <time>2022-04-15T13:06:48.830Z</time>
      </trkpt>
      <trkpt lat="50.42632" lon="3.51095">
        <ele>35</ele>
        <time>2022-04-15T13:06:50.070Z</time>
      </trkpt>
      <trkpt lat="50.42633" lon="3.51085">
        <ele>35</ele>
        <time>2022-04-15T13:06:51.947Z</time>
      </trkpt>
      <trkpt lat="50.42632" lon="3.51075">
        <ele>34.7</ele>
        <time>2022-04-15T13:06:53.028Z</time>
      </trkpt>
      <trkpt lat="50.42633" lon="3.51068">
        <ele>34.4</ele>
        <time>2022-04-15T13:06:54.127Z</time>
      </trkpt>
      <trkpt lat="50.42639" lon="3.51064">
        <ele>34.3</ele>
        <time>2022-04-15T13:06:57.235Z</time>
      </trkpt>
      <trkpt lat="50.42647" lon="3.51061">
        <ele>34.2</ele>
        <time>2022-04-15T13:07:00.000Z</time>
      </trkpt>
      <trkpt lat="50.42651" lon="3.51057">
        <ele>34.1</ele>
        <time>2022-04-15T13:07:01.889Z</time>
      </trkpt>
      <trkpt lat="50.42657" lon="3.51055">
        <ele>34</ele>
        <time>2022-04-15T13:07:04.438Z</time>
      </trkpt>
      <trkpt lat="50.42661" lon="3.51053">
        <ele>34</ele>
        <time>2022-04-15T13:07:05.450Z</time>
      </trkpt>
      <trkpt lat="50.42666" lon="3.51048">
        <ele>34</ele>
        <time>2022-04-15T13:07:08.000Z</time>
      </trkpt>
      <trkpt lat="50.42672" lon="3.51043">
        <ele>34</ele>
        <time>2022-04-15T13:07:11.000Z</time>
      </trkpt>
      <trkpt lat="50.42682" lon="3.51034">
        <ele>34</ele>
        <time>2022-04-15T13:07:14.712Z</time>
      </trkpt>
      <trkpt lat="50.42687" lon="3.51033">
        <ele>34</ele>
        <time>2022-04-15T13:07:16.000Z</time>
      </trkpt>
      <trkpt lat="50.42692" lon="3.51032">
        <ele>34</ele>
        <time>2022-04-15T13:07:16.967Z</time>
      </trkpt>
      <trkpt lat="50.427" lon="3.51028">
        <ele>34</ele>
        <time>2022-04-15T13:07:21.000Z</time>
      </trkpt>
      <trkpt lat="50.42708" lon="3.51026">
        <ele>33.9</ele>
        <time>2022-04-15T13:07:24.000Z</time>
      </trkpt>
      <trkpt lat="50.42714" lon="3.51024">
        <ele>33.9</ele>
        <time>2022-04-15T13:07:26.488Z</time>
      </trkpt>
      <trkpt lat="50.42722" lon="3.51022">
        <ele>33.8</ele>
        <time>2022-04-15T13:07:29.000Z</time>
      </trkpt>
      <trkpt lat="50.42726" lon="3.51021">
        <ele>33.8</ele>
        <time>2022-04-15T13:07:30.000Z</time>
      </trkpt>
      <trkpt lat="50.42733" lon="3.51015">
        <ele>33.5</ele>
        <time>2022-04-15T13:07:33.000Z</time>
      </trkpt>
      <trkpt lat="50.42739" lon="3.51012">
        <ele>33.4</ele>
        <time>2022-04-15T13:07:34.000Z</time>
      </trkpt>
      <trkpt lat="50.42747" lon="3.5101">
        <ele>33.4</ele>
        <time>2022-04-15T13:07:35.910Z</time>
      </trkpt>
      <trkpt lat="50.42751" lon="3.51007">
        <ele>33.3</ele>
        <time>2022-04-15T13:07:36.971Z</time>
      </trkpt>
      <trkpt lat="50.42762" lon="3.51004">
        <ele>33.5</ele>
        <time>2022-04-15T13:07:39.871Z</time>
      </trkpt>
      <trkpt lat="50.4278" lon="3.50996">
        <ele>33.7</ele>
        <time>2022-04-15T13:07:43.000Z</time>
      </trkpt>
      <trkpt lat="50.42786" lon="3.50993">
        <ele>33.6</ele>
        <time>2022-04-15T13:07:44.000Z</time>
      </trkpt>
      <trkpt lat="50.42791" lon="3.50992">
        <ele>33.6</ele>
        <time>2022-04-15T13:07:45.000Z</time>
      </trkpt>
      <trkpt lat="50.42798" lon="3.50989">
        <ele>33.5</ele>
        <time>2022-04-15T13:07:46.000Z</time>
      </trkpt>
      <trkpt lat="50.42803" lon="3.50987">
        <ele>33.5</ele>
        <time>2022-04-15T13:07:47.000Z</time>
      </trkpt>
      <trkpt lat="50.42808" lon="3.50983">
        <ele>33.4</ele>
        <time>2022-04-15T13:07:48.000Z</time>
      </trkpt>
      <trkpt lat="50.42815" lon="3.5098">
        <ele>33.3</ele>
        <time>2022-04-15T13:07:49.000Z</time>
      </trkpt>
      <trkpt lat="50.42821" lon="3.50977">
        <ele>33.2</ele>
        <time>2022-04-15T13:07:50.000Z</time>
      </trkpt>
      <trkpt lat="50.42827" lon="3.50975">
        <ele>33.1</ele>
        <time>2022-04-15T13:07:51.000Z</time>
      </trkpt>
      <trkpt lat="50.42833" lon="3.50972">
        <ele>33</ele>
        <time>2022-04-15T13:07:52.000Z</time>
      </trkpt>
      <trkpt lat="50.42839" lon="3.50969">
        <ele>32.9</ele>
        <time>2022-04-15T13:07:53.000Z</time>
      </trkpt>
      <trkpt lat="50.42844" lon="3.50968">
        <ele>32.8</ele>
        <time>2022-04-15T13:07:54.000Z</time>
      </trkpt>
      <trkpt lat="50.42851" lon="3.50965">
        <ele>32.6</ele>
        <time>2022-04-15T13:07:55.000Z</time>
      </trkpt>
      <trkpt lat="50.4286" lon="3.5096">
        <ele>32.1</ele>
        <time>2022-04-15T13:07:57.000Z</time>
      </trkpt>
      <trkpt lat="50.42865" lon="3.50958">
        <ele>31.8</ele>
        <time>2022-04-15T13:07:58.000Z</time>
      </trkpt>
      <trkpt lat="50.42872" lon="3.50958">
        <ele>31.4</ele>
        <time>2022-04-15T13:08:00.000Z</time>
      </trkpt>
      <trkpt lat="50.42878" lon="3.50959">
        <ele>31.1</ele>
        <time>2022-04-15T13:08:03.000Z</time>
      </trkpt>
      <trkpt lat="50.42882" lon="3.50959">
        <ele>30.9</ele>
        <time>2022-04-15T13:08:07.000Z</time>
      </trkpt>
      <trkpt lat="50.42887" lon="3.50957">
        <ele>30.6</ele>
        <time>2022-04-15T13:08:11.000Z</time>
      </trkpt>
      <trkpt lat="50.42898" lon="3.50953">
        <ele>30</ele>
        <time>2022-04-15T13:08:13.000Z</time>
      </trkpt>
      <trkpt lat="50.42903" lon="3.50949">
        <ele>29.7</ele>
        <time>2022-04-15T13:08:14.000Z</time>
      </trkpt>
      <trkpt lat="50.42911" lon="3.50944">
        <ele>29.2</ele>
        <time>2022-04-15T13:08:15.000Z</time>
      </trkpt>
      <trkpt lat="50.42918" lon="3.5094">
        <ele>28.8</ele>
        <time>2022-04-15T13:08:17.000Z</time>
      </trkpt>
      <trkpt lat="50.42925" lon="3.50937">
        <ele>28.7</ele>
        <time>2022-04-15T13:08:18.000Z</time>
      </trkpt>
      <trkpt lat="50.4293" lon="3.50935">
        <ele>28.7</ele>
        <time>2022-04-15T13:08:19.000Z</time>
      </trkpt>
      <trkpt lat="50.42935" lon="3.50934">
        <ele>28.6</ele>
        <time>2022-04-15T13:08:20.000Z</time>
      </trkpt>
      <trkpt lat="50.42941" lon="3.50934">
        <ele>28.6</ele>
        <time>2022-04-15T13:08:22.000Z</time>
      </trkpt>
      <trkpt lat="50.4295" lon="3.50931">
        <ele>28.3</ele>
        <time>2022-04-15T13:08:23.916Z</time>
      </trkpt>
      <trkpt lat="50.42957" lon="3.50928">
        <ele>28</ele>
        <time>2022-04-15T13:08:25.331Z</time>
      </trkpt>
      <trkpt lat="50.42964" lon="3.50923">
        <ele>27.5</ele>
        <time>2022-04-15T13:08:27.113Z</time>
      </trkpt>
      <trkpt lat="50.42967" lon="3.50918">
        <ele>27.2</ele>
        <time>2022-04-15T13:08:28.675Z</time>
      </trkpt>
      <trkpt lat="50.42971" lon="3.50905">
        <ele>27</ele>
        <time>2022-04-15T13:08:31.000Z</time>
      </trkpt>
      <trkpt lat="50.42971" lon="3.50894">
        <ele>27</ele>
        <time>2022-04-15T13:08:33.000Z</time>
      </trkpt>
      <trkpt lat="50.42969" lon="3.50887">
        <ele>26.9</ele>
        <time>2022-04-15T13:08:34.000Z</time>
      </trkpt>
      <trkpt lat="50.42968" lon="3.50878">
        <ele>26.7</ele>
        <time>2022-04-15T13:08:35.000Z</time>
      </trkpt>
      <trkpt lat="50.42966" lon="3.50871">
        <ele>26.5</ele>
        <time>2022-04-15T13:08:36.000Z</time>
      </trkpt>
      <trkpt lat="50.42965" lon="3.50863">
        <ele>26.3</ele>
        <time>2022-04-15T13:08:37.000Z</time>
      </trkpt>
      <trkpt lat="50.42963" lon="3.50855">
        <ele>26.1</ele>
        <time>2022-04-15T13:08:38.000Z</time>
      </trkpt>
      <trkpt lat="50.42962" lon="3.50848">
        <ele>25.9</ele>
        <time>2022-04-15T13:08:39.000Z</time>
      </trkpt>
      <trkpt lat="50.42961" lon="3.50837">
        <ele>25.5</ele>
        <time>2022-04-15T13:08:40.000Z</time>
      </trkpt>
      <trkpt lat="50.4296" lon="3.5083">
        <ele>25.4</ele>
        <time>2022-04-15T13:08:41.000Z</time>
      </trkpt>
      <trkpt lat="50.42958" lon="3.50821">
        <ele>25.3</ele>
        <time>2022-04-15T13:08:42.000Z</time>
      </trkpt>
      <trkpt lat="50.42956" lon="3.50803">
        <ele>25</ele>
        <time>2022-04-15T13:08:44.000Z</time>
      </trkpt>
      <trkpt lat="50.42956" lon="3.50795">
        <ele>24.8</ele>
        <time>2022-04-15T13:08:48.000Z</time>
      </trkpt>
      <trkpt lat="50.42956" lon="3.50802">
        <ele>24.9</ele>
        <time>2022-04-15T13:08:54.000Z</time>
      </trkpt>
      <trkpt lat="50.42957" lon="3.5081">
        <ele>25.1</ele>
        <time>2022-04-15T13:08:55.000Z</time>
      </trkpt>
      <trkpt lat="50.42958" lon="3.50829">
        <ele>25.4</ele>
        <time>2022-04-15T13:08:58.000Z</time>
      </trkpt>
      <trkpt lat="50.4296" lon="3.5084">
        <ele>25.7</ele>
        <time>2022-04-15T13:08:59.963Z</time>
      </trkpt>
      <trkpt lat="50.42962" lon="3.50848">
        <ele>25.9</ele>
        <time>2022-04-15T13:09:01.107Z</time>
      </trkpt>
      <trkpt lat="50.42965" lon="3.5086">
        <ele>26.2</ele>
        <time>2022-04-15T13:09:02.707Z</time>
      </trkpt>
      <trkpt lat="50.42966" lon="3.50871">
        <ele>26.5</ele>
        <time>2022-04-15T13:09:04.166Z</time>
      </trkpt>
      <trkpt lat="50.42967" lon="3.50881">
        <ele>26.8</ele>
        <time>2022-04-15T13:09:06.000Z</time>
      </trkpt>
      <trkpt lat="50.4297" lon="3.50894">
        <ele>27</ele>
        <time>2022-04-15T13:09:09.000Z</time>
      </trkpt>
      <trkpt lat="50.42969" lon="3.50901">
        <ele>27.1</ele>
        <time>2022-04-15T13:09:10.000Z</time>
      </trkpt>
      <trkpt lat="50.42963" lon="3.50899">
        <ele>27.1</ele>
        <time>2022-04-15T13:09:11.963Z</time>
      </trkpt>
      <trkpt lat="50.42961" lon="3.50892">
        <ele>27</ele>
        <time>2022-04-15T13:09:13.117Z</time>
      </trkpt>
      <trkpt lat="50.42958" lon="3.50886">
        <ele>26.9</ele>
        <time>2022-04-15T13:09:15.000Z</time>
      </trkpt>
      <trkpt lat="50.42954" lon="3.50881">
        <ele>26.9</ele>
        <time>2022-04-15T13:09:17.000Z</time>
      </trkpt>
      <trkpt lat="50.42949" lon="3.50874">
        <ele>26.9</ele>
        <time>2022-04-15T13:09:19.000Z</time>
      </trkpt>
      <trkpt lat="50.42945" lon="3.50866">
        <ele>27</ele>
        <time>2022-04-15T13:09:21.004Z</time>
      </trkpt>
      <trkpt lat="50.42941" lon="3.50858">
        <ele>26.9</ele>
        <time>2022-04-15T13:09:22.962Z</time>
      </trkpt>
      <trkpt lat="50.42937" lon="3.50848">
        <ele>26.5</ele>
        <time>2022-04-15T13:09:24.306Z</time>
      </trkpt>
      <trkpt lat="50.4293" lon="3.50835">
        <ele>26.1</ele>
        <time>2022-04-15T13:09:26.045Z</time>
      </trkpt>
      <trkpt lat="50.42927" lon="3.50828">
        <ele>25.9</ele>
        <time>2022-04-15T13:09:27.006Z</time>
      </trkpt>
      <trkpt lat="50.42924" lon="3.50821">
        <ele>25.9</ele>
        <time>2022-04-15T13:09:28.000Z</time>
      </trkpt>
      <trkpt lat="50.42921" lon="3.50811">
        <ele>25.9</ele>
        <time>2022-04-15T13:09:30.000Z</time>
      </trkpt>
      <trkpt lat="50.42917" lon="3.50801">
        <ele>25.8</ele>
        <time>2022-04-15T13:09:31.000Z</time>
      </trkpt>
      <trkpt lat="50.42913" lon="3.5079">
        <ele>25.5</ele>
        <time>2022-04-15T13:09:33.000Z</time>
      </trkpt>
      <trkpt lat="50.42911" lon="3.50782">
        <ele>25.3</ele>
        <time>2022-04-15T13:09:34.000Z</time>
      </trkpt>
      <trkpt lat="50.42908" lon="3.50774">
        <ele>25.3</ele>
        <time>2022-04-15T13:09:35.000Z</time>
      </trkpt>
      <trkpt lat="50.42906" lon="3.50767">
        <ele>25.2</ele>
        <time>2022-04-15T13:09:36.000Z</time>
      </trkpt>
      <trkpt lat="50.42903" lon="3.5076">
        <ele>25.2</ele>
        <time>2022-04-15T13:09:37.000Z</time>
      </trkpt>
      <trkpt lat="50.42901" lon="3.50751">
        <ele>25</ele>
        <time>2022-04-15T13:09:38.000Z</time>
      </trkpt>
      <trkpt lat="50.42899" lon="3.50744">
        <ele>25</ele>
        <time>2022-04-15T13:09:39.000Z</time>
      </trkpt>
      <trkpt lat="50.42898" lon="3.50734">
        <ele>25</ele>
        <time>2022-04-15T13:09:40.000Z</time>
      </trkpt>
      <trkpt lat="50.42897" lon="3.50727">
        <ele>25</ele>
        <time>2022-04-15T13:09:41.000Z</time>
      </trkpt>
      <trkpt lat="50.42894" lon="3.50715">
        <ele>25</ele>
        <time>2022-04-15T13:09:43.000Z</time>
      </trkpt>
      <trkpt lat="50.42891" lon="3.50709">
        <ele>25</ele>
        <time>2022-04-15T13:09:44.000Z</time>
      </trkpt>
      <trkpt lat="50.42888" lon="3.50702">
        <ele>25</ele>
        <time>2022-04-15T13:09:45.000Z</time>
      </trkpt>
      <trkpt lat="50.42885" lon="3.50695">
        <ele>25</ele>
        <time>2022-04-15T13:09:46.000Z</time>
      </trkpt>
      <trkpt lat="50.42882" lon="3.50686">
        <ele>25</ele>
        <time>2022-04-15T13:09:48.000Z</time>
      </trkpt>
      <trkpt lat="50.42879" lon="3.50678">
        <ele>25</ele>
        <time>2022-04-15T13:09:49.000Z</time>
      </trkpt>
      <trkpt lat="50.42877" lon="3.5067">
        <ele>25</ele>
        <time>2022-04-15T13:09:50.000Z</time>
      </trkpt>
      <trkpt lat="50.42875" lon="3.50663">
        <ele>24.9</ele>
        <time>2022-04-15T13:09:51.000Z</time>
      </trkpt>
      <trkpt lat="50.42876" lon="3.5065">
        <ele>24.7</ele>
        <time>2022-04-15T13:09:53.000Z</time>
      </trkpt>
      <trkpt lat="50.42872" lon="3.50639">
        <ele>24.6</ele>
        <time>2022-04-15T13:09:55.000Z</time>
      </trkpt>
      <trkpt lat="50.42869" lon="3.5063">
        <ele>24.5</ele>
        <time>2022-04-15T13:10:25.000Z</time>
      </trkpt>
      <trkpt lat="50.42868" lon="3.50618">
        <ele>24.2</ele>
        <time>2022-04-15T13:10:28.000Z</time>
      </trkpt>
      <trkpt lat="50.42866" lon="3.50608">
        <ele>24</ele>
        <time>2022-04-15T13:10:28.905Z</time>
      </trkpt>
      <trkpt lat="50.42863" lon="3.50595">
        <ele>24</ele>
        <time>2022-04-15T13:10:31.381Z</time>
      </trkpt>
      <trkpt lat="50.42861" lon="3.50586">
        <ele>24</ele>
        <time>2022-04-15T13:10:32.589Z</time>
      </trkpt>
      <trkpt lat="50.42856" lon="3.50574">
        <ele>24.2</ele>
        <time>2022-04-15T13:10:34.786Z</time>
      </trkpt>
      <trkpt lat="50.42854" lon="3.50568">
        <ele>24.3</ele>
        <time>2022-04-15T13:10:36.000Z</time>
      </trkpt>
      <trkpt lat="50.42851" lon="3.50562">
        <ele>24.4</ele>
        <time>2022-04-15T13:10:37.061Z</time>
      </trkpt>
      <trkpt lat="50.42847" lon="3.50555">
        <ele>24.5</ele>
        <time>2022-04-15T13:10:39.000Z</time>
      </trkpt>
      <trkpt lat="50.42844" lon="3.50546">
        <ele>24.4</ele>
        <time>2022-04-15T13:10:41.000Z</time>
      </trkpt>
      <trkpt lat="50.42842" lon="3.50529">
        <ele>24</ele>
        <time>2022-04-15T13:10:44.000Z</time>
      </trkpt>
      <trkpt lat="50.42839" lon="3.50513">
        <ele>24.4</ele>
        <time>2022-04-15T13:10:46.000Z</time>
      </trkpt>
      <trkpt lat="50.42837" lon="3.50504">
        <ele>24.7</ele>
        <time>2022-04-15T13:10:48.000Z</time>
      </trkpt>
      <trkpt lat="50.42834" lon="3.50492">
        <ele>25</ele>
        <time>2022-04-15T13:10:50.222Z</time>
      </trkpt>
      <trkpt lat="50.42828" lon="3.50479">
        <ele>25</ele>
        <time>2022-04-15T13:10:52.402Z</time>
      </trkpt>
      <trkpt lat="50.42823" lon="3.5047">
        <ele>25</ele>
        <time>2022-04-15T13:10:54.821Z</time>
      </trkpt>
      <trkpt lat="50.42817" lon="3.50461">
        <ele>25</ele>
        <time>2022-04-15T13:10:57.146Z</time>
      </trkpt>
      <trkpt lat="50.42811" lon="3.50452">
        <ele>25</ele>
        <time>2022-04-15T13:10:59.205Z</time>
      </trkpt>
      <trkpt lat="50.42807" lon="3.50444">
        <ele>25</ele>
        <time>2022-04-15T13:11:00.464Z</time>
      </trkpt>
      <trkpt lat="50.42803" lon="3.50438">
        <ele>24.8</ele>
        <time>2022-04-15T13:11:01.583Z</time>
      </trkpt>
      <trkpt lat="50.42798" lon="3.5043">
        <ele>24.5</ele>
        <time>2022-04-15T13:11:03.504Z</time>
      </trkpt>
      <trkpt lat="50.42796" lon="3.50424">
        <ele>24.3</ele>
        <time>2022-04-15T13:11:04.483Z</time>
      </trkpt>
      <trkpt lat="50.42794" lon="3.50417">
        <ele>24</ele>
        <time>2022-04-15T13:11:05.727Z</time>
      </trkpt>
      <trkpt lat="50.42793" lon="3.5041">
        <ele>24</ele>
        <time>2022-04-15T13:11:07.000Z</time>
      </trkpt>
      <trkpt lat="50.42791" lon="3.50399">
        <ele>24</ele>
        <time>2022-04-15T13:11:09.000Z</time>
      </trkpt>
      <trkpt lat="50.42787" lon="3.50386">
        <ele>24</ele>
        <time>2022-04-15T13:11:11.024Z</time>
      </trkpt>
      <trkpt lat="50.42785" lon="3.5038">
        <ele>24</ele>
        <time>2022-04-15T13:11:12.000Z</time>
      </trkpt>
      <trkpt lat="50.42778" lon="3.5037">
        <ele>24</ele>
        <time>2022-04-15T13:11:14.000Z</time>
      </trkpt>
      <trkpt lat="50.42775" lon="3.50365">
        <ele>24</ele>
        <time>2022-04-15T13:11:15.083Z</time>
      </trkpt>
      <trkpt lat="50.42771" lon="3.50362">
        <ele>24</ele>
        <time>2022-04-15T13:11:16.103Z</time>
      </trkpt>
      <trkpt lat="50.42766" lon="3.50358">
        <ele>24</ele>
        <time>2022-04-15T13:11:17.664Z</time>
      </trkpt>
      <trkpt lat="50.42759" lon="3.50351">
        <ele>24</ele>
        <time>2022-04-15T13:11:20.000Z</time>
      </trkpt>
      <trkpt lat="50.42754" lon="3.50346">
        <ele>24</ele>
        <time>2022-04-15T13:11:21.965Z</time>
      </trkpt>
      <trkpt lat="50.42749" lon="3.50341">
        <ele>24</ele>
        <time>2022-04-15T13:11:24.966Z</time>
      </trkpt>
      <trkpt lat="50.42744" lon="3.50337">
        <ele>24</ele>
        <time>2022-04-15T13:11:27.000Z</time>
      </trkpt>
      <trkpt lat="50.42733" lon="3.50329">
        <ele>24</ele>
        <time>2022-04-15T13:11:30.482Z</time>
      </trkpt>
      <trkpt lat="50.42729" lon="3.50324">
        <ele>24</ele>
        <time>2022-04-15T13:11:31.611Z</time>
      </trkpt>
      <trkpt lat="50.42721" lon="3.5032">
        <ele>24</ele>
        <time>2022-04-15T13:11:34.000Z</time>
      </trkpt>
      <trkpt lat="50.42714" lon="3.50316">
        <ele>24</ele>
        <time>2022-04-15T13:11:34.905Z</time>
      </trkpt>
      <trkpt lat="50.42709" lon="3.50313">
        <ele>24</ele>
        <time>2022-04-15T13:11:36.043Z</time>
      </trkpt>
      <trkpt lat="50.42703" lon="3.50309">
        <ele>24</ele>
        <time>2022-04-15T13:11:37.445Z</time>
      </trkpt>
      <trkpt lat="50.42698" lon="3.50305">
        <ele>24</ele>
        <time>2022-04-15T13:11:38.505Z</time>
      </trkpt>
      <trkpt lat="50.42692" lon="3.50301">
        <ele>24</ele>
        <time>2022-04-15T13:11:41.103Z</time>
      </trkpt>
      <trkpt lat="50.42685" lon="3.50298">
        <ele>24</ele>
        <time>2022-04-15T13:11:42.804Z</time>
      </trkpt>
      <trkpt lat="50.42679" lon="3.50295">
        <ele>24</ele>
        <time>2022-04-15T13:11:44.705Z</time>
      </trkpt>
      <trkpt lat="50.42674" lon="3.50287">
        <ele>24</ele>
        <time>2022-04-15T13:11:46.986Z</time>
      </trkpt>
      <trkpt lat="50.42668" lon="3.5028">
        <ele>24</ele>
        <time>2022-04-15T13:11:49.000Z</time>
      </trkpt>
      <trkpt lat="50.42662" lon="3.50274">
        <ele>24</ele>
        <time>2022-04-15T13:11:51.000Z</time>
      </trkpt>
      <trkpt lat="50.42656" lon="3.50271">
        <ele>24</ele>
        <time>2022-04-15T13:11:53.000Z</time>
      </trkpt>
      <trkpt lat="50.42648" lon="3.50267">
        <ele>24</ele>
        <time>2022-04-15T13:11:56.103Z</time>
      </trkpt>
      <trkpt lat="50.42641" lon="3.50265">
        <ele>24</ele>
        <time>2022-04-15T13:11:59.000Z</time>
      </trkpt>
      <trkpt lat="50.42635" lon="3.50259">
        <ele>24</ele>
        <time>2022-04-15T13:12:02.000Z</time>
      </trkpt>
      <trkpt lat="50.42626" lon="3.50256">
        <ele>24</ele>
        <time>2022-04-15T13:12:06.083Z</time>
      </trkpt>
      <trkpt lat="50.42621" lon="3.50256">
        <ele>24</ele>
        <time>2022-04-15T13:12:08.000Z</time>
      </trkpt>
      <trkpt lat="50.42615" lon="3.50256">
        <ele>24</ele>
        <time>2022-04-15T13:12:10.000Z</time>
      </trkpt>
      <trkpt lat="50.42608" lon="3.50254">
        <ele>24</ele>
        <time>2022-04-15T13:12:13.021Z</time>
      </trkpt>
      <trkpt lat="50.42604" lon="3.50252">
        <ele>24</ele>
        <time>2022-04-15T13:12:15.000Z</time>
      </trkpt>
      <trkpt lat="50.42596" lon="3.50245">
        <ele>24</ele>
        <time>2022-04-15T13:12:17.804Z</time>
      </trkpt>
      <trkpt lat="50.42591" lon="3.5024">
        <ele>24</ele>
        <time>2022-04-15T13:12:20.000Z</time>
      </trkpt>
      <trkpt lat="50.42585" lon="3.50236">
        <ele>24</ele>
        <time>2022-04-15T13:12:22.597Z</time>
      </trkpt>
      <trkpt lat="50.42581" lon="3.50232">
        <ele>24</ele>
        <time>2022-04-15T13:12:25.000Z</time>
      </trkpt>
      <trkpt lat="50.42587" lon="3.50243">
        <ele>24</ele>
        <time>2022-04-15T13:12:56.022Z</time>
      </trkpt>
      <trkpt lat="50.42595" lon="3.50245">
        <ele>24</ele>
        <time>2022-04-15T13:12:58.144Z</time>
      </trkpt>
      <trkpt lat="50.42601" lon="3.50247">
        <ele>24</ele>
        <time>2022-04-15T13:13:00.973Z</time>
      </trkpt>
      <trkpt lat="50.42596" lon="3.50246">
        <ele>24</ele>
        <time>2022-04-15T13:13:56.000Z</time>
      </trkpt>
      <trkpt lat="50.42589" lon="3.50241">
        <ele>24</ele>
        <time>2022-04-15T13:13:59.000Z</time>
      </trkpt>
      <trkpt lat="50.42583" lon="3.50234">
        <ele>24</ele>
        <time>2022-04-15T13:13:59.926Z</time>
      </trkpt>
      <trkpt lat="50.42578" lon="3.5023">
        <ele>24</ele>
        <time>2022-04-15T13:14:01.000Z</time>
      </trkpt>
      <trkpt lat="50.42574" lon="3.50226">
        <ele>24</ele>
        <time>2022-04-15T13:14:02.163Z</time>
      </trkpt>
      <trkpt lat="50.42566" lon="3.5022">
        <ele>24</ele>
        <time>2022-04-15T13:14:04.000Z</time>
      </trkpt>
      <trkpt lat="50.4256" lon="3.50215">
        <ele>23.8</ele>
        <time>2022-04-15T13:14:05.127Z</time>
      </trkpt>
      <trkpt lat="50.42552" lon="3.50207">
        <ele>23.5</ele>
        <time>2022-04-15T13:14:07.000Z</time>
      </trkpt>
      <trkpt lat="50.42548" lon="3.50203">
        <ele>23.3</ele>
        <time>2022-04-15T13:14:08.000Z</time>
      </trkpt>
      <trkpt lat="50.42544" lon="3.50198">
        <ele>23.1</ele>
        <time>2022-04-15T13:14:09.000Z</time>
      </trkpt>
      <trkpt lat="50.42538" lon="3.50187">
        <ele>23</ele>
        <time>2022-04-15T13:14:11.000Z</time>
      </trkpt>
      <trkpt lat="50.42535" lon="3.5018">
        <ele>23</ele>
        <time>2022-04-15T13:14:12.000Z</time>
      </trkpt>
      <trkpt lat="50.42532" lon="3.50174">
        <ele>23</ele>
        <time>2022-04-15T13:14:13.000Z</time>
      </trkpt>
      <trkpt lat="50.42528" lon="3.50167">
        <ele>23</ele>
        <time>2022-04-15T13:14:14.000Z</time>
      </trkpt>
      <trkpt lat="50.42524" lon="3.5016">
        <ele>23</ele>
        <time>2022-04-15T13:14:15.000Z</time>
      </trkpt>
      <trkpt lat="50.42519" lon="3.50154">
        <ele>23</ele>
        <time>2022-04-15T13:14:16.000Z</time>
      </trkpt>
      <trkpt lat="50.42514" lon="3.50147">
        <ele>23</ele>
        <time>2022-04-15T13:14:17.000Z</time>
      </trkpt>
      <trkpt lat="50.42508" lon="3.50141">
        <ele>23</ele>
        <time>2022-04-15T13:14:18.000Z</time>
      </trkpt>
      <trkpt lat="50.42503" lon="3.50134">
        <ele>23</ele>
        <time>2022-04-15T13:14:19.000Z</time>
      </trkpt>
      <trkpt lat="50.42498" lon="3.50126">
        <ele>23</ele>
        <time>2022-04-15T13:14:20.000Z</time>
      </trkpt>
      <trkpt lat="50.42493" lon="3.50119">
        <ele>23</ele>
        <time>2022-04-15T13:14:21.000Z</time>
      </trkpt>
      <trkpt lat="50.42488" lon="3.50111">
        <ele>23</ele>
        <time>2022-04-15T13:14:22.000Z</time>
      </trkpt>
      <trkpt lat="50.42484" lon="3.50104">
        <ele>23</ele>
        <time>2022-04-15T13:14:23.000Z</time>
      </trkpt>
      <trkpt lat="50.4248" lon="3.50096">
        <ele>23</ele>
        <time>2022-04-15T13:14:24.000Z</time>
      </trkpt>
      <trkpt lat="50.42476" lon="3.5009">
        <ele>23</ele>
        <time>2022-04-15T13:14:25.000Z</time>
      </trkpt>
      <trkpt lat="50.42472" lon="3.50083">
        <ele>23</ele>
        <time>2022-04-15T13:14:26.000Z</time>
      </trkpt>
      <trkpt lat="50.42468" lon="3.50076">
        <ele>23</ele>
        <time>2022-04-15T13:14:27.000Z</time>
      </trkpt>
      <trkpt lat="50.42464" lon="3.50068">
        <ele>23</ele>
        <time>2022-04-15T13:14:28.000Z</time>
      </trkpt>
      <trkpt lat="50.4246" lon="3.50062">
        <ele>23</ele>
        <time>2022-04-15T13:14:29.000Z</time>
      </trkpt>
      <trkpt lat="50.42457" lon="3.50055">
        <ele>23</ele>
        <time>2022-04-15T13:14:30.000Z</time>
      </trkpt>
      <trkpt lat="50.42454" lon="3.50049">
        <ele>23</ele>
        <time>2022-04-15T13:14:31.000Z</time>
      </trkpt>
      <trkpt lat="50.42452" lon="3.50042">
        <ele>23</ele>
        <time>2022-04-15T13:14:32.000Z</time>
      </trkpt>
      <trkpt lat="50.42449" lon="3.50035">
        <ele>23</ele>
        <time>2022-04-15T13:14:33.000Z</time>
      </trkpt>
      <trkpt lat="50.42447" lon="3.50026">
        <ele>23</ele>
        <time>2022-04-15T13:14:34.000Z</time>
      </trkpt>
      <trkpt lat="50.42444" lon="3.50018">
        <ele>23</ele>
        <time>2022-04-15T13:14:35.000Z</time>
      </trkpt>
      <trkpt lat="50.42442" lon="3.5001">
        <ele>23</ele>
        <time>2022-04-15T13:14:36.000Z</time>
      </trkpt>
      <trkpt lat="50.42441" lon="3.50001">
        <ele>23</ele>
        <time>2022-04-15T13:14:37.000Z</time>
      </trkpt>
      <trkpt lat="50.42441" lon="3.49993">
        <ele>23</ele>
        <time>2022-04-15T13:14:38.000Z</time>
      </trkpt>
      <trkpt lat="50.4244" lon="3.49982">
        <ele>23</ele>
        <time>2022-04-15T13:14:39.000Z</time>
      </trkpt>
      <trkpt lat="50.42439" lon="3.49972">
        <ele>23</ele>
        <time>2022-04-15T13:14:40.000Z</time>
      </trkpt>
      <trkpt lat="50.42438" lon="3.49963">
        <ele>23</ele>
        <time>2022-04-15T13:14:41.000Z</time>
      </trkpt>
      <trkpt lat="50.42436" lon="3.49955">
        <ele>23</ele>
        <time>2022-04-15T13:14:42.000Z</time>
      </trkpt>
      <trkpt lat="50.42433" lon="3.49944">
        <ele>23</ele>
        <time>2022-04-15T13:14:43.000Z</time>
      </trkpt>
      <trkpt lat="50.4243" lon="3.49935">
        <ele>23</ele>
        <time>2022-04-15T13:14:44.000Z</time>
      </trkpt>
      <trkpt lat="50.42427" lon="3.49926">
        <ele>23</ele>
        <time>2022-04-15T13:14:45.000Z</time>
      </trkpt>
      <trkpt lat="50.42425" lon="3.49914">
        <ele>23</ele>
        <time>2022-04-15T13:14:46.000Z</time>
      </trkpt>
      <trkpt lat="50.42423" lon="3.49906">
        <ele>23</ele>
        <time>2022-04-15T13:14:47.000Z</time>
      </trkpt>
      <trkpt lat="50.4242" lon="3.49895">
        <ele>23</ele>
        <time>2022-04-15T13:14:48.000Z</time>
      </trkpt>
      <trkpt lat="50.42418" lon="3.49887">
        <ele>23</ele>
        <time>2022-04-15T13:14:49.000Z</time>
      </trkpt>
      <trkpt lat="50.42416" lon="3.49879">
        <ele>23</ele>
        <time>2022-04-15T13:14:50.000Z</time>
      </trkpt>
      <trkpt lat="50.42412" lon="3.49869">
        <ele>23</ele>
        <time>2022-04-15T13:14:51.000Z</time>
      </trkpt>
      <trkpt lat="50.4241" lon="3.49861">
        <ele>23</ele>
        <time>2022-04-15T13:14:52.000Z</time>
      </trkpt>
      <trkpt lat="50.42407" lon="3.49854">
        <ele>23</ele>
        <time>2022-04-15T13:14:53.000Z</time>
      </trkpt>
      <trkpt lat="50.42404" lon="3.49846">
        <ele>23</ele>
        <time>2022-04-15T13:14:54.000Z</time>
      </trkpt>
      <trkpt lat="50.42401" lon="3.49839">
        <ele>23</ele>
        <time>2022-04-15T13:14:55.000Z</time>
      </trkpt>
      <trkpt lat="50.42398" lon="3.49832">
        <ele>23</ele>
        <time>2022-04-15T13:14:56.000Z</time>
      </trkpt>
      <trkpt lat="50.42393" lon="3.49819">
        <ele>23</ele>
        <time>2022-04-15T13:14:58.000Z</time>
      </trkpt>
      <trkpt lat="50.4239" lon="3.49812">
        <ele>23</ele>
        <time>2022-04-15T13:15:00.000Z</time>
      </trkpt>
      <trkpt lat="50.42385" lon="3.49804">
        <ele>23</ele>
        <time>2022-04-15T13:15:02.000Z</time>
      </trkpt>
      <trkpt lat="50.42378" lon="3.49802">
        <ele>23</ele>
        <time>2022-04-15T13:15:04.000Z</time>
      </trkpt>
      <trkpt lat="50.42373" lon="3.49804">
        <ele>23</ele>
        <time>2022-04-15T13:15:06.000Z</time>
      </trkpt>
      <trkpt lat="50.42367" lon="3.49808">
        <ele>23</ele>
        <time>2022-04-15T13:15:08.381Z</time>
      </trkpt>
      <trkpt lat="50.42359" lon="3.49811">
        <ele>23</ele>
        <time>2022-04-15T13:15:09.812Z</time>
      </trkpt>
      <trkpt lat="50.42352" lon="3.49813">
        <ele>23</ele>
        <time>2022-04-15T13:15:12.030Z</time>
      </trkpt>
      <trkpt lat="50.42345" lon="3.49814">
        <ele>23</ele>
        <time>2022-04-15T13:15:14.112Z</time>
      </trkpt>
      <trkpt lat="50.42339" lon="3.49818">
        <ele>23</ele>
        <time>2022-04-15T13:15:16.000Z</time>
      </trkpt>
      <trkpt lat="50.42329" lon="3.49823">
        <ele>23</ele>
        <time>2022-04-15T13:15:19.131Z</time>
      </trkpt>
      <trkpt lat="50.42319" lon="3.49826">
        <ele>23</ele>
        <time>2022-04-15T13:15:21.000Z</time>
      </trkpt>
      <trkpt lat="50.42314" lon="3.49828">
        <ele>23</ele>
        <time>2022-04-15T13:15:22.000Z</time>
      </trkpt>
      <trkpt lat="50.42304" lon="3.49832">
        <ele>23</ele>
        <time>2022-04-15T13:15:24.000Z</time>
      </trkpt>
      <trkpt lat="50.423" lon="3.49834">
        <ele>23</ele>
        <time>2022-04-15T13:15:25.000Z</time>
      </trkpt>
      <trkpt lat="50.4229" lon="3.49839">
        <ele>23</ele>
        <time>2022-04-15T13:15:27.000Z</time>
      </trkpt>
      <trkpt lat="50.42283" lon="3.4984">
        <ele>23</ele>
        <time>2022-04-15T13:15:28.939Z</time>
      </trkpt>
      <trkpt lat="50.42278" lon="3.49835">
        <ele>23</ele>
        <time>2022-04-15T13:15:29.982Z</time>
      </trkpt>
      <trkpt lat="50.42276" lon="3.49827">
        <ele>23</ele>
        <time>2022-04-15T13:15:31.441Z</time>
      </trkpt>
      <trkpt lat="50.42275" lon="3.49812">
        <ele>23</ele>
        <time>2022-04-15T13:15:33.000Z</time>
      </trkpt>
      <trkpt lat="50.42274" lon="3.49802">
        <ele>23</ele>
        <time>2022-04-15T13:15:34.000Z</time>
      </trkpt>
      <trkpt lat="50.42274" lon="3.49786">
        <ele>23</ele>
        <time>2022-04-15T13:15:36.000Z</time>
      </trkpt>
      <trkpt lat="50.42274" lon="3.49779">
        <ele>23</ele>
        <time>2022-04-15T13:15:37.000Z</time>
      </trkpt>
      <trkpt lat="50.42275" lon="3.49768">
        <ele>23</ele>
        <time>2022-04-15T13:15:38.000Z</time>
      </trkpt>
      <trkpt lat="50.42274" lon="3.49751">
        <ele>23</ele>
        <time>2022-04-15T13:15:41.000Z</time>
      </trkpt>
      <trkpt lat="50.42272" lon="3.49733">
        <ele>23</ele>
        <time>2022-04-15T13:15:43.093Z</time>
      </trkpt>
      <trkpt lat="50.42271" lon="3.49715">
        <ele>23</ele>
        <time>2022-04-15T13:15:45.000Z</time>
      </trkpt>
      <trkpt lat="50.42269" lon="3.49699">
        <ele>23</ele>
        <time>2022-04-15T13:15:47.055Z</time>
      </trkpt>
      <trkpt lat="50.42269" lon="3.49681">
        <ele>23</ele>
        <time>2022-04-15T13:15:49.814Z</time>
      </trkpt>
      <trkpt lat="50.42271" lon="3.49671">
        <ele>23</ele>
        <time>2022-04-15T13:15:51.975Z</time>
      </trkpt>
      <trkpt lat="50.42272" lon="3.49663">
        <ele>23</ele>
        <time>2022-04-15T13:15:53.000Z</time>
      </trkpt>
      <trkpt lat="50.42274" lon="3.49654">
        <ele>23</ele>
        <time>2022-04-15T13:15:54.074Z</time>
      </trkpt>
      <trkpt lat="50.42275" lon="3.49645">
        <ele>23</ele>
        <time>2022-04-15T13:15:55.753Z</time>
      </trkpt>
      <trkpt lat="50.42277" lon="3.49634">
        <ele>23</ele>
        <time>2022-04-15T13:15:57.000Z</time>
      </trkpt>
      <trkpt lat="50.42279" lon="3.49623">
        <ele>23</ele>
        <time>2022-04-15T13:15:58.875Z</time>
      </trkpt>
      <trkpt lat="50.42282" lon="3.49615">
        <ele>23</ele>
        <time>2022-04-15T13:16:01.419Z</time>
      </trkpt>
      <trkpt lat="50.42286" lon="3.49603">
        <ele>23</ele>
        <time>2022-04-15T13:16:03.000Z</time>
      </trkpt>
      <trkpt lat="50.42288" lon="3.49593">
        <ele>23</ele>
        <time>2022-04-15T13:16:05.000Z</time>
      </trkpt>
      <trkpt lat="50.4229" lon="3.49583">
        <ele>23</ele>
        <time>2022-04-15T13:16:06.000Z</time>
      </trkpt>
      <trkpt lat="50.42291" lon="3.49575">
        <ele>23</ele>
        <time>2022-04-15T13:16:08.000Z</time>
      </trkpt>
      <trkpt lat="50.42292" lon="3.49564">
        <ele>23</ele>
        <time>2022-04-15T13:16:08.913Z</time>
      </trkpt>
      <trkpt lat="50.42292" lon="3.49556">
        <ele>23</ele>
        <time>2022-04-15T13:16:09.975Z</time>
      </trkpt>
      <trkpt lat="50.42294" lon="3.49546">
        <ele>23</ele>
        <time>2022-04-15T13:16:12.000Z</time>
      </trkpt>
      <trkpt lat="50.42295" lon="3.49538">
        <ele>23</ele>
        <time>2022-04-15T13:16:14.000Z</time>
      </trkpt>
      <trkpt lat="50.42296" lon="3.49529">
        <ele>23</ele>
        <time>2022-04-15T13:16:15.000Z</time>
      </trkpt>
      <trkpt lat="50.42298" lon="3.49521">
        <ele>23</ele>
        <time>2022-04-15T13:16:16.000Z</time>
      </trkpt>
      <trkpt lat="50.42299" lon="3.49512">
        <ele>23</ele>
        <time>2022-04-15T13:16:18.077Z</time>
      </trkpt>
      <trkpt lat="50.423" lon="3.49503">
        <ele>23</ele>
        <time>2022-04-15T13:16:19.073Z</time>
      </trkpt>
      <trkpt lat="50.42302" lon="3.49484">
        <ele>23</ele>
        <time>2022-04-15T13:16:22.000Z</time>
      </trkpt>
      <trkpt lat="50.42303" lon="3.49473">
        <ele>23</ele>
        <time>2022-04-15T13:16:24.072Z</time>
      </trkpt>
      <trkpt lat="50.42304" lon="3.49463">
        <ele>22.7</ele>
        <time>2022-04-15T13:16:26.035Z</time>
      </trkpt>
      <trkpt lat="50.42306" lon="3.49449">
        <ele>22.2</ele>
        <time>2022-04-15T13:16:28.000Z</time>
      </trkpt>
      <trkpt lat="50.42308" lon="3.49437">
        <ele>22</ele>
        <time>2022-04-15T13:16:30.000Z</time>
      </trkpt>
      <trkpt lat="50.42309" lon="3.49428">
        <ele>22</ele>
        <time>2022-04-15T13:16:31.000Z</time>
      </trkpt>
      <trkpt lat="50.42311" lon="3.4942">
        <ele>22</ele>
        <time>2022-04-15T13:16:32.075Z</time>
      </trkpt>
      <trkpt lat="50.42312" lon="3.49413">
        <ele>22</ele>
        <time>2022-04-15T13:16:33.636Z</time>
      </trkpt>
      <trkpt lat="50.42314" lon="3.49405">
        <ele>22</ele>
        <time>2022-04-15T13:16:34.718Z</time>
      </trkpt>
      <trkpt lat="50.42313" lon="3.49392">
        <ele>22</ele>
        <time>2022-04-15T13:16:36.973Z</time>
      </trkpt>
      <trkpt lat="50.42317" lon="3.49375">
        <ele>22</ele>
        <time>2022-04-15T13:16:39.695Z</time>
      </trkpt>
      <trkpt lat="50.42319" lon="3.49361">
        <ele>22</ele>
        <time>2022-04-15T13:16:41.697Z</time>
      </trkpt>
      <trkpt lat="50.42322" lon="3.49352">
        <ele>22</ele>
        <time>2022-04-15T13:16:42.610Z</time>
      </trkpt>
      <trkpt lat="50.42319" lon="3.49336">
        <ele>22</ele>
        <time>2022-04-15T13:16:44.878Z</time>
      </trkpt>
      <trkpt lat="50.42315" lon="3.49329">
        <ele>22</ele>
        <time>2022-04-15T13:16:47.000Z</time>
      </trkpt>
      <trkpt lat="50.42309" lon="3.49324">
        <ele>22</ele>
        <time>2022-04-15T13:16:48.000Z</time>
      </trkpt>
      <trkpt lat="50.42303" lon="3.49323">
        <ele>22</ele>
        <time>2022-04-15T13:16:50.000Z</time>
      </trkpt>
      <trkpt lat="50.42299" lon="3.49328">
        <ele>22</ele>
        <time>2022-04-15T13:16:51.003Z</time>
      </trkpt>
      <trkpt lat="50.42294" lon="3.4931">
        <ele>22</ele>
        <time>2022-04-15T13:16:52.000Z</time>
      </trkpt>
      <trkpt lat="50.42288" lon="3.49302">
        <ele>22</ele>
        <time>2022-04-15T13:16:53.000Z</time>
      </trkpt>
      <trkpt lat="50.42284" lon="3.49296">
        <ele>22</ele>
        <time>2022-04-15T13:16:54.000Z</time>
      </trkpt>
      <trkpt lat="50.42281" lon="3.49291">
        <ele>22</ele>
        <time>2022-04-15T13:16:55.000Z</time>
      </trkpt>
      <trkpt lat="50.42277" lon="3.49286">
        <ele>22</ele>
        <time>2022-04-15T13:16:56.000Z</time>
      </trkpt>
      <trkpt lat="50.42271" lon="3.49279">
        <ele>22</ele>
        <time>2022-04-15T13:16:57.000Z</time>
      </trkpt>
      <trkpt lat="50.42264" lon="3.49271">
        <ele>22</ele>
        <time>2022-04-15T13:16:59.000Z</time>
      </trkpt>
      <trkpt lat="50.42259" lon="3.49273">
        <ele>22</ele>
        <time>2022-04-15T13:17:00.176Z</time>
      </trkpt>
      <trkpt lat="50.42253" lon="3.49266">
        <ele>22</ele>
        <time>2022-04-15T13:17:02.000Z</time>
      </trkpt>
      <trkpt lat="50.42248" lon="3.49256">
        <ele>22.1</ele>
        <time>2022-04-15T13:17:04.028Z</time>
      </trkpt>
      <trkpt lat="50.42244" lon="3.49248">
        <ele>22.2</ele>
        <time>2022-04-15T13:17:04.930Z</time>
      </trkpt>
      <trkpt lat="50.42245" lon="3.49236">
        <ele>22.2</ele>
        <time>2022-04-15T13:17:07.000Z</time>
      </trkpt>
      <trkpt lat="50.42248" lon="3.49227">
        <ele>22.1</ele>
        <time>2022-04-15T13:17:08.000Z</time>
      </trkpt>
      <trkpt lat="50.42252" lon="3.49219">
        <ele>22</ele>
        <time>2022-04-15T13:17:09.000Z</time>
      </trkpt>
      <trkpt lat="50.42256" lon="3.49211">
        <ele>22</ele>
        <time>2022-04-15T13:17:11.149Z</time>
      </trkpt>
      <trkpt lat="50.42261" lon="3.49202">
        <ele>22</ele>
        <time>2022-04-15T13:17:12.430Z</time>
      </trkpt>
      <trkpt lat="50.42267" lon="3.49188">
        <ele>22</ele>
        <time>2022-04-15T13:17:14.627Z</time>
      </trkpt>
      <trkpt lat="50.42273" lon="3.49175">
        <ele>22</ele>
        <time>2022-04-15T13:17:17.129Z</time>
      </trkpt>
      <trkpt lat="50.42276" lon="3.49169">
        <ele>22</ele>
        <time>2022-04-15T13:17:18.747Z</time>
      </trkpt>
      <trkpt lat="50.42278" lon="3.49157">
        <ele>22</ele>
        <time>2022-04-15T13:17:20.000Z</time>
      </trkpt>
      <trkpt lat="50.42281" lon="3.49149">
        <ele>22</ele>
        <time>2022-04-15T13:17:21.431Z</time>
      </trkpt>
      <trkpt lat="50.42284" lon="3.49141">
        <ele>22</ele>
        <time>2022-04-15T13:17:22.619Z</time>
      </trkpt>
      <trkpt lat="50.42289" lon="3.49131">
        <ele>22</ele>
        <time>2022-04-15T13:17:25.110Z</time>
      </trkpt>
      <trkpt lat="50.42295" lon="3.49117">
        <ele>22</ele>
        <time>2022-04-15T13:17:26.791Z</time>
      </trkpt>
      <trkpt lat="50.42298" lon="3.49107">
        <ele>22</ele>
        <time>2022-04-15T13:17:28.990Z</time>
      </trkpt>
      <trkpt lat="50.42301" lon="3.49097">
        <ele>22</ele>
        <time>2022-04-15T13:17:30.530Z</time>
      </trkpt>
      <trkpt lat="50.42307" lon="3.49087">
        <ele>22</ele>
        <time>2022-04-15T13:17:32.910Z</time>
      </trkpt>
      <trkpt lat="50.42312" lon="3.49076">
        <ele>22</ele>
        <time>2022-04-15T13:17:35.090Z</time>
      </trkpt>
      <trkpt lat="50.42317" lon="3.49069">
        <ele>22</ele>
        <time>2022-04-15T13:17:37.529Z</time>
      </trkpt>
      <trkpt lat="50.42321" lon="3.49061">
        <ele>22</ele>
        <time>2022-04-15T13:17:40.000Z</time>
      </trkpt>
      <trkpt lat="50.42324" lon="3.49055">
        <ele>22</ele>
        <time>2022-04-15T13:17:44.110Z</time>
      </trkpt>
      <trkpt lat="50.42328" lon="3.49055">
        <ele>22</ele>
        <time>2022-04-15T13:17:46.869Z</time>
      </trkpt>
      <trkpt lat="50.42335" lon="3.49047">
        <ele>22</ele>
        <time>2022-04-15T13:17:49.388Z</time>
      </trkpt>
      <trkpt lat="50.42339" lon="3.49042">
        <ele>22</ele>
        <time>2022-04-15T13:17:51.000Z</time>
      </trkpt>
      <trkpt lat="50.42376" lon="3.48997">
        <ele>22</ele>
        <time>2022-04-15T13:18:37.500Z</time>
      </trkpt>
      <trkpt lat="50.4238" lon="3.48988">
        <ele>22</ele>
        <time>2022-04-15T13:18:40.000Z</time>
      </trkpt>
      <trkpt lat="50.42384" lon="3.48981">
        <ele>22</ele>
        <time>2022-04-15T13:18:42.000Z</time>
      </trkpt>
      <trkpt lat="50.42388" lon="3.48972">
        <ele>22</ele>
        <time>2022-04-15T13:18:44.000Z</time>
      </trkpt>
      <trkpt lat="50.42395" lon="3.48956">
        <ele>21.9</ele>
        <time>2022-04-15T13:18:46.030Z</time>
      </trkpt>
      <trkpt lat="50.424" lon="3.48949">
        <ele>21.7</ele>
        <time>2022-04-15T13:18:47.000Z</time>
      </trkpt>
      <trkpt lat="50.42405" lon="3.48944">
        <ele>21.4</ele>
        <time>2022-04-15T13:18:48.000Z</time>
      </trkpt>
      <trkpt lat="50.4241" lon="3.48939">
        <ele>21.2</ele>
        <time>2022-04-15T13:18:49.000Z</time>
      </trkpt>
      <trkpt lat="50.42419" lon="3.48931">
        <ele>21</ele>
        <time>2022-04-15T13:18:51.000Z</time>
      </trkpt>
      <trkpt lat="50.42425" lon="3.48923">
        <ele>21</ele>
        <time>2022-04-15T13:18:53.000Z</time>
      </trkpt>
      <trkpt lat="50.4243" lon="3.48915">
        <ele>21</ele>
        <time>2022-04-15T13:18:54.000Z</time>
      </trkpt>
      <trkpt lat="50.42432" lon="3.48905">
        <ele>21</ele>
        <time>2022-04-15T13:18:56.000Z</time>
      </trkpt>
      <trkpt lat="50.42438" lon="3.48894">
        <ele>21</ele>
        <time>2022-04-15T13:18:58.739Z</time>
      </trkpt>
      <trkpt lat="50.42441" lon="3.48885">
        <ele>21</ele>
        <time>2022-04-15T13:19:00.000Z</time>
      </trkpt>
      <trkpt lat="50.42444" lon="3.48876">
        <ele>21</ele>
        <time>2022-04-15T13:19:01.015Z</time>
      </trkpt>
      <trkpt lat="50.42447" lon="3.4887">
        <ele>21</ele>
        <time>2022-04-15T13:19:02.375Z</time>
      </trkpt>
      <trkpt lat="50.42452" lon="3.48862">
        <ele>21</ele>
        <time>2022-04-15T13:19:04.838Z</time>
      </trkpt>
      <trkpt lat="50.42455" lon="3.48855">
        <ele>21</ele>
        <time>2022-04-15T13:19:06.000Z</time>
      </trkpt>
      <trkpt lat="50.42456" lon="3.48848">
        <ele>21</ele>
        <time>2022-04-15T13:19:07.000Z</time>
      </trkpt>
      <trkpt lat="50.42458" lon="3.48841">
        <ele>21</ele>
        <time>2022-04-15T13:19:08.200Z</time>
      </trkpt>
      <trkpt lat="50.42461" lon="3.48831">
        <ele>21</ele>
        <time>2022-04-15T13:19:09.781Z</time>
      </trkpt>
      <trkpt lat="50.42461" lon="3.48823">
        <ele>21</ele>
        <time>2022-04-15T13:19:11.913Z</time>
      </trkpt>
      <trkpt lat="50.42463" lon="3.48815">
        <ele>21</ele>
        <time>2022-04-15T13:19:13.000Z</time>
      </trkpt>
      <trkpt lat="50.42469" lon="3.48804">
        <ele>21</ele>
        <time>2022-04-15T13:19:15.160Z</time>
      </trkpt>
      <trkpt lat="50.42475" lon="3.48795">
        <ele>21</ele>
        <time>2022-04-15T13:19:17.373Z</time>
      </trkpt>
      <trkpt lat="50.42478" lon="3.48789">
        <ele>21</ele>
        <time>2022-04-15T13:19:18.877Z</time>
      </trkpt>
      <trkpt lat="50.42482" lon="3.4878">
        <ele>21</ele>
        <time>2022-04-15T13:19:20.155Z</time>
      </trkpt>
      <trkpt lat="50.42485" lon="3.4877">
        <ele>20.9</ele>
        <time>2022-04-15T13:19:21.935Z</time>
      </trkpt>
      <trkpt lat="50.42486" lon="3.48762">
        <ele>20.7</ele>
        <time>2022-04-15T13:19:22.859Z</time>
      </trkpt>
      <trkpt lat="50.42487" lon="3.48754">
        <ele>20.5</ele>
        <time>2022-04-15T13:19:24.012Z</time>
      </trkpt>
      <trkpt lat="50.42486" lon="3.48743">
        <ele>20.5</ele>
        <time>2022-04-15T13:19:26.000Z</time>
      </trkpt>
      <trkpt lat="50.42484" lon="3.48735">
        <ele>20.6</ele>
        <time>2022-04-15T13:19:27.818Z</time>
      </trkpt>
      <trkpt lat="50.42479" lon="3.48723">
        <ele>20.8</ele>
        <time>2022-04-15T13:19:29.958Z</time>
      </trkpt>
      <trkpt lat="50.42477" lon="3.48718">
        <ele>20.8</ele>
        <time>2022-04-15T13:19:31.000Z</time>
      </trkpt>
      <trkpt lat="50.42473" lon="3.48704">
        <ele>21</ele>
        <time>2022-04-15T13:19:33.655Z</time>
      </trkpt>
      <trkpt lat="50.42469" lon="3.48696">
        <ele>21</ele>
        <time>2022-04-15T13:19:34.718Z</time>
      </trkpt>
      <trkpt lat="50.42466" lon="3.48685">
        <ele>21</ele>
        <time>2022-04-15T13:19:37.000Z</time>
      </trkpt>
      <trkpt lat="50.42463" lon="3.48671">
        <ele>21</ele>
        <time>2022-04-15T13:19:40.000Z</time>
      </trkpt>
      <trkpt lat="50.4246" lon="3.48658">
        <ele>21</ele>
        <time>2022-04-15T13:19:43.000Z</time>
      </trkpt>
      <trkpt lat="50.42461" lon="3.48649">
        <ele>21</ele>
        <time>2022-04-15T13:19:45.015Z</time>
      </trkpt>
      <trkpt lat="50.42461" lon="3.4864">
        <ele>21</ele>
        <time>2022-04-15T13:19:46.734Z</time>
      </trkpt>
      <trkpt lat="50.42463" lon="3.48632">
        <ele>21.1</ele>
        <time>2022-04-15T13:19:48.097Z</time>
      </trkpt>
      <trkpt lat="50.42466" lon="3.48625">
        <ele>21.1</ele>
        <time>2022-04-15T13:19:49.497Z</time>
      </trkpt>
      <trkpt lat="50.42472" lon="3.48614">
        <ele>21</ele>
        <time>2022-04-15T13:19:52.000Z</time>
      </trkpt>
      <trkpt lat="50.42477" lon="3.48601">
        <ele>20.8</ele>
        <time>2022-04-15T13:19:54.914Z</time>
      </trkpt>
      <trkpt lat="50.42482" lon="3.48587">
        <ele>20.6</ele>
        <time>2022-04-15T13:19:58.138Z</time>
      </trkpt>
      <trkpt lat="50.42485" lon="3.48574">
        <ele>20.5</ele>
        <time>2022-04-15T13:20:00.598Z</time>
      </trkpt>
      <trkpt lat="50.42487" lon="3.48567">
        <ele>20.5</ele>
        <time>2022-04-15T13:20:02.000Z</time>
      </trkpt>
      <trkpt lat="50.4249" lon="3.48557">
        <ele>20.4</ele>
        <time>2022-04-15T13:20:03.956Z</time>
      </trkpt>
      <trkpt lat="50.42493" lon="3.48543">
        <ele>20.3</ele>
        <time>2022-04-15T13:20:06.297Z</time>
      </trkpt>
      <trkpt lat="50.42498" lon="3.48529">
        <ele>20.1</ele>
        <time>2022-04-15T13:20:09.000Z</time>
      </trkpt>
      <trkpt lat="50.425" lon="3.48522">
        <ele>20.2</ele>
        <time>2022-04-15T13:20:10.000Z</time>
      </trkpt>
      <trkpt lat="50.42504" lon="3.48508">
        <ele>20.6</ele>
        <time>2022-04-15T13:20:12.000Z</time>
      </trkpt>
      <trkpt lat="50.42506" lon="3.48494">
        <ele>20.8</ele>
        <time>2022-04-15T13:20:14.000Z</time>
      </trkpt>
      <trkpt lat="50.42508" lon="3.48484">
        <ele>20.7</ele>
        <time>2022-04-15T13:20:15.000Z</time>
      </trkpt>
      <trkpt lat="50.42508" lon="3.48476">
        <ele>20.7</ele>
        <time>2022-04-15T13:20:16.000Z</time>
      </trkpt>
      <trkpt lat="50.42509" lon="3.48466">
        <ele>20.7</ele>
        <time>2022-04-15T13:20:17.000Z</time>
      </trkpt>
      <trkpt lat="50.42508" lon="3.48456">
        <ele>20.7</ele>
        <time>2022-04-15T13:20:18.000Z</time>
      </trkpt>
      <trkpt lat="50.42508" lon="3.48446">
        <ele>20.7</ele>
        <time>2022-04-15T13:20:19.000Z</time>
      </trkpt>
      <trkpt lat="50.42509" lon="3.48437">
        <ele>20.7</ele>
        <time>2022-04-15T13:20:20.000Z</time>
      </trkpt>
      <trkpt lat="50.4251" lon="3.48428">
        <ele>20.6</ele>
        <time>2022-04-15T13:20:21.000Z</time>
      </trkpt>
      <trkpt lat="50.42511" lon="3.48418">
        <ele>20.6</ele>
        <time>2022-04-15T13:20:22.000Z</time>
      </trkpt>
      <trkpt lat="50.42512" lon="3.48408">
        <ele>20.6</ele>
        <time>2022-04-15T13:20:23.000Z</time>
      </trkpt>
      <trkpt lat="50.42514" lon="3.48399">
        <ele>20.5</ele>
        <time>2022-04-15T13:20:24.000Z</time>
      </trkpt>
      <trkpt lat="50.42516" lon="3.48391">
        <ele>20.4</ele>
        <time>2022-04-15T13:20:25.000Z</time>
      </trkpt>
      <trkpt lat="50.42518" lon="3.48383">
        <ele>20.4</ele>
        <time>2022-04-15T13:20:26.000Z</time>
      </trkpt>
      <trkpt lat="50.42521" lon="3.48375">
        <ele>20.2</ele>
        <time>2022-04-15T13:20:27.000Z</time>
      </trkpt>
      <trkpt lat="50.42524" lon="3.48366">
        <ele>20.1</ele>
        <time>2022-04-15T13:20:28.000Z</time>
      </trkpt>
      <trkpt lat="50.42527" lon="3.48358">
        <ele>20</ele>
        <time>2022-04-15T13:20:29.000Z</time>
      </trkpt>
      <trkpt lat="50.4253" lon="3.4835">
        <ele>19.9</ele>
        <time>2022-04-15T13:20:30.000Z</time>
      </trkpt>
      <trkpt lat="50.42533" lon="3.48343">
        <ele>19.8</ele>
        <time>2022-04-15T13:20:31.000Z</time>
      </trkpt>
      <trkpt lat="50.42536" lon="3.48335">
        <ele>19.7</ele>
        <time>2022-04-15T13:20:32.000Z</time>
      </trkpt>
      <trkpt lat="50.42538" lon="3.48326">
        <ele>19.6</ele>
        <time>2022-04-15T13:20:33.000Z</time>
      </trkpt>
      <trkpt lat="50.42541" lon="3.48318">
        <ele>19.5</ele>
        <time>2022-04-15T13:20:34.000Z</time>
      </trkpt>
      <trkpt lat="50.42543" lon="3.48311">
        <ele>19.5</ele>
        <time>2022-04-15T13:20:35.000Z</time>
      </trkpt>
      <trkpt lat="50.42544" lon="3.48304">
        <ele>19.4</ele>
        <time>2022-04-15T13:20:36.000Z</time>
      </trkpt>
      <trkpt lat="50.42546" lon="3.48297">
        <ele>19.3</ele>
        <time>2022-04-15T13:20:37.000Z</time>
      </trkpt>
      <trkpt lat="50.42548" lon="3.48283">
        <ele>19.3</ele>
        <time>2022-04-15T13:20:39.000Z</time>
      </trkpt>
      <trkpt lat="50.42548" lon="3.48269">
        <ele>19.3</ele>
        <time>2022-04-15T13:20:41.000Z</time>
      </trkpt>
      <trkpt lat="50.4255" lon="3.48255">
        <ele>19.2</ele>
        <time>2022-04-15T13:20:43.000Z</time>
      </trkpt>
      <trkpt lat="50.42553" lon="3.48244">
        <ele>19.1</ele>
        <time>2022-04-15T13:20:45.000Z</time>
      </trkpt>
      <trkpt lat="50.42556" lon="3.48229">
        <ele>19</ele>
        <time>2022-04-15T13:20:47.000Z</time>
      </trkpt>
      <trkpt lat="50.4256" lon="3.4822">
        <ele>19</ele>
        <time>2022-04-15T13:20:49.144Z</time>
      </trkpt>
      <trkpt lat="50.42555" lon="3.4822">
        <ele>19</ele>
        <time>2022-04-15T13:20:50.047Z</time>
      </trkpt>
      <trkpt lat="50.42563" lon="3.48216">
        <ele>19</ele>
        <time>2022-04-15T13:20:51.000Z</time>
      </trkpt>
      <trkpt lat="50.42571" lon="3.48213">
        <ele>19</ele>
        <time>2022-04-15T13:20:52.000Z</time>
      </trkpt>
      <trkpt lat="50.42576" lon="3.48213">
        <ele>19</ele>
        <time>2022-04-15T13:20:53.000Z</time>
      </trkpt>
      <trkpt lat="50.42586" lon="3.48212">
        <ele>18.9</ele>
        <time>2022-04-15T13:20:55.000Z</time>
      </trkpt>
      <trkpt lat="50.42595" lon="3.48212">
        <ele>18.6</ele>
        <time>2022-04-15T13:20:57.000Z</time>
      </trkpt>
      <trkpt lat="50.42604" lon="3.48209">
        <ele>18.3</ele>
        <time>2022-04-15T13:20:59.000Z</time>
      </trkpt>
      <trkpt lat="50.42614" lon="3.48207">
        <ele>18</ele>
        <time>2022-04-15T13:21:01.028Z</time>
      </trkpt>
      <trkpt lat="50.4262" lon="3.48205">
        <ele>18</ele>
        <time>2022-04-15T13:21:03.000Z</time>
      </trkpt>
      <trkpt lat="50.42627" lon="3.48205">
        <ele>18</ele>
        <time>2022-04-15T13:21:04.000Z</time>
      </trkpt>
      <trkpt lat="50.42636" lon="3.48203">
        <ele>18</ele>
        <time>2022-04-15T13:21:06.000Z</time>
      </trkpt>
      <trkpt lat="50.42641" lon="3.48202">
        <ele>18</ele>
        <time>2022-04-15T13:21:07.000Z</time>
      </trkpt>
      <trkpt lat="50.42649" lon="3.48201">
        <ele>18</ele>
        <time>2022-04-15T13:21:09.000Z</time>
      </trkpt>
      <trkpt lat="50.42657" lon="3.48201">
        <ele>18</ele>
        <time>2022-04-15T13:21:10.000Z</time>
      </trkpt>
      <trkpt lat="50.42661" lon="3.48199">
        <ele>18</ele>
        <time>2022-04-15T13:21:11.000Z</time>
      </trkpt>
      <trkpt lat="50.42666" lon="3.48197">
        <ele>18</ele>
        <time>2022-04-15T13:21:12.000Z</time>
      </trkpt>
      <trkpt lat="50.42671" lon="3.48196">
        <ele>18</ele>
        <time>2022-04-15T13:21:13.000Z</time>
      </trkpt>
      <trkpt lat="50.4268" lon="3.48194">
        <ele>18</ele>
        <time>2022-04-15T13:21:15.000Z</time>
      </trkpt>
      <trkpt lat="50.42685" lon="3.48193">
        <ele>18</ele>
        <time>2022-04-15T13:21:16.000Z</time>
      </trkpt>
      <trkpt lat="50.4269" lon="3.48192">
        <ele>18</ele>
        <time>2022-04-15T13:21:17.000Z</time>
      </trkpt>
      <trkpt lat="50.42696" lon="3.4819">
        <ele>18</ele>
        <time>2022-04-15T13:21:18.000Z</time>
      </trkpt>
      <trkpt lat="50.42701" lon="3.48188">
        <ele>18</ele>
        <time>2022-04-15T13:21:19.000Z</time>
      </trkpt>
      <trkpt lat="50.42705" lon="3.48186">
        <ele>18</ele>
        <time>2022-04-15T13:21:20.000Z</time>
      </trkpt>
      <trkpt lat="50.42709" lon="3.48181">
        <ele>18</ele>
        <time>2022-04-15T13:21:21.000Z</time>
      </trkpt>
      <trkpt lat="50.42712" lon="3.48175">
        <ele>18</ele>
        <time>2022-04-15T13:21:22.000Z</time>
      </trkpt>
      <trkpt lat="50.42715" lon="3.48168">
        <ele>18</ele>
        <time>2022-04-15T13:21:23.000Z</time>
      </trkpt>
      <trkpt lat="50.42717" lon="3.48161">
        <ele>18</ele>
        <time>2022-04-15T13:21:24.000Z</time>
      </trkpt>
      <trkpt lat="50.42721" lon="3.48155">
        <ele>18</ele>
        <time>2022-04-15T13:21:25.000Z</time>
      </trkpt>
      <trkpt lat="50.42724" lon="3.48147">
        <ele>18.1</ele>
        <time>2022-04-15T13:21:26.000Z</time>
      </trkpt>
      <trkpt lat="50.42729" lon="3.48135">
        <ele>18.2</ele>
        <time>2022-04-15T13:21:28.000Z</time>
      </trkpt>
      <trkpt lat="50.42733" lon="3.48124">
        <ele>18.4</ele>
        <time>2022-04-15T13:21:30.000Z</time>
      </trkpt>
      <trkpt lat="50.42737" lon="3.48116">
        <ele>18.5</ele>
        <time>2022-04-15T13:21:31.000Z</time>
      </trkpt>
      <trkpt lat="50.42739" lon="3.4811">
        <ele>18.6</ele>
        <time>2022-04-15T13:21:32.000Z</time>
      </trkpt>
      <trkpt lat="50.42742" lon="3.48104">
        <ele>18.5</ele>
        <time>2022-04-15T13:21:33.000Z</time>
      </trkpt>
      <trkpt lat="50.42746" lon="3.48096">
        <ele>18.4</ele>
        <time>2022-04-15T13:21:34.000Z</time>
      </trkpt>
      <trkpt lat="50.42748" lon="3.4809">
        <ele>18.2</ele>
        <time>2022-04-15T13:21:35.000Z</time>
      </trkpt>
      <trkpt lat="50.42751" lon="3.48083">
        <ele>18</ele>
        <time>2022-04-15T13:21:36.000Z</time>
      </trkpt>
      <trkpt lat="50.42755" lon="3.48075">
        <ele>18.2</ele>
        <time>2022-04-15T13:21:37.000Z</time>
      </trkpt>
      <trkpt lat="50.42758" lon="3.48069">
        <ele>18.3</ele>
        <time>2022-04-15T13:21:38.000Z</time>
      </trkpt>
      <trkpt lat="50.4276" lon="3.48062">
        <ele>18.4</ele>
        <time>2022-04-15T13:21:39.000Z</time>
      </trkpt>
      <trkpt lat="50.42763" lon="3.48055">
        <ele>18.5</ele>
        <time>2022-04-15T13:21:40.000Z</time>
      </trkpt>
      <trkpt lat="50.42767" lon="3.48048">
        <ele>18.6</ele>
        <time>2022-04-15T13:21:41.000Z</time>
      </trkpt>
      <trkpt lat="50.42773" lon="3.48035">
        <ele>18.8</ele>
        <time>2022-04-15T13:21:43.000Z</time>
      </trkpt>
      <trkpt lat="50.42775" lon="3.48028">
        <ele>18.9</ele>
        <time>2022-04-15T13:21:44.000Z</time>
      </trkpt>
      <trkpt lat="50.42778" lon="3.48022">
        <ele>19</ele>
        <time>2022-04-15T13:21:45.000Z</time>
      </trkpt>
      <trkpt lat="50.42781" lon="3.48014">
        <ele>19</ele>
        <time>2022-04-15T13:21:46.000Z</time>
      </trkpt>
      <trkpt lat="50.42783" lon="3.48007">
        <ele>19</ele>
        <time>2022-04-15T13:21:47.000Z</time>
      </trkpt>
      <trkpt lat="50.42785" lon="3.48">
        <ele>19</ele>
        <time>2022-04-15T13:21:48.000Z</time>
      </trkpt>
      <trkpt lat="50.42788" lon="3.47992">
        <ele>19</ele>
        <time>2022-04-15T13:21:49.000Z</time>
      </trkpt>
      <trkpt lat="50.42791" lon="3.47985">
        <ele>19</ele>
        <time>2022-04-15T13:21:50.000Z</time>
      </trkpt>
      <trkpt lat="50.42794" lon="3.47977">
        <ele>19</ele>
        <time>2022-04-15T13:21:51.000Z</time>
      </trkpt>
      <trkpt lat="50.42797" lon="3.47971">
        <ele>19</ele>
        <time>2022-04-15T13:21:52.000Z</time>
      </trkpt>
      <trkpt lat="50.428" lon="3.47963">
        <ele>19</ele>
        <time>2022-04-15T13:21:53.000Z</time>
      </trkpt>
      <trkpt lat="50.42805" lon="3.47951">
        <ele>19</ele>
        <time>2022-04-15T13:21:55.000Z</time>
      </trkpt>
      <trkpt lat="50.42809" lon="3.47943">
        <ele>19</ele>
        <time>2022-04-15T13:21:56.000Z</time>
      </trkpt>
      <trkpt lat="50.42812" lon="3.47936">
        <ele>19</ele>
        <time>2022-04-15T13:21:57.000Z</time>
      </trkpt>
      <trkpt lat="50.42814" lon="3.47929">
        <ele>19</ele>
        <time>2022-04-15T13:21:58.000Z</time>
      </trkpt>
      <trkpt lat="50.42817" lon="3.47923">
        <ele>19</ele>
        <time>2022-04-15T13:21:59.000Z</time>
      </trkpt>
      <trkpt lat="50.42821" lon="3.47915">
        <ele>19</ele>
        <time>2022-04-15T13:22:00.000Z</time>
      </trkpt>
      <trkpt lat="50.42826" lon="3.47902">
        <ele>19</ele>
        <time>2022-04-15T13:22:02.000Z</time>
      </trkpt>
      <trkpt lat="50.42829" lon="3.47896">
        <ele>19</ele>
        <time>2022-04-15T13:22:03.000Z</time>
      </trkpt>
      <trkpt lat="50.42832" lon="3.47889">
        <ele>19</ele>
        <time>2022-04-15T13:22:04.000Z</time>
      </trkpt>
      <trkpt lat="50.42834" lon="3.47883">
        <ele>19</ele>
        <time>2022-04-15T13:22:05.000Z</time>
      </trkpt>
      <trkpt lat="50.42838" lon="3.47875">
        <ele>19</ele>
        <time>2022-04-15T13:22:06.000Z</time>
      </trkpt>
      <trkpt lat="50.42842" lon="3.47863">
        <ele>19</ele>
        <time>2022-04-15T13:22:08.000Z</time>
      </trkpt>
      <trkpt lat="50.42845" lon="3.47855">
        <ele>19</ele>
        <time>2022-04-15T13:22:09.000Z</time>
      </trkpt>
      <trkpt lat="50.4285" lon="3.47844">
        <ele>19</ele>
        <time>2022-04-15T13:22:11.000Z</time>
      </trkpt>
      <trkpt lat="50.42854" lon="3.47834">
        <ele>19</ele>
        <time>2022-04-15T13:22:13.000Z</time>
      </trkpt>
      <trkpt lat="50.42857" lon="3.47827">
        <ele>19</ele>
        <time>2022-04-15T13:22:14.000Z</time>
      </trkpt>
      <trkpt lat="50.42861" lon="3.47816">
        <ele>19</ele>
        <time>2022-04-15T13:22:16.000Z</time>
      </trkpt>
      <trkpt lat="50.42864" lon="3.47808">
        <ele>19</ele>
        <time>2022-04-15T13:22:17.000Z</time>
      </trkpt>
      <trkpt lat="50.42868" lon="3.47799">
        <ele>19</ele>
        <time>2022-04-15T13:22:19.000Z</time>
      </trkpt>
      <trkpt lat="50.4287" lon="3.47793">
        <ele>19</ele>
        <time>2022-04-15T13:22:20.000Z</time>
      </trkpt>
      <trkpt lat="50.42874" lon="3.47786">
        <ele>19</ele>
        <time>2022-04-15T13:22:21.000Z</time>
      </trkpt>
      <trkpt lat="50.42876" lon="3.47781">
        <ele>19</ele>
        <time>2022-04-15T13:22:22.000Z</time>
      </trkpt>
      <trkpt lat="50.42879" lon="3.47774">
        <ele>19</ele>
        <time>2022-04-15T13:22:23.000Z</time>
      </trkpt>
      <trkpt lat="50.42882" lon="3.47765">
        <ele>19</ele>
        <time>2022-04-15T13:22:24.000Z</time>
      </trkpt>
      <trkpt lat="50.42886" lon="3.47757">
        <ele>19</ele>
        <time>2022-04-15T13:22:25.000Z</time>
      </trkpt>
      <trkpt lat="50.42888" lon="3.4775">
        <ele>19</ele>
        <time>2022-04-15T13:22:26.000Z</time>
      </trkpt>
      <trkpt lat="50.42891" lon="3.47742">
        <ele>19</ele>
        <time>2022-04-15T13:22:27.000Z</time>
      </trkpt>
      <trkpt lat="50.42896" lon="3.4773">
        <ele>19</ele>
        <time>2022-04-15T13:22:29.000Z</time>
      </trkpt>
      <trkpt lat="50.42899" lon="3.47723">
        <ele>19</ele>
        <time>2022-04-15T13:22:30.000Z</time>
      </trkpt>
      <trkpt lat="50.42901" lon="3.47717">
        <ele>19</ele>
        <time>2022-04-15T13:22:31.000Z</time>
      </trkpt>
      <trkpt lat="50.42904" lon="3.4771">
        <ele>19</ele>
        <time>2022-04-15T13:22:32.000Z</time>
      </trkpt>
      <trkpt lat="50.42906" lon="3.47704">
        <ele>19</ele>
        <time>2022-04-15T13:22:33.000Z</time>
      </trkpt>
      <trkpt lat="50.42909" lon="3.47696">
        <ele>19</ele>
        <time>2022-04-15T13:22:34.000Z</time>
      </trkpt>
      <trkpt lat="50.42915" lon="3.47684">
        <ele>19</ele>
        <time>2022-04-15T13:22:36.000Z</time>
      </trkpt>
      <trkpt lat="50.42918" lon="3.47678">
        <ele>19</ele>
        <time>2022-04-15T13:22:37.000Z</time>
      </trkpt>
      <trkpt lat="50.42923" lon="3.47667">
        <ele>19</ele>
        <time>2022-04-15T13:22:39.000Z</time>
      </trkpt>
      <trkpt lat="50.42926" lon="3.47659">
        <ele>19</ele>
        <time>2022-04-15T13:22:40.000Z</time>
      </trkpt>
      <trkpt lat="50.42931" lon="3.47646">
        <ele>19</ele>
        <time>2022-04-15T13:22:42.000Z</time>
      </trkpt>
      <trkpt lat="50.42936" lon="3.47634">
        <ele>19</ele>
        <time>2022-04-15T13:22:44.000Z</time>
      </trkpt>
      <trkpt lat="50.4294" lon="3.47627">
        <ele>19</ele>
        <time>2022-04-15T13:22:45.000Z</time>
      </trkpt>
      <trkpt lat="50.42945" lon="3.47613">
        <ele>19</ele>
        <time>2022-04-15T13:22:47.000Z</time>
      </trkpt>
      <trkpt lat="50.42951" lon="3.47601">
        <ele>19</ele>
        <time>2022-04-15T13:22:49.000Z</time>
      </trkpt>
      <trkpt lat="50.42956" lon="3.47589">
        <ele>19</ele>
        <time>2022-04-15T13:22:51.000Z</time>
      </trkpt>
      <trkpt lat="50.42958" lon="3.47583">
        <ele>19</ele>
        <time>2022-04-15T13:22:52.000Z</time>
      </trkpt>
      <trkpt lat="50.42962" lon="3.47576">
        <ele>19</ele>
        <time>2022-04-15T13:22:53.000Z</time>
      </trkpt>
      <trkpt lat="50.42966" lon="3.47565">
        <ele>19</ele>
        <time>2022-04-15T13:22:55.000Z</time>
      </trkpt>
      <trkpt lat="50.42969" lon="3.47558">
        <ele>19</ele>
        <time>2022-04-15T13:22:56.000Z</time>
      </trkpt>
      <trkpt lat="50.42973" lon="3.47547">
        <ele>19</ele>
        <time>2022-04-15T13:22:58.000Z</time>
      </trkpt>
      <trkpt lat="50.42977" lon="3.4754">
        <ele>19</ele>
        <time>2022-04-15T13:23:00.000Z</time>
      </trkpt>
      <trkpt lat="50.42981" lon="3.47529">
        <ele>19</ele>
        <time>2022-04-15T13:23:02.000Z</time>
      </trkpt>
      <trkpt lat="50.42985" lon="3.4752">
        <ele>19</ele>
        <time>2022-04-15T13:23:04.000Z</time>
      </trkpt>
      <trkpt lat="50.42989" lon="3.47513">
        <ele>19</ele>
        <time>2022-04-15T13:23:05.000Z</time>
      </trkpt>
      <trkpt lat="50.42996" lon="3.47494">
        <ele>19</ele>
        <time>2022-04-15T13:23:08.080Z</time>
      </trkpt>
      <trkpt lat="50.43" lon="3.47485">
        <ele>19</ele>
        <time>2022-04-15T13:23:09.942Z</time>
      </trkpt>
      <trkpt lat="50.43004" lon="3.47474">
        <ele>19</ele>
        <time>2022-04-15T13:23:11.145Z</time>
      </trkpt>
      <trkpt lat="50.43009" lon="3.47459">
        <ele>19</ele>
        <time>2022-04-15T13:23:13.739Z</time>
      </trkpt>
      <trkpt lat="50.43013" lon="3.4745">
        <ele>19</ele>
        <time>2022-04-15T13:23:15.000Z</time>
      </trkpt>
      <trkpt lat="50.43018" lon="3.4744">
        <ele>19</ele>
        <time>2022-04-15T13:23:17.000Z</time>
      </trkpt>
      <trkpt lat="50.43023" lon="3.4743">
        <ele>19</ele>
        <time>2022-04-15T13:23:19.338Z</time>
      </trkpt>
      <trkpt lat="50.43027" lon="3.4742">
        <ele>19</ele>
        <time>2022-04-15T13:23:20.720Z</time>
      </trkpt>
      <trkpt lat="50.43033" lon="3.47405">
        <ele>19</ele>
        <time>2022-04-15T13:23:23.000Z</time>
      </trkpt>
      <trkpt lat="50.43037" lon="3.47393">
        <ele>19</ele>
        <time>2022-04-15T13:23:25.000Z</time>
      </trkpt>
      <trkpt lat="50.43043" lon="3.47379">
        <ele>19</ele>
        <time>2022-04-15T13:23:27.078Z</time>
      </trkpt>
      <trkpt lat="50.43046" lon="3.47374">
        <ele>19</ele>
        <time>2022-04-15T13:23:29.000Z</time>
      </trkpt>
      <trkpt lat="50.4305" lon="3.47364">
        <ele>19</ele>
        <time>2022-04-15T13:23:31.000Z</time>
      </trkpt>
      <trkpt lat="50.43054" lon="3.47354">
        <ele>19</ele>
        <time>2022-04-15T13:23:32.000Z</time>
      </trkpt>
      <trkpt lat="50.4306" lon="3.47339">
        <ele>19</ele>
        <time>2022-04-15T13:23:34.861Z</time>
      </trkpt>
      <trkpt lat="50.43063" lon="3.47332">
        <ele>19</ele>
        <time>2022-04-15T13:23:36.661Z</time>
      </trkpt>
      <trkpt lat="50.43067" lon="3.47324">
        <ele>19</ele>
        <time>2022-04-15T13:23:38.000Z</time>
      </trkpt>
      <trkpt lat="50.43069" lon="3.47318">
        <ele>19</ele>
        <time>2022-04-15T13:23:39.000Z</time>
      </trkpt>
      <trkpt lat="50.43074" lon="3.47303">
        <ele>19</ele>
        <time>2022-04-15T13:23:42.057Z</time>
      </trkpt>
      <trkpt lat="50.43079" lon="3.47291">
        <ele>19</ele>
        <time>2022-04-15T13:23:44.080Z</time>
      </trkpt>
      <trkpt lat="50.43082" lon="3.4728">
        <ele>19</ele>
        <time>2022-04-15T13:23:46.642Z</time>
      </trkpt>
      <trkpt lat="50.43084" lon="3.47273">
        <ele>19</ele>
        <time>2022-04-15T13:23:48.000Z</time>
      </trkpt>
      <trkpt lat="50.43089" lon="3.47264">
        <ele>19</ele>
        <time>2022-04-15T13:23:50.000Z</time>
      </trkpt>
      <trkpt lat="50.43092" lon="3.47253">
        <ele>19</ele>
        <time>2022-04-15T13:23:51.940Z</time>
      </trkpt>
      <trkpt lat="50.43095" lon="3.47247">
        <ele>19</ele>
        <time>2022-04-15T13:23:53.101Z</time>
      </trkpt>
      <trkpt lat="50.43098" lon="3.4724">
        <ele>19</ele>
        <time>2022-04-15T13:23:54.340Z</time>
      </trkpt>
      <trkpt lat="50.43102" lon="3.47229">
        <ele>19</ele>
        <time>2022-04-15T13:23:56.627Z</time>
      </trkpt>
      <trkpt lat="50.43106" lon="3.4722">
        <ele>19</ele>
        <time>2022-04-15T13:23:59.000Z</time>
      </trkpt>
      <trkpt lat="50.43111" lon="3.47219">
        <ele>19</ele>
        <time>2022-04-15T13:24:03.000Z</time>
      </trkpt>
      <trkpt lat="50.43109" lon="3.47211">
        <ele>19</ele>
        <time>2022-04-15T13:24:08.000Z</time>
      </trkpt>
      <trkpt lat="50.43112" lon="3.47204">
        <ele>19</ele>
        <time>2022-04-15T13:24:11.442Z</time>
      </trkpt>
      <trkpt lat="50.43112" lon="3.47192">
        <ele>19</ele>
        <time>2022-04-15T13:24:14.000Z</time>
      </trkpt>
      <trkpt lat="50.43111" lon="3.47185">
        <ele>19</ele>
        <time>2022-04-15T13:24:17.000Z</time>
      </trkpt>
      <trkpt lat="50.43114" lon="3.47192">
        <ele>19</ele>
        <time>2022-04-15T13:24:21.000Z</time>
      </trkpt>
      <trkpt lat="50.43118" lon="3.47189">
        <ele>19</ele>
        <time>2022-04-15T13:24:27.000Z</time>
      </trkpt>
      <trkpt lat="50.43126" lon="3.47173">
        <ele>19</ele>
        <time>2022-04-15T13:24:30.000Z</time>
      </trkpt>
      <trkpt lat="50.43127" lon="3.47162">
        <ele>19</ele>
        <time>2022-04-15T13:24:30.961Z</time>
      </trkpt>
      <trkpt lat="50.43129" lon="3.47147">
        <ele>19</ele>
        <time>2022-04-15T13:24:32.402Z</time>
      </trkpt>
      <trkpt lat="50.43131" lon="3.47133">
        <ele>19</ele>
        <time>2022-04-15T13:24:34.000Z</time>
      </trkpt>
      <trkpt lat="50.43131" lon="3.47116">
        <ele>19</ele>
        <time>2022-04-15T13:24:36.000Z</time>
      </trkpt>
      <trkpt lat="50.43133" lon="3.47105">
        <ele>19</ele>
        <time>2022-04-15T13:24:37.000Z</time>
      </trkpt>
      <trkpt lat="50.43132" lon="3.47096">
        <ele>19</ele>
        <time>2022-04-15T13:24:39.000Z</time>
      </trkpt>
      <trkpt lat="50.43133" lon="3.47084">
        <ele>19</ele>
        <time>2022-04-15T13:24:41.000Z</time>
      </trkpt>
      <trkpt lat="50.43135" lon="3.47068">
        <ele>19</ele>
        <time>2022-04-15T13:24:43.000Z</time>
      </trkpt>
      <trkpt lat="50.43137" lon="3.47052">
        <ele>19</ele>
        <time>2022-04-15T13:24:46.689Z</time>
      </trkpt>
      <trkpt lat="50.43136" lon="3.47043">
        <ele>19</ele>
        <time>2022-04-15T13:24:47.770Z</time>
      </trkpt>
      <trkpt lat="50.43137" lon="3.47035">
        <ele>19</ele>
        <time>2022-04-15T13:24:48.889Z</time>
      </trkpt>
      <trkpt lat="50.43137" lon="3.47026">
        <ele>19</ele>
        <time>2022-04-15T13:24:50.000Z</time>
      </trkpt>
      <trkpt lat="50.43138" lon="3.47018">
        <ele>19</ele>
        <time>2022-04-15T13:24:51.168Z</time>
      </trkpt>
      <trkpt lat="50.43139" lon="3.47005">
        <ele>19</ele>
        <time>2022-04-15T13:24:52.969Z</time>
      </trkpt>
      <trkpt lat="50.4314" lon="3.46994">
        <ele>19</ele>
        <time>2022-04-15T13:24:54.549Z</time>
      </trkpt>
      <trkpt lat="50.4314" lon="3.46984">
        <ele>19</ele>
        <time>2022-04-15T13:24:56.053Z</time>
      </trkpt>
      <trkpt lat="50.43139" lon="3.46976">
        <ele>19</ele>
        <time>2022-04-15T13:24:57.152Z</time>
      </trkpt>
      <trkpt lat="50.43138" lon="3.46964">
        <ele>19</ele>
        <time>2022-04-15T13:24:58.833Z</time>
      </trkpt>
      <trkpt lat="50.43139" lon="3.46956">
        <ele>19</ele>
        <time>2022-04-15T13:24:59.950Z</time>
      </trkpt>
      <trkpt lat="50.43139" lon="3.46949">
        <ele>19</ele>
        <time>2022-04-15T13:25:01.000Z</time>
      </trkpt>
      <trkpt lat="50.43142" lon="3.46935">
        <ele>19</ele>
        <time>2022-04-15T13:25:03.191Z</time>
      </trkpt>
      <trkpt lat="50.43143" lon="3.46927">
        <ele>19</ele>
        <time>2022-04-15T13:25:04.653Z</time>
      </trkpt>
      <trkpt lat="50.43145" lon="3.46918">
        <ele>19</ele>
        <time>2022-04-15T13:25:06.000Z</time>
      </trkpt>
      <trkpt lat="50.43146" lon="3.46908">
        <ele>19</ele>
        <time>2022-04-15T13:25:06.952Z</time>
      </trkpt>
      <trkpt lat="50.43147" lon="3.46894">
        <ele>19</ele>
        <time>2022-04-15T13:25:09.149Z</time>
      </trkpt>
      <trkpt lat="50.43148" lon="3.46884">
        <ele>19</ele>
        <time>2022-04-15T13:25:10.912Z</time>
      </trkpt>
      <trkpt lat="50.4315" lon="3.46876">
        <ele>19</ele>
        <time>2022-04-15T13:25:12.641Z</time>
      </trkpt>
      <trkpt lat="50.4315" lon="3.46868">
        <ele>19</ele>
        <time>2022-04-15T13:25:13.833Z</time>
      </trkpt>
      <trkpt lat="50.43152" lon="3.46858">
        <ele>19</ele>
        <time>2022-04-15T13:25:15.873Z</time>
      </trkpt>
      <trkpt lat="50.43152" lon="3.46847">
        <ele>19</ele>
        <time>2022-04-15T13:25:18.000Z</time>
      </trkpt>
      <trkpt lat="50.43154" lon="3.4684">
        <ele>19</ele>
        <time>2022-04-15T13:25:19.000Z</time>
      </trkpt>
      <trkpt lat="50.43155" lon="3.46826">
        <ele>19</ele>
        <time>2022-04-15T13:25:21.000Z</time>
      </trkpt>
      <trkpt lat="50.43155" lon="3.46818">
        <ele>19</ele>
        <time>2022-04-15T13:25:22.753Z</time>
      </trkpt>
      <trkpt lat="50.43158" lon="3.46805">
        <ele>19</ele>
        <time>2022-04-15T13:25:25.634Z</time>
      </trkpt>
      <trkpt lat="50.43158" lon="3.46789">
        <ele>19</ele>
        <time>2022-04-15T13:25:29.173Z</time>
      </trkpt>
      <trkpt lat="50.43159" lon="3.46776">
        <ele>19</ele>
        <time>2022-04-15T13:25:31.621Z</time>
      </trkpt>
      <trkpt lat="50.43158" lon="3.46769">
        <ele>19</ele>
        <time>2022-04-15T13:25:33.969Z</time>
      </trkpt>
      <trkpt lat="50.4316" lon="3.46762">
        <ele>19</ele>
        <time>2022-04-15T13:25:49.000Z</time>
      </trkpt>
      <trkpt lat="50.43163" lon="3.46755">
        <ele>19</ele>
        <time>2022-04-15T13:25:53.352Z</time>
      </trkpt>
      <trkpt lat="50.43166" lon="3.46749">
        <ele>19</ele>
        <time>2022-04-15T13:25:55.831Z</time>
      </trkpt>
      <trkpt lat="50.43162" lon="3.46743">
        <ele>18.7</ele>
        <time>2022-04-15T13:25:59.070Z</time>
      </trkpt>
      <trkpt lat="50.43155" lon="3.46737">
        <ele>18.5</ele>
        <time>2022-04-15T13:26:03.088Z</time>
      </trkpt>
      <trkpt lat="50.43157" lon="3.46729">
        <ele>18.2</ele>
        <time>2022-04-15T13:26:05.000Z</time>
      </trkpt>
      <trkpt lat="50.43158" lon="3.46721">
        <ele>18</ele>
        <time>2022-04-15T13:26:07.133Z</time>
      </trkpt>
      <trkpt lat="50.43161" lon="3.46709">
        <ele>18</ele>
        <time>2022-04-15T13:26:09.000Z</time>
      </trkpt>
      <trkpt lat="50.43161" lon="3.467">
        <ele>18</ele>
        <time>2022-04-15T13:26:10.512Z</time>
      </trkpt>
      <trkpt lat="50.43162" lon="3.46693">
        <ele>18</ele>
        <time>2022-04-15T13:26:12.000Z</time>
      </trkpt>
      <trkpt lat="50.43164" lon="3.46684">
        <ele>18</ele>
        <time>2022-04-15T13:26:14.000Z</time>
      </trkpt>
      <trkpt lat="50.43165" lon="3.46674">
        <ele>18</ele>
        <time>2022-04-15T13:26:16.000Z</time>
      </trkpt>
      <trkpt lat="50.43167" lon="3.46661">
        <ele>18</ele>
        <time>2022-04-15T13:26:19.000Z</time>
      </trkpt>
      <trkpt lat="50.43167" lon="3.46653">
        <ele>18</ele>
        <time>2022-04-15T13:26:20.794Z</time>
      </trkpt>
      <trkpt lat="50.43168" lon="3.46643">
        <ele>18</ele>
        <time>2022-04-15T13:26:23.000Z</time>
      </trkpt>
      <trkpt lat="50.43168" lon="3.46636">
        <ele>18</ele>
        <time>2022-04-15T13:26:24.149Z</time>
      </trkpt>
      <trkpt lat="50.43169" lon="3.46628">
        <ele>18</ele>
        <time>2022-04-15T13:26:25.994Z</time>
      </trkpt>
      <trkpt lat="50.4317" lon="3.46621">
        <ele>18</ele>
        <time>2022-04-15T13:26:27.011Z</time>
      </trkpt>
      <trkpt lat="50.43169" lon="3.4661">
        <ele>18</ele>
        <time>2022-04-15T13:26:30.000Z</time>
      </trkpt>
      <trkpt lat="50.4317" lon="3.46601">
        <ele>18</ele>
        <time>2022-04-15T13:26:32.911Z</time>
      </trkpt>
      <trkpt lat="50.43164" lon="3.46602">
        <ele>18</ele>
        <time>2022-04-15T13:26:35.091Z</time>
      </trkpt>
      <trkpt lat="50.43159" lon="3.46603">
        <ele>18</ele>
        <time>2022-04-15T13:26:40.013Z</time>
      </trkpt>
      <trkpt lat="50.43154" lon="3.46598">
        <ele>18</ele>
        <time>2022-04-15T13:26:42.769Z</time>
      </trkpt>
      <trkpt lat="50.43148" lon="3.46591">
        <ele>18</ele>
        <time>2022-04-15T13:26:45.174Z</time>
      </trkpt>
      <trkpt lat="50.43142" lon="3.46583">
        <ele>18</ele>
        <time>2022-04-15T13:26:46.950Z</time>
      </trkpt>
      <trkpt lat="50.43137" lon="3.46579">
        <ele>18</ele>
        <time>2022-04-15T13:26:48.049Z</time>
      </trkpt>
      <trkpt lat="50.43131" lon="3.46575">
        <ele>18</ele>
        <time>2022-04-15T13:26:49.472Z</time>
      </trkpt>
      <trkpt lat="50.43126" lon="3.4657">
        <ele>18</ele>
        <time>2022-04-15T13:26:50.750Z</time>
      </trkpt>
      <trkpt lat="50.43122" lon="3.46564">
        <ele>18</ele>
        <time>2022-04-15T13:26:52.910Z</time>
      </trkpt>
      <trkpt lat="50.43118" lon="3.46559">
        <ele>18</ele>
        <time>2022-04-15T13:26:54.033Z</time>
      </trkpt>
      <trkpt lat="50.43113" lon="3.46555">
        <ele>18</ele>
        <time>2022-04-15T13:26:55.000Z</time>
      </trkpt>
      <trkpt lat="50.43108" lon="3.46551">
        <ele>18</ele>
        <time>2022-04-15T13:26:57.111Z</time>
      </trkpt>
      <trkpt lat="50.43104" lon="3.46547">
        <ele>18</ele>
        <time>2022-04-15T13:26:58.730Z</time>
      </trkpt>
      <trkpt lat="50.43095" lon="3.46539">
        <ele>18</ele>
        <time>2022-04-15T13:27:01.110Z</time>
      </trkpt>
      <trkpt lat="50.43087" lon="3.46529">
        <ele>18</ele>
        <time>2022-04-15T13:27:03.852Z</time>
      </trkpt>
      <trkpt lat="50.43082" lon="3.46524">
        <ele>18</ele>
        <time>2022-04-15T13:27:06.000Z</time>
      </trkpt>
      <trkpt lat="50.43077" lon="3.46519">
        <ele>18</ele>
        <time>2022-04-15T13:27:08.000Z</time>
      </trkpt>
      <trkpt lat="50.43074" lon="3.46515">
        <ele>18</ele>
        <time>2022-04-15T13:27:09.052Z</time>
      </trkpt>
      <trkpt lat="50.43069" lon="3.4651">
        <ele>18</ele>
        <time>2022-04-15T13:27:11.000Z</time>
      </trkpt>
      <trkpt lat="50.43065" lon="3.46505">
        <ele>18</ele>
        <time>2022-04-15T13:27:12.933Z</time>
      </trkpt>
      <trkpt lat="50.43061" lon="3.46501">
        <ele>18</ele>
        <time>2022-04-15T13:27:13.992Z</time>
      </trkpt>
      <trkpt lat="50.43055" lon="3.46497">
        <ele>18</ele>
        <time>2022-04-15T13:27:16.509Z</time>
      </trkpt>
      <trkpt lat="50.4305" lon="3.4649">
        <ele>18</ele>
        <time>2022-04-15T13:27:19.000Z</time>
      </trkpt>
      <trkpt lat="50.43044" lon="3.46487">
        <ele>18</ele>
        <time>2022-04-15T13:27:22.000Z</time>
      </trkpt>
      <trkpt lat="50.43043" lon="3.46494">
        <ele>18</ele>
        <time>2022-04-15T13:27:25.000Z</time>
      </trkpt>
      <trkpt lat="50.43038" lon="3.46491">
        <ele>18</ele>
        <time>2022-04-15T13:27:35.000Z</time>
      </trkpt>
      <trkpt lat="50.43036" lon="3.46485">
        <ele>18</ele>
        <time>2022-04-15T13:27:40.000Z</time>
      </trkpt>
      <trkpt lat="50.43019" lon="3.46461">
        <ele>18</ele>
        <time>2022-04-15T13:29:43.580Z</time>
      </trkpt>
      <trkpt lat="50.43016" lon="3.46457">
        <ele>18</ele>
        <time>2022-04-15T13:29:46.120Z</time>
      </trkpt>
      <trkpt lat="50.4301" lon="3.4645">
        <ele>18</ele>
        <time>2022-04-15T13:29:48.880Z</time>
      </trkpt>
      <trkpt lat="50.43005" lon="3.46446">
        <ele>18</ele>
        <time>2022-04-15T13:29:50.081Z</time>
      </trkpt>
      <trkpt lat="50.42998" lon="3.46441">
        <ele>18</ele>
        <time>2022-04-15T13:29:51.517Z</time>
      </trkpt>
      <trkpt lat="50.4299" lon="3.46434">
        <ele>18</ele>
        <time>2022-04-15T13:29:53.980Z</time>
      </trkpt>
      <trkpt lat="50.42984" lon="3.46427">
        <ele>18</ele>
        <time>2022-04-15T13:29:56.000Z</time>
      </trkpt>
      <trkpt lat="50.42978" lon="3.46418">
        <ele>18</ele>
        <time>2022-04-15T13:29:58.638Z</time>
      </trkpt>
      <trkpt lat="50.42972" lon="3.46411">
        <ele>18</ele>
        <time>2022-04-15T13:30:01.079Z</time>
      </trkpt>
      <trkpt lat="50.42967" lon="3.46408">
        <ele>18</ele>
        <time>2022-04-15T13:30:03.057Z</time>
      </trkpt>
      <trkpt lat="50.42962" lon="3.46403">
        <ele>18</ele>
        <time>2022-04-15T13:30:05.000Z</time>
      </trkpt>
      <trkpt lat="50.42959" lon="3.46398">
        <ele>18</ele>
        <time>2022-04-15T13:30:07.262Z</time>
      </trkpt>
      <trkpt lat="50.42954" lon="3.46394">
        <ele>18</ele>
        <time>2022-04-15T13:30:09.039Z</time>
      </trkpt>
      <trkpt lat="50.42949" lon="3.46391">
        <ele>18</ele>
        <time>2022-04-15T13:30:11.161Z</time>
      </trkpt>
      <trkpt lat="50.42941" lon="3.46383">
        <ele>18.1</ele>
        <time>2022-04-15T13:30:13.764Z</time>
      </trkpt>
      <trkpt lat="50.42936" lon="3.46378">
        <ele>18.3</ele>
        <time>2022-04-15T13:30:16.000Z</time>
      </trkpt>
      <trkpt lat="50.42932" lon="3.46373">
        <ele>18.4</ele>
        <time>2022-04-15T13:30:16.978Z</time>
      </trkpt>
      <trkpt lat="50.42925" lon="3.46367">
        <ele>18.7</ele>
        <time>2022-04-15T13:30:19.639Z</time>
      </trkpt>
      <trkpt lat="50.42922" lon="3.4636">
        <ele>18.8</ele>
        <time>2022-04-15T13:30:22.000Z</time>
      </trkpt>
      <trkpt lat="50.42918" lon="3.46354">
        <ele>19</ele>
        <time>2022-04-15T13:30:23.923Z</time>
      </trkpt>
      <trkpt lat="50.42912" lon="3.4635">
        <ele>19</ele>
        <time>2022-04-15T13:30:26.080Z</time>
      </trkpt>
      <trkpt lat="50.42906" lon="3.46345">
        <ele>19</ele>
        <time>2022-04-15T13:30:29.000Z</time>
      </trkpt>
      <trkpt lat="50.42899" lon="3.4634">
        <ele>19</ele>
        <time>2022-04-15T13:30:32.060Z</time>
      </trkpt>
      <trkpt lat="50.42894" lon="3.46334">
        <ele>19</ele>
        <time>2022-04-15T13:30:34.556Z</time>
      </trkpt>
      <trkpt lat="50.4289" lon="3.46329">
        <ele>19</ele>
        <time>2022-04-15T13:30:36.017Z</time>
      </trkpt>
      <trkpt lat="50.42885" lon="3.46324">
        <ele>19</ele>
        <time>2022-04-15T13:30:37.120Z</time>
      </trkpt>
      <trkpt lat="50.4288" lon="3.46317">
        <ele>19</ele>
        <time>2022-04-15T13:30:39.821Z</time>
      </trkpt>
      <trkpt lat="50.42873" lon="3.4631">
        <ele>19</ele>
        <time>2022-04-15T13:30:42.638Z</time>
      </trkpt>
      <trkpt lat="50.42867" lon="3.46305">
        <ele>19</ele>
        <time>2022-04-15T13:30:45.000Z</time>
      </trkpt>
      <trkpt lat="50.42863" lon="3.46301">
        <ele>19</ele>
        <time>2022-04-15T13:30:46.000Z</time>
      </trkpt>
      <trkpt lat="50.42854" lon="3.46292">
        <ele>19</ele>
        <time>2022-04-15T13:30:50.059Z</time>
      </trkpt>
      <trkpt lat="50.42848" lon="3.46284">
        <ele>19</ele>
        <time>2022-04-15T13:30:52.738Z</time>
      </trkpt>
      <trkpt lat="50.42843" lon="3.46281">
        <ele>19</ele>
        <time>2022-04-15T13:30:54.000Z</time>
      </trkpt>
      <trkpt lat="50.42838" lon="3.46275">
        <ele>19</ele>
        <time>2022-04-15T13:30:56.080Z</time>
      </trkpt>
      <trkpt lat="50.42833" lon="3.46268">
        <ele>19</ele>
        <time>2022-04-15T13:30:58.000Z</time>
      </trkpt>
      <trkpt lat="50.42828" lon="3.46264">
        <ele>19</ele>
        <time>2022-04-15T13:31:00.358Z</time>
      </trkpt>
      <trkpt lat="50.42822" lon="3.46259">
        <ele>19</ele>
        <time>2022-04-15T13:31:02.720Z</time>
      </trkpt>
      <trkpt lat="50.42817" lon="3.46255">
        <ele>19</ele>
        <time>2022-04-15T13:31:05.124Z</time>
      </trkpt>
      <trkpt lat="50.42811" lon="3.46249">
        <ele>19</ele>
        <time>2022-04-15T13:31:07.000Z</time>
      </trkpt>
      <trkpt lat="50.42805" lon="3.46246">
        <ele>19</ele>
        <time>2022-04-15T13:31:11.000Z</time>
      </trkpt>
      <trkpt lat="50.42801" lon="3.46241">
        <ele>19</ele>
        <time>2022-04-15T13:31:14.000Z</time>
      </trkpt>
      <trkpt lat="50.42797" lon="3.46239">
        <ele>19</ele>
        <time>2022-04-15T13:31:21.000Z</time>
      </trkpt>
      <trkpt lat="50.42794" lon="3.46233">
        <ele>19</ele>
        <time>2022-04-15T13:31:32.000Z</time>
      </trkpt>
      <trkpt lat="50.4279" lon="3.46226">
        <ele>19</ele>
        <time>2022-04-15T13:31:43.000Z</time>
      </trkpt>
      <trkpt lat="50.42786" lon="3.46224">
        <ele>19</ele>
        <time>2022-04-15T13:31:49.000Z</time>
      </trkpt>
      <trkpt lat="50.42782" lon="3.46221">
        <ele>19</ele>
        <time>2022-04-15T13:31:52.000Z</time>
      </trkpt>
      <trkpt lat="50.42777" lon="3.46218">
        <ele>19</ele>
        <time>2022-04-15T13:31:56.101Z</time>
      </trkpt>
      <trkpt lat="50.42772" lon="3.46215">
        <ele>18.8</ele>
        <time>2022-04-15T13:32:00.000Z</time>
      </trkpt>
      <trkpt lat="50.42769" lon="3.46219">
        <ele>18.7</ele>
        <time>2022-04-15T13:32:09.000Z</time>
      </trkpt>
      <trkpt lat="50.42772" lon="3.46214">
        <ele>18.8</ele>
        <time>2022-04-15T13:32:27.000Z</time>
      </trkpt>
      <trkpt lat="50.42774" lon="3.46205">
        <ele>18.9</ele>
        <time>2022-04-15T13:32:32.000Z</time>
      </trkpt>
      <trkpt lat="50.42772" lon="3.46198">
        <ele>18.8</ele>
        <time>2022-04-15T13:32:39.000Z</time>
      </trkpt>
      <trkpt lat="50.42774" lon="3.46207">
        <ele>18.9</ele>
        <time>2022-04-15T13:32:59.000Z</time>
      </trkpt>
      <trkpt lat="50.42772" lon="3.46215">
        <ele>18.8</ele>
        <time>2022-04-15T13:33:04.000Z</time>
      </trkpt>
      <trkpt lat="50.42772" lon="3.46223">
        <ele>18.8</ele>
        <time>2022-04-15T13:33:07.879Z</time>
      </trkpt>
      <trkpt lat="50.4277" lon="3.46229">
        <ele>18.8</ele>
        <time>2022-04-15T13:33:12.000Z</time>
      </trkpt>
      <trkpt lat="50.42766" lon="3.46234">
        <ele>18.8</ele>
        <time>2022-04-15T13:33:16.000Z</time>
      </trkpt>
      <trkpt lat="50.42764" lon="3.46241">
        <ele>18.8</ele>
        <time>2022-04-15T13:33:22.000Z</time>
      </trkpt>
      <trkpt lat="50.42759" lon="3.4624">
        <ele>18.8</ele>
        <time>2022-04-15T13:33:32.000Z</time>
      </trkpt>
      <trkpt lat="50.42754" lon="3.4624">
        <ele>18.7</ele>
        <time>2022-04-15T13:33:37.976Z</time>
      </trkpt>
      <trkpt lat="50.42751" lon="3.46232">
        <ele>18.4</ele>
        <time>2022-04-15T13:33:42.000Z</time>
      </trkpt>
      <trkpt lat="50.42749" lon="3.46226">
        <ele>18.1</ele>
        <time>2022-04-15T13:33:45.000Z</time>
      </trkpt>
      <trkpt lat="50.42745" lon="3.4622">
        <ele>18</ele>
        <time>2022-04-15T13:33:49.059Z</time>
      </trkpt>
      <trkpt lat="50.42746" lon="3.46211">
        <ele>18</ele>
        <time>2022-04-15T13:33:53.000Z</time>
      </trkpt>
      <trkpt lat="50.42747" lon="3.46203">
        <ele>18</ele>
        <time>2022-04-15T13:33:59.000Z</time>
      </trkpt>
      <trkpt lat="50.42745" lon="3.46197">
        <ele>18</ele>
        <time>2022-04-15T13:34:03.000Z</time>
      </trkpt>
      <trkpt lat="50.42741" lon="3.46194">
        <ele>18</ele>
        <time>2022-04-15T13:34:39.000Z</time>
      </trkpt>
      <trkpt lat="50.42736" lon="3.46196">
        <ele>18</ele>
        <time>2022-04-15T13:34:48.000Z</time>
      </trkpt>
      <trkpt lat="50.42734" lon="3.46189">
        <ele>18</ele>
        <time>2022-04-15T13:35:03.000Z</time>
      </trkpt>
      <trkpt lat="50.4273" lon="3.46185">
        <ele>18</ele>
        <time>2022-04-15T13:35:18.000Z</time>
      </trkpt>
      <trkpt lat="50.42731" lon="3.46178">
        <ele>18</ele>
        <time>2022-04-15T13:35:22.340Z</time>
      </trkpt>
      <trkpt lat="50.42729" lon="3.46171">
        <ele>18</ele>
        <time>2022-04-15T13:35:26.000Z</time>
      </trkpt>
      <trkpt lat="50.42725" lon="3.46167">
        <ele>18</ele>
        <time>2022-04-15T13:35:33.000Z</time>
      </trkpt>
      <trkpt lat="50.42721" lon="3.46161">
        <ele>18</ele>
        <time>2022-04-15T13:35:37.916Z</time>
      </trkpt>
      <trkpt lat="50.42717" lon="3.46156">
        <ele>18</ele>
        <time>2022-04-15T13:35:43.000Z</time>
      </trkpt>
      <trkpt lat="50.42714" lon="3.4615">
        <ele>18</ele>
        <time>2022-04-15T13:35:46.000Z</time>
      </trkpt>
      <trkpt lat="50.42709" lon="3.46147">
        <ele>18</ele>
        <time>2022-04-15T13:35:48.760Z</time>
      </trkpt>
      <trkpt lat="50.42704" lon="3.46144">
        <ele>18</ele>
        <time>2022-04-15T13:35:50.937Z</time>
      </trkpt>
      <trkpt lat="50.427" lon="3.4614">
        <ele>18</ele>
        <time>2022-04-15T13:35:53.000Z</time>
      </trkpt>
      <trkpt lat="50.42696" lon="3.46134">
        <ele>18</ele>
        <time>2022-04-15T13:35:56.000Z</time>
      </trkpt>
      <trkpt lat="50.4269" lon="3.46128">
        <ele>18</ele>
        <time>2022-04-15T13:35:59.461Z</time>
      </trkpt>
      <trkpt lat="50.42686" lon="3.46122">
        <ele>18</ele>
        <time>2022-04-15T13:36:02.097Z</time>
      </trkpt>
      <trkpt lat="50.42681" lon="3.46118">
        <ele>18</ele>
        <time>2022-04-15T13:36:04.000Z</time>
      </trkpt>
      <trkpt lat="50.42676" lon="3.46115">
        <ele>18</ele>
        <time>2022-04-15T13:36:06.122Z</time>
      </trkpt>
      <trkpt lat="50.42672" lon="3.4611">
        <ele>18</ele>
        <time>2022-04-15T13:36:07.922Z</time>
      </trkpt>
      <trkpt lat="50.42667" lon="3.46105">
        <ele>18</ele>
        <time>2022-04-15T13:36:10.000Z</time>
      </trkpt>
      <trkpt lat="50.42663" lon="3.46101">
        <ele>18</ele>
        <time>2022-04-15T13:36:12.000Z</time>
      </trkpt>
      <trkpt lat="50.42658" lon="3.46095">
        <ele>18</ele>
        <time>2022-04-15T13:36:14.000Z</time>
      </trkpt>
      <trkpt lat="50.42652" lon="3.4609">
        <ele>18</ele>
        <time>2022-04-15T13:36:17.478Z</time>
      </trkpt>
      <trkpt lat="50.42648" lon="3.46085">
        <ele>18</ele>
        <time>2022-04-15T13:36:19.879Z</time>
      </trkpt>
      <trkpt lat="50.42643" lon="3.46078">
        <ele>18</ele>
        <time>2022-04-15T13:36:23.581Z</time>
      </trkpt>
      <trkpt lat="50.42636" lon="3.46074">
        <ele>18</ele>
        <time>2022-04-15T13:36:27.000Z</time>
      </trkpt>
      <trkpt lat="50.42631" lon="3.46069">
        <ele>18.1</ele>
        <time>2022-04-15T13:36:30.000Z</time>
      </trkpt>
      <trkpt lat="50.42627" lon="3.46065">
        <ele>18.3</ele>
        <time>2022-04-15T13:36:32.254Z</time>
      </trkpt>
      <trkpt lat="50.42622" lon="3.46058">
        <ele>18.6</ele>
        <time>2022-04-15T13:36:35.000Z</time>
      </trkpt>
      <trkpt lat="50.42618" lon="3.46053">
        <ele>18.8</ele>
        <time>2022-04-15T13:36:37.000Z</time>
      </trkpt>
      <trkpt lat="50.42614" lon="3.4605">
        <ele>18.9</ele>
        <time>2022-04-15T13:36:39.000Z</time>
      </trkpt>
      <trkpt lat="50.42609" lon="3.46047">
        <ele>19.1</ele>
        <time>2022-04-15T13:36:42.000Z</time>
      </trkpt>
      <trkpt lat="50.42605" lon="3.46041">
        <ele>19.2</ele>
        <time>2022-04-15T13:36:44.000Z</time>
      </trkpt>
      <trkpt lat="50.42605" lon="3.46032">
        <ele>19.2</ele>
        <time>2022-04-15T13:36:55.000Z</time>
      </trkpt>
      <trkpt lat="50.42607" lon="3.46025">
        <ele>19.2</ele>
        <time>2022-04-15T13:36:57.000Z</time>
      </trkpt>
      <trkpt lat="50.42611" lon="3.46014">
        <ele>19</ele>
        <time>2022-04-15T13:36:59.383Z</time>
      </trkpt>
      <trkpt lat="50.42615" lon="3.46006">
        <ele>19</ele>
        <time>2022-04-15T13:37:00.898Z</time>
      </trkpt>
      <trkpt lat="50.42621" lon="3.45991">
        <ele>19.2</ele>
        <time>2022-04-15T13:37:03.118Z</time>
      </trkpt>
      <trkpt lat="50.42625" lon="3.45979">
        <ele>19.4</ele>
        <time>2022-04-15T13:37:04.866Z</time>
      </trkpt>
      <trkpt lat="50.42629" lon="3.45967">
        <ele>19.4</ele>
        <time>2022-04-15T13:37:06.000Z</time>
      </trkpt>
      <trkpt lat="50.42631" lon="3.4596">
        <ele>19.3</ele>
        <time>2022-04-15T13:37:08.059Z</time>
      </trkpt>
      <trkpt lat="50.42635" lon="3.45952">
        <ele>19.1</ele>
        <time>2022-04-15T13:37:09.118Z</time>
      </trkpt>
      <trkpt lat="50.42642" lon="3.45933">
        <ele>19.3</ele>
        <time>2022-04-15T13:37:11.982Z</time>
      </trkpt>
      <trkpt lat="50.42644" lon="3.45927">
        <ele>19.4</ele>
        <time>2022-04-15T13:37:12.937Z</time>
      </trkpt>
      <trkpt lat="50.42647" lon="3.45918">
        <ele>19.7</ele>
        <time>2022-04-15T13:37:14.919Z</time>
      </trkpt>
      <trkpt lat="50.4265" lon="3.45909">
        <ele>19.6</ele>
        <time>2022-04-15T13:37:16.000Z</time>
      </trkpt>
      <trkpt lat="50.42652" lon="3.45902">
        <ele>19.5</ele>
        <time>2022-04-15T13:37:17.000Z</time>
      </trkpt>
      <trkpt lat="50.42655" lon="3.45894">
        <ele>19.4</ele>
        <time>2022-04-15T13:37:18.000Z</time>
      </trkpt>
      <trkpt lat="50.4266" lon="3.4588">
        <ele>19.6</ele>
        <time>2022-04-15T13:37:20.000Z</time>
      </trkpt>
      <trkpt lat="50.42663" lon="3.45868">
        <ele>19.9</ele>
        <time>2022-04-15T13:37:22.000Z</time>
      </trkpt>
      <trkpt lat="50.42667" lon="3.45857">
        <ele>20</ele>
        <time>2022-04-15T13:37:24.000Z</time>
      </trkpt>
      <trkpt lat="50.42674" lon="3.45843">
        <ele>19.6</ele>
        <time>2022-04-15T13:37:26.926Z</time>
      </trkpt>
      <trkpt lat="50.42678" lon="3.45833">
        <ele>19.6</ele>
        <time>2022-04-15T13:37:29.169Z</time>
      </trkpt>
      <trkpt lat="50.42682" lon="3.45824">
        <ele>19.4</ele>
        <time>2022-04-15T13:37:31.009Z</time>
      </trkpt>
      <trkpt lat="50.42685" lon="3.45815">
        <ele>19.3</ele>
        <time>2022-04-15T13:37:32.931Z</time>
      </trkpt>
      <trkpt lat="50.42688" lon="3.45801">
        <ele>19.4</ele>
        <time>2022-04-15T13:37:35.000Z</time>
      </trkpt>
      <trkpt lat="50.42692" lon="3.45792">
        <ele>19.6</ele>
        <time>2022-04-15T13:37:37.000Z</time>
      </trkpt>
      <trkpt lat="50.42696" lon="3.45786">
        <ele>19.6</ele>
        <time>2022-04-15T13:37:38.000Z</time>
      </trkpt>
      <trkpt lat="50.42701" lon="3.45776">
        <ele>19.8</ele>
        <time>2022-04-15T13:37:40.000Z</time>
      </trkpt>
      <trkpt lat="50.42704" lon="3.45769">
        <ele>19.7</ele>
        <time>2022-04-15T13:37:41.107Z</time>
      </trkpt>
      <trkpt lat="50.42707" lon="3.4576">
        <ele>19.5</ele>
        <time>2022-04-15T13:37:42.539Z</time>
      </trkpt>
      <trkpt lat="50.42711" lon="3.45753">
        <ele>19.4</ele>
        <time>2022-04-15T13:37:44.000Z</time>
      </trkpt>
      <trkpt lat="50.42716" lon="3.45744">
        <ele>19.4</ele>
        <time>2022-04-15T13:37:46.000Z</time>
      </trkpt>
      <trkpt lat="50.42721" lon="3.45734">
        <ele>19.6</ele>
        <time>2022-04-15T13:37:48.000Z</time>
      </trkpt>
      <trkpt lat="50.42727" lon="3.45723">
        <ele>19.8</ele>
        <time>2022-04-15T13:37:50.108Z</time>
      </trkpt>
      <trkpt lat="50.42731" lon="3.45717">
        <ele>19.7</ele>
        <time>2022-04-15T13:37:51.523Z</time>
      </trkpt>
      <trkpt lat="50.42735" lon="3.45711">
        <ele>19.5</ele>
        <time>2022-04-15T13:37:52.948Z</time>
      </trkpt>
      <trkpt lat="50.4274" lon="3.45702">
        <ele>19.4</ele>
        <time>2022-04-15T13:37:55.028Z</time>
      </trkpt>
      <trkpt lat="50.42747" lon="3.45693">
        <ele>19.2</ele>
        <time>2022-04-15T13:37:57.152Z</time>
      </trkpt>
      <trkpt lat="50.42755" lon="3.45685">
        <ele>19.3</ele>
        <time>2022-04-15T13:37:59.000Z</time>
      </trkpt>
      <trkpt lat="50.42764" lon="3.45676">
        <ele>19.3</ele>
        <time>2022-04-15T13:38:01.000Z</time>
      </trkpt>
      <trkpt lat="50.42769" lon="3.45672">
        <ele>19.3</ele>
        <time>2022-04-15T13:38:02.000Z</time>
      </trkpt>
      <trkpt lat="50.42776" lon="3.45668">
        <ele>19.1</ele>
        <time>2022-04-15T13:38:03.811Z</time>
      </trkpt>
      <trkpt lat="50.42781" lon="3.45664">
        <ele>19.1</ele>
        <time>2022-04-15T13:38:04.829Z</time>
      </trkpt>
      <trkpt lat="50.42788" lon="3.45659">
        <ele>19.3</ele>
        <time>2022-04-15T13:38:07.000Z</time>
      </trkpt>
      <trkpt lat="50.42798" lon="3.45654">
        <ele>19.5</ele>
        <time>2022-04-15T13:38:09.069Z</time>
      </trkpt>
      <trkpt lat="50.42805" lon="3.45648">
        <ele>19.7</ele>
        <time>2022-04-15T13:38:11.000Z</time>
      </trkpt>
      <trkpt lat="50.4281" lon="3.45645">
        <ele>19.6</ele>
        <time>2022-04-15T13:38:12.000Z</time>
      </trkpt>
      <trkpt lat="50.42815" lon="3.45641">
        <ele>19.6</ele>
        <time>2022-04-15T13:38:13.000Z</time>
      </trkpt>
      <trkpt lat="50.4282" lon="3.45638">
        <ele>19.5</ele>
        <time>2022-04-15T13:38:14.000Z</time>
      </trkpt>
      <trkpt lat="50.42825" lon="3.45635">
        <ele>19.4</ele>
        <time>2022-04-15T13:38:15.000Z</time>
      </trkpt>
      <trkpt lat="50.4283" lon="3.45633">
        <ele>19.3</ele>
        <time>2022-04-15T13:38:16.000Z</time>
      </trkpt>
      <trkpt lat="50.42834" lon="3.4563">
        <ele>19.3</ele>
        <time>2022-04-15T13:38:17.000Z</time>
      </trkpt>
      <trkpt lat="50.42843" lon="3.45624">
        <ele>19.2</ele>
        <time>2022-04-15T13:38:19.000Z</time>
      </trkpt>
      <trkpt lat="50.42851" lon="3.45619">
        <ele>19.1</ele>
        <time>2022-04-15T13:38:21.000Z</time>
      </trkpt>
      <trkpt lat="50.42856" lon="3.45615">
        <ele>19</ele>
        <time>2022-04-15T13:38:22.000Z</time>
      </trkpt>
      <trkpt lat="50.42864" lon="3.45611">
        <ele>18.9</ele>
        <time>2022-04-15T13:38:24.000Z</time>
      </trkpt>
      <trkpt lat="50.42868" lon="3.45608">
        <ele>18.8</ele>
        <time>2022-04-15T13:38:25.000Z</time>
      </trkpt>
      <trkpt lat="50.42872" lon="3.45606">
        <ele>18.6</ele>
        <time>2022-04-15T13:38:26.000Z</time>
      </trkpt>
      <trkpt lat="50.42878" lon="3.45602">
        <ele>18.4</ele>
        <time>2022-04-15T13:38:27.000Z</time>
      </trkpt>
      <trkpt lat="50.42883" lon="3.45599">
        <ele>18.2</ele>
        <time>2022-04-15T13:38:28.000Z</time>
      </trkpt>
      <trkpt lat="50.42888" lon="3.45595">
        <ele>18</ele>
        <time>2022-04-15T13:38:29.000Z</time>
      </trkpt>
      <trkpt lat="50.42893" lon="3.45592">
        <ele>18</ele>
        <time>2022-04-15T13:38:30.000Z</time>
      </trkpt>
      <trkpt lat="50.42897" lon="3.4559">
        <ele>18</ele>
        <time>2022-04-15T13:38:31.000Z</time>
      </trkpt>
      <trkpt lat="50.42906" lon="3.45584">
        <ele>18</ele>
        <time>2022-04-15T13:38:33.000Z</time>
      </trkpt>
      <trkpt lat="50.42914" lon="3.45579">
        <ele>18</ele>
        <time>2022-04-15T13:38:35.000Z</time>
      </trkpt>
      <trkpt lat="50.42923" lon="3.45572">
        <ele>18</ele>
        <time>2022-04-15T13:38:37.000Z</time>
      </trkpt>
      <trkpt lat="50.4293" lon="3.45568">
        <ele>18</ele>
        <time>2022-04-15T13:38:39.000Z</time>
      </trkpt>
      <trkpt lat="50.42938" lon="3.45563">
        <ele>18</ele>
        <time>2022-04-15T13:38:41.000Z</time>
      </trkpt>
      <trkpt lat="50.42944" lon="3.45559">
        <ele>18</ele>
        <time>2022-04-15T13:38:43.000Z</time>
      </trkpt>
      <trkpt lat="50.42948" lon="3.45556">
        <ele>17.9</ele>
        <time>2022-04-15T13:38:44.000Z</time>
      </trkpt>
      <trkpt lat="50.42954" lon="3.45551">
        <ele>17.5</ele>
        <time>2022-04-15T13:38:45.000Z</time>
      </trkpt>
      <trkpt lat="50.42961" lon="3.45545">
        <ele>17.3</ele>
        <time>2022-04-15T13:38:47.000Z</time>
      </trkpt>
      <trkpt lat="50.42971" lon="3.45533">
        <ele>17</ele>
        <time>2022-04-15T13:38:50.000Z</time>
      </trkpt>
      <trkpt lat="50.42978" lon="3.45533">
        <ele>17</ele>
        <time>2022-04-15T13:38:51.000Z</time>
      </trkpt>
      <trkpt lat="50.42986" lon="3.45528">
        <ele>17</ele>
        <time>2022-04-15T13:38:53.023Z</time>
      </trkpt>
      <trkpt lat="50.42991" lon="3.45525">
        <ele>17</ele>
        <time>2022-04-15T13:38:54.000Z</time>
      </trkpt>
      <trkpt lat="50.43001" lon="3.45517">
        <ele>17</ele>
        <time>2022-04-15T13:38:56.000Z</time>
      </trkpt>
      <trkpt lat="50.43008" lon="3.45514">
        <ele>17</ele>
        <time>2022-04-15T13:38:58.000Z</time>
      </trkpt>
      <trkpt lat="50.43015" lon="3.4551">
        <ele>17</ele>
        <time>2022-04-15T13:39:00.000Z</time>
      </trkpt>
      <trkpt lat="50.43021" lon="3.45509">
        <ele>17</ele>
        <time>2022-04-15T13:39:02.000Z</time>
      </trkpt>
      <trkpt lat="50.43028" lon="3.45505">
        <ele>17</ele>
        <time>2022-04-15T13:39:04.107Z</time>
      </trkpt>
      <trkpt lat="50.43032" lon="3.45503">
        <ele>17.2</ele>
        <time>2022-04-15T13:39:05.465Z</time>
      </trkpt>
      <trkpt lat="50.43037" lon="3.45501">
        <ele>17.3</ele>
        <time>2022-04-15T13:39:07.000Z</time>
      </trkpt>
      <trkpt lat="50.43043" lon="3.45498">
        <ele>17.5</ele>
        <time>2022-04-15T13:39:08.927Z</time>
      </trkpt>
      <trkpt lat="50.4305" lon="3.45494">
        <ele>17.8</ele>
        <time>2022-04-15T13:39:11.000Z</time>
      </trkpt>
      <trkpt lat="50.43057" lon="3.45488">
        <ele>18</ele>
        <time>2022-04-15T13:39:13.000Z</time>
      </trkpt>
      <trkpt lat="50.43065" lon="3.45482">
        <ele>18</ele>
        <time>2022-04-15T13:39:15.000Z</time>
      </trkpt>
      <trkpt lat="50.43073" lon="3.45476">
        <ele>18</ele>
        <time>2022-04-15T13:39:17.000Z</time>
      </trkpt>
      <trkpt lat="50.4308" lon="3.45471">
        <ele>18</ele>
        <time>2022-04-15T13:39:19.000Z</time>
      </trkpt>
      <trkpt lat="50.43091" lon="3.45464">
        <ele>18</ele>
        <time>2022-04-15T13:39:22.000Z</time>
      </trkpt>
      <trkpt lat="50.43098" lon="3.4546">
        <ele>18</ele>
        <time>2022-04-15T13:39:23.946Z</time>
      </trkpt>
      <trkpt lat="50.43103" lon="3.45456">
        <ele>18</ele>
        <time>2022-04-15T13:39:25.000Z</time>
      </trkpt>
      <trkpt lat="50.43111" lon="3.4545">
        <ele>18</ele>
        <time>2022-04-15T13:39:27.000Z</time>
      </trkpt>
      <trkpt lat="50.4312" lon="3.45446">
        <ele>18</ele>
        <time>2022-04-15T13:39:30.000Z</time>
      </trkpt>
      <trkpt lat="50.43125" lon="3.45443">
        <ele>18</ele>
        <time>2022-04-15T13:39:32.000Z</time>
      </trkpt>
      <trkpt lat="50.43132" lon="3.45438">
        <ele>18</ele>
        <time>2022-04-15T13:39:34.000Z</time>
      </trkpt>
      <trkpt lat="50.4314" lon="3.45432">
        <ele>18</ele>
        <time>2022-04-15T13:39:36.000Z</time>
      </trkpt>
      <trkpt lat="50.43147" lon="3.45428">
        <ele>18</ele>
        <time>2022-04-15T13:39:38.000Z</time>
      </trkpt>
      <trkpt lat="50.43155" lon="3.45425">
        <ele>18</ele>
        <time>2022-04-15T13:39:40.000Z</time>
      </trkpt>
      <trkpt lat="50.43161" lon="3.45421">
        <ele>18</ele>
        <time>2022-04-15T13:39:42.000Z</time>
      </trkpt>
      <trkpt lat="50.43166" lon="3.45418">
        <ele>18</ele>
        <time>2022-04-15T13:39:43.000Z</time>
      </trkpt>
      <trkpt lat="50.43175" lon="3.45414">
        <ele>17.7</ele>
        <time>2022-04-15T13:39:45.000Z</time>
      </trkpt>
      <trkpt lat="50.43185" lon="3.45406">
        <ele>17.3</ele>
        <time>2022-04-15T13:39:47.767Z</time>
      </trkpt>
      <trkpt lat="50.43193" lon="3.45399">
        <ele>17.1</ele>
        <time>2022-04-15T13:39:50.000Z</time>
      </trkpt>
      <trkpt lat="50.43197" lon="3.45396">
        <ele>17</ele>
        <time>2022-04-15T13:39:51.000Z</time>
      </trkpt>
      <trkpt lat="50.43203" lon="3.45392">
        <ele>17</ele>
        <time>2022-04-15T13:39:53.000Z</time>
      </trkpt>
      <trkpt lat="50.43207" lon="3.45388">
        <ele>17</ele>
        <time>2022-04-15T13:39:54.000Z</time>
      </trkpt>
      <trkpt lat="50.43213" lon="3.45384">
        <ele>17</ele>
        <time>2022-04-15T13:39:56.000Z</time>
      </trkpt>
      <trkpt lat="50.43219" lon="3.45381">
        <ele>17</ele>
        <time>2022-04-15T13:39:58.000Z</time>
      </trkpt>
      <trkpt lat="50.43224" lon="3.45378">
        <ele>17</ele>
        <time>2022-04-15T13:39:59.000Z</time>
      </trkpt>
      <trkpt lat="50.43229" lon="3.45374">
        <ele>17</ele>
        <time>2022-04-15T13:40:01.000Z</time>
      </trkpt>
      <trkpt lat="50.43234" lon="3.4537">
        <ele>17</ele>
        <time>2022-04-15T13:40:02.000Z</time>
      </trkpt>
      <trkpt lat="50.43241" lon="3.45367">
        <ele>17</ele>
        <time>2022-04-15T13:40:04.052Z</time>
      </trkpt>
      <trkpt lat="50.43247" lon="3.45362">
        <ele>17</ele>
        <time>2022-04-15T13:40:05.384Z</time>
      </trkpt>
      <trkpt lat="50.43254" lon="3.45358">
        <ele>17</ele>
        <time>2022-04-15T13:40:07.000Z</time>
      </trkpt>
      <trkpt lat="50.4326" lon="3.45354">
        <ele>17</ele>
        <time>2022-04-15T13:40:08.000Z</time>
      </trkpt>
      <trkpt lat="50.43264" lon="3.45349">
        <ele>17</ele>
        <time>2022-04-15T13:40:09.000Z</time>
      </trkpt>
      <trkpt lat="50.43271" lon="3.45334">
        <ele>17</ele>
        <time>2022-04-15T13:40:12.000Z</time>
      </trkpt>
      <trkpt lat="50.43275" lon="3.45326">
        <ele>17</ele>
        <time>2022-04-15T13:40:13.000Z</time>
      </trkpt>
      <trkpt lat="50.43278" lon="3.45319">
        <ele>17</ele>
        <time>2022-04-15T13:40:14.000Z</time>
      </trkpt>
      <trkpt lat="50.4328" lon="3.45311">
        <ele>17</ele>
        <time>2022-04-15T13:40:15.000Z</time>
      </trkpt>
      <trkpt lat="50.43283" lon="3.45304">
        <ele>17</ele>
        <time>2022-04-15T13:40:16.000Z</time>
      </trkpt>
      <trkpt lat="50.43286" lon="3.45297">
        <ele>17</ele>
        <time>2022-04-15T13:40:17.000Z</time>
      </trkpt>
      <trkpt lat="50.43288" lon="3.45291">
        <ele>17</ele>
        <time>2022-04-15T13:40:18.000Z</time>
      </trkpt>
      <trkpt lat="50.43292" lon="3.45285">
        <ele>17</ele>
        <time>2022-04-15T13:40:19.000Z</time>
      </trkpt>
      <trkpt lat="50.43295" lon="3.45279">
        <ele>17</ele>
        <time>2022-04-15T13:40:20.000Z</time>
      </trkpt>
      <trkpt lat="50.43297" lon="3.45273">
        <ele>17</ele>
        <time>2022-04-15T13:40:21.000Z</time>
      </trkpt>
      <trkpt lat="50.433" lon="3.45266">
        <ele>17</ele>
        <time>2022-04-15T13:40:22.000Z</time>
      </trkpt>
      <trkpt lat="50.43305" lon="3.45255">
        <ele>17</ele>
        <time>2022-04-15T13:40:24.000Z</time>
      </trkpt>
      <trkpt lat="50.4331" lon="3.45244">
        <ele>17</ele>
        <time>2022-04-15T13:40:26.000Z</time>
      </trkpt>
      <trkpt lat="50.43314" lon="3.45237">
        <ele>17</ele>
        <time>2022-04-15T13:40:27.000Z</time>
      </trkpt>
      <trkpt lat="50.43317" lon="3.45231">
        <ele>17</ele>
        <time>2022-04-15T13:40:28.000Z</time>
      </trkpt>
      <trkpt lat="50.43319" lon="3.45224">
        <ele>17</ele>
        <time>2022-04-15T13:40:29.000Z</time>
      </trkpt>
      <trkpt lat="50.43323" lon="3.45218">
        <ele>17</ele>
        <time>2022-04-15T13:40:30.000Z</time>
      </trkpt>
      <trkpt lat="50.43326" lon="3.45211">
        <ele>17</ele>
        <time>2022-04-15T13:40:31.000Z</time>
      </trkpt>
      <trkpt lat="50.43329" lon="3.45204">
        <ele>17</ele>
        <time>2022-04-15T13:40:32.000Z</time>
      </trkpt>
      <trkpt lat="50.43333" lon="3.45198">
        <ele>17</ele>
        <time>2022-04-15T13:40:33.000Z</time>
      </trkpt>
      <trkpt lat="50.43336" lon="3.45192">
        <ele>17</ele>
        <time>2022-04-15T13:40:34.000Z</time>
      </trkpt>
      <trkpt lat="50.4334" lon="3.45185">
        <ele>17</ele>
        <time>2022-04-15T13:40:35.000Z</time>
      </trkpt>
      <trkpt lat="50.43343" lon="3.45178">
        <ele>17</ele>
        <time>2022-04-15T13:40:36.000Z</time>
      </trkpt>
      <trkpt lat="50.43347" lon="3.45168">
        <ele>17</ele>
        <time>2022-04-15T13:40:38.024Z</time>
      </trkpt>
      <trkpt lat="50.43351" lon="3.45156">
        <ele>17</ele>
        <time>2022-04-15T13:40:39.000Z</time>
      </trkpt>
      <trkpt lat="50.43354" lon="3.45149">
        <ele>17</ele>
        <time>2022-04-15T13:40:40.000Z</time>
      </trkpt>
      <trkpt lat="50.43358" lon="3.45142">
        <ele>17</ele>
        <time>2022-04-15T13:40:41.000Z</time>
      </trkpt>
      <trkpt lat="50.43361" lon="3.45135">
        <ele>17</ele>
        <time>2022-04-15T13:40:42.000Z</time>
      </trkpt>
      <trkpt lat="50.43364" lon="3.45129">
        <ele>17</ele>
        <time>2022-04-15T13:40:43.000Z</time>
      </trkpt>
      <trkpt lat="50.43367" lon="3.45122">
        <ele>17</ele>
        <time>2022-04-15T13:40:44.000Z</time>
      </trkpt>
      <trkpt lat="50.4337" lon="3.45116">
        <ele>17</ele>
        <time>2022-04-15T13:40:45.000Z</time>
      </trkpt>
      <trkpt lat="50.43376" lon="3.45103">
        <ele>17</ele>
        <time>2022-04-15T13:40:47.000Z</time>
      </trkpt>
      <trkpt lat="50.43378" lon="3.45095">
        <ele>17</ele>
        <time>2022-04-15T13:40:48.000Z</time>
      </trkpt>
      <trkpt lat="50.4338" lon="3.45089">
        <ele>17</ele>
        <time>2022-04-15T13:40:49.000Z</time>
      </trkpt>
      <trkpt lat="50.43385" lon="3.45077">
        <ele>17</ele>
        <time>2022-04-15T13:40:51.000Z</time>
      </trkpt>
      <trkpt lat="50.43389" lon="3.45064">
        <ele>17</ele>
        <time>2022-04-15T13:40:53.000Z</time>
      </trkpt>
      <trkpt lat="50.43394" lon="3.45053">
        <ele>17.2</ele>
        <time>2022-04-15T13:40:55.000Z</time>
      </trkpt>
      <trkpt lat="50.43397" lon="3.45044">
        <ele>17.3</ele>
        <time>2022-04-15T13:40:57.000Z</time>
      </trkpt>
      <trkpt lat="50.43401" lon="3.45033">
        <ele>17.4</ele>
        <time>2022-04-15T13:40:59.000Z</time>
      </trkpt>
      <trkpt lat="50.43403" lon="3.45023">
        <ele>17.5</ele>
        <time>2022-04-15T13:41:01.000Z</time>
      </trkpt>
      <trkpt lat="50.43406" lon="3.45015">
        <ele>17.6</ele>
        <time>2022-04-15T13:41:03.000Z</time>
      </trkpt>
      <trkpt lat="50.43409" lon="3.45007">
        <ele>17.7</ele>
        <time>2022-04-15T13:41:05.000Z</time>
      </trkpt>
      <trkpt lat="50.43411" lon="3.44999">
        <ele>17.8</ele>
        <time>2022-04-15T13:41:07.000Z</time>
      </trkpt>
      <trkpt lat="50.43415" lon="3.44987">
        <ele>17.9</ele>
        <time>2022-04-15T13:41:09.942Z</time>
      </trkpt>
      <trkpt lat="50.43417" lon="3.44979">
        <ele>18</ele>
        <time>2022-04-15T13:41:11.929Z</time>
      </trkpt>
      <trkpt lat="50.4342" lon="3.4497">
        <ele>18.1</ele>
        <time>2022-04-15T13:41:14.000Z</time>
      </trkpt>
      <trkpt lat="50.43426" lon="3.44957">
        <ele>18.3</ele>
        <time>2022-04-15T13:41:17.000Z</time>
      </trkpt>
      <trkpt lat="50.4343" lon="3.4495">
        <ele>18.5</ele>
        <time>2022-04-15T13:41:19.000Z</time>
      </trkpt>
      <trkpt lat="50.43434" lon="3.44944">
        <ele>18.6</ele>
        <time>2022-04-15T13:41:20.984Z</time>
      </trkpt>
      <trkpt lat="50.43437" lon="3.44939">
        <ele>18.7</ele>
        <time>2022-04-15T13:41:23.000Z</time>
      </trkpt>
      <trkpt lat="50.43439" lon="3.44931">
        <ele>18.8</ele>
        <time>2022-04-15T13:41:25.000Z</time>
      </trkpt>
      <trkpt lat="50.43436" lon="3.44924">
        <ele>18.7</ele>
        <time>2022-04-15T13:41:27.000Z</time>
      </trkpt>
      <trkpt lat="50.43432" lon="3.44916">
        <ele>18.6</ele>
        <time>2022-04-15T13:41:29.071Z</time>
      </trkpt>
      <trkpt lat="50.43427" lon="3.44908">
        <ele>18.7</ele>
        <time>2022-04-15T13:41:31.000Z</time>
      </trkpt>
      <trkpt lat="50.43423" lon="3.44905">
        <ele>18.6</ele>
        <time>2022-04-15T13:41:32.000Z</time>
      </trkpt>
      <trkpt lat="50.43414" lon="3.44898">
        <ele>18.6</ele>
        <time>2022-04-15T13:41:34.000Z</time>
      </trkpt>
      <trkpt lat="50.4341" lon="3.44894">
        <ele>18.6</ele>
        <time>2022-04-15T13:41:35.000Z</time>
      </trkpt>
      <trkpt lat="50.43403" lon="3.44886">
        <ele>18.5</ele>
        <time>2022-04-15T13:41:36.000Z</time>
      </trkpt>
      <trkpt lat="50.43394" lon="3.44877">
        <ele>18.2</ele>
        <time>2022-04-15T13:41:38.000Z</time>
      </trkpt>
      <trkpt lat="50.43389" lon="3.44872">
        <ele>18</ele>
        <time>2022-04-15T13:41:39.000Z</time>
      </trkpt>
      <trkpt lat="50.43385" lon="3.44866">
        <ele>18</ele>
        <time>2022-04-15T13:41:40.000Z</time>
      </trkpt>
      <trkpt lat="50.4338" lon="3.4486">
        <ele>18</ele>
        <time>2022-04-15T13:41:41.000Z</time>
      </trkpt>
      <trkpt lat="50.43375" lon="3.44855">
        <ele>18.1</ele>
        <time>2022-04-15T13:41:42.000Z</time>
      </trkpt>
      <trkpt lat="50.43365" lon="3.44846">
        <ele>18.1</ele>
        <time>2022-04-15T13:41:44.000Z</time>
      </trkpt>
      <trkpt lat="50.4336" lon="3.44841">
        <ele>18</ele>
        <time>2022-04-15T13:41:45.000Z</time>
      </trkpt>
      <trkpt lat="50.43355" lon="3.44836">
        <ele>18</ele>
        <time>2022-04-15T13:41:46.000Z</time>
      </trkpt>
      <trkpt lat="50.4335" lon="3.44831">
        <ele>18</ele>
        <time>2022-04-15T13:41:47.000Z</time>
      </trkpt>
      <trkpt lat="50.43345" lon="3.44826">
        <ele>18</ele>
        <time>2022-04-15T13:41:48.000Z</time>
      </trkpt>
      <trkpt lat="50.43341" lon="3.44821">
        <ele>18</ele>
        <time>2022-04-15T13:41:49.000Z</time>
      </trkpt>
      <trkpt lat="50.43335" lon="3.44816">
        <ele>18</ele>
        <time>2022-04-15T13:41:50.000Z</time>
      </trkpt>
      <trkpt lat="50.4333" lon="3.44811">
        <ele>17.9</ele>
        <time>2022-04-15T13:41:51.000Z</time>
      </trkpt>
      <trkpt lat="50.43325" lon="3.44806">
        <ele>17.7</ele>
        <time>2022-04-15T13:41:52.000Z</time>
      </trkpt>
      <trkpt lat="50.4332" lon="3.44801">
        <ele>17.6</ele>
        <time>2022-04-15T13:41:53.000Z</time>
      </trkpt>
      <trkpt lat="50.43315" lon="3.44798">
        <ele>17.5</ele>
        <time>2022-04-15T13:41:54.000Z</time>
      </trkpt>
      <trkpt lat="50.4331" lon="3.44795">
        <ele>17.5</ele>
        <time>2022-04-15T13:41:55.000Z</time>
      </trkpt>
      <trkpt lat="50.43304" lon="3.44792">
        <ele>17.5</ele>
        <time>2022-04-15T13:41:56.000Z</time>
      </trkpt>
      <trkpt lat="50.43299" lon="3.44787">
        <ele>17.5</ele>
        <time>2022-04-15T13:41:57.000Z</time>
      </trkpt>
      <trkpt lat="50.43294" lon="3.44782">
        <ele>17.5</ele>
        <time>2022-04-15T13:41:58.000Z</time>
      </trkpt>
      <trkpt lat="50.43289" lon="3.44777">
        <ele>17.4</ele>
        <time>2022-04-15T13:41:59.000Z</time>
      </trkpt>
      <trkpt lat="50.43284" lon="3.44772">
        <ele>17.2</ele>
        <time>2022-04-15T13:42:00.000Z</time>
      </trkpt>
      <trkpt lat="50.43279" lon="3.44768">
        <ele>17</ele>
        <time>2022-04-15T13:42:01.000Z</time>
      </trkpt>
      <trkpt lat="50.43269" lon="3.44758">
        <ele>17</ele>
        <time>2022-04-15T13:42:03.000Z</time>
      </trkpt>
      <trkpt lat="50.43264" lon="3.44753">
        <ele>17</ele>
        <time>2022-04-15T13:42:04.000Z</time>
      </trkpt>
      <trkpt lat="50.43258" lon="3.44748">
        <ele>17</ele>
        <time>2022-04-15T13:42:05.000Z</time>
      </trkpt>
      <trkpt lat="50.43254" lon="3.44743">
        <ele>17</ele>
        <time>2022-04-15T13:42:06.000Z</time>
      </trkpt>
      <trkpt lat="50.43249" lon="3.44738">
        <ele>17</ele>
        <time>2022-04-15T13:42:07.000Z</time>
      </trkpt>
      <trkpt lat="50.43244" lon="3.44733">
        <ele>17</ele>
        <time>2022-04-15T13:42:08.000Z</time>
      </trkpt>
      <trkpt lat="50.43239" lon="3.44728">
        <ele>17</ele>
        <time>2022-04-15T13:42:09.000Z</time>
      </trkpt>
      <trkpt lat="50.43234" lon="3.44723">
        <ele>17</ele>
        <time>2022-04-15T13:42:10.000Z</time>
      </trkpt>
      <trkpt lat="50.43229" lon="3.44718">
        <ele>17</ele>
        <time>2022-04-15T13:42:11.000Z</time>
      </trkpt>
      <trkpt lat="50.43225" lon="3.44713">
        <ele>17</ele>
        <time>2022-04-15T13:42:12.000Z</time>
      </trkpt>
      <trkpt lat="50.43219" lon="3.44709">
        <ele>17</ele>
        <time>2022-04-15T13:42:13.000Z</time>
      </trkpt>
      <trkpt lat="50.43214" lon="3.44704">
        <ele>17</ele>
        <time>2022-04-15T13:42:14.000Z</time>
      </trkpt>
      <trkpt lat="50.43208" lon="3.44698">
        <ele>17</ele>
        <time>2022-04-15T13:42:15.000Z</time>
      </trkpt>
      <trkpt lat="50.43204" lon="3.44693">
        <ele>17</ele>
        <time>2022-04-15T13:42:16.000Z</time>
      </trkpt>
      <trkpt lat="50.43199" lon="3.44689">
        <ele>17</ele>
        <time>2022-04-15T13:42:17.000Z</time>
      </trkpt>
      <trkpt lat="50.43195" lon="3.44684">
        <ele>17</ele>
        <time>2022-04-15T13:42:18.000Z</time>
      </trkpt>
      <trkpt lat="50.4319" lon="3.44678">
        <ele>17</ele>
        <time>2022-04-15T13:42:19.000Z</time>
      </trkpt>
      <trkpt lat="50.43182" lon="3.4467">
        <ele>17</ele>
        <time>2022-04-15T13:42:21.000Z</time>
      </trkpt>
      <trkpt lat="50.43177" lon="3.44664">
        <ele>17</ele>
        <time>2022-04-15T13:42:22.000Z</time>
      </trkpt>
      <trkpt lat="50.43172" lon="3.4466">
        <ele>17</ele>
        <time>2022-04-15T13:42:23.000Z</time>
      </trkpt>
      <trkpt lat="50.43168" lon="3.44656">
        <ele>17</ele>
        <time>2022-04-15T13:42:24.000Z</time>
      </trkpt>
      <trkpt lat="50.43163" lon="3.44652">
        <ele>17</ele>
        <time>2022-04-15T13:42:25.000Z</time>
      </trkpt>
      <trkpt lat="50.43158" lon="3.44647">
        <ele>17</ele>
        <time>2022-04-15T13:42:26.000Z</time>
      </trkpt>
      <trkpt lat="50.43149" lon="3.4464">
        <ele>17</ele>
        <time>2022-04-15T13:42:28.000Z</time>
      </trkpt>
      <trkpt lat="50.43145" lon="3.44637">
        <ele>17</ele>
        <time>2022-04-15T13:42:29.000Z</time>
      </trkpt>
      <trkpt lat="50.43141" lon="3.44632">
        <ele>17</ele>
        <time>2022-04-15T13:42:30.000Z</time>
      </trkpt>
      <trkpt lat="50.43135" lon="3.44626">
        <ele>17</ele>
        <time>2022-04-15T13:42:31.000Z</time>
      </trkpt>
      <trkpt lat="50.43131" lon="3.44621">
        <ele>17</ele>
        <time>2022-04-15T13:42:32.000Z</time>
      </trkpt>
      <trkpt lat="50.43127" lon="3.44617">
        <ele>17</ele>
        <time>2022-04-15T13:42:33.000Z</time>
      </trkpt>
      <trkpt lat="50.43123" lon="3.44612">
        <ele>17</ele>
        <time>2022-04-15T13:42:34.000Z</time>
      </trkpt>
      <trkpt lat="50.43117" lon="3.44607">
        <ele>17</ele>
        <time>2022-04-15T13:42:35.000Z</time>
      </trkpt>
      <trkpt lat="50.43113" lon="3.44603">
        <ele>17</ele>
        <time>2022-04-15T13:42:36.000Z</time>
      </trkpt>
      <trkpt lat="50.43108" lon="3.44599">
        <ele>17</ele>
        <time>2022-04-15T13:42:37.000Z</time>
      </trkpt>
      <trkpt lat="50.43103" lon="3.44594">
        <ele>17</ele>
        <time>2022-04-15T13:42:38.000Z</time>
      </trkpt>
      <trkpt lat="50.43098" lon="3.44589">
        <ele>17</ele>
        <time>2022-04-15T13:42:39.000Z</time>
      </trkpt>
      <trkpt lat="50.43093" lon="3.44585">
        <ele>17</ele>
        <time>2022-04-15T13:42:40.000Z</time>
      </trkpt>
      <trkpt lat="50.43088" lon="3.44579">
        <ele>17</ele>
        <time>2022-04-15T13:42:41.000Z</time>
      </trkpt>
      <trkpt lat="50.43083" lon="3.44575">
        <ele>17</ele>
        <time>2022-04-15T13:42:42.000Z</time>
      </trkpt>
      <trkpt lat="50.43079" lon="3.4457">
        <ele>17</ele>
        <time>2022-04-15T13:42:43.000Z</time>
      </trkpt>
      <trkpt lat="50.43073" lon="3.44563">
        <ele>17</ele>
        <time>2022-04-15T13:42:44.000Z</time>
      </trkpt>
      <trkpt lat="50.43069" lon="3.44557">
        <ele>17</ele>
        <time>2022-04-15T13:42:45.000Z</time>
      </trkpt>
      <trkpt lat="50.43059" lon="3.44547">
        <ele>17</ele>
        <time>2022-04-15T13:42:47.000Z</time>
      </trkpt>
      <trkpt lat="50.43053" lon="3.44539">
        <ele>17</ele>
        <time>2022-04-15T13:42:49.000Z</time>
      </trkpt>
      <trkpt lat="50.43047" lon="3.44533">
        <ele>17</ele>
        <time>2022-04-15T13:42:50.000Z</time>
      </trkpt>
      <trkpt lat="50.43043" lon="3.44529">
        <ele>17</ele>
        <time>2022-04-15T13:42:51.000Z</time>
      </trkpt>
      <trkpt lat="50.43035" lon="3.4452">
        <ele>17</ele>
        <time>2022-04-15T13:42:53.000Z</time>
      </trkpt>
      <trkpt lat="50.4303" lon="3.44514">
        <ele>17</ele>
        <time>2022-04-15T13:42:54.000Z</time>
      </trkpt>
      <trkpt lat="50.43023" lon="3.44507">
        <ele>17</ele>
        <time>2022-04-15T13:42:56.000Z</time>
      </trkpt>
      <trkpt lat="50.43018" lon="3.44502">
        <ele>17</ele>
        <time>2022-04-15T13:42:57.000Z</time>
      </trkpt>
      <trkpt lat="50.43014" lon="3.44498">
        <ele>17</ele>
        <time>2022-04-15T13:42:58.000Z</time>
      </trkpt>
      <trkpt lat="50.43007" lon="3.4449">
        <ele>16.9</ele>
        <time>2022-04-15T13:43:00.000Z</time>
      </trkpt>
      <trkpt lat="50.43001" lon="3.44485">
        <ele>17</ele>
        <time>2022-04-15T13:43:01.000Z</time>
      </trkpt>
      <trkpt lat="50.42995" lon="3.44479">
        <ele>17</ele>
        <time>2022-04-15T13:43:03.000Z</time>
      </trkpt>
      <trkpt lat="50.4299" lon="3.44474">
        <ele>17</ele>
        <time>2022-04-15T13:43:04.000Z</time>
      </trkpt>
      <trkpt lat="50.42983" lon="3.44467">
        <ele>17</ele>
        <time>2022-04-15T13:43:06.000Z</time>
      </trkpt>
      <trkpt lat="50.42979" lon="3.44463">
        <ele>17</ele>
        <time>2022-04-15T13:43:07.000Z</time>
      </trkpt>
      <trkpt lat="50.42973" lon="3.44459">
        <ele>17</ele>
        <time>2022-04-15T13:43:08.000Z</time>
      </trkpt>
      <trkpt lat="50.42968" lon="3.44457">
        <ele>17.1</ele>
        <time>2022-04-15T13:43:09.000Z</time>
      </trkpt>
      <trkpt lat="50.42961" lon="3.44451">
        <ele>17.3</ele>
        <time>2022-04-15T13:43:11.000Z</time>
      </trkpt>
      <trkpt lat="50.42952" lon="3.44442">
        <ele>17.7</ele>
        <time>2022-04-15T13:43:13.000Z</time>
      </trkpt>
      <trkpt lat="50.42944" lon="3.44434">
        <ele>18</ele>
        <time>2022-04-15T13:43:15.000Z</time>
      </trkpt>
      <trkpt lat="50.42938" lon="3.44427">
        <ele>18</ele>
        <time>2022-04-15T13:43:17.000Z</time>
      </trkpt>
      <trkpt lat="50.42934" lon="3.44422">
        <ele>18</ele>
        <time>2022-04-15T13:43:18.000Z</time>
      </trkpt>
      <trkpt lat="50.42929" lon="3.44413">
        <ele>17.9</ele>
        <time>2022-04-15T13:43:20.000Z</time>
      </trkpt>
      <trkpt lat="50.42923" lon="3.444">
        <ele>17.9</ele>
        <time>2022-04-15T13:43:22.000Z</time>
      </trkpt>
      <trkpt lat="50.42921" lon="3.44393">
        <ele>17.9</ele>
        <time>2022-04-15T13:43:23.000Z</time>
      </trkpt>
      <trkpt lat="50.42918" lon="3.44381">
        <ele>18</ele>
        <time>2022-04-15T13:43:25.000Z</time>
      </trkpt>
      <trkpt lat="50.42916" lon="3.44371">
        <ele>18</ele>
        <time>2022-04-15T13:43:27.000Z</time>
      </trkpt>
      <trkpt lat="50.42914" lon="3.44362">
        <ele>18.1</ele>
        <time>2022-04-15T13:43:28.000Z</time>
      </trkpt>
      <trkpt lat="50.42915" lon="3.44349">
        <ele>18.1</ele>
        <time>2022-04-15T13:43:30.000Z</time>
      </trkpt>
      <trkpt lat="50.42914" lon="3.44336">
        <ele>18.1</ele>
        <time>2022-04-15T13:43:32.000Z</time>
      </trkpt>
      <trkpt lat="50.42915" lon="3.4432">
        <ele>18.1</ele>
        <time>2022-04-15T13:43:35.000Z</time>
      </trkpt>
      <trkpt lat="50.42916" lon="3.4431">
        <ele>18</ele>
        <time>2022-04-15T13:43:36.128Z</time>
      </trkpt>
      <trkpt lat="50.42916" lon="3.44298">
        <ele>18</ele>
        <time>2022-04-15T13:43:37.510Z</time>
      </trkpt>
      <trkpt lat="50.42917" lon="3.44289">
        <ele>18</ele>
        <time>2022-04-15T13:43:38.630Z</time>
      </trkpt>
      <trkpt lat="50.42919" lon="3.44274">
        <ele>17.9</ele>
        <time>2022-04-15T13:43:40.000Z</time>
      </trkpt>
      <trkpt lat="50.42921" lon="3.44259">
        <ele>17.9</ele>
        <time>2022-04-15T13:43:42.000Z</time>
      </trkpt>
      <trkpt lat="50.42921" lon="3.44252">
        <ele>18</ele>
        <time>2022-04-15T13:43:43.000Z</time>
      </trkpt>
      <trkpt lat="50.42922" lon="3.44244">
        <ele>18</ele>
        <time>2022-04-15T13:43:44.000Z</time>
      </trkpt>
      <trkpt lat="50.42923" lon="3.44236">
        <ele>18</ele>
        <time>2022-04-15T13:43:45.000Z</time>
      </trkpt>
      <trkpt lat="50.42923" lon="3.44222">
        <ele>18</ele>
        <time>2022-04-15T13:43:47.000Z</time>
      </trkpt>
      <trkpt lat="50.42924" lon="3.44212">
        <ele>18</ele>
        <time>2022-04-15T13:43:48.000Z</time>
      </trkpt>
      <trkpt lat="50.42924" lon="3.44205">
        <ele>18</ele>
        <time>2022-04-15T13:43:49.000Z</time>
      </trkpt>
      <trkpt lat="50.42924" lon="3.44197">
        <ele>18</ele>
        <time>2022-04-15T13:43:50.000Z</time>
      </trkpt>
      <trkpt lat="50.42924" lon="3.44188">
        <ele>17.9</ele>
        <time>2022-04-15T13:43:51.000Z</time>
      </trkpt>
      <trkpt lat="50.42925" lon="3.44178">
        <ele>17.8</ele>
        <time>2022-04-15T13:43:52.000Z</time>
      </trkpt>
      <trkpt lat="50.42926" lon="3.44163">
        <ele>17.6</ele>
        <time>2022-04-15T13:43:54.000Z</time>
      </trkpt>
      <trkpt lat="50.42926" lon="3.44155">
        <ele>17.4</ele>
        <time>2022-04-15T13:43:55.000Z</time>
      </trkpt>
      <trkpt lat="50.42926" lon="3.44146">
        <ele>17.2</ele>
        <time>2022-04-15T13:43:56.000Z</time>
      </trkpt>
      <trkpt lat="50.42926" lon="3.44138">
        <ele>17</ele>
        <time>2022-04-15T13:43:57.000Z</time>
      </trkpt>
      <trkpt lat="50.42926" lon="3.4413">
        <ele>16.9</ele>
        <time>2022-04-15T13:43:58.000Z</time>
      </trkpt>
      <trkpt lat="50.42927" lon="3.44121">
        <ele>16.8</ele>
        <time>2022-04-15T13:43:59.000Z</time>
      </trkpt>
      <trkpt lat="50.42928" lon="3.44113">
        <ele>16.6</ele>
        <time>2022-04-15T13:44:00.000Z</time>
      </trkpt>
      <trkpt lat="50.42928" lon="3.44105">
        <ele>16.6</ele>
        <time>2022-04-15T13:44:01.000Z</time>
      </trkpt>
      <trkpt lat="50.42929" lon="3.44098">
        <ele>16.6</ele>
        <time>2022-04-15T13:44:02.000Z</time>
      </trkpt>
      <trkpt lat="50.42931" lon="3.4409">
        <ele>16.5</ele>
        <time>2022-04-15T13:44:03.000Z</time>
      </trkpt>
      <trkpt lat="50.42932" lon="3.44081">
        <ele>16.5</ele>
        <time>2022-04-15T13:44:04.000Z</time>
      </trkpt>
      <trkpt lat="50.42933" lon="3.44066">
        <ele>17</ele>
        <time>2022-04-15T13:44:06.000Z</time>
      </trkpt>
      <trkpt lat="50.42936" lon="3.44056">
        <ele>17.3</ele>
        <time>2022-04-15T13:44:08.000Z</time>
      </trkpt>
      <trkpt lat="50.4294" lon="3.44048">
        <ele>17.4</ele>
        <time>2022-04-15T13:44:10.000Z</time>
      </trkpt>
      <trkpt lat="50.42944" lon="3.44042">
        <ele>17.5</ele>
        <time>2022-04-15T13:44:12.000Z</time>
      </trkpt>
      <trkpt lat="50.42949" lon="3.44036">
        <ele>17.5</ele>
        <time>2022-04-15T13:44:14.000Z</time>
      </trkpt>
      <trkpt lat="50.42955" lon="3.4403">
        <ele>17.5</ele>
        <time>2022-04-15T13:44:17.168Z</time>
      </trkpt>
      <trkpt lat="50.42958" lon="3.44026">
        <ele>17.5</ele>
        <time>2022-04-15T13:44:19.000Z</time>
      </trkpt>
      <trkpt lat="50.42953" lon="3.44022">
        <ele>17.8</ele>
        <time>2022-04-15T13:44:22.000Z</time>
      </trkpt>
      <trkpt lat="50.4295" lon="3.44015">
        <ele>17.9</ele>
        <time>2022-04-15T13:44:27.000Z</time>
      </trkpt>
      <trkpt lat="50.42946" lon="3.44013">
        <ele>18</ele>
        <time>2022-04-15T13:44:29.048Z</time>
      </trkpt>
      <trkpt lat="50.42935" lon="3.44011">
        <ele>18.1</ele>
        <time>2022-04-15T13:44:31.405Z</time>
      </trkpt>
      <trkpt lat="50.4293" lon="3.44008">
        <ele>18.1</ele>
        <time>2022-04-15T13:44:32.505Z</time>
      </trkpt>
      <trkpt lat="50.42925" lon="3.43999">
        <ele>18</ele>
        <time>2022-04-15T13:44:33.868Z</time>
      </trkpt>
      <trkpt lat="50.42925" lon="3.43985">
        <ele>18</ele>
        <time>2022-04-15T13:44:36.000Z</time>
      </trkpt>
      <trkpt lat="50.4293" lon="3.43974">
        <ele>18</ele>
        <time>2022-04-15T13:44:37.152Z</time>
      </trkpt>
      <trkpt lat="50.42937" lon="3.43966">
        <ele>17.9</ele>
        <time>2022-04-15T13:44:38.685Z</time>
      </trkpt>
      <trkpt lat="50.42941" lon="3.4396">
        <ele>17.9</ele>
        <time>2022-04-15T13:44:39.673Z</time>
      </trkpt>
      <trkpt lat="50.42947" lon="3.43953">
        <ele>18</ele>
        <time>2022-04-15T13:44:41.167Z</time>
      </trkpt>
      <trkpt lat="50.42955" lon="3.43944">
        <ele>18</ele>
        <time>2022-04-15T13:44:43.000Z</time>
      </trkpt>
      <trkpt lat="50.42961" lon="3.43937">
        <ele>17.8</ele>
        <time>2022-04-15T13:44:45.000Z</time>
      </trkpt>
      <trkpt lat="50.42966" lon="3.4393">
        <ele>17.8</ele>
        <time>2022-04-15T13:44:47.000Z</time>
      </trkpt>
      <trkpt lat="50.42971" lon="3.43922">
        <ele>17.9</ele>
        <time>2022-04-15T13:44:49.165Z</time>
      </trkpt>
      <trkpt lat="50.42976" lon="3.43917">
        <ele>18</ele>
        <time>2022-04-15T13:44:51.745Z</time>
      </trkpt>
      <trkpt lat="50.4298" lon="3.43912">
        <ele>17.9</ele>
        <time>2022-04-15T13:44:54.000Z</time>
      </trkpt>
      <trkpt lat="50.42985" lon="3.43908">
        <ele>17.8</ele>
        <time>2022-04-15T13:44:56.000Z</time>
      </trkpt>
      <trkpt lat="50.42991" lon="3.43901">
        <ele>17.8</ele>
        <time>2022-04-15T13:44:58.000Z</time>
      </trkpt>
      <trkpt lat="50.42997" lon="3.43894">
        <ele>17.9</ele>
        <time>2022-04-15T13:45:00.000Z</time>
      </trkpt>
      <trkpt lat="50.43004" lon="3.43886">
        <ele>18</ele>
        <time>2022-04-15T13:45:02.000Z</time>
      </trkpt>
      <trkpt lat="50.43013" lon="3.43878">
        <ele>18</ele>
        <time>2022-04-15T13:45:04.000Z</time>
      </trkpt>
      <trkpt lat="50.4302" lon="3.4387">
        <ele>18</ele>
        <time>2022-04-15T13:45:06.000Z</time>
      </trkpt>
      <trkpt lat="50.43026" lon="3.43862">
        <ele>18</ele>
        <time>2022-04-15T13:45:08.000Z</time>
      </trkpt>
      <trkpt lat="50.43033" lon="3.43854">
        <ele>18</ele>
        <time>2022-04-15T13:45:10.000Z</time>
      </trkpt>
      <trkpt lat="50.43039" lon="3.43845">
        <ele>18</ele>
        <time>2022-04-15T13:45:12.000Z</time>
      </trkpt>
      <trkpt lat="50.43046" lon="3.43838">
        <ele>18</ele>
        <time>2022-04-15T13:45:14.000Z</time>
      </trkpt>
      <trkpt lat="50.43053" lon="3.43833">
        <ele>18</ele>
        <time>2022-04-15T13:45:16.000Z</time>
      </trkpt>
      <trkpt lat="50.43049" lon="3.43827">
        <ele>18</ele>
        <time>2022-04-15T13:45:34.000Z</time>
      </trkpt>
      <trkpt lat="50.43043" lon="3.43838">
        <ele>18</ele>
        <time>2022-04-15T13:45:37.000Z</time>
      </trkpt>
      <trkpt lat="50.43046" lon="3.43844">
        <ele>18</ele>
        <time>2022-04-15T13:45:41.000Z</time>
      </trkpt>
      <trkpt lat="50.43044" lon="3.4382">
        <ele>18</ele>
        <time>2022-04-15T13:45:51.084Z</time>
      </trkpt>
      <trkpt lat="50.43044" lon="3.43802">
        <ele>17.9</ele>
        <time>2022-04-15T13:45:52.000Z</time>
      </trkpt>
      <trkpt lat="50.43044" lon="3.43793">
        <ele>17.8</ele>
        <time>2022-04-15T13:45:52.910Z</time>
      </trkpt>
      <trkpt lat="50.43044" lon="3.4377">
        <ele>17.6</ele>
        <time>2022-04-15T13:45:54.000Z</time>
      </trkpt>
      <trkpt lat="50.43043" lon="3.43759">
        <ele>17.5</ele>
        <time>2022-04-15T13:45:55.000Z</time>
      </trkpt>
      <trkpt lat="50.43043" lon="3.43748">
        <ele>17.6</ele>
        <time>2022-04-15T13:45:56.000Z</time>
      </trkpt>
      <trkpt lat="50.43042" lon="3.43738">
        <ele>17.7</ele>
        <time>2022-04-15T13:45:57.000Z</time>
      </trkpt>
      <trkpt lat="50.43041" lon="3.43728">
        <ele>17.9</ele>
        <time>2022-04-15T13:45:58.000Z</time>
      </trkpt>
      <trkpt lat="50.4304" lon="3.4372">
        <ele>18</ele>
        <time>2022-04-15T13:45:59.000Z</time>
      </trkpt>
      <trkpt lat="50.43038" lon="3.4371">
        <ele>18</ele>
        <time>2022-04-15T13:46:00.000Z</time>
      </trkpt>
      <trkpt lat="50.43037" lon="3.437">
        <ele>18</ele>
        <time>2022-04-15T13:46:01.000Z</time>
      </trkpt>
      <trkpt lat="50.43036" lon="3.43692">
        <ele>18</ele>
        <time>2022-04-15T13:46:02.000Z</time>
      </trkpt>
      <trkpt lat="50.43034" lon="3.43682">
        <ele>18</ele>
        <time>2022-04-15T13:46:03.000Z</time>
      </trkpt>
      <trkpt lat="50.43032" lon="3.43672">
        <ele>18</ele>
        <time>2022-04-15T13:46:04.000Z</time>
      </trkpt>
      <trkpt lat="50.4303" lon="3.43663">
        <ele>18</ele>
        <time>2022-04-15T13:46:05.000Z</time>
      </trkpt>
      <trkpt lat="50.43028" lon="3.43654">
        <ele>18</ele>
        <time>2022-04-15T13:46:06.000Z</time>
      </trkpt>
      <trkpt lat="50.43026" lon="3.43644">
        <ele>17.9</ele>
        <time>2022-04-15T13:46:07.000Z</time>
      </trkpt>
      <trkpt lat="50.43025" lon="3.43635">
        <ele>17.9</ele>
        <time>2022-04-15T13:46:08.000Z</time>
      </trkpt>
      <trkpt lat="50.43024" lon="3.43626">
        <ele>17.9</ele>
        <time>2022-04-15T13:46:09.000Z</time>
      </trkpt>
      <trkpt lat="50.43024" lon="3.43618">
        <ele>18</ele>
        <time>2022-04-15T13:46:10.000Z</time>
      </trkpt>
      <trkpt lat="50.43024" lon="3.4361">
        <ele>18</ele>
        <time>2022-04-15T13:46:12.000Z</time>
      </trkpt>
      <trkpt lat="50.43026" lon="3.43599">
        <ele>18</ele>
        <time>2022-04-15T13:46:23.000Z</time>
      </trkpt>
      <trkpt lat="50.43026" lon="3.43587">
        <ele>18</ele>
        <time>2022-04-15T13:46:25.000Z</time>
      </trkpt>
      <trkpt lat="50.43028" lon="3.43572">
        <ele>18.4</ele>
        <time>2022-04-15T13:46:27.000Z</time>
      </trkpt>
      <trkpt lat="50.43029" lon="3.43563">
        <ele>18.7</ele>
        <time>2022-04-15T13:46:28.000Z</time>
      </trkpt>
      <trkpt lat="50.43029" lon="3.43554">
        <ele>18.9</ele>
        <time>2022-04-15T13:46:29.000Z</time>
      </trkpt>
      <trkpt lat="50.4303" lon="3.43546">
        <ele>18.7</ele>
        <time>2022-04-15T13:46:30.000Z</time>
      </trkpt>
      <trkpt lat="50.43031" lon="3.43538">
        <ele>18.4</ele>
        <time>2022-04-15T13:46:31.000Z</time>
      </trkpt>
      <trkpt lat="50.43031" lon="3.43528">
        <ele>18.1</ele>
        <time>2022-04-15T13:46:32.000Z</time>
      </trkpt>
      <trkpt lat="50.43031" lon="3.43519">
        <ele>18.1</ele>
        <time>2022-04-15T13:46:33.000Z</time>
      </trkpt>
      <trkpt lat="50.43031" lon="3.4351">
        <ele>18</ele>
        <time>2022-04-15T13:46:34.000Z</time>
      </trkpt>
      <trkpt lat="50.43032" lon="3.43498">
        <ele>18</ele>
        <time>2022-04-15T13:46:35.000Z</time>
      </trkpt>
      <trkpt lat="50.43032" lon="3.43488">
        <ele>18</ele>
        <time>2022-04-15T13:46:36.003Z</time>
      </trkpt>
      <trkpt lat="50.43032" lon="3.43478">
        <ele>18</ele>
        <time>2022-04-15T13:46:37.000Z</time>
      </trkpt>
      <trkpt lat="50.43032" lon="3.43464">
        <ele>17.7</ele>
        <time>2022-04-15T13:46:38.000Z</time>
      </trkpt>
      <trkpt lat="50.43032" lon="3.43455">
        <ele>17.5</ele>
        <time>2022-04-15T13:46:39.000Z</time>
      </trkpt>
      <trkpt lat="50.43032" lon="3.43446">
        <ele>17.2</ele>
        <time>2022-04-15T13:46:40.000Z</time>
      </trkpt>
      <trkpt lat="50.43033" lon="3.43437">
        <ele>17.2</ele>
        <time>2022-04-15T13:46:41.000Z</time>
      </trkpt>
      <trkpt lat="50.43033" lon="3.43426">
        <ele>17.2</ele>
        <time>2022-04-15T13:46:42.000Z</time>
      </trkpt>
      <trkpt lat="50.43034" lon="3.43416">
        <ele>17.2</ele>
        <time>2022-04-15T13:46:43.000Z</time>
      </trkpt>
      <trkpt lat="50.43035" lon="3.434">
        <ele>17.3</ele>
        <time>2022-04-15T13:46:44.000Z</time>
      </trkpt>
      <trkpt lat="50.43035" lon="3.43386">
        <ele>17.2</ele>
        <time>2022-04-15T13:46:46.000Z</time>
      </trkpt>
      <trkpt lat="50.43035" lon="3.43376">
        <ele>17.1</ele>
        <time>2022-04-15T13:46:47.000Z</time>
      </trkpt>
      <trkpt lat="50.43036" lon="3.43367">
        <ele>17.1</ele>
        <time>2022-04-15T13:46:48.000Z</time>
      </trkpt>
      <trkpt lat="50.43036" lon="3.43357">
        <ele>17</ele>
        <time>2022-04-15T13:46:49.000Z</time>
      </trkpt>
      <trkpt lat="50.43036" lon="3.43346">
        <ele>17.2</ele>
        <time>2022-04-15T13:46:50.000Z</time>
      </trkpt>
      <trkpt lat="50.43037" lon="3.43337">
        <ele>17.3</ele>
        <time>2022-04-15T13:46:51.000Z</time>
      </trkpt>
      <trkpt lat="50.43037" lon="3.43329">
        <ele>17.4</ele>
        <time>2022-04-15T13:46:52.000Z</time>
      </trkpt>
      <trkpt lat="50.43038" lon="3.43317">
        <ele>17.7</ele>
        <time>2022-04-15T13:46:53.000Z</time>
      </trkpt>
      <trkpt lat="50.43038" lon="3.43309">
        <ele>17.9</ele>
        <time>2022-04-15T13:46:54.000Z</time>
      </trkpt>
      <trkpt lat="50.43038" lon="3.43299">
        <ele>17.9</ele>
        <time>2022-04-15T13:46:55.000Z</time>
      </trkpt>
      <trkpt lat="50.43038" lon="3.4329">
        <ele>17.6</ele>
        <time>2022-04-15T13:46:56.000Z</time>
      </trkpt>
      <trkpt lat="50.43039" lon="3.43281">
        <ele>17.5</ele>
        <time>2022-04-15T13:46:57.000Z</time>
      </trkpt>
      <trkpt lat="50.43039" lon="3.43272">
        <ele>17.5</ele>
        <time>2022-04-15T13:46:58.000Z</time>
      </trkpt>
      <trkpt lat="50.43039" lon="3.43262">
        <ele>17.7</ele>
        <time>2022-04-15T13:46:59.000Z</time>
      </trkpt>
      <trkpt lat="50.4304" lon="3.43255">
        <ele>17.9</ele>
        <time>2022-04-15T13:47:00.000Z</time>
      </trkpt>
      <trkpt lat="50.43041" lon="3.43247">
        <ele>18</ele>
        <time>2022-04-15T13:47:01.000Z</time>
      </trkpt>
      <trkpt lat="50.43041" lon="3.43237">
        <ele>18</ele>
        <time>2022-04-15T13:47:02.000Z</time>
      </trkpt>
      <trkpt lat="50.43041" lon="3.43229">
        <ele>18</ele>
        <time>2022-04-15T13:47:03.000Z</time>
      </trkpt>
      <trkpt lat="50.43041" lon="3.4322">
        <ele>18</ele>
        <time>2022-04-15T13:47:04.000Z</time>
      </trkpt>
      <trkpt lat="50.43041" lon="3.43211">
        <ele>18</ele>
        <time>2022-04-15T13:47:05.000Z</time>
      </trkpt>
      <trkpt lat="50.43042" lon="3.43203">
        <ele>18</ele>
        <time>2022-04-15T13:47:06.000Z</time>
      </trkpt>
      <trkpt lat="50.43042" lon="3.43194">
        <ele>18</ele>
        <time>2022-04-15T13:47:07.000Z</time>
      </trkpt>
      <trkpt lat="50.43043" lon="3.43184">
        <ele>18</ele>
        <time>2022-04-15T13:47:08.000Z</time>
      </trkpt>
      <trkpt lat="50.43044" lon="3.43176">
        <ele>18</ele>
        <time>2022-04-15T13:47:09.000Z</time>
      </trkpt>
      <trkpt lat="50.43044" lon="3.43166">
        <ele>18</ele>
        <time>2022-04-15T13:47:10.000Z</time>
      </trkpt>
      <trkpt lat="50.43044" lon="3.43157">
        <ele>17.7</ele>
        <time>2022-04-15T13:47:11.000Z</time>
      </trkpt>
      <trkpt lat="50.43044" lon="3.43148">
        <ele>17.3</ele>
        <time>2022-04-15T13:47:12.000Z</time>
      </trkpt>
      <trkpt lat="50.43045" lon="3.43138">
        <ele>17</ele>
        <time>2022-04-15T13:47:13.000Z</time>
      </trkpt>
      <trkpt lat="50.43045" lon="3.43129">
        <ele>17</ele>
        <time>2022-04-15T13:47:14.000Z</time>
      </trkpt>
      <trkpt lat="50.43044" lon="3.4312">
        <ele>17</ele>
        <time>2022-04-15T13:47:15.000Z</time>
      </trkpt>
      <trkpt lat="50.43044" lon="3.43111">
        <ele>17</ele>
        <time>2022-04-15T13:47:16.000Z</time>
      </trkpt>
      <trkpt lat="50.43045" lon="3.43102">
        <ele>17</ele>
        <time>2022-04-15T13:47:17.000Z</time>
      </trkpt>
      <trkpt lat="50.43046" lon="3.43093">
        <ele>17</ele>
        <time>2022-04-15T13:47:18.000Z</time>
      </trkpt>
      <trkpt lat="50.43046" lon="3.43082">
        <ele>17</ele>
        <time>2022-04-15T13:47:19.000Z</time>
      </trkpt>
      <trkpt lat="50.43047" lon="3.43073">
        <ele>17</ele>
        <time>2022-04-15T13:47:20.000Z</time>
      </trkpt>
      <trkpt lat="50.43048" lon="3.43066">
        <ele>17</ele>
        <time>2022-04-15T13:47:21.000Z</time>
      </trkpt>
      <trkpt lat="50.43048" lon="3.43056">
        <ele>17</ele>
        <time>2022-04-15T13:47:22.000Z</time>
      </trkpt>
      <trkpt lat="50.4305" lon="3.43047">
        <ele>17</ele>
        <time>2022-04-15T13:47:23.000Z</time>
      </trkpt>
      <trkpt lat="50.43052" lon="3.43038">
        <ele>17</ele>
        <time>2022-04-15T13:47:24.000Z</time>
      </trkpt>
      <trkpt lat="50.43053" lon="3.43029">
        <ele>17</ele>
        <time>2022-04-15T13:47:25.000Z</time>
      </trkpt>
      <trkpt lat="50.43056" lon="3.43019">
        <ele>17</ele>
        <time>2022-04-15T13:47:26.000Z</time>
      </trkpt>
      <trkpt lat="50.43057" lon="3.43012">
        <ele>17</ele>
        <time>2022-04-15T13:47:27.000Z</time>
      </trkpt>
      <trkpt lat="50.4306" lon="3.43003">
        <ele>17</ele>
        <time>2022-04-15T13:47:28.000Z</time>
      </trkpt>
      <trkpt lat="50.43062" lon="3.42997">
        <ele>17</ele>
        <time>2022-04-15T13:47:29.000Z</time>
      </trkpt>
      <trkpt lat="50.43065" lon="3.4299">
        <ele>17</ele>
        <time>2022-04-15T13:47:30.000Z</time>
      </trkpt>
      <trkpt lat="50.43068" lon="3.42981">
        <ele>17</ele>
        <time>2022-04-15T13:47:31.000Z</time>
      </trkpt>
      <trkpt lat="50.43071" lon="3.42974">
        <ele>17</ele>
        <time>2022-04-15T13:47:32.000Z</time>
      </trkpt>
      <trkpt lat="50.43073" lon="3.42968">
        <ele>17</ele>
        <time>2022-04-15T13:47:33.000Z</time>
      </trkpt>
      <trkpt lat="50.43074" lon="3.42961">
        <ele>17</ele>
        <time>2022-04-15T13:47:34.000Z</time>
      </trkpt>
      <trkpt lat="50.43076" lon="3.42954">
        <ele>17</ele>
        <time>2022-04-15T13:47:35.000Z</time>
      </trkpt>
      <trkpt lat="50.43081" lon="3.42942">
        <ele>17</ele>
        <time>2022-04-15T13:47:37.000Z</time>
      </trkpt>
      <trkpt lat="50.43084" lon="3.42933">
        <ele>17</ele>
        <time>2022-04-15T13:47:38.990Z</time>
      </trkpt>
      <trkpt lat="50.43087" lon="3.42925">
        <ele>17.1</ele>
        <time>2022-04-15T13:47:40.000Z</time>
      </trkpt>
      <trkpt lat="50.43091" lon="3.42914">
        <ele>17.3</ele>
        <time>2022-04-15T13:47:42.000Z</time>
      </trkpt>
      <trkpt lat="50.43094" lon="3.42906">
        <ele>17.4</ele>
        <time>2022-04-15T13:47:43.000Z</time>
      </trkpt>
      <trkpt lat="50.43097" lon="3.42894">
        <ele>17.5</ele>
        <time>2022-04-15T13:47:45.000Z</time>
      </trkpt>
      <trkpt lat="50.431" lon="3.42884">
        <ele>17.5</ele>
        <time>2022-04-15T13:47:47.000Z</time>
      </trkpt>
      <trkpt lat="50.43104" lon="3.42875">
        <ele>17.4</ele>
        <time>2022-04-15T13:47:49.000Z</time>
      </trkpt>
      <trkpt lat="50.43108" lon="3.42866">
        <ele>17.2</ele>
        <time>2022-04-15T13:47:51.000Z</time>
      </trkpt>
      <trkpt lat="50.43111" lon="3.42858">
        <ele>17</ele>
        <time>2022-04-15T13:47:53.000Z</time>
      </trkpt>
      <trkpt lat="50.43114" lon="3.42848">
        <ele>17.1</ele>
        <time>2022-04-15T13:47:55.000Z</time>
      </trkpt>
      <trkpt lat="50.43117" lon="3.4284">
        <ele>17.2</ele>
        <time>2022-04-15T13:47:57.000Z</time>
      </trkpt>
      <trkpt lat="50.43119" lon="3.42832">
        <ele>17.3</ele>
        <time>2022-04-15T13:47:59.000Z</time>
      </trkpt>
      <trkpt lat="50.43121" lon="3.42825">
        <ele>17.4</ele>
        <time>2022-04-15T13:48:01.949Z</time>
      </trkpt>
      <trkpt lat="50.43118" lon="3.42832">
        <ele>17.2</ele>
        <time>2022-04-15T13:48:04.000Z</time>
      </trkpt>
      <trkpt lat="50.43115" lon="3.42841">
        <ele>17.1</ele>
        <time>2022-04-15T13:48:05.902Z</time>
      </trkpt>
      <trkpt lat="50.43112" lon="3.42849">
        <ele>17</ele>
        <time>2022-04-15T13:48:07.000Z</time>
      </trkpt>
      <trkpt lat="50.43109" lon="3.42855">
        <ele>17</ele>
        <time>2022-04-15T13:48:08.000Z</time>
      </trkpt>
      <trkpt lat="50.43105" lon="3.42865">
        <ele>17.1</ele>
        <time>2022-04-15T13:48:10.000Z</time>
      </trkpt>
      <trkpt lat="50.431" lon="3.42875">
        <ele>17.3</ele>
        <time>2022-04-15T13:48:12.000Z</time>
      </trkpt>
      <trkpt lat="50.43095" lon="3.42891">
        <ele>17.4</ele>
        <time>2022-04-15T13:48:15.000Z</time>
      </trkpt>
      <trkpt lat="50.43091" lon="3.42901">
        <ele>17.3</ele>
        <time>2022-04-15T13:48:17.000Z</time>
      </trkpt>
      <trkpt lat="50.43087" lon="3.42912">
        <ele>17.1</ele>
        <time>2022-04-15T13:48:19.000Z</time>
      </trkpt>
      <trkpt lat="50.43083" lon="3.42923">
        <ele>17</ele>
        <time>2022-04-15T13:48:21.000Z</time>
      </trkpt>
      <trkpt lat="50.43079" lon="3.42933">
        <ele>17</ele>
        <time>2022-04-15T13:48:23.000Z</time>
      </trkpt>
      <trkpt lat="50.43076" lon="3.42945">
        <ele>17</ele>
        <time>2022-04-15T13:48:25.000Z</time>
      </trkpt>
      <trkpt lat="50.43073" lon="3.42952">
        <ele>17</ele>
        <time>2022-04-15T13:48:26.000Z</time>
      </trkpt>
      <trkpt lat="50.4307" lon="3.42958">
        <ele>17</ele>
        <time>2022-04-15T13:48:27.000Z</time>
      </trkpt>
      <trkpt lat="50.43066" lon="3.42971">
        <ele>17</ele>
        <time>2022-04-15T13:48:29.000Z</time>
      </trkpt>
      <trkpt lat="50.43064" lon="3.42978">
        <ele>17</ele>
        <time>2022-04-15T13:48:30.000Z</time>
      </trkpt>
      <trkpt lat="50.43059" lon="3.42994">
        <ele>17</ele>
        <time>2022-04-15T13:48:32.000Z</time>
      </trkpt>
      <trkpt lat="50.43057" lon="3.43001">
        <ele>17</ele>
        <time>2022-04-15T13:48:33.000Z</time>
      </trkpt>
      <trkpt lat="50.43055" lon="3.43008">
        <ele>17</ele>
        <time>2022-04-15T13:48:34.000Z</time>
      </trkpt>
      <trkpt lat="50.43052" lon="3.43015">
        <ele>17</ele>
        <time>2022-04-15T13:48:35.000Z</time>
      </trkpt>
      <trkpt lat="50.4305" lon="3.43024">
        <ele>17</ele>
        <time>2022-04-15T13:48:36.000Z</time>
      </trkpt>
      <trkpt lat="50.43048" lon="3.43031">
        <ele>17</ele>
        <time>2022-04-15T13:48:37.000Z</time>
      </trkpt>
      <trkpt lat="50.43046" lon="3.43038">
        <ele>17</ele>
        <time>2022-04-15T13:48:38.000Z</time>
      </trkpt>
      <trkpt lat="50.43045" lon="3.43046">
        <ele>17</ele>
        <time>2022-04-15T13:48:39.000Z</time>
      </trkpt>
      <trkpt lat="50.43044" lon="3.43053">
        <ele>17</ele>
        <time>2022-04-15T13:48:40.000Z</time>
      </trkpt>
      <trkpt lat="50.43043" lon="3.43061">
        <ele>17</ele>
        <time>2022-04-15T13:48:41.000Z</time>
      </trkpt>
      <trkpt lat="50.43043" lon="3.43068">
        <ele>17</ele>
        <time>2022-04-15T13:48:42.000Z</time>
      </trkpt>
      <trkpt lat="50.43042" lon="3.43076">
        <ele>17</ele>
        <time>2022-04-15T13:48:43.000Z</time>
      </trkpt>
      <trkpt lat="50.43042" lon="3.43084">
        <ele>17</ele>
        <time>2022-04-15T13:48:44.000Z</time>
      </trkpt>
      <trkpt lat="50.43041" lon="3.43095">
        <ele>17</ele>
        <time>2022-04-15T13:48:45.907Z</time>
      </trkpt>
      <trkpt lat="50.43041" lon="3.43106">
        <ele>17</ele>
        <time>2022-04-15T13:48:47.000Z</time>
      </trkpt>
      <trkpt lat="50.4304" lon="3.43114">
        <ele>17</ele>
        <time>2022-04-15T13:48:48.000Z</time>
      </trkpt>
      <trkpt lat="50.4304" lon="3.43121">
        <ele>17</ele>
        <time>2022-04-15T13:48:49.000Z</time>
      </trkpt>
      <trkpt lat="50.4304" lon="3.43129">
        <ele>17</ele>
        <time>2022-04-15T13:48:50.000Z</time>
      </trkpt>
      <trkpt lat="50.4304" lon="3.43136">
        <ele>17</ele>
        <time>2022-04-15T13:48:51.000Z</time>
      </trkpt>
      <trkpt lat="50.4304" lon="3.43143">
        <ele>17.1</ele>
        <time>2022-04-15T13:48:52.000Z</time>
      </trkpt>
      <trkpt lat="50.43039" lon="3.43157">
        <ele>17.7</ele>
        <time>2022-04-15T13:48:54.000Z</time>
      </trkpt>
      <trkpt lat="50.43039" lon="3.43171">
        <ele>18</ele>
        <time>2022-04-15T13:48:56.000Z</time>
      </trkpt>
      <trkpt lat="50.4304" lon="3.43184">
        <ele>18</ele>
        <time>2022-04-15T13:48:58.000Z</time>
      </trkpt>
      <trkpt lat="50.4304" lon="3.43192">
        <ele>18</ele>
        <time>2022-04-15T13:48:59.000Z</time>
      </trkpt>
      <trkpt lat="50.43041" lon="3.43203">
        <ele>18</ele>
        <time>2022-04-15T13:49:01.014Z</time>
      </trkpt>
      <trkpt lat="50.4304" lon="3.43211">
        <ele>18</ele>
        <time>2022-04-15T13:49:02.000Z</time>
      </trkpt>
      <trkpt lat="50.43039" lon="3.43219">
        <ele>18</ele>
        <time>2022-04-15T13:49:03.354Z</time>
      </trkpt>
      <trkpt lat="50.43038" lon="3.43229">
        <ele>18</ele>
        <time>2022-04-15T13:49:04.914Z</time>
      </trkpt>
      <trkpt lat="50.43038" lon="3.43242">
        <ele>18</ele>
        <time>2022-04-15T13:49:07.000Z</time>
      </trkpt>
      <trkpt lat="50.43036" lon="3.43255">
        <ele>17.9</ele>
        <time>2022-04-15T13:49:09.096Z</time>
      </trkpt>
      <trkpt lat="50.43035" lon="3.43269">
        <ele>17.5</ele>
        <time>2022-04-15T13:49:11.000Z</time>
      </trkpt>
      <trkpt lat="50.43035" lon="3.4328">
        <ele>17.3</ele>
        <time>2022-04-15T13:49:12.834Z</time>
      </trkpt>
      <trkpt lat="50.43035" lon="3.43293">
        <ele>17.7</ele>
        <time>2022-04-15T13:49:15.000Z</time>
      </trkpt>
      <trkpt lat="50.43034" lon="3.43306">
        <ele>18</ele>
        <time>2022-04-15T13:49:17.000Z</time>
      </trkpt>
      <trkpt lat="50.43033" lon="3.43319">
        <ele>17.6</ele>
        <time>2022-04-15T13:49:19.000Z</time>
      </trkpt>
      <trkpt lat="50.43033" lon="3.43332">
        <ele>17.2</ele>
        <time>2022-04-15T13:49:21.000Z</time>
      </trkpt>
      <trkpt lat="50.43033" lon="3.43345">
        <ele>17.1</ele>
        <time>2022-04-15T13:49:23.000Z</time>
      </trkpt>
      <trkpt lat="50.43032" lon="3.43358">
        <ele>17</ele>
        <time>2022-04-15T13:49:25.000Z</time>
      </trkpt>
      <trkpt lat="50.43032" lon="3.43366">
        <ele>17</ele>
        <time>2022-04-15T13:49:26.000Z</time>
      </trkpt>
      <trkpt lat="50.43032" lon="3.43379">
        <ele>17.1</ele>
        <time>2022-04-15T13:49:28.000Z</time>
      </trkpt>
      <trkpt lat="50.43031" lon="3.43392">
        <ele>17.1</ele>
        <time>2022-04-15T13:49:30.000Z</time>
      </trkpt>
      <trkpt lat="50.43031" lon="3.43406">
        <ele>17.1</ele>
        <time>2022-04-15T13:49:32.000Z</time>
      </trkpt>
      <trkpt lat="50.4303" lon="3.43419">
        <ele>17.1</ele>
        <time>2022-04-15T13:49:34.000Z</time>
      </trkpt>
      <trkpt lat="50.4303" lon="3.43432">
        <ele>17.1</ele>
        <time>2022-04-15T13:49:36.000Z</time>
      </trkpt>
      <trkpt lat="50.4303" lon="3.4344">
        <ele>17.1</ele>
        <time>2022-04-15T13:49:37.000Z</time>
      </trkpt>
      <trkpt lat="50.4303" lon="3.43451">
        <ele>17.3</ele>
        <time>2022-04-15T13:49:39.000Z</time>
      </trkpt>
      <trkpt lat="50.4303" lon="3.43463">
        <ele>17.7</ele>
        <time>2022-04-15T13:49:41.000Z</time>
      </trkpt>
      <trkpt lat="50.43029" lon="3.43471">
        <ele>18</ele>
        <time>2022-04-15T13:49:42.000Z</time>
      </trkpt>
      <trkpt lat="50.43029" lon="3.43479">
        <ele>18</ele>
        <time>2022-04-15T13:49:43.000Z</time>
      </trkpt>
      <trkpt lat="50.43028" lon="3.43489">
        <ele>18</ele>
        <time>2022-04-15T13:49:44.000Z</time>
      </trkpt>
      <trkpt lat="50.43027" lon="3.43502">
        <ele>18</ele>
        <time>2022-04-15T13:49:46.000Z</time>
      </trkpt>
      <trkpt lat="50.43027" lon="3.43509">
        <ele>18</ele>
        <time>2022-04-15T13:49:47.000Z</time>
      </trkpt>
      <trkpt lat="50.43027" lon="3.43522">
        <ele>18</ele>
        <time>2022-04-15T13:49:49.000Z</time>
      </trkpt>
      <trkpt lat="50.43024" lon="3.43528">
        <ele>17.9</ele>
        <time>2022-04-15T13:49:50.194Z</time>
      </trkpt>
      <trkpt lat="50.43024" lon="3.43538">
        <ele>18.2</ele>
        <time>2022-04-15T13:49:51.792Z</time>
      </trkpt>
      <trkpt lat="50.43023" lon="3.43545">
        <ele>18.3</ele>
        <time>2022-04-15T13:49:53.000Z</time>
      </trkpt>
      <trkpt lat="50.43019" lon="3.43558">
        <ele>18.3</ele>
        <time>2022-04-15T13:49:55.171Z</time>
      </trkpt>
      <trkpt lat="50.43015" lon="3.43566">
        <ele>18</ele>
        <time>2022-04-15T13:49:56.951Z</time>
      </trkpt>
      <trkpt lat="50.4301" lon="3.4357">
        <ele>17.9</ele>
        <time>2022-04-15T13:49:58.093Z</time>
      </trkpt>
      <trkpt lat="50.43003" lon="3.43575">
        <ele>17.8</ele>
        <time>2022-04-15T13:50:00.476Z</time>
      </trkpt>
      <trkpt lat="50.43009" lon="3.43572">
        <ele>17.9</ele>
        <time>2022-04-15T13:50:09.927Z</time>
      </trkpt>
      <trkpt lat="50.43012" lon="3.43564">
        <ele>17.9</ele>
        <time>2022-04-15T13:50:11.000Z</time>
      </trkpt>
      <trkpt lat="50.43017" lon="3.43555">
        <ele>18.2</ele>
        <time>2022-04-15T13:50:12.981Z</time>
      </trkpt>
      <trkpt lat="50.43021" lon="3.43548">
        <ele>18.3</ele>
        <time>2022-04-15T13:50:14.912Z</time>
      </trkpt>
      <trkpt lat="50.43027" lon="3.43552">
        <ele>18.8</ele>
        <time>2022-04-15T13:50:17.000Z</time>
      </trkpt>
      <trkpt lat="50.43025" lon="3.43568">
        <ele>18.4</ele>
        <time>2022-04-15T13:50:19.828Z</time>
      </trkpt>
      <trkpt lat="50.43025" lon="3.43576">
        <ele>18.2</ele>
        <time>2022-04-15T13:50:21.000Z</time>
      </trkpt>
      <trkpt lat="50.43023" lon="3.43584">
        <ele>18</ele>
        <time>2022-04-15T13:50:22.000Z</time>
      </trkpt>
      <trkpt lat="50.43022" lon="3.43593">
        <ele>18</ele>
        <time>2022-04-15T13:50:23.000Z</time>
      </trkpt>
      <trkpt lat="50.43021" lon="3.43607">
        <ele>18</ele>
        <time>2022-04-15T13:50:25.000Z</time>
      </trkpt>
      <trkpt lat="50.43022" lon="3.43621">
        <ele>17.9</ele>
        <time>2022-04-15T13:50:27.000Z</time>
      </trkpt>
      <trkpt lat="50.43021" lon="3.43629">
        <ele>17.8</ele>
        <time>2022-04-15T13:50:28.000Z</time>
      </trkpt>
      <trkpt lat="50.43022" lon="3.43636">
        <ele>17.8</ele>
        <time>2022-04-15T13:50:29.000Z</time>
      </trkpt>
      <trkpt lat="50.43023" lon="3.43644">
        <ele>17.8</ele>
        <time>2022-04-15T13:50:30.000Z</time>
      </trkpt>
      <trkpt lat="50.43024" lon="3.43652">
        <ele>17.9</ele>
        <time>2022-04-15T13:50:31.000Z</time>
      </trkpt>
      <trkpt lat="50.43025" lon="3.4366">
        <ele>17.9</ele>
        <time>2022-04-15T13:50:32.000Z</time>
      </trkpt>
      <trkpt lat="50.43028" lon="3.43673">
        <ele>18</ele>
        <time>2022-04-15T13:50:34.000Z</time>
      </trkpt>
      <trkpt lat="50.43029" lon="3.4368">
        <ele>18</ele>
        <time>2022-04-15T13:50:35.000Z</time>
      </trkpt>
      <trkpt lat="50.43031" lon="3.43688">
        <ele>18</ele>
        <time>2022-04-15T13:50:36.000Z</time>
      </trkpt>
      <trkpt lat="50.43032" lon="3.43695">
        <ele>18</ele>
        <time>2022-04-15T13:50:37.000Z</time>
      </trkpt>
      <trkpt lat="50.43034" lon="3.43709">
        <ele>18</ele>
        <time>2022-04-15T13:50:39.000Z</time>
      </trkpt>
      <trkpt lat="50.43036" lon="3.43716">
        <ele>18</ele>
        <time>2022-04-15T13:50:40.000Z</time>
      </trkpt>
      <trkpt lat="50.43038" lon="3.43729">
        <ele>17.8</ele>
        <time>2022-04-15T13:50:42.000Z</time>
      </trkpt>
      <trkpt lat="50.43039" lon="3.43742">
        <ele>17.6</ele>
        <time>2022-04-15T13:50:44.000Z</time>
      </trkpt>
      <trkpt lat="50.4304" lon="3.43754">
        <ele>17.4</ele>
        <time>2022-04-15T13:50:46.000Z</time>
      </trkpt>
      <trkpt lat="50.4304" lon="3.43767">
        <ele>17.4</ele>
        <time>2022-04-15T13:50:48.000Z</time>
      </trkpt>
      <trkpt lat="50.43041" lon="3.43777">
        <ele>17.5</ele>
        <time>2022-04-15T13:50:50.000Z</time>
      </trkpt>
      <trkpt lat="50.43042" lon="3.43785">
        <ele>17.6</ele>
        <time>2022-04-15T13:50:51.000Z</time>
      </trkpt>
      <trkpt lat="50.43042" lon="3.43797">
        <ele>17.8</ele>
        <time>2022-04-15T13:50:53.000Z</time>
      </trkpt>
      <trkpt lat="50.43042" lon="3.43814">
        <ele>18</ele>
        <time>2022-04-15T13:50:56.000Z</time>
      </trkpt>
      <trkpt lat="50.43043" lon="3.43824">
        <ele>18</ele>
        <time>2022-04-15T13:50:58.202Z</time>
      </trkpt>
      <trkpt lat="50.43041" lon="3.43833">
        <ele>18</ele>
        <time>2022-04-15T13:50:59.714Z</time>
      </trkpt>
      <trkpt lat="50.43035" lon="3.43841">
        <ele>18</ele>
        <time>2022-04-15T13:51:02.000Z</time>
      </trkpt>
      <trkpt lat="50.43031" lon="3.43845">
        <ele>18</ele>
        <time>2022-04-15T13:51:03.363Z</time>
      </trkpt>
      <trkpt lat="50.43026" lon="3.43849">
        <ele>18</ele>
        <time>2022-04-15T13:51:04.720Z</time>
      </trkpt>
      <trkpt lat="50.43022" lon="3.43853">
        <ele>18</ele>
        <time>2022-04-15T13:51:06.079Z</time>
      </trkpt>
      <trkpt lat="50.43018" lon="3.43858">
        <ele>18</ele>
        <time>2022-04-15T13:51:07.522Z</time>
      </trkpt>
      <trkpt lat="50.4301" lon="3.43866">
        <ele>18</ele>
        <time>2022-04-15T13:51:10.061Z</time>
      </trkpt>
      <trkpt lat="50.43001" lon="3.43873">
        <ele>18</ele>
        <time>2022-04-15T13:51:12.299Z</time>
      </trkpt>
      <trkpt lat="50.42997" lon="3.43878">
        <ele>17.9</ele>
        <time>2022-04-15T13:51:13.578Z</time>
      </trkpt>
      <trkpt lat="50.42993" lon="3.43883">
        <ele>17.7</ele>
        <time>2022-04-15T13:51:14.882Z</time>
      </trkpt>
      <trkpt lat="50.42989" lon="3.43887">
        <ele>17.6</ele>
        <time>2022-04-15T13:51:16.000Z</time>
      </trkpt>
      <trkpt lat="50.42985" lon="3.4389">
        <ele>17.5</ele>
        <time>2022-04-15T13:51:17.000Z</time>
      </trkpt>
      <trkpt lat="50.42982" lon="3.43895">
        <ele>17.5</ele>
        <time>2022-04-15T13:51:18.120Z</time>
      </trkpt>
      <trkpt lat="50.42975" lon="3.43903">
        <ele>17.6</ele>
        <time>2022-04-15T13:51:19.939Z</time>
      </trkpt>
      <trkpt lat="50.42972" lon="3.43909">
        <ele>17.7</ele>
        <time>2022-04-15T13:51:21.000Z</time>
      </trkpt>
      <trkpt lat="50.4296" lon="3.4392">
        <ele>17.2</ele>
        <time>2022-04-15T13:51:24.000Z</time>
      </trkpt>
      <trkpt lat="50.42956" lon="3.43925">
        <ele>17.2</ele>
        <time>2022-04-15T13:51:25.000Z</time>
      </trkpt>
      <trkpt lat="50.4295" lon="3.43934">
        <ele>17.4</ele>
        <time>2022-04-15T13:51:27.635Z</time>
      </trkpt>
      <trkpt lat="50.42942" lon="3.43942">
        <ele>17.7</ele>
        <time>2022-04-15T13:51:29.000Z</time>
      </trkpt>
      <trkpt lat="50.42938" lon="3.43946">
        <ele>17.6</ele>
        <time>2022-04-15T13:51:30.000Z</time>
      </trkpt>
      <trkpt lat="50.42929" lon="3.43954">
        <ele>17.3</ele>
        <time>2022-04-15T13:51:32.000Z</time>
      </trkpt>
      <trkpt lat="50.42924" lon="3.4396">
        <ele>17.4</ele>
        <time>2022-04-15T13:51:33.000Z</time>
      </trkpt>
      <trkpt lat="50.42917" lon="3.43968">
        <ele>17.7</ele>
        <time>2022-04-15T13:51:35.000Z</time>
      </trkpt>
      <trkpt lat="50.42912" lon="3.43973">
        <ele>17.7</ele>
        <time>2022-04-15T13:51:36.000Z</time>
      </trkpt>
      <trkpt lat="50.42908" lon="3.43978">
        <ele>17.4</ele>
        <time>2022-04-15T13:51:37.000Z</time>
      </trkpt>
      <trkpt lat="50.42903" lon="3.43983">
        <ele>17.2</ele>
        <time>2022-04-15T13:51:38.000Z</time>
      </trkpt>
      <trkpt lat="50.42899" lon="3.43988">
        <ele>17.1</ele>
        <time>2022-04-15T13:51:39.000Z</time>
      </trkpt>
      <trkpt lat="50.42891" lon="3.43996">
        <ele>16.9</ele>
        <time>2022-04-15T13:51:41.000Z</time>
      </trkpt>
      <trkpt lat="50.42886" lon="3.44001">
        <ele>16.9</ele>
        <time>2022-04-15T13:51:42.000Z</time>
      </trkpt>
      <trkpt lat="50.42882" lon="3.44006">
        <ele>17</ele>
        <time>2022-04-15T13:51:43.000Z</time>
      </trkpt>
      <trkpt lat="50.42878" lon="3.4401">
        <ele>17</ele>
        <time>2022-04-15T13:51:44.000Z</time>
      </trkpt>
      <trkpt lat="50.42873" lon="3.44015">
        <ele>17</ele>
        <time>2022-04-15T13:51:45.000Z</time>
      </trkpt>
      <trkpt lat="50.42866" lon="3.44023">
        <ele>17</ele>
        <time>2022-04-15T13:51:47.000Z</time>
      </trkpt>
      <trkpt lat="50.42862" lon="3.44028">
        <ele>17</ele>
        <time>2022-04-15T13:51:48.000Z</time>
      </trkpt>
      <trkpt lat="50.42858" lon="3.44032">
        <ele>17.3</ele>
        <time>2022-04-15T13:51:49.000Z</time>
      </trkpt>
      <trkpt lat="50.42854" lon="3.44037">
        <ele>17.5</ele>
        <time>2022-04-15T13:51:50.000Z</time>
      </trkpt>
      <trkpt lat="50.4285" lon="3.44041">
        <ele>17.6</ele>
        <time>2022-04-15T13:51:51.000Z</time>
      </trkpt>
      <trkpt lat="50.42843" lon="3.4405">
        <ele>17.6</ele>
        <time>2022-04-15T13:51:53.000Z</time>
      </trkpt>
      <trkpt lat="50.42839" lon="3.44054">
        <ele>17.4</ele>
        <time>2022-04-15T13:51:54.000Z</time>
      </trkpt>
      <trkpt lat="50.42834" lon="3.4406">
        <ele>17.4</ele>
        <time>2022-04-15T13:51:55.000Z</time>
      </trkpt>
      <trkpt lat="50.42826" lon="3.44069">
        <ele>17.7</ele>
        <time>2022-04-15T13:51:57.000Z</time>
      </trkpt>
      <trkpt lat="50.4282" lon="3.44077">
        <ele>18.1</ele>
        <time>2022-04-15T13:51:59.000Z</time>
      </trkpt>
      <trkpt lat="50.42813" lon="3.44084">
        <ele>18.3</ele>
        <time>2022-04-15T13:52:01.000Z</time>
      </trkpt>
      <trkpt lat="50.42809" lon="3.44089">
        <ele>18.3</ele>
        <time>2022-04-15T13:52:02.000Z</time>
      </trkpt>
      <trkpt lat="50.42802" lon="3.44097">
        <ele>18.4</ele>
        <time>2022-04-15T13:52:04.000Z</time>
      </trkpt>
      <trkpt lat="50.42795" lon="3.44104">
        <ele>18.4</ele>
        <time>2022-04-15T13:52:06.000Z</time>
      </trkpt>
      <trkpt lat="50.42789" lon="3.4411">
        <ele>18.4</ele>
        <time>2022-04-15T13:52:08.000Z</time>
      </trkpt>
      <trkpt lat="50.42786" lon="3.44115">
        <ele>18.4</ele>
        <time>2022-04-15T13:52:09.000Z</time>
      </trkpt>
      <trkpt lat="50.42779" lon="3.44121">
        <ele>18.4</ele>
        <time>2022-04-15T13:52:11.000Z</time>
      </trkpt>
      <trkpt lat="50.42774" lon="3.44128">
        <ele>18.5</ele>
        <time>2022-04-15T13:52:12.000Z</time>
      </trkpt>
      <trkpt lat="50.42769" lon="3.44134">
        <ele>18.6</ele>
        <time>2022-04-15T13:52:14.000Z</time>
      </trkpt>
      <trkpt lat="50.42762" lon="3.44141">
        <ele>18.5</ele>
        <time>2022-04-15T13:52:16.000Z</time>
      </trkpt>
      <trkpt lat="50.42755" lon="3.44148">
        <ele>18.5</ele>
        <time>2022-04-15T13:52:18.000Z</time>
      </trkpt>
      <trkpt lat="50.4275" lon="3.44153">
        <ele>18.5</ele>
        <time>2022-04-15T13:52:19.000Z</time>
      </trkpt>
      <trkpt lat="50.42743" lon="3.4416">
        <ele>18.8</ele>
        <time>2022-04-15T13:52:21.000Z</time>
      </trkpt>
      <trkpt lat="50.42736" lon="3.44167">
        <ele>19</ele>
        <time>2022-04-15T13:52:23.000Z</time>
      </trkpt>
      <trkpt lat="50.42727" lon="3.44178">
        <ele>19.4</ele>
        <time>2022-04-15T13:52:25.000Z</time>
      </trkpt>
      <trkpt lat="50.42722" lon="3.44182">
        <ele>19.6</ele>
        <time>2022-04-15T13:52:27.000Z</time>
      </trkpt>
      <trkpt lat="50.42715" lon="3.44192">
        <ele>19.9</ele>
        <time>2022-04-15T13:52:29.000Z</time>
      </trkpt>
      <trkpt lat="50.42711" lon="3.44196">
        <ele>20</ele>
        <time>2022-04-15T13:52:30.000Z</time>
      </trkpt>
      <trkpt lat="50.42707" lon="3.442">
        <ele>20</ele>
        <time>2022-04-15T13:52:31.000Z</time>
      </trkpt>
      <trkpt lat="50.42699" lon="3.44209">
        <ele>20</ele>
        <time>2022-04-15T13:52:33.000Z</time>
      </trkpt>
      <trkpt lat="50.42693" lon="3.44218">
        <ele>20</ele>
        <time>2022-04-15T13:52:35.000Z</time>
      </trkpt>
      <trkpt lat="50.42689" lon="3.44222">
        <ele>20</ele>
        <time>2022-04-15T13:52:36.000Z</time>
      </trkpt>
      <trkpt lat="50.42682" lon="3.44229">
        <ele>20</ele>
        <time>2022-04-15T13:52:38.000Z</time>
      </trkpt>
      <trkpt lat="50.42678" lon="3.44234">
        <ele>20</ele>
        <time>2022-04-15T13:52:39.000Z</time>
      </trkpt>
      <trkpt lat="50.42674" lon="3.44238">
        <ele>20</ele>
        <time>2022-04-15T13:52:40.000Z</time>
      </trkpt>
      <trkpt lat="50.42671" lon="3.44242">
        <ele>20</ele>
        <time>2022-04-15T13:52:41.000Z</time>
      </trkpt>
      <trkpt lat="50.42663" lon="3.4425">
        <ele>20.1</ele>
        <time>2022-04-15T13:52:43.000Z</time>
      </trkpt>
      <trkpt lat="50.42659" lon="3.44254">
        <ele>20.2</ele>
        <time>2022-04-15T13:52:44.000Z</time>
      </trkpt>
      <trkpt lat="50.42653" lon="3.4426">
        <ele>20.3</ele>
        <time>2022-04-15T13:52:46.036Z</time>
      </trkpt>
      <trkpt lat="50.42648" lon="3.44266">
        <ele>20.3</ele>
        <time>2022-04-15T13:52:47.000Z</time>
      </trkpt>
      <trkpt lat="50.42644" lon="3.4427">
        <ele>20.2</ele>
        <time>2022-04-15T13:52:48.000Z</time>
      </trkpt>
      <trkpt lat="50.4264" lon="3.44274">
        <ele>20.1</ele>
        <time>2022-04-15T13:52:49.000Z</time>
      </trkpt>
      <trkpt lat="50.42635" lon="3.44279">
        <ele>20.1</ele>
        <time>2022-04-15T13:52:50.000Z</time>
      </trkpt>
      <trkpt lat="50.42632" lon="3.44283">
        <ele>20.2</ele>
        <time>2022-04-15T13:52:51.000Z</time>
      </trkpt>
      <trkpt lat="50.42628" lon="3.44287">
        <ele>20.3</ele>
        <time>2022-04-15T13:52:52.000Z</time>
      </trkpt>
      <trkpt lat="50.42624" lon="3.44292">
        <ele>20.3</ele>
        <time>2022-04-15T13:52:53.000Z</time>
      </trkpt>
      <trkpt lat="50.4262" lon="3.44298">
        <ele>20.2</ele>
        <time>2022-04-15T13:52:54.000Z</time>
      </trkpt>
      <trkpt lat="50.42616" lon="3.44303">
        <ele>20.1</ele>
        <time>2022-04-15T13:52:55.000Z</time>
      </trkpt>
      <trkpt lat="50.42612" lon="3.44306">
        <ele>20</ele>
        <time>2022-04-15T13:52:56.000Z</time>
      </trkpt>
      <trkpt lat="50.42607" lon="3.4431">
        <ele>20</ele>
        <time>2022-04-15T13:52:57.000Z</time>
      </trkpt>
      <trkpt lat="50.42603" lon="3.44313">
        <ele>20</ele>
        <time>2022-04-15T13:52:58.000Z</time>
      </trkpt>
      <trkpt lat="50.42599" lon="3.44318">
        <ele>20</ele>
        <time>2022-04-15T13:52:59.000Z</time>
      </trkpt>
      <trkpt lat="50.42595" lon="3.44323">
        <ele>20</ele>
        <time>2022-04-15T13:53:00.000Z</time>
      </trkpt>
      <trkpt lat="50.42592" lon="3.44327">
        <ele>20</ele>
        <time>2022-04-15T13:53:01.000Z</time>
      </trkpt>
      <trkpt lat="50.42587" lon="3.44332">
        <ele>20</ele>
        <time>2022-04-15T13:53:02.000Z</time>
      </trkpt>
      <trkpt lat="50.42582" lon="3.44337">
        <ele>20</ele>
        <time>2022-04-15T13:53:03.000Z</time>
      </trkpt>
      <trkpt lat="50.42578" lon="3.44343">
        <ele>19.8</ele>
        <time>2022-04-15T13:53:04.000Z</time>
      </trkpt>
      <trkpt lat="50.42574" lon="3.44348">
        <ele>19.7</ele>
        <time>2022-04-15T13:53:05.000Z</time>
      </trkpt>
      <trkpt lat="50.42569" lon="3.44353">
        <ele>19.5</ele>
        <time>2022-04-15T13:53:06.000Z</time>
      </trkpt>
      <trkpt lat="50.42565" lon="3.44358">
        <ele>19.3</ele>
        <time>2022-04-15T13:53:07.000Z</time>
      </trkpt>
      <trkpt lat="50.4256" lon="3.44363">
        <ele>19.2</ele>
        <time>2022-04-15T13:53:08.000Z</time>
      </trkpt>
      <trkpt lat="50.42555" lon="3.44368">
        <ele>19</ele>
        <time>2022-04-15T13:53:09.000Z</time>
      </trkpt>
      <trkpt lat="50.42551" lon="3.44374">
        <ele>19</ele>
        <time>2022-04-15T13:53:10.000Z</time>
      </trkpt>
      <trkpt lat="50.42546" lon="3.44379">
        <ele>19</ele>
        <time>2022-04-15T13:53:11.000Z</time>
      </trkpt>
      <trkpt lat="50.42541" lon="3.44385">
        <ele>19</ele>
        <time>2022-04-15T13:53:12.000Z</time>
      </trkpt>
      <trkpt lat="50.42536" lon="3.44391">
        <ele>19</ele>
        <time>2022-04-15T13:53:13.000Z</time>
      </trkpt>
      <trkpt lat="50.42531" lon="3.44397">
        <ele>19</ele>
        <time>2022-04-15T13:53:14.000Z</time>
      </trkpt>
      <trkpt lat="50.42525" lon="3.44402">
        <ele>18.9</ele>
        <time>2022-04-15T13:53:15.000Z</time>
      </trkpt>
      <trkpt lat="50.42521" lon="3.44407">
        <ele>18.8</ele>
        <time>2022-04-15T13:53:16.000Z</time>
      </trkpt>
      <trkpt lat="50.42515" lon="3.44413">
        <ele>18.5</ele>
        <time>2022-04-15T13:53:17.000Z</time>
      </trkpt>
      <trkpt lat="50.4251" lon="3.44417">
        <ele>18.4</ele>
        <time>2022-04-15T13:53:18.000Z</time>
      </trkpt>
      <trkpt lat="50.42504" lon="3.44423">
        <ele>18.3</ele>
        <time>2022-04-15T13:53:19.000Z</time>
      </trkpt>
      <trkpt lat="50.42499" lon="3.44427">
        <ele>18.4</ele>
        <time>2022-04-15T13:53:20.000Z</time>
      </trkpt>
      <trkpt lat="50.42494" lon="3.4443">
        <ele>18.4</ele>
        <time>2022-04-15T13:53:21.000Z</time>
      </trkpt>
      <trkpt lat="50.42489" lon="3.44428">
        <ele>18.2</ele>
        <time>2022-04-15T13:53:22.000Z</time>
      </trkpt>
      <trkpt lat="50.42483" lon="3.44422">
        <ele>18.1</ele>
        <time>2022-04-15T13:53:23.000Z</time>
      </trkpt>
      <trkpt lat="50.42479" lon="3.44415">
        <ele>18</ele>
        <time>2022-04-15T13:53:24.000Z</time>
      </trkpt>
      <trkpt lat="50.42474" lon="3.4441">
        <ele>18</ele>
        <time>2022-04-15T13:53:25.000Z</time>
      </trkpt>
      <trkpt lat="50.42469" lon="3.44407">
        <ele>18</ele>
        <time>2022-04-15T13:53:26.000Z</time>
      </trkpt>
      <trkpt lat="50.42464" lon="3.44402">
        <ele>18</ele>
        <time>2022-04-15T13:53:27.000Z</time>
      </trkpt>
      <trkpt lat="50.42458" lon="3.44398">
        <ele>18</ele>
        <time>2022-04-15T13:53:28.000Z</time>
      </trkpt>
      <trkpt lat="50.42453" lon="3.44394">
        <ele>18</ele>
        <time>2022-04-15T13:53:29.000Z</time>
      </trkpt>
      <trkpt lat="50.42448" lon="3.4439">
        <ele>18</ele>
        <time>2022-04-15T13:53:30.000Z</time>
      </trkpt>
      <trkpt lat="50.42443" lon="3.44386">
        <ele>18</ele>
        <time>2022-04-15T13:53:31.000Z</time>
      </trkpt>
      <trkpt lat="50.42434" lon="3.44376">
        <ele>18</ele>
        <time>2022-04-15T13:53:33.000Z</time>
      </trkpt>
      <trkpt lat="50.4243" lon="3.44371">
        <ele>18</ele>
        <time>2022-04-15T13:53:34.000Z</time>
      </trkpt>
      <trkpt lat="50.42427" lon="3.44365">
        <ele>18</ele>
        <time>2022-04-15T13:53:35.000Z</time>
      </trkpt>
      <trkpt lat="50.42423" lon="3.4436">
        <ele>18</ele>
        <time>2022-04-15T13:53:36.000Z</time>
      </trkpt>
      <trkpt lat="50.42419" lon="3.44354">
        <ele>18</ele>
        <time>2022-04-15T13:53:37.000Z</time>
      </trkpt>
      <trkpt lat="50.42414" lon="3.44348">
        <ele>18</ele>
        <time>2022-04-15T13:53:38.000Z</time>
      </trkpt>
      <trkpt lat="50.42406" lon="3.4434">
        <ele>18</ele>
        <time>2022-04-15T13:53:40.000Z</time>
      </trkpt>
      <trkpt lat="50.42398" lon="3.44329">
        <ele>17.9</ele>
        <time>2022-04-15T13:53:42.000Z</time>
      </trkpt>
      <trkpt lat="50.42392" lon="3.44322">
        <ele>18</ele>
        <time>2022-04-15T13:53:44.000Z</time>
      </trkpt>
      <trkpt lat="50.42388" lon="3.44318">
        <ele>18</ele>
        <time>2022-04-15T13:53:45.000Z</time>
      </trkpt>
      <trkpt lat="50.42383" lon="3.4431">
        <ele>17.8</ele>
        <time>2022-04-15T13:53:46.000Z</time>
      </trkpt>
      <trkpt lat="50.4238" lon="3.44304">
        <ele>17.6</ele>
        <time>2022-04-15T13:53:47.000Z</time>
      </trkpt>
      <trkpt lat="50.42375" lon="3.44297">
        <ele>17.3</ele>
        <time>2022-04-15T13:53:48.000Z</time>
      </trkpt>
      <trkpt lat="50.42367" lon="3.44286">
        <ele>17.1</ele>
        <time>2022-04-15T13:53:50.000Z</time>
      </trkpt>
      <trkpt lat="50.42363" lon="3.44281">
        <ele>17</ele>
        <time>2022-04-15T13:53:51.000Z</time>
      </trkpt>
      <trkpt lat="50.42359" lon="3.44276">
        <ele>17</ele>
        <time>2022-04-15T13:53:52.000Z</time>
      </trkpt>
      <trkpt lat="50.42354" lon="3.44271">
        <ele>17</ele>
        <time>2022-04-15T13:53:53.000Z</time>
      </trkpt>
      <trkpt lat="50.42349" lon="3.44265">
        <ele>17</ele>
        <time>2022-04-15T13:53:54.000Z</time>
      </trkpt>
      <trkpt lat="50.42346" lon="3.44259">
        <ele>17</ele>
        <time>2022-04-15T13:53:55.000Z</time>
      </trkpt>
      <trkpt lat="50.42342" lon="3.44253">
        <ele>17</ele>
        <time>2022-04-15T13:53:56.000Z</time>
      </trkpt>
      <trkpt lat="50.42337" lon="3.44247">
        <ele>17</ele>
        <time>2022-04-15T13:53:57.000Z</time>
      </trkpt>
      <trkpt lat="50.42333" lon="3.44242">
        <ele>17</ele>
        <time>2022-04-15T13:53:58.000Z</time>
      </trkpt>
      <trkpt lat="50.42329" lon="3.44238">
        <ele>17</ele>
        <time>2022-04-15T13:53:59.000Z</time>
      </trkpt>
      <trkpt lat="50.42325" lon="3.44233">
        <ele>17</ele>
        <time>2022-04-15T13:54:00.000Z</time>
      </trkpt>
      <trkpt lat="50.4232" lon="3.44227">
        <ele>17</ele>
        <time>2022-04-15T13:54:01.000Z</time>
      </trkpt>
      <trkpt lat="50.42313" lon="3.44218">
        <ele>17</ele>
        <time>2022-04-15T13:54:03.000Z</time>
      </trkpt>
      <trkpt lat="50.42308" lon="3.44212">
        <ele>17</ele>
        <time>2022-04-15T13:54:04.000Z</time>
      </trkpt>
      <trkpt lat="50.42304" lon="3.44206">
        <ele>17</ele>
        <time>2022-04-15T13:54:05.000Z</time>
      </trkpt>
      <trkpt lat="50.42301" lon="3.44201">
        <ele>17</ele>
        <time>2022-04-15T13:54:06.000Z</time>
      </trkpt>
      <trkpt lat="50.42296" lon="3.44196">
        <ele>17</ele>
        <time>2022-04-15T13:54:07.000Z</time>
      </trkpt>
      <trkpt lat="50.42289" lon="3.44187">
        <ele>16.9</ele>
        <time>2022-04-15T13:54:09.000Z</time>
      </trkpt>
      <trkpt lat="50.42285" lon="3.44184">
        <ele>16.9</ele>
        <time>2022-04-15T13:54:10.000Z</time>
      </trkpt>
      <trkpt lat="50.42278" lon="3.44177">
        <ele>17</ele>
        <time>2022-04-15T13:54:12.000Z</time>
      </trkpt>
      <trkpt lat="50.42275" lon="3.44172">
        <ele>17</ele>
        <time>2022-04-15T13:54:13.000Z</time>
      </trkpt>
      <trkpt lat="50.4227" lon="3.44164">
        <ele>16.9</ele>
        <time>2022-04-15T13:54:15.000Z</time>
      </trkpt>
      <trkpt lat="50.42265" lon="3.44156">
        <ele>16.8</ele>
        <time>2022-04-15T13:54:16.960Z</time>
      </trkpt>
      <trkpt lat="50.42254" lon="3.44141">
        <ele>16.9</ele>
        <time>2022-04-15T13:54:19.000Z</time>
      </trkpt>
      <trkpt lat="50.42248" lon="3.44135">
        <ele>16.9</ele>
        <time>2022-04-15T13:54:21.000Z</time>
      </trkpt>
      <trkpt lat="50.42241" lon="3.4413">
        <ele>16.8</ele>
        <time>2022-04-15T13:54:22.000Z</time>
      </trkpt>
      <trkpt lat="50.42238" lon="3.44124">
        <ele>16.7</ele>
        <time>2022-04-15T13:54:23.000Z</time>
      </trkpt>
      <trkpt lat="50.42235" lon="3.44119">
        <ele>16.7</ele>
        <time>2022-04-15T13:54:24.000Z</time>
      </trkpt>
      <trkpt lat="50.42227" lon="3.44109">
        <ele>16.8</ele>
        <time>2022-04-15T13:54:26.000Z</time>
      </trkpt>
      <trkpt lat="50.42222" lon="3.44103">
        <ele>17</ele>
        <time>2022-04-15T13:54:28.000Z</time>
      </trkpt>
      <trkpt lat="50.42218" lon="3.44096">
        <ele>17</ele>
        <time>2022-04-15T13:54:29.000Z</time>
      </trkpt>
      <trkpt lat="50.42214" lon="3.44092">
        <ele>17</ele>
        <time>2022-04-15T13:54:30.000Z</time>
      </trkpt>
      <trkpt lat="50.42206" lon="3.44082">
        <ele>17</ele>
        <time>2022-04-15T13:54:32.033Z</time>
      </trkpt>
      <trkpt lat="50.42201" lon="3.44074">
        <ele>16.9</ele>
        <time>2022-04-15T13:54:34.000Z</time>
      </trkpt>
      <trkpt lat="50.42197" lon="3.44068">
        <ele>16.9</ele>
        <time>2022-04-15T13:54:35.000Z</time>
      </trkpt>
      <trkpt lat="50.42192" lon="3.44059">
        <ele>17</ele>
        <time>2022-04-15T13:54:37.597Z</time>
      </trkpt>
      <trkpt lat="50.42185" lon="3.44051">
        <ele>16.9</ele>
        <time>2022-04-15T13:54:39.000Z</time>
      </trkpt>
      <trkpt lat="50.42182" lon="3.44046">
        <ele>16.8</ele>
        <time>2022-04-15T13:54:40.000Z</time>
      </trkpt>
      <trkpt lat="50.42177" lon="3.44041">
        <ele>16.8</ele>
        <time>2022-04-15T13:54:41.612Z</time>
      </trkpt>
      <trkpt lat="50.42171" lon="3.44035">
        <ele>16.9</ele>
        <time>2022-04-15T13:54:43.000Z</time>
      </trkpt>
      <trkpt lat="50.42167" lon="3.44026">
        <ele>16.9</ele>
        <time>2022-04-15T13:54:45.000Z</time>
      </trkpt>
      <trkpt lat="50.42159" lon="3.44016">
        <ele>16.6</ele>
        <time>2022-04-15T13:54:48.000Z</time>
      </trkpt>
      <trkpt lat="50.42154" lon="3.44011">
        <ele>16.4</ele>
        <time>2022-04-15T13:54:50.000Z</time>
      </trkpt>
      <trkpt lat="50.42149" lon="3.44005">
        <ele>16.2</ele>
        <time>2022-04-15T13:54:52.000Z</time>
      </trkpt>
      <trkpt lat="50.42145" lon="3.43999">
        <ele>16</ele>
        <time>2022-04-15T13:54:53.000Z</time>
      </trkpt>
      <trkpt lat="50.4214" lon="3.43994">
        <ele>16</ele>
        <time>2022-04-15T13:54:55.000Z</time>
      </trkpt>
      <trkpt lat="50.42136" lon="3.43989">
        <ele>16</ele>
        <time>2022-04-15T13:54:56.000Z</time>
      </trkpt>
      <trkpt lat="50.42131" lon="3.43981">
        <ele>16</ele>
        <time>2022-04-15T13:54:58.000Z</time>
      </trkpt>
      <trkpt lat="50.42123" lon="3.43975">
        <ele>16</ele>
        <time>2022-04-15T13:55:00.000Z</time>
      </trkpt>
      <trkpt lat="50.42118" lon="3.43979">
        <ele>16</ele>
        <time>2022-04-15T13:55:02.000Z</time>
      </trkpt>
      <trkpt lat="50.42114" lon="3.43989">
        <ele>16</ele>
        <time>2022-04-15T13:55:04.000Z</time>
      </trkpt>
      <trkpt lat="50.42111" lon="3.43997">
        <ele>16</ele>
        <time>2022-04-15T13:55:06.000Z</time>
      </trkpt>
      <trkpt lat="50.42107" lon="3.44004">
        <ele>16.3</ele>
        <time>2022-04-15T13:55:08.000Z</time>
      </trkpt>
      <trkpt lat="50.42101" lon="3.44013">
        <ele>16.7</ele>
        <time>2022-04-15T13:55:10.000Z</time>
      </trkpt>
      <trkpt lat="50.42097" lon="3.44019">
        <ele>16.8</ele>
        <time>2022-04-15T13:55:12.093Z</time>
      </trkpt>
      <trkpt lat="50.42094" lon="3.44025">
        <ele>17</ele>
        <time>2022-04-15T13:55:13.000Z</time>
      </trkpt>
      <trkpt lat="50.42091" lon="3.44031">
        <ele>17</ele>
        <time>2022-04-15T13:55:14.212Z</time>
      </trkpt>
      <trkpt lat="50.42089" lon="3.44039">
        <ele>17</ele>
        <time>2022-04-15T13:55:15.576Z</time>
      </trkpt>
      <trkpt lat="50.42085" lon="3.44047">
        <ele>17</ele>
        <time>2022-04-15T13:55:18.000Z</time>
      </trkpt>
      <trkpt lat="50.42078" lon="3.44055">
        <ele>17</ele>
        <time>2022-04-15T13:55:20.000Z</time>
      </trkpt>
      <trkpt lat="50.42075" lon="3.4406">
        <ele>17.2</ele>
        <time>2022-04-15T13:55:21.000Z</time>
      </trkpt>
      <trkpt lat="50.42073" lon="3.44068">
        <ele>17.4</ele>
        <time>2022-04-15T13:55:23.000Z</time>
      </trkpt>
      <trkpt lat="50.42069" lon="3.44076">
        <ele>17.7</ele>
        <time>2022-04-15T13:55:23.935Z</time>
      </trkpt>
      <trkpt lat="50.42065" lon="3.44082">
        <ele>18</ele>
        <time>2022-04-15T13:55:25.795Z</time>
      </trkpt>
      <trkpt lat="50.42061" lon="3.44089">
        <ele>18</ele>
        <time>2022-04-15T13:55:27.000Z</time>
      </trkpt>
      <trkpt lat="50.42055" lon="3.44101">
        <ele>18</ele>
        <time>2022-04-15T13:55:29.112Z</time>
      </trkpt>
      <trkpt lat="50.4205" lon="3.44114">
        <ele>18</ele>
        <time>2022-04-15T13:55:31.154Z</time>
      </trkpt>
      <trkpt lat="50.42046" lon="3.44119">
        <ele>18</ele>
        <time>2022-04-15T13:55:32.713Z</time>
      </trkpt>
      <trkpt lat="50.42042" lon="3.44124">
        <ele>18</ele>
        <time>2022-04-15T13:55:33.832Z</time>
      </trkpt>
      <trkpt lat="50.42038" lon="3.4413">
        <ele>18</ele>
        <time>2022-04-15T13:55:34.957Z</time>
      </trkpt>
      <trkpt lat="50.42034" lon="3.4414">
        <ele>18</ele>
        <time>2022-04-15T13:55:37.073Z</time>
      </trkpt>
      <trkpt lat="50.42025" lon="3.44157">
        <ele>17.9</ele>
        <time>2022-04-15T13:55:40.094Z</time>
      </trkpt>
      <trkpt lat="50.42022" lon="3.44163">
        <ele>17.8</ele>
        <time>2022-04-15T13:55:41.180Z</time>
      </trkpt>
      <trkpt lat="50.42018" lon="3.44169">
        <ele>17.7</ele>
        <time>2022-04-15T13:55:43.000Z</time>
      </trkpt>
      <trkpt lat="50.42014" lon="3.44177">
        <ele>17.7</ele>
        <time>2022-04-15T13:55:45.000Z</time>
      </trkpt>
      <trkpt lat="50.4201" lon="3.44192">
        <ele>17.9</ele>
        <time>2022-04-15T13:55:48.132Z</time>
      </trkpt>
      <trkpt lat="50.42006" lon="3.44198">
        <ele>18</ele>
        <time>2022-04-15T13:55:49.591Z</time>
      </trkpt>
      <trkpt lat="50.42002" lon="3.44202">
        <ele>18</ele>
        <time>2022-04-15T13:55:50.937Z</time>
      </trkpt>
      <trkpt lat="50.41998" lon="3.44207">
        <ele>17.9</ele>
        <time>2022-04-15T13:55:52.157Z</time>
      </trkpt>
      <trkpt lat="50.41995" lon="3.44215">
        <ele>17.8</ele>
        <time>2022-04-15T13:55:53.334Z</time>
      </trkpt>
      <trkpt lat="50.41989" lon="3.44225">
        <ele>17.5</ele>
        <time>2022-04-15T13:55:55.454Z</time>
      </trkpt>
      <trkpt lat="50.41984" lon="3.44234">
        <ele>17.2</ele>
        <time>2022-04-15T13:55:56.833Z</time>
      </trkpt>
      <trkpt lat="50.41977" lon="3.44245">
        <ele>17</ele>
        <time>2022-04-15T13:55:59.074Z</time>
      </trkpt>
      <trkpt lat="50.41973" lon="3.44253">
        <ele>17.1</ele>
        <time>2022-04-15T13:56:01.237Z</time>
      </trkpt>
      <trkpt lat="50.4197" lon="3.44258">
        <ele>17.3</ele>
        <time>2022-04-15T13:56:02.393Z</time>
      </trkpt>
      <trkpt lat="50.41966" lon="3.44264">
        <ele>17.5</ele>
        <time>2022-04-15T13:56:03.891Z</time>
      </trkpt>
      <trkpt lat="50.41961" lon="3.44275">
        <ele>17.9</ele>
        <time>2022-04-15T13:56:06.000Z</time>
      </trkpt>
      <trkpt lat="50.41956" lon="3.44286">
        <ele>18</ele>
        <time>2022-04-15T13:56:09.000Z</time>
      </trkpt>
      <trkpt lat="50.41952" lon="3.44292">
        <ele>18</ele>
        <time>2022-04-15T13:56:10.937Z</time>
      </trkpt>
      <trkpt lat="50.41947" lon="3.443">
        <ele>18</ele>
        <time>2022-04-15T13:56:12.814Z</time>
      </trkpt>
      <trkpt lat="50.41944" lon="3.44304">
        <ele>18</ele>
        <time>2022-04-15T13:56:14.000Z</time>
      </trkpt>
      <trkpt lat="50.41939" lon="3.44311">
        <ele>18</ele>
        <time>2022-04-15T13:56:16.000Z</time>
      </trkpt>
      <trkpt lat="50.41936" lon="3.44319">
        <ele>18</ele>
        <time>2022-04-15T13:56:18.000Z</time>
      </trkpt>
      <trkpt lat="50.41933" lon="3.44325">
        <ele>18</ele>
        <time>2022-04-15T13:56:20.037Z</time>
      </trkpt>
      <trkpt lat="50.41928" lon="3.44336">
        <ele>18</ele>
        <time>2022-04-15T13:56:23.000Z</time>
      </trkpt>
      <trkpt lat="50.41925" lon="3.44343">
        <ele>18</ele>
        <time>2022-04-15T13:56:25.000Z</time>
      </trkpt>
      <trkpt lat="50.41923" lon="3.4435">
        <ele>18</ele>
        <time>2022-04-15T13:56:26.753Z</time>
      </trkpt>
      <trkpt lat="50.4192" lon="3.44357">
        <ele>18</ele>
        <time>2022-04-15T13:56:28.112Z</time>
      </trkpt>
      <trkpt lat="50.41914" lon="3.44367">
        <ele>18</ele>
        <time>2022-04-15T13:56:30.357Z</time>
      </trkpt>
      <trkpt lat="50.4191" lon="3.44372">
        <ele>18</ele>
        <time>2022-04-15T13:56:31.796Z</time>
      </trkpt>
      <trkpt lat="50.41906" lon="3.44381">
        <ele>18</ele>
        <time>2022-04-15T13:56:34.033Z</time>
      </trkpt>
      <trkpt lat="50.41902" lon="3.44389">
        <ele>18</ele>
        <time>2022-04-15T13:56:35.000Z</time>
      </trkpt>
      <trkpt lat="50.41898" lon="3.44396">
        <ele>18.3</ele>
        <time>2022-04-15T13:56:37.000Z</time>
      </trkpt>
      <trkpt lat="50.41895" lon="3.44404">
        <ele>18.5</ele>
        <time>2022-04-15T13:56:38.170Z</time>
      </trkpt>
      <trkpt lat="50.41887" lon="3.44416">
        <ele>19</ele>
        <time>2022-04-15T13:56:40.712Z</time>
      </trkpt>
      <trkpt lat="50.41882" lon="3.44421">
        <ele>19</ele>
        <time>2022-04-15T13:56:42.000Z</time>
      </trkpt>
      <trkpt lat="50.41875" lon="3.44423">
        <ele>19</ele>
        <time>2022-04-15T13:56:44.155Z</time>
      </trkpt>
      <trkpt lat="50.4187" lon="3.44421">
        <ele>19</ele>
        <time>2022-04-15T13:56:45.736Z</time>
      </trkpt>
      <trkpt lat="50.41864" lon="3.44417">
        <ele>19</ele>
        <time>2022-04-15T13:56:46.855Z</time>
      </trkpt>
      <trkpt lat="50.41854" lon="3.44409">
        <ele>18.7</ele>
        <time>2022-04-15T13:56:50.000Z</time>
      </trkpt>
      <trkpt lat="50.4185" lon="3.44407">
        <ele>18.7</ele>
        <time>2022-04-15T13:56:51.095Z</time>
      </trkpt>
      <trkpt lat="50.41845" lon="3.44405">
        <ele>18.6</ele>
        <time>2022-04-15T13:56:52.476Z</time>
      </trkpt>
      <trkpt lat="50.41839" lon="3.44404">
        <ele>18.5</ele>
        <time>2022-04-15T13:56:54.014Z</time>
      </trkpt>
      <trkpt lat="50.41832" lon="3.44403">
        <ele>18.5</ele>
        <time>2022-04-15T13:56:56.000Z</time>
      </trkpt>
      <trkpt lat="50.41827" lon="3.44403">
        <ele>18.4</ele>
        <time>2022-04-15T13:56:57.754Z</time>
      </trkpt>
      <trkpt lat="50.41821" lon="3.44405">
        <ele>18.3</ele>
        <time>2022-04-15T13:56:59.000Z</time>
      </trkpt>
      <trkpt lat="50.41811" lon="3.44407">
        <ele>18.1</ele>
        <time>2022-04-15T13:57:01.757Z</time>
      </trkpt>
      <trkpt lat="50.41805" lon="3.44408">
        <ele>18</ele>
        <time>2022-04-15T13:57:03.113Z</time>
      </trkpt>
      <trkpt lat="50.41798" lon="3.44407">
        <ele>18</ele>
        <time>2022-04-15T13:57:05.000Z</time>
      </trkpt>
      <trkpt lat="50.41788" lon="3.44405">
        <ele>18</ele>
        <time>2022-04-15T13:57:07.896Z</time>
      </trkpt>
      <trkpt lat="50.41782" lon="3.44401">
        <ele>18</ele>
        <time>2022-04-15T13:57:09.974Z</time>
      </trkpt>
      <trkpt lat="50.41776" lon="3.444">
        <ele>18</ele>
        <time>2022-04-15T13:57:11.000Z</time>
      </trkpt>
      <trkpt lat="50.41771" lon="3.44398">
        <ele>18</ele>
        <time>2022-04-15T13:57:12.000Z</time>
      </trkpt>
      <trkpt lat="50.41764" lon="3.44394">
        <ele>18</ele>
        <time>2022-04-15T13:57:13.799Z</time>
      </trkpt>
      <trkpt lat="50.41757" lon="3.4439">
        <ele>18</ele>
        <time>2022-04-15T13:57:14.991Z</time>
      </trkpt>
      <trkpt lat="50.41749" lon="3.44387">
        <ele>18</ele>
        <time>2022-04-15T13:57:17.000Z</time>
      </trkpt>
      <trkpt lat="50.41742" lon="3.44384">
        <ele>18</ele>
        <time>2022-04-15T13:57:18.613Z</time>
      </trkpt>
      <trkpt lat="50.41735" lon="3.44382">
        <ele>18</ele>
        <time>2022-04-15T13:57:19.896Z</time>
      </trkpt>
      <trkpt lat="50.4173" lon="3.44381">
        <ele>18</ele>
        <time>2022-04-15T13:57:22.000Z</time>
      </trkpt>
      <trkpt lat="50.41724" lon="3.44382">
        <ele>18</ele>
        <time>2022-04-15T13:57:23.000Z</time>
      </trkpt>
      <trkpt lat="50.41719" lon="3.44384">
        <ele>18.1</ele>
        <time>2022-04-15T13:57:24.000Z</time>
      </trkpt>
      <trkpt lat="50.41712" lon="3.44388">
        <ele>18.4</ele>
        <time>2022-04-15T13:57:27.618Z</time>
      </trkpt>
      <trkpt lat="50.41706" lon="3.4439">
        <ele>18.6</ele>
        <time>2022-04-15T13:57:29.594Z</time>
      </trkpt>
      <trkpt lat="50.41699" lon="3.44391">
        <ele>18.8</ele>
        <time>2022-04-15T13:57:31.893Z</time>
      </trkpt>
      <trkpt lat="50.41695" lon="3.44391">
        <ele>19</ele>
        <time>2022-04-15T13:57:33.000Z</time>
      </trkpt>
      <trkpt lat="50.41689" lon="3.4439">
        <ele>19</ele>
        <time>2022-04-15T13:57:34.603Z</time>
      </trkpt>
      <trkpt lat="50.41681" lon="3.4439">
        <ele>19</ele>
        <time>2022-04-15T13:57:36.937Z</time>
      </trkpt>
      <trkpt lat="50.41676" lon="3.4439">
        <ele>19</ele>
        <time>2022-04-15T13:57:38.131Z</time>
      </trkpt>
      <trkpt lat="50.4167" lon="3.44388">
        <ele>19</ele>
        <time>2022-04-15T13:57:39.875Z</time>
      </trkpt>
      <trkpt lat="50.41664" lon="3.44386">
        <ele>18.9</ele>
        <time>2022-04-15T13:57:41.973Z</time>
      </trkpt>
      <trkpt lat="50.41657" lon="3.44386">
        <ele>18.9</ele>
        <time>2022-04-15T13:57:44.000Z</time>
      </trkpt>
      <trkpt lat="50.41648" lon="3.44386">
        <ele>19</ele>
        <time>2022-04-15T13:57:46.156Z</time>
      </trkpt>
      <trkpt lat="50.41638" lon="3.44386">
        <ele>19</ele>
        <time>2022-04-15T13:57:49.113Z</time>
      </trkpt>
      <trkpt lat="50.41631" lon="3.44387">
        <ele>19</ele>
        <time>2022-04-15T13:57:51.000Z</time>
      </trkpt>
      <trkpt lat="50.41625" lon="3.44385">
        <ele>19</ele>
        <time>2022-04-15T13:57:53.853Z</time>
      </trkpt>
      <trkpt lat="50.41618" lon="3.44382">
        <ele>19</ele>
        <time>2022-04-15T13:57:57.036Z</time>
      </trkpt>
      <trkpt lat="50.4161" lon="3.44381">
        <ele>19</ele>
        <time>2022-04-15T13:58:00.000Z</time>
      </trkpt>
      <trkpt lat="50.41602" lon="3.44385">
        <ele>19</ele>
        <time>2022-04-15T13:58:02.998Z</time>
      </trkpt>
      <trkpt lat="50.41595" lon="3.44385">
        <ele>19</ele>
        <time>2022-04-15T13:58:05.000Z</time>
      </trkpt>
      <trkpt lat="50.41588" lon="3.44383">
        <ele>19</ele>
        <time>2022-04-15T13:58:07.000Z</time>
      </trkpt>
      <trkpt lat="50.41583" lon="3.44381">
        <ele>19</ele>
        <time>2022-04-15T13:58:09.000Z</time>
      </trkpt>
      <trkpt lat="50.41579" lon="3.44378">
        <ele>19</ele>
        <time>2022-04-15T13:58:12.093Z</time>
      </trkpt>
      <trkpt lat="50.41573" lon="3.44376">
        <ele>19</ele>
        <time>2022-04-15T13:58:15.000Z</time>
      </trkpt>
      <trkpt lat="50.41568" lon="3.44374">
        <ele>19</ele>
        <time>2022-04-15T13:58:17.000Z</time>
      </trkpt>
      <trkpt lat="50.41562" lon="3.44372">
        <ele>19</ele>
        <time>2022-04-15T13:58:20.000Z</time>
      </trkpt>
      <trkpt lat="50.41554" lon="3.4437">
        <ele>19.1</ele>
        <time>2022-04-15T13:58:22.000Z</time>
      </trkpt>
      <trkpt lat="50.41548" lon="3.4437">
        <ele>19.3</ele>
        <time>2022-04-15T13:58:23.936Z</time>
      </trkpt>
      <trkpt lat="50.41545" lon="3.44364">
        <ele>19.4</ele>
        <time>2022-04-15T13:58:25.000Z</time>
      </trkpt>
      <trkpt lat="50.41538" lon="3.44362">
        <ele>19.6</ele>
        <time>2022-04-15T13:58:27.437Z</time>
      </trkpt>
      <trkpt lat="50.41529" lon="3.44357">
        <ele>20</ele>
        <time>2022-04-15T13:58:30.000Z</time>
      </trkpt>
      <trkpt lat="50.41523" lon="3.44357">
        <ele>20</ele>
        <time>2022-04-15T13:58:32.179Z</time>
      </trkpt>
      <trkpt lat="50.41516" lon="3.44353">
        <ele>20</ele>
        <time>2022-04-15T13:58:34.033Z</time>
      </trkpt>
      <trkpt lat="50.41511" lon="3.44351">
        <ele>20</ele>
        <time>2022-04-15T13:58:35.000Z</time>
      </trkpt>
      <trkpt lat="50.41506" lon="3.44351">
        <ele>20</ele>
        <time>2022-04-15T13:58:36.698Z</time>
      </trkpt>
      <trkpt lat="50.41499" lon="3.44351">
        <ele>20</ele>
        <time>2022-04-15T13:58:38.015Z</time>
      </trkpt>
      <trkpt lat="50.41493" lon="3.44349">
        <ele>20</ele>
        <time>2022-04-15T13:58:39.834Z</time>
      </trkpt>
      <trkpt lat="50.41486" lon="3.44345">
        <ele>20</ele>
        <time>2022-04-15T13:58:42.000Z</time>
      </trkpt>
      <trkpt lat="50.4148" lon="3.44344">
        <ele>20</ele>
        <time>2022-04-15T13:58:45.000Z</time>
      </trkpt>
      <trkpt lat="50.41476" lon="3.44338">
        <ele>20</ele>
        <time>2022-04-15T13:58:47.000Z</time>
      </trkpt>
      <trkpt lat="50.41469" lon="3.44338">
        <ele>20</ele>
        <time>2022-04-15T13:58:49.737Z</time>
      </trkpt>
      <trkpt lat="50.41464" lon="3.44338">
        <ele>20</ele>
        <time>2022-04-15T13:58:51.000Z</time>
      </trkpt>
      <trkpt lat="50.41459" lon="3.44337">
        <ele>20</ele>
        <time>2022-04-15T13:58:53.000Z</time>
      </trkpt>
      <trkpt lat="50.4145" lon="3.44333">
        <ele>20</ele>
        <time>2022-04-15T13:58:56.000Z</time>
      </trkpt>
      <trkpt lat="50.41443" lon="3.44329">
        <ele>20</ele>
        <time>2022-04-15T13:58:58.872Z</time>
      </trkpt>
      <trkpt lat="50.41436" lon="3.44327">
        <ele>20</ele>
        <time>2022-04-15T13:59:02.195Z</time>
      </trkpt>
      <trkpt lat="50.41432" lon="3.4433">
        <ele>20</ele>
        <time>2022-04-15T13:59:04.952Z</time>
      </trkpt>
      <trkpt lat="50.41426" lon="3.44334">
        <ele>20</ele>
        <time>2022-04-15T13:59:08.184Z</time>
      </trkpt>
      <trkpt lat="50.41422" lon="3.44336">
        <ele>20</ele>
        <time>2022-04-15T13:59:10.151Z</time>
      </trkpt>
      <trkpt lat="50.41416" lon="3.44335">
        <ele>20</ele>
        <time>2022-04-15T13:59:12.117Z</time>
      </trkpt>
      <trkpt lat="50.41411" lon="3.44332">
        <ele>20</ele>
        <time>2022-04-15T13:59:14.014Z</time>
      </trkpt>
      <trkpt lat="50.41403" lon="3.44336">
        <ele>20</ele>
        <time>2022-04-15T13:59:17.000Z</time>
      </trkpt>
      <trkpt lat="50.41397" lon="3.4434">
        <ele>20</ele>
        <time>2022-04-15T13:59:19.000Z</time>
      </trkpt>
      <trkpt lat="50.41392" lon="3.4434">
        <ele>20</ele>
        <time>2022-04-15T13:59:21.274Z</time>
      </trkpt>
      <trkpt lat="50.41385" lon="3.44337">
        <ele>20</ele>
        <time>2022-04-15T13:59:24.615Z</time>
      </trkpt>
      <trkpt lat="50.41375" lon="3.44337">
        <ele>20</ele>
        <time>2022-04-15T13:59:27.000Z</time>
      </trkpt>
      <trkpt lat="50.4137" lon="3.44342">
        <ele>20</ele>
        <time>2022-04-15T13:59:29.935Z</time>
      </trkpt>
      <trkpt lat="50.41365" lon="3.44342">
        <ele>20</ele>
        <time>2022-04-15T13:59:30.913Z</time>
      </trkpt>
      <trkpt lat="50.41355" lon="3.44339">
        <ele>20</ele>
        <time>2022-04-15T13:59:33.415Z</time>
      </trkpt>
      <trkpt lat="50.41344" lon="3.44338">
        <ele>20</ele>
        <time>2022-04-15T13:59:36.000Z</time>
      </trkpt>
      <trkpt lat="50.41339" lon="3.44337">
        <ele>20</ele>
        <time>2022-04-15T13:59:37.050Z</time>
      </trkpt>
      <trkpt lat="50.41327" lon="3.44334">
        <ele>20.2</ele>
        <time>2022-04-15T13:59:39.135Z</time>
      </trkpt>
      <trkpt lat="50.41322" lon="3.44332">
        <ele>20.4</ele>
        <time>2022-04-15T13:59:40.595Z</time>
      </trkpt>
      <trkpt lat="50.41315" lon="3.44329">
        <ele>20.6</ele>
        <time>2022-04-15T13:59:42.016Z</time>
      </trkpt>
      <trkpt lat="50.41311" lon="3.44323">
        <ele>20.5</ele>
        <time>2022-04-15T13:59:43.000Z</time>
      </trkpt>
      <trkpt lat="50.4131" lon="3.44308">
        <ele>20.1</ele>
        <time>2022-04-15T13:59:45.032Z</time>
      </trkpt>
      <trkpt lat="50.41316" lon="3.44299">
        <ele>20</ele>
        <time>2022-04-15T13:59:47.134Z</time>
      </trkpt>
      <trkpt lat="50.41322" lon="3.44289">
        <ele>20</ele>
        <time>2022-04-15T13:59:49.752Z</time>
      </trkpt>
      <trkpt lat="50.41327" lon="3.44278">
        <ele>20</ele>
        <time>2022-04-15T13:59:52.000Z</time>
      </trkpt>
      <trkpt lat="50.41333" lon="3.44266">
        <ele>20</ele>
        <time>2022-04-15T13:59:54.000Z</time>
      </trkpt>
      <trkpt lat="50.41337" lon="3.44254">
        <ele>20</ele>
        <time>2022-04-15T13:59:57.116Z</time>
      </trkpt>
      <trkpt lat="50.4134" lon="3.44246">
        <ele>20</ele>
        <time>2022-04-15T13:59:59.775Z</time>
      </trkpt>
      <trkpt lat="50.41341" lon="3.44238">
        <ele>20</ele>
        <time>2022-04-15T14:00:02.000Z</time>
      </trkpt>
      <trkpt lat="50.41344" lon="3.44231">
        <ele>20</ele>
        <time>2022-04-15T14:00:03.874Z</time>
      </trkpt>
      <trkpt lat="50.41346" lon="3.44224">
        <ele>20</ele>
        <time>2022-04-15T14:00:05.953Z</time>
      </trkpt>
      <trkpt lat="50.41349" lon="3.44218">
        <ele>20</ele>
        <time>2022-04-15T14:00:07.938Z</time>
      </trkpt>
      <trkpt lat="50.41353" lon="3.44209">
        <ele>20</ele>
        <time>2022-04-15T14:00:11.000Z</time>
      </trkpt>
      <trkpt lat="50.41356" lon="3.44201">
        <ele>20</ele>
        <time>2022-04-15T14:00:14.135Z</time>
      </trkpt>
      <trkpt lat="50.41356" lon="3.44193">
        <ele>20</ele>
        <time>2022-04-15T14:00:16.854Z</time>
      </trkpt>
      <trkpt lat="50.41356" lon="3.44186">
        <ele>20</ele>
        <time>2022-04-15T14:00:19.000Z</time>
      </trkpt>
      <trkpt lat="50.41353" lon="3.44179">
        <ele>20</ele>
        <time>2022-04-15T14:00:21.000Z</time>
      </trkpt>
      <trkpt lat="50.41349" lon="3.44176">
        <ele>20</ele>
        <time>2022-04-15T14:00:23.000Z</time>
      </trkpt>
      <trkpt lat="50.41344" lon="3.44175">
        <ele>20</ele>
        <time>2022-04-15T14:00:25.357Z</time>
      </trkpt>
      <trkpt lat="50.41337" lon="3.44171">
        <ele>20</ele>
        <time>2022-04-15T14:00:28.000Z</time>
      </trkpt>
      <trkpt lat="50.41331" lon="3.44166">
        <ele>20</ele>
        <time>2022-04-15T14:00:30.000Z</time>
      </trkpt>
      <trkpt lat="50.41324" lon="3.44164">
        <ele>20</ele>
        <time>2022-04-15T14:00:32.092Z</time>
      </trkpt>
      <trkpt lat="50.41314" lon="3.44159">
        <ele>20</ele>
        <time>2022-04-15T14:00:34.000Z</time>
      </trkpt>
      <trkpt lat="50.41308" lon="3.44157">
        <ele>20</ele>
        <time>2022-04-15T14:00:35.000Z</time>
      </trkpt>
      <trkpt lat="50.41303" lon="3.44154">
        <ele>20</ele>
        <time>2022-04-15T14:00:36.000Z</time>
      </trkpt>
      <trkpt lat="50.41299" lon="3.44151">
        <ele>20</ele>
        <time>2022-04-15T14:00:37.000Z</time>
      </trkpt>
      <trkpt lat="50.41293" lon="3.44144">
        <ele>20</ele>
        <time>2022-04-15T14:00:39.000Z</time>
      </trkpt>
      <trkpt lat="50.41293" lon="3.44135">
        <ele>20</ele>
        <time>2022-04-15T14:00:40.712Z</time>
      </trkpt>
      <trkpt lat="50.41294" lon="3.44128">
        <ele>20</ele>
        <time>2022-04-15T14:00:42.000Z</time>
      </trkpt>
      <trkpt lat="50.41297" lon="3.44116">
        <ele>20</ele>
        <time>2022-04-15T14:00:44.000Z</time>
      </trkpt>
      <trkpt lat="50.41298" lon="3.44109">
        <ele>20</ele>
        <time>2022-04-15T14:00:45.000Z</time>
      </trkpt>
      <trkpt lat="50.41301" lon="3.44098">
        <ele>20</ele>
        <time>2022-04-15T14:00:46.972Z</time>
      </trkpt>
      <trkpt lat="50.41304" lon="3.44086">
        <ele>20</ele>
        <time>2022-04-15T14:00:48.033Z</time>
      </trkpt>
      <trkpt lat="50.41307" lon="3.44076">
        <ele>20</ele>
        <time>2022-04-15T14:00:49.834Z</time>
      </trkpt>
      <trkpt lat="50.41309" lon="3.44069">
        <ele>20</ele>
        <time>2022-04-15T14:00:50.752Z</time>
      </trkpt>
      <trkpt lat="50.41312" lon="3.4406">
        <ele>20</ele>
        <time>2022-04-15T14:00:52.035Z</time>
      </trkpt>
      <trkpt lat="50.41316" lon="3.4405">
        <ele>20</ele>
        <time>2022-04-15T14:00:54.000Z</time>
      </trkpt>
      <trkpt lat="50.41317" lon="3.44035">
        <ele>20</ele>
        <time>2022-04-15T14:00:56.000Z</time>
      </trkpt>
      <trkpt lat="50.41316" lon="3.44028">
        <ele>20</ele>
        <time>2022-04-15T14:00:57.357Z</time>
      </trkpt>
      <trkpt lat="50.41315" lon="3.44021">
        <ele>20</ele>
        <time>2022-04-15T14:01:02.000Z</time>
      </trkpt>
      <trkpt lat="50.41314" lon="3.44013">
        <ele>20</ele>
        <time>2022-04-15T14:01:04.000Z</time>
      </trkpt>
      <trkpt lat="50.41318" lon="3.43998">
        <ele>20</ele>
        <time>2022-04-15T14:01:07.478Z</time>
      </trkpt>
      <trkpt lat="50.4132" lon="3.43988">
        <ele>20</ele>
        <time>2022-04-15T14:01:10.000Z</time>
      </trkpt>
      <trkpt lat="50.41322" lon="3.4398">
        <ele>20</ele>
        <time>2022-04-15T14:01:12.000Z</time>
      </trkpt>
      <trkpt lat="50.41324" lon="3.4397">
        <ele>20</ele>
        <time>2022-04-15T14:01:15.000Z</time>
      </trkpt>
      <trkpt lat="50.41325" lon="3.43958">
        <ele>20</ele>
        <time>2022-04-15T14:01:18.000Z</time>
      </trkpt>
      <trkpt lat="50.41327" lon="3.43944">
        <ele>20</ele>
        <time>2022-04-15T14:01:21.000Z</time>
      </trkpt>
      <trkpt lat="50.41329" lon="3.43937">
        <ele>20</ele>
        <time>2022-04-15T14:01:23.134Z</time>
      </trkpt>
      <trkpt lat="50.41332" lon="3.43928">
        <ele>20</ele>
        <time>2022-04-15T14:01:25.732Z</time>
      </trkpt>
      <trkpt lat="50.41333" lon="3.43919">
        <ele>20</ele>
        <time>2022-04-15T14:01:28.054Z</time>
      </trkpt>
      <trkpt lat="50.41336" lon="3.4391">
        <ele>20</ele>
        <time>2022-04-15T14:01:30.792Z</time>
      </trkpt>
      <trkpt lat="50.41339" lon="3.43901">
        <ele>20</ele>
        <time>2022-04-15T14:01:32.000Z</time>
      </trkpt>
      <trkpt lat="50.41339" lon="3.43889">
        <ele>20</ele>
        <time>2022-04-15T14:01:34.000Z</time>
      </trkpt>
      <trkpt lat="50.41339" lon="3.4388">
        <ele>20</ele>
        <time>2022-04-15T14:01:36.000Z</time>
      </trkpt>
      <trkpt lat="50.41337" lon="3.43872">
        <ele>20</ele>
        <time>2022-04-15T14:01:38.000Z</time>
      </trkpt>
      <trkpt lat="50.41336" lon="3.43856">
        <ele>20</ele>
        <time>2022-04-15T14:01:40.937Z</time>
      </trkpt>
      <trkpt lat="50.41333" lon="3.43847">
        <ele>20</ele>
        <time>2022-04-15T14:01:43.000Z</time>
      </trkpt>
      <trkpt lat="50.41332" lon="3.4384">
        <ele>20</ele>
        <time>2022-04-15T14:01:44.274Z</time>
      </trkpt>
      <trkpt lat="50.41329" lon="3.43824">
        <ele>20</ele>
        <time>2022-04-15T14:01:47.000Z</time>
      </trkpt>
      <trkpt lat="50.41327" lon="3.43815">
        <ele>20</ele>
        <time>2022-04-15T14:01:48.000Z</time>
      </trkpt>
      <trkpt lat="50.41325" lon="3.43806">
        <ele>20</ele>
        <time>2022-04-15T14:01:49.931Z</time>
      </trkpt>
      <trkpt lat="50.41323" lon="3.43799">
        <ele>20</ele>
        <time>2022-04-15T14:01:51.000Z</time>
      </trkpt>
      <trkpt lat="50.41321" lon="3.43786">
        <ele>20</ele>
        <time>2022-04-15T14:01:53.035Z</time>
      </trkpt>
      <trkpt lat="50.41322" lon="3.43779">
        <ele>20</ele>
        <time>2022-04-15T14:01:54.293Z</time>
      </trkpt>
      <trkpt lat="50.41323" lon="3.43771">
        <ele>20</ele>
        <time>2022-04-15T14:01:55.333Z</time>
      </trkpt>
      <trkpt lat="50.41325" lon="3.43762">
        <ele>20</ele>
        <time>2022-04-15T14:01:56.674Z</time>
      </trkpt>
      <trkpt lat="50.41328" lon="3.43751">
        <ele>20</ele>
        <time>2022-04-15T14:01:59.175Z</time>
      </trkpt>
      <trkpt lat="50.41331" lon="3.43741">
        <ele>20</ele>
        <time>2022-04-15T14:02:00.812Z</time>
      </trkpt>
      <trkpt lat="50.41335" lon="3.43731">
        <ele>20</ele>
        <time>2022-04-15T14:02:03.000Z</time>
      </trkpt>
      <trkpt lat="50.41337" lon="3.4372">
        <ele>20</ele>
        <time>2022-04-15T14:02:04.834Z</time>
      </trkpt>
      <trkpt lat="50.41339" lon="3.43709">
        <ele>20</ele>
        <time>2022-04-15T14:02:07.000Z</time>
      </trkpt>
      <trkpt lat="50.41341" lon="3.43695">
        <ele>20</ele>
        <time>2022-04-15T14:02:10.000Z</time>
      </trkpt>
      <trkpt lat="50.41344" lon="3.43683">
        <ele>20</ele>
        <time>2022-04-15T14:02:13.118Z</time>
      </trkpt>
      <trkpt lat="50.41346" lon="3.4367">
        <ele>20</ele>
        <time>2022-04-15T14:02:16.000Z</time>
      </trkpt>
      <trkpt lat="50.41348" lon="3.4366">
        <ele>20</ele>
        <time>2022-04-15T14:02:18.056Z</time>
      </trkpt>
      <trkpt lat="50.4135" lon="3.43649">
        <ele>20</ele>
        <time>2022-04-15T14:02:20.000Z</time>
      </trkpt>
      <trkpt lat="50.41353" lon="3.43638">
        <ele>20</ele>
        <time>2022-04-15T14:02:21.991Z</time>
      </trkpt>
      <trkpt lat="50.41353" lon="3.43623">
        <ele>20</ele>
        <time>2022-04-15T14:02:25.000Z</time>
      </trkpt>
      <trkpt lat="50.41354" lon="3.43616">
        <ele>20</ele>
        <time>2022-04-15T14:02:26.919Z</time>
      </trkpt>
      <trkpt lat="50.41355" lon="3.43606">
        <ele>20</ele>
        <time>2022-04-15T14:02:29.000Z</time>
      </trkpt>
      <trkpt lat="50.41356" lon="3.43593">
        <ele>20</ele>
        <time>2022-04-15T14:02:31.642Z</time>
      </trkpt>
      <trkpt lat="50.41357" lon="3.43585">
        <ele>20</ele>
        <time>2022-04-15T14:02:32.853Z</time>
      </trkpt>
      <trkpt lat="50.41357" lon="3.43577">
        <ele>20</ele>
        <time>2022-04-15T14:02:34.000Z</time>
      </trkpt>
      <trkpt lat="50.41355" lon="3.43565">
        <ele>20</ele>
        <time>2022-04-15T14:02:36.000Z</time>
      </trkpt>
      <trkpt lat="50.41353" lon="3.43558">
        <ele>20</ele>
        <time>2022-04-15T14:02:37.016Z</time>
      </trkpt>
      <trkpt lat="50.41352" lon="3.43551">
        <ele>20</ele>
        <time>2022-04-15T14:02:38.000Z</time>
      </trkpt>
      <trkpt lat="50.41346" lon="3.43536">
        <ele>20</ele>
        <time>2022-04-15T14:02:40.631Z</time>
      </trkpt>
      <trkpt lat="50.41343" lon="3.43529">
        <ele>20</ele>
        <time>2022-04-15T14:02:41.876Z</time>
      </trkpt>
      <trkpt lat="50.41339" lon="3.43521">
        <ele>20</ele>
        <time>2022-04-15T14:02:43.000Z</time>
      </trkpt>
      <trkpt lat="50.41339" lon="3.43508">
        <ele>20</ele>
        <time>2022-04-15T14:02:45.289Z</time>
      </trkpt>
      <trkpt lat="50.41336" lon="3.43502">
        <ele>20</ele>
        <time>2022-04-15T14:02:46.446Z</time>
      </trkpt>
      <trkpt lat="50.41333" lon="3.43495">
        <ele>20</ele>
        <time>2022-04-15T14:02:47.408Z</time>
      </trkpt>
      <trkpt lat="50.41329" lon="3.43488">
        <ele>20</ele>
        <time>2022-04-15T14:02:48.487Z</time>
      </trkpt>
      <trkpt lat="50.41325" lon="3.4348">
        <ele>20</ele>
        <time>2022-04-15T14:02:49.890Z</time>
      </trkpt>
      <trkpt lat="50.41319" lon="3.43467">
        <ele>20</ele>
        <time>2022-04-15T14:02:52.000Z</time>
      </trkpt>
      <trkpt lat="50.41317" lon="3.43461">
        <ele>20</ele>
        <time>2022-04-15T14:02:53.000Z</time>
      </trkpt>
      <trkpt lat="50.41311" lon="3.43445">
        <ele>20</ele>
        <time>2022-04-15T14:02:54.945Z</time>
      </trkpt>
      <trkpt lat="50.41308" lon="3.43437">
        <ele>20</ele>
        <time>2022-04-15T14:02:55.928Z</time>
      </trkpt>
      <trkpt lat="50.41305" lon="3.43432">
        <ele>20</ele>
        <time>2022-04-15T14:02:57.028Z</time>
      </trkpt>
      <trkpt lat="50.41301" lon="3.43423">
        <ele>20</ele>
        <time>2022-04-15T14:02:59.025Z</time>
      </trkpt>
      <trkpt lat="50.41297" lon="3.43416">
        <ele>20</ele>
        <time>2022-04-15T14:03:00.000Z</time>
      </trkpt>
      <trkpt lat="50.41292" lon="3.43404">
        <ele>20</ele>
        <time>2022-04-15T14:03:02.000Z</time>
      </trkpt>
      <trkpt lat="50.41288" lon="3.43388">
        <ele>20</ele>
        <time>2022-04-15T14:03:05.131Z</time>
      </trkpt>
      <trkpt lat="50.41283" lon="3.43374">
        <ele>20</ele>
        <time>2022-04-15T14:03:08.004Z</time>
      </trkpt>
      <trkpt lat="50.4128" lon="3.43367">
        <ele>20</ele>
        <time>2022-04-15T14:03:09.000Z</time>
      </trkpt>
      <trkpt lat="50.41276" lon="3.43358">
        <ele>20</ele>
        <time>2022-04-15T14:03:10.000Z</time>
      </trkpt>
      <trkpt lat="50.41272" lon="3.43353">
        <ele>20</ele>
        <time>2022-04-15T14:03:11.000Z</time>
      </trkpt>
      <trkpt lat="50.41267" lon="3.43344">
        <ele>20</ele>
        <time>2022-04-15T14:03:13.389Z</time>
      </trkpt>
      <trkpt lat="50.41264" lon="3.43337">
        <ele>20</ele>
        <time>2022-04-15T14:03:14.468Z</time>
      </trkpt>
      <trkpt lat="50.41259" lon="3.43331">
        <ele>20</ele>
        <time>2022-04-15T14:03:16.000Z</time>
      </trkpt>
      <trkpt lat="50.41253" lon="3.43324">
        <ele>20</ele>
        <time>2022-04-15T14:03:18.000Z</time>
      </trkpt>
      <trkpt lat="50.41248" lon="3.43319">
        <ele>20</ele>
        <time>2022-04-15T14:03:19.145Z</time>
      </trkpt>
      <trkpt lat="50.41245" lon="3.43308">
        <ele>20</ele>
        <time>2022-04-15T14:03:22.000Z</time>
      </trkpt>
      <trkpt lat="50.41241" lon="3.43299">
        <ele>20</ele>
        <time>2022-04-15T14:03:24.000Z</time>
      </trkpt>
      <trkpt lat="50.41235" lon="3.4329">
        <ele>20</ele>
        <time>2022-04-15T14:03:26.000Z</time>
      </trkpt>
      <trkpt lat="50.41232" lon="3.43285">
        <ele>20</ele>
        <time>2022-04-15T14:03:27.000Z</time>
      </trkpt>
      <trkpt lat="50.41225" lon="3.43276">
        <ele>20</ele>
        <time>2022-04-15T14:03:29.000Z</time>
      </trkpt>
      <trkpt lat="50.41215" lon="3.4326">
        <ele>20</ele>
        <time>2022-04-15T14:03:31.348Z</time>
      </trkpt>
      <trkpt lat="50.41212" lon="3.43254">
        <ele>20</ele>
        <time>2022-04-15T14:03:32.507Z</time>
      </trkpt>
      <trkpt lat="50.41208" lon="3.43247">
        <ele>20</ele>
        <time>2022-04-15T14:03:33.947Z</time>
      </trkpt>
      <trkpt lat="50.41205" lon="3.4324">
        <ele>20</ele>
        <time>2022-04-15T14:03:36.007Z</time>
      </trkpt>
      <trkpt lat="50.41202" lon="3.43234">
        <ele>20</ele>
        <time>2022-04-15T14:03:37.006Z</time>
      </trkpt>
      <trkpt lat="50.41199" lon="3.43226">
        <ele>20</ele>
        <time>2022-04-15T14:03:38.984Z</time>
      </trkpt>
      <trkpt lat="50.41195" lon="3.43218">
        <ele>20</ele>
        <time>2022-04-15T14:03:40.386Z</time>
      </trkpt>
      <trkpt lat="50.41193" lon="3.43212">
        <ele>20</ele>
        <time>2022-04-15T14:03:42.046Z</time>
      </trkpt>
      <trkpt lat="50.41186" lon="3.432">
        <ele>20</ele>
        <time>2022-04-15T14:03:45.087Z</time>
      </trkpt>
      <trkpt lat="50.41184" lon="3.43188">
        <ele>20</ele>
        <time>2022-04-15T14:03:47.546Z</time>
      </trkpt>
      <trkpt lat="50.41183" lon="3.4318">
        <ele>20</ele>
        <time>2022-04-15T14:03:49.000Z</time>
      </trkpt>
      <trkpt lat="50.41181" lon="3.43167">
        <ele>20</ele>
        <time>2022-04-15T14:03:51.925Z</time>
      </trkpt>
      <trkpt lat="50.4118" lon="3.43153">
        <ele>20</ele>
        <time>2022-04-15T14:03:54.545Z</time>
      </trkpt>
      <trkpt lat="50.41179" lon="3.43146">
        <ele>20</ele>
        <time>2022-04-15T14:03:56.000Z</time>
      </trkpt>
      <trkpt lat="50.41177" lon="3.43136">
        <ele>20</ele>
        <time>2022-04-15T14:03:57.908Z</time>
      </trkpt>
      <trkpt lat="50.41176" lon="3.43128">
        <ele>20</ele>
        <time>2022-04-15T14:03:59.847Z</time>
      </trkpt>
      <trkpt lat="50.41175" lon="3.4312">
        <ele>20</ele>
        <time>2022-04-15T14:04:01.000Z</time>
      </trkpt>
      <trkpt lat="50.41171" lon="3.43104">
        <ele>19.7</ele>
        <time>2022-04-15T14:04:03.572Z</time>
      </trkpt>
      <trkpt lat="50.41171" lon="3.43097">
        <ele>19.5</ele>
        <time>2022-04-15T14:04:04.807Z</time>
      </trkpt>
      <trkpt lat="50.41167" lon="3.4308">
        <ele>19</ele>
        <time>2022-04-15T14:04:07.000Z</time>
      </trkpt>
      <trkpt lat="50.41166" lon="3.4307">
        <ele>19</ele>
        <time>2022-04-15T14:04:09.350Z</time>
      </trkpt>
      <trkpt lat="50.41165" lon="3.43063">
        <ele>19</ele>
        <time>2022-04-15T14:04:10.727Z</time>
      </trkpt>
      <trkpt lat="50.41165" lon="3.43055">
        <ele>19</ele>
        <time>2022-04-15T14:04:12.000Z</time>
      </trkpt>
      <trkpt lat="50.41165" lon="3.43047">
        <ele>19</ele>
        <time>2022-04-15T14:04:12.964Z</time>
      </trkpt>
      <trkpt lat="50.41165" lon="3.43035">
        <ele>19</ele>
        <time>2022-04-15T14:04:15.089Z</time>
      </trkpt>
      <trkpt lat="50.41165" lon="3.43026">
        <ele>19</ele>
        <time>2022-04-15T14:04:16.000Z</time>
      </trkpt>
      <trkpt lat="50.41165" lon="3.43014">
        <ele>19</ele>
        <time>2022-04-15T14:04:18.000Z</time>
      </trkpt>
      <trkpt lat="50.41167" lon="3.43006">
        <ele>19</ele>
        <time>2022-04-15T14:04:19.000Z</time>
      </trkpt>
      <trkpt lat="50.41169" lon="3.42999">
        <ele>19</ele>
        <time>2022-04-15T14:04:20.000Z</time>
      </trkpt>
      <trkpt lat="50.41171" lon="3.42992">
        <ele>19</ele>
        <time>2022-04-15T14:04:21.000Z</time>
      </trkpt>
      <trkpt lat="50.41173" lon="3.42983">
        <ele>19</ele>
        <time>2022-04-15T14:04:22.000Z</time>
      </trkpt>
      <trkpt lat="50.41174" lon="3.42976">
        <ele>19</ele>
        <time>2022-04-15T14:04:23.000Z</time>
      </trkpt>
      <trkpt lat="50.41175" lon="3.42969">
        <ele>19</ele>
        <time>2022-04-15T14:04:24.000Z</time>
      </trkpt>
      <trkpt lat="50.41178" lon="3.42958">
        <ele>19</ele>
        <time>2022-04-15T14:04:25.000Z</time>
      </trkpt>
      <trkpt lat="50.4118" lon="3.42949">
        <ele>19</ele>
        <time>2022-04-15T14:04:26.236Z</time>
      </trkpt>
      <trkpt lat="50.41173" lon="3.42943">
        <ele>19</ele>
        <time>2022-04-15T14:04:27.939Z</time>
      </trkpt>
      <trkpt lat="50.41167" lon="3.4294">
        <ele>19</ele>
        <time>2022-04-15T14:04:30.018Z</time>
      </trkpt>
      <trkpt lat="50.4116" lon="3.42937">
        <ele>19</ele>
        <time>2022-04-15T14:04:31.478Z</time>
      </trkpt>
      <trkpt lat="50.41155" lon="3.42935">
        <ele>19</ele>
        <time>2022-04-15T14:04:33.000Z</time>
      </trkpt>
      <trkpt lat="50.4115" lon="3.42932">
        <ele>19</ele>
        <time>2022-04-15T14:04:35.000Z</time>
      </trkpt>
      <trkpt lat="50.41147" lon="3.4293">
        <ele>19</ele>
        <time>2022-04-15T14:04:40.825Z</time>
      </trkpt>
      <trkpt lat="50.41147" lon="3.42928">
        <ele>19</ele>
        <time>2022-04-15T14:04:43.022Z</time>
      </trkpt>
      <trkpt lat="50.4115" lon="3.4293">
        <ele>19</ele>
        <time>2022-04-15T14:04:44.000Z</time>
      </trkpt>
      <trkpt lat="50.41157" lon="3.42933">
        <ele>19</ele>
        <time>2022-04-15T14:04:46.060Z</time>
      </trkpt>
      <trkpt lat="50.41164" lon="3.42937">
        <ele>19</ele>
        <time>2022-04-15T14:04:47.344Z</time>
      </trkpt>
      <trkpt lat="50.4117" lon="3.4294">
        <ele>19</ele>
        <time>2022-04-15T14:04:48.520Z</time>
      </trkpt>
      <trkpt lat="50.41178" lon="3.42944">
        <ele>19</ele>
        <time>2022-04-15T14:04:51.000Z</time>
      </trkpt>
      <trkpt lat="50.41184" lon="3.42946">
        <ele>19</ele>
        <time>2022-04-15T14:04:52.020Z</time>
      </trkpt>
      <trkpt lat="50.41191" lon="3.42941">
        <ele>19</ele>
        <time>2022-04-15T14:04:54.000Z</time>
      </trkpt>
      <trkpt lat="50.41191" lon="3.4293">
        <ele>19</ele>
        <time>2022-04-15T14:04:55.444Z</time>
      </trkpt>
      <trkpt lat="50.41185" lon="3.42918">
        <ele>19</ele>
        <time>2022-04-15T14:04:57.000Z</time>
      </trkpt>
      <trkpt lat="50.41174" lon="3.42914">
        <ele>19</ele>
        <time>2022-04-15T14:04:58.000Z</time>
      </trkpt>
      <trkpt lat="50.41163" lon="3.42909">
        <ele>19</ele>
        <time>2022-04-15T14:04:59.000Z</time>
      </trkpt>
      <trkpt lat="50.41155" lon="3.42904">
        <ele>19</ele>
        <time>2022-04-15T14:05:00.000Z</time>
      </trkpt>
      <trkpt lat="50.41148" lon="3.42899">
        <ele>19</ele>
        <time>2022-04-15T14:05:01.000Z</time>
      </trkpt>
      <trkpt lat="50.4114" lon="3.42892">
        <ele>19</ele>
        <time>2022-04-15T14:05:02.000Z</time>
      </trkpt>
      <trkpt lat="50.4113" lon="3.42886">
        <ele>19</ele>
        <time>2022-04-15T14:05:03.000Z</time>
      </trkpt>
      <trkpt lat="50.41122" lon="3.42883">
        <ele>19</ele>
        <time>2022-04-15T14:05:04.000Z</time>
      </trkpt>
      <trkpt lat="50.41115" lon="3.42879">
        <ele>19</ele>
        <time>2022-04-15T14:05:05.000Z</time>
      </trkpt>
      <trkpt lat="50.41106" lon="3.42875">
        <ele>19</ele>
        <time>2022-04-15T14:05:06.000Z</time>
      </trkpt>
      <trkpt lat="50.411" lon="3.42872">
        <ele>19</ele>
        <time>2022-04-15T14:05:07.000Z</time>
      </trkpt>
      <trkpt lat="50.41093" lon="3.42868">
        <ele>19</ele>
        <time>2022-04-15T14:05:08.000Z</time>
      </trkpt>
      <trkpt lat="50.41085" lon="3.42863">
        <ele>19</ele>
        <time>2022-04-15T14:05:10.000Z</time>
      </trkpt>
      <trkpt lat="50.4108" lon="3.42861">
        <ele>19</ele>
        <time>2022-04-15T14:05:11.000Z</time>
      </trkpt>
      <trkpt lat="50.41075" lon="3.42856">
        <ele>19</ele>
        <time>2022-04-15T14:05:13.000Z</time>
      </trkpt>
      <trkpt lat="50.4107" lon="3.42853">
        <ele>19</ele>
        <time>2022-04-15T14:05:14.000Z</time>
      </trkpt>
      <trkpt lat="50.41063" lon="3.42849">
        <ele>19</ele>
        <time>2022-04-15T14:05:16.000Z</time>
      </trkpt>
      <trkpt lat="50.41056" lon="3.42844">
        <ele>19</ele>
        <time>2022-04-15T14:05:18.000Z</time>
      </trkpt>
      <trkpt lat="50.4105" lon="3.42838">
        <ele>19.2</ele>
        <time>2022-04-15T14:05:19.967Z</time>
      </trkpt>
      <trkpt lat="50.4104" lon="3.42833">
        <ele>19.6</ele>
        <time>2022-04-15T14:05:22.000Z</time>
      </trkpt>
      <trkpt lat="50.41034" lon="3.42829">
        <ele>19.8</ele>
        <time>2022-04-15T14:05:24.123Z</time>
      </trkpt>
      <trkpt lat="50.41029" lon="3.42826">
        <ele>20</ele>
        <time>2022-04-15T14:05:25.805Z</time>
      </trkpt>
      <trkpt lat="50.41024" lon="3.42822">
        <ele>20</ele>
        <time>2022-04-15T14:05:27.065Z</time>
      </trkpt>
      <trkpt lat="50.41018" lon="3.42818">
        <ele>20</ele>
        <time>2022-04-15T14:05:28.000Z</time>
      </trkpt>
      <trkpt lat="50.41014" lon="3.42816">
        <ele>20</ele>
        <time>2022-04-15T14:05:29.000Z</time>
      </trkpt>
      <trkpt lat="50.41008" lon="3.42812">
        <ele>20</ele>
        <time>2022-04-15T14:05:30.920Z</time>
      </trkpt>
      <trkpt lat="50.41001" lon="3.42808">
        <ele>20</ele>
        <time>2022-04-15T14:05:34.124Z</time>
      </trkpt>
      <trkpt lat="50.40994" lon="3.42803">
        <ele>20</ele>
        <time>2022-04-15T14:05:35.983Z</time>
      </trkpt>
      <trkpt lat="50.40989" lon="3.428">
        <ele>20</ele>
        <time>2022-04-15T14:05:38.000Z</time>
      </trkpt>
      <trkpt lat="50.40983" lon="3.42796">
        <ele>20</ele>
        <time>2022-04-15T14:05:40.000Z</time>
      </trkpt>
      <trkpt lat="50.40976" lon="3.42792">
        <ele>20</ele>
        <time>2022-04-15T14:05:42.686Z</time>
      </trkpt>
      <trkpt lat="50.40971" lon="3.42789">
        <ele>20</ele>
        <time>2022-04-15T14:05:45.000Z</time>
      </trkpt>
      <trkpt lat="50.40966" lon="3.42786">
        <ele>20</ele>
        <time>2022-04-15T14:05:47.000Z</time>
      </trkpt>
      <trkpt lat="50.4096" lon="3.42783">
        <ele>20</ele>
        <time>2022-04-15T14:05:49.000Z</time>
      </trkpt>
      <trkpt lat="50.40951" lon="3.42779">
        <ele>20</ele>
        <time>2022-04-15T14:05:51.903Z</time>
      </trkpt>
      <trkpt lat="50.40948" lon="3.4277">
        <ele>19.7</ele>
        <time>2022-04-15T14:05:54.000Z</time>
      </trkpt>
      <trkpt lat="50.40944" lon="3.42766">
        <ele>19.6</ele>
        <time>2022-04-15T14:05:55.984Z</time>
      </trkpt>
      <trkpt lat="50.40938" lon="3.42761">
        <ele>19.3</ele>
        <time>2022-04-15T14:05:58.044Z</time>
      </trkpt>
      <trkpt lat="50.40932" lon="3.42754">
        <ele>19.1</ele>
        <time>2022-04-15T14:06:00.521Z</time>
      </trkpt>
      <trkpt lat="50.40926" lon="3.42749">
        <ele>19</ele>
        <time>2022-04-15T14:06:01.944Z</time>
      </trkpt>
      <trkpt lat="50.40921" lon="3.42741">
        <ele>19</ele>
        <time>2022-04-15T14:06:04.783Z</time>
      </trkpt>
      <trkpt lat="50.40917" lon="3.42735">
        <ele>19</ele>
        <time>2022-04-15T14:06:06.943Z</time>
      </trkpt>
      <trkpt lat="50.40907" lon="3.42723">
        <ele>19</ele>
        <time>2022-04-15T14:06:10.683Z</time>
      </trkpt>
      <trkpt lat="50.40902" lon="3.42717">
        <ele>19</ele>
        <time>2022-04-15T14:06:11.902Z</time>
      </trkpt>
      <trkpt lat="50.4089" lon="3.42702">
        <ele>19</ele>
        <time>2022-04-15T14:06:15.000Z</time>
      </trkpt>
      <trkpt lat="50.40886" lon="3.42697">
        <ele>19</ele>
        <time>2022-04-15T14:06:16.000Z</time>
      </trkpt>
      <trkpt lat="50.40882" lon="3.42692">
        <ele>19</ele>
        <time>2022-04-15T14:06:17.000Z</time>
      </trkpt>
      <trkpt lat="50.40877" lon="3.42685">
        <ele>19</ele>
        <time>2022-04-15T14:06:18.000Z</time>
      </trkpt>
      <trkpt lat="50.40872" lon="3.42678">
        <ele>19</ele>
        <time>2022-04-15T14:06:19.000Z</time>
      </trkpt>
      <trkpt lat="50.40868" lon="3.42673">
        <ele>19</ele>
        <time>2022-04-15T14:06:20.000Z</time>
      </trkpt>
      <trkpt lat="50.40864" lon="3.42668">
        <ele>19</ele>
        <time>2022-04-15T14:06:21.000Z</time>
      </trkpt>
      <trkpt lat="50.40858" lon="3.42661">
        <ele>19</ele>
        <time>2022-04-15T14:06:22.000Z</time>
      </trkpt>
      <trkpt lat="50.40854" lon="3.42656">
        <ele>18.9</ele>
        <time>2022-04-15T14:06:23.000Z</time>
      </trkpt>
      <trkpt lat="50.4085" lon="3.42651">
        <ele>18.8</ele>
        <time>2022-04-15T14:06:24.000Z</time>
      </trkpt>
      <trkpt lat="50.40845" lon="3.42645">
        <ele>18.5</ele>
        <time>2022-04-15T14:06:25.000Z</time>
      </trkpt>
      <trkpt lat="50.40841" lon="3.42639">
        <ele>18.3</ele>
        <time>2022-04-15T14:06:26.000Z</time>
      </trkpt>
      <trkpt lat="50.40837" lon="3.42634">
        <ele>18.1</ele>
        <time>2022-04-15T14:06:27.000Z</time>
      </trkpt>
      <trkpt lat="50.40833" lon="3.42629">
        <ele>18</ele>
        <time>2022-04-15T14:06:28.000Z</time>
      </trkpt>
      <trkpt lat="50.40829" lon="3.42625">
        <ele>18</ele>
        <time>2022-04-15T14:06:29.000Z</time>
      </trkpt>
      <trkpt lat="50.40825" lon="3.42619">
        <ele>18</ele>
        <time>2022-04-15T14:06:30.000Z</time>
      </trkpt>
      <trkpt lat="50.4082" lon="3.4261">
        <ele>18</ele>
        <time>2022-04-15T14:06:32.000Z</time>
      </trkpt>
      <trkpt lat="50.40817" lon="3.42606">
        <ele>18</ele>
        <time>2022-04-15T14:06:33.000Z</time>
      </trkpt>
      <trkpt lat="50.40811" lon="3.42599">
        <ele>18</ele>
        <time>2022-04-15T14:06:35.000Z</time>
      </trkpt>
      <trkpt lat="50.40806" lon="3.42593">
        <ele>18</ele>
        <time>2022-04-15T14:06:36.000Z</time>
      </trkpt>
      <trkpt lat="50.40802" lon="3.42583">
        <ele>18</ele>
        <time>2022-04-15T14:06:38.000Z</time>
      </trkpt>
      <trkpt lat="50.40793" lon="3.42574">
        <ele>18</ele>
        <time>2022-04-15T14:06:39.923Z</time>
      </trkpt>
      <trkpt lat="50.40782" lon="3.42566">
        <ele>18</ele>
        <time>2022-04-15T14:06:43.000Z</time>
      </trkpt>
      <trkpt lat="50.40776" lon="3.4256">
        <ele>18</ele>
        <time>2022-04-15T14:06:45.141Z</time>
      </trkpt>
      <trkpt lat="50.40771" lon="3.42554">
        <ele>18</ele>
        <time>2022-04-15T14:06:47.000Z</time>
      </trkpt>
      <trkpt lat="50.40764" lon="3.42547">
        <ele>18</ele>
        <time>2022-04-15T14:06:49.103Z</time>
      </trkpt>
      <trkpt lat="50.40758" lon="3.4254">
        <ele>18</ele>
        <time>2022-04-15T14:06:50.380Z</time>
      </trkpt>
      <trkpt lat="50.40755" lon="3.42534">
        <ele>18</ele>
        <time>2022-04-15T14:06:51.841Z</time>
      </trkpt>
      <trkpt lat="50.4075" lon="3.42527">
        <ele>18</ele>
        <time>2022-04-15T14:06:53.000Z</time>
      </trkpt>
      <trkpt lat="50.40746" lon="3.42523">
        <ele>18</ele>
        <time>2022-04-15T14:06:54.615Z</time>
      </trkpt>
      <trkpt lat="50.40741" lon="3.42519">
        <ele>18</ele>
        <time>2022-04-15T14:06:55.618Z</time>
      </trkpt>
      <trkpt lat="50.40737" lon="3.42516">
        <ele>18</ele>
        <time>2022-04-15T14:06:56.882Z</time>
      </trkpt>
      <trkpt lat="50.4073" lon="3.42507">
        <ele>18</ele>
        <time>2022-04-15T14:07:00.000Z</time>
      </trkpt>
      <trkpt lat="50.40733" lon="3.42491">
        <ele>18</ele>
        <time>2022-04-15T14:07:02.940Z</time>
      </trkpt>
      <trkpt lat="50.40736" lon="3.42485">
        <ele>18</ele>
        <time>2022-04-15T14:07:04.142Z</time>
      </trkpt>
      <trkpt lat="50.40737" lon="3.42478">
        <ele>18</ele>
        <time>2022-04-15T14:07:06.043Z</time>
      </trkpt>
      <trkpt lat="50.4074" lon="3.42469">
        <ele>18</ele>
        <time>2022-04-15T14:07:08.000Z</time>
      </trkpt>
      <trkpt lat="50.40742" lon="3.42461">
        <ele>18</ele>
        <time>2022-04-15T14:07:09.638Z</time>
      </trkpt>
      <trkpt lat="50.40745" lon="3.42448">
        <ele>18</ele>
        <time>2022-04-15T14:07:11.981Z</time>
      </trkpt>
      <trkpt lat="50.40747" lon="3.42436">
        <ele>18</ele>
        <time>2022-04-15T14:07:14.000Z</time>
      </trkpt>
      <trkpt lat="50.40751" lon="3.42425">
        <ele>18</ele>
        <time>2022-04-15T14:07:16.000Z</time>
      </trkpt>
      <trkpt lat="50.40753" lon="3.42419">
        <ele>18</ele>
        <time>2022-04-15T14:07:17.121Z</time>
      </trkpt>
      <trkpt lat="50.40757" lon="3.42406">
        <ele>18.3</ele>
        <time>2022-04-15T14:07:19.615Z</time>
      </trkpt>
      <trkpt lat="50.40761" lon="3.42394">
        <ele>18.5</ele>
        <time>2022-04-15T14:07:22.000Z</time>
      </trkpt>
      <trkpt lat="50.40764" lon="3.4238">
        <ele>18.7</ele>
        <time>2022-04-15T14:07:24.960Z</time>
      </trkpt>
      <trkpt lat="50.40768" lon="3.42368">
        <ele>18.8</ele>
        <time>2022-04-15T14:07:27.462Z</time>
      </trkpt>
      <trkpt lat="50.40771" lon="3.42357">
        <ele>19</ele>
        <time>2022-04-15T14:07:29.641Z</time>
      </trkpt>
      <trkpt lat="50.40775" lon="3.42343">
        <ele>19</ele>
        <time>2022-04-15T14:07:32.120Z</time>
      </trkpt>
      <trkpt lat="50.40778" lon="3.42332">
        <ele>19</ele>
        <time>2022-04-15T14:07:34.000Z</time>
      </trkpt>
      <trkpt lat="50.40781" lon="3.42321">
        <ele>18.9</ele>
        <time>2022-04-15T14:07:36.100Z</time>
      </trkpt>
      <trkpt lat="50.40783" lon="3.4231">
        <ele>19</ele>
        <time>2022-04-15T14:07:38.000Z</time>
      </trkpt>
      <trkpt lat="50.40786" lon="3.42296">
        <ele>18.8</ele>
        <time>2022-04-15T14:07:39.920Z</time>
      </trkpt>
      <trkpt lat="50.40788" lon="3.42288">
        <ele>18.6</ele>
        <time>2022-04-15T14:07:41.000Z</time>
      </trkpt>
      <trkpt lat="50.40791" lon="3.42277">
        <ele>18.5</ele>
        <time>2022-04-15T14:07:43.000Z</time>
      </trkpt>
      <trkpt lat="50.40795" lon="3.4227">
        <ele>18.6</ele>
        <time>2022-04-15T14:07:45.419Z</time>
      </trkpt>
      <trkpt lat="50.40798" lon="3.42262">
        <ele>18.7</ele>
        <time>2022-04-15T14:07:46.820Z</time>
      </trkpt>
      <trkpt lat="50.40802" lon="3.42247">
        <ele>18.8</ele>
        <time>2022-04-15T14:07:50.001Z</time>
      </trkpt>
      <trkpt lat="50.40803" lon="3.42237">
        <ele>18.5</ele>
        <time>2022-04-15T14:07:51.962Z</time>
      </trkpt>
      <trkpt lat="50.40805" lon="3.42227">
        <ele>18.2</ele>
        <time>2022-04-15T14:07:53.581Z</time>
      </trkpt>
      <trkpt lat="50.40808" lon="3.42221">
        <ele>18.1</ele>
        <time>2022-04-15T14:07:54.883Z</time>
      </trkpt>
      <trkpt lat="50.4081" lon="3.42214">
        <ele>18.1</ele>
        <time>2022-04-15T14:07:56.120Z</time>
      </trkpt>
      <trkpt lat="50.40813" lon="3.42204">
        <ele>18.1</ele>
        <time>2022-04-15T14:07:57.723Z</time>
      </trkpt>
      <trkpt lat="50.40816" lon="3.42197">
        <ele>18</ele>
        <time>2022-04-15T14:07:58.982Z</time>
      </trkpt>
      <trkpt lat="50.40817" lon="3.42188">
        <ele>18</ele>
        <time>2022-04-15T14:08:01.046Z</time>
      </trkpt>
      <trkpt lat="50.40819" lon="3.42181">
        <ele>18</ele>
        <time>2022-04-15T14:08:02.000Z</time>
      </trkpt>
      <trkpt lat="50.40822" lon="3.42171">
        <ele>18</ele>
        <time>2022-04-15T14:08:03.420Z</time>
      </trkpt>
      <trkpt lat="50.40824" lon="3.42162">
        <ele>18.1</ele>
        <time>2022-04-15T14:08:04.925Z</time>
      </trkpt>
      <trkpt lat="50.40827" lon="3.42152">
        <ele>18.4</ele>
        <time>2022-04-15T14:08:07.000Z</time>
      </trkpt>
      <trkpt lat="50.40829" lon="3.42145">
        <ele>18.7</ele>
        <time>2022-04-15T14:08:08.166Z</time>
      </trkpt>
      <trkpt lat="50.40833" lon="3.4213">
        <ele>19</ele>
        <time>2022-04-15T14:08:10.161Z</time>
      </trkpt>
      <trkpt lat="50.40836" lon="3.42121">
        <ele>19</ele>
        <time>2022-04-15T14:08:12.360Z</time>
      </trkpt>
      <trkpt lat="50.40839" lon="3.42105">
        <ele>19</ele>
        <time>2022-04-15T14:08:15.000Z</time>
      </trkpt>
      <trkpt lat="50.40842" lon="3.42093">
        <ele>19</ele>
        <time>2022-04-15T14:08:18.141Z</time>
      </trkpt>
      <trkpt lat="50.40844" lon="3.42085">
        <ele>19</ele>
        <time>2022-04-15T14:08:20.162Z</time>
      </trkpt>
      <trkpt lat="50.40847" lon="3.42078">
        <ele>19</ele>
        <time>2022-04-15T14:08:22.123Z</time>
      </trkpt>
      <trkpt lat="50.40849" lon="3.4207">
        <ele>19</ele>
        <time>2022-04-15T14:08:24.403Z</time>
      </trkpt>
      <trkpt lat="50.40851" lon="3.42062">
        <ele>19</ele>
        <time>2022-04-15T14:08:25.616Z</time>
      </trkpt>
      <trkpt lat="50.40854" lon="3.42052">
        <ele>19</ele>
        <time>2022-04-15T14:08:28.000Z</time>
      </trkpt>
      <trkpt lat="50.40858" lon="3.42039">
        <ele>19</ele>
        <time>2022-04-15T14:08:30.000Z</time>
      </trkpt>
      <trkpt lat="50.4086" lon="3.4203">
        <ele>19</ele>
        <time>2022-04-15T14:08:32.000Z</time>
      </trkpt>
      <trkpt lat="50.40864" lon="3.42016">
        <ele>19</ele>
        <time>2022-04-15T14:08:34.000Z</time>
      </trkpt>
      <trkpt lat="50.40868" lon="3.42005">
        <ele>19</ele>
        <time>2022-04-15T14:08:36.021Z</time>
      </trkpt>
      <trkpt lat="50.4087" lon="3.41998">
        <ele>19</ele>
        <time>2022-04-15T14:08:37.160Z</time>
      </trkpt>
      <trkpt lat="50.40872" lon="3.41991">
        <ele>19</ele>
        <time>2022-04-15T14:08:39.022Z</time>
      </trkpt>
      <trkpt lat="50.40875" lon="3.41981">
        <ele>19</ele>
        <time>2022-04-15T14:08:40.643Z</time>
      </trkpt>
      <trkpt lat="50.40878" lon="3.41967">
        <ele>19</ele>
        <time>2022-04-15T14:08:41.998Z</time>
      </trkpt>
      <trkpt lat="50.4088" lon="3.4196">
        <ele>19</ele>
        <time>2022-04-15T14:08:43.000Z</time>
      </trkpt>
      <trkpt lat="50.40882" lon="3.41954">
        <ele>19</ele>
        <time>2022-04-15T14:08:44.000Z</time>
      </trkpt>
      <trkpt lat="50.40885" lon="3.41944">
        <ele>19</ele>
        <time>2022-04-15T14:08:45.000Z</time>
      </trkpt>
      <trkpt lat="50.40889" lon="3.41933">
        <ele>19</ele>
        <time>2022-04-15T14:08:47.000Z</time>
      </trkpt>
      <trkpt lat="50.40891" lon="3.41925">
        <ele>19</ele>
        <time>2022-04-15T14:08:48.000Z</time>
      </trkpt>
      <trkpt lat="50.40893" lon="3.41915">
        <ele>19</ele>
        <time>2022-04-15T14:08:49.000Z</time>
      </trkpt>
      <trkpt lat="50.40895" lon="3.41909">
        <ele>19</ele>
        <time>2022-04-15T14:08:50.000Z</time>
      </trkpt>
      <trkpt lat="50.40898" lon="3.41896">
        <ele>19</ele>
        <time>2022-04-15T14:08:52.000Z</time>
      </trkpt>
      <trkpt lat="50.409" lon="3.41887">
        <ele>19</ele>
        <time>2022-04-15T14:08:53.000Z</time>
      </trkpt>
      <trkpt lat="50.40904" lon="3.41876">
        <ele>19</ele>
        <time>2022-04-15T14:08:55.000Z</time>
      </trkpt>
      <trkpt lat="50.40907" lon="3.41864">
        <ele>19</ele>
        <time>2022-04-15T14:08:57.000Z</time>
      </trkpt>
      <trkpt lat="50.40909" lon="3.41856">
        <ele>19</ele>
        <time>2022-04-15T14:08:58.000Z</time>
      </trkpt>
      <trkpt lat="50.40913" lon="3.41844">
        <ele>19</ele>
        <time>2022-04-15T14:09:00.000Z</time>
      </trkpt>
      <trkpt lat="50.40913" lon="3.41834">
        <ele>19</ele>
        <time>2022-04-15T14:09:02.000Z</time>
      </trkpt>
      <trkpt lat="50.40917" lon="3.41823">
        <ele>19</ele>
        <time>2022-04-15T14:09:03.490Z</time>
      </trkpt>
      <trkpt lat="50.40919" lon="3.41815">
        <ele>19</ele>
        <time>2022-04-15T14:09:04.432Z</time>
      </trkpt>
      <trkpt lat="50.40921" lon="3.41808">
        <ele>19</ele>
        <time>2022-04-15T14:09:05.373Z</time>
      </trkpt>
      <trkpt lat="50.40925" lon="3.418">
        <ele>19</ele>
        <time>2022-04-15T14:09:06.770Z</time>
      </trkpt>
      <trkpt lat="50.40928" lon="3.41792">
        <ele>19</ele>
        <time>2022-04-15T14:09:08.046Z</time>
      </trkpt>
      <trkpt lat="50.40931" lon="3.4178">
        <ele>19</ele>
        <time>2022-04-15T14:09:10.029Z</time>
      </trkpt>
      <trkpt lat="50.40934" lon="3.41773">
        <ele>19</ele>
        <time>2022-04-15T14:09:11.000Z</time>
      </trkpt>
      <trkpt lat="50.40938" lon="3.4176">
        <ele>19</ele>
        <time>2022-04-15T14:09:13.212Z</time>
      </trkpt>
      <trkpt lat="50.4094" lon="3.41752">
        <ele>19</ele>
        <time>2022-04-15T14:09:14.530Z</time>
      </trkpt>
      <trkpt lat="50.40942" lon="3.41745">
        <ele>19</ele>
        <time>2022-04-15T14:09:15.752Z</time>
      </trkpt>
      <trkpt lat="50.40947" lon="3.41727">
        <ele>19</ele>
        <time>2022-04-15T14:09:18.000Z</time>
      </trkpt>
      <trkpt lat="50.40949" lon="3.41718">
        <ele>19</ele>
        <time>2022-04-15T14:09:20.000Z</time>
      </trkpt>
      <trkpt lat="50.40952" lon="3.41704">
        <ele>19</ele>
        <time>2022-04-15T14:09:22.000Z</time>
      </trkpt>
      <trkpt lat="50.40956" lon="3.41693">
        <ele>19</ele>
        <time>2022-04-15T14:09:24.000Z</time>
      </trkpt>
      <trkpt lat="50.4096" lon="3.4168">
        <ele>19</ele>
        <time>2022-04-15T14:09:26.000Z</time>
      </trkpt>
      <trkpt lat="50.40963" lon="3.41672">
        <ele>19</ele>
        <time>2022-04-15T14:09:27.000Z</time>
      </trkpt>
      <trkpt lat="50.40967" lon="3.41658">
        <ele>19</ele>
        <time>2022-04-15T14:09:29.000Z</time>
      </trkpt>
      <trkpt lat="50.4097" lon="3.41649">
        <ele>19</ele>
        <time>2022-04-15T14:09:30.000Z</time>
      </trkpt>
      <trkpt lat="50.40973" lon="3.41638">
        <ele>19</ele>
        <time>2022-04-15T14:09:32.000Z</time>
      </trkpt>
      <trkpt lat="50.40975" lon="3.41629">
        <ele>19</ele>
        <time>2022-04-15T14:09:34.000Z</time>
      </trkpt>
      <trkpt lat="50.40977" lon="3.41622">
        <ele>19</ele>
        <time>2022-04-15T14:09:35.000Z</time>
      </trkpt>
      <trkpt lat="50.40981" lon="3.4161">
        <ele>19</ele>
        <time>2022-04-15T14:09:37.000Z</time>
      </trkpt>
      <trkpt lat="50.40984" lon="3.41601">
        <ele>19</ele>
        <time>2022-04-15T14:09:38.000Z</time>
      </trkpt>
      <trkpt lat="50.40986" lon="3.41593">
        <ele>19</ele>
        <time>2022-04-15T14:09:39.000Z</time>
      </trkpt>
      <trkpt lat="50.4099" lon="3.4158">
        <ele>19</ele>
        <time>2022-04-15T14:09:41.149Z</time>
      </trkpt>
      <trkpt lat="50.40993" lon="3.4157">
        <ele>19</ele>
        <time>2022-04-15T14:09:43.468Z</time>
      </trkpt>
      <trkpt lat="50.40996" lon="3.41557">
        <ele>19</ele>
        <time>2022-04-15T14:09:45.000Z</time>
      </trkpt>
      <trkpt lat="50.40999" lon="3.41542">
        <ele>19</ele>
        <time>2022-04-15T14:09:46.968Z</time>
      </trkpt>
      <trkpt lat="50.41003" lon="3.4153">
        <ele>19</ele>
        <time>2022-04-15T14:09:49.489Z</time>
      </trkpt>
      <trkpt lat="50.41007" lon="3.41518">
        <ele>19</ele>
        <time>2022-04-15T14:09:51.623Z</time>
      </trkpt>
      <trkpt lat="50.41009" lon="3.41507">
        <ele>19</ele>
        <time>2022-04-15T14:09:53.000Z</time>
      </trkpt>
      <trkpt lat="50.41013" lon="3.41495">
        <ele>19</ele>
        <time>2022-04-15T14:09:55.106Z</time>
      </trkpt>
      <trkpt lat="50.41015" lon="3.41488">
        <ele>19</ele>
        <time>2022-04-15T14:09:57.000Z</time>
      </trkpt>
      <trkpt lat="50.41018" lon="3.41481">
        <ele>19</ele>
        <time>2022-04-15T14:09:58.309Z</time>
      </trkpt>
      <trkpt lat="50.41023" lon="3.41465">
        <ele>19</ele>
        <time>2022-04-15T14:10:01.000Z</time>
      </trkpt>
      <trkpt lat="50.41025" lon="3.41458">
        <ele>19</ele>
        <time>2022-04-15T14:10:03.000Z</time>
      </trkpt>
      <trkpt lat="50.41027" lon="3.41451">
        <ele>19</ele>
        <time>2022-04-15T14:10:04.000Z</time>
      </trkpt>
      <trkpt lat="50.4103" lon="3.41441">
        <ele>19</ele>
        <time>2022-04-15T14:10:06.000Z</time>
      </trkpt>
      <trkpt lat="50.41032" lon="3.41433">
        <ele>19</ele>
        <time>2022-04-15T14:10:06.985Z</time>
      </trkpt>
      <trkpt lat="50.41035" lon="3.41423">
        <ele>19</ele>
        <time>2022-04-15T14:10:10.000Z</time>
      </trkpt>
      <trkpt lat="50.41038" lon="3.41416">
        <ele>19</ele>
        <time>2022-04-15T14:10:11.929Z</time>
      </trkpt>
      <trkpt lat="50.41039" lon="3.41409">
        <ele>19</ele>
        <time>2022-04-15T14:10:12.993Z</time>
      </trkpt>
      <trkpt lat="50.41042" lon="3.41398">
        <ele>19</ele>
        <time>2022-04-15T14:10:15.000Z</time>
      </trkpt>
      <trkpt lat="50.41045" lon="3.41392">
        <ele>19</ele>
        <time>2022-04-15T14:10:16.927Z</time>
      </trkpt>
      <trkpt lat="50.41046" lon="3.41384">
        <ele>19</ele>
        <time>2022-04-15T14:10:18.946Z</time>
      </trkpt>
      <trkpt lat="50.41049" lon="3.41373">
        <ele>19</ele>
        <time>2022-04-15T14:10:21.009Z</time>
      </trkpt>
      <trkpt lat="50.41051" lon="3.41362">
        <ele>19</ele>
        <time>2022-04-15T14:10:23.084Z</time>
      </trkpt>
      <trkpt lat="50.41055" lon="3.41349">
        <ele>19</ele>
        <time>2022-04-15T14:10:26.009Z</time>
      </trkpt>
      <trkpt lat="50.41057" lon="3.41342">
        <ele>19</ele>
        <time>2022-04-15T14:10:28.000Z</time>
      </trkpt>
      <trkpt lat="50.41059" lon="3.41334">
        <ele>19</ele>
        <time>2022-04-15T14:10:29.893Z</time>
      </trkpt>
      <trkpt lat="50.41061" lon="3.41325">
        <ele>19</ele>
        <time>2022-04-15T14:10:30.925Z</time>
      </trkpt>
      <trkpt lat="50.41064" lon="3.41317">
        <ele>19</ele>
        <time>2022-04-15T14:10:33.007Z</time>
      </trkpt>
      <trkpt lat="50.41068" lon="3.41306">
        <ele>19</ele>
        <time>2022-04-15T14:10:35.000Z</time>
      </trkpt>
      <trkpt lat="50.4107" lon="3.41298">
        <ele>19</ele>
        <time>2022-04-15T14:10:37.000Z</time>
      </trkpt>
      <trkpt lat="50.41072" lon="3.41289">
        <ele>19</ele>
        <time>2022-04-15T14:10:38.526Z</time>
      </trkpt>
      <trkpt lat="50.41075" lon="3.41278">
        <ele>19</ele>
        <time>2022-04-15T14:10:41.149Z</time>
      </trkpt>
      <trkpt lat="50.41077" lon="3.41267">
        <ele>19</ele>
        <time>2022-04-15T14:10:42.709Z</time>
      </trkpt>
      <trkpt lat="50.4108" lon="3.41256">
        <ele>19</ele>
        <time>2022-04-15T14:10:44.000Z</time>
      </trkpt>
      <trkpt lat="50.41082" lon="3.41246">
        <ele>19</ele>
        <time>2022-04-15T14:10:46.000Z</time>
      </trkpt>
      <trkpt lat="50.41084" lon="3.41238">
        <ele>19</ele>
        <time>2022-04-15T14:10:47.310Z</time>
      </trkpt>
      <trkpt lat="50.41086" lon="3.4123">
        <ele>19</ele>
        <time>2022-04-15T14:10:49.000Z</time>
      </trkpt>
      <trkpt lat="50.41088" lon="3.41223">
        <ele>19</ele>
        <time>2022-04-15T14:10:50.000Z</time>
      </trkpt>
      <trkpt lat="50.41091" lon="3.41214">
        <ele>19</ele>
        <time>2022-04-15T14:10:52.190Z</time>
      </trkpt>
      <trkpt lat="50.41093" lon="3.41206">
        <ele>19</ele>
        <time>2022-04-15T14:10:54.000Z</time>
      </trkpt>
      <trkpt lat="50.41096" lon="3.41199">
        <ele>19</ele>
        <time>2022-04-15T14:10:55.086Z</time>
      </trkpt>
      <trkpt lat="50.41098" lon="3.41191">
        <ele>19</ele>
        <time>2022-04-15T14:10:57.000Z</time>
      </trkpt>
      <trkpt lat="50.41102" lon="3.41176">
        <ele>19</ele>
        <time>2022-04-15T14:11:00.000Z</time>
      </trkpt>
      <trkpt lat="50.41105" lon="3.41166">
        <ele>19</ele>
        <time>2022-04-15T14:11:02.000Z</time>
      </trkpt>
      <trkpt lat="50.41109" lon="3.41151">
        <ele>19</ele>
        <time>2022-04-15T14:11:04.188Z</time>
      </trkpt>
      <trkpt lat="50.41114" lon="3.41137">
        <ele>18.9</ele>
        <time>2022-04-15T14:11:06.847Z</time>
      </trkpt>
      <trkpt lat="50.41118" lon="3.41129">
        <ele>18.8</ele>
        <time>2022-04-15T14:11:09.113Z</time>
      </trkpt>
      <trkpt lat="50.41121" lon="3.41114">
        <ele>18.6</ele>
        <time>2022-04-15T14:11:11.000Z</time>
      </trkpt>
      <trkpt lat="50.41124" lon="3.41105">
        <ele>18.4</ele>
        <time>2022-04-15T14:11:13.000Z</time>
      </trkpt>
      <trkpt lat="50.41126" lon="3.41094">
        <ele>18.2</ele>
        <time>2022-04-15T14:11:15.000Z</time>
      </trkpt>
      <trkpt lat="50.41129" lon="3.41085">
        <ele>18</ele>
        <time>2022-04-15T14:11:16.790Z</time>
      </trkpt>
      <trkpt lat="50.41131" lon="3.41077">
        <ele>18</ele>
        <time>2022-04-15T14:11:17.886Z</time>
      </trkpt>
      <trkpt lat="50.41132" lon="3.41068">
        <ele>18</ele>
        <time>2022-04-15T14:11:19.000Z</time>
      </trkpt>
      <trkpt lat="50.41134" lon="3.4106">
        <ele>18</ele>
        <time>2022-04-15T14:11:20.147Z</time>
      </trkpt>
      <trkpt lat="50.41137" lon="3.41054">
        <ele>18</ele>
        <time>2022-04-15T14:11:21.808Z</time>
      </trkpt>
      <trkpt lat="50.41139" lon="3.41046">
        <ele>18</ele>
        <time>2022-04-15T14:11:22.771Z</time>
      </trkpt>
      <trkpt lat="50.41141" lon="3.41038">
        <ele>18</ele>
        <time>2022-04-15T14:11:24.425Z</time>
      </trkpt>
      <trkpt lat="50.41143" lon="3.4103">
        <ele>18</ele>
        <time>2022-04-15T14:11:26.005Z</time>
      </trkpt>
      <trkpt lat="50.41147" lon="3.41019">
        <ele>18</ele>
        <time>2022-04-15T14:11:28.000Z</time>
      </trkpt>
      <trkpt lat="50.4115" lon="3.4101">
        <ele>18</ele>
        <time>2022-04-15T14:11:30.000Z</time>
      </trkpt>
      <trkpt lat="50.41152" lon="3.41001">
        <ele>18</ele>
        <time>2022-04-15T14:11:31.000Z</time>
      </trkpt>
      <trkpt lat="50.41157" lon="3.40986">
        <ele>18</ele>
        <time>2022-04-15T14:11:34.166Z</time>
      </trkpt>
      <trkpt lat="50.41159" lon="3.40978">
        <ele>18</ele>
        <time>2022-04-15T14:11:36.000Z</time>
      </trkpt>
      <trkpt lat="50.41161" lon="3.4097">
        <ele>18</ele>
        <time>2022-04-15T14:11:37.087Z</time>
      </trkpt>
      <trkpt lat="50.41164" lon="3.40959">
        <ele>18</ele>
        <time>2022-04-15T14:11:39.000Z</time>
      </trkpt>
      <trkpt lat="50.41166" lon="3.4095">
        <ele>18</ele>
        <time>2022-04-15T14:11:40.000Z</time>
      </trkpt>
      <trkpt lat="50.41168" lon="3.40944">
        <ele>18</ele>
        <time>2022-04-15T14:11:41.787Z</time>
      </trkpt>
      <trkpt lat="50.41171" lon="3.40938">
        <ele>18</ele>
        <time>2022-04-15T14:11:42.925Z</time>
      </trkpt>
      <trkpt lat="50.41173" lon="3.40928">
        <ele>18</ele>
        <time>2022-04-15T14:11:45.125Z</time>
      </trkpt>
      <trkpt lat="50.41176" lon="3.40917">
        <ele>18</ele>
        <time>2022-04-15T14:11:46.830Z</time>
      </trkpt>
      <trkpt lat="50.41182" lon="3.40905">
        <ele>18</ele>
        <time>2022-04-15T14:11:49.131Z</time>
      </trkpt>
      <trkpt lat="50.41186" lon="3.40893">
        <ele>18</ele>
        <time>2022-04-15T14:11:50.887Z</time>
      </trkpt>
      <trkpt lat="50.4119" lon="3.40878">
        <ele>18</ele>
        <time>2022-04-15T14:11:53.344Z</time>
      </trkpt>
      <trkpt lat="50.41194" lon="3.40864">
        <ele>18</ele>
        <time>2022-04-15T14:11:55.643Z</time>
      </trkpt>
      <trkpt lat="50.41197" lon="3.40854">
        <ele>18</ele>
        <time>2022-04-15T14:11:56.945Z</time>
      </trkpt>
      <trkpt lat="50.41199" lon="3.40845">
        <ele>18</ele>
        <time>2022-04-15T14:11:58.000Z</time>
      </trkpt>
      <trkpt lat="50.41201" lon="3.40835">
        <ele>18</ele>
        <time>2022-04-15T14:12:00.104Z</time>
      </trkpt>
      <trkpt lat="50.41203" lon="3.40828">
        <ele>18</ele>
        <time>2022-04-15T14:12:01.000Z</time>
      </trkpt>
      <trkpt lat="50.41209" lon="3.40809">
        <ele>18</ele>
        <time>2022-04-15T14:12:04.000Z</time>
      </trkpt>
      <trkpt lat="50.41211" lon="3.40795">
        <ele>18</ele>
        <time>2022-04-15T14:12:06.000Z</time>
      </trkpt>
      <trkpt lat="50.41214" lon="3.40786">
        <ele>18</ele>
        <time>2022-04-15T14:12:07.669Z</time>
      </trkpt>
      <trkpt lat="50.41216" lon="3.40778">
        <ele>18</ele>
        <time>2022-04-15T14:12:09.000Z</time>
      </trkpt>
      <trkpt lat="50.41219" lon="3.40766">
        <ele>18</ele>
        <time>2022-04-15T14:12:11.486Z</time>
      </trkpt>
      <trkpt lat="50.4122" lon="3.40758">
        <ele>18</ele>
        <time>2022-04-15T14:12:13.000Z</time>
      </trkpt>
      <trkpt lat="50.41223" lon="3.40748">
        <ele>18</ele>
        <time>2022-04-15T14:12:14.929Z</time>
      </trkpt>
      <trkpt lat="50.41226" lon="3.4074">
        <ele>18</ele>
        <time>2022-04-15T14:12:15.946Z</time>
      </trkpt>
      <trkpt lat="50.41228" lon="3.4073">
        <ele>18</ele>
        <time>2022-04-15T14:12:18.000Z</time>
      </trkpt>
      <trkpt lat="50.41232" lon="3.4072">
        <ele>18</ele>
        <time>2022-04-15T14:12:20.000Z</time>
      </trkpt>
      <trkpt lat="50.41235" lon="3.40709">
        <ele>18</ele>
        <time>2022-04-15T14:12:22.144Z</time>
      </trkpt>
      <trkpt lat="50.41237" lon="3.40698">
        <ele>18</ele>
        <time>2022-04-15T14:12:23.705Z</time>
      </trkpt>
      <trkpt lat="50.4124" lon="3.4069">
        <ele>18</ele>
        <time>2022-04-15T14:12:25.025Z</time>
      </trkpt>
      <trkpt lat="50.41244" lon="3.40681">
        <ele>18</ele>
        <time>2022-04-15T14:12:26.000Z</time>
      </trkpt>
      <trkpt lat="50.41247" lon="3.40673">
        <ele>18</ele>
        <time>2022-04-15T14:12:27.947Z</time>
      </trkpt>
      <trkpt lat="50.4125" lon="3.40661">
        <ele>18</ele>
        <time>2022-04-15T14:12:30.548Z</time>
      </trkpt>
      <trkpt lat="50.41254" lon="3.40656">
        <ele>18</ele>
        <time>2022-04-15T14:12:31.926Z</time>
      </trkpt>
      <trkpt lat="50.41255" lon="3.40646">
        <ele>18</ele>
        <time>2022-04-15T14:12:34.011Z</time>
      </trkpt>
      <trkpt lat="50.41258" lon="3.40635">
        <ele>18</ele>
        <time>2022-04-15T14:12:36.109Z</time>
      </trkpt>
      <trkpt lat="50.41262" lon="3.40626">
        <ele>18</ele>
        <time>2022-04-15T14:12:38.407Z</time>
      </trkpt>
      <trkpt lat="50.41266" lon="3.40618">
        <ele>18</ele>
        <time>2022-04-15T14:12:41.000Z</time>
      </trkpt>
      <trkpt lat="50.4127" lon="3.4061">
        <ele>18</ele>
        <time>2022-04-15T14:12:43.000Z</time>
      </trkpt>
      <trkpt lat="50.41275" lon="3.40604">
        <ele>18</ele>
        <time>2022-04-15T14:12:45.088Z</time>
      </trkpt>
      <trkpt lat="50.41282" lon="3.40592">
        <ele>17.8</ele>
        <time>2022-04-15T14:12:48.000Z</time>
      </trkpt>
      <trkpt lat="50.41288" lon="3.4058">
        <ele>17.6</ele>
        <time>2022-04-15T14:12:50.000Z</time>
      </trkpt>
      <trkpt lat="50.41294" lon="3.40571">
        <ele>17.4</ele>
        <time>2022-04-15T14:12:52.000Z</time>
      </trkpt>
      <trkpt lat="50.41298" lon="3.40563">
        <ele>17.3</ele>
        <time>2022-04-15T14:12:53.000Z</time>
      </trkpt>
      <trkpt lat="50.41302" lon="3.40554">
        <ele>17.1</ele>
        <time>2022-04-15T14:12:55.000Z</time>
      </trkpt>
      <trkpt lat="50.41307" lon="3.40545">
        <ele>17</ele>
        <time>2022-04-15T14:12:57.000Z</time>
      </trkpt>
      <trkpt lat="50.41312" lon="3.40537">
        <ele>17</ele>
        <time>2022-04-15T14:12:58.128Z</time>
      </trkpt>
      <trkpt lat="50.41315" lon="3.40532">
        <ele>17</ele>
        <time>2022-04-15T14:12:59.664Z</time>
      </trkpt>
      <trkpt lat="50.41319" lon="3.40525">
        <ele>17</ele>
        <time>2022-04-15T14:13:01.000Z</time>
      </trkpt>
      <trkpt lat="50.41324" lon="3.40517">
        <ele>17</ele>
        <time>2022-04-15T14:13:03.000Z</time>
      </trkpt>
      <trkpt lat="50.41328" lon="3.40509">
        <ele>17</ele>
        <time>2022-04-15T14:13:05.000Z</time>
      </trkpt>
      <trkpt lat="50.41332" lon="3.40503">
        <ele>17</ele>
        <time>2022-04-15T14:13:06.000Z</time>
      </trkpt>
      <trkpt lat="50.41337" lon="3.40494">
        <ele>17</ele>
        <time>2022-04-15T14:13:08.000Z</time>
      </trkpt>
      <trkpt lat="50.41348" lon="3.40475">
        <ele>17</ele>
        <time>2022-04-15T14:13:11.000Z</time>
      </trkpt>
      <trkpt lat="50.41353" lon="3.40467">
        <ele>17</ele>
        <time>2022-04-15T14:13:13.000Z</time>
      </trkpt>
      <trkpt lat="50.41357" lon="3.4046">
        <ele>17</ele>
        <time>2022-04-15T14:13:15.000Z</time>
      </trkpt>
      <trkpt lat="50.41363" lon="3.40448">
        <ele>17</ele>
        <time>2022-04-15T14:13:17.000Z</time>
      </trkpt>
      <trkpt lat="50.41367" lon="3.4044">
        <ele>17</ele>
        <time>2022-04-15T14:13:19.000Z</time>
      </trkpt>
      <trkpt lat="50.41375" lon="3.40432">
        <ele>17</ele>
        <time>2022-04-15T14:13:21.000Z</time>
      </trkpt>
      <trkpt lat="50.41379" lon="3.40421">
        <ele>17</ele>
        <time>2022-04-15T14:13:23.000Z</time>
      </trkpt>
      <trkpt lat="50.41382" lon="3.40416">
        <ele>17</ele>
        <time>2022-04-15T14:13:24.000Z</time>
      </trkpt>
      <trkpt lat="50.41386" lon="3.40408">
        <ele>17</ele>
        <time>2022-04-15T14:13:26.000Z</time>
      </trkpt>
      <trkpt lat="50.41394" lon="3.40397">
        <ele>17</ele>
        <time>2022-04-15T14:13:28.000Z</time>
      </trkpt>
      <trkpt lat="50.41396" lon="3.40391">
        <ele>17</ele>
        <time>2022-04-15T14:13:29.000Z</time>
      </trkpt>
      <trkpt lat="50.41401" lon="3.40383">
        <ele>17</ele>
        <time>2022-04-15T14:13:31.000Z</time>
      </trkpt>
      <trkpt lat="50.41405" lon="3.40378">
        <ele>17</ele>
        <time>2022-04-15T14:13:32.000Z</time>
      </trkpt>
      <trkpt lat="50.41409" lon="3.40373">
        <ele>17</ele>
        <time>2022-04-15T14:13:33.000Z</time>
      </trkpt>
      <trkpt lat="50.41412" lon="3.40368">
        <ele>17</ele>
        <time>2022-04-15T14:13:34.000Z</time>
      </trkpt>
      <trkpt lat="50.41417" lon="3.40357">
        <ele>17</ele>
        <time>2022-04-15T14:13:36.000Z</time>
      </trkpt>
      <trkpt lat="50.41422" lon="3.40347">
        <ele>17</ele>
        <time>2022-04-15T14:13:38.000Z</time>
      </trkpt>
      <trkpt lat="50.41426" lon="3.40342">
        <ele>17</ele>
        <time>2022-04-15T14:13:39.000Z</time>
      </trkpt>
      <trkpt lat="50.41429" lon="3.40337">
        <ele>17</ele>
        <time>2022-04-15T14:13:40.000Z</time>
      </trkpt>
      <trkpt lat="50.41434" lon="3.4033">
        <ele>17</ele>
        <time>2022-04-15T14:13:42.000Z</time>
      </trkpt>
      <trkpt lat="50.41438" lon="3.40324">
        <ele>17</ele>
        <time>2022-04-15T14:13:43.000Z</time>
      </trkpt>
      <trkpt lat="50.41441" lon="3.40318">
        <ele>17</ele>
        <time>2022-04-15T14:13:44.063Z</time>
      </trkpt>
      <trkpt lat="50.41444" lon="3.40313">
        <ele>17</ele>
        <time>2022-04-15T14:13:45.000Z</time>
      </trkpt>
      <trkpt lat="50.41449" lon="3.40304">
        <ele>17</ele>
        <time>2022-04-15T14:13:47.000Z</time>
      </trkpt>
      <trkpt lat="50.41455" lon="3.40294">
        <ele>17</ele>
        <time>2022-04-15T14:13:49.000Z</time>
      </trkpt>
      <trkpt lat="50.41458" lon="3.40285">
        <ele>17</ele>
        <time>2022-04-15T14:13:51.000Z</time>
      </trkpt>
      <trkpt lat="50.41463" lon="3.40276">
        <ele>17</ele>
        <time>2022-04-15T14:13:53.000Z</time>
      </trkpt>
      <trkpt lat="50.41467" lon="3.40267">
        <ele>17</ele>
        <time>2022-04-15T14:13:55.062Z</time>
      </trkpt>
      <trkpt lat="50.4147" lon="3.40259">
        <ele>17</ele>
        <time>2022-04-15T14:13:57.000Z</time>
      </trkpt>
      <trkpt lat="50.41476" lon="3.40252">
        <ele>17</ele>
        <time>2022-04-15T14:13:59.000Z</time>
      </trkpt>
      <trkpt lat="50.41481" lon="3.40242">
        <ele>17</ele>
        <time>2022-04-15T14:14:01.000Z</time>
      </trkpt>
      <trkpt lat="50.41486" lon="3.40232">
        <ele>17</ele>
        <time>2022-04-15T14:14:03.000Z</time>
      </trkpt>
      <trkpt lat="50.41491" lon="3.40224">
        <ele>17</ele>
        <time>2022-04-15T14:14:05.000Z</time>
      </trkpt>
      <trkpt lat="50.41496" lon="3.40214">
        <ele>17</ele>
        <time>2022-04-15T14:14:07.000Z</time>
      </trkpt>
      <trkpt lat="50.41501" lon="3.40207">
        <ele>17</ele>
        <time>2022-04-15T14:14:09.000Z</time>
      </trkpt>
      <trkpt lat="50.41503" lon="3.40198">
        <ele>17</ele>
        <time>2022-04-15T14:14:11.000Z</time>
      </trkpt>
      <trkpt lat="50.41501" lon="3.40189">
        <ele>17</ele>
        <time>2022-04-15T14:14:13.000Z</time>
      </trkpt>
      <trkpt lat="50.41498" lon="3.40177">
        <ele>17</ele>
        <time>2022-04-15T14:14:14.680Z</time>
      </trkpt>
      <trkpt lat="50.41495" lon="3.40166">
        <ele>17</ele>
        <time>2022-04-15T14:14:16.000Z</time>
      </trkpt>
      <trkpt lat="50.41492" lon="3.40149">
        <ele>17</ele>
        <time>2022-04-15T14:14:19.000Z</time>
      </trkpt>
      <trkpt lat="50.41492" lon="3.40138">
        <ele>17</ele>
        <time>2022-04-15T14:14:32.000Z</time>
      </trkpt>
      <trkpt lat="50.4149" lon="3.40119">
        <ele>17</ele>
        <time>2022-04-15T14:14:34.499Z</time>
      </trkpt>
      <trkpt lat="50.41489" lon="3.4011">
        <ele>17</ele>
        <time>2022-04-15T14:14:36.038Z</time>
      </trkpt>
      <trkpt lat="50.41489" lon="3.40103">
        <ele>17</ele>
        <time>2022-04-15T14:14:37.614Z</time>
      </trkpt>
      <trkpt lat="50.41487" lon="3.40095">
        <ele>17</ele>
        <time>2022-04-15T14:14:38.660Z</time>
      </trkpt>
      <trkpt lat="50.41485" lon="3.40081">
        <ele>17</ele>
        <time>2022-04-15T14:14:40.000Z</time>
      </trkpt>
      <trkpt lat="50.41482" lon="3.40067">
        <ele>17</ele>
        <time>2022-04-15T14:14:42.000Z</time>
      </trkpt>
      <trkpt lat="50.4148" lon="3.40058">
        <ele>17</ele>
        <time>2022-04-15T14:14:44.000Z</time>
      </trkpt>
      <trkpt lat="50.41478" lon="3.40048">
        <ele>17</ele>
        <time>2022-04-15T14:14:45.000Z</time>
      </trkpt>
      <trkpt lat="50.41475" lon="3.40036">
        <ele>17</ele>
        <time>2022-04-15T14:14:47.000Z</time>
      </trkpt>
      <trkpt lat="50.41476" lon="3.40023">
        <ele>17</ele>
        <time>2022-04-15T14:14:49.000Z</time>
      </trkpt>
      <trkpt lat="50.41471" lon="3.40013">
        <ele>17</ele>
        <time>2022-04-15T14:14:51.000Z</time>
      </trkpt>
      <trkpt lat="50.41469" lon="3.40007">
        <ele>17</ele>
        <time>2022-04-15T14:14:52.000Z</time>
      </trkpt>
      <trkpt lat="50.41467" lon="3.4">
        <ele>17</ele>
        <time>2022-04-15T14:14:53.000Z</time>
      </trkpt>
      <trkpt lat="50.41465" lon="3.39993">
        <ele>17</ele>
        <time>2022-04-15T14:14:54.000Z</time>
      </trkpt>
      <trkpt lat="50.41462" lon="3.39984">
        <ele>17</ele>
        <time>2022-04-15T14:14:55.000Z</time>
      </trkpt>
      <trkpt lat="50.41458" lon="3.39972">
        <ele>17</ele>
        <time>2022-04-15T14:14:57.000Z</time>
      </trkpt>
      <trkpt lat="50.41456" lon="3.39965">
        <ele>17</ele>
        <time>2022-04-15T14:14:58.000Z</time>
      </trkpt>
      <trkpt lat="50.41454" lon="3.39957">
        <ele>17</ele>
        <time>2022-04-15T14:14:59.000Z</time>
      </trkpt>
      <trkpt lat="50.41452" lon="3.39951">
        <ele>17</ele>
        <time>2022-04-15T14:15:00.000Z</time>
      </trkpt>
      <trkpt lat="50.4145" lon="3.39943">
        <ele>17</ele>
        <time>2022-04-15T14:15:01.000Z</time>
      </trkpt>
      <trkpt lat="50.41447" lon="3.39936">
        <ele>17</ele>
        <time>2022-04-15T14:15:02.000Z</time>
      </trkpt>
      <trkpt lat="50.41445" lon="3.3993">
        <ele>17</ele>
        <time>2022-04-15T14:15:03.000Z</time>
      </trkpt>
      <trkpt lat="50.41443" lon="3.39916">
        <ele>17</ele>
        <time>2022-04-15T14:15:05.000Z</time>
      </trkpt>
      <trkpt lat="50.41443" lon="3.39901">
        <ele>17</ele>
        <time>2022-04-15T14:15:07.000Z</time>
      </trkpt>
      <trkpt lat="50.41453" lon="3.39898">
        <ele>17</ele>
        <time>2022-04-15T14:15:09.000Z</time>
      </trkpt>
      <trkpt lat="50.41458" lon="3.39897">
        <ele>17</ele>
        <time>2022-04-15T14:15:10.000Z</time>
      </trkpt>
      <trkpt lat="50.41463" lon="3.39897">
        <ele>17</ele>
        <time>2022-04-15T14:15:11.000Z</time>
      </trkpt>
      <trkpt lat="50.41469" lon="3.39898">
        <ele>17</ele>
        <time>2022-04-15T14:15:12.476Z</time>
      </trkpt>
      <trkpt lat="50.41475" lon="3.39897">
        <ele>17</ele>
        <time>2022-04-15T14:15:14.000Z</time>
      </trkpt>
      <trkpt lat="50.4148" lon="3.39898">
        <ele>16.9</ele>
        <time>2022-04-15T14:15:15.000Z</time>
      </trkpt>
      <trkpt lat="50.41484" lon="3.39897">
        <ele>16.9</ele>
        <time>2022-04-15T14:15:16.012Z</time>
      </trkpt>
      <trkpt lat="50.41489" lon="3.39896">
        <ele>16.8</ele>
        <time>2022-04-15T14:15:17.000Z</time>
      </trkpt>
      <trkpt lat="50.41497" lon="3.39895">
        <ele>16.8</ele>
        <time>2022-04-15T14:15:19.000Z</time>
      </trkpt>
      <trkpt lat="50.41506" lon="3.39892">
        <ele>16.7</ele>
        <time>2022-04-15T14:15:21.376Z</time>
      </trkpt>
      <trkpt lat="50.41511" lon="3.39892">
        <ele>16.5</ele>
        <time>2022-04-15T14:15:22.621Z</time>
      </trkpt>
      <trkpt lat="50.41519" lon="3.39889">
        <ele>16.3</ele>
        <time>2022-04-15T14:15:24.894Z</time>
      </trkpt>
      <trkpt lat="50.41523" lon="3.39887">
        <ele>16.2</ele>
        <time>2022-04-15T14:15:26.115Z</time>
      </trkpt>
      <trkpt lat="50.4153" lon="3.39885">
        <ele>16</ele>
        <time>2022-04-15T14:15:27.733Z</time>
      </trkpt>
      <trkpt lat="50.41535" lon="3.39885">
        <ele>16</ele>
        <time>2022-04-15T14:15:28.915Z</time>
      </trkpt>
      <trkpt lat="50.41541" lon="3.39885">
        <ele>16</ele>
        <time>2022-04-15T14:15:29.952Z</time>
      </trkpt>
      <trkpt lat="50.41548" lon="3.39881">
        <ele>16</ele>
        <time>2022-04-15T14:15:32.000Z</time>
      </trkpt>
      <trkpt lat="50.41561" lon="3.39879">
        <ele>16</ele>
        <time>2022-04-15T14:15:35.073Z</time>
      </trkpt>
      <trkpt lat="50.41567" lon="3.39877">
        <ele>16</ele>
        <time>2022-04-15T14:15:36.000Z</time>
      </trkpt>
      <trkpt lat="50.41575" lon="3.39876">
        <ele>16</ele>
        <time>2022-04-15T14:15:38.000Z</time>
      </trkpt>
      <trkpt lat="50.41579" lon="3.39875">
        <ele>16</ele>
        <time>2022-04-15T14:15:39.000Z</time>
      </trkpt>
      <trkpt lat="50.41583" lon="3.39871">
        <ele>16</ele>
        <time>2022-04-15T14:15:41.000Z</time>
      </trkpt>
      <trkpt lat="50.41588" lon="3.39868">
        <ele>16</ele>
        <time>2022-04-15T14:15:42.130Z</time>
      </trkpt>
      <trkpt lat="50.41595" lon="3.39865">
        <ele>16</ele>
        <time>2022-04-15T14:15:43.371Z</time>
      </trkpt>
      <trkpt lat="50.41601" lon="3.39863">
        <ele>16</ele>
        <time>2022-04-15T14:15:44.626Z</time>
      </trkpt>
      <trkpt lat="50.41606" lon="3.39859">
        <ele>16</ele>
        <time>2022-04-15T14:15:45.791Z</time>
      </trkpt>
      <trkpt lat="50.4161" lon="3.39855">
        <ele>16</ele>
        <time>2022-04-15T14:15:46.871Z</time>
      </trkpt>
      <trkpt lat="50.41615" lon="3.39852">
        <ele>16</ele>
        <time>2022-04-15T14:15:48.000Z</time>
      </trkpt>
      <trkpt lat="50.41621" lon="3.39847">
        <ele>16</ele>
        <time>2022-04-15T14:15:50.000Z</time>
      </trkpt>
      <trkpt lat="50.41627" lon="3.39842">
        <ele>16</ele>
        <time>2022-04-15T14:15:55.000Z</time>
      </trkpt>
      <trkpt lat="50.41631" lon="3.39838">
        <ele>16</ele>
        <time>2022-04-15T14:15:57.000Z</time>
      </trkpt>
      <trkpt lat="50.41637" lon="3.39833">
        <ele>16</ele>
        <time>2022-04-15T14:15:59.635Z</time>
      </trkpt>
      <trkpt lat="50.41643" lon="3.39828">
        <ele>16</ele>
        <time>2022-04-15T14:16:02.113Z</time>
      </trkpt>
      <trkpt lat="50.41649" lon="3.39821">
        <ele>16</ele>
        <time>2022-04-15T14:16:04.829Z</time>
      </trkpt>
      <trkpt lat="50.41655" lon="3.39815">
        <ele>16</ele>
        <time>2022-04-15T14:16:07.000Z</time>
      </trkpt>
      <trkpt lat="50.4166" lon="3.39809">
        <ele>16</ele>
        <time>2022-04-15T14:16:09.255Z</time>
      </trkpt>
      <trkpt lat="50.41667" lon="3.39803">
        <ele>16</ele>
        <time>2022-04-15T14:16:11.330Z</time>
      </trkpt>
      <trkpt lat="50.41671" lon="3.39798">
        <ele>16</ele>
        <time>2022-04-15T14:16:12.849Z</time>
      </trkpt>
      <trkpt lat="50.41677" lon="3.39792">
        <ele>16</ele>
        <time>2022-04-15T14:16:15.192Z</time>
      </trkpt>
      <trkpt lat="50.41682" lon="3.39787">
        <ele>16</ele>
        <time>2022-04-15T14:16:16.893Z</time>
      </trkpt>
      <trkpt lat="50.4169" lon="3.39779">
        <ele>16</ele>
        <time>2022-04-15T14:16:19.470Z</time>
      </trkpt>
      <trkpt lat="50.41694" lon="3.39775">
        <ele>16</ele>
        <time>2022-04-15T14:16:20.531Z</time>
      </trkpt>
      <trkpt lat="50.41698" lon="3.3977">
        <ele>16</ele>
        <time>2022-04-15T14:16:21.641Z</time>
      </trkpt>
      <trkpt lat="50.41703" lon="3.39767">
        <ele>16</ele>
        <time>2022-04-15T14:16:23.888Z</time>
      </trkpt>
      <trkpt lat="50.41707" lon="3.39764">
        <ele>16</ele>
        <time>2022-04-15T14:16:25.011Z</time>
      </trkpt>
      <trkpt lat="50.41713" lon="3.39759">
        <ele>16</ele>
        <time>2022-04-15T14:16:26.932Z</time>
      </trkpt>
      <trkpt lat="50.4172" lon="3.39752">
        <ele>16</ele>
        <time>2022-04-15T14:16:29.510Z</time>
      </trkpt>
      <trkpt lat="50.41726" lon="3.39745">
        <ele>16.1</ele>
        <time>2022-04-15T14:16:31.000Z</time>
      </trkpt>
      <trkpt lat="50.41731" lon="3.3974">
        <ele>16.2</ele>
        <time>2022-04-15T14:16:32.510Z</time>
      </trkpt>
      <trkpt lat="50.41736" lon="3.39735">
        <ele>16.2</ele>
        <time>2022-04-15T14:16:33.750Z</time>
      </trkpt>
      <trkpt lat="50.41741" lon="3.39731">
        <ele>16.2</ele>
        <time>2022-04-15T14:16:35.892Z</time>
      </trkpt>
      <trkpt lat="50.41748" lon="3.39726">
        <ele>16.1</ele>
        <time>2022-04-15T14:16:37.068Z</time>
      </trkpt>
      <trkpt lat="50.41754" lon="3.3972">
        <ele>16</ele>
        <time>2022-04-15T14:16:39.411Z</time>
      </trkpt>
      <trkpt lat="50.41758" lon="3.39717">
        <ele>16</ele>
        <time>2022-04-15T14:16:40.428Z</time>
      </trkpt>
      <trkpt lat="50.41765" lon="3.3971">
        <ele>16</ele>
        <time>2022-04-15T14:16:43.000Z</time>
      </trkpt>
      <trkpt lat="50.4177" lon="3.39706">
        <ele>16</ele>
        <time>2022-04-15T14:16:44.990Z</time>
      </trkpt>
      <trkpt lat="50.41776" lon="3.397">
        <ele>16</ele>
        <time>2022-04-15T14:16:47.153Z</time>
      </trkpt>
      <trkpt lat="50.41783" lon="3.39693">
        <ele>16</ele>
        <time>2022-04-15T14:16:49.000Z</time>
      </trkpt>
      <trkpt lat="50.41788" lon="3.39689">
        <ele>16</ele>
        <time>2022-04-15T14:16:50.000Z</time>
      </trkpt>
      <trkpt lat="50.41795" lon="3.39684">
        <ele>16</ele>
        <time>2022-04-15T14:16:52.670Z</time>
      </trkpt>
      <trkpt lat="50.418" lon="3.39679">
        <ele>16</ele>
        <time>2022-04-15T14:16:55.000Z</time>
      </trkpt>
      <trkpt lat="50.41805" lon="3.39675">
        <ele>16</ele>
        <time>2022-04-15T14:16:56.869Z</time>
      </trkpt>
      <trkpt lat="50.41811" lon="3.39671">
        <ele>16</ele>
        <time>2022-04-15T14:16:59.000Z</time>
      </trkpt>
      <trkpt lat="50.41816" lon="3.39667">
        <ele>16</ele>
        <time>2022-04-15T14:17:01.000Z</time>
      </trkpt>
      <trkpt lat="50.4182" lon="3.39663">
        <ele>16</ele>
        <time>2022-04-15T14:17:03.000Z</time>
      </trkpt>
      <trkpt lat="50.41824" lon="3.39659">
        <ele>16</ele>
        <time>2022-04-15T14:17:03.990Z</time>
      </trkpt>
      <trkpt lat="50.4183" lon="3.39654">
        <ele>16</ele>
        <time>2022-04-15T14:17:06.431Z</time>
      </trkpt>
      <trkpt lat="50.41837" lon="3.39648">
        <ele>16</ele>
        <time>2022-04-15T14:17:09.000Z</time>
      </trkpt>
      <trkpt lat="50.41841" lon="3.39643">
        <ele>16</ele>
        <time>2022-04-15T14:17:10.000Z</time>
      </trkpt>
      <trkpt lat="50.41845" lon="3.39639">
        <ele>16</ele>
        <time>2022-04-15T14:17:11.603Z</time>
      </trkpt>
      <trkpt lat="50.4185" lon="3.39634">
        <ele>16</ele>
        <time>2022-04-15T14:17:13.147Z</time>
      </trkpt>
      <trkpt lat="50.41856" lon="3.3963">
        <ele>16</ele>
        <time>2022-04-15T14:17:15.087Z</time>
      </trkpt>
      <trkpt lat="50.41865" lon="3.3962">
        <ele>16</ele>
        <time>2022-04-15T14:17:17.969Z</time>
      </trkpt>
      <trkpt lat="50.4187" lon="3.39616">
        <ele>16</ele>
        <time>2022-04-15T14:17:20.000Z</time>
      </trkpt>
      <trkpt lat="50.41876" lon="3.39611">
        <ele>16</ele>
        <time>2022-04-15T14:17:22.150Z</time>
      </trkpt>
      <trkpt lat="50.4188" lon="3.39606">
        <ele>16</ele>
        <time>2022-04-15T14:17:23.989Z</time>
      </trkpt>
      <trkpt lat="50.41885" lon="3.39602">
        <ele>16</ele>
        <time>2022-04-15T14:17:25.008Z</time>
      </trkpt>
      <trkpt lat="50.4189" lon="3.39595">
        <ele>16</ele>
        <time>2022-04-15T14:17:27.749Z</time>
      </trkpt>
      <trkpt lat="50.41896" lon="3.3959">
        <ele>16</ele>
        <time>2022-04-15T14:17:29.991Z</time>
      </trkpt>
      <trkpt lat="50.419" lon="3.39587">
        <ele>16</ele>
        <time>2022-04-15T14:17:31.072Z</time>
      </trkpt>
      <trkpt lat="50.41905" lon="3.39583">
        <ele>16</ele>
        <time>2022-04-15T14:17:32.950Z</time>
      </trkpt>
      <trkpt lat="50.4191" lon="3.39578">
        <ele>16</ele>
        <time>2022-04-15T14:17:34.231Z</time>
      </trkpt>
      <trkpt lat="50.41914" lon="3.39574">
        <ele>16</ele>
        <time>2022-04-15T14:17:35.470Z</time>
      </trkpt>
      <trkpt lat="50.41918" lon="3.3957">
        <ele>16</ele>
        <time>2022-04-15T14:17:36.949Z</time>
      </trkpt>
      <trkpt lat="50.41924" lon="3.39566">
        <ele>16</ele>
        <time>2022-04-15T14:17:39.194Z</time>
      </trkpt>
      <trkpt lat="50.4193" lon="3.39561">
        <ele>16</ele>
        <time>2022-04-15T14:17:40.651Z</time>
      </trkpt>
      <trkpt lat="50.41938" lon="3.39555">
        <ele>16</ele>
        <time>2022-04-15T14:17:42.951Z</time>
      </trkpt>
      <trkpt lat="50.41946" lon="3.39549">
        <ele>16.2</ele>
        <time>2022-04-15T14:17:45.931Z</time>
      </trkpt>
      <trkpt lat="50.41952" lon="3.39545">
        <ele>16.3</ele>
        <time>2022-04-15T14:17:49.000Z</time>
      </trkpt>
      <trkpt lat="50.41956" lon="3.39538">
        <ele>16.4</ele>
        <time>2022-04-15T14:17:51.791Z</time>
      </trkpt>
      <trkpt lat="50.4196" lon="3.39535">
        <ele>16.3</ele>
        <time>2022-04-15T14:17:54.047Z</time>
      </trkpt>
      <trkpt lat="50.41966" lon="3.39529">
        <ele>16.2</ele>
        <time>2022-04-15T14:17:56.012Z</time>
      </trkpt>
      <trkpt lat="50.41971" lon="3.39524">
        <ele>16</ele>
        <time>2022-04-15T14:17:58.000Z</time>
      </trkpt>
      <trkpt lat="50.41976" lon="3.39518">
        <ele>16</ele>
        <time>2022-04-15T14:18:00.151Z</time>
      </trkpt>
      <trkpt lat="50.41981" lon="3.39514">
        <ele>16</ele>
        <time>2022-04-15T14:18:01.648Z</time>
      </trkpt>
      <trkpt lat="50.41989" lon="3.39506">
        <ele>16</ele>
        <time>2022-04-15T14:18:04.012Z</time>
      </trkpt>
      <trkpt lat="50.41993" lon="3.39501">
        <ele>16</ele>
        <time>2022-04-15T14:18:05.631Z</time>
      </trkpt>
      <trkpt lat="50.41998" lon="3.39496">
        <ele>16</ele>
        <time>2022-04-15T14:18:08.000Z</time>
      </trkpt>
      <trkpt lat="50.42002" lon="3.39492">
        <ele>16</ele>
        <time>2022-04-15T14:18:09.909Z</time>
      </trkpt>
      <trkpt lat="50.42006" lon="3.39488">
        <ele>16</ele>
        <time>2022-04-15T14:18:12.373Z</time>
      </trkpt>
      <trkpt lat="50.4201" lon="3.39482">
        <ele>16</ele>
        <time>2022-04-15T14:18:14.949Z</time>
      </trkpt>
      <trkpt lat="50.42019" lon="3.39478">
        <ele>16</ele>
        <time>2022-04-15T14:28:18.768Z</time>
      </trkpt>
      <trkpt lat="50.42031" lon="3.39465">
        <ele>16</ele>
        <time>2022-04-15T14:28:22.268Z</time>
      </trkpt>
      <trkpt lat="50.42041" lon="3.39456">
        <ele>16</ele>
        <time>2022-04-15T14:28:24.243Z</time>
      </trkpt>
      <trkpt lat="50.42051" lon="3.39447">
        <ele>16</ele>
        <time>2022-04-15T14:28:26.193Z</time>
      </trkpt>
      <trkpt lat="50.4206" lon="3.39437">
        <ele>16</ele>
        <time>2022-04-15T14:28:28.124Z</time>
      </trkpt>
      <trkpt lat="50.42069" lon="3.39429">
        <ele>16</ele>
        <time>2022-04-15T14:28:30.000Z</time>
      </trkpt>
      <trkpt lat="50.42074" lon="3.39424">
        <ele>16</ele>
        <time>2022-04-15T14:28:32.000Z</time>
      </trkpt>
      <trkpt lat="50.42079" lon="3.39418">
        <ele>16</ele>
        <time>2022-04-15T14:28:34.120Z</time>
      </trkpt>
      <trkpt lat="50.42087" lon="3.39411">
        <ele>16</ele>
        <time>2022-04-15T14:28:36.879Z</time>
      </trkpt>
      <trkpt lat="50.4209" lon="3.39407">
        <ele>16</ele>
        <time>2022-04-15T14:28:37.820Z</time>
      </trkpt>
      <trkpt lat="50.42095" lon="3.394">
        <ele>16</ele>
        <time>2022-04-15T14:28:40.798Z</time>
      </trkpt>
      <trkpt lat="50.42102" lon="3.39395">
        <ele>16</ele>
        <time>2022-04-15T14:28:43.000Z</time>
      </trkpt>
      <trkpt lat="50.42107" lon="3.39391">
        <ele>16</ele>
        <time>2022-04-15T14:28:45.940Z</time>
      </trkpt>
      <trkpt lat="50.42112" lon="3.39388">
        <ele>16</ele>
        <time>2022-04-15T14:28:48.000Z</time>
      </trkpt>
      <trkpt lat="50.42117" lon="3.39383">
        <ele>16</ele>
        <time>2022-04-15T14:28:50.000Z</time>
      </trkpt>
      <trkpt lat="50.42123" lon="3.39379">
        <ele>16</ele>
        <time>2022-04-15T14:28:52.000Z</time>
      </trkpt>
      <trkpt lat="50.42129" lon="3.39372">
        <ele>16</ele>
        <time>2022-04-15T14:28:54.000Z</time>
      </trkpt>
      <trkpt lat="50.42135" lon="3.39365">
        <ele>16</ele>
        <time>2022-04-15T14:28:56.220Z</time>
      </trkpt>
      <trkpt lat="50.42139" lon="3.39361">
        <ele>16</ele>
        <time>2022-04-15T14:28:57.618Z</time>
      </trkpt>
      <trkpt lat="50.42145" lon="3.39357">
        <ele>15.8</ele>
        <time>2022-04-15T14:29:00.000Z</time>
      </trkpt>
      <trkpt lat="50.42149" lon="3.39352">
        <ele>15.8</ele>
        <time>2022-04-15T14:29:02.000Z</time>
      </trkpt>
      <trkpt lat="50.42155" lon="3.39347">
        <ele>15.7</ele>
        <time>2022-04-15T14:29:04.278Z</time>
      </trkpt>
      <trkpt lat="50.4216" lon="3.3934">
        <ele>15.8</ele>
        <time>2022-04-15T14:29:06.542Z</time>
      </trkpt>
      <trkpt lat="50.42167" lon="3.39336">
        <ele>15.9</ele>
        <time>2022-04-15T14:29:09.017Z</time>
      </trkpt>
      <trkpt lat="50.42173" lon="3.39332">
        <ele>16</ele>
        <time>2022-04-15T14:29:10.977Z</time>
      </trkpt>
      <trkpt lat="50.42181" lon="3.39325">
        <ele>16</ele>
        <time>2022-04-15T14:29:13.976Z</time>
      </trkpt>
      <trkpt lat="50.42186" lon="3.39321">
        <ele>16</ele>
        <time>2022-04-15T14:29:15.937Z</time>
      </trkpt>
      <trkpt lat="50.42191" lon="3.39314">
        <ele>16</ele>
        <time>2022-04-15T14:29:17.900Z</time>
      </trkpt>
      <trkpt lat="50.42195" lon="3.3931">
        <ele>16</ele>
        <time>2022-04-15T14:29:20.000Z</time>
      </trkpt>
      <trkpt lat="50.42199" lon="3.39307">
        <ele>16</ele>
        <time>2022-04-15T14:29:21.901Z</time>
      </trkpt>
      <trkpt lat="50.42206" lon="3.39301">
        <ele>16</ele>
        <time>2022-04-15T14:29:24.780Z</time>
      </trkpt>
      <trkpt lat="50.42211" lon="3.39297">
        <ele>16</ele>
        <time>2022-04-15T14:29:27.000Z</time>
      </trkpt>
      <trkpt lat="50.42216" lon="3.39294">
        <ele>16</ele>
        <time>2022-04-15T14:29:29.000Z</time>
      </trkpt>
      <trkpt lat="50.4222" lon="3.39289">
        <ele>16</ele>
        <time>2022-04-15T14:29:31.000Z</time>
      </trkpt>
      <trkpt lat="50.42224" lon="3.39284">
        <ele>16</ele>
        <time>2022-04-15T14:29:33.499Z</time>
      </trkpt>
      <trkpt lat="50.4223" lon="3.39279">
        <ele>16</ele>
        <time>2022-04-15T14:29:35.980Z</time>
      </trkpt>
      <trkpt lat="50.42236" lon="3.39274">
        <ele>16</ele>
        <time>2022-04-15T14:29:38.000Z</time>
      </trkpt>
      <trkpt lat="50.42241" lon="3.3927">
        <ele>16</ele>
        <time>2022-04-15T14:29:40.000Z</time>
      </trkpt>
      <trkpt lat="50.42248" lon="3.39263">
        <ele>16</ele>
        <time>2022-04-15T14:29:43.141Z</time>
      </trkpt>
      <trkpt lat="50.42253" lon="3.39258">
        <ele>16</ele>
        <time>2022-04-15T14:29:45.000Z</time>
      </trkpt>
      <trkpt lat="50.42258" lon="3.39252">
        <ele>16</ele>
        <time>2022-04-15T14:29:48.000Z</time>
      </trkpt>
      <trkpt lat="50.42264" lon="3.39249">
        <ele>16</ele>
        <time>2022-04-15T14:29:50.000Z</time>
      </trkpt>
      <trkpt lat="50.4227" lon="3.3925">
        <ele>16</ele>
        <time>2022-04-15T14:29:53.000Z</time>
      </trkpt>
      <trkpt lat="50.42274" lon="3.3925">
        <ele>16</ele>
        <time>2022-04-15T14:29:55.000Z</time>
      </trkpt>
      <trkpt lat="50.4228" lon="3.39251">
        <ele>16</ele>
        <time>2022-04-15T14:29:57.000Z</time>
      </trkpt>
      <trkpt lat="50.42286" lon="3.39253">
        <ele>16.2</ele>
        <time>2022-04-15T14:29:59.076Z</time>
      </trkpt>
      <trkpt lat="50.42292" lon="3.39255">
        <ele>16.4</ele>
        <time>2022-04-15T14:30:02.078Z</time>
      </trkpt>
      <trkpt lat="50.42299" lon="3.39256">
        <ele>16.7</ele>
        <time>2022-04-15T14:30:04.681Z</time>
      </trkpt>
      <trkpt lat="50.42305" lon="3.39258">
        <ele>17</ele>
        <time>2022-04-15T14:30:07.000Z</time>
      </trkpt>
      <trkpt lat="50.4231" lon="3.3926">
        <ele>16.9</ele>
        <time>2022-04-15T14:30:09.998Z</time>
      </trkpt>
      <trkpt lat="50.42313" lon="3.39252">
        <ele>17</ele>
        <time>2022-04-15T14:30:12.863Z</time>
      </trkpt>
      <trkpt lat="50.42312" lon="3.39244">
        <ele>17</ele>
        <time>2022-04-15T14:30:17.000Z</time>
      </trkpt>
      <trkpt lat="50.42317" lon="3.39234">
        <ele>17</ele>
        <time>2022-04-15T14:30:22.000Z</time>
      </trkpt>
      <trkpt lat="50.42322" lon="3.39228">
        <ele>17</ele>
        <time>2022-04-15T14:30:25.000Z</time>
      </trkpt>
      <trkpt lat="50.42325" lon="3.39222">
        <ele>17</ele>
        <time>2022-04-15T14:30:27.120Z</time>
      </trkpt>
      <trkpt lat="50.42331" lon="3.39226">
        <ele>17</ele>
        <time>2022-04-15T14:30:30.000Z</time>
      </trkpt>
      <trkpt lat="50.42333" lon="3.39234">
        <ele>17</ele>
        <time>2022-04-15T14:30:31.978Z</time>
      </trkpt>
      <trkpt lat="50.42338" lon="3.39227">
        <ele>16.8</ele>
        <time>2022-04-15T14:30:35.000Z</time>
      </trkpt>
      <trkpt lat="50.4234" lon="3.39221">
        <ele>16.8</ele>
        <time>2022-04-15T14:30:37.000Z</time>
      </trkpt>
      <trkpt lat="50.42343" lon="3.39211">
        <ele>16.8</ele>
        <time>2022-04-15T14:30:40.000Z</time>
      </trkpt>
      <trkpt lat="50.42345" lon="3.39204">
        <ele>16.9</ele>
        <time>2022-04-15T14:30:41.902Z</time>
      </trkpt>
      <trkpt lat="50.42348" lon="3.39195">
        <ele>17</ele>
        <time>2022-04-15T14:30:43.000Z</time>
      </trkpt>
      <trkpt lat="50.42354" lon="3.39182">
        <ele>17</ele>
        <time>2022-04-15T14:30:45.000Z</time>
      </trkpt>
      <trkpt lat="50.42357" lon="3.39176">
        <ele>17</ele>
        <time>2022-04-15T14:30:46.000Z</time>
      </trkpt>
      <trkpt lat="50.4236" lon="3.39168">
        <ele>17</ele>
        <time>2022-04-15T14:30:47.456Z</time>
      </trkpt>
      <trkpt lat="50.42366" lon="3.39157">
        <ele>16.8</ele>
        <time>2022-04-15T14:30:49.097Z</time>
      </trkpt>
      <trkpt lat="50.42372" lon="3.39143">
        <ele>16.6</ele>
        <time>2022-04-15T14:30:51.000Z</time>
      </trkpt>
      <trkpt lat="50.42376" lon="3.39132">
        <ele>16.6</ele>
        <time>2022-04-15T14:30:53.000Z</time>
      </trkpt>
      <trkpt lat="50.42382" lon="3.39118">
        <ele>16.8</ele>
        <time>2022-04-15T14:30:55.000Z</time>
      </trkpt>
      <trkpt lat="50.42386" lon="3.39111">
        <ele>17</ele>
        <time>2022-04-15T14:30:56.000Z</time>
      </trkpt>
      <trkpt lat="50.4239" lon="3.39103">
        <ele>17</ele>
        <time>2022-04-15T14:30:57.000Z</time>
      </trkpt>
      <trkpt lat="50.42394" lon="3.3909">
        <ele>17</ele>
        <time>2022-04-15T14:30:59.000Z</time>
      </trkpt>
      <trkpt lat="50.42397" lon="3.39084">
        <ele>17</ele>
        <time>2022-04-15T14:31:00.000Z</time>
      </trkpt>
      <trkpt lat="50.424" lon="3.39078">
        <ele>17</ele>
        <time>2022-04-15T14:31:01.000Z</time>
      </trkpt>
      <trkpt lat="50.42403" lon="3.39071">
        <ele>17</ele>
        <time>2022-04-15T14:31:02.000Z</time>
      </trkpt>
      <trkpt lat="50.42406" lon="3.39065">
        <ele>17</ele>
        <time>2022-04-15T14:31:03.000Z</time>
      </trkpt>
      <trkpt lat="50.42409" lon="3.39058">
        <ele>17</ele>
        <time>2022-04-15T14:31:04.000Z</time>
      </trkpt>
      <trkpt lat="50.42416" lon="3.39046">
        <ele>17</ele>
        <time>2022-04-15T14:31:06.000Z</time>
      </trkpt>
      <trkpt lat="50.42422" lon="3.39036">
        <ele>17</ele>
        <time>2022-04-15T14:31:08.000Z</time>
      </trkpt>
      <trkpt lat="50.42425" lon="3.3903">
        <ele>17</ele>
        <time>2022-04-15T14:31:09.000Z</time>
      </trkpt>
      <trkpt lat="50.42431" lon="3.39022">
        <ele>17</ele>
        <time>2022-04-15T14:31:11.000Z</time>
      </trkpt>
      <trkpt lat="50.42436" lon="3.39016">
        <ele>17</ele>
        <time>2022-04-15T14:31:13.000Z</time>
      </trkpt>
      <trkpt lat="50.42441" lon="3.3901">
        <ele>17</ele>
        <time>2022-04-15T14:31:16.000Z</time>
      </trkpt>
      <trkpt lat="50.42445" lon="3.39005">
        <ele>17</ele>
        <time>2022-04-15T14:31:18.000Z</time>
      </trkpt>
      <trkpt lat="50.42448" lon="3.39">
        <ele>17</ele>
        <time>2022-04-15T14:31:20.000Z</time>
      </trkpt>
      <trkpt lat="50.42453" lon="3.38993">
        <ele>17</ele>
        <time>2022-04-15T14:31:22.000Z</time>
      </trkpt>
      <trkpt lat="50.42458" lon="3.38987">
        <ele>17</ele>
        <time>2022-04-15T14:31:24.000Z</time>
      </trkpt>
      <trkpt lat="50.42463" lon="3.3898">
        <ele>17</ele>
        <time>2022-04-15T14:31:26.000Z</time>
      </trkpt>
      <trkpt lat="50.42469" lon="3.38974">
        <ele>17</ele>
        <time>2022-04-15T14:31:28.000Z</time>
      </trkpt>
      <trkpt lat="50.42474" lon="3.38967">
        <ele>17</ele>
        <time>2022-04-15T14:31:30.000Z</time>
      </trkpt>
      <trkpt lat="50.4248" lon="3.3896">
        <ele>17</ele>
        <time>2022-04-15T14:31:32.000Z</time>
      </trkpt>
      <trkpt lat="50.42486" lon="3.38955">
        <ele>17.1</ele>
        <time>2022-04-15T14:31:34.000Z</time>
      </trkpt>
      <trkpt lat="50.42492" lon="3.38949">
        <ele>17.5</ele>
        <time>2022-04-15T14:31:36.000Z</time>
      </trkpt>
      <trkpt lat="50.42498" lon="3.38944">
        <ele>17.9</ele>
        <time>2022-04-15T14:31:38.000Z</time>
      </trkpt>
      <trkpt lat="50.42505" lon="3.38939">
        <ele>17.9</ele>
        <time>2022-04-15T14:31:40.000Z</time>
      </trkpt>
      <trkpt lat="50.42512" lon="3.38934">
        <ele>17.7</ele>
        <time>2022-04-15T14:31:42.000Z</time>
      </trkpt>
      <trkpt lat="50.42517" lon="3.3893">
        <ele>17.7</ele>
        <time>2022-04-15T14:31:44.000Z</time>
      </trkpt>
      <trkpt lat="50.42524" lon="3.38924">
        <ele>17.8</ele>
        <time>2022-04-15T14:31:46.000Z</time>
      </trkpt>
      <trkpt lat="50.42529" lon="3.38919">
        <ele>18</ele>
        <time>2022-04-15T14:31:48.000Z</time>
      </trkpt>
      <trkpt lat="50.42536" lon="3.38915">
        <ele>18.3</ele>
        <time>2022-04-15T14:31:50.000Z</time>
      </trkpt>
      <trkpt lat="50.42543" lon="3.38909">
        <ele>18.7</ele>
        <time>2022-04-15T14:31:52.312Z</time>
      </trkpt>
      <trkpt lat="50.4255" lon="3.38904">
        <ele>18.9</ele>
        <time>2022-04-15T14:31:54.740Z</time>
      </trkpt>
      <trkpt lat="50.42557" lon="3.38899">
        <ele>19</ele>
        <time>2022-04-15T14:31:57.000Z</time>
      </trkpt>
      <trkpt lat="50.42564" lon="3.38895">
        <ele>19.2</ele>
        <time>2022-04-15T14:31:59.000Z</time>
      </trkpt>
      <trkpt lat="50.42569" lon="3.38894">
        <ele>19.4</ele>
        <time>2022-04-15T14:32:01.000Z</time>
      </trkpt>
      <trkpt lat="50.42575" lon="3.38891">
        <ele>19.6</ele>
        <time>2022-04-15T14:32:03.000Z</time>
      </trkpt>
      <trkpt lat="50.4258" lon="3.38889">
        <ele>19.9</ele>
        <time>2022-04-15T14:32:05.000Z</time>
      </trkpt>
      <trkpt lat="50.42586" lon="3.38887">
        <ele>20</ele>
        <time>2022-04-15T14:32:07.000Z</time>
      </trkpt>
      <trkpt lat="50.42592" lon="3.38884">
        <ele>20.1</ele>
        <time>2022-04-15T14:32:09.000Z</time>
      </trkpt>
      <trkpt lat="50.42598" lon="3.38881">
        <ele>20.1</ele>
        <time>2022-04-15T14:32:11.000Z</time>
      </trkpt>
      <trkpt lat="50.42604" lon="3.38878">
        <ele>20.3</ele>
        <time>2022-04-15T14:32:13.000Z</time>
      </trkpt>
      <trkpt lat="50.4261" lon="3.38876">
        <ele>20.4</ele>
        <time>2022-04-15T14:32:15.000Z</time>
      </trkpt>
      <trkpt lat="50.42615" lon="3.38873">
        <ele>20.6</ele>
        <time>2022-04-15T14:32:17.000Z</time>
      </trkpt>
      <trkpt lat="50.42621" lon="3.38871">
        <ele>20.8</ele>
        <time>2022-04-15T14:32:19.000Z</time>
      </trkpt>
      <trkpt lat="50.42626" lon="3.38869">
        <ele>20.9</ele>
        <time>2022-04-15T14:32:21.000Z</time>
      </trkpt>
      <trkpt lat="50.42632" lon="3.38867">
        <ele>20.9</ele>
        <time>2022-04-15T14:32:23.000Z</time>
      </trkpt>
      <trkpt lat="50.42638" lon="3.38865">
        <ele>21</ele>
        <time>2022-04-15T14:32:25.000Z</time>
      </trkpt>
      <trkpt lat="50.42644" lon="3.38864">
        <ele>21</ele>
        <time>2022-04-15T14:32:27.000Z</time>
      </trkpt>
      <trkpt lat="50.4265" lon="3.38862">
        <ele>21</ele>
        <time>2022-04-15T14:32:29.000Z</time>
      </trkpt>
      <trkpt lat="50.42656" lon="3.3886">
        <ele>21</ele>
        <time>2022-04-15T14:32:31.000Z</time>
      </trkpt>
      <trkpt lat="50.42662" lon="3.38857">
        <ele>20.9</ele>
        <time>2022-04-15T14:32:33.000Z</time>
      </trkpt>
      <trkpt lat="50.42667" lon="3.38855">
        <ele>20.8</ele>
        <time>2022-04-15T14:32:35.000Z</time>
      </trkpt>
      <trkpt lat="50.42673" lon="3.38852">
        <ele>20.4</ele>
        <time>2022-04-15T14:32:37.000Z</time>
      </trkpt>
      <trkpt lat="50.42678" lon="3.3885">
        <ele>20.2</ele>
        <time>2022-04-15T14:32:39.015Z</time>
      </trkpt>
      <trkpt lat="50.42685" lon="3.38847">
        <ele>19.8</ele>
        <time>2022-04-15T14:32:41.000Z</time>
      </trkpt>
      <trkpt lat="50.42692" lon="3.38844">
        <ele>19.5</ele>
        <time>2022-04-15T14:32:43.000Z</time>
      </trkpt>
      <trkpt lat="50.42697" lon="3.38843">
        <ele>19.3</ele>
        <time>2022-04-15T14:32:45.000Z</time>
      </trkpt>
      <trkpt lat="50.42702" lon="3.38841">
        <ele>19.1</ele>
        <time>2022-04-15T14:32:47.000Z</time>
      </trkpt>
      <trkpt lat="50.42709" lon="3.38839">
        <ele>19</ele>
        <time>2022-04-15T14:32:49.000Z</time>
      </trkpt>
      <trkpt lat="50.42715" lon="3.38835">
        <ele>19</ele>
        <time>2022-04-15T14:32:51.000Z</time>
      </trkpt>
      <trkpt lat="50.42721" lon="3.38832">
        <ele>19</ele>
        <time>2022-04-15T14:32:53.000Z</time>
      </trkpt>
      <trkpt lat="50.42728" lon="3.38829">
        <ele>19.2</ele>
        <time>2022-04-15T14:32:55.000Z</time>
      </trkpt>
      <trkpt lat="50.42734" lon="3.38826">
        <ele>19.5</ele>
        <time>2022-04-15T14:32:58.000Z</time>
      </trkpt>
      <trkpt lat="50.42739" lon="3.38824">
        <ele>19.8</ele>
        <time>2022-04-15T14:33:01.000Z</time>
      </trkpt>
      <trkpt lat="50.42746" lon="3.38822">
        <ele>20.2</ele>
        <time>2022-04-15T14:33:04.000Z</time>
      </trkpt>
      <trkpt lat="50.42753" lon="3.38819">
        <ele>20.4</ele>
        <time>2022-04-15T14:33:06.000Z</time>
      </trkpt>
      <trkpt lat="50.42761" lon="3.38815">
        <ele>20.4</ele>
        <time>2022-04-15T14:33:08.000Z</time>
      </trkpt>
      <trkpt lat="50.42769" lon="3.38812">
        <ele>20.5</ele>
        <time>2022-04-15T14:33:10.000Z</time>
      </trkpt>
      <trkpt lat="50.42773" lon="3.38809">
        <ele>20.7</ele>
        <time>2022-04-15T14:33:11.000Z</time>
      </trkpt>
      <trkpt lat="50.42778" lon="3.38807">
        <ele>20.8</ele>
        <time>2022-04-15T14:33:12.000Z</time>
      </trkpt>
      <trkpt lat="50.42785" lon="3.38802">
        <ele>20.4</ele>
        <time>2022-04-15T14:33:14.000Z</time>
      </trkpt>
      <trkpt lat="50.42792" lon="3.38796">
        <ele>20</ele>
        <time>2022-04-15T14:33:15.000Z</time>
      </trkpt>
      <trkpt lat="50.42801" lon="3.38789">
        <ele>19.7</ele>
        <time>2022-04-15T14:33:17.000Z</time>
      </trkpt>
      <trkpt lat="50.42805" lon="3.38785">
        <ele>19.8</ele>
        <time>2022-04-15T14:33:18.000Z</time>
      </trkpt>
      <trkpt lat="50.4281" lon="3.38781">
        <ele>19.9</ele>
        <time>2022-04-15T14:33:19.000Z</time>
      </trkpt>
      <trkpt lat="50.42815" lon="3.38777">
        <ele>20</ele>
        <time>2022-04-15T14:33:20.000Z</time>
      </trkpt>
      <trkpt lat="50.4282" lon="3.38773">
        <ele>19.9</ele>
        <time>2022-04-15T14:33:21.000Z</time>
      </trkpt>
      <trkpt lat="50.4283" lon="3.38764">
        <ele>19.9</ele>
        <time>2022-04-15T14:33:23.000Z</time>
      </trkpt>
      <trkpt lat="50.42832" lon="3.38757">
        <ele>20</ele>
        <time>2022-04-15T14:33:24.000Z</time>
      </trkpt>
      <trkpt lat="50.42832" lon="3.38749">
        <ele>20</ele>
        <time>2022-04-15T14:33:25.000Z</time>
      </trkpt>
      <trkpt lat="50.4283" lon="3.3874">
        <ele>19.9</ele>
        <time>2022-04-15T14:33:26.000Z</time>
      </trkpt>
      <trkpt lat="50.42827" lon="3.38723">
        <ele>19.8</ele>
        <time>2022-04-15T14:33:28.000Z</time>
      </trkpt>
      <trkpt lat="50.42826" lon="3.38715">
        <ele>19.7</ele>
        <time>2022-04-15T14:33:29.000Z</time>
      </trkpt>
      <trkpt lat="50.42825" lon="3.38706">
        <ele>19.7</ele>
        <time>2022-04-15T14:33:30.000Z</time>
      </trkpt>
      <trkpt lat="50.42825" lon="3.38697">
        <ele>19.7</ele>
        <time>2022-04-15T14:33:31.000Z</time>
      </trkpt>
      <trkpt lat="50.42824" lon="3.38686">
        <ele>19.5</ele>
        <time>2022-04-15T14:33:32.000Z</time>
      </trkpt>
      <trkpt lat="50.42822" lon="3.38677">
        <ele>19.2</ele>
        <time>2022-04-15T14:33:33.000Z</time>
      </trkpt>
      <trkpt lat="50.42821" lon="3.38666">
        <ele>19</ele>
        <time>2022-04-15T14:33:34.000Z</time>
      </trkpt>
      <trkpt lat="50.4282" lon="3.38655">
        <ele>18.6</ele>
        <time>2022-04-15T14:33:35.000Z</time>
      </trkpt>
      <trkpt lat="50.42818" lon="3.38645">
        <ele>18.2</ele>
        <time>2022-04-15T14:33:36.000Z</time>
      </trkpt>
      <trkpt lat="50.42814" lon="3.38634">
        <ele>18</ele>
        <time>2022-04-15T14:33:37.000Z</time>
      </trkpt>
      <trkpt lat="50.42809" lon="3.38631">
        <ele>18</ele>
        <time>2022-04-15T14:33:38.000Z</time>
      </trkpt>
      <trkpt lat="50.42802" lon="3.38631">
        <ele>18</ele>
        <time>2022-04-15T14:33:39.000Z</time>
      </trkpt>
      <trkpt lat="50.42795" lon="3.38634">
        <ele>17.9</ele>
        <time>2022-04-15T14:33:40.000Z</time>
      </trkpt>
      <trkpt lat="50.42788" lon="3.38637">
        <ele>18</ele>
        <time>2022-04-15T14:33:41.000Z</time>
      </trkpt>
      <trkpt lat="50.4278" lon="3.38641">
        <ele>18</ele>
        <time>2022-04-15T14:33:42.000Z</time>
      </trkpt>
      <trkpt lat="50.42773" lon="3.38644">
        <ele>17.8</ele>
        <time>2022-04-15T14:33:43.000Z</time>
      </trkpt>
      <trkpt lat="50.42766" lon="3.38646">
        <ele>17.6</ele>
        <time>2022-04-15T14:33:44.000Z</time>
      </trkpt>
      <trkpt lat="50.42759" lon="3.38648">
        <ele>17.3</ele>
        <time>2022-04-15T14:33:45.000Z</time>
      </trkpt>
      <trkpt lat="50.42753" lon="3.38649">
        <ele>17.1</ele>
        <time>2022-04-15T14:33:46.000Z</time>
      </trkpt>
      <trkpt lat="50.42746" lon="3.38651">
        <ele>17.1</ele>
        <time>2022-04-15T14:33:47.000Z</time>
      </trkpt>
      <trkpt lat="50.4274" lon="3.38654">
        <ele>17.4</ele>
        <time>2022-04-15T14:33:48.000Z</time>
      </trkpt>
      <trkpt lat="50.42734" lon="3.38656">
        <ele>17.6</ele>
        <time>2022-04-15T14:33:49.000Z</time>
      </trkpt>
      <trkpt lat="50.42729" lon="3.38657">
        <ele>17.8</ele>
        <time>2022-04-15T14:33:50.000Z</time>
      </trkpt>
      <trkpt lat="50.42723" lon="3.38658">
        <ele>18</ele>
        <time>2022-04-15T14:33:51.000Z</time>
      </trkpt>
      <trkpt lat="50.42717" lon="3.3866">
        <ele>18</ele>
        <time>2022-04-15T14:33:52.000Z</time>
      </trkpt>
      <trkpt lat="50.42712" lon="3.38662">
        <ele>18</ele>
        <time>2022-04-15T14:33:53.000Z</time>
      </trkpt>
      <trkpt lat="50.42707" lon="3.38663">
        <ele>18</ele>
        <time>2022-04-15T14:33:54.000Z</time>
      </trkpt>
      <trkpt lat="50.42702" lon="3.38664">
        <ele>18</ele>
        <time>2022-04-15T14:33:55.000Z</time>
      </trkpt>
      <trkpt lat="50.42697" lon="3.3866">
        <ele>18</ele>
        <time>2022-04-15T14:33:56.000Z</time>
      </trkpt>
      <trkpt lat="50.42693" lon="3.38654">
        <ele>18</ele>
        <time>2022-04-15T14:33:57.000Z</time>
      </trkpt>
      <trkpt lat="50.42691" lon="3.38646">
        <ele>18</ele>
        <time>2022-04-15T14:33:58.000Z</time>
      </trkpt>
      <trkpt lat="50.42689" lon="3.38637">
        <ele>18</ele>
        <time>2022-04-15T14:33:59.000Z</time>
      </trkpt>
      <trkpt lat="50.42687" lon="3.38628">
        <ele>18</ele>
        <time>2022-04-15T14:34:00.000Z</time>
      </trkpt>
      <trkpt lat="50.42686" lon="3.38619">
        <ele>18</ele>
        <time>2022-04-15T14:34:01.000Z</time>
      </trkpt>
      <trkpt lat="50.42685" lon="3.38611">
        <ele>18</ele>
        <time>2022-04-15T14:34:02.000Z</time>
      </trkpt>
      <trkpt lat="50.42683" lon="3.38601">
        <ele>17.8</ele>
        <time>2022-04-15T14:34:03.000Z</time>
      </trkpt>
      <trkpt lat="50.42682" lon="3.38592">
        <ele>17.6</ele>
        <time>2022-04-15T14:34:04.000Z</time>
      </trkpt>
      <trkpt lat="50.42681" lon="3.38583">
        <ele>17.5</ele>
        <time>2022-04-15T14:34:05.000Z</time>
      </trkpt>
      <trkpt lat="50.42679" lon="3.38575">
        <ele>17.6</ele>
        <time>2022-04-15T14:34:06.000Z</time>
      </trkpt>
      <trkpt lat="50.42677" lon="3.38565">
        <ele>17.6</ele>
        <time>2022-04-15T14:34:07.000Z</time>
      </trkpt>
      <trkpt lat="50.42676" lon="3.38557">
        <ele>17.7</ele>
        <time>2022-04-15T14:34:08.000Z</time>
      </trkpt>
      <trkpt lat="50.42674" lon="3.38548">
        <ele>17.7</ele>
        <time>2022-04-15T14:34:09.000Z</time>
      </trkpt>
      <trkpt lat="50.42673" lon="3.38538">
        <ele>17.8</ele>
        <time>2022-04-15T14:34:10.000Z</time>
      </trkpt>
      <trkpt lat="50.42672" lon="3.3853">
        <ele>17.8</ele>
        <time>2022-04-15T14:34:11.000Z</time>
      </trkpt>
      <trkpt lat="50.4267" lon="3.3852">
        <ele>17.6</ele>
        <time>2022-04-15T14:34:12.000Z</time>
      </trkpt>
      <trkpt lat="50.42669" lon="3.38512">
        <ele>17.4</ele>
        <time>2022-04-15T14:34:13.000Z</time>
      </trkpt>
      <trkpt lat="50.42667" lon="3.38494">
        <ele>17</ele>
        <time>2022-04-15T14:34:15.000Z</time>
      </trkpt>
      <trkpt lat="50.42665" lon="3.38485">
        <ele>17</ele>
        <time>2022-04-15T14:34:16.000Z</time>
      </trkpt>
      <trkpt lat="50.42663" lon="3.38476">
        <ele>17</ele>
        <time>2022-04-15T14:34:17.000Z</time>
      </trkpt>
      <trkpt lat="50.42662" lon="3.38468">
        <ele>17</ele>
        <time>2022-04-15T14:34:18.000Z</time>
      </trkpt>
      <trkpt lat="50.42661" lon="3.38459">
        <ele>17.1</ele>
        <time>2022-04-15T14:34:19.000Z</time>
      </trkpt>
      <trkpt lat="50.42659" lon="3.38451">
        <ele>17.2</ele>
        <time>2022-04-15T14:34:20.000Z</time>
      </trkpt>
      <trkpt lat="50.42658" lon="3.38443">
        <ele>17.3</ele>
        <time>2022-04-15T14:34:21.000Z</time>
      </trkpt>
      <trkpt lat="50.42657" lon="3.38434">
        <ele>17.3</ele>
        <time>2022-04-15T14:34:22.000Z</time>
      </trkpt>
      <trkpt lat="50.42656" lon="3.38426">
        <ele>17.4</ele>
        <time>2022-04-15T14:34:23.000Z</time>
      </trkpt>
      <trkpt lat="50.42654" lon="3.38418">
        <ele>17.5</ele>
        <time>2022-04-15T14:34:24.000Z</time>
      </trkpt>
      <trkpt lat="50.42653" lon="3.38409">
        <ele>17.5</ele>
        <time>2022-04-15T14:34:25.000Z</time>
      </trkpt>
      <trkpt lat="50.42652" lon="3.38399">
        <ele>17.5</ele>
        <time>2022-04-15T14:34:26.000Z</time>
      </trkpt>
      <trkpt lat="50.42651" lon="3.38392">
        <ele>17.6</ele>
        <time>2022-04-15T14:34:27.000Z</time>
      </trkpt>
      <trkpt lat="50.42648" lon="3.38382">
        <ele>17.7</ele>
        <time>2022-04-15T14:34:28.000Z</time>
      </trkpt>
      <trkpt lat="50.42646" lon="3.38367">
        <ele>17.7</ele>
        <time>2022-04-15T14:34:30.000Z</time>
      </trkpt>
      <trkpt lat="50.42645" lon="3.38358">
        <ele>17.8</ele>
        <time>2022-04-15T14:34:31.000Z</time>
      </trkpt>
      <trkpt lat="50.42646" lon="3.3835">
        <ele>17.7</ele>
        <time>2022-04-15T14:34:32.000Z</time>
      </trkpt>
      <trkpt lat="50.42646" lon="3.38343">
        <ele>17.7</ele>
        <time>2022-04-15T14:34:33.000Z</time>
      </trkpt>
      <trkpt lat="50.42645" lon="3.38333">
        <ele>17.8</ele>
        <time>2022-04-15T14:34:34.000Z</time>
      </trkpt>
      <trkpt lat="50.42644" lon="3.38326">
        <ele>17.6</ele>
        <time>2022-04-15T14:34:35.000Z</time>
      </trkpt>
      <trkpt lat="50.42643" lon="3.38316">
        <ele>17.3</ele>
        <time>2022-04-15T14:34:36.000Z</time>
      </trkpt>
      <trkpt lat="50.42643" lon="3.38308">
        <ele>17.1</ele>
        <time>2022-04-15T14:34:37.000Z</time>
      </trkpt>
      <trkpt lat="50.42642" lon="3.38293">
        <ele>17</ele>
        <time>2022-04-15T14:34:39.000Z</time>
      </trkpt>
      <trkpt lat="50.42641" lon="3.38283">
        <ele>17</ele>
        <time>2022-04-15T14:34:40.000Z</time>
      </trkpt>
      <trkpt lat="50.42641" lon="3.38275">
        <ele>17</ele>
        <time>2022-04-15T14:34:41.000Z</time>
      </trkpt>
      <trkpt lat="50.4264" lon="3.38267">
        <ele>17</ele>
        <time>2022-04-15T14:34:42.000Z</time>
      </trkpt>
      <trkpt lat="50.4264" lon="3.38257">
        <ele>17</ele>
        <time>2022-04-15T14:34:43.000Z</time>
      </trkpt>
      <trkpt lat="50.42639" lon="3.38249">
        <ele>17</ele>
        <time>2022-04-15T14:34:44.000Z</time>
      </trkpt>
      <trkpt lat="50.42638" lon="3.38241">
        <ele>17</ele>
        <time>2022-04-15T14:34:45.000Z</time>
      </trkpt>
      <trkpt lat="50.42637" lon="3.38233">
        <ele>17.1</ele>
        <time>2022-04-15T14:34:46.000Z</time>
      </trkpt>
      <trkpt lat="50.42636" lon="3.38223">
        <ele>17.1</ele>
        <time>2022-04-15T14:34:47.000Z</time>
      </trkpt>
      <trkpt lat="50.42636" lon="3.38216">
        <ele>17.1</ele>
        <time>2022-04-15T14:34:48.000Z</time>
      </trkpt>
      <trkpt lat="50.42635" lon="3.38207">
        <ele>17.1</ele>
        <time>2022-04-15T14:34:49.000Z</time>
      </trkpt>
      <trkpt lat="50.42635" lon="3.38199">
        <ele>17.1</ele>
        <time>2022-04-15T14:34:50.000Z</time>
      </trkpt>
      <trkpt lat="50.42634" lon="3.38192">
        <ele>17.2</ele>
        <time>2022-04-15T14:34:51.000Z</time>
      </trkpt>
      <trkpt lat="50.42633" lon="3.38184">
        <ele>17.2</ele>
        <time>2022-04-15T14:34:52.000Z</time>
      </trkpt>
      <trkpt lat="50.42632" lon="3.38175">
        <ele>17.2</ele>
        <time>2022-04-15T14:34:53.000Z</time>
      </trkpt>
      <trkpt lat="50.42632" lon="3.3816">
        <ele>17.2</ele>
        <time>2022-04-15T14:34:55.000Z</time>
      </trkpt>
      <trkpt lat="50.42632" lon="3.38153">
        <ele>17.2</ele>
        <time>2022-04-15T14:34:56.000Z</time>
      </trkpt>
      <trkpt lat="50.42631" lon="3.38145">
        <ele>17.3</ele>
        <time>2022-04-15T14:34:57.000Z</time>
      </trkpt>
      <trkpt lat="50.42631" lon="3.38137">
        <ele>17.3</ele>
        <time>2022-04-15T14:34:58.000Z</time>
      </trkpt>
      <trkpt lat="50.42628" lon="3.3812">
        <ele>17.4</ele>
        <time>2022-04-15T14:35:00.000Z</time>
      </trkpt>
      <trkpt lat="50.42627" lon="3.38112">
        <ele>17.4</ele>
        <time>2022-04-15T14:35:01.000Z</time>
      </trkpt>
      <trkpt lat="50.42627" lon="3.38104">
        <ele>17.4</ele>
        <time>2022-04-15T14:35:02.000Z</time>
      </trkpt>
      <trkpt lat="50.42626" lon="3.38096">
        <ele>17.5</ele>
        <time>2022-04-15T14:35:03.000Z</time>
      </trkpt>
      <trkpt lat="50.42626" lon="3.38088">
        <ele>17.5</ele>
        <time>2022-04-15T14:35:04.000Z</time>
      </trkpt>
      <trkpt lat="50.42625" lon="3.38078">
        <ele>17.5</ele>
        <time>2022-04-15T14:35:05.000Z</time>
      </trkpt>
      <trkpt lat="50.42624" lon="3.38064">
        <ele>17.5</ele>
        <time>2022-04-15T14:35:07.000Z</time>
      </trkpt>
      <trkpt lat="50.42623" lon="3.38054">
        <ele>17.6</ele>
        <time>2022-04-15T14:35:08.000Z</time>
      </trkpt>
      <trkpt lat="50.42622" lon="3.38039">
        <ele>17.6</ele>
        <time>2022-04-15T14:35:10.000Z</time>
      </trkpt>
      <trkpt lat="50.42621" lon="3.38031">
        <ele>17.6</ele>
        <time>2022-04-15T14:35:11.000Z</time>
      </trkpt>
      <trkpt lat="50.42621" lon="3.38023">
        <ele>17.6</ele>
        <time>2022-04-15T14:35:12.000Z</time>
      </trkpt>
      <trkpt lat="50.42621" lon="3.38015">
        <ele>17.6</ele>
        <time>2022-04-15T14:35:13.000Z</time>
      </trkpt>
      <trkpt lat="50.42621" lon="3.38006">
        <ele>17.6</ele>
        <time>2022-04-15T14:35:14.000Z</time>
      </trkpt>
      <trkpt lat="50.42619" lon="3.37992">
        <ele>17.5</ele>
        <time>2022-04-15T14:35:16.000Z</time>
      </trkpt>
      <trkpt lat="50.42618" lon="3.37983">
        <ele>17.3</ele>
        <time>2022-04-15T14:35:17.000Z</time>
      </trkpt>
      <trkpt lat="50.42617" lon="3.37976">
        <ele>17.1</ele>
        <time>2022-04-15T14:35:18.000Z</time>
      </trkpt>
      <trkpt lat="50.42616" lon="3.37963">
        <ele>16.9</ele>
        <time>2022-04-15T14:35:20.000Z</time>
      </trkpt>
      <trkpt lat="50.42615" lon="3.37955">
        <ele>16.9</ele>
        <time>2022-04-15T14:35:21.000Z</time>
      </trkpt>
      <trkpt lat="50.42614" lon="3.37942">
        <ele>16.9</ele>
        <time>2022-04-15T14:35:23.000Z</time>
      </trkpt>
      <trkpt lat="50.42613" lon="3.37934">
        <ele>16.9</ele>
        <time>2022-04-15T14:35:24.000Z</time>
      </trkpt>
      <trkpt lat="50.42612" lon="3.3792">
        <ele>17</ele>
        <time>2022-04-15T14:35:26.000Z</time>
      </trkpt>
      <trkpt lat="50.42609" lon="3.37905">
        <ele>17</ele>
        <time>2022-04-15T14:35:28.000Z</time>
      </trkpt>
      <trkpt lat="50.42608" lon="3.37894">
        <ele>17</ele>
        <time>2022-04-15T14:35:30.000Z</time>
      </trkpt>
      <trkpt lat="50.42608" lon="3.37886">
        <ele>17</ele>
        <time>2022-04-15T14:35:31.000Z</time>
      </trkpt>
      <trkpt lat="50.42606" lon="3.37874">
        <ele>17.1</ele>
        <time>2022-04-15T14:35:33.000Z</time>
      </trkpt>
      <trkpt lat="50.42605" lon="3.37867">
        <ele>17.2</ele>
        <time>2022-04-15T14:35:34.000Z</time>
      </trkpt>
      <trkpt lat="50.42604" lon="3.37859">
        <ele>17.3</ele>
        <time>2022-04-15T14:35:35.000Z</time>
      </trkpt>
      <trkpt lat="50.42602" lon="3.37848">
        <ele>17.3</ele>
        <time>2022-04-15T14:35:37.000Z</time>
      </trkpt>
      <trkpt lat="50.42601" lon="3.37838">
        <ele>17.4</ele>
        <time>2022-04-15T14:35:38.000Z</time>
      </trkpt>
      <trkpt lat="50.42599" lon="3.37829">
        <ele>17.3</ele>
        <time>2022-04-15T14:35:39.000Z</time>
      </trkpt>
      <trkpt lat="50.42598" lon="3.37821">
        <ele>17.2</ele>
        <time>2022-04-15T14:35:40.000Z</time>
      </trkpt>
      <trkpt lat="50.42597" lon="3.37814">
        <ele>17.2</ele>
        <time>2022-04-15T14:35:41.000Z</time>
      </trkpt>
      <trkpt lat="50.42595" lon="3.37804">
        <ele>17.2</ele>
        <time>2022-04-15T14:35:42.000Z</time>
      </trkpt>
      <trkpt lat="50.42595" lon="3.37789">
        <ele>17.2</ele>
        <time>2022-04-15T14:35:44.000Z</time>
      </trkpt>
      <trkpt lat="50.42594" lon="3.3778">
        <ele>17.2</ele>
        <time>2022-04-15T14:35:46.000Z</time>
      </trkpt>
      <trkpt lat="50.42591" lon="3.37769">
        <ele>17.4</ele>
        <time>2022-04-15T14:35:48.000Z</time>
      </trkpt>
      <trkpt lat="50.4259" lon="3.37759">
        <ele>17.5</ele>
        <time>2022-04-15T14:35:50.000Z</time>
      </trkpt>
      <trkpt lat="50.42587" lon="3.37745">
        <ele>17.6</ele>
        <time>2022-04-15T14:35:52.000Z</time>
      </trkpt>
      <trkpt lat="50.42586" lon="3.37736">
        <ele>17.4</ele>
        <time>2022-04-15T14:35:53.000Z</time>
      </trkpt>
      <trkpt lat="50.42584" lon="3.37723">
        <ele>17</ele>
        <time>2022-04-15T14:35:55.000Z</time>
      </trkpt>
      <trkpt lat="50.42583" lon="3.37709">
        <ele>17</ele>
        <time>2022-04-15T14:35:57.000Z</time>
      </trkpt>
      <trkpt lat="50.42582" lon="3.37701">
        <ele>17.1</ele>
        <time>2022-04-15T14:35:59.000Z</time>
      </trkpt>
      <trkpt lat="50.42581" lon="3.37692">
        <ele>17.1</ele>
        <time>2022-04-15T14:36:02.000Z</time>
      </trkpt>
      <trkpt lat="50.42579" lon="3.37686">
        <ele>17.2</ele>
        <time>2022-04-15T14:36:06.000Z</time>
      </trkpt>
      <trkpt lat="50.42575" lon="3.37672">
        <ele>17.3</ele>
        <time>2022-04-15T14:36:10.000Z</time>
      </trkpt>
      <trkpt lat="50.42573" lon="3.3766">
        <ele>17.2</ele>
        <time>2022-04-15T14:36:11.568Z</time>
      </trkpt>
      <trkpt lat="50.42572" lon="3.3765">
        <ele>17.1</ele>
        <time>2022-04-15T14:36:12.871Z</time>
      </trkpt>
      <trkpt lat="50.4257" lon="3.37639">
        <ele>17</ele>
        <time>2022-04-15T14:36:15.000Z</time>
      </trkpt>
      <trkpt lat="50.42569" lon="3.37631">
        <ele>17</ele>
        <time>2022-04-15T14:36:16.000Z</time>
      </trkpt>
      <trkpt lat="50.42568" lon="3.37624">
        <ele>17.1</ele>
        <time>2022-04-15T14:36:17.000Z</time>
      </trkpt>
      <trkpt lat="50.42566" lon="3.37616">
        <ele>17.2</ele>
        <time>2022-04-15T14:36:18.000Z</time>
      </trkpt>
      <trkpt lat="50.42565" lon="3.37609">
        <ele>17.3</ele>
        <time>2022-04-15T14:36:19.000Z</time>
      </trkpt>
      <trkpt lat="50.42564" lon="3.37602">
        <ele>17.4</ele>
        <time>2022-04-15T14:36:20.000Z</time>
      </trkpt>
      <trkpt lat="50.42562" lon="3.37594">
        <ele>17.5</ele>
        <time>2022-04-15T14:36:21.000Z</time>
      </trkpt>
      <trkpt lat="50.42561" lon="3.37586">
        <ele>17.6</ele>
        <time>2022-04-15T14:36:22.000Z</time>
      </trkpt>
      <trkpt lat="50.4256" lon="3.37578">
        <ele>17.7</ele>
        <time>2022-04-15T14:36:23.000Z</time>
      </trkpt>
      <trkpt lat="50.42559" lon="3.3757">
        <ele>17.8</ele>
        <time>2022-04-15T14:36:24.000Z</time>
      </trkpt>
      <trkpt lat="50.42558" lon="3.37563">
        <ele>17.9</ele>
        <time>2022-04-15T14:36:25.000Z</time>
      </trkpt>
      <trkpt lat="50.42557" lon="3.37556">
        <ele>17.9</ele>
        <time>2022-04-15T14:36:26.000Z</time>
      </trkpt>
      <trkpt lat="50.42555" lon="3.37549">
        <ele>18</ele>
        <time>2022-04-15T14:36:27.000Z</time>
      </trkpt>
      <trkpt lat="50.42554" lon="3.37542">
        <ele>18</ele>
        <time>2022-04-15T14:36:28.000Z</time>
      </trkpt>
      <trkpt lat="50.42552" lon="3.37535">
        <ele>18</ele>
        <time>2022-04-15T14:36:29.000Z</time>
      </trkpt>
      <trkpt lat="50.42551" lon="3.37527">
        <ele>18</ele>
        <time>2022-04-15T14:36:30.000Z</time>
      </trkpt>
      <trkpt lat="50.4255" lon="3.3752">
        <ele>17.8</ele>
        <time>2022-04-15T14:36:31.000Z</time>
      </trkpt>
      <trkpt lat="50.42548" lon="3.37513">
        <ele>17.6</ele>
        <time>2022-04-15T14:36:32.000Z</time>
      </trkpt>
      <trkpt lat="50.42546" lon="3.37506">
        <ele>17.5</ele>
        <time>2022-04-15T14:36:33.000Z</time>
      </trkpt>
      <trkpt lat="50.42544" lon="3.37499">
        <ele>17.4</ele>
        <time>2022-04-15T14:36:34.000Z</time>
      </trkpt>
      <trkpt lat="50.42542" lon="3.37492">
        <ele>17.5</ele>
        <time>2022-04-15T14:36:35.000Z</time>
      </trkpt>
      <trkpt lat="50.4254" lon="3.37485">
        <ele>17.6</ele>
        <time>2022-04-15T14:36:36.000Z</time>
      </trkpt>
      <trkpt lat="50.42538" lon="3.37479">
        <ele>17.6</ele>
        <time>2022-04-15T14:36:37.000Z</time>
      </trkpt>
      <trkpt lat="50.42535" lon="3.37473">
        <ele>17.7</ele>
        <time>2022-04-15T14:36:38.000Z</time>
      </trkpt>
      <trkpt lat="50.42533" lon="3.37467">
        <ele>17.6</ele>
        <time>2022-04-15T14:36:39.000Z</time>
      </trkpt>
      <trkpt lat="50.4253" lon="3.37461">
        <ele>17.5</ele>
        <time>2022-04-15T14:36:40.000Z</time>
      </trkpt>
      <trkpt lat="50.42527" lon="3.37455">
        <ele>17.4</ele>
        <time>2022-04-15T14:36:41.000Z</time>
      </trkpt>
      <trkpt lat="50.42524" lon="3.37449">
        <ele>17.3</ele>
        <time>2022-04-15T14:36:42.000Z</time>
      </trkpt>
      <trkpt lat="50.4252" lon="3.37442">
        <ele>17.3</ele>
        <time>2022-04-15T14:36:43.000Z</time>
      </trkpt>
      <trkpt lat="50.42517" lon="3.37436">
        <ele>17.4</ele>
        <time>2022-04-15T14:36:44.000Z</time>
      </trkpt>
      <trkpt lat="50.42514" lon="3.3743">
        <ele>17.5</ele>
        <time>2022-04-15T14:36:45.000Z</time>
      </trkpt>
      <trkpt lat="50.42512" lon="3.37424">
        <ele>17.6</ele>
        <time>2022-04-15T14:36:46.000Z</time>
      </trkpt>
      <trkpt lat="50.42509" lon="3.37418">
        <ele>17.7</ele>
        <time>2022-04-15T14:36:47.000Z</time>
      </trkpt>
      <trkpt lat="50.42506" lon="3.37412">
        <ele>17.8</ele>
        <time>2022-04-15T14:36:48.000Z</time>
      </trkpt>
      <trkpt lat="50.42503" lon="3.37406">
        <ele>17.9</ele>
        <time>2022-04-15T14:36:49.000Z</time>
      </trkpt>
      <trkpt lat="50.425" lon="3.37399">
        <ele>18</ele>
        <time>2022-04-15T14:36:50.000Z</time>
      </trkpt>
      <trkpt lat="50.42495" lon="3.3739">
        <ele>18</ele>
        <time>2022-04-15T14:36:52.000Z</time>
      </trkpt>
      <trkpt lat="50.42492" lon="3.37383">
        <ele>17.8</ele>
        <time>2022-04-15T14:36:53.000Z</time>
      </trkpt>
      <trkpt lat="50.42488" lon="3.37374">
        <ele>17.7</ele>
        <time>2022-04-15T14:36:55.000Z</time>
      </trkpt>
      <trkpt lat="50.42483" lon="3.3736">
        <ele>17.6</ele>
        <time>2022-04-15T14:36:57.000Z</time>
      </trkpt>
      <trkpt lat="50.4248" lon="3.37353">
        <ele>17.5</ele>
        <time>2022-04-15T14:36:58.000Z</time>
      </trkpt>
      <trkpt lat="50.42475" lon="3.37346">
        <ele>17.4</ele>
        <time>2022-04-15T14:37:00.000Z</time>
      </trkpt>
      <trkpt lat="50.42471" lon="3.3734">
        <ele>17.3</ele>
        <time>2022-04-15T14:37:01.000Z</time>
      </trkpt>
      <trkpt lat="50.42466" lon="3.37332">
        <ele>17.2</ele>
        <time>2022-04-15T14:37:02.511Z</time>
      </trkpt>
      <trkpt lat="50.42462" lon="3.37325">
        <ele>17.4</ele>
        <time>2022-04-15T14:37:04.000Z</time>
      </trkpt>
      <trkpt lat="50.42457" lon="3.37316">
        <ele>17.5</ele>
        <time>2022-04-15T14:37:05.000Z</time>
      </trkpt>
      <trkpt lat="50.42452" lon="3.37308">
        <ele>17.7</ele>
        <time>2022-04-15T14:37:07.000Z</time>
      </trkpt>
      <trkpt lat="50.42445" lon="3.37296">
        <ele>17.6</ele>
        <time>2022-04-15T14:37:09.000Z</time>
      </trkpt>
      <trkpt lat="50.42437" lon="3.37284">
        <ele>17.4</ele>
        <time>2022-04-15T14:37:11.905Z</time>
      </trkpt>
      <trkpt lat="50.42433" lon="3.37277">
        <ele>17.4</ele>
        <time>2022-04-15T14:37:12.923Z</time>
      </trkpt>
      <trkpt lat="50.42428" lon="3.3727">
        <ele>17.4</ele>
        <time>2022-04-15T14:37:15.062Z</time>
      </trkpt>
      <trkpt lat="50.42424" lon="3.37265">
        <ele>17.4</ele>
        <time>2022-04-15T14:37:16.000Z</time>
      </trkpt>
      <trkpt lat="50.4242" lon="3.37261">
        <ele>17.3</ele>
        <time>2022-04-15T14:37:17.000Z</time>
      </trkpt>
      <trkpt lat="50.42416" lon="3.37257">
        <ele>17.3</ele>
        <time>2022-04-15T14:37:18.000Z</time>
      </trkpt>
      <trkpt lat="50.42412" lon="3.37252">
        <ele>17.2</ele>
        <time>2022-04-15T14:37:19.000Z</time>
      </trkpt>
      <trkpt lat="50.42408" lon="3.37245">
        <ele>17.3</ele>
        <time>2022-04-15T14:37:21.000Z</time>
      </trkpt>
      <trkpt lat="50.42399" lon="3.37229">
        <ele>17.6</ele>
        <time>2022-04-15T14:37:23.000Z</time>
      </trkpt>
      <trkpt lat="50.42392" lon="3.37223">
        <ele>17.9</ele>
        <time>2022-04-15T14:37:25.915Z</time>
      </trkpt>
      <trkpt lat="50.42386" lon="3.37211">
        <ele>17.6</ele>
        <time>2022-04-15T14:37:28.000Z</time>
      </trkpt>
      <trkpt lat="50.4238" lon="3.37204">
        <ele>17.3</ele>
        <time>2022-04-15T14:37:30.000Z</time>
      </trkpt>
      <trkpt lat="50.42378" lon="3.37193">
        <ele>17</ele>
        <time>2022-04-15T14:37:32.000Z</time>
      </trkpt>
      <trkpt lat="50.42378" lon="3.37186">
        <ele>17</ele>
        <time>2022-04-15T14:37:33.000Z</time>
      </trkpt>
      <trkpt lat="50.42381" lon="3.37179">
        <ele>17</ele>
        <time>2022-04-15T14:37:34.000Z</time>
      </trkpt>
      <trkpt lat="50.42384" lon="3.37174">
        <ele>17</ele>
        <time>2022-04-15T14:37:35.000Z</time>
      </trkpt>
      <trkpt lat="50.42396" lon="3.37159">
        <ele>17</ele>
        <time>2022-04-15T14:37:38.000Z</time>
      </trkpt>
      <trkpt lat="50.424" lon="3.37155">
        <ele>17</ele>
        <time>2022-04-15T14:37:39.000Z</time>
      </trkpt>
      <trkpt lat="50.42406" lon="3.37152">
        <ele>17</ele>
        <time>2022-04-15T14:37:41.000Z</time>
      </trkpt>
      <trkpt lat="50.4241" lon="3.37146">
        <ele>17</ele>
        <time>2022-04-15T14:37:42.000Z</time>
      </trkpt>
      <trkpt lat="50.42414" lon="3.37142">
        <ele>17</ele>
        <time>2022-04-15T14:37:43.000Z</time>
      </trkpt>
      <trkpt lat="50.42417" lon="3.37135">
        <ele>17</ele>
        <time>2022-04-15T14:37:44.000Z</time>
      </trkpt>
      <trkpt lat="50.42421" lon="3.37131">
        <ele>17</ele>
        <time>2022-04-15T14:37:45.000Z</time>
      </trkpt>
      <trkpt lat="50.42429" lon="3.37124">
        <ele>17</ele>
        <time>2022-04-15T14:37:47.000Z</time>
      </trkpt>
      <trkpt lat="50.42433" lon="3.3712">
        <ele>17</ele>
        <time>2022-04-15T14:37:48.000Z</time>
      </trkpt>
      <trkpt lat="50.42437" lon="3.37116">
        <ele>17</ele>
        <time>2022-04-15T14:37:49.000Z</time>
      </trkpt>
      <trkpt lat="50.42444" lon="3.3711">
        <ele>17</ele>
        <time>2022-04-15T14:37:51.000Z</time>
      </trkpt>
      <trkpt lat="50.42452" lon="3.37103">
        <ele>17</ele>
        <time>2022-04-15T14:37:53.000Z</time>
      </trkpt>
      <trkpt lat="50.4246" lon="3.37094">
        <ele>17</ele>
        <time>2022-04-15T14:37:55.000Z</time>
      </trkpt>
      <trkpt lat="50.42467" lon="3.37088">
        <ele>17</ele>
        <time>2022-04-15T14:37:57.000Z</time>
      </trkpt>
      <trkpt lat="50.42471" lon="3.37083">
        <ele>17</ele>
        <time>2022-04-15T14:37:58.000Z</time>
      </trkpt>
      <trkpt lat="50.42477" lon="3.37076">
        <ele>17</ele>
        <time>2022-04-15T14:38:00.000Z</time>
      </trkpt>
      <trkpt lat="50.42484" lon="3.37068">
        <ele>17</ele>
        <time>2022-04-15T14:38:02.000Z</time>
      </trkpt>
      <trkpt lat="50.42492" lon="3.37059">
        <ele>17</ele>
        <time>2022-04-15T14:38:04.000Z</time>
      </trkpt>
      <trkpt lat="50.42498" lon="3.37053">
        <ele>17</ele>
        <time>2022-04-15T14:38:06.000Z</time>
      </trkpt>
      <trkpt lat="50.42504" lon="3.37046">
        <ele>17</ele>
        <time>2022-04-15T14:38:08.000Z</time>
      </trkpt>
      <trkpt lat="50.4251" lon="3.3704">
        <ele>17</ele>
        <time>2022-04-15T14:38:10.000Z</time>
      </trkpt>
      <trkpt lat="50.42518" lon="3.37034">
        <ele>17</ele>
        <time>2022-04-15T14:38:12.000Z</time>
      </trkpt>
      <trkpt lat="50.42525" lon="3.37028">
        <ele>17</ele>
        <time>2022-04-15T14:38:14.000Z</time>
      </trkpt>
      <trkpt lat="50.42532" lon="3.37021">
        <ele>17</ele>
        <time>2022-04-15T14:38:16.000Z</time>
      </trkpt>
      <trkpt lat="50.42536" lon="3.37018">
        <ele>17</ele>
        <time>2022-04-15T14:38:17.000Z</time>
      </trkpt>
      <trkpt lat="50.42541" lon="3.37014">
        <ele>17</ele>
        <time>2022-04-15T14:38:18.000Z</time>
      </trkpt>
      <trkpt lat="50.42548" lon="3.37007">
        <ele>17</ele>
        <time>2022-04-15T14:38:20.000Z</time>
      </trkpt>
      <trkpt lat="50.42554" lon="3.37002">
        <ele>17</ele>
        <time>2022-04-15T14:38:22.000Z</time>
      </trkpt>
      <trkpt lat="50.42562" lon="3.36995">
        <ele>17</ele>
        <time>2022-04-15T14:38:24.000Z</time>
      </trkpt>
      <trkpt lat="50.42568" lon="3.3699">
        <ele>17</ele>
        <time>2022-04-15T14:38:26.023Z</time>
      </trkpt>
      <trkpt lat="50.42572" lon="3.36985">
        <ele>17</ele>
        <time>2022-04-15T14:38:27.000Z</time>
      </trkpt>
      <trkpt lat="50.4258" lon="3.36981">
        <ele>17</ele>
        <time>2022-04-15T14:38:29.000Z</time>
      </trkpt>
      <trkpt lat="50.42588" lon="3.36976">
        <ele>17</ele>
        <time>2022-04-15T14:38:31.000Z</time>
      </trkpt>
      <trkpt lat="50.42596" lon="3.36971">
        <ele>17</ele>
        <time>2022-04-15T14:38:33.000Z</time>
      </trkpt>
      <trkpt lat="50.42603" lon="3.36966">
        <ele>17</ele>
        <time>2022-04-15T14:38:35.000Z</time>
      </trkpt>
      <trkpt lat="50.42611" lon="3.36962">
        <ele>17</ele>
        <time>2022-04-15T14:38:37.000Z</time>
      </trkpt>
      <trkpt lat="50.42618" lon="3.36957">
        <ele>17.2</ele>
        <time>2022-04-15T14:38:39.000Z</time>
      </trkpt>
      <trkpt lat="50.42625" lon="3.36952">
        <ele>17.5</ele>
        <time>2022-04-15T14:38:41.000Z</time>
      </trkpt>
      <trkpt lat="50.42632" lon="3.36948">
        <ele>17.8</ele>
        <time>2022-04-15T14:38:43.000Z</time>
      </trkpt>
      <trkpt lat="50.42639" lon="3.36944">
        <ele>18</ele>
        <time>2022-04-15T14:38:45.000Z</time>
      </trkpt>
      <trkpt lat="50.42643" lon="3.3694">
        <ele>18</ele>
        <time>2022-04-15T14:38:46.898Z</time>
      </trkpt>
      <trkpt lat="50.42647" lon="3.36937">
        <ele>18</ele>
        <time>2022-04-15T14:38:48.000Z</time>
      </trkpt>
      <trkpt lat="50.42653" lon="3.36934">
        <ele>18</ele>
        <time>2022-04-15T14:38:50.000Z</time>
      </trkpt>
      <trkpt lat="50.4266" lon="3.3693">
        <ele>18</ele>
        <time>2022-04-15T14:38:52.000Z</time>
      </trkpt>
      <trkpt lat="50.42665" lon="3.36926">
        <ele>18</ele>
        <time>2022-04-15T14:38:54.000Z</time>
      </trkpt>
      <trkpt lat="50.42671" lon="3.36923">
        <ele>18</ele>
        <time>2022-04-15T14:38:56.000Z</time>
      </trkpt>
      <trkpt lat="50.42677" lon="3.3692">
        <ele>18</ele>
        <time>2022-04-15T14:38:58.000Z</time>
      </trkpt>
      <trkpt lat="50.42683" lon="3.36916">
        <ele>18</ele>
        <time>2022-04-15T14:39:00.000Z</time>
      </trkpt>
      <trkpt lat="50.4269" lon="3.36912">
        <ele>18</ele>
        <time>2022-04-15T14:39:02.000Z</time>
      </trkpt>
      <trkpt lat="50.42696" lon="3.36907">
        <ele>18</ele>
        <time>2022-04-15T14:39:04.000Z</time>
      </trkpt>
      <trkpt lat="50.42703" lon="3.36902">
        <ele>18</ele>
        <time>2022-04-15T14:39:06.000Z</time>
      </trkpt>
      <trkpt lat="50.4271" lon="3.36897">
        <ele>18</ele>
        <time>2022-04-15T14:39:08.000Z</time>
      </trkpt>
      <trkpt lat="50.42714" lon="3.36893">
        <ele>18</ele>
        <time>2022-04-15T14:39:09.000Z</time>
      </trkpt>
      <trkpt lat="50.42719" lon="3.36882">
        <ele>18</ele>
        <time>2022-04-15T14:39:11.000Z</time>
      </trkpt>
      <trkpt lat="50.42722" lon="3.36871">
        <ele>18</ele>
        <time>2022-04-15T14:39:13.000Z</time>
      </trkpt>
      <trkpt lat="50.42724" lon="3.36859">
        <ele>18</ele>
        <time>2022-04-15T14:39:15.000Z</time>
      </trkpt>
      <trkpt lat="50.42726" lon="3.36846">
        <ele>18</ele>
        <time>2022-04-15T14:39:17.000Z</time>
      </trkpt>
      <trkpt lat="50.42727" lon="3.36839">
        <ele>18</ele>
        <time>2022-04-15T14:39:18.000Z</time>
      </trkpt>
      <trkpt lat="50.42727" lon="3.36827">
        <ele>18</ele>
        <time>2022-04-15T14:39:21.000Z</time>
      </trkpt>
      <trkpt lat="50.42728" lon="3.36819">
        <ele>18</ele>
        <time>2022-04-15T14:39:22.000Z</time>
      </trkpt>
      <trkpt lat="50.42729" lon="3.36811">
        <ele>18</ele>
        <time>2022-04-15T14:39:23.000Z</time>
      </trkpt>
      <trkpt lat="50.42731" lon="3.36803">
        <ele>18</ele>
        <time>2022-04-15T14:39:24.000Z</time>
      </trkpt>
      <trkpt lat="50.42732" lon="3.36795">
        <ele>18</ele>
        <time>2022-04-15T14:39:25.000Z</time>
      </trkpt>
      <trkpt lat="50.42733" lon="3.36786">
        <ele>18</ele>
        <time>2022-04-15T14:39:26.000Z</time>
      </trkpt>
      <trkpt lat="50.42734" lon="3.36779">
        <ele>18</ele>
        <time>2022-04-15T14:39:27.155Z</time>
      </trkpt>
      <trkpt lat="50.42735" lon="3.36767">
        <ele>18</ele>
        <time>2022-04-15T14:39:28.937Z</time>
      </trkpt>
      <trkpt lat="50.42736" lon="3.36759">
        <ele>18</ele>
        <time>2022-04-15T14:39:30.000Z</time>
      </trkpt>
      <trkpt lat="50.42738" lon="3.3675">
        <ele>18</ele>
        <time>2022-04-15T14:39:31.000Z</time>
      </trkpt>
      <trkpt lat="50.42739" lon="3.3674">
        <ele>18</ele>
        <time>2022-04-15T14:39:33.000Z</time>
      </trkpt>
      <trkpt lat="50.42742" lon="3.36729">
        <ele>18</ele>
        <time>2022-04-15T14:39:35.000Z</time>
      </trkpt>
      <trkpt lat="50.42744" lon="3.36713">
        <ele>18</ele>
        <time>2022-04-15T14:39:37.000Z</time>
      </trkpt>
      <trkpt lat="50.42745" lon="3.36701">
        <ele>18</ele>
        <time>2022-04-15T14:39:39.000Z</time>
      </trkpt>
      <trkpt lat="50.42747" lon="3.36689">
        <ele>18</ele>
        <time>2022-04-15T14:39:41.000Z</time>
      </trkpt>
      <trkpt lat="50.42748" lon="3.3668">
        <ele>18</ele>
        <time>2022-04-15T14:39:42.000Z</time>
      </trkpt>
      <trkpt lat="50.4275" lon="3.36671">
        <ele>18</ele>
        <time>2022-04-15T14:39:44.000Z</time>
      </trkpt>
      <trkpt lat="50.42752" lon="3.36661">
        <ele>18</ele>
        <time>2022-04-15T14:39:45.000Z</time>
      </trkpt>
      <trkpt lat="50.42752" lon="3.36654">
        <ele>18</ele>
        <time>2022-04-15T14:39:46.000Z</time>
      </trkpt>
      <trkpt lat="50.42754" lon="3.36641">
        <ele>18</ele>
        <time>2022-04-15T14:39:48.000Z</time>
      </trkpt>
      <trkpt lat="50.42756" lon="3.36632">
        <ele>18</ele>
        <time>2022-04-15T14:39:49.918Z</time>
      </trkpt>
      <trkpt lat="50.42757" lon="3.36617">
        <ele>18</ele>
        <time>2022-04-15T14:39:52.153Z</time>
      </trkpt>
      <trkpt lat="50.4276" lon="3.36601">
        <ele>18</ele>
        <time>2022-04-15T14:39:54.511Z</time>
      </trkpt>
      <trkpt lat="50.42761" lon="3.36593">
        <ele>18</ele>
        <time>2022-04-15T14:39:56.000Z</time>
      </trkpt>
      <trkpt lat="50.42763" lon="3.36583">
        <ele>18</ele>
        <time>2022-04-15T14:39:57.000Z</time>
      </trkpt>
      <trkpt lat="50.42763" lon="3.36576">
        <ele>18</ele>
        <time>2022-04-15T14:39:58.000Z</time>
      </trkpt>
      <trkpt lat="50.42765" lon="3.36563">
        <ele>18</ele>
        <time>2022-04-15T14:40:00.396Z</time>
      </trkpt>
      <trkpt lat="50.42767" lon="3.36552">
        <ele>18</ele>
        <time>2022-04-15T14:40:02.056Z</time>
      </trkpt>
      <trkpt lat="50.42769" lon="3.36534">
        <ele>18</ele>
        <time>2022-04-15T14:40:05.000Z</time>
      </trkpt>
      <trkpt lat="50.42771" lon="3.36524">
        <ele>18</ele>
        <time>2022-04-15T14:40:06.000Z</time>
      </trkpt>
      <trkpt lat="50.42772" lon="3.3651">
        <ele>18</ele>
        <time>2022-04-15T14:40:08.254Z</time>
      </trkpt>
      <trkpt lat="50.42774" lon="3.365">
        <ele>18</ele>
        <time>2022-04-15T14:40:10.293Z</time>
      </trkpt>
      <trkpt lat="50.42775" lon="3.36491">
        <ele>18</ele>
        <time>2022-04-15T14:40:11.804Z</time>
      </trkpt>
      <trkpt lat="50.42777" lon="3.36481">
        <ele>18</ele>
        <time>2022-04-15T14:40:13.000Z</time>
      </trkpt>
      <trkpt lat="50.42778" lon="3.36473">
        <ele>18</ele>
        <time>2022-04-15T14:40:14.000Z</time>
      </trkpt>
      <trkpt lat="50.42779" lon="3.36466">
        <ele>18</ele>
        <time>2022-04-15T14:40:15.000Z</time>
      </trkpt>
      <trkpt lat="50.4278" lon="3.36459">
        <ele>18</ele>
        <time>2022-04-15T14:40:16.000Z</time>
      </trkpt>
      <trkpt lat="50.42781" lon="3.36452">
        <ele>18</ele>
        <time>2022-04-15T14:40:17.000Z</time>
      </trkpt>
      <trkpt lat="50.42782" lon="3.36445">
        <ele>18</ele>
        <time>2022-04-15T14:40:18.000Z</time>
      </trkpt>
      <trkpt lat="50.42784" lon="3.36433">
        <ele>18</ele>
        <time>2022-04-15T14:40:20.064Z</time>
      </trkpt>
      <trkpt lat="50.42785" lon="3.36425">
        <ele>18</ele>
        <time>2022-04-15T14:40:21.000Z</time>
      </trkpt>
      <trkpt lat="50.42787" lon="3.36411">
        <ele>18</ele>
        <time>2022-04-15T14:40:23.000Z</time>
      </trkpt>
      <trkpt lat="50.42788" lon="3.36403">
        <ele>18</ele>
        <time>2022-04-15T14:40:24.000Z</time>
      </trkpt>
      <trkpt lat="50.42789" lon="3.36391">
        <ele>18</ele>
        <time>2022-04-15T14:40:26.000Z</time>
      </trkpt>
      <trkpt lat="50.42789" lon="3.36379">
        <ele>18</ele>
        <time>2022-04-15T14:40:28.000Z</time>
      </trkpt>
      <trkpt lat="50.42792" lon="3.36365">
        <ele>18</ele>
        <time>2022-04-15T14:40:29.859Z</time>
      </trkpt>
      <trkpt lat="50.42793" lon="3.36357">
        <ele>18</ele>
        <time>2022-04-15T14:40:31.000Z</time>
      </trkpt>
      <trkpt lat="50.42794" lon="3.3635">
        <ele>18</ele>
        <time>2022-04-15T14:40:32.000Z</time>
      </trkpt>
      <trkpt lat="50.42797" lon="3.36331">
        <ele>18</ele>
        <time>2022-04-15T14:40:34.000Z</time>
      </trkpt>
      <trkpt lat="50.42799" lon="3.36321">
        <ele>18</ele>
        <time>2022-04-15T14:40:35.000Z</time>
      </trkpt>
      <trkpt lat="50.428" lon="3.36312">
        <ele>18</ele>
        <time>2022-04-15T14:40:37.099Z</time>
      </trkpt>
      <trkpt lat="50.42802" lon="3.36299">
        <ele>17.8</ele>
        <time>2022-04-15T14:40:39.000Z</time>
      </trkpt>
      <trkpt lat="50.42804" lon="3.36286">
        <ele>17.3</ele>
        <time>2022-04-15T14:40:41.000Z</time>
      </trkpt>
      <trkpt lat="50.42805" lon="3.36278">
        <ele>17</ele>
        <time>2022-04-15T14:40:42.000Z</time>
      </trkpt>
      <trkpt lat="50.42806" lon="3.36271">
        <ele>17</ele>
        <time>2022-04-15T14:40:43.000Z</time>
      </trkpt>
      <trkpt lat="50.42807" lon="3.36264">
        <ele>17.1</ele>
        <time>2022-04-15T14:40:44.000Z</time>
      </trkpt>
      <trkpt lat="50.42809" lon="3.3625">
        <ele>17.1</ele>
        <time>2022-04-15T14:40:46.000Z</time>
      </trkpt>
      <trkpt lat="50.4281" lon="3.36243">
        <ele>17.2</ele>
        <time>2022-04-15T14:40:47.000Z</time>
      </trkpt>
      <trkpt lat="50.42811" lon="3.36231">
        <ele>17.2</ele>
        <time>2022-04-15T14:40:48.000Z</time>
      </trkpt>
      <trkpt lat="50.42813" lon="3.36221">
        <ele>17.3</ele>
        <time>2022-04-15T14:40:50.000Z</time>
      </trkpt>
      <trkpt lat="50.42814" lon="3.36212">
        <ele>17.2</ele>
        <time>2022-04-15T14:40:51.000Z</time>
      </trkpt>
      <trkpt lat="50.42815" lon="3.36205">
        <ele>17.1</ele>
        <time>2022-04-15T14:40:52.000Z</time>
      </trkpt>
      <trkpt lat="50.42817" lon="3.36193">
        <ele>17</ele>
        <time>2022-04-15T14:40:54.000Z</time>
      </trkpt>
      <trkpt lat="50.4282" lon="3.36178">
        <ele>17</ele>
        <time>2022-04-15T14:40:56.000Z</time>
      </trkpt>
      <trkpt lat="50.42822" lon="3.36166">
        <ele>17</ele>
        <time>2022-04-15T14:40:58.000Z</time>
      </trkpt>
      <trkpt lat="50.42822" lon="3.36158">
        <ele>17</ele>
        <time>2022-04-15T14:40:59.000Z</time>
      </trkpt>
      <trkpt lat="50.42824" lon="3.36141">
        <ele>17</ele>
        <time>2022-04-15T14:41:01.000Z</time>
      </trkpt>
      <trkpt lat="50.42826" lon="3.3613">
        <ele>17</ele>
        <time>2022-04-15T14:41:03.000Z</time>
      </trkpt>
      <trkpt lat="50.42827" lon="3.36122">
        <ele>17</ele>
        <time>2022-04-15T14:41:04.000Z</time>
      </trkpt>
      <trkpt lat="50.42829" lon="3.36111">
        <ele>17</ele>
        <time>2022-04-15T14:41:06.000Z</time>
      </trkpt>
      <trkpt lat="50.42831" lon="3.36098">
        <ele>17</ele>
        <time>2022-04-15T14:41:07.856Z</time>
      </trkpt>
      <trkpt lat="50.42832" lon="3.36089">
        <ele>17</ele>
        <time>2022-04-15T14:41:09.000Z</time>
      </trkpt>
      <trkpt lat="50.42834" lon="3.36073">
        <ele>17</ele>
        <time>2022-04-15T14:41:10.942Z</time>
      </trkpt>
      <trkpt lat="50.42836" lon="3.36062">
        <ele>17</ele>
        <time>2022-04-15T14:41:13.000Z</time>
      </trkpt>
      <trkpt lat="50.42837" lon="3.36055">
        <ele>17</ele>
        <time>2022-04-15T14:41:14.000Z</time>
      </trkpt>
      <trkpt lat="50.4284" lon="3.36043">
        <ele>17</ele>
        <time>2022-04-15T14:41:16.000Z</time>
      </trkpt>
      <trkpt lat="50.4284" lon="3.36035">
        <ele>17</ele>
        <time>2022-04-15T14:41:17.000Z</time>
      </trkpt>
      <trkpt lat="50.42841" lon="3.36029">
        <ele>17</ele>
        <time>2022-04-15T14:41:18.000Z</time>
      </trkpt>
      <trkpt lat="50.42841" lon="3.3602">
        <ele>17</ele>
        <time>2022-04-15T14:41:19.000Z</time>
      </trkpt>
      <trkpt lat="50.42843" lon="3.36007">
        <ele>17</ele>
        <time>2022-04-15T14:41:21.000Z</time>
      </trkpt>
      <trkpt lat="50.42844" lon="3.36">
        <ele>17</ele>
        <time>2022-04-15T14:41:22.000Z</time>
      </trkpt>
      <trkpt lat="50.42846" lon="3.35985">
        <ele>17</ele>
        <time>2022-04-15T14:41:24.000Z</time>
      </trkpt>
      <trkpt lat="50.42848" lon="3.35972">
        <ele>17</ele>
        <time>2022-04-15T14:41:26.000Z</time>
      </trkpt>
      <trkpt lat="50.42849" lon="3.35963">
        <ele>17</ele>
        <time>2022-04-15T14:41:27.000Z</time>
      </trkpt>
      <trkpt lat="50.42851" lon="3.35954">
        <ele>17</ele>
        <time>2022-04-15T14:41:28.000Z</time>
      </trkpt>
      <trkpt lat="50.42853" lon="3.35944">
        <ele>17</ele>
        <time>2022-04-15T14:41:30.000Z</time>
      </trkpt>
      <trkpt lat="50.42854" lon="3.35936">
        <ele>17</ele>
        <time>2022-04-15T14:41:31.000Z</time>
      </trkpt>
      <trkpt lat="50.42856" lon="3.35922">
        <ele>17</ele>
        <time>2022-04-15T14:41:33.000Z</time>
      </trkpt>
      <trkpt lat="50.42857" lon="3.35908">
        <ele>17</ele>
        <time>2022-04-15T14:41:35.000Z</time>
      </trkpt>
      <trkpt lat="50.42859" lon="3.35894">
        <ele>17</ele>
        <time>2022-04-15T14:41:37.000Z</time>
      </trkpt>
      <trkpt lat="50.42861" lon="3.35881">
        <ele>17.3</ele>
        <time>2022-04-15T14:41:39.000Z</time>
      </trkpt>
      <trkpt lat="50.42863" lon="3.35868">
        <ele>17.7</ele>
        <time>2022-04-15T14:41:41.000Z</time>
      </trkpt>
      <trkpt lat="50.42864" lon="3.3586">
        <ele>17.9</ele>
        <time>2022-04-15T14:41:42.000Z</time>
      </trkpt>
      <trkpt lat="50.42866" lon="3.35848">
        <ele>17.8</ele>
        <time>2022-04-15T14:41:44.000Z</time>
      </trkpt>
      <trkpt lat="50.42868" lon="3.35834">
        <ele>17.8</ele>
        <time>2022-04-15T14:41:46.000Z</time>
      </trkpt>
      <trkpt lat="50.4287" lon="3.3582">
        <ele>17.7</ele>
        <time>2022-04-15T14:41:48.000Z</time>
      </trkpt>
      <trkpt lat="50.42871" lon="3.35812">
        <ele>17.6</ele>
        <time>2022-04-15T14:41:49.000Z</time>
      </trkpt>
      <trkpt lat="50.42873" lon="3.35799">
        <ele>17.7</ele>
        <time>2022-04-15T14:41:51.000Z</time>
      </trkpt>
      <trkpt lat="50.42873" lon="3.3579">
        <ele>17.8</ele>
        <time>2022-04-15T14:41:52.000Z</time>
      </trkpt>
      <trkpt lat="50.42874" lon="3.35779">
        <ele>18</ele>
        <time>2022-04-15T14:41:54.193Z</time>
      </trkpt>
      <trkpt lat="50.42877" lon="3.35769">
        <ele>18</ele>
        <time>2022-04-15T14:41:55.470Z</time>
      </trkpt>
      <trkpt lat="50.42879" lon="3.35761">
        <ele>18</ele>
        <time>2022-04-15T14:41:56.846Z</time>
      </trkpt>
      <trkpt lat="50.42879" lon="3.3575">
        <ele>18</ele>
        <time>2022-04-15T14:41:58.000Z</time>
      </trkpt>
      <trkpt lat="50.4288" lon="3.3574">
        <ele>18</ele>
        <time>2022-04-15T14:41:59.168Z</time>
      </trkpt>
      <trkpt lat="50.42881" lon="3.35728">
        <ele>18</ele>
        <time>2022-04-15T14:42:01.000Z</time>
      </trkpt>
      <trkpt lat="50.42882" lon="3.35718">
        <ele>18</ele>
        <time>2022-04-15T14:42:03.084Z</time>
      </trkpt>
      <trkpt lat="50.42884" lon="3.35708">
        <ele>18</ele>
        <time>2022-04-15T14:42:04.629Z</time>
      </trkpt>
      <trkpt lat="50.42886" lon="3.35696">
        <ele>18</ele>
        <time>2022-04-15T14:42:06.806Z</time>
      </trkpt>
      <trkpt lat="50.42888" lon="3.35688">
        <ele>18</ele>
        <time>2022-04-15T14:42:08.000Z</time>
      </trkpt>
      <trkpt lat="50.42889" lon="3.35681">
        <ele>18</ele>
        <time>2022-04-15T14:42:09.024Z</time>
      </trkpt>
      <trkpt lat="50.42891" lon="3.35665">
        <ele>17.9</ele>
        <time>2022-04-15T14:42:11.000Z</time>
      </trkpt>
      <trkpt lat="50.42891" lon="3.35654">
        <ele>17.9</ele>
        <time>2022-04-15T14:42:12.948Z</time>
      </trkpt>
      <trkpt lat="50.42893" lon="3.3564">
        <ele>17.9</ele>
        <time>2022-04-15T14:42:15.000Z</time>
      </trkpt>
      <trkpt lat="50.42898" lon="3.35632">
        <ele>17.7</ele>
        <time>2022-04-15T14:42:17.000Z</time>
      </trkpt>
      <trkpt lat="50.42898" lon="3.35624">
        <ele>17.7</ele>
        <time>2022-04-15T14:42:18.000Z</time>
      </trkpt>
      <trkpt lat="50.42898" lon="3.35609">
        <ele>17.7</ele>
        <time>2022-04-15T14:42:20.000Z</time>
      </trkpt>
      <trkpt lat="50.42901" lon="3.35595">
        <ele>17.6</ele>
        <time>2022-04-15T14:42:22.000Z</time>
      </trkpt>
      <trkpt lat="50.42903" lon="3.35584">
        <ele>17.5</ele>
        <time>2022-04-15T14:42:23.841Z</time>
      </trkpt>
      <trkpt lat="50.42904" lon="3.35574">
        <ele>17.6</ele>
        <time>2022-04-15T14:42:25.000Z</time>
      </trkpt>
      <trkpt lat="50.42907" lon="3.35562">
        <ele>17.8</ele>
        <time>2022-04-15T14:42:27.001Z</time>
      </trkpt>
      <trkpt lat="50.42914" lon="3.35552">
        <ele>17.9</ele>
        <time>2022-04-15T14:42:29.164Z</time>
      </trkpt>
      <trkpt lat="50.42919" lon="3.35546">
        <ele>17.6</ele>
        <time>2022-04-15T14:42:30.400Z</time>
      </trkpt>
      <trkpt lat="50.42924" lon="3.35538">
        <ele>17.4</ele>
        <time>2022-04-15T14:42:32.000Z</time>
      </trkpt>
      <trkpt lat="50.42929" lon="3.35529">
        <ele>17.4</ele>
        <time>2022-04-15T14:42:34.000Z</time>
      </trkpt>
      <trkpt lat="50.42927" lon="3.35519">
        <ele>17.3</ele>
        <time>2022-04-15T14:42:35.750Z</time>
      </trkpt>
      <trkpt lat="50.42923" lon="3.35515">
        <ele>17.1</ele>
        <time>2022-04-15T14:42:37.000Z</time>
      </trkpt>
      <trkpt lat="50.42919" lon="3.3551">
        <ele>17</ele>
        <time>2022-04-15T14:42:38.000Z</time>
      </trkpt>
      <trkpt lat="50.42914" lon="3.35504">
        <ele>17</ele>
        <time>2022-04-15T14:42:39.000Z</time>
      </trkpt>
      <trkpt lat="50.42911" lon="3.35498">
        <ele>17</ele>
        <time>2022-04-15T14:42:40.000Z</time>
      </trkpt>
      <trkpt lat="50.42907" lon="3.35492">
        <ele>17</ele>
        <time>2022-04-15T14:42:41.000Z</time>
      </trkpt>
      <trkpt lat="50.42903" lon="3.35488">
        <ele>17</ele>
        <time>2022-04-15T14:42:42.000Z</time>
      </trkpt>
      <trkpt lat="50.42898" lon="3.35483">
        <ele>17</ele>
        <time>2022-04-15T14:42:43.000Z</time>
      </trkpt>
      <trkpt lat="50.42889" lon="3.35478">
        <ele>17</ele>
        <time>2022-04-15T14:42:45.000Z</time>
      </trkpt>
      <trkpt lat="50.42886" lon="3.35473">
        <ele>17</ele>
        <time>2022-04-15T14:42:46.000Z</time>
      </trkpt>
      <trkpt lat="50.42878" lon="3.35467">
        <ele>17</ele>
        <time>2022-04-15T14:42:48.000Z</time>
      </trkpt>
      <trkpt lat="50.4287" lon="3.3546">
        <ele>17</ele>
        <time>2022-04-15T14:42:50.000Z</time>
      </trkpt>
      <trkpt lat="50.42865" lon="3.35455">
        <ele>17</ele>
        <time>2022-04-15T14:42:51.000Z</time>
      </trkpt>
      <trkpt lat="50.42861" lon="3.3545">
        <ele>17</ele>
        <time>2022-04-15T14:42:52.000Z</time>
      </trkpt>
      <trkpt lat="50.42857" lon="3.35444">
        <ele>17</ele>
        <time>2022-04-15T14:42:53.000Z</time>
      </trkpt>
      <trkpt lat="50.42853" lon="3.35437">
        <ele>17</ele>
        <time>2022-04-15T14:42:54.000Z</time>
      </trkpt>
      <trkpt lat="50.4285" lon="3.35431">
        <ele>17</ele>
        <time>2022-04-15T14:42:55.000Z</time>
      </trkpt>
      <trkpt lat="50.42847" lon="3.35423">
        <ele>17</ele>
        <time>2022-04-15T14:42:56.000Z</time>
      </trkpt>
      <trkpt lat="50.42844" lon="3.35416">
        <ele>17</ele>
        <time>2022-04-15T14:42:57.000Z</time>
      </trkpt>
      <trkpt lat="50.42843" lon="3.35409">
        <ele>17</ele>
        <time>2022-04-15T14:42:58.000Z</time>
      </trkpt>
      <trkpt lat="50.42841" lon="3.35401">
        <ele>17</ele>
        <time>2022-04-15T14:42:59.000Z</time>
      </trkpt>
      <trkpt lat="50.42838" lon="3.35394">
        <ele>17</ele>
        <time>2022-04-15T14:43:00.000Z</time>
      </trkpt>
      <trkpt lat="50.42836" lon="3.35386">
        <ele>17</ele>
        <time>2022-04-15T14:43:01.000Z</time>
      </trkpt>
      <trkpt lat="50.42834" lon="3.35378">
        <ele>17</ele>
        <time>2022-04-15T14:43:02.000Z</time>
      </trkpt>
      <trkpt lat="50.42832" lon="3.35372">
        <ele>17</ele>
        <time>2022-04-15T14:43:03.000Z</time>
      </trkpt>
      <trkpt lat="50.42829" lon="3.35356">
        <ele>17</ele>
        <time>2022-04-15T14:43:05.000Z</time>
      </trkpt>
      <trkpt lat="50.42828" lon="3.3535">
        <ele>17</ele>
        <time>2022-04-15T14:43:06.000Z</time>
      </trkpt>
      <trkpt lat="50.42826" lon="3.35342">
        <ele>17</ele>
        <time>2022-04-15T14:43:07.000Z</time>
      </trkpt>
      <trkpt lat="50.42825" lon="3.35335">
        <ele>17</ele>
        <time>2022-04-15T14:43:08.000Z</time>
      </trkpt>
      <trkpt lat="50.42823" lon="3.35328">
        <ele>17</ele>
        <time>2022-04-15T14:43:09.000Z</time>
      </trkpt>
      <trkpt lat="50.42821" lon="3.35321">
        <ele>17</ele>
        <time>2022-04-15T14:43:10.000Z</time>
      </trkpt>
      <trkpt lat="50.42819" lon="3.35314">
        <ele>17</ele>
        <time>2022-04-15T14:43:11.000Z</time>
      </trkpt>
      <trkpt lat="50.42817" lon="3.35308">
        <ele>17</ele>
        <time>2022-04-15T14:43:12.000Z</time>
      </trkpt>
      <trkpt lat="50.42815" lon="3.35301">
        <ele>17.1</ele>
        <time>2022-04-15T14:43:13.000Z</time>
      </trkpt>
      <trkpt lat="50.42812" lon="3.35287">
        <ele>17.5</ele>
        <time>2022-04-15T14:43:15.000Z</time>
      </trkpt>
      <trkpt lat="50.4281" lon="3.3528">
        <ele>17.8</ele>
        <time>2022-04-15T14:43:16.000Z</time>
      </trkpt>
      <trkpt lat="50.42809" lon="3.35272">
        <ele>17.9</ele>
        <time>2022-04-15T14:43:17.000Z</time>
      </trkpt>
      <trkpt lat="50.42807" lon="3.35265">
        <ele>17.9</ele>
        <time>2022-04-15T14:43:18.000Z</time>
      </trkpt>
      <trkpt lat="50.42805" lon="3.35259">
        <ele>18</ele>
        <time>2022-04-15T14:43:19.000Z</time>
      </trkpt>
      <trkpt lat="50.42804" lon="3.35252">
        <ele>17.9</ele>
        <time>2022-04-15T14:43:20.000Z</time>
      </trkpt>
      <trkpt lat="50.42802" lon="3.35245">
        <ele>17.7</ele>
        <time>2022-04-15T14:43:21.000Z</time>
      </trkpt>
      <trkpt lat="50.42799" lon="3.35237">
        <ele>17.4</ele>
        <time>2022-04-15T14:43:22.000Z</time>
      </trkpt>
      <trkpt lat="50.42796" lon="3.35224">
        <ele>17</ele>
        <time>2022-04-15T14:43:24.000Z</time>
      </trkpt>
      <trkpt lat="50.42794" lon="3.35216">
        <ele>17</ele>
        <time>2022-04-15T14:43:25.000Z</time>
      </trkpt>
      <trkpt lat="50.42792" lon="3.35208">
        <ele>17</ele>
        <time>2022-04-15T14:43:26.000Z</time>
      </trkpt>
      <trkpt lat="50.4279" lon="3.35199">
        <ele>17</ele>
        <time>2022-04-15T14:43:27.000Z</time>
      </trkpt>
      <trkpt lat="50.42787" lon="3.35184">
        <ele>17</ele>
        <time>2022-04-15T14:43:29.000Z</time>
      </trkpt>
      <trkpt lat="50.42785" lon="3.35176">
        <ele>17</ele>
        <time>2022-04-15T14:43:30.000Z</time>
      </trkpt>
      <trkpt lat="50.42783" lon="3.3517">
        <ele>17</ele>
        <time>2022-04-15T14:43:31.000Z</time>
      </trkpt>
      <trkpt lat="50.42781" lon="3.35162">
        <ele>17</ele>
        <time>2022-04-15T14:43:32.000Z</time>
      </trkpt>
      <trkpt lat="50.42779" lon="3.35153">
        <ele>17</ele>
        <time>2022-04-15T14:43:33.000Z</time>
      </trkpt>
      <trkpt lat="50.42775" lon="3.35139">
        <ele>16.9</ele>
        <time>2022-04-15T14:43:35.000Z</time>
      </trkpt>
      <trkpt lat="50.42774" lon="3.35133">
        <ele>16.9</ele>
        <time>2022-04-15T14:43:36.000Z</time>
      </trkpt>
      <trkpt lat="50.42772" lon="3.35126">
        <ele>16.8</ele>
        <time>2022-04-15T14:43:37.000Z</time>
      </trkpt>
      <trkpt lat="50.42771" lon="3.35119">
        <ele>16.8</ele>
        <time>2022-04-15T14:43:38.000Z</time>
      </trkpt>
      <trkpt lat="50.42769" lon="3.35112">
        <ele>16.7</ele>
        <time>2022-04-15T14:43:39.000Z</time>
      </trkpt>
      <trkpt lat="50.42767" lon="3.35103">
        <ele>16.7</ele>
        <time>2022-04-15T14:43:40.000Z</time>
      </trkpt>
      <trkpt lat="50.42765" lon="3.35096">
        <ele>16.8</ele>
        <time>2022-04-15T14:43:41.000Z</time>
      </trkpt>
      <trkpt lat="50.42763" lon="3.35088">
        <ele>16.9</ele>
        <time>2022-04-15T14:43:42.000Z</time>
      </trkpt>
      <trkpt lat="50.42762" lon="3.3508">
        <ele>17</ele>
        <time>2022-04-15T14:43:43.000Z</time>
      </trkpt>
      <trkpt lat="50.42761" lon="3.35073">
        <ele>17</ele>
        <time>2022-04-15T14:43:44.000Z</time>
      </trkpt>
      <trkpt lat="50.42759" lon="3.35066">
        <ele>17</ele>
        <time>2022-04-15T14:43:45.000Z</time>
      </trkpt>
      <trkpt lat="50.42757" lon="3.35059">
        <ele>17</ele>
        <time>2022-04-15T14:43:46.000Z</time>
      </trkpt>
      <trkpt lat="50.42753" lon="3.35045">
        <ele>17.3</ele>
        <time>2022-04-15T14:43:48.000Z</time>
      </trkpt>
      <trkpt lat="50.42751" lon="3.35037">
        <ele>17.6</ele>
        <time>2022-04-15T14:43:49.000Z</time>
      </trkpt>
      <trkpt lat="50.4275" lon="3.35031">
        <ele>17.9</ele>
        <time>2022-04-15T14:43:50.000Z</time>
      </trkpt>
      <trkpt lat="50.42748" lon="3.35024">
        <ele>17.9</ele>
        <time>2022-04-15T14:43:51.000Z</time>
      </trkpt>
      <trkpt lat="50.42747" lon="3.35016">
        <ele>17.9</ele>
        <time>2022-04-15T14:43:52.000Z</time>
      </trkpt>
      <trkpt lat="50.42746" lon="3.35009">
        <ele>17.9</ele>
        <time>2022-04-15T14:43:53.000Z</time>
      </trkpt>
      <trkpt lat="50.42745" lon="3.35">
        <ele>17.8</ele>
        <time>2022-04-15T14:43:54.000Z</time>
      </trkpt>
      <trkpt lat="50.42744" lon="3.34992">
        <ele>17.8</ele>
        <time>2022-04-15T14:43:55.000Z</time>
      </trkpt>
      <trkpt lat="50.42743" lon="3.34977">
        <ele>17.7</ele>
        <time>2022-04-15T14:43:57.000Z</time>
      </trkpt>
      <trkpt lat="50.42743" lon="3.34969">
        <ele>17.7</ele>
        <time>2022-04-15T14:43:58.000Z</time>
      </trkpt>
      <trkpt lat="50.42742" lon="3.34954">
        <ele>17.2</ele>
        <time>2022-04-15T14:44:00.000Z</time>
      </trkpt>
      <trkpt lat="50.42741" lon="3.34947">
        <ele>17.1</ele>
        <time>2022-04-15T14:44:01.000Z</time>
      </trkpt>
      <trkpt lat="50.4274" lon="3.3494">
        <ele>17.1</ele>
        <time>2022-04-15T14:44:02.000Z</time>
      </trkpt>
      <trkpt lat="50.42739" lon="3.34927">
        <ele>17.2</ele>
        <time>2022-04-15T14:44:04.000Z</time>
      </trkpt>
      <trkpt lat="50.42738" lon="3.34919">
        <ele>17.4</ele>
        <time>2022-04-15T14:44:05.000Z</time>
      </trkpt>
      <trkpt lat="50.42738" lon="3.3491">
        <ele>17.3</ele>
        <time>2022-04-15T14:44:06.000Z</time>
      </trkpt>
      <trkpt lat="50.42737" lon="3.34897">
        <ele>17.1</ele>
        <time>2022-04-15T14:44:08.000Z</time>
      </trkpt>
      <trkpt lat="50.42736" lon="3.34889">
        <ele>17</ele>
        <time>2022-04-15T14:44:09.000Z</time>
      </trkpt>
      <trkpt lat="50.42736" lon="3.34882">
        <ele>17</ele>
        <time>2022-04-15T14:44:10.000Z</time>
      </trkpt>
      <trkpt lat="50.42735" lon="3.34874">
        <ele>17</ele>
        <time>2022-04-15T14:44:11.000Z</time>
      </trkpt>
      <trkpt lat="50.42735" lon="3.34867">
        <ele>17</ele>
        <time>2022-04-15T14:44:12.000Z</time>
      </trkpt>
      <trkpt lat="50.42735" lon="3.34855">
        <ele>17</ele>
        <time>2022-04-15T14:44:14.030Z</time>
      </trkpt>
      <trkpt lat="50.42735" lon="3.34847">
        <ele>17</ele>
        <time>2022-04-15T14:44:15.000Z</time>
      </trkpt>
      <trkpt lat="50.42732" lon="3.34833">
        <ele>17</ele>
        <time>2022-04-15T14:44:17.000Z</time>
      </trkpt>
      <trkpt lat="50.4273" lon="3.34822">
        <ele>17</ele>
        <time>2022-04-15T14:44:19.000Z</time>
      </trkpt>
      <trkpt lat="50.42729" lon="3.34815">
        <ele>17</ele>
        <time>2022-04-15T14:44:20.000Z</time>
      </trkpt>
      <trkpt lat="50.42728" lon="3.34806">
        <ele>17</ele>
        <time>2022-04-15T14:44:21.000Z</time>
      </trkpt>
      <trkpt lat="50.42727" lon="3.34799">
        <ele>17.2</ele>
        <time>2022-04-15T14:44:22.000Z</time>
      </trkpt>
      <trkpt lat="50.42726" lon="3.34792">
        <ele>17.4</ele>
        <time>2022-04-15T14:44:23.000Z</time>
      </trkpt>
      <trkpt lat="50.42725" lon="3.34784">
        <ele>17.7</ele>
        <time>2022-04-15T14:44:24.000Z</time>
      </trkpt>
      <trkpt lat="50.42724" lon="3.34777">
        <ele>17.9</ele>
        <time>2022-04-15T14:44:25.000Z</time>
      </trkpt>
      <trkpt lat="50.42723" lon="3.34763">
        <ele>18</ele>
        <time>2022-04-15T14:44:27.000Z</time>
      </trkpt>
      <trkpt lat="50.42722" lon="3.34749">
        <ele>18</ele>
        <time>2022-04-15T14:44:29.000Z</time>
      </trkpt>
      <trkpt lat="50.42721" lon="3.3474">
        <ele>17.6</ele>
        <time>2022-04-15T14:44:30.000Z</time>
      </trkpt>
      <trkpt lat="50.42721" lon="3.34733">
        <ele>17.4</ele>
        <time>2022-04-15T14:44:31.000Z</time>
      </trkpt>
      <trkpt lat="50.42721" lon="3.34725">
        <ele>17.1</ele>
        <time>2022-04-15T14:44:32.000Z</time>
      </trkpt>
      <trkpt lat="50.42722" lon="3.34714">
        <ele>17</ele>
        <time>2022-04-15T14:44:34.009Z</time>
      </trkpt>
      <trkpt lat="50.42725" lon="3.34705">
        <ele>17</ele>
        <time>2022-04-15T14:44:35.000Z</time>
      </trkpt>
      <trkpt lat="50.42728" lon="3.34696">
        <ele>17</ele>
        <time>2022-04-15T14:44:36.000Z</time>
      </trkpt>
      <trkpt lat="50.42734" lon="3.34686">
        <ele>17.1</ele>
        <time>2022-04-15T14:44:38.000Z</time>
      </trkpt>
      <trkpt lat="50.42737" lon="3.3468">
        <ele>17.3</ele>
        <time>2022-04-15T14:44:39.000Z</time>
      </trkpt>
      <trkpt lat="50.42744" lon="3.34668">
        <ele>17.7</ele>
        <time>2022-04-15T14:44:41.000Z</time>
      </trkpt>
      <trkpt lat="50.42749" lon="3.34662">
        <ele>18</ele>
        <time>2022-04-15T14:44:43.000Z</time>
      </trkpt>
      <trkpt lat="50.42755" lon="3.34659">
        <ele>17.9</ele>
        <time>2022-04-15T14:44:44.000Z</time>
      </trkpt>
      <trkpt lat="50.42762" lon="3.34656">
        <ele>17.7</ele>
        <time>2022-04-15T14:44:46.000Z</time>
      </trkpt>
      <trkpt lat="50.4277" lon="3.34656">
        <ele>17.6</ele>
        <time>2022-04-15T14:44:48.000Z</time>
      </trkpt>
      <trkpt lat="50.4278" lon="3.34654">
        <ele>17.4</ele>
        <time>2022-04-15T14:44:50.000Z</time>
      </trkpt>
      <trkpt lat="50.42787" lon="3.34657">
        <ele>17.2</ele>
        <time>2022-04-15T14:44:52.000Z</time>
      </trkpt>
      <trkpt lat="50.42795" lon="3.34657">
        <ele>17.1</ele>
        <time>2022-04-15T14:44:54.000Z</time>
      </trkpt>
      <trkpt lat="50.42803" lon="3.34657">
        <ele>17</ele>
        <time>2022-04-15T14:44:56.000Z</time>
      </trkpt>
      <trkpt lat="50.42808" lon="3.34657">
        <ele>17</ele>
        <time>2022-04-15T14:44:58.000Z</time>
      </trkpt>
      <trkpt lat="50.42814" lon="3.34659">
        <ele>17</ele>
        <time>2022-04-15T14:44:59.000Z</time>
      </trkpt>
      <trkpt lat="50.42823" lon="3.34659">
        <ele>17</ele>
        <time>2022-04-15T14:45:01.000Z</time>
      </trkpt>
      <trkpt lat="50.4283" lon="3.34659">
        <ele>17</ele>
        <time>2022-04-15T14:45:03.000Z</time>
      </trkpt>
      <trkpt lat="50.42839" lon="3.34658">
        <ele>17</ele>
        <time>2022-04-15T14:45:05.000Z</time>
      </trkpt>
      <trkpt lat="50.42846" lon="3.34659">
        <ele>17</ele>
        <time>2022-04-15T14:45:07.000Z</time>
      </trkpt>
      <trkpt lat="50.42851" lon="3.34658">
        <ele>17</ele>
        <time>2022-04-15T14:45:08.000Z</time>
      </trkpt>
      <trkpt lat="50.42859" lon="3.34657">
        <ele>17</ele>
        <time>2022-04-15T14:45:10.000Z</time>
      </trkpt>
      <trkpt lat="50.42866" lon="3.34657">
        <ele>17</ele>
        <time>2022-04-15T14:45:12.000Z</time>
      </trkpt>
      <trkpt lat="50.42874" lon="3.34656">
        <ele>17</ele>
        <time>2022-04-15T14:45:14.000Z</time>
      </trkpt>
      <trkpt lat="50.42881" lon="3.34653">
        <ele>17</ele>
        <time>2022-04-15T14:45:16.000Z</time>
      </trkpt>
      <trkpt lat="50.42888" lon="3.34653">
        <ele>17</ele>
        <time>2022-04-15T14:45:18.052Z</time>
      </trkpt>
      <trkpt lat="50.42894" lon="3.34653">
        <ele>17</ele>
        <time>2022-04-15T14:45:19.000Z</time>
      </trkpt>
      <trkpt lat="50.42902" lon="3.34652">
        <ele>17</ele>
        <time>2022-04-15T14:45:21.000Z</time>
      </trkpt>
      <trkpt lat="50.4291" lon="3.34652">
        <ele>17</ele>
        <time>2022-04-15T14:45:23.000Z</time>
      </trkpt>
      <trkpt lat="50.42918" lon="3.34652">
        <ele>17</ele>
        <time>2022-04-15T14:45:25.000Z</time>
      </trkpt>
      <trkpt lat="50.42926" lon="3.34653">
        <ele>17</ele>
        <time>2022-04-15T14:45:27.000Z</time>
      </trkpt>
      <trkpt lat="50.42935" lon="3.34658">
        <ele>17</ele>
        <time>2022-04-15T14:45:29.000Z</time>
      </trkpt>
      <trkpt lat="50.42939" lon="3.34662">
        <ele>17</ele>
        <time>2022-04-15T14:45:30.000Z</time>
      </trkpt>
      <trkpt lat="50.42945" lon="3.34667">
        <ele>17</ele>
        <time>2022-04-15T14:45:31.973Z</time>
      </trkpt>
      <trkpt lat="50.4295" lon="3.34672">
        <ele>17.2</ele>
        <time>2022-04-15T14:45:33.000Z</time>
      </trkpt>
      <trkpt lat="50.42958" lon="3.34679">
        <ele>17.3</ele>
        <time>2022-04-15T14:45:35.000Z</time>
      </trkpt>
      <trkpt lat="50.42964" lon="3.34687">
        <ele>17.2</ele>
        <time>2022-04-15T14:45:37.000Z</time>
      </trkpt>
      <trkpt lat="50.42968" lon="3.34694">
        <ele>17</ele>
        <time>2022-04-15T14:45:39.000Z</time>
      </trkpt>
      <trkpt lat="50.42972" lon="3.34699">
        <ele>17</ele>
        <time>2022-04-15T14:45:40.000Z</time>
      </trkpt>
      <trkpt lat="50.42976" lon="3.34703">
        <ele>17</ele>
        <time>2022-04-15T14:45:41.000Z</time>
      </trkpt>
      <trkpt lat="50.4298" lon="3.34707">
        <ele>17</ele>
        <time>2022-04-15T14:45:42.000Z</time>
      </trkpt>
      <trkpt lat="50.42986" lon="3.34713">
        <ele>17</ele>
        <time>2022-04-15T14:45:44.000Z</time>
      </trkpt>
      <trkpt lat="50.42994" lon="3.3472">
        <ele>17</ele>
        <time>2022-04-15T14:45:46.000Z</time>
      </trkpt>
      <trkpt lat="50.43001" lon="3.34725">
        <ele>17</ele>
        <time>2022-04-15T14:45:48.000Z</time>
      </trkpt>
      <trkpt lat="50.43009" lon="3.3473">
        <ele>17</ele>
        <time>2022-04-15T14:45:50.000Z</time>
      </trkpt>
      <trkpt lat="50.43016" lon="3.34735">
        <ele>17</ele>
        <time>2022-04-15T14:45:51.931Z</time>
      </trkpt>
      <trkpt lat="50.43021" lon="3.34737">
        <ele>17</ele>
        <time>2022-04-15T14:45:53.000Z</time>
      </trkpt>
      <trkpt lat="50.43028" lon="3.34738">
        <ele>17</ele>
        <time>2022-04-15T14:45:55.000Z</time>
      </trkpt>
      <trkpt lat="50.43037" lon="3.34739">
        <ele>17</ele>
        <time>2022-04-15T14:45:57.000Z</time>
      </trkpt>
      <trkpt lat="50.4305" lon="3.34738">
        <ele>17</ele>
        <time>2022-04-15T14:46:00.000Z</time>
      </trkpt>
      <trkpt lat="50.43059" lon="3.34736">
        <ele>17</ele>
        <time>2022-04-15T14:46:02.000Z</time>
      </trkpt>
      <trkpt lat="50.43065" lon="3.34734">
        <ele>17</ele>
        <time>2022-04-15T14:46:03.983Z</time>
      </trkpt>
      <trkpt lat="50.43071" lon="3.34733">
        <ele>17</ele>
        <time>2022-04-15T14:46:05.000Z</time>
      </trkpt>
      <trkpt lat="50.43079" lon="3.34731">
        <ele>17</ele>
        <time>2022-04-15T14:46:07.000Z</time>
      </trkpt>
      <trkpt lat="50.43087" lon="3.34732">
        <ele>17</ele>
        <time>2022-04-15T14:46:08.996Z</time>
      </trkpt>
      <trkpt lat="50.43092" lon="3.34733">
        <ele>17</ele>
        <time>2022-04-15T14:46:10.000Z</time>
      </trkpt>
      <trkpt lat="50.43097" lon="3.34734">
        <ele>17</ele>
        <time>2022-04-15T14:46:11.000Z</time>
      </trkpt>
      <trkpt lat="50.43101" lon="3.34734">
        <ele>17</ele>
        <time>2022-04-15T14:46:12.000Z</time>
      </trkpt>
      <trkpt lat="50.43109" lon="3.34734">
        <ele>17</ele>
        <time>2022-04-15T14:46:14.020Z</time>
      </trkpt>
      <trkpt lat="50.43117" lon="3.34736">
        <ele>17</ele>
        <time>2022-04-15T14:46:16.000Z</time>
      </trkpt>
      <trkpt lat="50.43125" lon="3.34735">
        <ele>17</ele>
        <time>2022-04-15T14:46:18.011Z</time>
      </trkpt>
      <trkpt lat="50.4313" lon="3.34738">
        <ele>17</ele>
        <time>2022-04-15T14:46:19.000Z</time>
      </trkpt>
      <trkpt lat="50.43138" lon="3.34738">
        <ele>17</ele>
        <time>2022-04-15T14:46:20.700Z</time>
      </trkpt>
      <trkpt lat="50.43148" lon="3.34736">
        <ele>17</ele>
        <time>2022-04-15T14:46:23.100Z</time>
      </trkpt>
      <trkpt lat="50.43153" lon="3.34732">
        <ele>17</ele>
        <time>2022-04-15T14:46:24.597Z</time>
      </trkpt>
      <trkpt lat="50.4316" lon="3.3472">
        <ele>17</ele>
        <time>2022-04-15T14:46:26.979Z</time>
      </trkpt>
      <trkpt lat="50.43163" lon="3.34715">
        <ele>17</ele>
        <time>2022-04-15T14:46:28.000Z</time>
      </trkpt>
      <trkpt lat="50.43168" lon="3.34705">
        <ele>17</ele>
        <time>2022-04-15T14:46:30.000Z</time>
      </trkpt>
      <trkpt lat="50.43172" lon="3.34694">
        <ele>17</ele>
        <time>2022-04-15T14:46:32.000Z</time>
      </trkpt>
      <trkpt lat="50.43181" lon="3.34694">
        <ele>17</ele>
        <time>2022-04-15T14:46:34.000Z</time>
      </trkpt>
      <trkpt lat="50.4319" lon="3.34697">
        <ele>17</ele>
        <time>2022-04-15T14:46:36.000Z</time>
      </trkpt>
      <trkpt lat="50.43198" lon="3.34699">
        <ele>17</ele>
        <time>2022-04-15T14:46:38.000Z</time>
      </trkpt>
      <trkpt lat="50.43205" lon="3.34701">
        <ele>17</ele>
        <time>2022-04-15T14:46:40.000Z</time>
      </trkpt>
      <trkpt lat="50.4321" lon="3.34703">
        <ele>17</ele>
        <time>2022-04-15T14:46:41.000Z</time>
      </trkpt>
      <trkpt lat="50.43214" lon="3.34704">
        <ele>17</ele>
        <time>2022-04-15T14:46:42.000Z</time>
      </trkpt>
      <trkpt lat="50.43222" lon="3.34704">
        <ele>17</ele>
        <time>2022-04-15T14:46:44.000Z</time>
      </trkpt>
      <trkpt lat="50.4323" lon="3.34702">
        <ele>17</ele>
        <time>2022-04-15T14:46:46.002Z</time>
      </trkpt>
      <trkpt lat="50.43237" lon="3.34696">
        <ele>17</ele>
        <time>2022-04-15T14:46:48.000Z</time>
      </trkpt>
      <trkpt lat="50.43245" lon="3.34687">
        <ele>17</ele>
        <time>2022-04-15T14:46:50.000Z</time>
      </trkpt>
      <trkpt lat="50.43253" lon="3.34679">
        <ele>17</ele>
        <time>2022-04-15T14:46:52.000Z</time>
      </trkpt>
      <trkpt lat="50.43257" lon="3.34671">
        <ele>17</ele>
        <time>2022-04-15T14:46:54.000Z</time>
      </trkpt>
      <trkpt lat="50.43262" lon="3.34668">
        <ele>17</ele>
        <time>2022-04-15T14:46:55.000Z</time>
      </trkpt>
      <trkpt lat="50.43268" lon="3.34659">
        <ele>17</ele>
        <time>2022-04-15T14:46:57.000Z</time>
      </trkpt>
      <trkpt lat="50.43273" lon="3.34652">
        <ele>17</ele>
        <time>2022-04-15T14:46:58.000Z</time>
      </trkpt>
      <trkpt lat="50.4328" lon="3.34646">
        <ele>17</ele>
        <time>2022-04-15T14:47:00.000Z</time>
      </trkpt>
      <trkpt lat="50.43286" lon="3.34639">
        <ele>17</ele>
        <time>2022-04-15T14:47:02.000Z</time>
      </trkpt>
      <trkpt lat="50.43293" lon="3.34636">
        <ele>17</ele>
        <time>2022-04-15T14:47:04.000Z</time>
      </trkpt>
      <trkpt lat="50.43298" lon="3.34632">
        <ele>17</ele>
        <time>2022-04-15T14:47:05.000Z</time>
      </trkpt>
      <trkpt lat="50.43304" lon="3.34629">
        <ele>17</ele>
        <time>2022-04-15T14:47:07.000Z</time>
      </trkpt>
      <trkpt lat="50.43309" lon="3.34631">
        <ele>17</ele>
        <time>2022-04-15T14:47:08.000Z</time>
      </trkpt>
      <trkpt lat="50.43314" lon="3.34628">
        <ele>17</ele>
        <time>2022-04-15T14:47:09.000Z</time>
      </trkpt>
      <trkpt lat="50.43322" lon="3.34626">
        <ele>17</ele>
        <time>2022-04-15T14:47:11.000Z</time>
      </trkpt>
      <trkpt lat="50.43329" lon="3.34624">
        <ele>17</ele>
        <time>2022-04-15T14:47:13.000Z</time>
      </trkpt>
      <trkpt lat="50.43337" lon="3.34622">
        <ele>17</ele>
        <time>2022-04-15T14:47:15.000Z</time>
      </trkpt>
      <trkpt lat="50.43347" lon="3.34622">
        <ele>17</ele>
        <time>2022-04-15T14:47:17.000Z</time>
      </trkpt>
      <trkpt lat="50.43354" lon="3.34621">
        <ele>17</ele>
        <time>2022-04-15T14:47:19.000Z</time>
      </trkpt>
      <trkpt lat="50.43365" lon="3.34624">
        <ele>17</ele>
        <time>2022-04-15T14:47:22.000Z</time>
      </trkpt>
      <trkpt lat="50.43371" lon="3.34625">
        <ele>17</ele>
        <time>2022-04-15T14:47:23.000Z</time>
      </trkpt>
      <trkpt lat="50.43378" lon="3.34627">
        <ele>17</ele>
        <time>2022-04-15T14:47:25.000Z</time>
      </trkpt>
      <trkpt lat="50.43386" lon="3.34626">
        <ele>17</ele>
        <time>2022-04-15T14:47:26.000Z</time>
      </trkpt>
      <trkpt lat="50.43394" lon="3.34628">
        <ele>17</ele>
        <time>2022-04-15T14:47:27.958Z</time>
      </trkpt>
      <trkpt lat="50.43399" lon="3.3463">
        <ele>17</ele>
        <time>2022-04-15T14:47:30.000Z</time>
      </trkpt>
      <trkpt lat="50.43407" lon="3.34631">
        <ele>17</ele>
        <time>2022-04-15T14:47:32.000Z</time>
      </trkpt>
      <trkpt lat="50.43415" lon="3.34633">
        <ele>17</ele>
        <time>2022-04-15T14:47:34.000Z</time>
      </trkpt>
      <trkpt lat="50.43422" lon="3.34634">
        <ele>17</ele>
        <time>2022-04-15T14:47:36.000Z</time>
      </trkpt>
      <trkpt lat="50.43428" lon="3.34634">
        <ele>17.1</ele>
        <time>2022-04-15T14:47:38.000Z</time>
      </trkpt>
      <trkpt lat="50.43435" lon="3.34633">
        <ele>17.1</ele>
        <time>2022-04-15T14:47:40.000Z</time>
      </trkpt>
      <trkpt lat="50.43443" lon="3.34635">
        <ele>17.1</ele>
        <time>2022-04-15T14:47:42.000Z</time>
      </trkpt>
      <trkpt lat="50.4345" lon="3.34641">
        <ele>17.2</ele>
        <time>2022-04-15T14:47:44.000Z</time>
      </trkpt>
      <trkpt lat="50.43454" lon="3.34652">
        <ele>17.3</ele>
        <time>2022-04-15T14:47:46.000Z</time>
      </trkpt>
      <trkpt lat="50.43457" lon="3.34662">
        <ele>17.5</ele>
        <time>2022-04-15T14:47:48.000Z</time>
      </trkpt>
      <trkpt lat="50.43459" lon="3.34669">
        <ele>17.5</ele>
        <time>2022-04-15T14:47:49.000Z</time>
      </trkpt>
      <trkpt lat="50.43461" lon="3.3468">
        <ele>17.6</ele>
        <time>2022-04-15T14:47:51.000Z</time>
      </trkpt>
      <trkpt lat="50.43465" lon="3.34691">
        <ele>17.7</ele>
        <time>2022-04-15T14:47:53.000Z</time>
      </trkpt>
      <trkpt lat="50.43468" lon="3.34699">
        <ele>17.8</ele>
        <time>2022-04-15T14:47:54.940Z</time>
      </trkpt>
      <trkpt lat="50.43472" lon="3.34709">
        <ele>18</ele>
        <time>2022-04-15T14:47:57.000Z</time>
      </trkpt>
      <trkpt lat="50.43477" lon="3.34717">
        <ele>18</ele>
        <time>2022-04-15T14:47:59.000Z</time>
      </trkpt>
      <trkpt lat="50.4348" lon="3.34726">
        <ele>18</ele>
        <time>2022-04-15T14:48:01.000Z</time>
      </trkpt>
      <trkpt lat="50.43484" lon="3.34735">
        <ele>17.8</ele>
        <time>2022-04-15T14:48:03.000Z</time>
      </trkpt>
      <trkpt lat="50.43488" lon="3.34745">
        <ele>17.5</ele>
        <time>2022-04-15T14:48:05.000Z</time>
      </trkpt>
      <trkpt lat="50.43493" lon="3.34752">
        <ele>17.3</ele>
        <time>2022-04-15T14:48:07.000Z</time>
      </trkpt>
      <trkpt lat="50.43498" lon="3.34763">
        <ele>17.1</ele>
        <time>2022-04-15T14:48:09.000Z</time>
      </trkpt>
      <trkpt lat="50.43504" lon="3.34772">
        <ele>17.1</ele>
        <time>2022-04-15T14:48:11.000Z</time>
      </trkpt>
      <trkpt lat="50.43508" lon="3.34781">
        <ele>17.3</ele>
        <time>2022-04-15T14:48:13.000Z</time>
      </trkpt>
      <trkpt lat="50.43513" lon="3.34791">
        <ele>17.5</ele>
        <time>2022-04-15T14:48:15.000Z</time>
      </trkpt>
      <trkpt lat="50.43517" lon="3.348">
        <ele>17.6</ele>
        <time>2022-04-15T14:48:17.000Z</time>
      </trkpt>
      <trkpt lat="50.43522" lon="3.34809">
        <ele>17.8</ele>
        <time>2022-04-15T14:48:19.000Z</time>
      </trkpt>
      <trkpt lat="50.43525" lon="3.3482">
        <ele>18</ele>
        <time>2022-04-15T14:48:21.000Z</time>
      </trkpt>
      <trkpt lat="50.43528" lon="3.34829">
        <ele>18</ele>
        <time>2022-04-15T14:48:23.000Z</time>
      </trkpt>
      <trkpt lat="50.43529" lon="3.34839">
        <ele>18</ele>
        <time>2022-04-15T14:48:25.000Z</time>
      </trkpt>
      <trkpt lat="50.43529" lon="3.3485">
        <ele>18</ele>
        <time>2022-04-15T14:48:27.000Z</time>
      </trkpt>
      <trkpt lat="50.43528" lon="3.34862">
        <ele>18</ele>
        <time>2022-04-15T14:48:29.000Z</time>
      </trkpt>
      <trkpt lat="50.43527" lon="3.34873">
        <ele>17.6</ele>
        <time>2022-04-15T14:48:31.000Z</time>
      </trkpt>
      <trkpt lat="50.43526" lon="3.34884">
        <ele>17.2</ele>
        <time>2022-04-15T14:48:33.000Z</time>
      </trkpt>
      <trkpt lat="50.43524" lon="3.34892">
        <ele>17.1</ele>
        <time>2022-04-15T14:48:34.979Z</time>
      </trkpt>
      <trkpt lat="50.43521" lon="3.34899">
        <ele>17.3</ele>
        <time>2022-04-15T14:48:36.000Z</time>
      </trkpt>
      <trkpt lat="50.43515" lon="3.34908">
        <ele>17.4</ele>
        <time>2022-04-15T14:48:38.000Z</time>
      </trkpt>
      <trkpt lat="50.43509" lon="3.34916">
        <ele>17.3</ele>
        <time>2022-04-15T14:48:40.000Z</time>
      </trkpt>
      <trkpt lat="50.43503" lon="3.34924">
        <ele>17.1</ele>
        <time>2022-04-15T14:48:42.000Z</time>
      </trkpt>
      <trkpt lat="50.43497" lon="3.3493">
        <ele>17.1</ele>
        <time>2022-04-15T14:48:43.901Z</time>
      </trkpt>
      <trkpt lat="50.43492" lon="3.34935">
        <ele>17.1</ele>
        <time>2022-04-15T14:48:45.000Z</time>
      </trkpt>
      <trkpt lat="50.43486" lon="3.34943">
        <ele>17</ele>
        <time>2022-04-15T14:48:47.000Z</time>
      </trkpt>
      <trkpt lat="50.4348" lon="3.34951">
        <ele>17</ele>
        <time>2022-04-15T14:48:49.000Z</time>
      </trkpt>
      <trkpt lat="50.43474" lon="3.3496">
        <ele>17</ele>
        <time>2022-04-15T14:48:51.000Z</time>
      </trkpt>
      <trkpt lat="50.43471" lon="3.34966">
        <ele>17</ele>
        <time>2022-04-15T14:48:52.000Z</time>
      </trkpt>
      <trkpt lat="50.43469" lon="3.34978">
        <ele>17</ele>
        <time>2022-04-15T14:48:54.000Z</time>
      </trkpt>
      <trkpt lat="50.43469" lon="3.34991">
        <ele>17.1</ele>
        <time>2022-04-15T14:48:56.000Z</time>
      </trkpt>
      <trkpt lat="50.43469" lon="3.35004">
        <ele>17.2</ele>
        <time>2022-04-15T14:48:58.000Z</time>
      </trkpt>
      <trkpt lat="50.43469" lon="3.35016">
        <ele>17.6</ele>
        <time>2022-04-15T14:49:00.000Z</time>
      </trkpt>
      <trkpt lat="50.4347" lon="3.35027">
        <ele>18</ele>
        <time>2022-04-15T14:49:02.000Z</time>
      </trkpt>
      <trkpt lat="50.43471" lon="3.35037">
        <ele>18</ele>
        <time>2022-04-15T14:49:04.000Z</time>
      </trkpt>
      <trkpt lat="50.43472" lon="3.35049">
        <ele>18</ele>
        <time>2022-04-15T14:49:06.000Z</time>
      </trkpt>
      <trkpt lat="50.43472" lon="3.3506">
        <ele>18</ele>
        <time>2022-04-15T14:49:08.000Z</time>
      </trkpt>
      <trkpt lat="50.43474" lon="3.35071">
        <ele>18</ele>
        <time>2022-04-15T14:49:10.000Z</time>
      </trkpt>
      <trkpt lat="50.43476" lon="3.35082">
        <ele>18</ele>
        <time>2022-04-15T14:49:12.000Z</time>
      </trkpt>
      <trkpt lat="50.43476" lon="3.35093">
        <ele>18</ele>
        <time>2022-04-15T14:49:14.000Z</time>
      </trkpt>
      <trkpt lat="50.43477" lon="3.35104">
        <ele>18</ele>
        <time>2022-04-15T14:49:16.000Z</time>
      </trkpt>
      <trkpt lat="50.43477" lon="3.35116">
        <ele>18</ele>
        <time>2022-04-15T14:49:18.000Z</time>
      </trkpt>
      <trkpt lat="50.43477" lon="3.35128">
        <ele>18</ele>
        <time>2022-04-15T14:49:20.000Z</time>
      </trkpt>
      <trkpt lat="50.43477" lon="3.35139">
        <ele>18</ele>
        <time>2022-04-15T14:49:22.000Z</time>
      </trkpt>
      <trkpt lat="50.43475" lon="3.3515">
        <ele>18</ele>
        <time>2022-04-15T14:49:24.000Z</time>
      </trkpt>
      <trkpt lat="50.43474" lon="3.35163">
        <ele>18</ele>
        <time>2022-04-15T14:49:26.000Z</time>
      </trkpt>
      <trkpt lat="50.43471" lon="3.35175">
        <ele>18</ele>
        <time>2022-04-15T14:49:28.000Z</time>
      </trkpt>
      <trkpt lat="50.43468" lon="3.35186">
        <ele>18</ele>
        <time>2022-04-15T14:49:30.000Z</time>
      </trkpt>
      <trkpt lat="50.43465" lon="3.35199">
        <ele>17.9</ele>
        <time>2022-04-15T14:49:32.000Z</time>
      </trkpt>
      <trkpt lat="50.43465" lon="3.35208">
        <ele>17.6</ele>
        <time>2022-04-15T14:49:34.000Z</time>
      </trkpt>
      <trkpt lat="50.43471" lon="3.35214">
        <ele>17.3</ele>
        <time>2022-04-15T14:49:35.924Z</time>
      </trkpt>
      <trkpt lat="50.43475" lon="3.35218">
        <ele>17.2</ele>
        <time>2022-04-15T14:49:37.000Z</time>
      </trkpt>
      <trkpt lat="50.4348" lon="3.35221">
        <ele>17</ele>
        <time>2022-04-15T14:49:38.000Z</time>
      </trkpt>
      <trkpt lat="50.43484" lon="3.35225">
        <ele>17</ele>
        <time>2022-04-15T14:49:39.000Z</time>
      </trkpt>
      <trkpt lat="50.43489" lon="3.35228">
        <ele>17</ele>
        <time>2022-04-15T14:49:40.000Z</time>
      </trkpt>
      <trkpt lat="50.43498" lon="3.35236">
        <ele>17</ele>
        <time>2022-04-15T14:49:42.640Z</time>
      </trkpt>
      <trkpt lat="50.43506" lon="3.35243">
        <ele>17.2</ele>
        <time>2022-04-15T14:49:44.877Z</time>
      </trkpt>
      <trkpt lat="50.43511" lon="3.35247">
        <ele>17.4</ele>
        <time>2022-04-15T14:49:46.000Z</time>
      </trkpt>
      <trkpt lat="50.43518" lon="3.35253">
        <ele>17.6</ele>
        <time>2022-04-15T14:49:47.840Z</time>
      </trkpt>
      <trkpt lat="50.43522" lon="3.35257">
        <ele>17.6</ele>
        <time>2022-04-15T14:49:49.000Z</time>
      </trkpt>
      <trkpt lat="50.43529" lon="3.35263">
        <ele>17.6</ele>
        <time>2022-04-15T14:49:50.590Z</time>
      </trkpt>
      <trkpt lat="50.43535" lon="3.35269">
        <ele>17.5</ele>
        <time>2022-04-15T14:49:52.169Z</time>
      </trkpt>
      <trkpt lat="50.43542" lon="3.35277">
        <ele>17.5</ele>
        <time>2022-04-15T14:49:54.677Z</time>
      </trkpt>
      <trkpt lat="50.43546" lon="3.35281">
        <ele>17.6</ele>
        <time>2022-04-15T14:49:55.822Z</time>
      </trkpt>
      <trkpt lat="50.43551" lon="3.35286">
        <ele>17.6</ele>
        <time>2022-04-15T14:49:57.180Z</time>
      </trkpt>
      <trkpt lat="50.43557" lon="3.35294">
        <ele>17.4</ele>
        <time>2022-04-15T14:50:00.000Z</time>
      </trkpt>
      <trkpt lat="50.43561" lon="3.353">
        <ele>17.2</ele>
        <time>2022-04-15T14:50:01.000Z</time>
      </trkpt>
      <trkpt lat="50.43566" lon="3.35306">
        <ele>17</ele>
        <time>2022-04-15T14:50:03.000Z</time>
      </trkpt>
      <trkpt lat="50.43572" lon="3.35312">
        <ele>17</ele>
        <time>2022-04-15T14:50:05.079Z</time>
      </trkpt>
      <trkpt lat="50.43577" lon="3.3532">
        <ele>17</ele>
        <time>2022-04-15T14:50:07.000Z</time>
      </trkpt>
      <trkpt lat="50.43583" lon="3.35328">
        <ele>17</ele>
        <time>2022-04-15T14:50:09.760Z</time>
      </trkpt>
      <trkpt lat="50.43587" lon="3.35334">
        <ele>17</ele>
        <time>2022-04-15T14:50:12.000Z</time>
      </trkpt>
      <trkpt lat="50.4359" lon="3.35339">
        <ele>17</ele>
        <time>2022-04-15T14:50:13.000Z</time>
      </trkpt>
      <trkpt lat="50.43596" lon="3.35345">
        <ele>17</ele>
        <time>2022-04-15T14:50:15.000Z</time>
      </trkpt>
      <trkpt lat="50.43601" lon="3.35353">
        <ele>17</ele>
        <time>2022-04-15T14:50:17.583Z</time>
      </trkpt>
      <trkpt lat="50.43608" lon="3.35363">
        <ele>17</ele>
        <time>2022-04-15T14:50:20.000Z</time>
      </trkpt>
      <trkpt lat="50.43611" lon="3.35368">
        <ele>17</ele>
        <time>2022-04-15T14:50:22.000Z</time>
      </trkpt>
      <trkpt lat="50.43618" lon="3.35377">
        <ele>17</ele>
        <time>2022-04-15T14:50:24.140Z</time>
      </trkpt>
      <trkpt lat="50.43624" lon="3.35389">
        <ele>17</ele>
        <time>2022-04-15T14:50:27.459Z</time>
      </trkpt>
      <trkpt lat="50.43629" lon="3.35395">
        <ele>17</ele>
        <time>2022-04-15T14:50:29.798Z</time>
      </trkpt>
      <trkpt lat="50.43633" lon="3.35401">
        <ele>17</ele>
        <time>2022-04-15T14:50:31.000Z</time>
      </trkpt>
      <trkpt lat="50.43637" lon="3.35407">
        <ele>17</ele>
        <time>2022-04-15T14:50:33.000Z</time>
      </trkpt>
      <trkpt lat="50.43644" lon="3.35417">
        <ele>17</ele>
        <time>2022-04-15T14:50:36.000Z</time>
      </trkpt>
      <trkpt lat="50.4365" lon="3.35427">
        <ele>17</ele>
        <time>2022-04-15T14:50:39.000Z</time>
      </trkpt>
      <trkpt lat="50.43655" lon="3.35434">
        <ele>17</ele>
        <time>2022-04-15T14:50:40.922Z</time>
      </trkpt>
      <trkpt lat="50.43658" lon="3.35439">
        <ele>17</ele>
        <time>2022-04-15T14:50:42.061Z</time>
      </trkpt>
      <trkpt lat="50.43664" lon="3.35447">
        <ele>17</ele>
        <time>2022-04-15T14:50:44.343Z</time>
      </trkpt>
      <trkpt lat="50.4367" lon="3.35457">
        <ele>17</ele>
        <time>2022-04-15T14:50:47.000Z</time>
      </trkpt>
      <trkpt lat="50.43674" lon="3.35463">
        <ele>17</ele>
        <time>2022-04-15T14:50:49.101Z</time>
      </trkpt>
      <trkpt lat="50.43678" lon="3.3547">
        <ele>17</ele>
        <time>2022-04-15T14:50:50.586Z</time>
      </trkpt>
      <trkpt lat="50.43682" lon="3.35475">
        <ele>17</ele>
        <time>2022-04-15T14:50:51.642Z</time>
      </trkpt>
      <trkpt lat="50.43686" lon="3.35479">
        <ele>17</ele>
        <time>2022-04-15T14:50:53.442Z</time>
      </trkpt>
      <trkpt lat="50.4369" lon="3.35485">
        <ele>17</ele>
        <time>2022-04-15T14:50:54.761Z</time>
      </trkpt>
      <trkpt lat="50.43693" lon="3.35491">
        <ele>17</ele>
        <time>2022-04-15T14:50:57.000Z</time>
      </trkpt>
      <trkpt lat="50.43697" lon="3.35498">
        <ele>17</ele>
        <time>2022-04-15T14:50:59.000Z</time>
      </trkpt>
      <trkpt lat="50.43701" lon="3.35504">
        <ele>17</ele>
        <time>2022-04-15T14:51:00.000Z</time>
      </trkpt>
      <trkpt lat="50.43704" lon="3.35509">
        <ele>17</ele>
        <time>2022-04-15T14:51:02.161Z</time>
      </trkpt>
      <trkpt lat="50.43708" lon="3.35515">
        <ele>17</ele>
        <time>2022-04-15T14:51:03.418Z</time>
      </trkpt>
      <trkpt lat="50.43715" lon="3.35524">
        <ele>17</ele>
        <time>2022-04-15T14:51:06.060Z</time>
      </trkpt>
      <trkpt lat="50.43719" lon="3.35532">
        <ele>17</ele>
        <time>2022-04-15T14:51:08.000Z</time>
      </trkpt>
      <trkpt lat="50.43724" lon="3.3554">
        <ele>17</ele>
        <time>2022-04-15T14:51:10.000Z</time>
      </trkpt>
      <trkpt lat="50.43729" lon="3.35547">
        <ele>17</ele>
        <time>2022-04-15T14:51:12.000Z</time>
      </trkpt>
      <trkpt lat="50.43736" lon="3.35557">
        <ele>17</ele>
        <time>2022-04-15T14:51:14.805Z</time>
      </trkpt>
      <trkpt lat="50.43741" lon="3.35564">
        <ele>17</ele>
        <time>2022-04-15T14:51:16.920Z</time>
      </trkpt>
      <trkpt lat="50.43745" lon="3.35571">
        <ele>17</ele>
        <time>2022-04-15T14:51:18.962Z</time>
      </trkpt>
      <trkpt lat="50.43753" lon="3.35581">
        <ele>17</ele>
        <time>2022-04-15T14:51:22.000Z</time>
      </trkpt>
      <trkpt lat="50.43759" lon="3.35591">
        <ele>17.1</ele>
        <time>2022-04-15T14:51:24.585Z</time>
      </trkpt>
      <trkpt lat="50.43763" lon="3.35597">
        <ele>17.2</ele>
        <time>2022-04-15T14:51:25.718Z</time>
      </trkpt>
      <trkpt lat="50.43769" lon="3.35606">
        <ele>17.6</ele>
        <time>2022-04-15T14:51:27.999Z</time>
      </trkpt>
      <trkpt lat="50.43775" lon="3.35614">
        <ele>17.8</ele>
        <time>2022-04-15T14:51:31.064Z</time>
      </trkpt>
      <trkpt lat="50.43781" lon="3.35624">
        <ele>17.5</ele>
        <time>2022-04-15T14:51:34.199Z</time>
      </trkpt>
      <trkpt lat="50.43783" lon="3.35633">
        <ele>17.2</ele>
        <time>2022-04-15T14:51:36.901Z</time>
      </trkpt>
      <trkpt lat="50.43781" lon="3.35641">
        <ele>17</ele>
        <time>2022-04-15T14:51:38.000Z</time>
      </trkpt>
      <trkpt lat="50.4378" lon="3.35648">
        <ele>17</ele>
        <time>2022-04-15T14:51:39.000Z</time>
      </trkpt>
      <trkpt lat="50.43774" lon="3.35655">
        <ele>17</ele>
        <time>2022-04-15T14:51:41.000Z</time>
      </trkpt>
      <trkpt lat="50.43767" lon="3.35662">
        <ele>17</ele>
        <time>2022-04-15T14:51:44.040Z</time>
      </trkpt>
      <trkpt lat="50.43762" lon="3.35669">
        <ele>17</ele>
        <time>2022-04-15T14:51:47.000Z</time>
      </trkpt>
      <trkpt lat="50.43758" lon="3.35676">
        <ele>16.9</ele>
        <time>2022-04-15T14:51:49.000Z</time>
      </trkpt>
      <trkpt lat="50.43755" lon="3.35682">
        <ele>16.9</ele>
        <time>2022-04-15T14:51:50.620Z</time>
      </trkpt>
      <trkpt lat="50.43749" lon="3.35689">
        <ele>17</ele>
        <time>2022-04-15T14:51:53.000Z</time>
      </trkpt>
      <trkpt lat="50.43745" lon="3.35696">
        <ele>17</ele>
        <time>2022-04-15T14:51:55.080Z</time>
      </trkpt>
      <trkpt lat="50.4374" lon="3.35703">
        <ele>17</ele>
        <time>2022-04-15T14:51:57.193Z</time>
      </trkpt>
      <trkpt lat="50.43735" lon="3.35712">
        <ele>17</ele>
        <time>2022-04-15T14:51:58.921Z</time>
      </trkpt>
      <trkpt lat="50.4373" lon="3.35719">
        <ele>17</ele>
        <time>2022-04-15T14:52:01.322Z</time>
      </trkpt>
      <trkpt lat="50.43723" lon="3.35728">
        <ele>17</ele>
        <time>2022-04-15T14:52:04.001Z</time>
      </trkpt>
      <trkpt lat="50.4372" lon="3.35734">
        <ele>17</ele>
        <time>2022-04-15T14:52:06.000Z</time>
      </trkpt>
      <trkpt lat="50.43716" lon="3.3574">
        <ele>17</ele>
        <time>2022-04-15T14:52:08.000Z</time>
      </trkpt>
      <trkpt lat="50.43712" lon="3.35747">
        <ele>17</ele>
        <time>2022-04-15T14:52:10.000Z</time>
      </trkpt>
      <trkpt lat="50.43706" lon="3.35755">
        <ele>17</ele>
        <time>2022-04-15T14:52:12.000Z</time>
      </trkpt>
      <trkpt lat="50.43701" lon="3.35762">
        <ele>17</ele>
        <time>2022-04-15T14:52:14.000Z</time>
      </trkpt>
      <trkpt lat="50.43698" lon="3.35768">
        <ele>17</ele>
        <time>2022-04-15T14:52:15.001Z</time>
      </trkpt>
      <trkpt lat="50.43692" lon="3.35775">
        <ele>17</ele>
        <time>2022-04-15T14:52:17.118Z</time>
      </trkpt>
      <trkpt lat="50.43688" lon="3.35784">
        <ele>17</ele>
        <time>2022-04-15T14:52:19.721Z</time>
      </trkpt>
      <trkpt lat="50.43682" lon="3.35793">
        <ele>17</ele>
        <time>2022-04-15T14:52:22.000Z</time>
      </trkpt>
      <trkpt lat="50.43673" lon="3.35802">
        <ele>17</ele>
        <time>2022-04-15T14:52:25.000Z</time>
      </trkpt>
      <trkpt lat="50.43667" lon="3.35807">
        <ele>17</ele>
        <time>2022-04-15T14:52:27.000Z</time>
      </trkpt>
      <trkpt lat="50.43658" lon="3.35818">
        <ele>17</ele>
        <time>2022-04-15T14:52:29.781Z</time>
      </trkpt>
      <trkpt lat="50.43654" lon="3.35824">
        <ele>17</ele>
        <time>2022-04-15T14:52:31.059Z</time>
      </trkpt>
      <trkpt lat="50.43648" lon="3.35838">
        <ele>17</ele>
        <time>2022-04-15T14:52:33.838Z</time>
      </trkpt>
      <trkpt lat="50.43648" lon="3.35852">
        <ele>17</ele>
        <time>2022-04-15T14:52:36.000Z</time>
      </trkpt>
      <trkpt lat="50.43649" lon="3.3586">
        <ele>17</ele>
        <time>2022-04-15T14:52:37.000Z</time>
      </trkpt>
      <trkpt lat="50.4365" lon="3.35873">
        <ele>17</ele>
        <time>2022-04-15T14:52:39.142Z</time>
      </trkpt>
      <trkpt lat="50.43652" lon="3.35887">
        <ele>17</ele>
        <time>2022-04-15T14:52:41.020Z</time>
      </trkpt>
      <trkpt lat="50.43653" lon="3.35897">
        <ele>17</ele>
        <time>2022-04-15T14:52:42.000Z</time>
      </trkpt>
      <trkpt lat="50.43655" lon="3.35906">
        <ele>17</ele>
        <time>2022-04-15T14:52:44.379Z</time>
      </trkpt>
      <trkpt lat="50.43656" lon="3.35913">
        <ele>17</ele>
        <time>2022-04-15T14:52:45.458Z</time>
      </trkpt>
      <trkpt lat="50.43657" lon="3.35921">
        <ele>17</ele>
        <time>2022-04-15T14:52:47.321Z</time>
      </trkpt>
      <trkpt lat="50.43658" lon="3.35929">
        <ele>17</ele>
        <time>2022-04-15T14:52:48.958Z</time>
      </trkpt>
      <trkpt lat="50.4366" lon="3.35938">
        <ele>17</ele>
        <time>2022-04-15T14:52:51.000Z</time>
      </trkpt>
      <trkpt lat="50.43661" lon="3.35948">
        <ele>17</ele>
        <time>2022-04-15T14:52:53.000Z</time>
      </trkpt>
      <trkpt lat="50.43662" lon="3.35956">
        <ele>17</ele>
        <time>2022-04-15T14:52:54.141Z</time>
      </trkpt>
      <trkpt lat="50.43664" lon="3.35966">
        <ele>17</ele>
        <time>2022-04-15T14:52:56.602Z</time>
      </trkpt>
      <trkpt lat="50.43672" lon="3.35968">
        <ele>17</ele>
        <time>2022-04-15T14:52:59.841Z</time>
      </trkpt>
      <trkpt lat="50.43677" lon="3.35966">
        <ele>17</ele>
        <time>2022-04-15T14:53:00.957Z</time>
      </trkpt>
      <trkpt lat="50.43685" lon="3.35966">
        <ele>17</ele>
        <time>2022-04-15T14:53:03.000Z</time>
      </trkpt>
      <trkpt lat="50.43692" lon="3.35966">
        <ele>17</ele>
        <time>2022-04-15T14:53:05.720Z</time>
      </trkpt>
      <trkpt lat="50.43697" lon="3.35966">
        <ele>17</ele>
        <time>2022-04-15T14:53:06.720Z</time>
      </trkpt>
      <trkpt lat="50.43703" lon="3.35966">
        <ele>17</ele>
        <time>2022-04-15T14:53:09.000Z</time>
      </trkpt>
      <trkpt lat="50.43708" lon="3.35966">
        <ele>17</ele>
        <time>2022-04-15T14:53:10.000Z</time>
      </trkpt>
      <trkpt lat="50.43718" lon="3.35965">
        <ele>17</ele>
        <time>2022-04-15T14:53:12.760Z</time>
      </trkpt>
      <trkpt lat="50.43724" lon="3.35965">
        <ele>17</ele>
        <time>2022-04-15T14:53:15.000Z</time>
      </trkpt>
      <trkpt lat="50.43731" lon="3.35964">
        <ele>17</ele>
        <time>2022-04-15T14:53:17.101Z</time>
      </trkpt>
      <trkpt lat="50.43736" lon="3.35966">
        <ele>17</ele>
        <time>2022-04-15T14:53:18.726Z</time>
      </trkpt>
      <trkpt lat="50.43744" lon="3.35965">
        <ele>17</ele>
        <time>2022-04-15T14:53:21.000Z</time>
      </trkpt>
      <trkpt lat="50.43752" lon="3.35966">
        <ele>17</ele>
        <time>2022-04-15T14:53:22.839Z</time>
      </trkpt>
      <trkpt lat="50.43761" lon="3.35967">
        <ele>17</ele>
        <time>2022-04-15T14:53:26.000Z</time>
      </trkpt>
      <trkpt lat="50.43767" lon="3.35966">
        <ele>17</ele>
        <time>2022-04-15T14:53:28.000Z</time>
      </trkpt>
      <trkpt lat="50.43773" lon="3.35966">
        <ele>17</ele>
        <time>2022-04-15T14:53:29.662Z</time>
      </trkpt>
      <trkpt lat="50.4378" lon="3.35964">
        <ele>17</ele>
        <time>2022-04-15T14:53:32.000Z</time>
      </trkpt>
      <trkpt lat="50.43785" lon="3.35963">
        <ele>17.1</ele>
        <time>2022-04-15T14:53:32.943Z</time>
      </trkpt>
      <trkpt lat="50.43794" lon="3.35961">
        <ele>17.2</ele>
        <time>2022-04-15T14:53:36.000Z</time>
      </trkpt>
      <trkpt lat="50.438" lon="3.3596">
        <ele>17.4</ele>
        <time>2022-04-15T14:53:38.119Z</time>
      </trkpt>
      <trkpt lat="50.43807" lon="3.35957">
        <ele>17.5</ele>
        <time>2022-04-15T14:53:40.480Z</time>
      </trkpt>
      <trkpt lat="50.43816" lon="3.35956">
        <ele>17.5</ele>
        <time>2022-04-15T14:53:43.000Z</time>
      </trkpt>
      <trkpt lat="50.4382" lon="3.35954">
        <ele>17.5</ele>
        <time>2022-04-15T14:53:45.138Z</time>
      </trkpt>
      <trkpt lat="50.43826" lon="3.35951">
        <ele>17.4</ele>
        <time>2022-04-15T14:53:47.000Z</time>
      </trkpt>
      <trkpt lat="50.43834" lon="3.3595">
        <ele>17.2</ele>
        <time>2022-04-15T14:53:49.589Z</time>
      </trkpt>
      <trkpt lat="50.43838" lon="3.35948">
        <ele>17.1</ele>
        <time>2022-04-15T14:53:50.861Z</time>
      </trkpt>
      <trkpt lat="50.43846" lon="3.35946">
        <ele>17.1</ele>
        <time>2022-04-15T14:53:53.000Z</time>
      </trkpt>
      <trkpt lat="50.43851" lon="3.35944">
        <ele>17</ele>
        <time>2022-04-15T14:53:55.000Z</time>
      </trkpt>
      <trkpt lat="50.43858" lon="3.35942">
        <ele>17.1</ele>
        <time>2022-04-15T14:53:57.521Z</time>
      </trkpt>
      <trkpt lat="50.43864" lon="3.3594">
        <ele>17.3</ele>
        <time>2022-04-15T14:53:59.798Z</time>
      </trkpt>
      <trkpt lat="50.4387" lon="3.35939">
        <ele>17.7</ele>
        <time>2022-04-15T14:54:02.061Z</time>
      </trkpt>
      <trkpt lat="50.43875" lon="3.35935">
        <ele>18</ele>
        <time>2022-04-15T14:54:03.461Z</time>
      </trkpt>
      <trkpt lat="50.43881" lon="3.35924">
        <ele>18.1</ele>
        <time>2022-04-15T14:54:06.161Z</time>
      </trkpt>
      <trkpt lat="50.43886" lon="3.35917">
        <ele>18</ele>
        <time>2022-04-15T14:54:08.719Z</time>
      </trkpt>
      <trkpt lat="50.43889" lon="3.35909">
        <ele>18</ele>
        <time>2022-04-15T14:54:11.139Z</time>
      </trkpt>
      <trkpt lat="50.43891" lon="3.35903">
        <ele>18.1</ele>
        <time>2022-04-15T14:54:13.000Z</time>
      </trkpt>
      <trkpt lat="50.43895" lon="3.35895">
        <ele>18.3</ele>
        <time>2022-04-15T14:54:15.001Z</time>
      </trkpt>
      <trkpt lat="50.43901" lon="3.35884">
        <ele>18.4</ele>
        <time>2022-04-15T14:54:17.801Z</time>
      </trkpt>
      <trkpt lat="50.43904" lon="3.35878">
        <ele>18.3</ele>
        <time>2022-04-15T14:54:19.000Z</time>
      </trkpt>
      <trkpt lat="50.43909" lon="3.35866">
        <ele>18.1</ele>
        <time>2022-04-15T14:54:21.000Z</time>
      </trkpt>
      <trkpt lat="50.43914" lon="3.35857">
        <ele>17.9</ele>
        <time>2022-04-15T14:54:23.000Z</time>
      </trkpt>
      <trkpt lat="50.4392" lon="3.35851">
        <ele>17.9</ele>
        <time>2022-04-15T14:54:25.000Z</time>
      </trkpt>
      <trkpt lat="50.43916" lon="3.3585">
        <ele>17.6</ele>
        <time>2022-04-15T14:54:27.000Z</time>
      </trkpt>
      <trkpt lat="50.43913" lon="3.35856">
        <ele>17.8</ele>
        <time>2022-04-15T14:54:28.000Z</time>
      </trkpt>
      <trkpt lat="50.43915" lon="3.3587">
        <ele>18.3</ele>
        <time>2022-04-15T14:54:30.000Z</time>
      </trkpt>
      <trkpt lat="50.43919" lon="3.35877">
        <ele>18.7</ele>
        <time>2022-04-15T14:54:31.000Z</time>
      </trkpt>
      <trkpt lat="50.43922" lon="3.35883">
        <ele>19</ele>
        <time>2022-04-15T14:54:32.000Z</time>
      </trkpt>
      <trkpt lat="50.43927" lon="3.3589">
        <ele>19.4</ele>
        <time>2022-04-15T14:54:33.000Z</time>
      </trkpt>
      <trkpt lat="50.43934" lon="3.35897">
        <ele>19.6</ele>
        <time>2022-04-15T14:54:35.000Z</time>
      </trkpt>
      <trkpt lat="50.43938" lon="3.35902">
        <ele>19.5</ele>
        <time>2022-04-15T14:54:36.000Z</time>
      </trkpt>
      <trkpt lat="50.43939" lon="3.3591">
        <ele>19.3</ele>
        <time>2022-04-15T14:54:37.373Z</time>
      </trkpt>
      <trkpt lat="50.43945" lon="3.35916">
        <ele>19</ele>
        <time>2022-04-15T14:54:38.895Z</time>
      </trkpt>
      <trkpt lat="50.4395" lon="3.35922">
        <ele>18.8</ele>
        <time>2022-04-15T14:54:40.355Z</time>
      </trkpt>
      <trkpt lat="50.43958" lon="3.35926">
        <ele>18.5</ele>
        <time>2022-04-15T14:54:41.584Z</time>
      </trkpt>
      <trkpt lat="50.43963" lon="3.35923">
        <ele>18.3</ele>
        <time>2022-04-15T14:54:42.994Z</time>
      </trkpt>
      <trkpt lat="50.43967" lon="3.3592">
        <ele>18.2</ele>
        <time>2022-04-15T14:54:44.000Z</time>
      </trkpt>
      <trkpt lat="50.43973" lon="3.35916">
        <ele>18</ele>
        <time>2022-04-15T14:54:45.114Z</time>
      </trkpt>
      <trkpt lat="50.4398" lon="3.35913">
        <ele>18</ele>
        <time>2022-04-15T14:54:47.153Z</time>
      </trkpt>
      <trkpt lat="50.43989" lon="3.35912">
        <ele>17.9</ele>
        <time>2022-04-15T14:54:49.755Z</time>
      </trkpt>
      <trkpt lat="50.43994" lon="3.3591">
        <ele>17.8</ele>
        <time>2022-04-15T14:54:51.000Z</time>
      </trkpt>
      <trkpt lat="50.43999" lon="3.35908">
        <ele>17.7</ele>
        <time>2022-04-15T14:54:52.134Z</time>
      </trkpt>
      <trkpt lat="50.44004" lon="3.35908">
        <ele>17.7</ele>
        <time>2022-04-15T14:54:53.654Z</time>
      </trkpt>
      <trkpt lat="50.44016" lon="3.35905">
        <ele>17.8</ele>
        <time>2022-04-15T14:54:56.577Z</time>
      </trkpt>
      <trkpt lat="50.44026" lon="3.35904">
        <ele>18</ele>
        <time>2022-04-15T14:54:58.654Z</time>
      </trkpt>
      <trkpt lat="50.44034" lon="3.35902">
        <ele>18</ele>
        <time>2022-04-15T14:55:01.160Z</time>
      </trkpt>
      <trkpt lat="50.44042" lon="3.35898">
        <ele>18</ele>
        <time>2022-04-15T14:55:03.190Z</time>
      </trkpt>
      <trkpt lat="50.44053" lon="3.35896">
        <ele>18</ele>
        <time>2022-04-15T14:55:05.874Z</time>
      </trkpt>
      <trkpt lat="50.44059" lon="3.35893">
        <ele>18</ele>
        <time>2022-04-15T14:55:06.993Z</time>
      </trkpt>
      <trkpt lat="50.44065" lon="3.35891">
        <ele>18</ele>
        <time>2022-04-15T14:55:09.000Z</time>
      </trkpt>
      <trkpt lat="50.44073" lon="3.35889">
        <ele>18</ele>
        <time>2022-04-15T14:55:11.133Z</time>
      </trkpt>
      <trkpt lat="50.44079" lon="3.35888">
        <ele>18</ele>
        <time>2022-04-15T14:55:12.657Z</time>
      </trkpt>
      <trkpt lat="50.44085" lon="3.35888">
        <ele>18</ele>
        <time>2022-04-15T14:55:16.000Z</time>
      </trkpt>
      <trkpt lat="50.44093" lon="3.35886">
        <ele>18</ele>
        <time>2022-04-15T14:55:19.000Z</time>
      </trkpt>
      <trkpt lat="50.44098" lon="3.35885">
        <ele>18</ele>
        <time>2022-04-15T14:55:21.000Z</time>
      </trkpt>
      <trkpt lat="50.44104" lon="3.35884">
        <ele>18</ele>
        <time>2022-04-15T14:55:23.000Z</time>
      </trkpt>
      <trkpt lat="50.44109" lon="3.35883">
        <ele>18</ele>
        <time>2022-04-15T14:55:25.135Z</time>
      </trkpt>
      <trkpt lat="50.44117" lon="3.35882">
        <ele>18</ele>
        <time>2022-04-15T14:55:27.814Z</time>
      </trkpt>
      <trkpt lat="50.44124" lon="3.35879">
        <ele>18</ele>
        <time>2022-04-15T14:55:30.000Z</time>
      </trkpt>
      <trkpt lat="50.44129" lon="3.35878">
        <ele>18</ele>
        <time>2022-04-15T14:55:32.055Z</time>
      </trkpt>
      <trkpt lat="50.44133" lon="3.35876">
        <ele>18</ele>
        <time>2022-04-15T14:55:33.614Z</time>
      </trkpt>
      <trkpt lat="50.44139" lon="3.35875">
        <ele>18</ele>
        <time>2022-04-15T14:55:36.000Z</time>
      </trkpt>
      <trkpt lat="50.44145" lon="3.35874">
        <ele>18</ele>
        <time>2022-04-15T14:55:38.000Z</time>
      </trkpt>
      <trkpt lat="50.44151" lon="3.35872">
        <ele>18</ele>
        <time>2022-04-15T14:55:40.000Z</time>
      </trkpt>
      <trkpt lat="50.44156" lon="3.3587">
        <ele>18</ele>
        <time>2022-04-15T14:55:42.054Z</time>
      </trkpt>
      <trkpt lat="50.44161" lon="3.35867">
        <ele>18</ele>
        <time>2022-04-15T14:55:44.000Z</time>
      </trkpt>
      <trkpt lat="50.44167" lon="3.35866">
        <ele>18</ele>
        <time>2022-04-15T14:55:45.894Z</time>
      </trkpt>
      <trkpt lat="50.44171" lon="3.35863">
        <ele>18</ele>
        <time>2022-04-15T14:55:48.011Z</time>
      </trkpt>
      <trkpt lat="50.44178" lon="3.35862">
        <ele>18</ele>
        <time>2022-04-15T14:55:50.977Z</time>
      </trkpt>
      <trkpt lat="50.44187" lon="3.3586">
        <ele>18</ele>
        <time>2022-04-15T14:55:54.000Z</time>
      </trkpt>
      <trkpt lat="50.44193" lon="3.35859">
        <ele>18.1</ele>
        <time>2022-04-15T14:55:56.000Z</time>
      </trkpt>
      <trkpt lat="50.44198" lon="3.3586">
        <ele>18</ele>
        <time>2022-04-15T14:55:58.000Z</time>
      </trkpt>
      <trkpt lat="50.44203" lon="3.35861">
        <ele>18</ele>
        <time>2022-04-15T14:56:01.830Z</time>
      </trkpt>
      <trkpt lat="50.44197" lon="3.35858">
        <ele>18.1</ele>
        <time>2022-04-15T14:56:05.634Z</time>
      </trkpt>
      <trkpt lat="50.44193" lon="3.35863">
        <ele>18</ele>
        <time>2022-04-15T14:56:06.855Z</time>
      </trkpt>
      <trkpt lat="50.44186" lon="3.35862">
        <ele>18</ele>
        <time>2022-04-15T14:56:09.000Z</time>
      </trkpt>
      <trkpt lat="50.44183" lon="3.35866">
        <ele>18</ele>
        <time>2022-04-15T14:56:10.000Z</time>
      </trkpt>
      <trkpt lat="50.44181" lon="3.3588">
        <ele>18</ele>
        <time>2022-04-15T14:56:12.593Z</time>
      </trkpt>
      <trkpt lat="50.44179" lon="3.3589">
        <ele>18</ele>
        <time>2022-04-15T14:56:14.014Z</time>
      </trkpt>
      <trkpt lat="50.44176" lon="3.35905">
        <ele>18</ele>
        <time>2022-04-15T14:56:16.000Z</time>
      </trkpt>
      <trkpt lat="50.44174" lon="3.35915">
        <ele>18</ele>
        <time>2022-04-15T14:56:18.337Z</time>
      </trkpt>
      <trkpt lat="50.44172" lon="3.35928">
        <ele>17.7</ele>
        <time>2022-04-15T14:56:20.132Z</time>
      </trkpt>
      <trkpt lat="50.44171" lon="3.35939">
        <ele>17.3</ele>
        <time>2022-04-15T14:56:21.496Z</time>
      </trkpt>
      <trkpt lat="50.4417" lon="3.35951">
        <ele>17.3</ele>
        <time>2022-04-15T14:56:23.456Z</time>
      </trkpt>
      <trkpt lat="50.44168" lon="3.35958">
        <ele>17.5</ele>
        <time>2022-04-15T14:56:24.692Z</time>
      </trkpt>
      <trkpt lat="50.44167" lon="3.35966">
        <ele>17.8</ele>
        <time>2022-04-15T14:56:26.116Z</time>
      </trkpt>
      <trkpt lat="50.44163" lon="3.35976">
        <ele>17.9</ele>
        <time>2022-04-15T14:56:28.159Z</time>
      </trkpt>
      <trkpt lat="50.44163" lon="3.35984">
        <ele>17.9</ele>
        <time>2022-04-15T14:56:29.616Z</time>
      </trkpt>
      <trkpt lat="50.44161" lon="3.35995">
        <ele>17.8</ele>
        <time>2022-04-15T14:56:31.935Z</time>
      </trkpt>
      <trkpt lat="50.4416" lon="3.36004">
        <ele>17.7</ele>
        <time>2022-04-15T14:56:33.000Z</time>
      </trkpt>
      <trkpt lat="50.44158" lon="3.36014">
        <ele>17.3</ele>
        <time>2022-04-15T14:56:34.051Z</time>
      </trkpt>
      <trkpt lat="50.44156" lon="3.36023">
        <ele>17.1</ele>
        <time>2022-04-15T14:56:36.000Z</time>
      </trkpt>
      <trkpt lat="50.44152" lon="3.36037">
        <ele>17</ele>
        <time>2022-04-15T14:56:38.014Z</time>
      </trkpt>
      <trkpt lat="50.44151" lon="3.36048">
        <ele>17</ele>
        <time>2022-04-15T14:56:40.414Z</time>
      </trkpt>
      <trkpt lat="50.44149" lon="3.36057">
        <ele>17</ele>
        <time>2022-04-15T14:56:41.654Z</time>
      </trkpt>
      <trkpt lat="50.44147" lon="3.36065">
        <ele>17</ele>
        <time>2022-04-15T14:56:43.000Z</time>
      </trkpt>
      <trkpt lat="50.44145" lon="3.36073">
        <ele>17</ele>
        <time>2022-04-15T14:56:44.000Z</time>
      </trkpt>
      <trkpt lat="50.44143" lon="3.36086">
        <ele>17</ele>
        <time>2022-04-15T14:56:46.134Z</time>
      </trkpt>
      <trkpt lat="50.44139" lon="3.36094">
        <ele>17</ele>
        <time>2022-04-15T14:56:48.995Z</time>
      </trkpt>
      <trkpt lat="50.44137" lon="3.36105">
        <ele>17</ele>
        <time>2022-04-15T14:56:51.000Z</time>
      </trkpt>
      <trkpt lat="50.44135" lon="3.36113">
        <ele>17.1</ele>
        <time>2022-04-15T14:56:53.000Z</time>
      </trkpt>
      <trkpt lat="50.44132" lon="3.36124">
        <ele>17.5</ele>
        <time>2022-04-15T14:56:56.573Z</time>
      </trkpt>
      <trkpt lat="50.4413" lon="3.36133">
        <ele>17.8</ele>
        <time>2022-04-15T14:56:59.436Z</time>
      </trkpt>
      <trkpt lat="50.44128" lon="3.36145">
        <ele>18</ele>
        <time>2022-04-15T14:57:02.000Z</time>
      </trkpt>
      <trkpt lat="50.44127" lon="3.36153">
        <ele>18</ele>
        <time>2022-04-15T14:57:03.995Z</time>
      </trkpt>
      <trkpt lat="50.44125" lon="3.3616">
        <ele>18</ele>
        <time>2022-04-15T14:57:05.000Z</time>
      </trkpt>
      <trkpt lat="50.44123" lon="3.36171">
        <ele>18</ele>
        <time>2022-04-15T14:57:08.057Z</time>
      </trkpt>
      <trkpt lat="50.44121" lon="3.36183">
        <ele>18</ele>
        <time>2022-04-15T14:57:10.633Z</time>
      </trkpt>
      <trkpt lat="50.44119" lon="3.3619">
        <ele>18</ele>
        <time>2022-04-15T14:57:12.000Z</time>
      </trkpt>
      <trkpt lat="50.44118" lon="3.36197">
        <ele>18</ele>
        <time>2022-04-15T14:57:13.977Z</time>
      </trkpt>
      <trkpt lat="50.44116" lon="3.36206">
        <ele>18</ele>
        <time>2022-04-15T14:57:16.395Z</time>
      </trkpt>
      <trkpt lat="50.44114" lon="3.36213">
        <ele>18</ele>
        <time>2022-04-15T14:57:17.672Z</time>
      </trkpt>
      <trkpt lat="50.44113" lon="3.36226">
        <ele>18</ele>
        <time>2022-04-15T14:57:19.915Z</time>
      </trkpt>
      <trkpt lat="50.44111" lon="3.36236">
        <ele>18</ele>
        <time>2022-04-15T14:57:22.000Z</time>
      </trkpt>
      <trkpt lat="50.44109" lon="3.36247">
        <ele>18</ele>
        <time>2022-04-15T14:57:24.473Z</time>
      </trkpt>
      <trkpt lat="50.44108" lon="3.36254">
        <ele>18</ele>
        <time>2022-04-15T14:57:25.812Z</time>
      </trkpt>
      <trkpt lat="50.44106" lon="3.36263">
        <ele>18</ele>
        <time>2022-04-15T14:57:27.172Z</time>
      </trkpt>
      <trkpt lat="50.44103" lon="3.36273">
        <ele>18</ele>
        <time>2022-04-15T14:57:29.452Z</time>
      </trkpt>
      <trkpt lat="50.44102" lon="3.36289">
        <ele>18</ele>
        <time>2022-04-15T14:57:32.116Z</time>
      </trkpt>
      <trkpt lat="50.441" lon="3.363">
        <ele>18</ele>
        <time>2022-04-15T14:57:33.914Z</time>
      </trkpt>
      <trkpt lat="50.44098" lon="3.36307">
        <ele>18</ele>
        <time>2022-04-15T14:57:35.292Z</time>
      </trkpt>
      <trkpt lat="50.44096" lon="3.36316">
        <ele>18</ele>
        <time>2022-04-15T14:57:36.434Z</time>
      </trkpt>
      <trkpt lat="50.44093" lon="3.36325">
        <ele>18</ele>
        <time>2022-04-15T14:57:38.714Z</time>
      </trkpt>
      <trkpt lat="50.4409" lon="3.36336">
        <ele>18</ele>
        <time>2022-04-15T14:57:41.000Z</time>
      </trkpt>
      <trkpt lat="50.44087" lon="3.3635">
        <ele>18</ele>
        <time>2022-04-15T14:57:44.000Z</time>
      </trkpt>
      <trkpt lat="50.44083" lon="3.36359">
        <ele>18</ele>
        <time>2022-04-15T14:57:46.000Z</time>
      </trkpt>
      <trkpt lat="50.44082" lon="3.36366">
        <ele>18</ele>
        <time>2022-04-15T14:57:48.000Z</time>
      </trkpt>
      <trkpt lat="50.4408" lon="3.36373">
        <ele>18</ele>
        <time>2022-04-15T14:57:50.014Z</time>
      </trkpt>
      <trkpt lat="50.44078" lon="3.36386">
        <ele>18</ele>
        <time>2022-04-15T14:57:52.454Z</time>
      </trkpt>
      <trkpt lat="50.44076" lon="3.36398">
        <ele>18</ele>
        <time>2022-04-15T14:57:54.835Z</time>
      </trkpt>
      <trkpt lat="50.44074" lon="3.36412">
        <ele>18</ele>
        <time>2022-04-15T14:57:57.156Z</time>
      </trkpt>
      <trkpt lat="50.44072" lon="3.36421">
        <ele>18</ele>
        <time>2022-04-15T14:57:59.000Z</time>
      </trkpt>
      <trkpt lat="50.4407" lon="3.36436">
        <ele>18</ele>
        <time>2022-04-15T14:58:01.395Z</time>
      </trkpt>
      <trkpt lat="50.44068" lon="3.3645">
        <ele>18</ele>
        <time>2022-04-15T14:58:03.795Z</time>
      </trkpt>
      <trkpt lat="50.44066" lon="3.36458">
        <ele>18</ele>
        <time>2022-04-15T14:58:06.015Z</time>
      </trkpt>
      <trkpt lat="50.44065" lon="3.36465">
        <ele>18</ele>
        <time>2022-04-15T14:58:07.000Z</time>
      </trkpt>
      <trkpt lat="50.44064" lon="3.36473">
        <ele>18</ele>
        <time>2022-04-15T14:58:08.000Z</time>
      </trkpt>
      <trkpt lat="50.44062" lon="3.3648">
        <ele>18</ele>
        <time>2022-04-15T14:58:09.755Z</time>
      </trkpt>
      <trkpt lat="50.44061" lon="3.36489">
        <ele>18</ele>
        <time>2022-04-15T14:58:11.837Z</time>
      </trkpt>
      <trkpt lat="50.44058" lon="3.365">
        <ele>18</ele>
        <time>2022-04-15T14:58:13.952Z</time>
      </trkpt>
      <trkpt lat="50.44055" lon="3.3651">
        <ele>18</ele>
        <time>2022-04-15T14:58:17.000Z</time>
      </trkpt>
      <trkpt lat="50.44053" lon="3.3652">
        <ele>18</ele>
        <time>2022-04-15T14:58:18.951Z</time>
      </trkpt>
      <trkpt lat="50.44048" lon="3.36536">
        <ele>18</ele>
        <time>2022-04-15T14:58:22.115Z</time>
      </trkpt>
      <trkpt lat="50.44046" lon="3.36557">
        <ele>18</ele>
        <time>2022-04-15T14:58:25.000Z</time>
      </trkpt>
      <trkpt lat="50.44043" lon="3.36568">
        <ele>18</ele>
        <time>2022-04-15T14:58:27.046Z</time>
      </trkpt>
      <trkpt lat="50.44041" lon="3.36576">
        <ele>18</ele>
        <time>2022-04-15T14:58:29.000Z</time>
      </trkpt>
      <trkpt lat="50.4404" lon="3.36584">
        <ele>18</ele>
        <time>2022-04-15T14:58:30.471Z</time>
      </trkpt>
      <trkpt lat="50.44035" lon="3.36601">
        <ele>18</ele>
        <time>2022-04-15T14:58:33.074Z</time>
      </trkpt>
      <trkpt lat="50.44033" lon="3.3661">
        <ele>18</ele>
        <time>2022-04-15T14:58:35.134Z</time>
      </trkpt>
      <trkpt lat="50.44031" lon="3.36618">
        <ele>18</ele>
        <time>2022-04-15T14:58:36.604Z</time>
      </trkpt>
      <trkpt lat="50.44029" lon="3.36632">
        <ele>18</ele>
        <time>2022-04-15T14:58:39.000Z</time>
      </trkpt>
      <trkpt lat="50.44026" lon="3.36643">
        <ele>18</ele>
        <time>2022-04-15T14:58:42.755Z</time>
      </trkpt>
      <trkpt lat="50.44024" lon="3.36654">
        <ele>18</ele>
        <time>2022-04-15T14:58:45.000Z</time>
      </trkpt>
      <trkpt lat="50.44021" lon="3.3667">
        <ele>18.1</ele>
        <time>2022-04-15T14:58:47.912Z</time>
      </trkpt>
      <trkpt lat="50.4402" lon="3.3668">
        <ele>18.3</ele>
        <time>2022-04-15T14:58:50.112Z</time>
      </trkpt>
      <trkpt lat="50.44018" lon="3.36688">
        <ele>18.5</ele>
        <time>2022-04-15T14:58:51.573Z</time>
      </trkpt>
      <trkpt lat="50.44016" lon="3.36696">
        <ele>18.6</ele>
        <time>2022-04-15T14:58:53.000Z</time>
      </trkpt>
      <trkpt lat="50.44014" lon="3.36708">
        <ele>18.5</ele>
        <time>2022-04-15T14:58:55.231Z</time>
      </trkpt>
      <trkpt lat="50.44019" lon="3.36718">
        <ele>18.7</ele>
        <time>2022-04-15T14:59:00.955Z</time>
      </trkpt>
      <trkpt lat="50.44025" lon="3.36718">
        <ele>18.9</ele>
        <time>2022-04-15T14:59:03.095Z</time>
      </trkpt>
      <trkpt lat="50.44034" lon="3.36721">
        <ele>19</ele>
        <time>2022-04-15T14:59:06.755Z</time>
      </trkpt>
      <trkpt lat="50.4404" lon="3.36722">
        <ele>19</ele>
        <time>2022-04-15T14:59:08.000Z</time>
      </trkpt>
      <trkpt lat="50.44045" lon="3.36726">
        <ele>19</ele>
        <time>2022-04-15T14:59:10.000Z</time>
      </trkpt>
      <trkpt lat="50.4405" lon="3.36729">
        <ele>19</ele>
        <time>2022-04-15T14:59:12.000Z</time>
      </trkpt>
      <trkpt lat="50.44055" lon="3.36731">
        <ele>19</ele>
        <time>2022-04-15T14:59:13.054Z</time>
      </trkpt>
      <trkpt lat="50.44061" lon="3.36734">
        <ele>19</ele>
        <time>2022-04-15T14:59:15.000Z</time>
      </trkpt>
      <trkpt lat="50.44067" lon="3.36738">
        <ele>19</ele>
        <time>2022-04-15T14:59:18.000Z</time>
      </trkpt>
      <trkpt lat="50.44076" lon="3.36743">
        <ele>19</ele>
        <time>2022-04-15T14:59:21.000Z</time>
      </trkpt>
      <trkpt lat="50.44082" lon="3.36747">
        <ele>19</ele>
        <time>2022-04-15T14:59:23.000Z</time>
      </trkpt>
      <trkpt lat="50.4409" lon="3.36751">
        <ele>19</ele>
        <time>2022-04-15T14:59:25.000Z</time>
      </trkpt>
      <trkpt lat="50.44094" lon="3.36755">
        <ele>19</ele>
        <time>2022-04-15T14:59:27.000Z</time>
      </trkpt>
      <trkpt lat="50.44102" lon="3.36759">
        <ele>19</ele>
        <time>2022-04-15T14:59:28.734Z</time>
      </trkpt>
      <trkpt lat="50.44111" lon="3.36765">
        <ele>19</ele>
        <time>2022-04-15T14:59:30.969Z</time>
      </trkpt>
      <trkpt lat="50.44118" lon="3.36772">
        <ele>19</ele>
        <time>2022-04-15T14:59:33.000Z</time>
      </trkpt>
      <trkpt lat="50.44127" lon="3.36778">
        <ele>19</ele>
        <time>2022-04-15T14:59:36.000Z</time>
      </trkpt>
      <trkpt lat="50.44137" lon="3.36784">
        <ele>19</ele>
        <time>2022-04-15T14:59:38.000Z</time>
      </trkpt>
      <trkpt lat="50.44143" lon="3.36788">
        <ele>19</ele>
        <time>2022-04-15T14:59:40.000Z</time>
      </trkpt>
      <trkpt lat="50.44152" lon="3.3679">
        <ele>19</ele>
        <time>2022-04-15T14:59:42.000Z</time>
      </trkpt>
      <trkpt lat="50.44162" lon="3.36797">
        <ele>19</ele>
        <time>2022-04-15T14:59:45.000Z</time>
      </trkpt>
      <trkpt lat="50.44168" lon="3.368">
        <ele>19</ele>
        <time>2022-04-15T14:59:47.000Z</time>
      </trkpt>
      <trkpt lat="50.44173" lon="3.36805">
        <ele>19</ele>
        <time>2022-04-15T14:59:48.000Z</time>
      </trkpt>
      <trkpt lat="50.44178" lon="3.36809">
        <ele>19</ele>
        <time>2022-04-15T14:59:50.000Z</time>
      </trkpt>
      <trkpt lat="50.44183" lon="3.36811">
        <ele>19</ele>
        <time>2022-04-15T14:59:51.000Z</time>
      </trkpt>
      <trkpt lat="50.44188" lon="3.36814">
        <ele>19</ele>
        <time>2022-04-15T14:59:53.000Z</time>
      </trkpt>
      <trkpt lat="50.44192" lon="3.36818">
        <ele>19</ele>
        <time>2022-04-15T14:59:54.000Z</time>
      </trkpt>
      <trkpt lat="50.44198" lon="3.36823">
        <ele>19</ele>
        <time>2022-04-15T14:59:56.050Z</time>
      </trkpt>
      <trkpt lat="50.44203" lon="3.36825">
        <ele>19</ele>
        <time>2022-04-15T14:59:58.000Z</time>
      </trkpt>
      <trkpt lat="50.44209" lon="3.36824">
        <ele>19</ele>
        <time>2022-04-15T15:00:18.000Z</time>
      </trkpt>
      <trkpt lat="50.44216" lon="3.36823">
        <ele>19</ele>
        <time>2022-04-15T15:00:20.000Z</time>
      </trkpt>
      <trkpt lat="50.44221" lon="3.36825">
        <ele>19</ele>
        <time>2022-04-15T15:00:21.000Z</time>
      </trkpt>
      <trkpt lat="50.44225" lon="3.36828">
        <ele>19</ele>
        <time>2022-04-15T15:00:22.000Z</time>
      </trkpt>
      <trkpt lat="50.4423" lon="3.36829">
        <ele>19</ele>
        <time>2022-04-15T15:00:23.000Z</time>
      </trkpt>
      <trkpt lat="50.44238" lon="3.36833">
        <ele>19</ele>
        <time>2022-04-15T15:00:25.000Z</time>
      </trkpt>
      <trkpt lat="50.44245" lon="3.36836">
        <ele>19</ele>
        <time>2022-04-15T15:00:27.000Z</time>
      </trkpt>
      <trkpt lat="50.44251" lon="3.3684">
        <ele>19</ele>
        <time>2022-04-15T15:00:29.000Z</time>
      </trkpt>
      <trkpt lat="50.44257" lon="3.36844">
        <ele>19</ele>
        <time>2022-04-15T15:00:30.000Z</time>
      </trkpt>
      <trkpt lat="50.44267" lon="3.36848">
        <ele>19</ele>
        <time>2022-04-15T15:00:32.332Z</time>
      </trkpt>
      <trkpt lat="50.44275" lon="3.36851">
        <ele>19</ele>
        <time>2022-04-15T15:00:34.000Z</time>
      </trkpt>
      <trkpt lat="50.44282" lon="3.36855">
        <ele>19</ele>
        <time>2022-04-15T15:00:36.000Z</time>
      </trkpt>
      <trkpt lat="50.44289" lon="3.36858">
        <ele>19</ele>
        <time>2022-04-15T15:00:38.000Z</time>
      </trkpt>
      <trkpt lat="50.44296" lon="3.36862">
        <ele>19</ele>
        <time>2022-04-15T15:00:40.000Z</time>
      </trkpt>
      <trkpt lat="50.44302" lon="3.36863">
        <ele>19</ele>
        <time>2022-04-15T15:00:41.000Z</time>
      </trkpt>
      <trkpt lat="50.4431" lon="3.36869">
        <ele>19</ele>
        <time>2022-04-15T15:00:44.000Z</time>
      </trkpt>
      <trkpt lat="50.44317" lon="3.36873">
        <ele>19</ele>
        <time>2022-04-15T15:00:46.000Z</time>
      </trkpt>
      <trkpt lat="50.44323" lon="3.36879">
        <ele>19</ele>
        <time>2022-04-15T15:00:48.000Z</time>
      </trkpt>
      <trkpt lat="50.44327" lon="3.3688">
        <ele>19</ele>
        <time>2022-04-15T15:00:49.000Z</time>
      </trkpt>
      <trkpt lat="50.44334" lon="3.36883">
        <ele>19</ele>
        <time>2022-04-15T15:00:51.000Z</time>
      </trkpt>
      <trkpt lat="50.44342" lon="3.36887">
        <ele>19</ele>
        <time>2022-04-15T15:00:53.000Z</time>
      </trkpt>
      <trkpt lat="50.44348" lon="3.3689">
        <ele>19</ele>
        <time>2022-04-15T15:00:55.000Z</time>
      </trkpt>
      <trkpt lat="50.44356" lon="3.36893">
        <ele>19</ele>
        <time>2022-04-15T15:00:57.000Z</time>
      </trkpt>
      <trkpt lat="50.44362" lon="3.36897">
        <ele>19</ele>
        <time>2022-04-15T15:00:59.000Z</time>
      </trkpt>
      <trkpt lat="50.44367" lon="3.36899">
        <ele>19.1</ele>
        <time>2022-04-15T15:01:01.000Z</time>
      </trkpt>
      <trkpt lat="50.44374" lon="3.36902">
        <ele>19.2</ele>
        <time>2022-04-15T15:01:03.000Z</time>
      </trkpt>
      <trkpt lat="50.44379" lon="3.36906">
        <ele>19.4</ele>
        <time>2022-04-15T15:01:04.016Z</time>
      </trkpt>
      <trkpt lat="50.44387" lon="3.36909">
        <ele>19.7</ele>
        <time>2022-04-15T15:01:06.000Z</time>
      </trkpt>
      <trkpt lat="50.44392" lon="3.36911">
        <ele>19.8</ele>
        <time>2022-04-15T15:01:08.000Z</time>
      </trkpt>
      <trkpt lat="50.44398" lon="3.36916">
        <ele>20</ele>
        <time>2022-04-15T15:01:10.000Z</time>
      </trkpt>
      <trkpt lat="50.44405" lon="3.36921">
        <ele>20</ele>
        <time>2022-04-15T15:01:13.053Z</time>
      </trkpt>
      <trkpt lat="50.44411" lon="3.36922">
        <ele>20</ele>
        <time>2022-04-15T15:01:15.000Z</time>
      </trkpt>
      <trkpt lat="50.44418" lon="3.36925">
        <ele>20</ele>
        <time>2022-04-15T15:01:17.000Z</time>
      </trkpt>
      <trkpt lat="50.44424" lon="3.3693">
        <ele>20</ele>
        <time>2022-04-15T15:01:20.000Z</time>
      </trkpt>
      <trkpt lat="50.44432" lon="3.36933">
        <ele>20</ele>
        <time>2022-04-15T15:01:22.000Z</time>
      </trkpt>
      <trkpt lat="50.44437" lon="3.36935">
        <ele>20</ele>
        <time>2022-04-15T15:01:24.000Z</time>
      </trkpt>
      <trkpt lat="50.44443" lon="3.36941">
        <ele>20</ele>
        <time>2022-04-15T15:01:26.000Z</time>
      </trkpt>
      <trkpt lat="50.44451" lon="3.36945">
        <ele>20</ele>
        <time>2022-04-15T15:01:28.000Z</time>
      </trkpt>
      <trkpt lat="50.44462" lon="3.36951">
        <ele>20</ele>
        <time>2022-04-15T15:01:31.000Z</time>
      </trkpt>
      <trkpt lat="50.44468" lon="3.36954">
        <ele>20</ele>
        <time>2022-04-15T15:01:33.000Z</time>
      </trkpt>
      <trkpt lat="50.44474" lon="3.36957">
        <ele>19.9</ele>
        <time>2022-04-15T15:01:35.000Z</time>
      </trkpt>
      <trkpt lat="50.44485" lon="3.36963">
        <ele>19.5</ele>
        <time>2022-04-15T15:01:37.000Z</time>
      </trkpt>
      <trkpt lat="50.44493" lon="3.36971">
        <ele>19.3</ele>
        <time>2022-04-15T15:01:40.034Z</time>
      </trkpt>
      <trkpt lat="50.44497" lon="3.36983">
        <ele>19.1</ele>
        <time>2022-04-15T15:01:41.158Z</time>
      </trkpt>
      <trkpt lat="50.44494" lon="3.3699">
        <ele>19.1</ele>
        <time>2022-04-15T15:01:42.494Z</time>
      </trkpt>
      <trkpt lat="50.44491" lon="3.37001">
        <ele>19</ele>
        <time>2022-04-15T15:01:44.000Z</time>
      </trkpt>
      <trkpt lat="50.44487" lon="3.37015">
        <ele>19</ele>
        <time>2022-04-15T15:01:46.000Z</time>
      </trkpt>
      <trkpt lat="50.44479" lon="3.37029">
        <ele>19</ele>
        <time>2022-04-15T15:01:49.000Z</time>
      </trkpt>
      <trkpt lat="50.44477" lon="3.37036">
        <ele>19</ele>
        <time>2022-04-15T15:01:50.000Z</time>
      </trkpt>
      <trkpt lat="50.44473" lon="3.37049">
        <ele>19</ele>
        <time>2022-04-15T15:01:52.000Z</time>
      </trkpt>
      <trkpt lat="50.44472" lon="3.3706">
        <ele>19</ele>
        <time>2022-04-15T15:01:54.000Z</time>
      </trkpt>
      <trkpt lat="50.44472" lon="3.37067">
        <ele>19</ele>
        <time>2022-04-15T15:01:55.000Z</time>
      </trkpt>
      <trkpt lat="50.44473" lon="3.37086">
        <ele>19</ele>
        <time>2022-04-15T15:01:58.000Z</time>
      </trkpt>
      <trkpt lat="50.4448" lon="3.37094">
        <ele>19</ele>
        <time>2022-04-15T15:02:00.000Z</time>
      </trkpt>
      <trkpt lat="50.44489" lon="3.37098">
        <ele>19</ele>
        <time>2022-04-15T15:02:02.000Z</time>
      </trkpt>
      <trkpt lat="50.44498" lon="3.37103">
        <ele>19</ele>
        <time>2022-04-15T15:02:04.000Z</time>
      </trkpt>
      <trkpt lat="50.44503" lon="3.37107">
        <ele>19.1</ele>
        <time>2022-04-15T15:02:06.000Z</time>
      </trkpt>
      <trkpt lat="50.4451" lon="3.37112">
        <ele>19.4</ele>
        <time>2022-04-15T15:02:08.000Z</time>
      </trkpt>
      <trkpt lat="50.44515" lon="3.37117">
        <ele>19.5</ele>
        <time>2022-04-15T15:02:10.000Z</time>
      </trkpt>
      <trkpt lat="50.44521" lon="3.3712">
        <ele>19.8</ele>
        <time>2022-04-15T15:02:12.000Z</time>
      </trkpt>
      <trkpt lat="50.44527" lon="3.37123">
        <ele>20</ele>
        <time>2022-04-15T15:02:14.000Z</time>
      </trkpt>
      <trkpt lat="50.44531" lon="3.37127">
        <ele>20</ele>
        <time>2022-04-15T15:02:16.000Z</time>
      </trkpt>
      <trkpt lat="50.44537" lon="3.37131">
        <ele>19.9</ele>
        <time>2022-04-15T15:02:18.000Z</time>
      </trkpt>
      <trkpt lat="50.44542" lon="3.37136">
        <ele>19.9</ele>
        <time>2022-04-15T15:02:20.000Z</time>
      </trkpt>
      <trkpt lat="50.44547" lon="3.37141">
        <ele>19.9</ele>
        <time>2022-04-15T15:02:22.000Z</time>
      </trkpt>
      <trkpt lat="50.44554" lon="3.37146">
        <ele>19.7</ele>
        <time>2022-04-15T15:02:24.000Z</time>
      </trkpt>
      <trkpt lat="50.44562" lon="3.37152">
        <ele>19.4</ele>
        <time>2022-04-15T15:02:26.000Z</time>
      </trkpt>
      <trkpt lat="50.44569" lon="3.37155">
        <ele>19.2</ele>
        <time>2022-04-15T15:02:28.000Z</time>
      </trkpt>
      <trkpt lat="50.44576" lon="3.37157">
        <ele>19.1</ele>
        <time>2022-04-15T15:02:30.000Z</time>
      </trkpt>
      <trkpt lat="50.44584" lon="3.37156">
        <ele>19</ele>
        <time>2022-04-15T15:02:32.000Z</time>
      </trkpt>
      <trkpt lat="50.44593" lon="3.37149">
        <ele>19</ele>
        <time>2022-04-15T15:02:34.000Z</time>
      </trkpt>
      <trkpt lat="50.446" lon="3.37141">
        <ele>19</ele>
        <time>2022-04-15T15:02:36.000Z</time>
      </trkpt>
      <trkpt lat="50.44609" lon="3.37135">
        <ele>19</ele>
        <time>2022-04-15T15:02:38.000Z</time>
      </trkpt>
      <trkpt lat="50.44614" lon="3.37133">
        <ele>19</ele>
        <time>2022-04-15T15:02:39.000Z</time>
      </trkpt>
      <trkpt lat="50.44619" lon="3.37133">
        <ele>19</ele>
        <time>2022-04-15T15:02:40.000Z</time>
      </trkpt>
      <trkpt lat="50.44625" lon="3.37133">
        <ele>19</ele>
        <time>2022-04-15T15:02:41.000Z</time>
      </trkpt>
      <trkpt lat="50.44634" lon="3.37135">
        <ele>19</ele>
        <time>2022-04-15T15:02:43.000Z</time>
      </trkpt>
      <trkpt lat="50.4464" lon="3.37138">
        <ele>19</ele>
        <time>2022-04-15T15:02:44.000Z</time>
      </trkpt>
      <trkpt lat="50.44645" lon="3.3714">
        <ele>19</ele>
        <time>2022-04-15T15:02:45.000Z</time>
      </trkpt>
      <trkpt lat="50.44649" lon="3.37143">
        <ele>19</ele>
        <time>2022-04-15T15:02:46.000Z</time>
      </trkpt>
      <trkpt lat="50.44654" lon="3.37146">
        <ele>19</ele>
        <time>2022-04-15T15:02:47.000Z</time>
      </trkpt>
      <trkpt lat="50.44657" lon="3.37149">
        <ele>19</ele>
        <time>2022-04-15T15:02:48.000Z</time>
      </trkpt>
      <trkpt lat="50.44663" lon="3.37157">
        <ele>19</ele>
        <time>2022-04-15T15:02:50.000Z</time>
      </trkpt>
      <trkpt lat="50.44669" lon="3.37166">
        <ele>19</ele>
        <time>2022-04-15T15:02:52.000Z</time>
      </trkpt>
      <trkpt lat="50.44672" lon="3.37172">
        <ele>19</ele>
        <time>2022-04-15T15:02:53.000Z</time>
      </trkpt>
      <trkpt lat="50.44673" lon="3.37179">
        <ele>19</ele>
        <time>2022-04-15T15:02:55.000Z</time>
      </trkpt>
      <trkpt lat="50.44678" lon="3.37186">
        <ele>19</ele>
        <time>2022-04-15T15:02:56.000Z</time>
      </trkpt>
      <trkpt lat="50.44684" lon="3.37196">
        <ele>19</ele>
        <time>2022-04-15T15:02:58.000Z</time>
      </trkpt>
      <trkpt lat="50.44688" lon="3.37209">
        <ele>19</ele>
        <time>2022-04-15T15:03:00.416Z</time>
      </trkpt>
      <trkpt lat="50.4469" lon="3.37218">
        <ele>19</ele>
        <time>2022-04-15T15:03:02.000Z</time>
      </trkpt>
      <trkpt lat="50.4469" lon="3.3723">
        <ele>19</ele>
        <time>2022-04-15T15:03:04.000Z</time>
      </trkpt>
      <trkpt lat="50.44694" lon="3.37241">
        <ele>19</ele>
        <time>2022-04-15T15:03:06.520Z</time>
      </trkpt>
      <trkpt lat="50.44695" lon="3.37249">
        <ele>19</ele>
        <time>2022-04-15T15:03:08.000Z</time>
      </trkpt>
      <trkpt lat="50.44695" lon="3.3726">
        <ele>19</ele>
        <time>2022-04-15T15:03:10.000Z</time>
      </trkpt>
      <trkpt lat="50.44698" lon="3.37273">
        <ele>19</ele>
        <time>2022-04-15T15:03:12.000Z</time>
      </trkpt>
      <trkpt lat="50.44701" lon="3.37288">
        <ele>19</ele>
        <time>2022-04-15T15:03:14.933Z</time>
      </trkpt>
      <trkpt lat="50.44706" lon="3.37297">
        <ele>19</ele>
        <time>2022-04-15T15:03:17.000Z</time>
      </trkpt>
      <trkpt lat="50.44711" lon="3.37308">
        <ele>19</ele>
        <time>2022-04-15T15:03:19.000Z</time>
      </trkpt>
      <trkpt lat="50.44717" lon="3.37315">
        <ele>19</ele>
        <time>2022-04-15T15:03:21.000Z</time>
      </trkpt>
      <trkpt lat="50.44722" lon="3.37323">
        <ele>19</ele>
        <time>2022-04-15T15:03:23.000Z</time>
      </trkpt>
      <trkpt lat="50.44728" lon="3.37332">
        <ele>19</ele>
        <time>2022-04-15T15:03:25.000Z</time>
      </trkpt>
      <trkpt lat="50.44733" lon="3.3734">
        <ele>19</ele>
        <time>2022-04-15T15:03:27.000Z</time>
      </trkpt>
      <trkpt lat="50.44738" lon="3.37349">
        <ele>19</ele>
        <time>2022-04-15T15:03:29.016Z</time>
      </trkpt>
      <trkpt lat="50.44744" lon="3.37359">
        <ele>19</ele>
        <time>2022-04-15T15:03:31.000Z</time>
      </trkpt>
      <trkpt lat="50.44749" lon="3.37369">
        <ele>18.7</ele>
        <time>2022-04-15T15:03:33.000Z</time>
      </trkpt>
      <trkpt lat="50.44751" lon="3.37376">
        <ele>18.5</ele>
        <time>2022-04-15T15:03:34.000Z</time>
      </trkpt>
      <trkpt lat="50.44753" lon="3.37389">
        <ele>18.1</ele>
        <time>2022-04-15T15:03:36.000Z</time>
      </trkpt>
      <trkpt lat="50.44754" lon="3.37402">
        <ele>18.1</ele>
        <time>2022-04-15T15:03:38.000Z</time>
      </trkpt>
      <trkpt lat="50.44754" lon="3.37416">
        <ele>18</ele>
        <time>2022-04-15T15:03:40.000Z</time>
      </trkpt>
      <trkpt lat="50.44754" lon="3.37424">
        <ele>18</ele>
        <time>2022-04-15T15:03:41.000Z</time>
      </trkpt>
      <trkpt lat="50.44755" lon="3.37431">
        <ele>18</ele>
        <time>2022-04-15T15:03:42.000Z</time>
      </trkpt>
      <trkpt lat="50.44756" lon="3.37444">
        <ele>18</ele>
        <time>2022-04-15T15:03:44.000Z</time>
      </trkpt>
      <trkpt lat="50.44756" lon="3.37456">
        <ele>18.1</ele>
        <time>2022-04-15T15:03:46.024Z</time>
      </trkpt>
      <trkpt lat="50.44756" lon="3.37465">
        <ele>18.2</ele>
        <time>2022-04-15T15:03:47.000Z</time>
      </trkpt>
      <trkpt lat="50.44758" lon="3.37478">
        <ele>18.4</ele>
        <time>2022-04-15T15:03:49.000Z</time>
      </trkpt>
      <trkpt lat="50.4476" lon="3.37491">
        <ele>18.8</ele>
        <time>2022-04-15T15:03:51.000Z</time>
      </trkpt>
      <trkpt lat="50.44763" lon="3.37503">
        <ele>18.9</ele>
        <time>2022-04-15T15:03:53.000Z</time>
      </trkpt>
      <trkpt lat="50.44767" lon="3.37512">
        <ele>18.7</ele>
        <time>2022-04-15T15:03:55.000Z</time>
      </trkpt>
      <trkpt lat="50.44771" lon="3.37521">
        <ele>18.4</ele>
        <time>2022-04-15T15:03:57.000Z</time>
      </trkpt>
      <trkpt lat="50.44776" lon="3.3753">
        <ele>18.1</ele>
        <time>2022-04-15T15:03:59.000Z</time>
      </trkpt>
      <trkpt lat="50.44782" lon="3.37539">
        <ele>18</ele>
        <time>2022-04-15T15:04:01.000Z</time>
      </trkpt>
      <trkpt lat="50.4479" lon="3.37548">
        <ele>18</ele>
        <time>2022-04-15T15:04:03.000Z</time>
      </trkpt>
      <trkpt lat="50.44796" lon="3.37556">
        <ele>18</ele>
        <time>2022-04-15T15:04:05.000Z</time>
      </trkpt>
      <trkpt lat="50.44802" lon="3.37565">
        <ele>18</ele>
        <time>2022-04-15T15:04:07.000Z</time>
      </trkpt>
      <trkpt lat="50.44809" lon="3.37572">
        <ele>18</ele>
        <time>2022-04-15T15:04:09.000Z</time>
      </trkpt>
      <trkpt lat="50.44813" lon="3.37578">
        <ele>18</ele>
        <time>2022-04-15T15:04:10.000Z</time>
      </trkpt>
      <trkpt lat="50.44819" lon="3.37586">
        <ele>18</ele>
        <time>2022-04-15T15:04:12.000Z</time>
      </trkpt>
      <trkpt lat="50.44824" lon="3.37592">
        <ele>18</ele>
        <time>2022-04-15T15:04:13.000Z</time>
      </trkpt>
      <trkpt lat="50.4483" lon="3.37601">
        <ele>18</ele>
        <time>2022-04-15T15:04:15.000Z</time>
      </trkpt>
      <trkpt lat="50.44832" lon="3.37607">
        <ele>18</ele>
        <time>2022-04-15T15:04:16.000Z</time>
      </trkpt>
      <trkpt lat="50.44835" lon="3.37613">
        <ele>17.9</ele>
        <time>2022-04-15T15:04:17.000Z</time>
      </trkpt>
      <trkpt lat="50.44837" lon="3.3762">
        <ele>17.9</ele>
        <time>2022-04-15T15:04:18.000Z</time>
      </trkpt>
      <trkpt lat="50.44841" lon="3.37633">
        <ele>17.7</ele>
        <time>2022-04-15T15:04:20.000Z</time>
      </trkpt>
      <trkpt lat="50.44845" lon="3.37646">
        <ele>17.6</ele>
        <time>2022-04-15T15:04:22.000Z</time>
      </trkpt>
      <trkpt lat="50.44846" lon="3.37652">
        <ele>17.5</ele>
        <time>2022-04-15T15:04:23.000Z</time>
      </trkpt>
      <trkpt lat="50.4485" lon="3.37664">
        <ele>17.4</ele>
        <time>2022-04-15T15:04:25.000Z</time>
      </trkpt>
      <trkpt lat="50.44853" lon="3.37677">
        <ele>17.6</ele>
        <time>2022-04-15T15:04:27.000Z</time>
      </trkpt>
      <trkpt lat="50.44856" lon="3.3769">
        <ele>17.9</ele>
        <time>2022-04-15T15:04:29.000Z</time>
      </trkpt>
      <trkpt lat="50.44859" lon="3.37701">
        <ele>18</ele>
        <time>2022-04-15T15:04:31.000Z</time>
      </trkpt>
      <trkpt lat="50.4486" lon="3.37709">
        <ele>18</ele>
        <time>2022-04-15T15:04:32.000Z</time>
      </trkpt>
      <trkpt lat="50.44863" lon="3.37719">
        <ele>18</ele>
        <time>2022-04-15T15:04:34.000Z</time>
      </trkpt>
      <trkpt lat="50.44865" lon="3.37731">
        <ele>18</ele>
        <time>2022-04-15T15:04:36.000Z</time>
      </trkpt>
      <trkpt lat="50.44867" lon="3.37743">
        <ele>18</ele>
        <time>2022-04-15T15:04:38.000Z</time>
      </trkpt>
      <trkpt lat="50.44868" lon="3.37755">
        <ele>18</ele>
        <time>2022-04-15T15:04:40.000Z</time>
      </trkpt>
      <trkpt lat="50.44869" lon="3.37767">
        <ele>18</ele>
        <time>2022-04-15T15:04:42.000Z</time>
      </trkpt>
      <trkpt lat="50.4487" lon="3.3778">
        <ele>18</ele>
        <time>2022-04-15T15:04:44.000Z</time>
      </trkpt>
      <trkpt lat="50.44871" lon="3.3779">
        <ele>18</ele>
        <time>2022-04-15T15:04:46.043Z</time>
      </trkpt>
      <trkpt lat="50.44871" lon="3.37797">
        <ele>18</ele>
        <time>2022-04-15T15:04:47.000Z</time>
      </trkpt>
      <trkpt lat="50.44872" lon="3.3781">
        <ele>17.9</ele>
        <time>2022-04-15T15:04:49.000Z</time>
      </trkpt>
      <trkpt lat="50.44872" lon="3.37822">
        <ele>17.8</ele>
        <time>2022-04-15T15:04:51.000Z</time>
      </trkpt>
      <trkpt lat="50.44874" lon="3.37828">
        <ele>17.6</ele>
        <time>2022-04-15T15:04:52.000Z</time>
      </trkpt>
      <trkpt lat="50.4488" lon="3.37837">
        <ele>17.3</ele>
        <time>2022-04-15T15:04:54.000Z</time>
      </trkpt>
      <trkpt lat="50.4489" lon="3.37843">
        <ele>17</ele>
        <time>2022-04-15T15:04:56.443Z</time>
      </trkpt>
      <trkpt lat="50.44897" lon="3.37848">
        <ele>17.1</ele>
        <time>2022-04-15T15:04:58.420Z</time>
      </trkpt>
      <trkpt lat="50.44901" lon="3.37852">
        <ele>17.1</ele>
        <time>2022-04-15T15:04:59.496Z</time>
      </trkpt>
      <trkpt lat="50.4491" lon="3.3786">
        <ele>17</ele>
        <time>2022-04-15T15:05:02.000Z</time>
      </trkpt>
      <trkpt lat="50.44917" lon="3.37865">
        <ele>17</ele>
        <time>2022-04-15T15:05:04.000Z</time>
      </trkpt>
      <trkpt lat="50.44922" lon="3.37872">
        <ele>17.1</ele>
        <time>2022-04-15T15:05:05.343Z</time>
      </trkpt>
      <trkpt lat="50.44927" lon="3.37876">
        <ele>17.2</ele>
        <time>2022-04-15T15:05:06.688Z</time>
      </trkpt>
      <trkpt lat="50.44935" lon="3.37882">
        <ele>17.2</ele>
        <time>2022-04-15T15:05:09.000Z</time>
      </trkpt>
      <trkpt lat="50.44942" lon="3.37888">
        <ele>17</ele>
        <time>2022-04-15T15:05:11.000Z</time>
      </trkpt>
      <trkpt lat="50.44949" lon="3.37894">
        <ele>17.3</ele>
        <time>2022-04-15T15:05:13.000Z</time>
      </trkpt>
      <trkpt lat="50.44954" lon="3.37899">
        <ele>17.6</ele>
        <time>2022-04-15T15:05:14.602Z</time>
      </trkpt>
      <trkpt lat="50.44958" lon="3.37903">
        <ele>17.7</ele>
        <time>2022-04-15T15:05:15.720Z</time>
      </trkpt>
      <trkpt lat="50.44966" lon="3.3791">
        <ele>17.9</ele>
        <time>2022-04-15T15:05:17.988Z</time>
      </trkpt>
      <trkpt lat="50.44973" lon="3.37916">
        <ele>18</ele>
        <time>2022-04-15T15:05:20.000Z</time>
      </trkpt>
      <trkpt lat="50.4498" lon="3.37922">
        <ele>17.9</ele>
        <time>2022-04-15T15:05:22.000Z</time>
      </trkpt>
      <trkpt lat="50.44984" lon="3.37925">
        <ele>17.8</ele>
        <time>2022-04-15T15:05:23.000Z</time>
      </trkpt>
      <trkpt lat="50.44989" lon="3.37929">
        <ele>17.8</ele>
        <time>2022-04-15T15:05:25.000Z</time>
      </trkpt>
      <trkpt lat="50.44998" lon="3.37938">
        <ele>17.9</ele>
        <time>2022-04-15T15:05:28.000Z</time>
      </trkpt>
      <trkpt lat="50.45003" lon="3.37943">
        <ele>18</ele>
        <time>2022-04-15T15:05:29.000Z</time>
      </trkpt>
      <trkpt lat="50.45008" lon="3.37945">
        <ele>18</ele>
        <time>2022-04-15T15:05:31.000Z</time>
      </trkpt>
      <trkpt lat="50.45013" lon="3.3795">
        <ele>17.9</ele>
        <time>2022-04-15T15:05:32.000Z</time>
      </trkpt>
      <trkpt lat="50.45018" lon="3.37954">
        <ele>17.8</ele>
        <time>2022-04-15T15:05:35.065Z</time>
      </trkpt>
      <trkpt lat="50.45024" lon="3.37961">
        <ele>17.5</ele>
        <time>2022-04-15T15:05:37.000Z</time>
      </trkpt>
      <trkpt lat="50.45032" lon="3.37966">
        <ele>17.3</ele>
        <time>2022-04-15T15:05:39.000Z</time>
      </trkpt>
      <trkpt lat="50.45041" lon="3.37973">
        <ele>17.5</ele>
        <time>2022-04-15T15:05:41.000Z</time>
      </trkpt>
      <trkpt lat="50.4505" lon="3.37981">
        <ele>17.8</ele>
        <time>2022-04-15T15:05:44.000Z</time>
      </trkpt>
      <trkpt lat="50.45059" lon="3.37991">
        <ele>18</ele>
        <time>2022-04-15T15:05:46.122Z</time>
      </trkpt>
      <trkpt lat="50.45066" lon="3.37996">
        <ele>18.1</ele>
        <time>2022-04-15T15:05:47.999Z</time>
      </trkpt>
      <trkpt lat="50.45071" lon="3.37999">
        <ele>18</ele>
        <time>2022-04-15T15:05:49.000Z</time>
      </trkpt>
      <trkpt lat="50.45076" lon="3.38004">
        <ele>18</ele>
        <time>2022-04-15T15:05:50.000Z</time>
      </trkpt>
      <trkpt lat="50.45083" lon="3.38003">
        <ele>18</ele>
        <time>2022-04-15T15:05:51.908Z</time>
      </trkpt>
      <trkpt lat="50.4509" lon="3.38012">
        <ele>18.1</ele>
        <time>2022-04-15T15:05:54.000Z</time>
      </trkpt>
      <trkpt lat="50.45093" lon="3.38017">
        <ele>18.1</ele>
        <time>2022-04-15T15:05:55.000Z</time>
      </trkpt>
      <trkpt lat="50.45101" lon="3.38026">
        <ele>18</ele>
        <time>2022-04-15T15:05:57.000Z</time>
      </trkpt>
      <trkpt lat="50.45105" lon="3.3803">
        <ele>18</ele>
        <time>2022-04-15T15:05:58.000Z</time>
      </trkpt>
      <trkpt lat="50.45111" lon="3.38037">
        <ele>18</ele>
        <time>2022-04-15T15:06:00.001Z</time>
      </trkpt>
      <trkpt lat="50.45119" lon="3.38046">
        <ele>18.1</ele>
        <time>2022-04-15T15:06:03.000Z</time>
      </trkpt>
      <trkpt lat="50.45127" lon="3.38057">
        <ele>18</ele>
        <time>2022-04-15T15:06:04.000Z</time>
      </trkpt>
      <trkpt lat="50.45132" lon="3.38063">
        <ele>18</ele>
        <time>2022-04-15T15:06:05.436Z</time>
      </trkpt>
      <trkpt lat="50.45138" lon="3.38069">
        <ele>18</ele>
        <time>2022-04-15T15:06:07.000Z</time>
      </trkpt>
      <trkpt lat="50.45146" lon="3.38074">
        <ele>18</ele>
        <time>2022-04-15T15:06:08.940Z</time>
      </trkpt>
      <trkpt lat="50.45152" lon="3.38083">
        <ele>18</ele>
        <time>2022-04-15T15:06:11.159Z</time>
      </trkpt>
      <trkpt lat="50.45158" lon="3.38088">
        <ele>18</ele>
        <time>2022-04-15T15:06:12.202Z</time>
      </trkpt>
      <trkpt lat="50.45166" lon="3.38095">
        <ele>18</ele>
        <time>2022-04-15T15:06:13.919Z</time>
      </trkpt>
      <trkpt lat="50.45173" lon="3.38101">
        <ele>18</ele>
        <time>2022-04-15T15:06:16.000Z</time>
      </trkpt>
      <trkpt lat="50.45178" lon="3.3811">
        <ele>18</ele>
        <time>2022-04-15T15:06:18.000Z</time>
      </trkpt>
      <trkpt lat="50.4518" lon="3.38116">
        <ele>18</ele>
        <time>2022-04-15T15:06:19.000Z</time>
      </trkpt>
      <trkpt lat="50.45182" lon="3.38125">
        <ele>18</ele>
        <time>2022-04-15T15:06:21.000Z</time>
      </trkpt>
      <trkpt lat="50.45185" lon="3.3813">
        <ele>18</ele>
        <time>2022-04-15T15:06:22.000Z</time>
      </trkpt>
      <trkpt lat="50.45188" lon="3.38139">
        <ele>18</ele>
        <time>2022-04-15T15:06:23.000Z</time>
      </trkpt>
      <trkpt lat="50.45191" lon="3.38146">
        <ele>18</ele>
        <time>2022-04-15T15:06:24.000Z</time>
      </trkpt>
      <trkpt lat="50.45195" lon="3.38157">
        <ele>18</ele>
        <time>2022-04-15T15:06:26.000Z</time>
      </trkpt>
      <trkpt lat="50.45199" lon="3.38166">
        <ele>18</ele>
        <time>2022-04-15T15:06:28.000Z</time>
      </trkpt>
      <trkpt lat="50.45201" lon="3.38172">
        <ele>18</ele>
        <time>2022-04-15T15:06:29.000Z</time>
      </trkpt>
      <trkpt lat="50.45203" lon="3.38179">
        <ele>18</ele>
        <time>2022-04-15T15:06:31.000Z</time>
      </trkpt>
      <trkpt lat="50.45205" lon="3.38186">
        <ele>18</ele>
        <time>2022-04-15T15:06:32.000Z</time>
      </trkpt>
      <trkpt lat="50.4521" lon="3.38196">
        <ele>18</ele>
        <time>2022-04-15T15:06:34.000Z</time>
      </trkpt>
      <trkpt lat="50.45213" lon="3.38206">
        <ele>18</ele>
        <time>2022-04-15T15:06:36.000Z</time>
      </trkpt>
      <trkpt lat="50.45217" lon="3.38216">
        <ele>18</ele>
        <time>2022-04-15T15:06:38.000Z</time>
      </trkpt>
      <trkpt lat="50.4522" lon="3.38225">
        <ele>18</ele>
        <time>2022-04-15T15:06:40.000Z</time>
      </trkpt>
      <trkpt lat="50.45223" lon="3.38232">
        <ele>18</ele>
        <time>2022-04-15T15:06:42.000Z</time>
      </trkpt>
      <trkpt lat="50.45226" lon="3.38244">
        <ele>18</ele>
        <time>2022-04-15T15:06:44.000Z</time>
      </trkpt>
      <trkpt lat="50.45229" lon="3.38256">
        <ele>18</ele>
        <time>2022-04-15T15:06:46.000Z</time>
      </trkpt>
      <trkpt lat="50.45232" lon="3.38264">
        <ele>18</ele>
        <time>2022-04-15T15:06:48.000Z</time>
      </trkpt>
      <trkpt lat="50.45234" lon="3.38273">
        <ele>18</ele>
        <time>2022-04-15T15:06:50.000Z</time>
      </trkpt>
      <trkpt lat="50.45236" lon="3.3828">
        <ele>18</ele>
        <time>2022-04-15T15:06:51.000Z</time>
      </trkpt>
      <trkpt lat="50.45238" lon="3.3829">
        <ele>18</ele>
        <time>2022-04-15T15:06:53.000Z</time>
      </trkpt>
      <trkpt lat="50.4524" lon="3.38304">
        <ele>18</ele>
        <time>2022-04-15T15:06:55.000Z</time>
      </trkpt>
      <trkpt lat="50.45241" lon="3.38314">
        <ele>18</ele>
        <time>2022-04-15T15:06:57.000Z</time>
      </trkpt>
      <trkpt lat="50.45244" lon="3.38324">
        <ele>18</ele>
        <time>2022-04-15T15:06:59.000Z</time>
      </trkpt>
      <trkpt lat="50.45246" lon="3.38336">
        <ele>18</ele>
        <time>2022-04-15T15:07:01.000Z</time>
      </trkpt>
      <trkpt lat="50.45248" lon="3.38347">
        <ele>18</ele>
        <time>2022-04-15T15:07:03.000Z</time>
      </trkpt>
      <trkpt lat="50.4525" lon="3.3836">
        <ele>18</ele>
        <time>2022-04-15T15:07:05.000Z</time>
      </trkpt>
      <trkpt lat="50.45253" lon="3.38376">
        <ele>18</ele>
        <time>2022-04-15T15:07:07.000Z</time>
      </trkpt>
      <trkpt lat="50.45256" lon="3.38383">
        <ele>18</ele>
        <time>2022-04-15T15:07:09.000Z</time>
      </trkpt>
      <trkpt lat="50.45258" lon="3.38397">
        <ele>18</ele>
        <time>2022-04-15T15:07:11.000Z</time>
      </trkpt>
      <trkpt lat="50.4526" lon="3.38408">
        <ele>18</ele>
        <time>2022-04-15T15:07:13.156Z</time>
      </trkpt>
      <trkpt lat="50.45262" lon="3.38416">
        <ele>18</ele>
        <time>2022-04-15T15:07:14.653Z</time>
      </trkpt>
      <trkpt lat="50.45266" lon="3.3843">
        <ele>18</ele>
        <time>2022-04-15T15:07:17.000Z</time>
      </trkpt>
      <trkpt lat="50.45268" lon="3.38442">
        <ele>18</ele>
        <time>2022-04-15T15:07:19.000Z</time>
      </trkpt>
      <trkpt lat="50.45269" lon="3.38453">
        <ele>18</ele>
        <time>2022-04-15T15:07:20.675Z</time>
      </trkpt>
      <trkpt lat="50.45271" lon="3.38462">
        <ele>18</ele>
        <time>2022-04-15T15:07:22.053Z</time>
      </trkpt>
      <trkpt lat="50.45272" lon="3.38475">
        <ele>18</ele>
        <time>2022-04-15T15:07:24.000Z</time>
      </trkpt>
      <trkpt lat="50.45273" lon="3.38486">
        <ele>18</ele>
        <time>2022-04-15T15:07:25.995Z</time>
      </trkpt>
      <trkpt lat="50.4527" lon="3.38494">
        <ele>18</ele>
        <time>2022-04-15T15:07:27.431Z</time>
      </trkpt>
      <trkpt lat="50.45267" lon="3.38501">
        <ele>18</ele>
        <time>2022-04-15T15:07:28.795Z</time>
      </trkpt>
      <trkpt lat="50.45264" lon="3.38507">
        <ele>18</ele>
        <time>2022-04-15T15:07:30.000Z</time>
      </trkpt>
      <trkpt lat="50.45259" lon="3.38515">
        <ele>18</ele>
        <time>2022-04-15T15:07:32.000Z</time>
      </trkpt>
      <trkpt lat="50.45251" lon="3.38527">
        <ele>18</ele>
        <time>2022-04-15T15:07:34.000Z</time>
      </trkpt>
      <trkpt lat="50.45246" lon="3.38533">
        <ele>18</ele>
        <time>2022-04-15T15:07:36.534Z</time>
      </trkpt>
      <trkpt lat="50.45243" lon="3.38542">
        <ele>18</ele>
        <time>2022-04-15T15:07:38.134Z</time>
      </trkpt>
      <trkpt lat="50.45236" lon="3.38552">
        <ele>18</ele>
        <time>2022-04-15T15:07:40.852Z</time>
      </trkpt>
      <trkpt lat="50.45233" lon="3.38557">
        <ele>18</ele>
        <time>2022-04-15T15:07:42.000Z</time>
      </trkpt>
      <trkpt lat="50.45228" lon="3.38565">
        <ele>18</ele>
        <time>2022-04-15T15:07:42.932Z</time>
      </trkpt>
      <trkpt lat="50.45224" lon="3.38572">
        <ele>18</ele>
        <time>2022-04-15T15:07:45.000Z</time>
      </trkpt>
      <trkpt lat="50.4522" lon="3.38578">
        <ele>18</ele>
        <time>2022-04-15T15:07:46.000Z</time>
      </trkpt>
      <trkpt lat="50.45214" lon="3.38586">
        <ele>18</ele>
        <time>2022-04-15T15:07:47.955Z</time>
      </trkpt>
      <trkpt lat="50.45211" lon="3.38594">
        <ele>18</ele>
        <time>2022-04-15T15:07:50.000Z</time>
      </trkpt>
      <trkpt lat="50.45207" lon="3.38602">
        <ele>18</ele>
        <time>2022-04-15T15:07:51.075Z</time>
      </trkpt>
      <trkpt lat="50.45204" lon="3.3861">
        <ele>18</ele>
        <time>2022-04-15T15:07:53.000Z</time>
      </trkpt>
      <trkpt lat="50.452" lon="3.38619">
        <ele>18</ele>
        <time>2022-04-15T15:07:55.000Z</time>
      </trkpt>
      <trkpt lat="50.45196" lon="3.3863">
        <ele>18</ele>
        <time>2022-04-15T15:07:57.000Z</time>
      </trkpt>
      <trkpt lat="50.45192" lon="3.3864">
        <ele>18</ele>
        <time>2022-04-15T15:07:59.000Z</time>
      </trkpt>
      <trkpt lat="50.45187" lon="3.38651">
        <ele>18.3</ele>
        <time>2022-04-15T15:08:01.000Z</time>
      </trkpt>
      <trkpt lat="50.45185" lon="3.38658">
        <ele>18.5</ele>
        <time>2022-04-15T15:08:03.000Z</time>
      </trkpt>
      <trkpt lat="50.45181" lon="3.38667">
        <ele>18.5</ele>
        <time>2022-04-15T15:08:05.000Z</time>
      </trkpt>
      <trkpt lat="50.45179" lon="3.38677">
        <ele>18.3</ele>
        <time>2022-04-15T15:08:07.000Z</time>
      </trkpt>
      <trkpt lat="50.45176" lon="3.38688">
        <ele>18.1</ele>
        <time>2022-04-15T15:08:08.933Z</time>
      </trkpt>
      <trkpt lat="50.45174" lon="3.38703">
        <ele>18</ele>
        <time>2022-04-15T15:08:11.000Z</time>
      </trkpt>
      <trkpt lat="50.45175" lon="3.3871">
        <ele>18</ele>
        <time>2022-04-15T15:08:12.174Z</time>
      </trkpt>
      <trkpt lat="50.4518" lon="3.38722">
        <ele>18</ele>
        <time>2022-04-15T15:08:14.565Z</time>
      </trkpt>
      <trkpt lat="50.45183" lon="3.3873">
        <ele>18</ele>
        <time>2022-04-15T15:08:15.843Z</time>
      </trkpt>
      <trkpt lat="50.45186" lon="3.38736">
        <ele>18</ele>
        <time>2022-04-15T15:08:17.087Z</time>
      </trkpt>
      <trkpt lat="50.45189" lon="3.38745">
        <ele>18</ele>
        <time>2022-04-15T15:08:18.930Z</time>
      </trkpt>
      <trkpt lat="50.4519" lon="3.38752">
        <ele>18</ele>
        <time>2022-04-15T15:08:20.000Z</time>
      </trkpt>
      <trkpt lat="50.45194" lon="3.38764">
        <ele>18</ele>
        <time>2022-04-15T15:08:22.070Z</time>
      </trkpt>
      <trkpt lat="50.45196" lon="3.38772">
        <ele>18</ele>
        <time>2022-04-15T15:08:23.270Z</time>
      </trkpt>
      <trkpt lat="50.45197" lon="3.3878">
        <ele>18</ele>
        <time>2022-04-15T15:08:24.372Z</time>
      </trkpt>
      <trkpt lat="50.45199" lon="3.38788">
        <ele>18</ele>
        <time>2022-04-15T15:08:25.611Z</time>
      </trkpt>
      <trkpt lat="50.452" lon="3.38795">
        <ele>18</ele>
        <time>2022-04-15T15:08:26.801Z</time>
      </trkpt>
      <trkpt lat="50.45201" lon="3.38811">
        <ele>18</ele>
        <time>2022-04-15T15:08:29.000Z</time>
      </trkpt>
      <trkpt lat="50.45201" lon="3.38829">
        <ele>18</ele>
        <time>2022-04-15T15:08:32.000Z</time>
      </trkpt>
      <trkpt lat="50.45202" lon="3.38843">
        <ele>18</ele>
        <time>2022-04-15T15:08:34.000Z</time>
      </trkpt>
      <trkpt lat="50.45201" lon="3.3885">
        <ele>18</ele>
        <time>2022-04-15T15:08:34.934Z</time>
      </trkpt>
      <trkpt lat="50.45201" lon="3.38858">
        <ele>18</ele>
        <time>2022-04-15T15:08:36.000Z</time>
      </trkpt>
      <trkpt lat="50.45201" lon="3.38866">
        <ele>18</ele>
        <time>2022-04-15T15:08:37.000Z</time>
      </trkpt>
      <trkpt lat="50.452" lon="3.38873">
        <ele>18</ele>
        <time>2022-04-15T15:08:38.000Z</time>
      </trkpt>
      <trkpt lat="50.45199" lon="3.3888">
        <ele>18</ele>
        <time>2022-04-15T15:08:39.000Z</time>
      </trkpt>
      <trkpt lat="50.452" lon="3.38893">
        <ele>18</ele>
        <time>2022-04-15T15:08:41.000Z</time>
      </trkpt>
      <trkpt lat="50.452" lon="3.38905">
        <ele>18</ele>
        <time>2022-04-15T15:08:42.935Z</time>
      </trkpt>
      <trkpt lat="50.45201" lon="3.38918">
        <ele>18</ele>
        <time>2022-04-15T15:08:45.000Z</time>
      </trkpt>
      <trkpt lat="50.45201" lon="3.38931">
        <ele>18</ele>
        <time>2022-04-15T15:08:47.000Z</time>
      </trkpt>
      <trkpt lat="50.45202" lon="3.38947">
        <ele>18</ele>
        <time>2022-04-15T15:08:49.615Z</time>
      </trkpt>
      <trkpt lat="50.45202" lon="3.38954">
        <ele>18</ele>
        <time>2022-04-15T15:08:50.796Z</time>
      </trkpt>
      <trkpt lat="50.45203" lon="3.38961">
        <ele>18</ele>
        <time>2022-04-15T15:08:52.007Z</time>
      </trkpt>
      <trkpt lat="50.45203" lon="3.38973">
        <ele>18</ele>
        <time>2022-04-15T15:08:54.000Z</time>
      </trkpt>
      <trkpt lat="50.45204" lon="3.38984">
        <ele>18</ele>
        <time>2022-04-15T15:08:56.000Z</time>
      </trkpt>
      <trkpt lat="50.45205" lon="3.38996">
        <ele>18</ele>
        <time>2022-04-15T15:08:58.000Z</time>
      </trkpt>
      <trkpt lat="50.45205" lon="3.39011">
        <ele>18</ele>
        <time>2022-04-15T15:09:01.000Z</time>
      </trkpt>
      <trkpt lat="50.45205" lon="3.39021">
        <ele>18</ele>
        <time>2022-04-15T15:09:03.000Z</time>
      </trkpt>
      <trkpt lat="50.45205" lon="3.39031">
        <ele>18</ele>
        <time>2022-04-15T15:09:05.000Z</time>
      </trkpt>
      <trkpt lat="50.45204" lon="3.39041">
        <ele>18</ele>
        <time>2022-04-15T15:09:07.000Z</time>
      </trkpt>
      <trkpt lat="50.45204" lon="3.3905">
        <ele>18</ele>
        <time>2022-04-15T15:09:09.000Z</time>
      </trkpt>
      <trkpt lat="50.45204" lon="3.39061">
        <ele>18.1</ele>
        <time>2022-04-15T15:09:11.000Z</time>
      </trkpt>
      <trkpt lat="50.45204" lon="3.39069">
        <ele>18.3</ele>
        <time>2022-04-15T15:09:12.948Z</time>
      </trkpt>
      <trkpt lat="50.45203" lon="3.39076">
        <ele>18.5</ele>
        <time>2022-04-15T15:09:14.000Z</time>
      </trkpt>
      <trkpt lat="50.45202" lon="3.39087">
        <ele>18.8</ele>
        <time>2022-04-15T15:09:16.000Z</time>
      </trkpt>
      <trkpt lat="50.45202" lon="3.391">
        <ele>18.9</ele>
        <time>2022-04-15T15:09:18.651Z</time>
      </trkpt>
      <trkpt lat="50.45202" lon="3.39107">
        <ele>19</ele>
        <time>2022-04-15T15:09:20.052Z</time>
      </trkpt>
      <trkpt lat="50.45202" lon="3.39115">
        <ele>19</ele>
        <time>2022-04-15T15:09:21.412Z</time>
      </trkpt>
      <trkpt lat="50.45202" lon="3.39126">
        <ele>18.9</ele>
        <time>2022-04-15T15:09:22.771Z</time>
      </trkpt>
      <trkpt lat="50.45202" lon="3.39135">
        <ele>18.8</ele>
        <time>2022-04-15T15:09:25.034Z</time>
      </trkpt>
      <trkpt lat="50.452" lon="3.39145">
        <ele>18.6</ele>
        <time>2022-04-15T15:09:27.000Z</time>
      </trkpt>
      <trkpt lat="50.452" lon="3.39156">
        <ele>18.3</ele>
        <time>2022-04-15T15:09:29.000Z</time>
      </trkpt>
      <trkpt lat="50.452" lon="3.3917">
        <ele>18.1</ele>
        <time>2022-04-15T15:09:31.000Z</time>
      </trkpt>
      <trkpt lat="50.45199" lon="3.39179">
        <ele>18.4</ele>
        <time>2022-04-15T15:09:33.043Z</time>
      </trkpt>
      <trkpt lat="50.45198" lon="3.3919">
        <ele>18.8</ele>
        <time>2022-04-15T15:09:35.011Z</time>
      </trkpt>
      <trkpt lat="50.45196" lon="3.39201">
        <ele>19</ele>
        <time>2022-04-15T15:09:37.000Z</time>
      </trkpt>
      <trkpt lat="50.45195" lon="3.39211">
        <ele>19</ele>
        <time>2022-04-15T15:09:39.000Z</time>
      </trkpt>
      <trkpt lat="50.45194" lon="3.39224">
        <ele>18.9</ele>
        <time>2022-04-15T15:09:41.014Z</time>
      </trkpt>
      <trkpt lat="50.45193" lon="3.39232">
        <ele>18.6</ele>
        <time>2022-04-15T15:09:42.000Z</time>
      </trkpt>
      <trkpt lat="50.45193" lon="3.39242">
        <ele>18.3</ele>
        <time>2022-04-15T15:09:44.000Z</time>
      </trkpt>
      <trkpt lat="50.45194" lon="3.39249">
        <ele>18</ele>
        <time>2022-04-15T15:09:45.000Z</time>
      </trkpt>
      <trkpt lat="50.4519" lon="3.39262">
        <ele>18</ele>
        <time>2022-04-15T15:09:47.934Z</time>
      </trkpt>
      <trkpt lat="50.45188" lon="3.3927">
        <ele>18</ele>
        <time>2022-04-15T15:09:49.115Z</time>
      </trkpt>
      <trkpt lat="50.45188" lon="3.39278">
        <ele>18</ele>
        <time>2022-04-15T15:09:50.935Z</time>
      </trkpt>
      <trkpt lat="50.45186" lon="3.39288">
        <ele>18</ele>
        <time>2022-04-15T15:09:52.157Z</time>
      </trkpt>
      <trkpt lat="50.45186" lon="3.39298">
        <ele>18</ele>
        <time>2022-04-15T15:09:54.095Z</time>
      </trkpt>
      <trkpt lat="50.45184" lon="3.39306">
        <ele>18</ele>
        <time>2022-04-15T15:09:55.730Z</time>
      </trkpt>
      <trkpt lat="50.45182" lon="3.39318">
        <ele>18</ele>
        <time>2022-04-15T15:09:57.671Z</time>
      </trkpt>
      <trkpt lat="50.45181" lon="3.39327">
        <ele>18</ele>
        <time>2022-04-15T15:09:59.000Z</time>
      </trkpt>
      <trkpt lat="50.45179" lon="3.39335">
        <ele>18</ele>
        <time>2022-04-15T15:10:01.000Z</time>
      </trkpt>
      <trkpt lat="50.45177" lon="3.39344">
        <ele>18.1</ele>
        <time>2022-04-15T15:10:02.934Z</time>
      </trkpt>
      <trkpt lat="50.45175" lon="3.39351">
        <ele>18.2</ele>
        <time>2022-04-15T15:10:04.015Z</time>
      </trkpt>
      <trkpt lat="50.45171" lon="3.39361">
        <ele>18.2</ele>
        <time>2022-04-15T15:10:06.000Z</time>
      </trkpt>
      <trkpt lat="50.45168" lon="3.39369">
        <ele>18.3</ele>
        <time>2022-04-15T15:10:07.750Z</time>
      </trkpt>
      <trkpt lat="50.45166" lon="3.39377">
        <ele>18.6</ele>
        <time>2022-04-15T15:10:09.156Z</time>
      </trkpt>
      <trkpt lat="50.45163" lon="3.39394">
        <ele>18.7</ele>
        <time>2022-04-15T15:10:12.000Z</time>
      </trkpt>
      <trkpt lat="50.45162" lon="3.39404">
        <ele>18.4</ele>
        <time>2022-04-15T15:10:13.000Z</time>
      </trkpt>
      <trkpt lat="50.45161" lon="3.39411">
        <ele>18.2</ele>
        <time>2022-04-15T15:10:15.000Z</time>
      </trkpt>
      <trkpt lat="50.45161" lon="3.39418">
        <ele>18</ele>
        <time>2022-04-15T15:10:16.000Z</time>
      </trkpt>
      <trkpt lat="50.4516" lon="3.39427">
        <ele>18</ele>
        <time>2022-04-15T15:10:18.000Z</time>
      </trkpt>
      <trkpt lat="50.45159" lon="3.39435">
        <ele>18</ele>
        <time>2022-04-15T15:10:19.000Z</time>
      </trkpt>
      <trkpt lat="50.4516" lon="3.39445">
        <ele>18</ele>
        <time>2022-04-15T15:10:21.000Z</time>
      </trkpt>
      <trkpt lat="50.4516" lon="3.39455">
        <ele>18</ele>
        <time>2022-04-15T15:10:23.000Z</time>
      </trkpt>
      <trkpt lat="50.45163" lon="3.39466">
        <ele>18</ele>
        <time>2022-04-15T15:10:25.000Z</time>
      </trkpt>
      <trkpt lat="50.45165" lon="3.3948">
        <ele>18</ele>
        <time>2022-04-15T15:10:27.000Z</time>
      </trkpt>
      <trkpt lat="50.45166" lon="3.39487">
        <ele>18</ele>
        <time>2022-04-15T15:10:28.054Z</time>
      </trkpt>
      <trkpt lat="50.45168" lon="3.395">
        <ele>18</ele>
        <time>2022-04-15T15:10:30.000Z</time>
      </trkpt>
      <trkpt lat="50.4517" lon="3.3951">
        <ele>18</ele>
        <time>2022-04-15T15:10:32.000Z</time>
      </trkpt>
      <trkpt lat="50.45172" lon="3.39516">
        <ele>18</ele>
        <time>2022-04-15T15:10:34.000Z</time>
      </trkpt>
      <trkpt lat="50.45173" lon="3.39525">
        <ele>18</ele>
        <time>2022-04-15T15:10:36.000Z</time>
      </trkpt>
      <trkpt lat="50.45175" lon="3.39534">
        <ele>18</ele>
        <time>2022-04-15T15:10:38.000Z</time>
      </trkpt>
      <trkpt lat="50.45177" lon="3.39546">
        <ele>18</ele>
        <time>2022-04-15T15:10:40.000Z</time>
      </trkpt>
      <trkpt lat="50.45179" lon="3.39559">
        <ele>18</ele>
        <time>2022-04-15T15:10:42.411Z</time>
      </trkpt>
      <trkpt lat="50.4518" lon="3.39566">
        <ele>18</ele>
        <time>2022-04-15T15:10:44.000Z</time>
      </trkpt>
      <trkpt lat="50.45181" lon="3.39578">
        <ele>18</ele>
        <time>2022-04-15T15:10:46.000Z</time>
      </trkpt>
      <trkpt lat="50.45182" lon="3.39589">
        <ele>18</ele>
        <time>2022-04-15T15:10:48.000Z</time>
      </trkpt>
      <trkpt lat="50.45183" lon="3.396">
        <ele>18</ele>
        <time>2022-04-15T15:10:50.000Z</time>
      </trkpt>
      <trkpt lat="50.45184" lon="3.3961">
        <ele>18</ele>
        <time>2022-04-15T15:10:52.000Z</time>
      </trkpt>
      <trkpt lat="50.45185" lon="3.39621">
        <ele>18</ele>
        <time>2022-04-15T15:10:54.000Z</time>
      </trkpt>
      <trkpt lat="50.45185" lon="3.39631">
        <ele>18</ele>
        <time>2022-04-15T15:10:56.000Z</time>
      </trkpt>
      <trkpt lat="50.45186" lon="3.39643">
        <ele>18</ele>
        <time>2022-04-15T15:10:58.093Z</time>
      </trkpt>
      <trkpt lat="50.45186" lon="3.39653">
        <ele>18</ele>
        <time>2022-04-15T15:11:00.000Z</time>
      </trkpt>
      <trkpt lat="50.45187" lon="3.3966">
        <ele>18</ele>
        <time>2022-04-15T15:11:01.214Z</time>
      </trkpt>
      <trkpt lat="50.45187" lon="3.3967">
        <ele>18</ele>
        <time>2022-04-15T15:11:03.000Z</time>
      </trkpt>
      <trkpt lat="50.45188" lon="3.39682">
        <ele>18</ele>
        <time>2022-04-15T15:11:05.000Z</time>
      </trkpt>
      <trkpt lat="50.45188" lon="3.39692">
        <ele>18</ele>
        <time>2022-04-15T15:11:07.000Z</time>
      </trkpt>
      <trkpt lat="50.45188" lon="3.39703">
        <ele>18</ele>
        <time>2022-04-15T15:11:10.000Z</time>
      </trkpt>
      <trkpt lat="50.45189" lon="3.39711">
        <ele>18</ele>
        <time>2022-04-15T15:11:13.000Z</time>
      </trkpt>
      <trkpt lat="50.45195" lon="3.39714">
        <ele>18</ele>
        <time>2022-04-15T15:11:16.000Z</time>
      </trkpt>
      <trkpt lat="50.45202" lon="3.39709">
        <ele>18</ele>
        <time>2022-04-15T15:11:18.000Z</time>
      </trkpt>
      <trkpt lat="50.4521" lon="3.39705">
        <ele>18</ele>
        <time>2022-04-15T15:11:20.039Z</time>
      </trkpt>
      <trkpt lat="50.45214" lon="3.397">
        <ele>18</ele>
        <time>2022-04-15T15:11:21.000Z</time>
      </trkpt>
      <trkpt lat="50.45222" lon="3.39695">
        <ele>18</ele>
        <time>2022-04-15T15:11:23.000Z</time>
      </trkpt>
      <trkpt lat="50.4523" lon="3.3969">
        <ele>18.4</ele>
        <time>2022-04-15T15:11:25.000Z</time>
      </trkpt>
      <trkpt lat="50.45238" lon="3.39685">
        <ele>18.5</ele>
        <time>2022-04-15T15:11:27.000Z</time>
      </trkpt>
      <trkpt lat="50.45245" lon="3.39679">
        <ele>18.5</ele>
        <time>2022-04-15T15:11:29.000Z</time>
      </trkpt>
      <trkpt lat="50.45249" lon="3.39675">
        <ele>18.3</ele>
        <time>2022-04-15T15:11:30.000Z</time>
      </trkpt>
      <trkpt lat="50.45253" lon="3.3967">
        <ele>18.2</ele>
        <time>2022-04-15T15:11:31.000Z</time>
      </trkpt>
      <trkpt lat="50.45257" lon="3.39664">
        <ele>18.3</ele>
        <time>2022-04-15T15:11:32.000Z</time>
      </trkpt>
      <trkpt lat="50.4526" lon="3.3966">
        <ele>18.5</ele>
        <time>2022-04-15T15:11:33.000Z</time>
      </trkpt>
      <trkpt lat="50.45264" lon="3.39656">
        <ele>18.7</ele>
        <time>2022-04-15T15:11:34.000Z</time>
      </trkpt>
      <trkpt lat="50.45268" lon="3.39651">
        <ele>18.8</ele>
        <time>2022-04-15T15:11:35.000Z</time>
      </trkpt>
      <trkpt lat="50.45272" lon="3.39647">
        <ele>18.9</ele>
        <time>2022-04-15T15:11:36.000Z</time>
      </trkpt>
      <trkpt lat="50.45276" lon="3.39642">
        <ele>19</ele>
        <time>2022-04-15T15:11:37.000Z</time>
      </trkpt>
      <trkpt lat="50.45279" lon="3.39637">
        <ele>19</ele>
        <time>2022-04-15T15:11:38.000Z</time>
      </trkpt>
      <trkpt lat="50.45287" lon="3.39629">
        <ele>19</ele>
        <time>2022-04-15T15:11:40.000Z</time>
      </trkpt>
      <trkpt lat="50.4529" lon="3.39624">
        <ele>19</ele>
        <time>2022-04-15T15:11:41.000Z</time>
      </trkpt>
      <trkpt lat="50.45294" lon="3.39619">
        <ele>19</ele>
        <time>2022-04-15T15:11:42.000Z</time>
      </trkpt>
      <trkpt lat="50.45298" lon="3.39614">
        <ele>19</ele>
        <time>2022-04-15T15:11:43.000Z</time>
      </trkpt>
      <trkpt lat="50.45304" lon="3.39604">
        <ele>19</ele>
        <time>2022-04-15T15:11:45.000Z</time>
      </trkpt>
      <trkpt lat="50.4531" lon="3.39595">
        <ele>18.8</ele>
        <time>2022-04-15T15:11:47.000Z</time>
      </trkpt>
      <trkpt lat="50.45317" lon="3.39584">
        <ele>18.6</ele>
        <time>2022-04-15T15:11:49.000Z</time>
      </trkpt>
      <trkpt lat="50.4532" lon="3.39578">
        <ele>18.5</ele>
        <time>2022-04-15T15:11:50.000Z</time>
      </trkpt>
      <trkpt lat="50.45325" lon="3.39569">
        <ele>18.3</ele>
        <time>2022-04-15T15:11:52.000Z</time>
      </trkpt>
      <trkpt lat="50.45328" lon="3.39563">
        <ele>18.2</ele>
        <time>2022-04-15T15:11:53.000Z</time>
      </trkpt>
      <trkpt lat="50.45331" lon="3.39557">
        <ele>18.1</ele>
        <time>2022-04-15T15:11:54.000Z</time>
      </trkpt>
      <trkpt lat="50.45335" lon="3.39549">
        <ele>18</ele>
        <time>2022-04-15T15:11:55.000Z</time>
      </trkpt>
      <trkpt lat="50.45343" lon="3.39543">
        <ele>18</ele>
        <time>2022-04-15T15:11:57.000Z</time>
      </trkpt>
      <trkpt lat="50.45352" lon="3.39551">
        <ele>18</ele>
        <time>2022-04-15T15:11:59.000Z</time>
      </trkpt>
      <trkpt lat="50.45356" lon="3.39559">
        <ele>18</ele>
        <time>2022-04-15T15:12:00.000Z</time>
      </trkpt>
      <trkpt lat="50.4536" lon="3.39566">
        <ele>18</ele>
        <time>2022-04-15T15:12:01.000Z</time>
      </trkpt>
      <trkpt lat="50.45363" lon="3.39573">
        <ele>18</ele>
        <time>2022-04-15T15:12:02.000Z</time>
      </trkpt>
      <trkpt lat="50.45366" lon="3.39579">
        <ele>18</ele>
        <time>2022-04-15T15:12:03.000Z</time>
      </trkpt>
      <trkpt lat="50.45369" lon="3.39585">
        <ele>18</ele>
        <time>2022-04-15T15:12:04.000Z</time>
      </trkpt>
      <trkpt lat="50.45374" lon="3.39594">
        <ele>18</ele>
        <time>2022-04-15T15:12:06.000Z</time>
      </trkpt>
      <trkpt lat="50.4538" lon="3.39602">
        <ele>18</ele>
        <time>2022-04-15T15:12:07.978Z</time>
      </trkpt>
      <trkpt lat="50.45383" lon="3.39608">
        <ele>18</ele>
        <time>2022-04-15T15:12:09.000Z</time>
      </trkpt>
      <trkpt lat="50.45386" lon="3.39613">
        <ele>18</ele>
        <time>2022-04-15T15:12:10.000Z</time>
      </trkpt>
      <trkpt lat="50.45389" lon="3.39618">
        <ele>18</ele>
        <time>2022-04-15T15:12:11.036Z</time>
      </trkpt>
      <trkpt lat="50.45392" lon="3.39625">
        <ele>17.9</ele>
        <time>2022-04-15T15:12:12.060Z</time>
      </trkpt>
      <trkpt lat="50.45397" lon="3.39634">
        <ele>17.7</ele>
        <time>2022-04-15T15:12:13.917Z</time>
      </trkpt>
      <trkpt lat="50.45402" lon="3.39644">
        <ele>17.6</ele>
        <time>2022-04-15T15:12:16.137Z</time>
      </trkpt>
      <trkpt lat="50.45407" lon="3.39656">
        <ele>17.7</ele>
        <time>2022-04-15T15:12:18.758Z</time>
      </trkpt>
      <trkpt lat="50.45411" lon="3.39661">
        <ele>17.8</ele>
        <time>2022-04-15T15:12:20.000Z</time>
      </trkpt>
      <trkpt lat="50.45417" lon="3.39671">
        <ele>18</ele>
        <time>2022-04-15T15:12:22.000Z</time>
      </trkpt>
      <trkpt lat="50.4542" lon="3.39677">
        <ele>18</ele>
        <time>2022-04-15T15:12:23.157Z</time>
      </trkpt>
      <trkpt lat="50.45424" lon="3.39684">
        <ele>18</ele>
        <time>2022-04-15T15:12:25.039Z</time>
      </trkpt>
      <trkpt lat="50.45428" lon="3.39693">
        <ele>18</ele>
        <time>2022-04-15T15:12:27.000Z</time>
      </trkpt>
      <trkpt lat="50.45432" lon="3.397">
        <ele>18</ele>
        <time>2022-04-15T15:12:28.566Z</time>
      </trkpt>
      <trkpt lat="50.45437" lon="3.39708">
        <ele>18</ele>
        <time>2022-04-15T15:12:29.963Z</time>
      </trkpt>
      <trkpt lat="50.45442" lon="3.39718">
        <ele>18</ele>
        <time>2022-04-15T15:12:32.000Z</time>
      </trkpt>
      <trkpt lat="50.45445" lon="3.39723">
        <ele>18</ele>
        <time>2022-04-15T15:12:33.000Z</time>
      </trkpt>
      <trkpt lat="50.45449" lon="3.3973">
        <ele>18</ele>
        <time>2022-04-15T15:12:34.600Z</time>
      </trkpt>
      <trkpt lat="50.45453" lon="3.39737">
        <ele>18</ele>
        <time>2022-04-15T15:12:35.737Z</time>
      </trkpt>
      <trkpt lat="50.45457" lon="3.39748">
        <ele>18</ele>
        <time>2022-04-15T15:12:37.841Z</time>
      </trkpt>
      <trkpt lat="50.4546" lon="3.39755">
        <ele>18</ele>
        <time>2022-04-15T15:12:39.000Z</time>
      </trkpt>
      <trkpt lat="50.45463" lon="3.39767">
        <ele>18</ele>
        <time>2022-04-15T15:12:41.000Z</time>
      </trkpt>
      <trkpt lat="50.45468" lon="3.39778">
        <ele>18</ele>
        <time>2022-04-15T15:12:43.000Z</time>
      </trkpt>
      <trkpt lat="50.45471" lon="3.39787">
        <ele>18</ele>
        <time>2022-04-15T15:12:44.456Z</time>
      </trkpt>
      <trkpt lat="50.45475" lon="3.39795">
        <ele>18</ele>
        <time>2022-04-15T15:12:45.760Z</time>
      </trkpt>
      <trkpt lat="50.45478" lon="3.39802">
        <ele>18</ele>
        <time>2022-04-15T15:12:47.078Z</time>
      </trkpt>
      <trkpt lat="50.4548" lon="3.39809">
        <ele>18</ele>
        <time>2022-04-15T15:12:48.078Z</time>
      </trkpt>
      <trkpt lat="50.45482" lon="3.39816">
        <ele>18</ele>
        <time>2022-04-15T15:12:49.158Z</time>
      </trkpt>
      <trkpt lat="50.45486" lon="3.39825">
        <ele>18</ele>
        <time>2022-04-15T15:12:50.737Z</time>
      </trkpt>
      <trkpt lat="50.45489" lon="3.39833">
        <ele>18</ele>
        <time>2022-04-15T15:12:52.000Z</time>
      </trkpt>
      <trkpt lat="50.45494" lon="3.39844">
        <ele>18</ele>
        <time>2022-04-15T15:12:54.000Z</time>
      </trkpt>
      <trkpt lat="50.45497" lon="3.39852">
        <ele>18</ele>
        <time>2022-04-15T15:12:56.265Z</time>
      </trkpt>
      <trkpt lat="50.45501" lon="3.39866">
        <ele>18</ele>
        <time>2022-04-15T15:12:57.898Z</time>
      </trkpt>
      <trkpt lat="50.45504" lon="3.39876">
        <ele>18</ele>
        <time>2022-04-15T15:12:59.000Z</time>
      </trkpt>
      <trkpt lat="50.45508" lon="3.39889">
        <ele>18</ele>
        <time>2022-04-15T15:13:01.000Z</time>
      </trkpt>
      <trkpt lat="50.45511" lon="3.39896">
        <ele>18</ele>
        <time>2022-04-15T15:13:02.000Z</time>
      </trkpt>
      <trkpt lat="50.45514" lon="3.39903">
        <ele>18</ele>
        <time>2022-04-15T15:13:04.956Z</time>
      </trkpt>
      <trkpt lat="50.45517" lon="3.39917">
        <ele>18</ele>
        <time>2022-04-15T15:13:06.410Z</time>
      </trkpt>
      <trkpt lat="50.4552" lon="3.39925">
        <ele>18</ele>
        <time>2022-04-15T15:13:07.453Z</time>
      </trkpt>
      <trkpt lat="50.45522" lon="3.39933">
        <ele>18</ele>
        <time>2022-04-15T15:13:08.419Z</time>
      </trkpt>
      <trkpt lat="50.45526" lon="3.39946">
        <ele>18</ele>
        <time>2022-04-15T15:13:10.530Z</time>
      </trkpt>
      <trkpt lat="50.45528" lon="3.39953">
        <ele>18</ele>
        <time>2022-04-15T15:13:11.673Z</time>
      </trkpt>
      <trkpt lat="50.45532" lon="3.39963">
        <ele>18</ele>
        <time>2022-04-15T15:13:13.000Z</time>
      </trkpt>
      <trkpt lat="50.45533" lon="3.3997">
        <ele>18</ele>
        <time>2022-04-15T15:13:14.334Z</time>
      </trkpt>
      <trkpt lat="50.45534" lon="3.39978">
        <ele>18</ele>
        <time>2022-04-15T15:13:15.472Z</time>
      </trkpt>
      <trkpt lat="50.45535" lon="3.39987">
        <ele>18</ele>
        <time>2022-04-15T15:13:17.000Z</time>
      </trkpt>
      <trkpt lat="50.45538" lon="3.40005">
        <ele>18</ele>
        <time>2022-04-15T15:13:19.814Z</time>
      </trkpt>
      <trkpt lat="50.45539" lon="3.40013">
        <ele>18</ele>
        <time>2022-04-15T15:13:21.000Z</time>
      </trkpt>
      <trkpt lat="50.45542" lon="3.40029">
        <ele>18</ele>
        <time>2022-04-15T15:13:23.714Z</time>
      </trkpt>
      <trkpt lat="50.45545" lon="3.4004">
        <ele>18</ele>
        <time>2022-04-15T15:13:25.753Z</time>
      </trkpt>
      <trkpt lat="50.45547" lon="3.40051">
        <ele>18</ele>
        <time>2022-04-15T15:13:28.000Z</time>
      </trkpt>
      <trkpt lat="50.45552" lon="3.40063">
        <ele>18</ele>
        <time>2022-04-15T15:13:30.518Z</time>
      </trkpt>
      <trkpt lat="50.45556" lon="3.40074">
        <ele>18</ele>
        <time>2022-04-15T15:13:32.907Z</time>
      </trkpt>
      <trkpt lat="50.45562" lon="3.40087">
        <ele>18</ele>
        <time>2022-04-15T15:13:36.000Z</time>
      </trkpt>
      <trkpt lat="50.45565" lon="3.40095">
        <ele>17.9</ele>
        <time>2022-04-15T15:13:38.000Z</time>
      </trkpt>
      <trkpt lat="50.45569" lon="3.40104">
        <ele>17.6</ele>
        <time>2022-04-15T15:13:40.000Z</time>
      </trkpt>
      <trkpt lat="50.45574" lon="3.40112">
        <ele>17.3</ele>
        <time>2022-04-15T15:13:42.000Z</time>
      </trkpt>
      <trkpt lat="50.4558" lon="3.4012">
        <ele>17.1</ele>
        <time>2022-04-15T15:13:44.000Z</time>
      </trkpt>
      <trkpt lat="50.45583" lon="3.40125">
        <ele>17</ele>
        <time>2022-04-15T15:13:45.338Z</time>
      </trkpt>
      <trkpt lat="50.45587" lon="3.40132">
        <ele>17</ele>
        <time>2022-04-15T15:13:46.871Z</time>
      </trkpt>
      <trkpt lat="50.45589" lon="3.40138">
        <ele>17</ele>
        <time>2022-04-15T15:13:48.000Z</time>
      </trkpt>
      <trkpt lat="50.45594" lon="3.40148">
        <ele>17</ele>
        <time>2022-04-15T15:13:50.000Z</time>
      </trkpt>
      <trkpt lat="50.45597" lon="3.40155">
        <ele>17</ele>
        <time>2022-04-15T15:13:51.000Z</time>
      </trkpt>
      <trkpt lat="50.45599" lon="3.40162">
        <ele>17</ele>
        <time>2022-04-15T15:13:53.000Z</time>
      </trkpt>
      <trkpt lat="50.45603" lon="3.4017">
        <ele>17</ele>
        <time>2022-04-15T15:13:54.713Z</time>
      </trkpt>
      <trkpt lat="50.45605" lon="3.40177">
        <ele>17</ele>
        <time>2022-04-15T15:13:55.791Z</time>
      </trkpt>
      <trkpt lat="50.45607" lon="3.40184">
        <ele>17</ele>
        <time>2022-04-15T15:13:56.913Z</time>
      </trkpt>
      <trkpt lat="50.45611" lon="3.40195">
        <ele>17</ele>
        <time>2022-04-15T15:13:58.971Z</time>
      </trkpt>
      <trkpt lat="50.45613" lon="3.40202">
        <ele>17</ele>
        <time>2022-04-15T15:14:01.113Z</time>
      </trkpt>
      <trkpt lat="50.45615" lon="3.4021">
        <ele>17</ele>
        <time>2022-04-15T15:14:02.673Z</time>
      </trkpt>
      <trkpt lat="50.45619" lon="3.40221">
        <ele>17</ele>
        <time>2022-04-15T15:14:04.596Z</time>
      </trkpt>
      <trkpt lat="50.45622" lon="3.40233">
        <ele>17</ele>
        <time>2022-04-15T15:14:06.710Z</time>
      </trkpt>
      <trkpt lat="50.45625" lon="3.40241">
        <ele>17</ele>
        <time>2022-04-15T15:14:08.234Z</time>
      </trkpt>
      <trkpt lat="50.45628" lon="3.40247">
        <ele>17</ele>
        <time>2022-04-15T15:14:10.000Z</time>
      </trkpt>
      <trkpt lat="50.45633" lon="3.40266">
        <ele>17.1</ele>
        <time>2022-04-15T15:14:13.000Z</time>
      </trkpt>
      <trkpt lat="50.45637" lon="3.40274">
        <ele>17.1</ele>
        <time>2022-04-15T15:14:15.440Z</time>
      </trkpt>
      <trkpt lat="50.45641" lon="3.40285">
        <ele>17</ele>
        <time>2022-04-15T15:14:17.149Z</time>
      </trkpt>
      <trkpt lat="50.45644" lon="3.40293">
        <ele>17</ele>
        <time>2022-04-15T15:14:18.772Z</time>
      </trkpt>
      <trkpt lat="50.45647" lon="3.40303">
        <ele>17</ele>
        <time>2022-04-15T15:14:21.000Z</time>
      </trkpt>
      <trkpt lat="50.4565" lon="3.40309">
        <ele>17.1</ele>
        <time>2022-04-15T15:14:21.933Z</time>
      </trkpt>
      <trkpt lat="50.45652" lon="3.40316">
        <ele>17.2</ele>
        <time>2022-04-15T15:14:23.633Z</time>
      </trkpt>
      <trkpt lat="50.45656" lon="3.40329">
        <ele>17.3</ele>
        <time>2022-04-15T15:14:26.000Z</time>
      </trkpt>
      <trkpt lat="50.45658" lon="3.40336">
        <ele>17.3</ele>
        <time>2022-04-15T15:14:27.000Z</time>
      </trkpt>
      <trkpt lat="50.45661" lon="3.40345">
        <ele>17.2</ele>
        <time>2022-04-15T15:14:30.000Z</time>
      </trkpt>
      <trkpt lat="50.45666" lon="3.40355">
        <ele>17</ele>
        <time>2022-04-15T15:14:32.694Z</time>
      </trkpt>
      <trkpt lat="50.45669" lon="3.40362">
        <ele>17</ele>
        <time>2022-04-15T15:14:33.993Z</time>
      </trkpt>
      <trkpt lat="50.45673" lon="3.40372">
        <ele>17</ele>
        <time>2022-04-15T15:14:36.000Z</time>
      </trkpt>
      <trkpt lat="50.45678" lon="3.40382">
        <ele>17</ele>
        <time>2022-04-15T15:14:38.113Z</time>
      </trkpt>
      <trkpt lat="50.45681" lon="3.40388">
        <ele>17</ele>
        <time>2022-04-15T15:14:39.694Z</time>
      </trkpt>
      <trkpt lat="50.45686" lon="3.40399">
        <ele>17.1</ele>
        <time>2022-04-15T15:14:42.244Z</time>
      </trkpt>
      <trkpt lat="50.45691" lon="3.40411">
        <ele>17.1</ele>
        <time>2022-04-15T15:14:45.000Z</time>
      </trkpt>
      <trkpt lat="50.45696" lon="3.40419">
        <ele>17</ele>
        <time>2022-04-15T15:14:46.973Z</time>
      </trkpt>
      <trkpt lat="50.457" lon="3.40426">
        <ele>17</ele>
        <time>2022-04-15T15:14:48.293Z</time>
      </trkpt>
      <trkpt lat="50.45704" lon="3.40435">
        <ele>17</ele>
        <time>2022-04-15T15:14:50.770Z</time>
      </trkpt>
      <trkpt lat="50.45709" lon="3.40442">
        <ele>17</ele>
        <time>2022-04-15T15:14:52.875Z</time>
      </trkpt>
      <trkpt lat="50.45713" lon="3.40451">
        <ele>17.2</ele>
        <time>2022-04-15T15:14:55.073Z</time>
      </trkpt>
      <trkpt lat="50.45717" lon="3.40459">
        <ele>17.5</ele>
        <time>2022-04-15T15:14:57.000Z</time>
      </trkpt>
      <trkpt lat="50.45721" lon="3.40466">
        <ele>17.8</ele>
        <time>2022-04-15T15:14:59.000Z</time>
      </trkpt>
      <trkpt lat="50.45725" lon="3.40475">
        <ele>18</ele>
        <time>2022-04-15T15:15:00.813Z</time>
      </trkpt>
      <trkpt lat="50.45729" lon="3.40482">
        <ele>18</ele>
        <time>2022-04-15T15:15:02.948Z</time>
      </trkpt>
      <trkpt lat="50.45734" lon="3.40493">
        <ele>18</ele>
        <time>2022-04-15T15:15:06.000Z</time>
      </trkpt>
      <trkpt lat="50.45738" lon="3.40499">
        <ele>18</ele>
        <time>2022-04-15T15:15:08.000Z</time>
      </trkpt>
      <trkpt lat="50.45742" lon="3.40508">
        <ele>18</ele>
        <time>2022-04-15T15:15:10.000Z</time>
      </trkpt>
      <trkpt lat="50.45747" lon="3.40516">
        <ele>18</ele>
        <time>2022-04-15T15:15:11.958Z</time>
      </trkpt>
      <trkpt lat="50.45753" lon="3.40527">
        <ele>17.9</ele>
        <time>2022-04-15T15:15:14.091Z</time>
      </trkpt>
      <trkpt lat="50.45759" lon="3.40539">
        <ele>17.7</ele>
        <time>2022-04-15T15:15:16.000Z</time>
      </trkpt>
      <trkpt lat="50.45764" lon="3.4055">
        <ele>17.5</ele>
        <time>2022-04-15T15:15:18.595Z</time>
      </trkpt>
      <trkpt lat="50.45769" lon="3.40556">
        <ele>17.3</ele>
        <time>2022-04-15T15:15:20.000Z</time>
      </trkpt>
      <trkpt lat="50.45773" lon="3.40564">
        <ele>17.2</ele>
        <time>2022-04-15T15:15:21.915Z</time>
      </trkpt>
      <trkpt lat="50.45778" lon="3.40576">
        <ele>17</ele>
        <time>2022-04-15T15:15:24.051Z</time>
      </trkpt>
      <trkpt lat="50.45783" lon="3.40584">
        <ele>17</ele>
        <time>2022-04-15T15:15:26.000Z</time>
      </trkpt>
      <trkpt lat="50.45787" lon="3.40592">
        <ele>17</ele>
        <time>2022-04-15T15:15:28.000Z</time>
      </trkpt>
      <trkpt lat="50.45793" lon="3.40602">
        <ele>17</ele>
        <time>2022-04-15T15:15:30.091Z</time>
      </trkpt>
      <trkpt lat="50.45801" lon="3.40615">
        <ele>17</ele>
        <time>2022-04-15T15:15:33.000Z</time>
      </trkpt>
      <trkpt lat="50.45806" lon="3.40623">
        <ele>17</ele>
        <time>2022-04-15T15:15:35.000Z</time>
      </trkpt>
      <trkpt lat="50.4581" lon="3.4063">
        <ele>17.1</ele>
        <time>2022-04-15T15:15:37.000Z</time>
      </trkpt>
      <trkpt lat="50.45812" lon="3.40636">
        <ele>17.2</ele>
        <time>2022-04-15T15:15:39.000Z</time>
      </trkpt>
      <trkpt lat="50.45815" lon="3.40642">
        <ele>17.3</ele>
        <time>2022-04-15T15:15:47.035Z</time>
      </trkpt>
      <trkpt lat="50.45821" lon="3.40637">
        <ele>17.5</ele>
        <time>2022-04-15T15:15:50.000Z</time>
      </trkpt>
      <trkpt lat="50.45826" lon="3.40634">
        <ele>17.6</ele>
        <time>2022-04-15T15:15:51.000Z</time>
      </trkpt>
      <trkpt lat="50.45833" lon="3.40627">
        <ele>17.6</ele>
        <time>2022-04-15T15:15:53.000Z</time>
      </trkpt>
      <trkpt lat="50.45838" lon="3.40623">
        <ele>17.4</ele>
        <time>2022-04-15T15:15:54.000Z</time>
      </trkpt>
      <trkpt lat="50.45846" lon="3.40617">
        <ele>17.1</ele>
        <time>2022-04-15T15:15:56.000Z</time>
      </trkpt>
      <trkpt lat="50.45853" lon="3.4061">
        <ele>17</ele>
        <time>2022-04-15T15:15:57.952Z</time>
      </trkpt>
      <trkpt lat="50.45857" lon="3.40606">
        <ele>17</ele>
        <time>2022-04-15T15:15:58.911Z</time>
      </trkpt>
      <trkpt lat="50.45861" lon="3.40603">
        <ele>17</ele>
        <time>2022-04-15T15:15:59.894Z</time>
      </trkpt>
      <trkpt lat="50.45869" lon="3.40595">
        <ele>17.3</ele>
        <time>2022-04-15T15:16:02.000Z</time>
      </trkpt>
      <trkpt lat="50.45876" lon="3.4059">
        <ele>17.5</ele>
        <time>2022-04-15T15:16:04.000Z</time>
      </trkpt>
      <trkpt lat="50.45882" lon="3.40584">
        <ele>17.8</ele>
        <time>2022-04-15T15:16:06.000Z</time>
      </trkpt>
      <trkpt lat="50.45889" lon="3.40576">
        <ele>17.7</ele>
        <time>2022-04-15T15:16:08.000Z</time>
      </trkpt>
      <trkpt lat="50.45897" lon="3.40571">
        <ele>17.4</ele>
        <time>2022-04-15T15:16:10.133Z</time>
      </trkpt>
      <trkpt lat="50.45904" lon="3.40566">
        <ele>17.2</ele>
        <time>2022-04-15T15:16:11.630Z</time>
      </trkpt>
      <trkpt lat="50.4591" lon="3.40561">
        <ele>17</ele>
        <time>2022-04-15T15:16:13.000Z</time>
      </trkpt>
      <trkpt lat="50.45916" lon="3.40555">
        <ele>17</ele>
        <time>2022-04-15T15:16:15.009Z</time>
      </trkpt>
      <trkpt lat="50.45927" lon="3.40544">
        <ele>17</ele>
        <time>2022-04-15T15:16:17.916Z</time>
      </trkpt>
      <trkpt lat="50.4593" lon="3.40539">
        <ele>17</ele>
        <time>2022-04-15T15:16:18.876Z</time>
      </trkpt>
      <trkpt lat="50.45934" lon="3.40536">
        <ele>17</ele>
        <time>2022-04-15T15:16:20.000Z</time>
      </trkpt>
      <trkpt lat="50.45943" lon="3.40529">
        <ele>17</ele>
        <time>2022-04-15T15:16:22.098Z</time>
      </trkpt>
      <trkpt lat="50.4595" lon="3.40522">
        <ele>17</ele>
        <time>2022-04-15T15:16:24.000Z</time>
      </trkpt>
      <trkpt lat="50.45958" lon="3.40514">
        <ele>17</ele>
        <time>2022-04-15T15:16:26.000Z</time>
      </trkpt>
      <trkpt lat="50.45963" lon="3.40509">
        <ele>17</ele>
        <time>2022-04-15T15:16:27.000Z</time>
      </trkpt>
      <trkpt lat="50.45967" lon="3.40505">
        <ele>17</ele>
        <time>2022-04-15T15:16:28.000Z</time>
      </trkpt>
      <trkpt lat="50.45972" lon="3.405">
        <ele>17</ele>
        <time>2022-04-15T15:16:29.000Z</time>
      </trkpt>
      <trkpt lat="50.45976" lon="3.40496">
        <ele>17</ele>
        <time>2022-04-15T15:16:30.000Z</time>
      </trkpt>
      <trkpt lat="50.45985" lon="3.40487">
        <ele>17</ele>
        <time>2022-04-15T15:16:32.000Z</time>
      </trkpt>
      <trkpt lat="50.45989" lon="3.40483">
        <ele>17</ele>
        <time>2022-04-15T15:16:33.000Z</time>
      </trkpt>
      <trkpt lat="50.45993" lon="3.40478">
        <ele>17</ele>
        <time>2022-04-15T15:16:34.000Z</time>
      </trkpt>
      <trkpt lat="50.45996" lon="3.40474">
        <ele>17</ele>
        <time>2022-04-15T15:16:35.000Z</time>
      </trkpt>
      <trkpt lat="50.46" lon="3.40469">
        <ele>17</ele>
        <time>2022-04-15T15:16:36.000Z</time>
      </trkpt>
      <trkpt lat="50.46004" lon="3.40464">
        <ele>17</ele>
        <time>2022-04-15T15:16:37.000Z</time>
      </trkpt>
      <trkpt lat="50.46009" lon="3.40459">
        <ele>17</ele>
        <time>2022-04-15T15:16:38.000Z</time>
      </trkpt>
      <trkpt lat="50.46017" lon="3.4045">
        <ele>17</ele>
        <time>2022-04-15T15:16:40.000Z</time>
      </trkpt>
      <trkpt lat="50.46024" lon="3.40442">
        <ele>17</ele>
        <time>2022-04-15T15:16:42.000Z</time>
      </trkpt>
      <trkpt lat="50.46031" lon="3.40433">
        <ele>17</ele>
        <time>2022-04-15T15:16:44.000Z</time>
      </trkpt>
      <trkpt lat="50.46037" lon="3.40422">
        <ele>17.3</ele>
        <time>2022-04-15T15:16:46.000Z</time>
      </trkpt>
      <trkpt lat="50.4604" lon="3.40417">
        <ele>17.4</ele>
        <time>2022-04-15T15:16:47.000Z</time>
      </trkpt>
      <trkpt lat="50.46047" lon="3.40406">
        <ele>17.7</ele>
        <time>2022-04-15T15:16:49.000Z</time>
      </trkpt>
      <trkpt lat="50.46051" lon="3.40396">
        <ele>17.8</ele>
        <time>2022-04-15T15:16:51.000Z</time>
      </trkpt>
      <trkpt lat="50.46053" lon="3.4039">
        <ele>17.9</ele>
        <time>2022-04-15T15:16:53.000Z</time>
      </trkpt>
      <trkpt lat="50.46054" lon="3.40382">
        <ele>17.7</ele>
        <time>2022-04-15T15:16:56.000Z</time>
      </trkpt>
      <trkpt lat="50.46048" lon="3.40396">
        <ele>17.7</ele>
        <time>2022-04-15T15:16:59.000Z</time>
      </trkpt>
      <trkpt lat="50.46041" lon="3.40409">
        <ele>17.5</ele>
        <time>2022-04-15T15:17:01.132Z</time>
      </trkpt>
      <trkpt lat="50.46032" lon="3.40423">
        <ele>17.1</ele>
        <time>2022-04-15T15:17:04.000Z</time>
      </trkpt>
      <trkpt lat="50.46026" lon="3.40434">
        <ele>17</ele>
        <time>2022-04-15T15:17:06.000Z</time>
      </trkpt>
      <trkpt lat="50.4602" lon="3.40443">
        <ele>17</ele>
        <time>2022-04-15T15:17:08.000Z</time>
      </trkpt>
      <trkpt lat="50.46013" lon="3.40453">
        <ele>17</ele>
        <time>2022-04-15T15:17:10.000Z</time>
      </trkpt>
      <trkpt lat="50.4601" lon="3.40459">
        <ele>17</ele>
        <time>2022-04-15T15:17:11.000Z</time>
      </trkpt>
      <trkpt lat="50.46008" lon="3.40467">
        <ele>17</ele>
        <time>2022-04-15T15:17:13.000Z</time>
      </trkpt>
      <trkpt lat="50.46019" lon="3.40472">
        <ele>17</ele>
        <time>2022-04-15T15:17:15.222Z</time>
      </trkpt>
      <trkpt lat="50.46033" lon="3.40474">
        <ele>17</ele>
        <time>2022-04-15T15:17:17.000Z</time>
      </trkpt>
      <trkpt lat="50.46038" lon="3.40475">
        <ele>17</ele>
        <time>2022-04-15T15:17:18.000Z</time>
      </trkpt>
      <trkpt lat="50.46045" lon="3.40475">
        <ele>17</ele>
        <time>2022-04-15T15:17:20.000Z</time>
      </trkpt>
      <trkpt lat="50.46053" lon="3.40476">
        <ele>17</ele>
        <time>2022-04-15T15:17:22.000Z</time>
      </trkpt>
      <trkpt lat="50.4606" lon="3.40474">
        <ele>17</ele>
        <time>2022-04-15T15:17:24.000Z</time>
      </trkpt>
      <trkpt lat="50.46065" lon="3.40475">
        <ele>17</ele>
        <time>2022-04-15T15:17:25.000Z</time>
      </trkpt>
      <trkpt lat="50.46073" lon="3.40477">
        <ele>17</ele>
        <time>2022-04-15T15:17:27.000Z</time>
      </trkpt>
      <trkpt lat="50.46078" lon="3.40479">
        <ele>17</ele>
        <time>2022-04-15T15:17:28.000Z</time>
      </trkpt>
      <trkpt lat="50.46085" lon="3.40483">
        <ele>17</ele>
        <time>2022-04-15T15:17:30.000Z</time>
      </trkpt>
      <trkpt lat="50.46093" lon="3.40484">
        <ele>17.2</ele>
        <time>2022-04-15T15:17:32.000Z</time>
      </trkpt>
      <trkpt lat="50.46097" lon="3.40485">
        <ele>17.3</ele>
        <time>2022-04-15T15:17:33.000Z</time>
      </trkpt>
      <trkpt lat="50.46106" lon="3.40486">
        <ele>17.4</ele>
        <time>2022-04-15T15:17:34.965Z</time>
      </trkpt>
      <trkpt lat="50.4611" lon="3.40487">
        <ele>17.4</ele>
        <time>2022-04-15T15:17:36.058Z</time>
      </trkpt>
      <trkpt lat="50.46115" lon="3.40487">
        <ele>17.5</ele>
        <time>2022-04-15T15:17:37.000Z</time>
      </trkpt>
      <trkpt lat="50.46122" lon="3.40487">
        <ele>17.7</ele>
        <time>2022-04-15T15:17:39.000Z</time>
      </trkpt>
      <trkpt lat="50.4613" lon="3.40488">
        <ele>17.8</ele>
        <time>2022-04-15T15:17:41.000Z</time>
      </trkpt>
      <trkpt lat="50.46135" lon="3.40488">
        <ele>17.9</ele>
        <time>2022-04-15T15:17:42.000Z</time>
      </trkpt>
      <trkpt lat="50.46144" lon="3.40487">
        <ele>18</ele>
        <time>2022-04-15T15:17:44.000Z</time>
      </trkpt>
      <trkpt lat="50.46149" lon="3.40487">
        <ele>18</ele>
        <time>2022-04-15T15:17:45.000Z</time>
      </trkpt>
      <trkpt lat="50.46156" lon="3.40487">
        <ele>18</ele>
        <time>2022-04-15T15:17:47.000Z</time>
      </trkpt>
      <trkpt lat="50.46164" lon="3.40487">
        <ele>18</ele>
        <time>2022-04-15T15:17:49.000Z</time>
      </trkpt>
      <trkpt lat="50.46168" lon="3.40486">
        <ele>18</ele>
        <time>2022-04-15T15:17:50.000Z</time>
      </trkpt>
      <trkpt lat="50.46176" lon="3.40486">
        <ele>18</ele>
        <time>2022-04-15T15:17:52.000Z</time>
      </trkpt>
      <trkpt lat="50.46184" lon="3.40485">
        <ele>18</ele>
        <time>2022-04-15T15:17:54.000Z</time>
      </trkpt>
      <trkpt lat="50.46192" lon="3.40484">
        <ele>18</ele>
        <time>2022-04-15T15:17:56.000Z</time>
      </trkpt>
      <trkpt lat="50.46197" lon="3.40483">
        <ele>17.9</ele>
        <time>2022-04-15T15:17:57.000Z</time>
      </trkpt>
      <trkpt lat="50.46205" lon="3.40483">
        <ele>17.8</ele>
        <time>2022-04-15T15:17:59.000Z</time>
      </trkpt>
      <trkpt lat="50.46213" lon="3.40484">
        <ele>17.6</ele>
        <time>2022-04-15T15:18:01.000Z</time>
      </trkpt>
      <trkpt lat="50.46219" lon="3.40484">
        <ele>17.5</ele>
        <time>2022-04-15T15:18:03.000Z</time>
      </trkpt>
      <trkpt lat="50.46224" lon="3.40484">
        <ele>17.4</ele>
        <time>2022-04-15T15:18:04.000Z</time>
      </trkpt>
      <trkpt lat="50.46229" lon="3.40484">
        <ele>17.4</ele>
        <time>2022-04-15T15:18:05.000Z</time>
      </trkpt>
      <trkpt lat="50.46234" lon="3.40484">
        <ele>17.4</ele>
        <time>2022-04-15T15:18:06.000Z</time>
      </trkpt>
      <trkpt lat="50.46241" lon="3.40484">
        <ele>17.4</ele>
        <time>2022-04-15T15:18:08.000Z</time>
      </trkpt>
      <trkpt lat="50.46245" lon="3.40484">
        <ele>17.4</ele>
        <time>2022-04-15T15:18:09.000Z</time>
      </trkpt>
      <trkpt lat="50.46253" lon="3.40484">
        <ele>17.4</ele>
        <time>2022-04-15T15:18:11.000Z</time>
      </trkpt>
      <trkpt lat="50.46262" lon="3.40484">
        <ele>17.4</ele>
        <time>2022-04-15T15:18:13.000Z</time>
      </trkpt>
      <trkpt lat="50.46271" lon="3.40483">
        <ele>17.4</ele>
        <time>2022-04-15T15:18:15.000Z</time>
      </trkpt>
      <trkpt lat="50.46279" lon="3.40482">
        <ele>17.3</ele>
        <time>2022-04-15T15:18:17.000Z</time>
      </trkpt>
      <trkpt lat="50.46288" lon="3.4048">
        <ele>17.2</ele>
        <time>2022-04-15T15:18:19.000Z</time>
      </trkpt>
      <trkpt lat="50.46297" lon="3.40479">
        <ele>17.1</ele>
        <time>2022-04-15T15:18:21.000Z</time>
      </trkpt>
      <trkpt lat="50.46303" lon="3.40479">
        <ele>17</ele>
        <time>2022-04-15T15:18:22.000Z</time>
      </trkpt>
      <trkpt lat="50.4631" lon="3.40479">
        <ele>17</ele>
        <time>2022-04-15T15:18:24.000Z</time>
      </trkpt>
      <trkpt lat="50.46315" lon="3.40479">
        <ele>17.1</ele>
        <time>2022-04-15T15:18:25.000Z</time>
      </trkpt>
      <trkpt lat="50.46323" lon="3.40479">
        <ele>17.2</ele>
        <time>2022-04-15T15:18:27.000Z</time>
      </trkpt>
      <trkpt lat="50.46332" lon="3.40478">
        <ele>17.2</ele>
        <time>2022-04-15T15:18:29.000Z</time>
      </trkpt>
      <trkpt lat="50.46341" lon="3.40477">
        <ele>17.2</ele>
        <time>2022-04-15T15:18:31.000Z</time>
      </trkpt>
      <trkpt lat="50.46346" lon="3.40477">
        <ele>17.2</ele>
        <time>2022-04-15T15:18:32.000Z</time>
      </trkpt>
      <trkpt lat="50.46351" lon="3.40477">
        <ele>17.2</ele>
        <time>2022-04-15T15:18:34.000Z</time>
      </trkpt>
      <trkpt lat="50.46358" lon="3.40477">
        <ele>17.2</ele>
        <time>2022-04-15T15:18:37.000Z</time>
      </trkpt>
      <trkpt lat="50.46363" lon="3.40475">
        <ele>17.1</ele>
        <time>2022-04-15T15:18:41.000Z</time>
      </trkpt>
      <trkpt lat="50.46369" lon="3.40475">
        <ele>17.1</ele>
        <time>2022-04-15T15:18:43.000Z</time>
      </trkpt>
      <trkpt lat="50.4638" lon="3.40475">
        <ele>17</ele>
        <time>2022-04-15T15:18:46.000Z</time>
      </trkpt>
      <trkpt lat="50.46386" lon="3.40474">
        <ele>17</ele>
        <time>2022-04-15T15:18:47.000Z</time>
      </trkpt>
      <trkpt lat="50.46393" lon="3.40478">
        <ele>17</ele>
        <time>2022-04-15T15:18:49.000Z</time>
      </trkpt>
      <trkpt lat="50.46398" lon="3.40486">
        <ele>16.8</ele>
        <time>2022-04-15T15:18:51.000Z</time>
      </trkpt>
      <trkpt lat="50.46399" lon="3.40493">
        <ele>16.7</ele>
        <time>2022-04-15T15:18:52.000Z</time>
      </trkpt>
      <trkpt lat="50.46401" lon="3.40506">
        <ele>16.6</ele>
        <time>2022-04-15T15:18:54.305Z</time>
      </trkpt>
      <trkpt lat="50.46402" lon="3.40517">
        <ele>16.5</ele>
        <time>2022-04-15T15:18:56.000Z</time>
      </trkpt>
      <trkpt lat="50.46403" lon="3.40526">
        <ele>16.5</ele>
        <time>2022-04-15T15:18:57.000Z</time>
      </trkpt>
      <trkpt lat="50.46403" lon="3.40536">
        <ele>16.5</ele>
        <time>2022-04-15T15:18:59.000Z</time>
      </trkpt>
      <trkpt lat="50.46404" lon="3.40544">
        <ele>16.5</ele>
        <time>2022-04-15T15:19:00.000Z</time>
      </trkpt>
      <trkpt lat="50.46406" lon="3.40554">
        <ele>16.4</ele>
        <time>2022-04-15T15:19:02.000Z</time>
      </trkpt>
      <trkpt lat="50.46408" lon="3.40566">
        <ele>16.6</ele>
        <time>2022-04-15T15:19:04.000Z</time>
      </trkpt>
      <trkpt lat="50.4641" lon="3.40578">
        <ele>16.9</ele>
        <time>2022-04-15T15:19:06.000Z</time>
      </trkpt>
      <trkpt lat="50.46412" lon="3.40588">
        <ele>17</ele>
        <time>2022-04-15T15:19:08.000Z</time>
      </trkpt>
      <trkpt lat="50.46417" lon="3.40598">
        <ele>17</ele>
        <time>2022-04-15T15:19:10.000Z</time>
      </trkpt>
      <trkpt lat="50.46422" lon="3.40608">
        <ele>17</ele>
        <time>2022-04-15T15:19:12.000Z</time>
      </trkpt>
      <trkpt lat="50.46425" lon="3.40622">
        <ele>17</ele>
        <time>2022-04-15T15:19:14.408Z</time>
      </trkpt>
      <trkpt lat="50.46426" lon="3.40631">
        <ele>17</ele>
        <time>2022-04-15T15:19:16.000Z</time>
      </trkpt>
      <trkpt lat="50.46427" lon="3.40643">
        <ele>17.1</ele>
        <time>2022-04-15T15:19:18.000Z</time>
      </trkpt>
      <trkpt lat="50.46428" lon="3.40656">
        <ele>17.4</ele>
        <time>2022-04-15T15:19:20.000Z</time>
      </trkpt>
      <trkpt lat="50.46429" lon="3.40667">
        <ele>17.6</ele>
        <time>2022-04-15T15:19:22.000Z</time>
      </trkpt>
      <trkpt lat="50.4643" lon="3.40681">
        <ele>17.5</ele>
        <time>2022-04-15T15:19:24.000Z</time>
      </trkpt>
      <trkpt lat="50.46431" lon="3.40691">
        <ele>17.5</ele>
        <time>2022-04-15T15:19:26.000Z</time>
      </trkpt>
      <trkpt lat="50.46431" lon="3.40698">
        <ele>17.4</ele>
        <time>2022-04-15T15:19:26.966Z</time>
      </trkpt>
      <trkpt lat="50.46431" lon="3.40712">
        <ele>17.2</ele>
        <time>2022-04-15T15:19:29.000Z</time>
      </trkpt>
      <trkpt lat="50.46432" lon="3.40719">
        <ele>17.1</ele>
        <time>2022-04-15T15:19:30.000Z</time>
      </trkpt>
      <trkpt lat="50.46432" lon="3.4073">
        <ele>17</ele>
        <time>2022-04-15T15:19:32.211Z</time>
      </trkpt>
      <trkpt lat="50.46433" lon="3.40738">
        <ele>17</ele>
        <time>2022-04-15T15:19:34.000Z</time>
      </trkpt>
      <trkpt lat="50.46433" lon="3.4075">
        <ele>17</ele>
        <time>2022-04-15T15:19:36.000Z</time>
      </trkpt>
      <trkpt lat="50.46434" lon="3.40762">
        <ele>17</ele>
        <time>2022-04-15T15:19:38.000Z</time>
      </trkpt>
      <trkpt lat="50.46434" lon="3.40775">
        <ele>17</ele>
        <time>2022-04-15T15:19:40.000Z</time>
      </trkpt>
      <trkpt lat="50.46435" lon="3.40787">
        <ele>17</ele>
        <time>2022-04-15T15:19:42.000Z</time>
      </trkpt>
      <trkpt lat="50.46434" lon="3.40801">
        <ele>17</ele>
        <time>2022-04-15T15:19:44.065Z</time>
      </trkpt>
      <trkpt lat="50.46433" lon="3.40811">
        <ele>17</ele>
        <time>2022-04-15T15:19:46.008Z</time>
      </trkpt>
      <trkpt lat="50.46432" lon="3.40824">
        <ele>17</ele>
        <time>2022-04-15T15:19:48.000Z</time>
      </trkpt>
      <trkpt lat="50.46431" lon="3.40835">
        <ele>17</ele>
        <time>2022-04-15T15:19:50.000Z</time>
      </trkpt>
      <trkpt lat="50.46431" lon="3.40844">
        <ele>17</ele>
        <time>2022-04-15T15:19:52.000Z</time>
      </trkpt>
      <trkpt lat="50.4643" lon="3.40855">
        <ele>17</ele>
        <time>2022-04-15T15:19:54.000Z</time>
      </trkpt>
      <trkpt lat="50.46428" lon="3.4087">
        <ele>17</ele>
        <time>2022-04-15T15:19:56.000Z</time>
      </trkpt>
      <trkpt lat="50.46427" lon="3.40878">
        <ele>17</ele>
        <time>2022-04-15T15:19:58.000Z</time>
      </trkpt>
      <trkpt lat="50.46426" lon="3.40892">
        <ele>17</ele>
        <time>2022-04-15T15:20:00.269Z</time>
      </trkpt>
      <trkpt lat="50.46426" lon="3.40901">
        <ele>17</ele>
        <time>2022-04-15T15:20:02.000Z</time>
      </trkpt>
      <trkpt lat="50.46424" lon="3.40914">
        <ele>17</ele>
        <time>2022-04-15T15:20:05.000Z</time>
      </trkpt>
      <trkpt lat="50.46429" lon="3.40924">
        <ele>16.9</ele>
        <time>2022-04-15T15:20:07.000Z</time>
      </trkpt>
      <trkpt lat="50.46437" lon="3.40919">
        <ele>17</ele>
        <time>2022-04-15T15:20:09.728Z</time>
      </trkpt>
      <trkpt lat="50.46442" lon="3.40916">
        <ele>17</ele>
        <time>2022-04-15T15:20:11.000Z</time>
      </trkpt>
      <trkpt lat="50.46446" lon="3.40912">
        <ele>17</ele>
        <time>2022-04-15T15:20:13.047Z</time>
      </trkpt>
      <trkpt lat="50.46451" lon="3.40908">
        <ele>17</ele>
        <time>2022-04-15T15:20:15.188Z</time>
      </trkpt>
      <trkpt lat="50.46457" lon="3.40904">
        <ele>17</ele>
        <time>2022-04-15T15:20:17.007Z</time>
      </trkpt>
      <trkpt lat="50.46467" lon="3.40897">
        <ele>17</ele>
        <time>2022-04-15T15:20:19.731Z</time>
      </trkpt>
      <trkpt lat="50.46474" lon="3.40892">
        <ele>17</ele>
        <time>2022-04-15T15:20:21.025Z</time>
      </trkpt>
      <trkpt lat="50.4648" lon="3.40885">
        <ele>17</ele>
        <time>2022-04-15T15:20:23.000Z</time>
      </trkpt>
      <trkpt lat="50.46486" lon="3.40881">
        <ele>17</ele>
        <time>2022-04-15T15:20:25.000Z</time>
      </trkpt>
      <trkpt lat="50.46496" lon="3.40875">
        <ele>17</ele>
        <time>2022-04-15T15:20:27.047Z</time>
      </trkpt>
      <trkpt lat="50.46503" lon="3.40869">
        <ele>17</ele>
        <time>2022-04-15T15:20:29.000Z</time>
      </trkpt>
      <trkpt lat="50.46508" lon="3.40864">
        <ele>17</ele>
        <time>2022-04-15T15:20:31.048Z</time>
      </trkpt>
      <trkpt lat="50.46513" lon="3.4086">
        <ele>17</ele>
        <time>2022-04-15T15:20:32.000Z</time>
      </trkpt>
      <trkpt lat="50.46519" lon="3.40854">
        <ele>17</ele>
        <time>2022-04-15T15:20:34.000Z</time>
      </trkpt>
      <trkpt lat="50.46528" lon="3.40846">
        <ele>17</ele>
        <time>2022-04-15T15:20:36.000Z</time>
      </trkpt>
      <trkpt lat="50.46533" lon="3.40842">
        <ele>16.9</ele>
        <time>2022-04-15T15:20:38.000Z</time>
      </trkpt>
      <trkpt lat="50.46539" lon="3.40838">
        <ele>16.9</ele>
        <time>2022-04-15T15:20:40.000Z</time>
      </trkpt>
      <trkpt lat="50.46545" lon="3.40835">
        <ele>17</ele>
        <time>2022-04-15T15:20:42.000Z</time>
      </trkpt>
      <trkpt lat="50.46552" lon="3.40832">
        <ele>17</ele>
        <time>2022-04-15T15:20:45.000Z</time>
      </trkpt>
      <trkpt lat="50.4656" lon="3.40831">
        <ele>17</ele>
        <time>2022-04-15T15:20:46.925Z</time>
      </trkpt>
      <trkpt lat="50.46566" lon="3.4083">
        <ele>17</ele>
        <time>2022-04-15T15:20:48.925Z</time>
      </trkpt>
      <trkpt lat="50.46571" lon="3.40829">
        <ele>17</ele>
        <time>2022-04-15T15:20:50.004Z</time>
      </trkpt>
      <trkpt lat="50.46577" lon="3.40828">
        <ele>17</ele>
        <time>2022-04-15T15:20:52.144Z</time>
      </trkpt>
      <trkpt lat="50.46583" lon="3.40827">
        <ele>17</ele>
        <time>2022-04-15T15:20:53.625Z</time>
      </trkpt>
      <trkpt lat="50.46591" lon="3.40824">
        <ele>17</ele>
        <time>2022-04-15T15:20:56.000Z</time>
      </trkpt>
      <trkpt lat="50.46596" lon="3.40823">
        <ele>17</ele>
        <time>2022-04-15T15:20:57.445Z</time>
      </trkpt>
      <trkpt lat="50.46606" lon="3.40822">
        <ele>17</ele>
        <time>2022-04-15T15:21:00.000Z</time>
      </trkpt>
      <trkpt lat="50.46612" lon="3.40819">
        <ele>17</ele>
        <time>2022-04-15T15:21:03.062Z</time>
      </trkpt>
      <trkpt lat="50.46618" lon="3.40818">
        <ele>16.9</ele>
        <time>2022-04-15T15:21:05.000Z</time>
      </trkpt>
      <trkpt lat="50.46622" lon="3.40816">
        <ele>16.9</ele>
        <time>2022-04-15T15:21:06.962Z</time>
      </trkpt>
      <trkpt lat="50.46627" lon="3.40816">
        <ele>16.8</ele>
        <time>2022-04-15T15:21:09.000Z</time>
      </trkpt>
      <trkpt lat="50.46633" lon="3.40815">
        <ele>16.7</ele>
        <time>2022-04-15T15:21:12.000Z</time>
      </trkpt>
      <trkpt lat="50.46637" lon="3.40813">
        <ele>16.8</ele>
        <time>2022-04-15T15:21:15.000Z</time>
      </trkpt>
      <trkpt lat="50.46662" lon="3.40809">
        <ele>17</ele>
        <time>2022-04-15T15:21:36.548Z</time>
      </trkpt>
      <trkpt lat="50.46699" lon="3.4081">
        <ele>16.9</ele>
        <time>2022-04-15T15:22:08.280Z</time>
      </trkpt>
      <trkpt lat="50.46721" lon="3.40846">
        <ele>17</ele>
        <time>2022-04-15T15:22:35.520Z</time>
      </trkpt>
      <trkpt lat="50.46728" lon="3.40869">
        <ele>17</ele>
        <time>2022-04-15T15:22:49.435Z</time>
      </trkpt>
      <trkpt lat="50.46764" lon="3.4093">
        <ele>17</ele>
        <time>2022-04-15T15:23:34.839Z</time>
      </trkpt>
      <trkpt lat="50.46768" lon="3.40939">
        <ele>17</ele>
        <time>2022-04-15T15:23:40.830Z</time>
      </trkpt>
      <trkpt lat="50.46815" lon="3.41013">
        <ele>17</ele>
        <time>2022-04-15T15:24:37.889Z</time>
      </trkpt>
      <trkpt lat="50.46824" lon="3.41023">
        <ele>17</ele>
        <time>2022-04-15T15:24:47.341Z</time>
      </trkpt>
      <trkpt lat="50.46832" lon="3.41028">
        <ele>17</ele>
        <time>2022-04-15T15:24:54.724Z</time>
      </trkpt>
      <trkpt lat="50.46839" lon="3.41027">
        <ele>17</ele>
        <time>2022-04-15T15:25:00.751Z</time>
      </trkpt>
      <trkpt lat="50.46846" lon="3.41024">
        <ele>17</ele>
        <time>2022-04-15T15:25:06.972Z</time>
      </trkpt>
      <trkpt lat="50.46853" lon="3.41017">
        <ele>17</ele>
        <time>2022-04-15T15:25:14.087Z</time>
      </trkpt>
      <trkpt lat="50.46859" lon="3.4101">
        <ele>17</ele>
        <time>2022-04-15T15:25:20.495Z</time>
      </trkpt>
      <trkpt lat="50.46864" lon="3.41009">
        <ele>17</ele>
        <time>2022-04-15T15:25:24.817Z</time>
      </trkpt>
      <trkpt lat="50.46869" lon="3.41011">
        <ele>17</ele>
        <time>2022-04-15T15:25:29.241Z</time>
      </trkpt>
      <trkpt lat="50.46906" lon="3.41074">
        <ele>17.6</ele>
        <time>2022-04-15T15:26:16.028Z</time>
      </trkpt>
      <trkpt lat="50.46943" lon="3.41149">
        <ele>17</ele>
        <time>2022-04-15T15:27:07.820Z</time>
      </trkpt>
      <trkpt lat="50.46945" lon="3.41159">
        <ele>17</ele>
        <time>2022-04-15T15:27:13.541Z</time>
      </trkpt>
      <trkpt lat="50.46946" lon="3.41168">
        <ele>17.1</ele>
        <time>2022-04-15T15:27:18.527Z</time>
      </trkpt>
      <trkpt lat="50.46941" lon="3.41207">
        <ele>17.4</ele>
        <time>2022-04-15T15:27:40.241Z</time>
      </trkpt>
      <trkpt lat="50.46932" lon="3.4125">
        <ele>17.6</ele>
        <time>2022-04-15T15:28:04.947Z</time>
      </trkpt>
      <trkpt lat="50.46922" lon="3.41287">
        <ele>17.2</ele>
        <time>2022-04-15T15:28:26.887Z</time>
      </trkpt>
      <trkpt lat="50.46905" lon="3.4133">
        <ele>17.9</ele>
        <time>2022-04-15T15:28:54.515Z</time>
      </trkpt>
      <trkpt lat="50.46897" lon="3.41355">
        <ele>18</ele>
        <time>2022-04-15T15:29:09.787Z</time>
      </trkpt>
      <trkpt lat="50.46891" lon="3.41402">
        <ele>18</ele>
        <time>2022-04-15T15:29:35.951Z</time>
      </trkpt>
      <trkpt lat="50.46891" lon="3.41436">
        <ele>18</ele>
        <time>2022-04-15T15:29:54.508Z</time>
      </trkpt>
      <trkpt lat="50.46897" lon="3.41469">
        <ele>18</ele>
        <time>2022-04-15T15:30:13.240Z</time>
      </trkpt>
      <trkpt lat="50.46899" lon="3.41481">
        <ele>18</ele>
        <time>2022-04-15T15:30:20.010Z</time>
      </trkpt>
      <trkpt lat="50.469" lon="3.41498">
        <ele>18</ele>
        <time>2022-04-15T15:30:29.328Z</time>
      </trkpt>
      <trkpt lat="50.46903" lon="3.41546">
        <ele>18</ele>
        <time>2022-04-15T15:30:55.653Z</time>
      </trkpt>
      <trkpt lat="50.46905" lon="3.41565">
        <ele>17.7</ele>
        <time>2022-04-15T15:31:06.164Z</time>
      </trkpt>
      <trkpt lat="50.4691" lon="3.41581">
        <ele>17.1</ele>
        <time>2022-04-15T15:31:15.892Z</time>
      </trkpt>
      <trkpt lat="50.46916" lon="3.41595">
        <ele>17</ele>
        <time>2022-04-15T15:31:25.104Z</time>
      </trkpt>
      <trkpt lat="50.46934" lon="3.41634">
        <ele>17.1</ele>
        <time>2022-04-15T15:31:51.398Z</time>
      </trkpt>
      <trkpt lat="50.46961" lon="3.41686">
        <ele>17.2</ele>
        <time>2022-04-15T15:32:28.026Z</time>
      </trkpt>
      <trkpt lat="50.4698" lon="3.41728">
        <ele>17.9</ele>
        <time>2022-04-15T15:32:56.150Z</time>
      </trkpt>
      <trkpt lat="50.46985" lon="3.41744">
        <ele>17.6</ele>
        <time>2022-04-15T15:33:05.878Z</time>
      </trkpt>
      <trkpt lat="50.46991" lon="3.41764">
        <ele>17.7</ele>
        <time>2022-04-15T15:33:17.946Z</time>
      </trkpt>
      <trkpt lat="50.46994" lon="3.41773">
        <ele>17.8</ele>
        <time>2022-04-15T15:33:23.491Z</time>
      </trkpt>
      <trkpt lat="50.46998" lon="3.4178">
        <ele>17.9</ele>
        <time>2022-04-15T15:33:28.625Z</time>
      </trkpt>
      <trkpt lat="50.47006" lon="3.41794">
        <ele>18</ele>
        <time>2022-04-15T15:33:38.894Z</time>
      </trkpt>
      <trkpt lat="50.47017" lon="3.41812">
        <ele>18.1</ele>
        <time>2022-04-15T15:33:52.514Z</time>
      </trkpt>
      <trkpt lat="50.47032" lon="3.41835">
        <ele>18.2</ele>
        <time>2022-04-15T15:34:10.487Z</time>
      </trkpt>
      <trkpt lat="50.47043" lon="3.41856">
        <ele>18.9</ele>
        <time>2022-04-15T15:34:25.331Z</time>
      </trkpt>
      <trkpt lat="50.47059" lon="3.41889">
        <ele>19</ele>
        <time>2022-04-15T15:34:47.973Z</time>
      </trkpt>
      <trkpt lat="50.4708" lon="3.41932">
        <ele>19</ele>
        <time>2022-04-15T15:35:17.555Z</time>
      </trkpt>
      <trkpt lat="50.47105" lon="3.41978">
        <ele>18.2</ele>
        <time>2022-04-15T15:35:50.570Z</time>
      </trkpt>
      <trkpt lat="50.47112" lon="3.41991">
        <ele>18</ele>
        <time>2022-04-15T15:35:59.864Z</time>
      </trkpt>
      <trkpt lat="50.47117" lon="3.42007">
        <ele>18</ele>
        <time>2022-04-15T15:36:09.592Z</time>
      </trkpt>
      <trkpt lat="50.4712" lon="3.42026">
        <ele>18</ele>
        <time>2022-04-15T15:36:20.276Z</time>
      </trkpt>
      <trkpt lat="50.47119" lon="3.42042">
        <ele>18</ele>
        <time>2022-04-15T15:36:29.051Z</time>
      </trkpt>
      <trkpt lat="50.47116" lon="3.42056">
        <ele>18</ele>
        <time>2022-04-15T15:36:37.113Z</time>
      </trkpt>
      <trkpt lat="50.47085" lon="3.42177">
        <ele>18</ele>
        <time>2022-04-15T15:37:48.308Z</time>
      </trkpt>
      <trkpt lat="50.47083" lon="3.42185">
        <ele>18</ele>
        <time>2022-04-15T15:37:53.000Z</time>
      </trkpt>
      <trkpt lat="50.47081" lon="3.42195">
        <ele>18</ele>
        <time>2022-04-15T15:37:55.000Z</time>
      </trkpt>
      <trkpt lat="50.47081" lon="3.42206">
        <ele>18</ele>
        <time>2022-04-15T15:37:56.000Z</time>
      </trkpt>
      <trkpt lat="50.47083" lon="3.42218">
        <ele>18</ele>
        <time>2022-04-15T15:37:59.000Z</time>
      </trkpt>
      <trkpt lat="50.47087" lon="3.42228">
        <ele>18</ele>
        <time>2022-04-15T15:38:01.000Z</time>
      </trkpt>
      <trkpt lat="50.47092" lon="3.42236">
        <ele>18</ele>
        <time>2022-04-15T15:38:03.000Z</time>
      </trkpt>
      <trkpt lat="50.47097" lon="3.42244">
        <ele>18</ele>
        <time>2022-04-15T15:38:05.000Z</time>
      </trkpt>
      <trkpt lat="50.47102" lon="3.42252">
        <ele>18</ele>
        <time>2022-04-15T15:38:07.000Z</time>
      </trkpt>
      <trkpt lat="50.47107" lon="3.4226">
        <ele>18</ele>
        <time>2022-04-15T15:38:09.000Z</time>
      </trkpt>
      <trkpt lat="50.47112" lon="3.42267">
        <ele>18</ele>
        <time>2022-04-15T15:38:11.000Z</time>
      </trkpt>
      <trkpt lat="50.47118" lon="3.42273">
        <ele>18</ele>
        <time>2022-04-15T15:38:13.000Z</time>
      </trkpt>
      <trkpt lat="50.47123" lon="3.42279">
        <ele>18</ele>
        <time>2022-04-15T15:38:15.000Z</time>
      </trkpt>
      <trkpt lat="50.47129" lon="3.42284">
        <ele>18</ele>
        <time>2022-04-15T15:38:17.000Z</time>
      </trkpt>
      <trkpt lat="50.47135" lon="3.42289">
        <ele>18</ele>
        <time>2022-04-15T15:38:19.000Z</time>
      </trkpt>
      <trkpt lat="50.47141" lon="3.42294">
        <ele>18</ele>
        <time>2022-04-15T15:38:21.000Z</time>
      </trkpt>
      <trkpt lat="50.47148" lon="3.423">
        <ele>18</ele>
        <time>2022-04-15T15:38:23.000Z</time>
      </trkpt>
      <trkpt lat="50.47153" lon="3.42306">
        <ele>18</ele>
        <time>2022-04-15T15:38:25.000Z</time>
      </trkpt>
      <trkpt lat="50.47158" lon="3.42311">
        <ele>18</ele>
        <time>2022-04-15T15:38:26.000Z</time>
      </trkpt>
      <trkpt lat="50.47163" lon="3.42317">
        <ele>18</ele>
        <time>2022-04-15T15:38:28.000Z</time>
      </trkpt>
      <trkpt lat="50.47169" lon="3.42326">
        <ele>18</ele>
        <time>2022-04-15T15:38:31.000Z</time>
      </trkpt>
      <trkpt lat="50.47173" lon="3.42331">
        <ele>18</ele>
        <time>2022-04-15T15:38:33.000Z</time>
      </trkpt>
      <trkpt lat="50.47179" lon="3.42339">
        <ele>18.1</ele>
        <time>2022-04-15T15:38:35.000Z</time>
      </trkpt>
      <trkpt lat="50.47184" lon="3.42347">
        <ele>18.2</ele>
        <time>2022-04-15T15:38:37.000Z</time>
      </trkpt>
      <trkpt lat="50.47189" lon="3.42354">
        <ele>18.1</ele>
        <time>2022-04-15T15:38:39.000Z</time>
      </trkpt>
      <trkpt lat="50.47192" lon="3.42359">
        <ele>18.1</ele>
        <time>2022-04-15T15:38:40.000Z</time>
      </trkpt>
      <trkpt lat="50.47197" lon="3.42367">
        <ele>18</ele>
        <time>2022-04-15T15:38:42.000Z</time>
      </trkpt>
      <trkpt lat="50.472" lon="3.42373">
        <ele>18</ele>
        <time>2022-04-15T15:38:43.000Z</time>
      </trkpt>
      <trkpt lat="50.47206" lon="3.42383">
        <ele>18</ele>
        <time>2022-04-15T15:38:44.968Z</time>
      </trkpt>
      <trkpt lat="50.4721" lon="3.42389">
        <ele>18</ele>
        <time>2022-04-15T15:38:45.888Z</time>
      </trkpt>
      <trkpt lat="50.47214" lon="3.42394">
        <ele>18</ele>
        <time>2022-04-15T15:38:48.000Z</time>
      </trkpt>
      <trkpt lat="50.47219" lon="3.424">
        <ele>18</ele>
        <time>2022-04-15T15:38:49.000Z</time>
      </trkpt>
      <trkpt lat="50.47224" lon="3.42409">
        <ele>18</ele>
        <time>2022-04-15T15:38:51.000Z</time>
      </trkpt>
      <trkpt lat="50.47227" lon="3.42416">
        <ele>18</ele>
        <time>2022-04-15T15:38:52.000Z</time>
      </trkpt>
      <trkpt lat="50.47231" lon="3.42421">
        <ele>18</ele>
        <time>2022-04-15T15:38:53.000Z</time>
      </trkpt>
      <trkpt lat="50.47236" lon="3.42429">
        <ele>18</ele>
        <time>2022-04-15T15:38:55.000Z</time>
      </trkpt>
      <trkpt lat="50.4724" lon="3.42435">
        <ele>18</ele>
        <time>2022-04-15T15:38:56.000Z</time>
      </trkpt>
      <trkpt lat="50.47245" lon="3.42442">
        <ele>18</ele>
        <time>2022-04-15T15:38:58.000Z</time>
      </trkpt>
      <trkpt lat="50.47251" lon="3.42451">
        <ele>18</ele>
        <time>2022-04-15T15:39:00.000Z</time>
      </trkpt>
      <trkpt lat="50.47257" lon="3.42461">
        <ele>18</ele>
        <time>2022-04-15T15:39:02.000Z</time>
      </trkpt>
      <trkpt lat="50.47263" lon="3.42472">
        <ele>18</ele>
        <time>2022-04-15T15:39:04.000Z</time>
      </trkpt>
      <trkpt lat="50.4727" lon="3.42486">
        <ele>18</ele>
        <time>2022-04-15T15:39:07.000Z</time>
      </trkpt>
      <trkpt lat="50.47273" lon="3.42498">
        <ele>18</ele>
        <time>2022-04-15T15:39:09.000Z</time>
      </trkpt>
      <trkpt lat="50.47278" lon="3.42509">
        <ele>18</ele>
        <time>2022-04-15T15:39:11.000Z</time>
      </trkpt>
      <trkpt lat="50.47282" lon="3.42519">
        <ele>18.1</ele>
        <time>2022-04-15T15:39:13.000Z</time>
      </trkpt>
      <trkpt lat="50.47286" lon="3.42531">
        <ele>18.4</ele>
        <time>2022-04-15T15:39:15.000Z</time>
      </trkpt>
      <trkpt lat="50.4729" lon="3.42541">
        <ele>18.7</ele>
        <time>2022-04-15T15:39:17.000Z</time>
      </trkpt>
      <trkpt lat="50.47294" lon="3.42551">
        <ele>18.9</ele>
        <time>2022-04-15T15:39:19.000Z</time>
      </trkpt>
      <trkpt lat="50.47299" lon="3.4256">
        <ele>19</ele>
        <time>2022-04-15T15:39:20.976Z</time>
      </trkpt>
      <trkpt lat="50.47305" lon="3.42567">
        <ele>19</ele>
        <time>2022-04-15T15:39:23.000Z</time>
      </trkpt>
      <trkpt lat="50.47311" lon="3.42572">
        <ele>19</ele>
        <time>2022-04-15T15:39:25.000Z</time>
      </trkpt>
      <trkpt lat="50.47317" lon="3.42578">
        <ele>19</ele>
        <time>2022-04-15T15:39:27.000Z</time>
      </trkpt>
      <trkpt lat="50.47323" lon="3.42583">
        <ele>19</ele>
        <time>2022-04-15T15:39:29.000Z</time>
      </trkpt>
      <trkpt lat="50.47329" lon="3.42588">
        <ele>19</ele>
        <time>2022-04-15T15:39:31.000Z</time>
      </trkpt>
      <trkpt lat="50.47333" lon="3.42593">
        <ele>19</ele>
        <time>2022-04-15T15:39:32.855Z</time>
      </trkpt>
      <trkpt lat="50.47338" lon="3.42598">
        <ele>19</ele>
        <time>2022-04-15T15:39:35.000Z</time>
      </trkpt>
      <trkpt lat="50.47336" lon="3.42607">
        <ele>19</ele>
        <time>2022-04-15T15:39:37.000Z</time>
      </trkpt>
      <trkpt lat="50.47329" lon="3.42612">
        <ele>19</ele>
        <time>2022-04-15T15:39:40.000Z</time>
      </trkpt>
      <trkpt lat="50.47321" lon="3.42617">
        <ele>19</ele>
        <time>2022-04-15T15:39:42.000Z</time>
      </trkpt>
      <trkpt lat="50.47316" lon="3.42622">
        <ele>19</ele>
        <time>2022-04-15T15:39:44.000Z</time>
      </trkpt>
      <trkpt lat="50.47312" lon="3.42626">
        <ele>19</ele>
        <time>2022-04-15T15:39:45.000Z</time>
      </trkpt>
      <trkpt lat="50.47303" lon="3.42633">
        <ele>19</ele>
        <time>2022-04-15T15:39:47.000Z</time>
      </trkpt>
      <trkpt lat="50.47298" lon="3.42641">
        <ele>19</ele>
        <time>2022-04-15T15:39:49.047Z</time>
      </trkpt>
      <trkpt lat="50.47291" lon="3.42645">
        <ele>19</ele>
        <time>2022-04-15T15:39:50.764Z</time>
      </trkpt>
      <trkpt lat="50.47287" lon="3.42649">
        <ele>19</ele>
        <time>2022-04-15T15:39:52.000Z</time>
      </trkpt>
      <trkpt lat="50.47289" lon="3.42656">
        <ele>19</ele>
        <time>2022-04-15T15:39:54.000Z</time>
      </trkpt>
      <trkpt lat="50.47295" lon="3.42655">
        <ele>19</ele>
        <time>2022-04-15T15:39:56.000Z</time>
      </trkpt>
      <trkpt lat="50.47302" lon="3.42647">
        <ele>19</ele>
        <time>2022-04-15T15:39:58.000Z</time>
      </trkpt>
      <trkpt lat="50.47312" lon="3.42638">
        <ele>19</ele>
        <time>2022-04-15T15:40:00.465Z</time>
      </trkpt>
      <trkpt lat="50.47321" lon="3.4263">
        <ele>19</ele>
        <time>2022-04-15T15:40:02.683Z</time>
      </trkpt>
      <trkpt lat="50.47326" lon="3.42625">
        <ele>19</ele>
        <time>2022-04-15T15:40:04.000Z</time>
      </trkpt>
      <trkpt lat="50.47331" lon="3.42626">
        <ele>19</ele>
        <time>2022-04-15T15:40:05.000Z</time>
      </trkpt>
      <trkpt lat="50.47335" lon="3.42623">
        <ele>19</ele>
        <time>2022-04-15T15:40:06.000Z</time>
      </trkpt>
      <trkpt lat="50.47343" lon="3.4262">
        <ele>19</ele>
        <time>2022-04-15T15:40:07.926Z</time>
      </trkpt>
      <trkpt lat="50.47349" lon="3.42617">
        <ele>19</ele>
        <time>2022-04-15T15:40:09.546Z</time>
      </trkpt>
      <trkpt lat="50.47356" lon="3.42615">
        <ele>19</ele>
        <time>2022-04-15T15:40:11.000Z</time>
      </trkpt>
      <trkpt lat="50.47361" lon="3.42616">
        <ele>19</ele>
        <time>2022-04-15T15:40:13.000Z</time>
      </trkpt>
      <trkpt lat="50.47366" lon="3.42616">
        <ele>19</ele>
        <time>2022-04-15T15:40:14.000Z</time>
      </trkpt>
      <trkpt lat="50.47372" lon="3.42614">
        <ele>19</ele>
        <time>2022-04-15T15:40:15.000Z</time>
      </trkpt>
      <trkpt lat="50.47379" lon="3.42618">
        <ele>19</ele>
        <time>2022-04-15T15:40:17.000Z</time>
      </trkpt>
      <trkpt lat="50.47386" lon="3.42622">
        <ele>19</ele>
        <time>2022-04-15T15:40:19.000Z</time>
      </trkpt>
      <trkpt lat="50.4739" lon="3.42625">
        <ele>19</ele>
        <time>2022-04-15T15:40:20.109Z</time>
      </trkpt>
      <trkpt lat="50.47398" lon="3.4263">
        <ele>19</ele>
        <time>2022-04-15T15:40:22.112Z</time>
      </trkpt>
      <trkpt lat="50.47402" lon="3.42634">
        <ele>19</ele>
        <time>2022-04-15T15:40:23.690Z</time>
      </trkpt>
      <trkpt lat="50.47409" lon="3.42637">
        <ele>19</ele>
        <time>2022-04-15T15:40:25.947Z</time>
      </trkpt>
      <trkpt lat="50.47416" lon="3.42642">
        <ele>19</ele>
        <time>2022-04-15T15:40:28.000Z</time>
      </trkpt>
      <trkpt lat="50.4742" lon="3.42647">
        <ele>19</ele>
        <time>2022-04-15T15:40:30.000Z</time>
      </trkpt>
      <trkpt lat="50.47427" lon="3.42651">
        <ele>19</ele>
        <time>2022-04-15T15:40:33.000Z</time>
      </trkpt>
      <trkpt lat="50.47432" lon="3.42653">
        <ele>19</ele>
        <time>2022-04-15T15:40:35.000Z</time>
      </trkpt>
      <trkpt lat="50.47437" lon="3.42661">
        <ele>19</ele>
        <time>2022-04-15T15:40:36.932Z</time>
      </trkpt>
      <trkpt lat="50.4744" lon="3.42673">
        <ele>19</ele>
        <time>2022-04-15T15:40:39.000Z</time>
      </trkpt>
      <trkpt lat="50.47439" lon="3.42681">
        <ele>19.1</ele>
        <time>2022-04-15T15:40:41.000Z</time>
      </trkpt>
      <trkpt lat="50.47438" lon="3.42701">
        <ele>19.4</ele>
        <time>2022-04-15T15:40:44.006Z</time>
      </trkpt>
      <trkpt lat="50.47437" lon="3.42713">
        <ele>19.8</ele>
        <time>2022-04-15T15:40:46.000Z</time>
      </trkpt>
      <trkpt lat="50.47435" lon="3.42724">
        <ele>20</ele>
        <time>2022-04-15T15:40:48.000Z</time>
      </trkpt>
      <trkpt lat="50.47431" lon="3.42735">
        <ele>20</ele>
        <time>2022-04-15T15:40:50.008Z</time>
      </trkpt>
      <trkpt lat="50.47429" lon="3.42745">
        <ele>20</ele>
        <time>2022-04-15T15:40:52.000Z</time>
      </trkpt>
      <trkpt lat="50.47426" lon="3.42756">
        <ele>20</ele>
        <time>2022-04-15T15:40:54.000Z</time>
      </trkpt>
      <trkpt lat="50.47424" lon="3.42767">
        <ele>20</ele>
        <time>2022-04-15T15:40:56.000Z</time>
      </trkpt>
      <trkpt lat="50.47422" lon="3.42778">
        <ele>20</ele>
        <time>2022-04-15T15:40:58.000Z</time>
      </trkpt>
      <trkpt lat="50.4742" lon="3.42789">
        <ele>20</ele>
        <time>2022-04-15T15:41:00.000Z</time>
      </trkpt>
      <trkpt lat="50.47418" lon="3.42799">
        <ele>20</ele>
        <time>2022-04-15T15:41:02.000Z</time>
      </trkpt>
      <trkpt lat="50.47415" lon="3.42815">
        <ele>20</ele>
        <time>2022-04-15T15:41:04.909Z</time>
      </trkpt>
      <trkpt lat="50.47414" lon="3.42826">
        <ele>20</ele>
        <time>2022-04-15T15:41:07.000Z</time>
      </trkpt>
      <trkpt lat="50.47412" lon="3.42837">
        <ele>20</ele>
        <time>2022-04-15T15:41:09.000Z</time>
      </trkpt>
      <trkpt lat="50.4741" lon="3.4285">
        <ele>20</ele>
        <time>2022-04-15T15:41:12.000Z</time>
      </trkpt>
      <trkpt lat="50.47408" lon="3.4286">
        <ele>20</ele>
        <time>2022-04-15T15:41:14.000Z</time>
      </trkpt>
      <trkpt lat="50.47407" lon="3.4287">
        <ele>20</ele>
        <time>2022-04-15T15:41:16.000Z</time>
      </trkpt>
      <trkpt lat="50.47406" lon="3.42879">
        <ele>20</ele>
        <time>2022-04-15T15:41:18.000Z</time>
      </trkpt>
      <trkpt lat="50.47405" lon="3.42889">
        <ele>20</ele>
        <time>2022-04-15T15:41:20.000Z</time>
      </trkpt>
      <trkpt lat="50.47404" lon="3.42899">
        <ele>20</ele>
        <time>2022-04-15T15:41:22.000Z</time>
      </trkpt>
      <trkpt lat="50.47403" lon="3.42908">
        <ele>20</ele>
        <time>2022-04-15T15:41:24.000Z</time>
      </trkpt>
      <trkpt lat="50.47403" lon="3.42917">
        <ele>20</ele>
        <time>2022-04-15T15:41:26.000Z</time>
      </trkpt>
      <trkpt lat="50.47403" lon="3.42926">
        <ele>20</ele>
        <time>2022-04-15T15:41:28.000Z</time>
      </trkpt>
      <trkpt lat="50.47402" lon="3.42937">
        <ele>20</ele>
        <time>2022-04-15T15:41:30.000Z</time>
      </trkpt>
      <trkpt lat="50.47401" lon="3.42946">
        <ele>20</ele>
        <time>2022-04-15T15:41:32.000Z</time>
      </trkpt>
      <trkpt lat="50.47401" lon="3.42956">
        <ele>20</ele>
        <time>2022-04-15T15:41:34.109Z</time>
      </trkpt>
      <trkpt lat="50.47401" lon="3.42965">
        <ele>20</ele>
        <time>2022-04-15T15:41:35.632Z</time>
      </trkpt>
      <trkpt lat="50.474" lon="3.42978">
        <ele>20</ele>
        <time>2022-04-15T15:41:38.013Z</time>
      </trkpt>
      <trkpt lat="50.474" lon="3.4299">
        <ele>20</ele>
        <time>2022-04-15T15:41:40.271Z</time>
      </trkpt>
      <trkpt lat="50.474" lon="3.43002">
        <ele>20</ele>
        <time>2022-04-15T15:41:42.349Z</time>
      </trkpt>
      <trkpt lat="50.47399" lon="3.43011">
        <ele>20</ele>
        <time>2022-04-15T15:41:44.000Z</time>
      </trkpt>
      <trkpt lat="50.47398" lon="3.43024">
        <ele>20</ele>
        <time>2022-04-15T15:41:46.148Z</time>
      </trkpt>
      <trkpt lat="50.47398" lon="3.43035">
        <ele>20</ele>
        <time>2022-04-15T15:41:47.734Z</time>
      </trkpt>
      <trkpt lat="50.47398" lon="3.43042">
        <ele>20</ele>
        <time>2022-04-15T15:41:48.946Z</time>
      </trkpt>
      <trkpt lat="50.47397" lon="3.43056">
        <ele>20</ele>
        <time>2022-04-15T15:41:51.000Z</time>
      </trkpt>
      <trkpt lat="50.47397" lon="3.4307">
        <ele>20</ele>
        <time>2022-04-15T15:41:53.000Z</time>
      </trkpt>
      <trkpt lat="50.47397" lon="3.43077">
        <ele>20</ele>
        <time>2022-04-15T15:41:54.000Z</time>
      </trkpt>
      <trkpt lat="50.47398" lon="3.43091">
        <ele>20</ele>
        <time>2022-04-15T15:41:56.000Z</time>
      </trkpt>
      <trkpt lat="50.47397" lon="3.43105">
        <ele>20</ele>
        <time>2022-04-15T15:41:58.000Z</time>
      </trkpt>
      <trkpt lat="50.47397" lon="3.4312">
        <ele>19.9</ele>
        <time>2022-04-15T15:42:00.000Z</time>
      </trkpt>
      <trkpt lat="50.47397" lon="3.43136">
        <ele>19.7</ele>
        <time>2022-04-15T15:42:02.000Z</time>
      </trkpt>
      <trkpt lat="50.47397" lon="3.43144">
        <ele>19.6</ele>
        <time>2022-04-15T15:42:03.000Z</time>
      </trkpt>
      <trkpt lat="50.47396" lon="3.43151">
        <ele>19.4</ele>
        <time>2022-04-15T15:42:04.000Z</time>
      </trkpt>
      <trkpt lat="50.47396" lon="3.43158">
        <ele>19.2</ele>
        <time>2022-04-15T15:42:05.000Z</time>
      </trkpt>
      <trkpt lat="50.47395" lon="3.43173">
        <ele>19</ele>
        <time>2022-04-15T15:42:07.000Z</time>
      </trkpt>
      <trkpt lat="50.47395" lon="3.43181">
        <ele>19</ele>
        <time>2022-04-15T15:42:08.000Z</time>
      </trkpt>
      <trkpt lat="50.47394" lon="3.4319">
        <ele>19</ele>
        <time>2022-04-15T15:42:09.000Z</time>
      </trkpt>
      <trkpt lat="50.47394" lon="3.43198">
        <ele>19</ele>
        <time>2022-04-15T15:42:10.000Z</time>
      </trkpt>
      <trkpt lat="50.47395" lon="3.43206">
        <ele>18.9</ele>
        <time>2022-04-15T15:42:11.000Z</time>
      </trkpt>
      <trkpt lat="50.47394" lon="3.43213">
        <ele>18.9</ele>
        <time>2022-04-15T15:42:12.000Z</time>
      </trkpt>
      <trkpt lat="50.47394" lon="3.43221">
        <ele>18.8</ele>
        <time>2022-04-15T15:42:13.000Z</time>
      </trkpt>
      <trkpt lat="50.47394" lon="3.43229">
        <ele>18.6</ele>
        <time>2022-04-15T15:42:14.000Z</time>
      </trkpt>
      <trkpt lat="50.47392" lon="3.43246">
        <ele>18.1</ele>
        <time>2022-04-15T15:42:16.000Z</time>
      </trkpt>
      <trkpt lat="50.47392" lon="3.43254">
        <ele>18</ele>
        <time>2022-04-15T15:42:17.000Z</time>
      </trkpt>
      <trkpt lat="50.47391" lon="3.43262">
        <ele>18</ele>
        <time>2022-04-15T15:42:18.000Z</time>
      </trkpt>
      <trkpt lat="50.47389" lon="3.43269">
        <ele>18</ele>
        <time>2022-04-15T15:42:19.000Z</time>
      </trkpt>
      <trkpt lat="50.47387" lon="3.43281">
        <ele>18.1</ele>
        <time>2022-04-15T15:42:20.981Z</time>
      </trkpt>
      <trkpt lat="50.47385" lon="3.43292">
        <ele>18.1</ele>
        <time>2022-04-15T15:42:22.000Z</time>
      </trkpt>
      <trkpt lat="50.47384" lon="3.433">
        <ele>18.2</ele>
        <time>2022-04-15T15:42:23.000Z</time>
      </trkpt>
      <trkpt lat="50.47382" lon="3.43308">
        <ele>18.2</ele>
        <time>2022-04-15T15:42:24.000Z</time>
      </trkpt>
      <trkpt lat="50.4738" lon="3.43316">
        <ele>18.2</ele>
        <time>2022-04-15T15:42:25.000Z</time>
      </trkpt>
      <trkpt lat="50.47378" lon="3.43323">
        <ele>18.1</ele>
        <time>2022-04-15T15:42:26.000Z</time>
      </trkpt>
      <trkpt lat="50.47376" lon="3.43331">
        <ele>18</ele>
        <time>2022-04-15T15:42:27.000Z</time>
      </trkpt>
      <trkpt lat="50.47375" lon="3.43338">
        <ele>18</ele>
        <time>2022-04-15T15:42:28.000Z</time>
      </trkpt>
      <trkpt lat="50.47373" lon="3.43346">
        <ele>18</ele>
        <time>2022-04-15T15:42:29.000Z</time>
      </trkpt>
      <trkpt lat="50.47372" lon="3.43353">
        <ele>18</ele>
        <time>2022-04-15T15:42:30.000Z</time>
      </trkpt>
      <trkpt lat="50.47371" lon="3.43361">
        <ele>18</ele>
        <time>2022-04-15T15:42:31.000Z</time>
      </trkpt>
      <trkpt lat="50.47369" lon="3.43369">
        <ele>18</ele>
        <time>2022-04-15T15:42:32.000Z</time>
      </trkpt>
      <trkpt lat="50.47368" lon="3.43377">
        <ele>18</ele>
        <time>2022-04-15T15:42:33.000Z</time>
      </trkpt>
      <trkpt lat="50.47367" lon="3.43384">
        <ele>18</ele>
        <time>2022-04-15T15:42:34.000Z</time>
      </trkpt>
      <trkpt lat="50.47365" lon="3.43392">
        <ele>18</ele>
        <time>2022-04-15T15:42:35.000Z</time>
      </trkpt>
      <trkpt lat="50.47364" lon="3.43406">
        <ele>18</ele>
        <time>2022-04-15T15:42:37.000Z</time>
      </trkpt>
      <trkpt lat="50.47363" lon="3.43418">
        <ele>18</ele>
        <time>2022-04-15T15:42:39.000Z</time>
      </trkpt>
      <trkpt lat="50.47363" lon="3.43426">
        <ele>18</ele>
        <time>2022-04-15T15:42:40.000Z</time>
      </trkpt>
      <trkpt lat="50.47361" lon="3.43439">
        <ele>18</ele>
        <time>2022-04-15T15:42:42.000Z</time>
      </trkpt>
      <trkpt lat="50.4736" lon="3.43451">
        <ele>18</ele>
        <time>2022-04-15T15:42:44.000Z</time>
      </trkpt>
      <trkpt lat="50.47359" lon="3.43458">
        <ele>18</ele>
        <time>2022-04-15T15:42:45.000Z</time>
      </trkpt>
      <trkpt lat="50.47358" lon="3.43465">
        <ele>18</ele>
        <time>2022-04-15T15:42:46.000Z</time>
      </trkpt>
      <trkpt lat="50.47357" lon="3.43474">
        <ele>18</ele>
        <time>2022-04-15T15:42:48.000Z</time>
      </trkpt>
      <trkpt lat="50.47356" lon="3.43482">
        <ele>18</ele>
        <time>2022-04-15T15:42:49.000Z</time>
      </trkpt>
      <trkpt lat="50.47355" lon="3.43495">
        <ele>18</ele>
        <time>2022-04-15T15:42:51.000Z</time>
      </trkpt>
      <trkpt lat="50.47353" lon="3.43506">
        <ele>18</ele>
        <time>2022-04-15T15:42:53.000Z</time>
      </trkpt>
      <trkpt lat="50.47351" lon="3.43519">
        <ele>18</ele>
        <time>2022-04-15T15:42:55.000Z</time>
      </trkpt>
      <trkpt lat="50.47347" lon="3.43534">
        <ele>18</ele>
        <time>2022-04-15T15:42:57.810Z</time>
      </trkpt>
      <trkpt lat="50.47346" lon="3.43541">
        <ele>18</ele>
        <time>2022-04-15T15:42:59.000Z</time>
      </trkpt>
      <trkpt lat="50.47342" lon="3.43554">
        <ele>18</ele>
        <time>2022-04-15T15:43:01.000Z</time>
      </trkpt>
      <trkpt lat="50.47337" lon="3.43566">
        <ele>18</ele>
        <time>2022-04-15T15:43:03.000Z</time>
      </trkpt>
      <trkpt lat="50.47335" lon="3.43573">
        <ele>18</ele>
        <time>2022-04-15T15:43:04.000Z</time>
      </trkpt>
      <trkpt lat="50.47333" lon="3.43579">
        <ele>18</ele>
        <time>2022-04-15T15:43:05.000Z</time>
      </trkpt>
      <trkpt lat="50.47327" lon="3.43591">
        <ele>17.9</ele>
        <time>2022-04-15T15:43:07.000Z</time>
      </trkpt>
      <trkpt lat="50.47322" lon="3.43602">
        <ele>17.7</ele>
        <time>2022-04-15T15:43:09.000Z</time>
      </trkpt>
      <trkpt lat="50.47318" lon="3.43607">
        <ele>17.5</ele>
        <time>2022-04-15T15:43:10.000Z</time>
      </trkpt>
      <trkpt lat="50.47314" lon="3.43612">
        <ele>17.3</ele>
        <time>2022-04-15T15:43:11.000Z</time>
      </trkpt>
      <trkpt lat="50.47311" lon="3.43618">
        <ele>17.2</ele>
        <time>2022-04-15T15:43:12.000Z</time>
      </trkpt>
      <trkpt lat="50.47307" lon="3.43623">
        <ele>17.1</ele>
        <time>2022-04-15T15:43:13.000Z</time>
      </trkpt>
      <trkpt lat="50.47303" lon="3.43628">
        <ele>17.1</ele>
        <time>2022-04-15T15:43:14.000Z</time>
      </trkpt>
      <trkpt lat="50.47298" lon="3.43638">
        <ele>17.3</ele>
        <time>2022-04-15T15:43:16.000Z</time>
      </trkpt>
      <trkpt lat="50.47294" lon="3.43643">
        <ele>17.5</ele>
        <time>2022-04-15T15:43:17.000Z</time>
      </trkpt>
      <trkpt lat="50.47291" lon="3.43648">
        <ele>17.7</ele>
        <time>2022-04-15T15:43:18.000Z</time>
      </trkpt>
      <trkpt lat="50.47284" lon="3.43656">
        <ele>17.9</ele>
        <time>2022-04-15T15:43:20.000Z</time>
      </trkpt>
      <trkpt lat="50.47281" lon="3.43661">
        <ele>18</ele>
        <time>2022-04-15T15:43:21.000Z</time>
      </trkpt>
      <trkpt lat="50.47274" lon="3.43669">
        <ele>18</ele>
        <time>2022-04-15T15:43:23.000Z</time>
      </trkpt>
      <trkpt lat="50.47268" lon="3.43677">
        <ele>18</ele>
        <time>2022-04-15T15:43:25.000Z</time>
      </trkpt>
      <trkpt lat="50.47264" lon="3.43683">
        <ele>18</ele>
        <time>2022-04-15T15:43:26.930Z</time>
      </trkpt>
      <trkpt lat="50.47258" lon="3.43693">
        <ele>18</ele>
        <time>2022-04-15T15:43:29.026Z</time>
      </trkpt>
      <trkpt lat="50.47253" lon="3.43703">
        <ele>18</ele>
        <time>2022-04-15T15:43:31.029Z</time>
      </trkpt>
      <trkpt lat="50.4725" lon="3.43709">
        <ele>18</ele>
        <time>2022-04-15T15:43:32.000Z</time>
      </trkpt>
      <trkpt lat="50.47247" lon="3.43719">
        <ele>18</ele>
        <time>2022-04-15T15:43:33.923Z</time>
      </trkpt>
      <trkpt lat="50.47244" lon="3.43724">
        <ele>18</ele>
        <time>2022-04-15T15:43:35.000Z</time>
      </trkpt>
      <trkpt lat="50.4724" lon="3.43735">
        <ele>18</ele>
        <time>2022-04-15T15:43:37.000Z</time>
      </trkpt>
      <trkpt lat="50.47238" lon="3.43745">
        <ele>18</ele>
        <time>2022-04-15T15:43:38.000Z</time>
      </trkpt>
      <trkpt lat="50.47235" lon="3.43751">
        <ele>18</ele>
        <time>2022-04-15T15:43:40.000Z</time>
      </trkpt>
      <trkpt lat="50.47232" lon="3.43763">
        <ele>18</ele>
        <time>2022-04-15T15:43:42.000Z</time>
      </trkpt>
      <trkpt lat="50.47229" lon="3.43772">
        <ele>18</ele>
        <time>2022-04-15T15:43:43.000Z</time>
      </trkpt>
      <trkpt lat="50.47227" lon="3.43782">
        <ele>18</ele>
        <time>2022-04-15T15:43:45.000Z</time>
      </trkpt>
      <trkpt lat="50.47225" lon="3.43792">
        <ele>18</ele>
        <time>2022-04-15T15:43:47.000Z</time>
      </trkpt>
      <trkpt lat="50.47223" lon="3.438">
        <ele>18</ele>
        <time>2022-04-15T15:43:47.906Z</time>
      </trkpt>
      <trkpt lat="50.47219" lon="3.43809">
        <ele>18</ele>
        <time>2022-04-15T15:43:50.000Z</time>
      </trkpt>
      <trkpt lat="50.47215" lon="3.43819">
        <ele>18</ele>
        <time>2022-04-15T15:43:52.069Z</time>
      </trkpt>
      <trkpt lat="50.47209" lon="3.4383">
        <ele>18</ele>
        <time>2022-04-15T15:43:54.000Z</time>
      </trkpt>
      <trkpt lat="50.47204" lon="3.43839">
        <ele>18</ele>
        <time>2022-04-15T15:43:56.000Z</time>
      </trkpt>
      <trkpt lat="50.47197" lon="3.43851">
        <ele>18</ele>
        <time>2022-04-15T15:43:58.903Z</time>
      </trkpt>
      <trkpt lat="50.47193" lon="3.43856">
        <ele>18</ele>
        <time>2022-04-15T15:44:00.000Z</time>
      </trkpt>
      <trkpt lat="50.47189" lon="3.43862">
        <ele>18</ele>
        <time>2022-04-15T15:44:01.000Z</time>
      </trkpt>
      <trkpt lat="50.47183" lon="3.4387">
        <ele>18</ele>
        <time>2022-04-15T15:44:03.000Z</time>
      </trkpt>
      <trkpt lat="50.47175" lon="3.4388">
        <ele>18</ele>
        <time>2022-04-15T15:44:05.717Z</time>
      </trkpt>
      <trkpt lat="50.47172" lon="3.43884">
        <ele>18</ele>
        <time>2022-04-15T15:44:07.000Z</time>
      </trkpt>
      <trkpt lat="50.47165" lon="3.43891">
        <ele>18</ele>
        <time>2022-04-15T15:44:09.000Z</time>
      </trkpt>
      <trkpt lat="50.47159" lon="3.43895">
        <ele>18</ele>
        <time>2022-04-15T15:44:10.930Z</time>
      </trkpt>
      <trkpt lat="50.47151" lon="3.439">
        <ele>18</ele>
        <time>2022-04-15T15:44:13.000Z</time>
      </trkpt>
      <trkpt lat="50.47143" lon="3.43904">
        <ele>18</ele>
        <time>2022-04-15T15:44:15.000Z</time>
      </trkpt>
      <trkpt lat="50.47135" lon="3.43908">
        <ele>18</ele>
        <time>2022-04-15T15:44:17.000Z</time>
      </trkpt>
      <trkpt lat="50.4713" lon="3.43911">
        <ele>18</ele>
        <time>2022-04-15T15:44:18.000Z</time>
      </trkpt>
      <trkpt lat="50.47122" lon="3.43916">
        <ele>18</ele>
        <time>2022-04-15T15:44:20.000Z</time>
      </trkpt>
      <trkpt lat="50.47114" lon="3.4392">
        <ele>18</ele>
        <time>2022-04-15T15:44:22.000Z</time>
      </trkpt>
      <trkpt lat="50.47109" lon="3.43923">
        <ele>18</ele>
        <time>2022-04-15T15:44:23.000Z</time>
      </trkpt>
      <trkpt lat="50.47104" lon="3.43925">
        <ele>18</ele>
        <time>2022-04-15T15:44:24.000Z</time>
      </trkpt>
      <trkpt lat="50.471" lon="3.43928">
        <ele>18</ele>
        <time>2022-04-15T15:44:25.000Z</time>
      </trkpt>
      <trkpt lat="50.47092" lon="3.43932">
        <ele>18</ele>
        <time>2022-04-15T15:44:27.000Z</time>
      </trkpt>
      <trkpt lat="50.47087" lon="3.43934">
        <ele>18</ele>
        <time>2022-04-15T15:44:28.000Z</time>
      </trkpt>
      <trkpt lat="50.47082" lon="3.43937">
        <ele>18</ele>
        <time>2022-04-15T15:44:29.000Z</time>
      </trkpt>
      <trkpt lat="50.47074" lon="3.43942">
        <ele>18</ele>
        <time>2022-04-15T15:44:31.000Z</time>
      </trkpt>
      <trkpt lat="50.47066" lon="3.43949">
        <ele>18.1</ele>
        <time>2022-04-15T15:44:33.000Z</time>
      </trkpt>
      <trkpt lat="50.4706" lon="3.43953">
        <ele>18</ele>
        <time>2022-04-15T15:44:34.749Z</time>
      </trkpt>
      <trkpt lat="50.47055" lon="3.43959">
        <ele>18</ele>
        <time>2022-04-15T15:44:36.108Z</time>
      </trkpt>
      <trkpt lat="50.47049" lon="3.43965">
        <ele>18.2</ele>
        <time>2022-04-15T15:44:37.872Z</time>
      </trkpt>
      <trkpt lat="50.47045" lon="3.43971">
        <ele>18.4</ele>
        <time>2022-04-15T15:44:39.000Z</time>
      </trkpt>
      <trkpt lat="50.47038" lon="3.4398">
        <ele>18.7</ele>
        <time>2022-04-15T15:44:41.549Z</time>
      </trkpt>
      <trkpt lat="50.47034" lon="3.43984">
        <ele>18.9</ele>
        <time>2022-04-15T15:44:43.010Z</time>
      </trkpt>
      <trkpt lat="50.47028" lon="3.43994">
        <ele>19</ele>
        <time>2022-04-15T15:44:45.000Z</time>
      </trkpt>
      <trkpt lat="50.47023" lon="3.44003">
        <ele>19</ele>
        <time>2022-04-15T15:44:47.000Z</time>
      </trkpt>
      <trkpt lat="50.47018" lon="3.44012">
        <ele>19</ele>
        <time>2022-04-15T15:44:48.991Z</time>
      </trkpt>
      <trkpt lat="50.47014" lon="3.44017">
        <ele>19</ele>
        <time>2022-04-15T15:44:50.000Z</time>
      </trkpt>
      <trkpt lat="50.47007" lon="3.44031">
        <ele>19</ele>
        <time>2022-04-15T15:44:53.000Z</time>
      </trkpt>
      <trkpt lat="50.47003" lon="3.44042">
        <ele>19</ele>
        <time>2022-04-15T15:44:55.000Z</time>
      </trkpt>
      <trkpt lat="50.47" lon="3.44052">
        <ele>19</ele>
        <time>2022-04-15T15:44:56.949Z</time>
      </trkpt>
      <trkpt lat="50.46997" lon="3.44062">
        <ele>19</ele>
        <time>2022-04-15T15:44:59.000Z</time>
      </trkpt>
      <trkpt lat="50.46995" lon="3.44071">
        <ele>19</ele>
        <time>2022-04-15T15:45:01.000Z</time>
      </trkpt>
      <trkpt lat="50.46992" lon="3.4408">
        <ele>19</ele>
        <time>2022-04-15T15:45:03.045Z</time>
      </trkpt>
      <trkpt lat="50.46989" lon="3.44089">
        <ele>19</ele>
        <time>2022-04-15T15:45:05.000Z</time>
      </trkpt>
      <trkpt lat="50.46987" lon="3.44099">
        <ele>19</ele>
        <time>2022-04-15T15:45:07.000Z</time>
      </trkpt>
      <trkpt lat="50.46985" lon="3.44108">
        <ele>19</ele>
        <time>2022-04-15T15:45:09.000Z</time>
      </trkpt>
      <trkpt lat="50.46982" lon="3.44117">
        <ele>19.1</ele>
        <time>2022-04-15T15:45:11.000Z</time>
      </trkpt>
      <trkpt lat="50.4698" lon="3.44127">
        <ele>19.2</ele>
        <time>2022-04-15T15:45:13.000Z</time>
      </trkpt>
      <trkpt lat="50.46978" lon="3.44135">
        <ele>19.2</ele>
        <time>2022-04-15T15:45:15.000Z</time>
      </trkpt>
      <trkpt lat="50.46975" lon="3.44144">
        <ele>19.1</ele>
        <time>2022-04-15T15:45:17.000Z</time>
      </trkpt>
      <trkpt lat="50.46972" lon="3.44153">
        <ele>19</ele>
        <time>2022-04-15T15:45:19.000Z</time>
      </trkpt>
      <trkpt lat="50.46968" lon="3.44162">
        <ele>19</ele>
        <time>2022-04-15T15:45:21.000Z</time>
      </trkpt>
      <trkpt lat="50.46965" lon="3.44171">
        <ele>19.1</ele>
        <time>2022-04-15T15:45:23.000Z</time>
      </trkpt>
      <trkpt lat="50.46961" lon="3.4418">
        <ele>19.3</ele>
        <time>2022-04-15T15:45:25.000Z</time>
      </trkpt>
      <trkpt lat="50.46957" lon="3.44188">
        <ele>19.3</ele>
        <time>2022-04-15T15:45:27.000Z</time>
      </trkpt>
      <trkpt lat="50.46952" lon="3.44195">
        <ele>19.3</ele>
        <time>2022-04-15T15:45:29.000Z</time>
      </trkpt>
      <trkpt lat="50.46947" lon="3.44202">
        <ele>19.3</ele>
        <time>2022-04-15T15:45:31.000Z</time>
      </trkpt>
      <trkpt lat="50.46942" lon="3.44209">
        <ele>19.6</ele>
        <time>2022-04-15T15:45:33.000Z</time>
      </trkpt>
      <trkpt lat="50.46937" lon="3.44217">
        <ele>19.9</ele>
        <time>2022-04-15T15:45:35.000Z</time>
      </trkpt>
      <trkpt lat="50.46932" lon="3.44225">
        <ele>20</ele>
        <time>2022-04-15T15:45:37.000Z</time>
      </trkpt>
      <trkpt lat="50.46927" lon="3.44232">
        <ele>20</ele>
        <time>2022-04-15T15:45:39.000Z</time>
      </trkpt>
      <trkpt lat="50.46923" lon="3.44238">
        <ele>20</ele>
        <time>2022-04-15T15:45:41.018Z</time>
      </trkpt>
      <trkpt lat="50.4692" lon="3.44244">
        <ele>20</ele>
        <time>2022-04-15T15:45:42.000Z</time>
      </trkpt>
      <trkpt lat="50.46914" lon="3.44252">
        <ele>20</ele>
        <time>2022-04-15T15:45:44.000Z</time>
      </trkpt>
      <trkpt lat="50.46909" lon="3.4426">
        <ele>19.9</ele>
        <time>2022-04-15T15:45:46.000Z</time>
      </trkpt>
      <trkpt lat="50.46903" lon="3.44268">
        <ele>19.7</ele>
        <time>2022-04-15T15:45:48.000Z</time>
      </trkpt>
      <trkpt lat="50.46896" lon="3.44277">
        <ele>19.3</ele>
        <time>2022-04-15T15:45:50.000Z</time>
      </trkpt>
      <trkpt lat="50.46891" lon="3.44287">
        <ele>19.1</ele>
        <time>2022-04-15T15:45:52.000Z</time>
      </trkpt>
      <trkpt lat="50.46889" lon="3.44294">
        <ele>19</ele>
        <time>2022-04-15T15:45:53.000Z</time>
      </trkpt>
      <trkpt lat="50.46887" lon="3.443">
        <ele>19</ele>
        <time>2022-04-15T15:45:54.000Z</time>
      </trkpt>
      <trkpt lat="50.46885" lon="3.44308">
        <ele>19</ele>
        <time>2022-04-15T15:45:55.000Z</time>
      </trkpt>
      <trkpt lat="50.46883" lon="3.44315">
        <ele>19</ele>
        <time>2022-04-15T15:45:56.000Z</time>
      </trkpt>
      <trkpt lat="50.4688" lon="3.44323">
        <ele>19</ele>
        <time>2022-04-15T15:45:57.000Z</time>
      </trkpt>
      <trkpt lat="50.46878" lon="3.44331">
        <ele>19</ele>
        <time>2022-04-15T15:45:58.000Z</time>
      </trkpt>
      <trkpt lat="50.46875" lon="3.44339">
        <ele>19</ele>
        <time>2022-04-15T15:45:59.000Z</time>
      </trkpt>
      <trkpt lat="50.46873" lon="3.44347">
        <ele>19</ele>
        <time>2022-04-15T15:46:00.000Z</time>
      </trkpt>
      <trkpt lat="50.46871" lon="3.44357">
        <ele>19</ele>
        <time>2022-04-15T15:46:01.000Z</time>
      </trkpt>
      <trkpt lat="50.46869" lon="3.44364">
        <ele>18.9</ele>
        <time>2022-04-15T15:46:02.000Z</time>
      </trkpt>
      <trkpt lat="50.46866" lon="3.44372">
        <ele>18.7</ele>
        <time>2022-04-15T15:46:03.000Z</time>
      </trkpt>
      <trkpt lat="50.46864" lon="3.44381">
        <ele>18.4</ele>
        <time>2022-04-15T15:46:04.000Z</time>
      </trkpt>
      <trkpt lat="50.46862" lon="3.44389">
        <ele>18</ele>
        <time>2022-04-15T15:46:05.000Z</time>
      </trkpt>
      <trkpt lat="50.46859" lon="3.44398">
        <ele>18</ele>
        <time>2022-04-15T15:46:06.000Z</time>
      </trkpt>
      <trkpt lat="50.46856" lon="3.44406">
        <ele>18</ele>
        <time>2022-04-15T15:46:07.000Z</time>
      </trkpt>
      <trkpt lat="50.46853" lon="3.44416">
        <ele>18</ele>
        <time>2022-04-15T15:46:08.000Z</time>
      </trkpt>
      <trkpt lat="50.4685" lon="3.44424">
        <ele>18</ele>
        <time>2022-04-15T15:46:09.000Z</time>
      </trkpt>
      <trkpt lat="50.46848" lon="3.44433">
        <ele>18</ele>
        <time>2022-04-15T15:46:10.000Z</time>
      </trkpt>
      <trkpt lat="50.46844" lon="3.44442">
        <ele>18</ele>
        <time>2022-04-15T15:46:11.000Z</time>
      </trkpt>
      <trkpt lat="50.46841" lon="3.44451">
        <ele>17.8</ele>
        <time>2022-04-15T15:46:12.000Z</time>
      </trkpt>
      <trkpt lat="50.46838" lon="3.4446">
        <ele>17.5</ele>
        <time>2022-04-15T15:46:13.000Z</time>
      </trkpt>
      <trkpt lat="50.46835" lon="3.44469">
        <ele>17.2</ele>
        <time>2022-04-15T15:46:14.000Z</time>
      </trkpt>
      <trkpt lat="50.46832" lon="3.44478">
        <ele>17</ele>
        <time>2022-04-15T15:46:15.000Z</time>
      </trkpt>
      <trkpt lat="50.4683" lon="3.44486">
        <ele>17</ele>
        <time>2022-04-15T15:46:16.000Z</time>
      </trkpt>
      <trkpt lat="50.46829" lon="3.44496">
        <ele>17</ele>
        <time>2022-04-15T15:46:17.000Z</time>
      </trkpt>
      <trkpt lat="50.46828" lon="3.44506">
        <ele>17</ele>
        <time>2022-04-15T15:46:18.000Z</time>
      </trkpt>
      <trkpt lat="50.46827" lon="3.44515">
        <ele>17</ele>
        <time>2022-04-15T15:46:19.000Z</time>
      </trkpt>
      <trkpt lat="50.46827" lon="3.44525">
        <ele>17</ele>
        <time>2022-04-15T15:46:20.000Z</time>
      </trkpt>
      <trkpt lat="50.46827" lon="3.44534">
        <ele>17</ele>
        <time>2022-04-15T15:46:21.000Z</time>
      </trkpt>
      <trkpt lat="50.46826" lon="3.44544">
        <ele>17</ele>
        <time>2022-04-15T15:46:22.000Z</time>
      </trkpt>
      <trkpt lat="50.46826" lon="3.44556">
        <ele>17</ele>
        <time>2022-04-15T15:46:23.000Z</time>
      </trkpt>
      <trkpt lat="50.46826" lon="3.44563">
        <ele>17</ele>
        <time>2022-04-15T15:46:24.000Z</time>
      </trkpt>
      <trkpt lat="50.46826" lon="3.44571">
        <ele>17</ele>
        <time>2022-04-15T15:46:25.000Z</time>
      </trkpt>
      <trkpt lat="50.46826" lon="3.4458">
        <ele>17</ele>
        <time>2022-04-15T15:46:26.000Z</time>
      </trkpt>
      <trkpt lat="50.46826" lon="3.44589">
        <ele>17</ele>
        <time>2022-04-15T15:46:27.000Z</time>
      </trkpt>
      <trkpt lat="50.46826" lon="3.44598">
        <ele>17</ele>
        <time>2022-04-15T15:46:28.000Z</time>
      </trkpt>
      <trkpt lat="50.46826" lon="3.44609">
        <ele>17</ele>
        <time>2022-04-15T15:46:29.000Z</time>
      </trkpt>
      <trkpt lat="50.46826" lon="3.44617">
        <ele>17</ele>
        <time>2022-04-15T15:46:30.000Z</time>
      </trkpt>
      <trkpt lat="50.46825" lon="3.44626">
        <ele>17</ele>
        <time>2022-04-15T15:46:31.000Z</time>
      </trkpt>
      <trkpt lat="50.46824" lon="3.44635">
        <ele>17</ele>
        <time>2022-04-15T15:46:32.000Z</time>
      </trkpt>
      <trkpt lat="50.46823" lon="3.44644">
        <ele>17</ele>
        <time>2022-04-15T15:46:33.000Z</time>
      </trkpt>
      <trkpt lat="50.46822" lon="3.44652">
        <ele>17</ele>
        <time>2022-04-15T15:46:34.000Z</time>
      </trkpt>
      <trkpt lat="50.4682" lon="3.44661">
        <ele>17</ele>
        <time>2022-04-15T15:46:35.000Z</time>
      </trkpt>
      <trkpt lat="50.46819" lon="3.4467">
        <ele>17.1</ele>
        <time>2022-04-15T15:46:36.000Z</time>
      </trkpt>
      <trkpt lat="50.46817" lon="3.4468">
        <ele>17.2</ele>
        <time>2022-04-15T15:46:37.000Z</time>
      </trkpt>
      <trkpt lat="50.46815" lon="3.44695">
        <ele>17.3</ele>
        <time>2022-04-15T15:46:39.000Z</time>
      </trkpt>
      <trkpt lat="50.46814" lon="3.44702">
        <ele>17.3</ele>
        <time>2022-04-15T15:46:40.000Z</time>
      </trkpt>
      <trkpt lat="50.46813" lon="3.44711">
        <ele>17.3</ele>
        <time>2022-04-15T15:46:41.000Z</time>
      </trkpt>
      <trkpt lat="50.46811" lon="3.44718">
        <ele>17.2</ele>
        <time>2022-04-15T15:46:42.000Z</time>
      </trkpt>
      <trkpt lat="50.4681" lon="3.44725">
        <ele>17.2</ele>
        <time>2022-04-15T15:46:43.000Z</time>
      </trkpt>
      <trkpt lat="50.46809" lon="3.44733">
        <ele>17.1</ele>
        <time>2022-04-15T15:46:44.000Z</time>
      </trkpt>
      <trkpt lat="50.46808" lon="3.4474">
        <ele>17.1</ele>
        <time>2022-04-15T15:46:45.000Z</time>
      </trkpt>
      <trkpt lat="50.46807" lon="3.44748">
        <ele>17.1</ele>
        <time>2022-04-15T15:46:46.000Z</time>
      </trkpt>
      <trkpt lat="50.46805" lon="3.44756">
        <ele>17</ele>
        <time>2022-04-15T15:46:47.000Z</time>
      </trkpt>
      <trkpt lat="50.46804" lon="3.44764">
        <ele>17</ele>
        <time>2022-04-15T15:46:48.000Z</time>
      </trkpt>
      <trkpt lat="50.46803" lon="3.44771">
        <ele>17</ele>
        <time>2022-04-15T15:46:49.000Z</time>
      </trkpt>
      <trkpt lat="50.46802" lon="3.44779">
        <ele>17</ele>
        <time>2022-04-15T15:46:50.000Z</time>
      </trkpt>
      <trkpt lat="50.468" lon="3.44786">
        <ele>17</ele>
        <time>2022-04-15T15:46:51.000Z</time>
      </trkpt>
      <trkpt lat="50.46799" lon="3.44795">
        <ele>17</ele>
        <time>2022-04-15T15:46:52.000Z</time>
      </trkpt>
      <trkpt lat="50.46797" lon="3.44808">
        <ele>17</ele>
        <time>2022-04-15T15:46:54.000Z</time>
      </trkpt>
      <trkpt lat="50.46797" lon="3.44815">
        <ele>17</ele>
        <time>2022-04-15T15:46:55.000Z</time>
      </trkpt>
      <trkpt lat="50.46796" lon="3.44823">
        <ele>17</ele>
        <time>2022-04-15T15:46:56.000Z</time>
      </trkpt>
      <trkpt lat="50.46794" lon="3.44831">
        <ele>17</ele>
        <time>2022-04-15T15:46:57.000Z</time>
      </trkpt>
      <trkpt lat="50.46791" lon="3.44844">
        <ele>17</ele>
        <time>2022-04-15T15:46:59.000Z</time>
      </trkpt>
      <trkpt lat="50.4679" lon="3.44857">
        <ele>17</ele>
        <time>2022-04-15T15:47:01.000Z</time>
      </trkpt>
      <trkpt lat="50.46789" lon="3.4487">
        <ele>17</ele>
        <time>2022-04-15T15:47:03.000Z</time>
      </trkpt>
      <trkpt lat="50.46788" lon="3.44881">
        <ele>17</ele>
        <time>2022-04-15T15:47:05.000Z</time>
      </trkpt>
      <trkpt lat="50.46787" lon="3.44891">
        <ele>17</ele>
        <time>2022-04-15T15:47:07.026Z</time>
      </trkpt>
      <trkpt lat="50.46786" lon="3.44899">
        <ele>17</ele>
        <time>2022-04-15T15:47:08.000Z</time>
      </trkpt>
      <trkpt lat="50.46783" lon="3.44912">
        <ele>17</ele>
        <time>2022-04-15T15:47:10.000Z</time>
      </trkpt>
      <trkpt lat="50.4678" lon="3.44924">
        <ele>17</ele>
        <time>2022-04-15T15:47:12.000Z</time>
      </trkpt>
      <trkpt lat="50.46779" lon="3.44931">
        <ele>17</ele>
        <time>2022-04-15T15:47:13.000Z</time>
      </trkpt>
      <trkpt lat="50.46778" lon="3.44938">
        <ele>17</ele>
        <time>2022-04-15T15:47:14.000Z</time>
      </trkpt>
      <trkpt lat="50.46776" lon="3.44949">
        <ele>17</ele>
        <time>2022-04-15T15:47:15.813Z</time>
      </trkpt>
      <trkpt lat="50.46775" lon="3.44956">
        <ele>17</ele>
        <time>2022-04-15T15:47:17.000Z</time>
      </trkpt>
      <trkpt lat="50.46774" lon="3.44963">
        <ele>17</ele>
        <time>2022-04-15T15:47:18.000Z</time>
      </trkpt>
      <trkpt lat="50.46771" lon="3.44976">
        <ele>17</ele>
        <time>2022-04-15T15:47:20.000Z</time>
      </trkpt>
      <trkpt lat="50.4677" lon="3.44983">
        <ele>17</ele>
        <time>2022-04-15T15:47:21.018Z</time>
      </trkpt>
      <trkpt lat="50.46768" lon="3.44991">
        <ele>17</ele>
        <time>2022-04-15T15:47:22.073Z</time>
      </trkpt>
      <trkpt lat="50.46765" lon="3.45004">
        <ele>17</ele>
        <time>2022-04-15T15:47:24.000Z</time>
      </trkpt>
      <trkpt lat="50.46762" lon="3.45016">
        <ele>17</ele>
        <time>2022-04-15T15:47:26.000Z</time>
      </trkpt>
      <trkpt lat="50.46758" lon="3.45029">
        <ele>17</ele>
        <time>2022-04-15T15:47:28.000Z</time>
      </trkpt>
      <trkpt lat="50.46755" lon="3.45035">
        <ele>17</ele>
        <time>2022-04-15T15:47:29.000Z</time>
      </trkpt>
      <trkpt lat="50.46748" lon="3.45051">
        <ele>17</ele>
        <time>2022-04-15T15:47:32.000Z</time>
      </trkpt>
      <trkpt lat="50.46744" lon="3.45062">
        <ele>17</ele>
        <time>2022-04-15T15:47:34.269Z</time>
      </trkpt>
      <trkpt lat="50.4674" lon="3.45068">
        <ele>17</ele>
        <time>2022-04-15T15:47:35.773Z</time>
      </trkpt>
      <trkpt lat="50.46738" lon="3.45077">
        <ele>17</ele>
        <time>2022-04-15T15:47:37.000Z</time>
      </trkpt>
      <trkpt lat="50.46732" lon="3.45085">
        <ele>17</ele>
        <time>2022-04-15T15:47:39.000Z</time>
      </trkpt>
      <trkpt lat="50.46728" lon="3.45088">
        <ele>17</ele>
        <time>2022-04-15T15:47:40.000Z</time>
      </trkpt>
      <trkpt lat="50.46723" lon="3.45091">
        <ele>17</ele>
        <time>2022-04-15T15:47:41.000Z</time>
      </trkpt>
      <trkpt lat="50.46719" lon="3.45096">
        <ele>17</ele>
        <time>2022-04-15T15:47:42.000Z</time>
      </trkpt>
      <trkpt lat="50.46713" lon="3.45102">
        <ele>17</ele>
        <time>2022-04-15T15:47:44.000Z</time>
      </trkpt>
      <trkpt lat="50.46706" lon="3.4511">
        <ele>17</ele>
        <time>2022-04-15T15:47:46.000Z</time>
      </trkpt>
      <trkpt lat="50.46699" lon="3.45122">
        <ele>17</ele>
        <time>2022-04-15T15:47:48.000Z</time>
      </trkpt>
      <trkpt lat="50.46694" lon="3.45129">
        <ele>17</ele>
        <time>2022-04-15T15:47:50.000Z</time>
      </trkpt>
      <trkpt lat="50.4669" lon="3.45133">
        <ele>17</ele>
        <time>2022-04-15T15:47:51.000Z</time>
      </trkpt>
      <trkpt lat="50.46684" lon="3.4514">
        <ele>17</ele>
        <time>2022-04-15T15:47:53.000Z</time>
      </trkpt>
      <trkpt lat="50.4668" lon="3.45144">
        <ele>17</ele>
        <time>2022-04-15T15:47:55.000Z</time>
      </trkpt>
      <trkpt lat="50.46677" lon="3.4515">
        <ele>17</ele>
        <time>2022-04-15T15:47:56.000Z</time>
      </trkpt>
      <trkpt lat="50.46672" lon="3.45156">
        <ele>17</ele>
        <time>2022-04-15T15:47:57.449Z</time>
      </trkpt>
      <trkpt lat="50.46667" lon="3.45164">
        <ele>17</ele>
        <time>2022-04-15T15:47:59.000Z</time>
      </trkpt>
      <trkpt lat="50.46661" lon="3.45171">
        <ele>17</ele>
        <time>2022-04-15T15:48:01.000Z</time>
      </trkpt>
      <trkpt lat="50.46657" lon="3.45175">
        <ele>17</ele>
        <time>2022-04-15T15:48:02.000Z</time>
      </trkpt>
      <trkpt lat="50.46651" lon="3.45183">
        <ele>17</ele>
        <time>2022-04-15T15:48:04.000Z</time>
      </trkpt>
      <trkpt lat="50.46646" lon="3.4519">
        <ele>17</ele>
        <time>2022-04-15T15:48:06.000Z</time>
      </trkpt>
      <trkpt lat="50.46643" lon="3.45195">
        <ele>17</ele>
        <time>2022-04-15T15:48:07.000Z</time>
      </trkpt>
      <trkpt lat="50.46636" lon="3.45204">
        <ele>16.9</ele>
        <time>2022-04-15T15:48:09.000Z</time>
      </trkpt>
      <trkpt lat="50.4663" lon="3.45212">
        <ele>16.9</ele>
        <time>2022-04-15T15:48:11.000Z</time>
      </trkpt>
      <trkpt lat="50.46623" lon="3.45221">
        <ele>17</ele>
        <time>2022-04-15T15:48:13.000Z</time>
      </trkpt>
      <trkpt lat="50.4662" lon="3.45226">
        <ele>17</ele>
        <time>2022-04-15T15:48:14.000Z</time>
      </trkpt>
      <trkpt lat="50.46615" lon="3.45231">
        <ele>17</ele>
        <time>2022-04-15T15:48:15.000Z</time>
      </trkpt>
      <trkpt lat="50.46611" lon="3.45239">
        <ele>17</ele>
        <time>2022-04-15T15:48:17.000Z</time>
      </trkpt>
      <trkpt lat="50.46613" lon="3.45247">
        <ele>16.9</ele>
        <time>2022-04-15T15:48:20.409Z</time>
      </trkpt>
      <trkpt lat="50.46614" lon="3.45255">
        <ele>16.9</ele>
        <time>2022-04-15T15:48:22.000Z</time>
      </trkpt>
      <trkpt lat="50.46613" lon="3.45264">
        <ele>16.9</ele>
        <time>2022-04-15T15:48:24.000Z</time>
      </trkpt>
      <trkpt lat="50.46613" lon="3.45276">
        <ele>16.9</ele>
        <time>2022-04-15T15:48:26.000Z</time>
      </trkpt>
      <trkpt lat="50.46615" lon="3.45293">
        <ele>16.9</ele>
        <time>2022-04-15T15:48:29.000Z</time>
      </trkpt>
      <trkpt lat="50.46619" lon="3.45305">
        <ele>16.7</ele>
        <time>2022-04-15T15:48:31.000Z</time>
      </trkpt>
      <trkpt lat="50.46624" lon="3.45315">
        <ele>16.9</ele>
        <time>2022-04-15T15:48:33.000Z</time>
      </trkpt>
      <trkpt lat="50.46627" lon="3.45321">
        <ele>17</ele>
        <time>2022-04-15T15:48:34.000Z</time>
      </trkpt>
      <trkpt lat="50.4663" lon="3.45326">
        <ele>17.1</ele>
        <time>2022-04-15T15:48:35.000Z</time>
      </trkpt>
      <trkpt lat="50.46634" lon="3.45332">
        <ele>17.1</ele>
        <time>2022-04-15T15:48:36.092Z</time>
      </trkpt>
      <trkpt lat="50.46638" lon="3.45338">
        <ele>17</ele>
        <time>2022-04-15T15:48:37.000Z</time>
      </trkpt>
      <trkpt lat="50.46641" lon="3.45344">
        <ele>16.9</ele>
        <time>2022-04-15T15:48:38.000Z</time>
      </trkpt>
      <trkpt lat="50.46646" lon="3.45351">
        <ele>16.7</ele>
        <time>2022-04-15T15:48:39.000Z</time>
      </trkpt>
      <trkpt lat="50.46649" lon="3.45356">
        <ele>16.6</ele>
        <time>2022-04-15T15:48:40.000Z</time>
      </trkpt>
      <trkpt lat="50.46653" lon="3.45361">
        <ele>16.5</ele>
        <time>2022-04-15T15:48:41.000Z</time>
      </trkpt>
      <trkpt lat="50.46657" lon="3.45367">
        <ele>16.5</ele>
        <time>2022-04-15T15:48:42.000Z</time>
      </trkpt>
      <trkpt lat="50.46661" lon="3.45372">
        <ele>16.5</ele>
        <time>2022-04-15T15:48:43.000Z</time>
      </trkpt>
      <trkpt lat="50.46665" lon="3.45379">
        <ele>16.7</ele>
        <time>2022-04-15T15:48:44.000Z</time>
      </trkpt>
      <trkpt lat="50.46669" lon="3.45385">
        <ele>16.8</ele>
        <time>2022-04-15T15:48:45.000Z</time>
      </trkpt>
      <trkpt lat="50.46674" lon="3.45391">
        <ele>16.8</ele>
        <time>2022-04-15T15:48:46.000Z</time>
      </trkpt>
      <trkpt lat="50.46678" lon="3.45395">
        <ele>16.7</ele>
        <time>2022-04-15T15:48:47.000Z</time>
      </trkpt>
      <trkpt lat="50.46683" lon="3.45399">
        <ele>16.6</ele>
        <time>2022-04-15T15:48:48.000Z</time>
      </trkpt>
      <trkpt lat="50.46688" lon="3.45404">
        <ele>16.6</ele>
        <time>2022-04-15T15:48:49.000Z</time>
      </trkpt>
      <trkpt lat="50.46693" lon="3.45408">
        <ele>16.7</ele>
        <time>2022-04-15T15:48:50.000Z</time>
      </trkpt>
      <trkpt lat="50.46698" lon="3.45412">
        <ele>16.7</ele>
        <time>2022-04-15T15:48:51.000Z</time>
      </trkpt>
      <trkpt lat="50.46703" lon="3.45416">
        <ele>16.7</ele>
        <time>2022-04-15T15:48:52.000Z</time>
      </trkpt>
      <trkpt lat="50.46711" lon="3.45422">
        <ele>16.5</ele>
        <time>2022-04-15T15:48:54.000Z</time>
      </trkpt>
      <trkpt lat="50.46715" lon="3.45425">
        <ele>16.5</ele>
        <time>2022-04-15T15:48:55.000Z</time>
      </trkpt>
      <trkpt lat="50.46719" lon="3.45429">
        <ele>16.5</ele>
        <time>2022-04-15T15:48:56.000Z</time>
      </trkpt>
      <trkpt lat="50.46719" lon="3.45438">
        <ele>16.8</ele>
        <time>2022-04-15T15:48:58.000Z</time>
      </trkpt>
      <trkpt lat="50.46718" lon="3.45449">
        <ele>17</ele>
        <time>2022-04-15T15:49:00.000Z</time>
      </trkpt>
      <trkpt lat="50.46722" lon="3.45458">
        <ele>17</ele>
        <time>2022-04-15T15:49:02.000Z</time>
      </trkpt>
      <trkpt lat="50.46724" lon="3.45466">
        <ele>17</ele>
        <time>2022-04-15T15:49:04.000Z</time>
      </trkpt>
      <trkpt lat="50.46728" lon="3.45477">
        <ele>17</ele>
        <time>2022-04-15T15:49:05.958Z</time>
      </trkpt>
      <trkpt lat="50.46729" lon="3.45484">
        <ele>17</ele>
        <time>2022-04-15T15:49:07.000Z</time>
      </trkpt>
      <trkpt lat="50.46731" lon="3.45491">
        <ele>17</ele>
        <time>2022-04-15T15:49:08.000Z</time>
      </trkpt>
      <trkpt lat="50.46732" lon="3.45499">
        <ele>17</ele>
        <time>2022-04-15T15:49:09.191Z</time>
      </trkpt>
      <trkpt lat="50.46734" lon="3.45507">
        <ele>17.1</ele>
        <time>2022-04-15T15:49:10.493Z</time>
      </trkpt>
      <trkpt lat="50.46736" lon="3.45514">
        <ele>17.2</ele>
        <time>2022-04-15T15:49:11.645Z</time>
      </trkpt>
      <trkpt lat="50.46737" lon="3.45522">
        <ele>17.4</ele>
        <time>2022-04-15T15:49:13.090Z</time>
      </trkpt>
      <trkpt lat="50.46738" lon="3.4553">
        <ele>17.6</ele>
        <time>2022-04-15T15:49:14.272Z</time>
      </trkpt>
      <trkpt lat="50.46741" lon="3.4554">
        <ele>17.8</ele>
        <time>2022-04-15T15:49:16.000Z</time>
      </trkpt>
      <trkpt lat="50.46742" lon="3.45551">
        <ele>18</ele>
        <time>2022-04-15T15:49:18.151Z</time>
      </trkpt>
      <trkpt lat="50.46745" lon="3.45563">
        <ele>18</ele>
        <time>2022-04-15T15:49:20.000Z</time>
      </trkpt>
      <trkpt lat="50.46748" lon="3.45572">
        <ele>18</ele>
        <time>2022-04-15T15:49:21.992Z</time>
      </trkpt>
      <trkpt lat="50.4675" lon="3.45581">
        <ele>18</ele>
        <time>2022-04-15T15:49:24.000Z</time>
      </trkpt>
      <trkpt lat="50.46756" lon="3.45597">
        <ele>18.5</ele>
        <time>2022-04-15T15:49:27.000Z</time>
      </trkpt>
      <trkpt lat="50.46759" lon="3.45603">
        <ele>18.7</ele>
        <time>2022-04-15T15:49:29.000Z</time>
      </trkpt>
      <trkpt lat="50.46763" lon="3.45614">
        <ele>18.9</ele>
        <time>2022-04-15T15:49:31.000Z</time>
      </trkpt>
      <trkpt lat="50.46767" lon="3.45623">
        <ele>19</ele>
        <time>2022-04-15T15:49:33.000Z</time>
      </trkpt>
      <trkpt lat="50.4677" lon="3.45629">
        <ele>19</ele>
        <time>2022-04-15T15:49:35.000Z</time>
      </trkpt>
      <trkpt lat="50.46775" lon="3.45636">
        <ele>19</ele>
        <time>2022-04-15T15:49:37.000Z</time>
      </trkpt>
      <trkpt lat="50.46777" lon="3.45643">
        <ele>19</ele>
        <time>2022-04-15T15:49:38.000Z</time>
      </trkpt>
      <trkpt lat="50.46781" lon="3.45652">
        <ele>19.4</ele>
        <time>2022-04-15T15:49:42.000Z</time>
      </trkpt>
      <trkpt lat="50.46785" lon="3.45656">
        <ele>19.8</ele>
        <time>2022-04-15T15:49:44.000Z</time>
      </trkpt>
      <trkpt lat="50.4679" lon="3.45665">
        <ele>19.6</ele>
        <time>2022-04-15T15:49:46.000Z</time>
      </trkpt>
      <trkpt lat="50.46793" lon="3.45672">
        <ele>19.5</ele>
        <time>2022-04-15T15:49:48.000Z</time>
      </trkpt>
      <trkpt lat="50.46798" lon="3.45679">
        <ele>19.6</ele>
        <time>2022-04-15T15:49:50.000Z</time>
      </trkpt>
      <trkpt lat="50.468" lon="3.45686">
        <ele>19.7</ele>
        <time>2022-04-15T15:49:51.583Z</time>
      </trkpt>
      <trkpt lat="50.46806" lon="3.45695">
        <ele>20</ele>
        <time>2022-04-15T15:49:54.000Z</time>
      </trkpt>
      <trkpt lat="50.46812" lon="3.457">
        <ele>19.9</ele>
        <time>2022-04-15T15:49:56.000Z</time>
      </trkpt>
      <trkpt lat="50.46818" lon="3.4571">
        <ele>19.6</ele>
        <time>2022-04-15T15:49:58.000Z</time>
      </trkpt>
      <trkpt lat="50.46824" lon="3.45716">
        <ele>19.6</ele>
        <time>2022-04-15T15:50:00.000Z</time>
      </trkpt>
      <trkpt lat="50.46833" lon="3.45727">
        <ele>19.8</ele>
        <time>2022-04-15T15:50:03.175Z</time>
      </trkpt>
      <trkpt lat="50.46838" lon="3.45731">
        <ele>19.9</ele>
        <time>2022-04-15T15:50:05.114Z</time>
      </trkpt>
      <trkpt lat="50.46845" lon="3.45739">
        <ele>19.8</ele>
        <time>2022-04-15T15:50:07.000Z</time>
      </trkpt>
      <trkpt lat="50.46849" lon="3.45744">
        <ele>19.8</ele>
        <time>2022-04-15T15:50:08.000Z</time>
      </trkpt>
      <trkpt lat="50.46857" lon="3.45754">
        <ele>19.7</ele>
        <time>2022-04-15T15:50:11.000Z</time>
      </trkpt>
      <trkpt lat="50.46861" lon="3.45762">
        <ele>19.6</ele>
        <time>2022-04-15T15:50:12.512Z</time>
      </trkpt>
      <trkpt lat="50.46869" lon="3.45775">
        <ele>19.4</ele>
        <time>2022-04-15T15:50:15.154Z</time>
      </trkpt>
      <trkpt lat="50.46875" lon="3.45785">
        <ele>19.2</ele>
        <time>2022-04-15T15:50:17.000Z</time>
      </trkpt>
      <trkpt lat="50.46878" lon="3.45791">
        <ele>19.1</ele>
        <time>2022-04-15T15:50:18.000Z</time>
      </trkpt>
      <trkpt lat="50.46883" lon="3.458">
        <ele>19</ele>
        <time>2022-04-15T15:50:20.000Z</time>
      </trkpt>
      <trkpt lat="50.46887" lon="3.45807">
        <ele>18.9</ele>
        <time>2022-04-15T15:50:20.952Z</time>
      </trkpt>
      <trkpt lat="50.46891" lon="3.45814">
        <ele>19</ele>
        <time>2022-04-15T15:50:23.114Z</time>
      </trkpt>
      <trkpt lat="50.46897" lon="3.45823">
        <ele>19</ele>
        <time>2022-04-15T15:50:25.000Z</time>
      </trkpt>
      <trkpt lat="50.46909" lon="3.45843">
        <ele>18.9</ele>
        <time>2022-04-15T15:50:29.000Z</time>
      </trkpt>
      <trkpt lat="50.46912" lon="3.45849">
        <ele>18.9</ele>
        <time>2022-04-15T15:50:30.000Z</time>
      </trkpt>
      <trkpt lat="50.46916" lon="3.45855">
        <ele>19</ele>
        <time>2022-04-15T15:50:31.000Z</time>
      </trkpt>
      <trkpt lat="50.4692" lon="3.45861">
        <ele>19</ele>
        <time>2022-04-15T15:50:32.000Z</time>
      </trkpt>
      <trkpt lat="50.46925" lon="3.45871">
        <ele>18.8</ele>
        <time>2022-04-15T15:50:34.000Z</time>
      </trkpt>
      <trkpt lat="50.4693" lon="3.45878">
        <ele>18.7</ele>
        <time>2022-04-15T15:50:36.000Z</time>
      </trkpt>
      <trkpt lat="50.46935" lon="3.45886">
        <ele>18.7</ele>
        <time>2022-04-15T15:50:38.077Z</time>
      </trkpt>
      <trkpt lat="50.46941" lon="3.45887">
        <ele>18.9</ele>
        <time>2022-04-15T15:50:40.000Z</time>
      </trkpt>
      <trkpt lat="50.46945" lon="3.45905">
        <ele>19</ele>
        <time>2022-04-15T15:50:41.000Z</time>
      </trkpt>
      <trkpt lat="50.46949" lon="3.45914">
        <ele>19</ele>
        <time>2022-04-15T15:50:43.085Z</time>
      </trkpt>
      <trkpt lat="50.46956" lon="3.45927">
        <ele>18.8</ele>
        <time>2022-04-15T15:50:45.000Z</time>
      </trkpt>
      <trkpt lat="50.4696" lon="3.45938">
        <ele>18.7</ele>
        <time>2022-04-15T15:50:47.168Z</time>
      </trkpt>
      <trkpt lat="50.46966" lon="3.45952">
        <ele>18.6</ele>
        <time>2022-04-15T15:50:49.000Z</time>
      </trkpt>
      <trkpt lat="50.46969" lon="3.45958">
        <ele>18.5</ele>
        <time>2022-04-15T15:50:50.000Z</time>
      </trkpt>
      <trkpt lat="50.4697" lon="3.45965">
        <ele>18.2</ele>
        <time>2022-04-15T15:50:51.639Z</time>
      </trkpt>
      <trkpt lat="50.46976" lon="3.45974">
        <ele>18</ele>
        <time>2022-04-15T15:50:53.000Z</time>
      </trkpt>
      <trkpt lat="50.46978" lon="3.45981">
        <ele>18</ele>
        <time>2022-04-15T15:50:54.000Z</time>
      </trkpt>
      <trkpt lat="50.4698" lon="3.45988">
        <ele>18</ele>
        <time>2022-04-15T15:50:55.000Z</time>
      </trkpt>
      <trkpt lat="50.46982" lon="3.45996">
        <ele>18</ele>
        <time>2022-04-15T15:50:56.000Z</time>
      </trkpt>
      <trkpt lat="50.46983" lon="3.46004">
        <ele>18</ele>
        <time>2022-04-15T15:50:57.000Z</time>
      </trkpt>
      <trkpt lat="50.46983" lon="3.46012">
        <ele>18</ele>
        <time>2022-04-15T15:50:58.000Z</time>
      </trkpt>
      <trkpt lat="50.46982" lon="3.46027">
        <ele>18</ele>
        <time>2022-04-15T15:51:00.000Z</time>
      </trkpt>
      <trkpt lat="50.46981" lon="3.4604">
        <ele>17.6</ele>
        <time>2022-04-15T15:51:02.000Z</time>
      </trkpt>
      <trkpt lat="50.4698" lon="3.46055">
        <ele>17</ele>
        <time>2022-04-15T15:51:04.000Z</time>
      </trkpt>
      <trkpt lat="50.46979" lon="3.46062">
        <ele>17.2</ele>
        <time>2022-04-15T15:51:05.000Z</time>
      </trkpt>
      <trkpt lat="50.46978" lon="3.46069">
        <ele>17.4</ele>
        <time>2022-04-15T15:51:06.000Z</time>
      </trkpt>
      <trkpt lat="50.46977" lon="3.46076">
        <ele>17.6</ele>
        <time>2022-04-15T15:51:07.000Z</time>
      </trkpt>
      <trkpt lat="50.46976" lon="3.46096">
        <ele>17.9</ele>
        <time>2022-04-15T15:51:10.000Z</time>
      </trkpt>
      <trkpt lat="50.46974" lon="3.46103">
        <ele>17.9</ele>
        <time>2022-04-15T15:51:11.000Z</time>
      </trkpt>
      <trkpt lat="50.46972" lon="3.46116">
        <ele>18</ele>
        <time>2022-04-15T15:51:13.000Z</time>
      </trkpt>
      <trkpt lat="50.46972" lon="3.46124">
        <ele>18</ele>
        <time>2022-04-15T15:51:14.000Z</time>
      </trkpt>
      <trkpt lat="50.46972" lon="3.46131">
        <ele>18</ele>
        <time>2022-04-15T15:51:15.000Z</time>
      </trkpt>
      <trkpt lat="50.46972" lon="3.46145">
        <ele>18</ele>
        <time>2022-04-15T15:51:17.000Z</time>
      </trkpt>
      <trkpt lat="50.46972" lon="3.46153">
        <ele>18</ele>
        <time>2022-04-15T15:51:18.000Z</time>
      </trkpt>
      <trkpt lat="50.46973" lon="3.46161">
        <ele>18</ele>
        <time>2022-04-15T15:51:19.000Z</time>
      </trkpt>
      <trkpt lat="50.46973" lon="3.4617">
        <ele>18</ele>
        <time>2022-04-15T15:51:20.000Z</time>
      </trkpt>
      <trkpt lat="50.46972" lon="3.46185">
        <ele>18</ele>
        <time>2022-04-15T15:51:22.000Z</time>
      </trkpt>
      <trkpt lat="50.46973" lon="3.462">
        <ele>17.8</ele>
        <time>2022-04-15T15:51:24.000Z</time>
      </trkpt>
      <trkpt lat="50.46972" lon="3.46214">
        <ele>17.3</ele>
        <time>2022-04-15T15:51:26.000Z</time>
      </trkpt>
      <trkpt lat="50.46969" lon="3.46227">
        <ele>17</ele>
        <time>2022-04-15T15:51:28.000Z</time>
      </trkpt>
      <trkpt lat="50.46968" lon="3.46236">
        <ele>17</ele>
        <time>2022-04-15T15:51:29.000Z</time>
      </trkpt>
      <trkpt lat="50.46967" lon="3.4625">
        <ele>17</ele>
        <time>2022-04-15T15:51:31.000Z</time>
      </trkpt>
      <trkpt lat="50.46965" lon="3.46262">
        <ele>17</ele>
        <time>2022-04-15T15:51:33.000Z</time>
      </trkpt>
      <trkpt lat="50.46963" lon="3.4627">
        <ele>17</ele>
        <time>2022-04-15T15:51:34.000Z</time>
      </trkpt>
      <trkpt lat="50.46962" lon="3.46281">
        <ele>17</ele>
        <time>2022-04-15T15:51:36.000Z</time>
      </trkpt>
      <trkpt lat="50.46958" lon="3.46295">
        <ele>17</ele>
        <time>2022-04-15T15:51:38.000Z</time>
      </trkpt>
      <trkpt lat="50.46955" lon="3.46306">
        <ele>17</ele>
        <time>2022-04-15T15:51:40.000Z</time>
      </trkpt>
      <trkpt lat="50.46958" lon="3.46319">
        <ele>17</ele>
        <time>2022-04-15T15:51:42.000Z</time>
      </trkpt>
      <trkpt lat="50.46963" lon="3.4632">
        <ele>17</ele>
        <time>2022-04-15T15:51:44.000Z</time>
      </trkpt>
      <trkpt lat="50.46968" lon="3.46325">
        <ele>17</ele>
        <time>2022-04-15T15:51:45.119Z</time>
      </trkpt>
      <trkpt lat="50.46973" lon="3.46334">
        <ele>17</ele>
        <time>2022-04-15T15:51:46.838Z</time>
      </trkpt>
      <trkpt lat="50.46976" lon="3.46342">
        <ele>17</ele>
        <time>2022-04-15T15:51:48.436Z</time>
      </trkpt>
      <trkpt lat="50.46982" lon="3.4635">
        <ele>17</ele>
        <time>2022-04-15T15:51:50.000Z</time>
      </trkpt>
      <trkpt lat="50.46988" lon="3.46355">
        <ele>17</ele>
        <time>2022-04-15T15:51:52.000Z</time>
      </trkpt>
      <trkpt lat="50.46998" lon="3.46367">
        <ele>17</ele>
        <time>2022-04-15T15:51:55.000Z</time>
      </trkpt>
      <trkpt lat="50.47002" lon="3.46374">
        <ele>17</ele>
        <time>2022-04-15T15:51:56.978Z</time>
      </trkpt>
      <trkpt lat="50.47005" lon="3.4638">
        <ele>17</ele>
        <time>2022-04-15T15:51:58.078Z</time>
      </trkpt>
      <trkpt lat="50.4701" lon="3.46385">
        <ele>17</ele>
        <time>2022-04-15T15:51:59.000Z</time>
      </trkpt>
      <trkpt lat="50.47016" lon="3.46395">
        <ele>17.1</ele>
        <time>2022-04-15T15:52:01.000Z</time>
      </trkpt>
      <trkpt lat="50.47018" lon="3.46401">
        <ele>17.3</ele>
        <time>2022-04-15T15:52:02.918Z</time>
      </trkpt>
      <trkpt lat="50.4702" lon="3.46408">
        <ele>17.5</ele>
        <time>2022-04-15T15:52:03.897Z</time>
      </trkpt>
      <trkpt lat="50.47022" lon="3.46415">
        <ele>17.7</ele>
        <time>2022-04-15T15:52:05.096Z</time>
      </trkpt>
      <trkpt lat="50.47026" lon="3.46426">
        <ele>18.2</ele>
        <time>2022-04-15T15:52:07.000Z</time>
      </trkpt>
      <trkpt lat="50.47028" lon="3.46436">
        <ele>18.7</ele>
        <time>2022-04-15T15:52:09.000Z</time>
      </trkpt>
      <trkpt lat="50.4703" lon="3.46443">
        <ele>18.7</ele>
        <time>2022-04-15T15:52:10.000Z</time>
      </trkpt>
      <trkpt lat="50.47032" lon="3.46456">
        <ele>18.3</ele>
        <time>2022-04-15T15:52:12.677Z</time>
      </trkpt>
      <trkpt lat="50.47033" lon="3.46467">
        <ele>17.9</ele>
        <time>2022-04-15T15:52:15.000Z</time>
      </trkpt>
      <trkpt lat="50.47036" lon="3.46481">
        <ele>17.4</ele>
        <time>2022-04-15T15:52:18.000Z</time>
      </trkpt>
      <trkpt lat="50.47037" lon="3.4649">
        <ele>17</ele>
        <time>2022-04-15T15:52:20.336Z</time>
      </trkpt>
      <trkpt lat="50.47037" lon="3.46503">
        <ele>16.7</ele>
        <time>2022-04-15T15:52:22.376Z</time>
      </trkpt>
      <trkpt lat="50.47037" lon="3.4651">
        <ele>16.9</ele>
        <time>2022-04-15T15:52:23.899Z</time>
      </trkpt>
      <trkpt lat="50.47037" lon="3.46523">
        <ele>17.2</ele>
        <time>2022-04-15T15:52:26.000Z</time>
      </trkpt>
      <trkpt lat="50.47036" lon="3.4653">
        <ele>17.5</ele>
        <time>2022-04-15T15:52:27.157Z</time>
      </trkpt>
      <trkpt lat="50.47033" lon="3.46546">
        <ele>18.2</ele>
        <time>2022-04-15T15:52:28.938Z</time>
      </trkpt>
      <trkpt lat="50.47031" lon="3.46556">
        <ele>18.7</ele>
        <time>2022-04-15T15:52:31.000Z</time>
      </trkpt>
      <trkpt lat="50.47028" lon="3.46566">
        <ele>19</ele>
        <time>2022-04-15T15:52:32.000Z</time>
      </trkpt>
      <trkpt lat="50.47022" lon="3.46582">
        <ele>18.6</ele>
        <time>2022-04-15T15:52:35.000Z</time>
      </trkpt>
      <trkpt lat="50.4702" lon="3.46588">
        <ele>18.2</ele>
        <time>2022-04-15T15:52:36.000Z</time>
      </trkpt>
      <trkpt lat="50.47018" lon="3.46596">
        <ele>17.7</ele>
        <time>2022-04-15T15:52:37.000Z</time>
      </trkpt>
      <trkpt lat="50.47012" lon="3.46606">
        <ele>17.2</ele>
        <time>2022-04-15T15:52:39.603Z</time>
      </trkpt>
      <trkpt lat="50.47009" lon="3.46613">
        <ele>17.2</ele>
        <time>2022-04-15T15:52:41.184Z</time>
      </trkpt>
      <trkpt lat="50.47002" lon="3.46631">
        <ele>19.7</ele>
        <time>2022-04-15T15:52:44.000Z</time>
      </trkpt>
      <trkpt lat="50.46998" lon="3.46643">
        <ele>20.2</ele>
        <time>2022-04-15T15:52:46.000Z</time>
      </trkpt>
      <trkpt lat="50.46997" lon="3.46651">
        <ele>19.3</ele>
        <time>2022-04-15T15:52:47.367Z</time>
      </trkpt>
      <trkpt lat="50.46996" lon="3.46659">
        <ele>18.4</ele>
        <time>2022-04-15T15:52:48.680Z</time>
      </trkpt>
      <trkpt lat="50.46994" lon="3.4667">
        <ele>17.6</ele>
        <time>2022-04-15T15:52:50.000Z</time>
      </trkpt>
      <trkpt lat="50.46992" lon="3.46678">
        <ele>17.5</ele>
        <time>2022-04-15T15:52:51.000Z</time>
      </trkpt>
      <trkpt lat="50.46991" lon="3.46687">
        <ele>17.6</ele>
        <time>2022-04-15T15:52:52.000Z</time>
      </trkpt>
      <trkpt lat="50.46989" lon="3.46696">
        <ele>17.7</ele>
        <time>2022-04-15T15:52:53.000Z</time>
      </trkpt>
      <trkpt lat="50.46988" lon="3.46705">
        <ele>18</ele>
        <time>2022-04-15T15:52:54.000Z</time>
      </trkpt>
      <trkpt lat="50.46987" lon="3.46715">
        <ele>18.3</ele>
        <time>2022-04-15T15:52:55.000Z</time>
      </trkpt>
      <trkpt lat="50.46988" lon="3.46724">
        <ele>18.7</ele>
        <time>2022-04-15T15:52:56.000Z</time>
      </trkpt>
      <trkpt lat="50.4699" lon="3.46734">
        <ele>18.8</ele>
        <time>2022-04-15T15:52:57.000Z</time>
      </trkpt>
      <trkpt lat="50.46993" lon="3.46744">
        <ele>19</ele>
        <time>2022-04-15T15:52:58.000Z</time>
      </trkpt>
      <trkpt lat="50.46997" lon="3.46753">
        <ele>19.3</ele>
        <time>2022-04-15T15:52:59.000Z</time>
      </trkpt>
      <trkpt lat="50.47001" lon="3.4676">
        <ele>18.9</ele>
        <time>2022-04-15T15:53:00.000Z</time>
      </trkpt>
      <trkpt lat="50.47005" lon="3.46769">
        <ele>17.9</ele>
        <time>2022-04-15T15:53:01.000Z</time>
      </trkpt>
      <trkpt lat="50.47009" lon="3.46777">
        <ele>17.4</ele>
        <time>2022-04-15T15:53:02.000Z</time>
      </trkpt>
      <trkpt lat="50.47014" lon="3.46787">
        <ele>17.5</ele>
        <time>2022-04-15T15:53:03.000Z</time>
      </trkpt>
      <trkpt lat="50.47019" lon="3.46796">
        <ele>17.9</ele>
        <time>2022-04-15T15:53:04.000Z</time>
      </trkpt>
      <trkpt lat="50.47023" lon="3.46806">
        <ele>18.5</ele>
        <time>2022-04-15T15:53:05.000Z</time>
      </trkpt>
      <trkpt lat="50.47028" lon="3.46815">
        <ele>18.3</ele>
        <time>2022-04-15T15:53:06.000Z</time>
      </trkpt>
      <trkpt lat="50.47032" lon="3.46824">
        <ele>17.5</ele>
        <time>2022-04-15T15:53:07.000Z</time>
      </trkpt>
      <trkpt lat="50.47037" lon="3.46833">
        <ele>17</ele>
        <time>2022-04-15T15:53:08.000Z</time>
      </trkpt>
      <trkpt lat="50.47041" lon="3.46845">
        <ele>16.8</ele>
        <time>2022-04-15T15:53:09.000Z</time>
      </trkpt>
      <trkpt lat="50.47046" lon="3.46855">
        <ele>16.7</ele>
        <time>2022-04-15T15:53:10.000Z</time>
      </trkpt>
      <trkpt lat="50.47051" lon="3.46865">
        <ele>16.8</ele>
        <time>2022-04-15T15:53:11.000Z</time>
      </trkpt>
      <trkpt lat="50.47055" lon="3.46875">
        <ele>17</ele>
        <time>2022-04-15T15:53:12.000Z</time>
      </trkpt>
      <trkpt lat="50.47059" lon="3.46885">
        <ele>17</ele>
        <time>2022-04-15T15:53:13.000Z</time>
      </trkpt>
      <trkpt lat="50.47063" lon="3.46896">
        <ele>16.8</ele>
        <time>2022-04-15T15:53:14.000Z</time>
      </trkpt>
      <trkpt lat="50.47063" lon="3.46908">
        <ele>16.5</ele>
        <time>2022-04-15T15:53:15.000Z</time>
      </trkpt>
      <trkpt lat="50.47063" lon="3.4692">
        <ele>16.3</ele>
        <time>2022-04-15T15:53:16.000Z</time>
      </trkpt>
      <trkpt lat="50.47061" lon="3.46931">
        <ele>16.2</ele>
        <time>2022-04-15T15:53:17.000Z</time>
      </trkpt>
      <trkpt lat="50.47059" lon="3.46943">
        <ele>16.1</ele>
        <time>2022-04-15T15:53:18.000Z</time>
      </trkpt>
      <trkpt lat="50.47057" lon="3.46956">
        <ele>16.4</ele>
        <time>2022-04-15T15:53:19.000Z</time>
      </trkpt>
      <trkpt lat="50.47055" lon="3.46965">
        <ele>16.7</ele>
        <time>2022-04-15T15:53:20.000Z</time>
      </trkpt>
      <trkpt lat="50.47052" lon="3.46974">
        <ele>17</ele>
        <time>2022-04-15T15:53:21.000Z</time>
      </trkpt>
      <trkpt lat="50.47049" lon="3.46984">
        <ele>17</ele>
        <time>2022-04-15T15:53:22.000Z</time>
      </trkpt>
      <trkpt lat="50.47046" lon="3.46993">
        <ele>17</ele>
        <time>2022-04-15T15:53:23.000Z</time>
      </trkpt>
      <trkpt lat="50.47042" lon="3.47002">
        <ele>17</ele>
        <time>2022-04-15T15:53:24.000Z</time>
      </trkpt>
      <trkpt lat="50.47039" lon="3.47011">
        <ele>17</ele>
        <time>2022-04-15T15:53:25.000Z</time>
      </trkpt>
      <trkpt lat="50.47036" lon="3.47019">
        <ele>17</ele>
        <time>2022-04-15T15:53:26.000Z</time>
      </trkpt>
      <trkpt lat="50.47031" lon="3.47035">
        <ele>17</ele>
        <time>2022-04-15T15:53:28.000Z</time>
      </trkpt>
      <trkpt lat="50.47029" lon="3.47042">
        <ele>17</ele>
        <time>2022-04-15T15:53:29.000Z</time>
      </trkpt>
      <trkpt lat="50.47026" lon="3.47051">
        <ele>17</ele>
        <time>2022-04-15T15:53:30.000Z</time>
      </trkpt>
      <trkpt lat="50.47024" lon="3.47058">
        <ele>17</ele>
        <time>2022-04-15T15:53:31.000Z</time>
      </trkpt>
      <trkpt lat="50.47021" lon="3.47067">
        <ele>17.1</ele>
        <time>2022-04-15T15:53:32.000Z</time>
      </trkpt>
      <trkpt lat="50.47018" lon="3.47075">
        <ele>17.2</ele>
        <time>2022-04-15T15:53:33.000Z</time>
      </trkpt>
      <trkpt lat="50.47015" lon="3.47081">
        <ele>17.4</ele>
        <time>2022-04-15T15:53:34.000Z</time>
      </trkpt>
      <trkpt lat="50.47012" lon="3.4709">
        <ele>17.7</ele>
        <time>2022-04-15T15:53:35.000Z</time>
      </trkpt>
      <trkpt lat="50.47009" lon="3.47098">
        <ele>17.8</ele>
        <time>2022-04-15T15:53:36.000Z</time>
      </trkpt>
      <trkpt lat="50.47006" lon="3.47106">
        <ele>18</ele>
        <time>2022-04-15T15:53:37.000Z</time>
      </trkpt>
      <trkpt lat="50.47003" lon="3.47114">
        <ele>18</ele>
        <time>2022-04-15T15:53:38.000Z</time>
      </trkpt>
      <trkpt lat="50.47001" lon="3.47122">
        <ele>18</ele>
        <time>2022-04-15T15:53:39.000Z</time>
      </trkpt>
      <trkpt lat="50.46998" lon="3.4713">
        <ele>18</ele>
        <time>2022-04-15T15:53:40.000Z</time>
      </trkpt>
      <trkpt lat="50.46995" lon="3.47138">
        <ele>18</ele>
        <time>2022-04-15T15:53:41.000Z</time>
      </trkpt>
      <trkpt lat="50.46992" lon="3.47145">
        <ele>18</ele>
        <time>2022-04-15T15:53:42.000Z</time>
      </trkpt>
      <trkpt lat="50.46989" lon="3.47153">
        <ele>18</ele>
        <time>2022-04-15T15:53:43.000Z</time>
      </trkpt>
      <trkpt lat="50.46987" lon="3.4716">
        <ele>18</ele>
        <time>2022-04-15T15:53:44.000Z</time>
      </trkpt>
      <trkpt lat="50.46984" lon="3.47168">
        <ele>18</ele>
        <time>2022-04-15T15:53:45.000Z</time>
      </trkpt>
      <trkpt lat="50.4698" lon="3.47177">
        <ele>18</ele>
        <time>2022-04-15T15:53:46.000Z</time>
      </trkpt>
      <trkpt lat="50.46976" lon="3.47183">
        <ele>18</ele>
        <time>2022-04-15T15:53:47.000Z</time>
      </trkpt>
      <trkpt lat="50.46972" lon="3.4719">
        <ele>18</ele>
        <time>2022-04-15T15:53:48.000Z</time>
      </trkpt>
      <trkpt lat="50.46968" lon="3.47198">
        <ele>18</ele>
        <time>2022-04-15T15:53:49.000Z</time>
      </trkpt>
      <trkpt lat="50.46963" lon="3.47205">
        <ele>18</ele>
        <time>2022-04-15T15:53:50.000Z</time>
      </trkpt>
      <trkpt lat="50.46959" lon="3.47214">
        <ele>18</ele>
        <time>2022-04-15T15:53:51.000Z</time>
      </trkpt>
      <trkpt lat="50.46955" lon="3.47221">
        <ele>18</ele>
        <time>2022-04-15T15:53:52.000Z</time>
      </trkpt>
      <trkpt lat="50.46951" lon="3.47228">
        <ele>18</ele>
        <time>2022-04-15T15:53:53.000Z</time>
      </trkpt>
      <trkpt lat="50.46947" lon="3.47235">
        <ele>18</ele>
        <time>2022-04-15T15:53:54.000Z</time>
      </trkpt>
      <trkpt lat="50.46943" lon="3.47241">
        <ele>18</ele>
        <time>2022-04-15T15:53:55.000Z</time>
      </trkpt>
      <trkpt lat="50.46938" lon="3.47249">
        <ele>18</ele>
        <time>2022-04-15T15:53:56.000Z</time>
      </trkpt>
      <trkpt lat="50.46934" lon="3.47255">
        <ele>18</ele>
        <time>2022-04-15T15:53:57.000Z</time>
      </trkpt>
      <trkpt lat="50.46928" lon="3.47264">
        <ele>18</ele>
        <time>2022-04-15T15:53:58.000Z</time>
      </trkpt>
      <trkpt lat="50.46925" lon="3.4727">
        <ele>18</ele>
        <time>2022-04-15T15:53:59.000Z</time>
      </trkpt>
      <trkpt lat="50.4692" lon="3.47275">
        <ele>18</ele>
        <time>2022-04-15T15:54:00.000Z</time>
      </trkpt>
      <trkpt lat="50.46916" lon="3.47283">
        <ele>18</ele>
        <time>2022-04-15T15:54:01.000Z</time>
      </trkpt>
      <trkpt lat="50.46911" lon="3.4729">
        <ele>17.8</ele>
        <time>2022-04-15T15:54:02.000Z</time>
      </trkpt>
      <trkpt lat="50.46906" lon="3.47295">
        <ele>17.6</ele>
        <time>2022-04-15T15:54:03.000Z</time>
      </trkpt>
      <trkpt lat="50.46899" lon="3.473">
        <ele>17.4</ele>
        <time>2022-04-15T15:54:04.000Z</time>
      </trkpt>
      <trkpt lat="50.46891" lon="3.47307">
        <ele>17.1</ele>
        <time>2022-04-15T15:54:05.000Z</time>
      </trkpt>
      <trkpt lat="50.46886" lon="3.47311">
        <ele>17</ele>
        <time>2022-04-15T15:54:06.000Z</time>
      </trkpt>
      <trkpt lat="50.46881" lon="3.47315">
        <ele>17</ele>
        <time>2022-04-15T15:54:07.000Z</time>
      </trkpt>
      <trkpt lat="50.46871" lon="3.47329">
        <ele>17</ele>
        <time>2022-04-15T15:54:09.000Z</time>
      </trkpt>
      <trkpt lat="50.46867" lon="3.47339">
        <ele>17</ele>
        <time>2022-04-15T15:54:10.000Z</time>
      </trkpt>
      <trkpt lat="50.46865" lon="3.47351">
        <ele>17</ele>
        <time>2022-04-15T15:54:11.000Z</time>
      </trkpt>
      <trkpt lat="50.46866" lon="3.4736">
        <ele>17</ele>
        <time>2022-04-15T15:54:12.000Z</time>
      </trkpt>
      <trkpt lat="50.46868" lon="3.47371">
        <ele>17.1</ele>
        <time>2022-04-15T15:54:13.000Z</time>
      </trkpt>
      <trkpt lat="50.46872" lon="3.47381">
        <ele>17.3</ele>
        <time>2022-04-15T15:54:14.000Z</time>
      </trkpt>
      <trkpt lat="50.46876" lon="3.47389">
        <ele>17.5</ele>
        <time>2022-04-15T15:54:15.000Z</time>
      </trkpt>
      <trkpt lat="50.46881" lon="3.474">
        <ele>17.7</ele>
        <time>2022-04-15T15:54:16.000Z</time>
      </trkpt>
      <trkpt lat="50.46885" lon="3.47409">
        <ele>17.9</ele>
        <time>2022-04-15T15:54:17.000Z</time>
      </trkpt>
      <trkpt lat="50.46889" lon="3.47418">
        <ele>18</ele>
        <time>2022-04-15T15:54:18.000Z</time>
      </trkpt>
      <trkpt lat="50.46893" lon="3.47427">
        <ele>17.6</ele>
        <time>2022-04-15T15:54:19.000Z</time>
      </trkpt>
      <trkpt lat="50.46895" lon="3.47435">
        <ele>17.3</ele>
        <time>2022-04-15T15:54:20.000Z</time>
      </trkpt>
      <trkpt lat="50.46898" lon="3.47446">
        <ele>17</ele>
        <time>2022-04-15T15:54:21.000Z</time>
      </trkpt>
      <trkpt lat="50.46899" lon="3.47456">
        <ele>17</ele>
        <time>2022-04-15T15:54:22.000Z</time>
      </trkpt>
      <trkpt lat="50.46899" lon="3.47468">
        <ele>17</ele>
        <time>2022-04-15T15:54:23.000Z</time>
      </trkpt>
      <trkpt lat="50.46897" lon="3.47477">
        <ele>17.1</ele>
        <time>2022-04-15T15:54:24.000Z</time>
      </trkpt>
      <trkpt lat="50.46894" lon="3.47489">
        <ele>17.1</ele>
        <time>2022-04-15T15:54:25.000Z</time>
      </trkpt>
      <trkpt lat="50.4689" lon="3.47498">
        <ele>17</ele>
        <time>2022-04-15T15:54:26.000Z</time>
      </trkpt>
      <trkpt lat="50.46887" lon="3.47507">
        <ele>17</ele>
        <time>2022-04-15T15:54:27.000Z</time>
      </trkpt>
      <trkpt lat="50.46884" lon="3.47517">
        <ele>17</ele>
        <time>2022-04-15T15:54:28.000Z</time>
      </trkpt>
      <trkpt lat="50.46881" lon="3.47525">
        <ele>17</ele>
        <time>2022-04-15T15:54:29.000Z</time>
      </trkpt>
      <trkpt lat="50.46878" lon="3.47535">
        <ele>17.2</ele>
        <time>2022-04-15T15:54:30.000Z</time>
      </trkpt>
      <trkpt lat="50.46875" lon="3.47544">
        <ele>17.3</ele>
        <time>2022-04-15T15:54:31.000Z</time>
      </trkpt>
      <trkpt lat="50.46872" lon="3.47553">
        <ele>17.4</ele>
        <time>2022-04-15T15:54:32.000Z</time>
      </trkpt>
      <trkpt lat="50.46869" lon="3.47564">
        <ele>17.3</ele>
        <time>2022-04-15T15:54:33.000Z</time>
      </trkpt>
      <trkpt lat="50.46867" lon="3.47572">
        <ele>17.2</ele>
        <time>2022-04-15T15:54:34.000Z</time>
      </trkpt>
      <trkpt lat="50.46864" lon="3.47581">
        <ele>17.1</ele>
        <time>2022-04-15T15:54:35.000Z</time>
      </trkpt>
      <trkpt lat="50.46861" lon="3.4759">
        <ele>17</ele>
        <time>2022-04-15T15:54:36.000Z</time>
      </trkpt>
      <trkpt lat="50.46859" lon="3.476">
        <ele>17</ele>
        <time>2022-04-15T15:54:37.000Z</time>
      </trkpt>
      <trkpt lat="50.46856" lon="3.47609">
        <ele>17</ele>
        <time>2022-04-15T15:54:38.000Z</time>
      </trkpt>
      <trkpt lat="50.46852" lon="3.47619">
        <ele>17.2</ele>
        <time>2022-04-15T15:54:39.000Z</time>
      </trkpt>
      <trkpt lat="50.46849" lon="3.47627">
        <ele>17.3</ele>
        <time>2022-04-15T15:54:40.000Z</time>
      </trkpt>
      <trkpt lat="50.46844" lon="3.47636">
        <ele>17.3</ele>
        <time>2022-04-15T15:54:41.000Z</time>
      </trkpt>
      <trkpt lat="50.46841" lon="3.47644">
        <ele>17.4</ele>
        <time>2022-04-15T15:54:42.000Z</time>
      </trkpt>
      <trkpt lat="50.46837" lon="3.47653">
        <ele>17.6</ele>
        <time>2022-04-15T15:54:43.000Z</time>
      </trkpt>
      <trkpt lat="50.46833" lon="3.4766">
        <ele>17.8</ele>
        <time>2022-04-15T15:54:44.000Z</time>
      </trkpt>
      <trkpt lat="50.46829" lon="3.47668">
        <ele>17.8</ele>
        <time>2022-04-15T15:54:45.000Z</time>
      </trkpt>
      <trkpt lat="50.46825" lon="3.47676">
        <ele>17.7</ele>
        <time>2022-04-15T15:54:46.000Z</time>
      </trkpt>
      <trkpt lat="50.46822" lon="3.47684">
        <ele>17.6</ele>
        <time>2022-04-15T15:54:47.000Z</time>
      </trkpt>
      <trkpt lat="50.46817" lon="3.47693">
        <ele>17.4</ele>
        <time>2022-04-15T15:54:48.000Z</time>
      </trkpt>
      <trkpt lat="50.46813" lon="3.47701">
        <ele>17.4</ele>
        <time>2022-04-15T15:54:49.000Z</time>
      </trkpt>
      <trkpt lat="50.46809" lon="3.47709">
        <ele>17.6</ele>
        <time>2022-04-15T15:54:50.000Z</time>
      </trkpt>
      <trkpt lat="50.46805" lon="3.47718">
        <ele>17.8</ele>
        <time>2022-04-15T15:54:51.000Z</time>
      </trkpt>
      <trkpt lat="50.46802" lon="3.47726">
        <ele>17.9</ele>
        <time>2022-04-15T15:54:52.000Z</time>
      </trkpt>
      <trkpt lat="50.46798" lon="3.47733">
        <ele>17.8</ele>
        <time>2022-04-15T15:54:53.000Z</time>
      </trkpt>
      <trkpt lat="50.46794" lon="3.47742">
        <ele>17.9</ele>
        <time>2022-04-15T15:54:54.000Z</time>
      </trkpt>
      <trkpt lat="50.4679" lon="3.4775">
        <ele>18</ele>
        <time>2022-04-15T15:54:55.000Z</time>
      </trkpt>
      <trkpt lat="50.46787" lon="3.47758">
        <ele>18</ele>
        <time>2022-04-15T15:54:56.000Z</time>
      </trkpt>
      <trkpt lat="50.46783" lon="3.47766">
        <ele>18</ele>
        <time>2022-04-15T15:54:57.000Z</time>
      </trkpt>
      <trkpt lat="50.46778" lon="3.47774">
        <ele>18</ele>
        <time>2022-04-15T15:54:58.000Z</time>
      </trkpt>
      <trkpt lat="50.46774" lon="3.47782">
        <ele>17.9</ele>
        <time>2022-04-15T15:54:59.000Z</time>
      </trkpt>
      <trkpt lat="50.4677" lon="3.47789">
        <ele>17.8</ele>
        <time>2022-04-15T15:55:00.000Z</time>
      </trkpt>
      <trkpt lat="50.46766" lon="3.47795">
        <ele>17.8</ele>
        <time>2022-04-15T15:55:01.058Z</time>
      </trkpt>
      <trkpt lat="50.46761" lon="3.47803">
        <ele>17.9</ele>
        <time>2022-04-15T15:55:02.000Z</time>
      </trkpt>
      <trkpt lat="50.46758" lon="3.4781">
        <ele>18</ele>
        <time>2022-04-15T15:55:03.000Z</time>
      </trkpt>
      <trkpt lat="50.46753" lon="3.47816">
        <ele>18</ele>
        <time>2022-04-15T15:55:04.000Z</time>
      </trkpt>
      <trkpt lat="50.4675" lon="3.47823">
        <ele>18</ele>
        <time>2022-04-15T15:55:05.000Z</time>
      </trkpt>
      <trkpt lat="50.46745" lon="3.47831">
        <ele>18</ele>
        <time>2022-04-15T15:55:06.000Z</time>
      </trkpt>
      <trkpt lat="50.4674" lon="3.47839">
        <ele>18</ele>
        <time>2022-04-15T15:55:07.000Z</time>
      </trkpt>
      <trkpt lat="50.46736" lon="3.47845">
        <ele>18</ele>
        <time>2022-04-15T15:55:08.000Z</time>
      </trkpt>
      <trkpt lat="50.46732" lon="3.47852">
        <ele>18</ele>
        <time>2022-04-15T15:55:09.000Z</time>
      </trkpt>
      <trkpt lat="50.46728" lon="3.47857">
        <ele>18</ele>
        <time>2022-04-15T15:55:10.000Z</time>
      </trkpt>
      <trkpt lat="50.46722" lon="3.47864">
        <ele>18</ele>
        <time>2022-04-15T15:55:11.000Z</time>
      </trkpt>
      <trkpt lat="50.46717" lon="3.4787">
        <ele>18</ele>
        <time>2022-04-15T15:55:12.000Z</time>
      </trkpt>
      <trkpt lat="50.46713" lon="3.47877">
        <ele>18</ele>
        <time>2022-04-15T15:55:13.000Z</time>
      </trkpt>
      <trkpt lat="50.46708" lon="3.47883">
        <ele>18</ele>
        <time>2022-04-15T15:55:14.000Z</time>
      </trkpt>
      <trkpt lat="50.46703" lon="3.4789">
        <ele>18</ele>
        <time>2022-04-15T15:55:15.000Z</time>
      </trkpt>
      <trkpt lat="50.46698" lon="3.47897">
        <ele>18</ele>
        <time>2022-04-15T15:55:16.000Z</time>
      </trkpt>
      <trkpt lat="50.46688" lon="3.4791">
        <ele>17.9</ele>
        <time>2022-04-15T15:55:18.000Z</time>
      </trkpt>
      <trkpt lat="50.46683" lon="3.47916">
        <ele>18</ele>
        <time>2022-04-15T15:55:19.000Z</time>
      </trkpt>
      <trkpt lat="50.46674" lon="3.47928">
        <ele>18</ele>
        <time>2022-04-15T15:55:21.000Z</time>
      </trkpt>
      <trkpt lat="50.46669" lon="3.47933">
        <ele>18</ele>
        <time>2022-04-15T15:55:22.000Z</time>
      </trkpt>
      <trkpt lat="50.46664" lon="3.4794">
        <ele>17.9</ele>
        <time>2022-04-15T15:55:23.000Z</time>
      </trkpt>
      <trkpt lat="50.4666" lon="3.47945">
        <ele>17.8</ele>
        <time>2022-04-15T15:55:24.000Z</time>
      </trkpt>
      <trkpt lat="50.46655" lon="3.47952">
        <ele>17.6</ele>
        <time>2022-04-15T15:55:25.000Z</time>
      </trkpt>
      <trkpt lat="50.46651" lon="3.47958">
        <ele>17.4</ele>
        <time>2022-04-15T15:55:26.000Z</time>
      </trkpt>
      <trkpt lat="50.46647" lon="3.47963">
        <ele>17.3</ele>
        <time>2022-04-15T15:55:27.000Z</time>
      </trkpt>
      <trkpt lat="50.46642" lon="3.47969">
        <ele>17.1</ele>
        <time>2022-04-15T15:55:28.000Z</time>
      </trkpt>
      <trkpt lat="50.46637" lon="3.47975">
        <ele>17.1</ele>
        <time>2022-04-15T15:55:29.000Z</time>
      </trkpt>
      <trkpt lat="50.46632" lon="3.47981">
        <ele>17.2</ele>
        <time>2022-04-15T15:55:30.000Z</time>
      </trkpt>
      <trkpt lat="50.46627" lon="3.47987">
        <ele>17.3</ele>
        <time>2022-04-15T15:55:31.000Z</time>
      </trkpt>
      <trkpt lat="50.46623" lon="3.47992">
        <ele>17.3</ele>
        <time>2022-04-15T15:55:32.000Z</time>
      </trkpt>
      <trkpt lat="50.46617" lon="3.47997">
        <ele>17.2</ele>
        <time>2022-04-15T15:55:33.000Z</time>
      </trkpt>
      <trkpt lat="50.46612" lon="3.48002">
        <ele>17</ele>
        <time>2022-04-15T15:55:34.000Z</time>
      </trkpt>
      <trkpt lat="50.46606" lon="3.48008">
        <ele>17.1</ele>
        <time>2022-04-15T15:55:35.000Z</time>
      </trkpt>
      <trkpt lat="50.46601" lon="3.48013">
        <ele>17.2</ele>
        <time>2022-04-15T15:55:36.000Z</time>
      </trkpt>
      <trkpt lat="50.46596" lon="3.48018">
        <ele>17.2</ele>
        <time>2022-04-15T15:55:37.000Z</time>
      </trkpt>
      <trkpt lat="50.46591" lon="3.48023">
        <ele>17.1</ele>
        <time>2022-04-15T15:55:38.000Z</time>
      </trkpt>
      <trkpt lat="50.46586" lon="3.48029">
        <ele>17</ele>
        <time>2022-04-15T15:55:39.000Z</time>
      </trkpt>
      <trkpt lat="50.46582" lon="3.48034">
        <ele>17</ele>
        <time>2022-04-15T15:55:40.000Z</time>
      </trkpt>
      <trkpt lat="50.46571" lon="3.48045">
        <ele>17</ele>
        <time>2022-04-15T15:55:42.000Z</time>
      </trkpt>
      <trkpt lat="50.46567" lon="3.4805">
        <ele>17</ele>
        <time>2022-04-15T15:55:43.000Z</time>
      </trkpt>
      <trkpt lat="50.46561" lon="3.48056">
        <ele>17</ele>
        <time>2022-04-15T15:55:44.000Z</time>
      </trkpt>
      <trkpt lat="50.46557" lon="3.48062">
        <ele>17</ele>
        <time>2022-04-15T15:55:45.000Z</time>
      </trkpt>
      <trkpt lat="50.46554" lon="3.48068">
        <ele>17</ele>
        <time>2022-04-15T15:55:46.000Z</time>
      </trkpt>
      <trkpt lat="50.46551" lon="3.48076">
        <ele>17</ele>
        <time>2022-04-15T15:55:47.000Z</time>
      </trkpt>
      <trkpt lat="50.46548" lon="3.48083">
        <ele>17</ele>
        <time>2022-04-15T15:55:48.000Z</time>
      </trkpt>
      <trkpt lat="50.46545" lon="3.4809">
        <ele>17</ele>
        <time>2022-04-15T15:55:49.000Z</time>
      </trkpt>
      <trkpt lat="50.46542" lon="3.48097">
        <ele>17</ele>
        <time>2022-04-15T15:55:50.000Z</time>
      </trkpt>
      <trkpt lat="50.46539" lon="3.48104">
        <ele>17</ele>
        <time>2022-04-15T15:55:51.000Z</time>
      </trkpt>
      <trkpt lat="50.46536" lon="3.4811">
        <ele>17</ele>
        <time>2022-04-15T15:55:52.000Z</time>
      </trkpt>
      <trkpt lat="50.46533" lon="3.48117">
        <ele>17</ele>
        <time>2022-04-15T15:55:53.000Z</time>
      </trkpt>
      <trkpt lat="50.4653" lon="3.48123">
        <ele>17</ele>
        <time>2022-04-15T15:55:54.000Z</time>
      </trkpt>
      <trkpt lat="50.46527" lon="3.48129">
        <ele>17</ele>
        <time>2022-04-15T15:55:55.000Z</time>
      </trkpt>
      <trkpt lat="50.46524" lon="3.48135">
        <ele>17</ele>
        <time>2022-04-15T15:55:56.000Z</time>
      </trkpt>
      <trkpt lat="50.46521" lon="3.48141">
        <ele>17.1</ele>
        <time>2022-04-15T15:55:57.000Z</time>
      </trkpt>
      <trkpt lat="50.46519" lon="3.48148">
        <ele>17.3</ele>
        <time>2022-04-15T15:55:58.000Z</time>
      </trkpt>
      <trkpt lat="50.46516" lon="3.48155">
        <ele>17.6</ele>
        <time>2022-04-15T15:55:59.000Z</time>
      </trkpt>
      <trkpt lat="50.46513" lon="3.48161">
        <ele>17.8</ele>
        <time>2022-04-15T15:56:00.000Z</time>
      </trkpt>
      <trkpt lat="50.4651" lon="3.48167">
        <ele>18</ele>
        <time>2022-04-15T15:56:01.000Z</time>
      </trkpt>
      <trkpt lat="50.46507" lon="3.48173">
        <ele>18</ele>
        <time>2022-04-15T15:56:02.000Z</time>
      </trkpt>
      <trkpt lat="50.46504" lon="3.48179">
        <ele>18</ele>
        <time>2022-04-15T15:56:03.000Z</time>
      </trkpt>
      <trkpt lat="50.46498" lon="3.48189">
        <ele>18</ele>
        <time>2022-04-15T15:56:05.000Z</time>
      </trkpt>
      <trkpt lat="50.46494" lon="3.48195">
        <ele>18</ele>
        <time>2022-04-15T15:56:06.000Z</time>
      </trkpt>
      <trkpt lat="50.46488" lon="3.48204">
        <ele>18</ele>
        <time>2022-04-15T15:56:08.000Z</time>
      </trkpt>
      <trkpt lat="50.46484" lon="3.4821">
        <ele>18</ele>
        <time>2022-04-15T15:56:09.000Z</time>
      </trkpt>
      <trkpt lat="50.4648" lon="3.48215">
        <ele>18</ele>
        <time>2022-04-15T15:56:10.000Z</time>
      </trkpt>
      <trkpt lat="50.46477" lon="3.4822">
        <ele>18</ele>
        <time>2022-04-15T15:56:11.000Z</time>
      </trkpt>
      <trkpt lat="50.46473" lon="3.48225">
        <ele>18</ele>
        <time>2022-04-15T15:56:12.000Z</time>
      </trkpt>
      <trkpt lat="50.46469" lon="3.4823">
        <ele>18</ele>
        <time>2022-04-15T15:56:13.000Z</time>
      </trkpt>
      <trkpt lat="50.46466" lon="3.48236">
        <ele>18</ele>
        <time>2022-04-15T15:56:14.000Z</time>
      </trkpt>
      <trkpt lat="50.46463" lon="3.4824">
        <ele>18</ele>
        <time>2022-04-15T15:56:15.000Z</time>
      </trkpt>
      <trkpt lat="50.46459" lon="3.48246">
        <ele>18</ele>
        <time>2022-04-15T15:56:16.000Z</time>
      </trkpt>
      <trkpt lat="50.46456" lon="3.48251">
        <ele>18</ele>
        <time>2022-04-15T15:56:17.000Z</time>
      </trkpt>
      <trkpt lat="50.46452" lon="3.48256">
        <ele>18</ele>
        <time>2022-04-15T15:56:18.000Z</time>
      </trkpt>
      <trkpt lat="50.46449" lon="3.48261">
        <ele>18</ele>
        <time>2022-04-15T15:56:19.000Z</time>
      </trkpt>
      <trkpt lat="50.46445" lon="3.48267">
        <ele>18</ele>
        <time>2022-04-15T15:56:20.000Z</time>
      </trkpt>
      <trkpt lat="50.46441" lon="3.48272">
        <ele>18</ele>
        <time>2022-04-15T15:56:21.000Z</time>
      </trkpt>
      <trkpt lat="50.46435" lon="3.4828">
        <ele>18.1</ele>
        <time>2022-04-15T15:56:23.000Z</time>
      </trkpt>
      <trkpt lat="50.46427" lon="3.4829">
        <ele>18.2</ele>
        <time>2022-04-15T15:56:25.000Z</time>
      </trkpt>
      <trkpt lat="50.46424" lon="3.48296">
        <ele>18.2</ele>
        <time>2022-04-15T15:56:26.000Z</time>
      </trkpt>
      <trkpt lat="50.46415" lon="3.48306">
        <ele>18</ele>
        <time>2022-04-15T15:56:28.468Z</time>
      </trkpt>
      <trkpt lat="50.46408" lon="3.48317">
        <ele>18.3</ele>
        <time>2022-04-15T15:56:30.000Z</time>
      </trkpt>
      <trkpt lat="50.46404" lon="3.48324">
        <ele>18.4</ele>
        <time>2022-04-15T15:56:32.218Z</time>
      </trkpt>
      <trkpt lat="50.46399" lon="3.48331">
        <ele>18.3</ele>
        <time>2022-04-15T15:56:33.799Z</time>
      </trkpt>
      <trkpt lat="50.46396" lon="3.48337">
        <ele>18.4</ele>
        <time>2022-04-15T15:56:35.000Z</time>
      </trkpt>
      <trkpt lat="50.46388" lon="3.48346">
        <ele>18.5</ele>
        <time>2022-04-15T15:56:37.000Z</time>
      </trkpt>
      <trkpt lat="50.46382" lon="3.48355">
        <ele>18.8</ele>
        <time>2022-04-15T15:56:39.000Z</time>
      </trkpt>
      <trkpt lat="50.46378" lon="3.48361">
        <ele>19</ele>
        <time>2022-04-15T15:56:40.000Z</time>
      </trkpt>
      <trkpt lat="50.46375" lon="3.48367">
        <ele>19</ele>
        <time>2022-04-15T15:56:41.000Z</time>
      </trkpt>
      <trkpt lat="50.46371" lon="3.48373">
        <ele>19</ele>
        <time>2022-04-15T15:56:42.000Z</time>
      </trkpt>
      <trkpt lat="50.46366" lon="3.48379">
        <ele>19</ele>
        <time>2022-04-15T15:56:43.000Z</time>
      </trkpt>
      <trkpt lat="50.46362" lon="3.48385">
        <ele>19</ele>
        <time>2022-04-15T15:56:44.000Z</time>
      </trkpt>
      <trkpt lat="50.46358" lon="3.48391">
        <ele>19</ele>
        <time>2022-04-15T15:56:45.000Z</time>
      </trkpt>
      <trkpt lat="50.46353" lon="3.48398">
        <ele>19</ele>
        <time>2022-04-15T15:56:46.000Z</time>
      </trkpt>
      <trkpt lat="50.46349" lon="3.48403">
        <ele>19</ele>
        <time>2022-04-15T15:56:47.000Z</time>
      </trkpt>
      <trkpt lat="50.46345" lon="3.4841">
        <ele>19</ele>
        <time>2022-04-15T15:56:48.000Z</time>
      </trkpt>
      <trkpt lat="50.46341" lon="3.48415">
        <ele>19</ele>
        <time>2022-04-15T15:56:49.000Z</time>
      </trkpt>
      <trkpt lat="50.46337" lon="3.48422">
        <ele>19</ele>
        <time>2022-04-15T15:56:50.000Z</time>
      </trkpt>
      <trkpt lat="50.46333" lon="3.48428">
        <ele>19</ele>
        <time>2022-04-15T15:56:51.000Z</time>
      </trkpt>
      <trkpt lat="50.46328" lon="3.48434">
        <ele>19</ele>
        <time>2022-04-15T15:56:52.000Z</time>
      </trkpt>
      <trkpt lat="50.46324" lon="3.4844">
        <ele>19</ele>
        <time>2022-04-15T15:56:53.000Z</time>
      </trkpt>
      <trkpt lat="50.4632" lon="3.48445">
        <ele>19</ele>
        <time>2022-04-15T15:56:54.000Z</time>
      </trkpt>
      <trkpt lat="50.46316" lon="3.48452">
        <ele>19</ele>
        <time>2022-04-15T15:56:55.000Z</time>
      </trkpt>
      <trkpt lat="50.46312" lon="3.48457">
        <ele>19</ele>
        <time>2022-04-15T15:56:56.000Z</time>
      </trkpt>
      <trkpt lat="50.46308" lon="3.48463">
        <ele>19</ele>
        <time>2022-04-15T15:56:57.000Z</time>
      </trkpt>
      <trkpt lat="50.46305" lon="3.48469">
        <ele>19</ele>
        <time>2022-04-15T15:56:58.000Z</time>
      </trkpt>
      <trkpt lat="50.46301" lon="3.48475">
        <ele>19</ele>
        <time>2022-04-15T15:56:59.000Z</time>
      </trkpt>
      <trkpt lat="50.46298" lon="3.48481">
        <ele>19</ele>
        <time>2022-04-15T15:57:00.000Z</time>
      </trkpt>
      <trkpt lat="50.46294" lon="3.48487">
        <ele>19</ele>
        <time>2022-04-15T15:57:01.000Z</time>
      </trkpt>
      <trkpt lat="50.46291" lon="3.48492">
        <ele>19</ele>
        <time>2022-04-15T15:57:02.000Z</time>
      </trkpt>
      <trkpt lat="50.46287" lon="3.48497">
        <ele>19</ele>
        <time>2022-04-15T15:57:03.000Z</time>
      </trkpt>
      <trkpt lat="50.46283" lon="3.48503">
        <ele>19</ele>
        <time>2022-04-15T15:57:04.000Z</time>
      </trkpt>
      <trkpt lat="50.46276" lon="3.48513">
        <ele>19</ele>
        <time>2022-04-15T15:57:06.000Z</time>
      </trkpt>
      <trkpt lat="50.46272" lon="3.48517">
        <ele>19</ele>
        <time>2022-04-15T15:57:07.000Z</time>
      </trkpt>
      <trkpt lat="50.46268" lon="3.48522">
        <ele>19</ele>
        <time>2022-04-15T15:57:08.000Z</time>
      </trkpt>
      <trkpt lat="50.46263" lon="3.48529">
        <ele>19</ele>
        <time>2022-04-15T15:57:09.000Z</time>
      </trkpt>
      <trkpt lat="50.46256" lon="3.4854">
        <ele>19.1</ele>
        <time>2022-04-15T15:57:11.000Z</time>
      </trkpt>
      <trkpt lat="50.46252" lon="3.48545">
        <ele>19</ele>
        <time>2022-04-15T15:57:12.000Z</time>
      </trkpt>
      <trkpt lat="50.46248" lon="3.4855">
        <ele>19</ele>
        <time>2022-04-15T15:57:13.000Z</time>
      </trkpt>
      <trkpt lat="50.46245" lon="3.48556">
        <ele>19</ele>
        <time>2022-04-15T15:57:14.000Z</time>
      </trkpt>
      <trkpt lat="50.46241" lon="3.48561">
        <ele>19</ele>
        <time>2022-04-15T15:57:15.000Z</time>
      </trkpt>
      <trkpt lat="50.46237" lon="3.48566">
        <ele>19</ele>
        <time>2022-04-15T15:57:16.000Z</time>
      </trkpt>
      <trkpt lat="50.46232" lon="3.48572">
        <ele>19</ele>
        <time>2022-04-15T15:57:17.000Z</time>
      </trkpt>
      <trkpt lat="50.46229" lon="3.48577">
        <ele>19</ele>
        <time>2022-04-15T15:57:18.000Z</time>
      </trkpt>
      <trkpt lat="50.46226" lon="3.48582">
        <ele>19</ele>
        <time>2022-04-15T15:57:19.000Z</time>
      </trkpt>
      <trkpt lat="50.46222" lon="3.48587">
        <ele>19.1</ele>
        <time>2022-04-15T15:57:20.000Z</time>
      </trkpt>
      <trkpt lat="50.46218" lon="3.48592">
        <ele>19.3</ele>
        <time>2022-04-15T15:57:21.000Z</time>
      </trkpt>
      <trkpt lat="50.46211" lon="3.48603">
        <ele>19.4</ele>
        <time>2022-04-15T15:57:23.000Z</time>
      </trkpt>
      <trkpt lat="50.46207" lon="3.48608">
        <ele>19.4</ele>
        <time>2022-04-15T15:57:24.000Z</time>
      </trkpt>
      <trkpt lat="50.46204" lon="3.48613">
        <ele>19.4</ele>
        <time>2022-04-15T15:57:25.000Z</time>
      </trkpt>
      <trkpt lat="50.46199" lon="3.48618">
        <ele>19.4</ele>
        <time>2022-04-15T15:57:26.000Z</time>
      </trkpt>
      <trkpt lat="50.46194" lon="3.48626">
        <ele>19.5</ele>
        <time>2022-04-15T15:57:28.043Z</time>
      </trkpt>
      <trkpt lat="50.46189" lon="3.48633">
        <ele>19.8</ele>
        <time>2022-04-15T15:57:29.000Z</time>
      </trkpt>
      <trkpt lat="50.46185" lon="3.48639">
        <ele>20</ele>
        <time>2022-04-15T15:57:30.000Z</time>
      </trkpt>
      <trkpt lat="50.46181" lon="3.48644">
        <ele>20</ele>
        <time>2022-04-15T15:57:31.000Z</time>
      </trkpt>
      <trkpt lat="50.46177" lon="3.48649">
        <ele>20</ele>
        <time>2022-04-15T15:57:32.000Z</time>
      </trkpt>
      <trkpt lat="50.46174" lon="3.48655">
        <ele>20</ele>
        <time>2022-04-15T15:57:33.000Z</time>
      </trkpt>
      <trkpt lat="50.4617" lon="3.4866">
        <ele>20</ele>
        <time>2022-04-15T15:57:34.000Z</time>
      </trkpt>
      <trkpt lat="50.46166" lon="3.48665">
        <ele>20</ele>
        <time>2022-04-15T15:57:35.000Z</time>
      </trkpt>
      <trkpt lat="50.46162" lon="3.48671">
        <ele>20</ele>
        <time>2022-04-15T15:57:36.000Z</time>
      </trkpt>
      <trkpt lat="50.46159" lon="3.48676">
        <ele>20</ele>
        <time>2022-04-15T15:57:37.000Z</time>
      </trkpt>
      <trkpt lat="50.46156" lon="3.48681">
        <ele>20</ele>
        <time>2022-04-15T15:57:38.000Z</time>
      </trkpt>
      <trkpt lat="50.46149" lon="3.48692">
        <ele>20</ele>
        <time>2022-04-15T15:57:40.000Z</time>
      </trkpt>
      <trkpt lat="50.46145" lon="3.48697">
        <ele>20</ele>
        <time>2022-04-15T15:57:41.000Z</time>
      </trkpt>
      <trkpt lat="50.46141" lon="3.48703">
        <ele>20</ele>
        <time>2022-04-15T15:57:42.000Z</time>
      </trkpt>
      <trkpt lat="50.46137" lon="3.48708">
        <ele>20</ele>
        <time>2022-04-15T15:57:43.000Z</time>
      </trkpt>
      <trkpt lat="50.46133" lon="3.48713">
        <ele>20</ele>
        <time>2022-04-15T15:57:44.000Z</time>
      </trkpt>
      <trkpt lat="50.46129" lon="3.48719">
        <ele>20</ele>
        <time>2022-04-15T15:57:45.000Z</time>
      </trkpt>
      <trkpt lat="50.46125" lon="3.48725">
        <ele>20</ele>
        <time>2022-04-15T15:57:46.000Z</time>
      </trkpt>
      <trkpt lat="50.46121" lon="3.48731">
        <ele>20.1</ele>
        <time>2022-04-15T15:57:47.000Z</time>
      </trkpt>
      <trkpt lat="50.46117" lon="3.48736">
        <ele>20.1</ele>
        <time>2022-04-15T15:57:48.000Z</time>
      </trkpt>
      <trkpt lat="50.46113" lon="3.48742">
        <ele>20</ele>
        <time>2022-04-15T15:57:49.000Z</time>
      </trkpt>
      <trkpt lat="50.46109" lon="3.48747">
        <ele>20</ele>
        <time>2022-04-15T15:57:50.000Z</time>
      </trkpt>
      <trkpt lat="50.46106" lon="3.48753">
        <ele>20.1</ele>
        <time>2022-04-15T15:57:51.000Z</time>
      </trkpt>
      <trkpt lat="50.46102" lon="3.48759">
        <ele>20.2</ele>
        <time>2022-04-15T15:57:52.000Z</time>
      </trkpt>
      <trkpt lat="50.46097" lon="3.48766">
        <ele>20.3</ele>
        <time>2022-04-15T15:57:53.000Z</time>
      </trkpt>
      <trkpt lat="50.46089" lon="3.48776">
        <ele>20.2</ele>
        <time>2022-04-15T15:57:55.000Z</time>
      </trkpt>
      <trkpt lat="50.46082" lon="3.48786">
        <ele>20.3</ele>
        <time>2022-04-15T15:57:57.000Z</time>
      </trkpt>
      <trkpt lat="50.46079" lon="3.48791">
        <ele>20.4</ele>
        <time>2022-04-15T15:57:58.000Z</time>
      </trkpt>
      <trkpt lat="50.46076" lon="3.48796">
        <ele>20.5</ele>
        <time>2022-04-15T15:57:59.000Z</time>
      </trkpt>
      <trkpt lat="50.46072" lon="3.48802">
        <ele>20.5</ele>
        <time>2022-04-15T15:58:00.000Z</time>
      </trkpt>
      <trkpt lat="50.46068" lon="3.48807">
        <ele>20.5</ele>
        <time>2022-04-15T15:58:01.000Z</time>
      </trkpt>
      <trkpt lat="50.46064" lon="3.48812">
        <ele>20.5</ele>
        <time>2022-04-15T15:58:02.000Z</time>
      </trkpt>
      <trkpt lat="50.4606" lon="3.48818">
        <ele>20.5</ele>
        <time>2022-04-15T15:58:03.000Z</time>
      </trkpt>
      <trkpt lat="50.46056" lon="3.48824">
        <ele>20.7</ele>
        <time>2022-04-15T15:58:04.000Z</time>
      </trkpt>
      <trkpt lat="50.46052" lon="3.48829">
        <ele>20.8</ele>
        <time>2022-04-15T15:58:05.000Z</time>
      </trkpt>
      <trkpt lat="50.46048" lon="3.48835">
        <ele>21</ele>
        <time>2022-04-15T15:58:06.000Z</time>
      </trkpt>
      <trkpt lat="50.46044" lon="3.48841">
        <ele>21</ele>
        <time>2022-04-15T15:58:07.000Z</time>
      </trkpt>
      <trkpt lat="50.46041" lon="3.48847">
        <ele>21</ele>
        <time>2022-04-15T15:58:08.000Z</time>
      </trkpt>
      <trkpt lat="50.46037" lon="3.48852">
        <ele>21</ele>
        <time>2022-04-15T15:58:09.000Z</time>
      </trkpt>
      <trkpt lat="50.46034" lon="3.48857">
        <ele>21</ele>
        <time>2022-04-15T15:58:10.000Z</time>
      </trkpt>
      <trkpt lat="50.46031" lon="3.48862">
        <ele>21</ele>
        <time>2022-04-15T15:58:11.000Z</time>
      </trkpt>
      <trkpt lat="50.46027" lon="3.48868">
        <ele>21.2</ele>
        <time>2022-04-15T15:58:12.000Z</time>
      </trkpt>
      <trkpt lat="50.46024" lon="3.48873">
        <ele>21.4</ele>
        <time>2022-04-15T15:58:13.000Z</time>
      </trkpt>
      <trkpt lat="50.46016" lon="3.48885">
        <ele>21.9</ele>
        <time>2022-04-15T15:58:15.000Z</time>
      </trkpt>
      <trkpt lat="50.46013" lon="3.48891">
        <ele>22</ele>
        <time>2022-04-15T15:58:16.000Z</time>
      </trkpt>
      <trkpt lat="50.46008" lon="3.48896">
        <ele>22</ele>
        <time>2022-04-15T15:58:17.000Z</time>
      </trkpt>
      <trkpt lat="50.46004" lon="3.48901">
        <ele>22</ele>
        <time>2022-04-15T15:58:18.000Z</time>
      </trkpt>
      <trkpt lat="50.46001" lon="3.48906">
        <ele>22</ele>
        <time>2022-04-15T15:58:19.000Z</time>
      </trkpt>
      <trkpt lat="50.45997" lon="3.48911">
        <ele>22</ele>
        <time>2022-04-15T15:58:20.000Z</time>
      </trkpt>
      <trkpt lat="50.45993" lon="3.48917">
        <ele>22</ele>
        <time>2022-04-15T15:58:21.000Z</time>
      </trkpt>
      <trkpt lat="50.4599" lon="3.48922">
        <ele>22.1</ele>
        <time>2022-04-15T15:58:22.000Z</time>
      </trkpt>
      <trkpt lat="50.45986" lon="3.48928">
        <ele>22.2</ele>
        <time>2022-04-15T15:58:23.000Z</time>
      </trkpt>
      <trkpt lat="50.45983" lon="3.48933">
        <ele>22.2</ele>
        <time>2022-04-15T15:58:24.000Z</time>
      </trkpt>
      <trkpt lat="50.45979" lon="3.48938">
        <ele>22.2</ele>
        <time>2022-04-15T15:58:25.000Z</time>
      </trkpt>
      <trkpt lat="50.45975" lon="3.48943">
        <ele>22.1</ele>
        <time>2022-04-15T15:58:26.000Z</time>
      </trkpt>
      <trkpt lat="50.45971" lon="3.48948">
        <ele>22.1</ele>
        <time>2022-04-15T15:58:27.000Z</time>
      </trkpt>
      <trkpt lat="50.45967" lon="3.48953">
        <ele>22.3</ele>
        <time>2022-04-15T15:58:28.000Z</time>
      </trkpt>
      <trkpt lat="50.45964" lon="3.48958">
        <ele>22.3</ele>
        <time>2022-04-15T15:58:29.000Z</time>
      </trkpt>
      <trkpt lat="50.4596" lon="3.48963">
        <ele>22.4</ele>
        <time>2022-04-15T15:58:30.000Z</time>
      </trkpt>
      <trkpt lat="50.45957" lon="3.48968">
        <ele>22.4</ele>
        <time>2022-04-15T15:58:31.000Z</time>
      </trkpt>
      <trkpt lat="50.45954" lon="3.48974">
        <ele>22.3</ele>
        <time>2022-04-15T15:58:32.000Z</time>
      </trkpt>
      <trkpt lat="50.45947" lon="3.48983">
        <ele>22.1</ele>
        <time>2022-04-15T15:58:34.000Z</time>
      </trkpt>
      <trkpt lat="50.4594" lon="3.48992">
        <ele>22</ele>
        <time>2022-04-15T15:58:36.000Z</time>
      </trkpt>
      <trkpt lat="50.45935" lon="3.48999">
        <ele>22</ele>
        <time>2022-04-15T15:58:38.000Z</time>
      </trkpt>
      <trkpt lat="50.45931" lon="3.49004">
        <ele>22.1</ele>
        <time>2022-04-15T15:58:39.000Z</time>
      </trkpt>
      <trkpt lat="50.45928" lon="3.49014">
        <ele>22.5</ele>
        <time>2022-04-15T15:58:41.000Z</time>
      </trkpt>
      <trkpt lat="50.45928" lon="3.49025">
        <ele>22.9</ele>
        <time>2022-04-15T15:58:43.021Z</time>
      </trkpt>
      <trkpt lat="50.45927" lon="3.49034">
        <ele>23</ele>
        <time>2022-04-15T15:58:44.000Z</time>
      </trkpt>
      <trkpt lat="50.45926" lon="3.49043">
        <ele>23</ele>
        <time>2022-04-15T15:58:45.000Z</time>
      </trkpt>
      <trkpt lat="50.45927" lon="3.49051">
        <ele>23</ele>
        <time>2022-04-15T15:58:46.000Z</time>
      </trkpt>
      <trkpt lat="50.45928" lon="3.49059">
        <ele>23.1</ele>
        <time>2022-04-15T15:58:47.000Z</time>
      </trkpt>
      <trkpt lat="50.45929" lon="3.49067">
        <ele>23.2</ele>
        <time>2022-04-15T15:58:48.000Z</time>
      </trkpt>
      <trkpt lat="50.4593" lon="3.49077">
        <ele>23.4</ele>
        <time>2022-04-15T15:58:49.000Z</time>
      </trkpt>
      <trkpt lat="50.45931" lon="3.49085">
        <ele>23.5</ele>
        <time>2022-04-15T15:58:50.000Z</time>
      </trkpt>
      <trkpt lat="50.45932" lon="3.49091">
        <ele>23.6</ele>
        <time>2022-04-15T15:58:51.000Z</time>
      </trkpt>
      <trkpt lat="50.45933" lon="3.49099">
        <ele>23.6</ele>
        <time>2022-04-15T15:58:52.000Z</time>
      </trkpt>
      <trkpt lat="50.45934" lon="3.49106">
        <ele>23.6</ele>
        <time>2022-04-15T15:58:53.000Z</time>
      </trkpt>
      <trkpt lat="50.45934" lon="3.49113">
        <ele>23.6</ele>
        <time>2022-04-15T15:58:54.000Z</time>
      </trkpt>
      <trkpt lat="50.45935" lon="3.49122">
        <ele>23.8</ele>
        <time>2022-04-15T15:58:55.000Z</time>
      </trkpt>
      <trkpt lat="50.45936" lon="3.4913">
        <ele>23.9</ele>
        <time>2022-04-15T15:58:56.000Z</time>
      </trkpt>
      <trkpt lat="50.45938" lon="3.4914">
        <ele>24</ele>
        <time>2022-04-15T15:58:57.000Z</time>
      </trkpt>
      <trkpt lat="50.45939" lon="3.49149">
        <ele>24</ele>
        <time>2022-04-15T15:58:58.000Z</time>
      </trkpt>
      <trkpt lat="50.45941" lon="3.49157">
        <ele>24</ele>
        <time>2022-04-15T15:58:59.000Z</time>
      </trkpt>
      <trkpt lat="50.45943" lon="3.49173">
        <ele>24</ele>
        <time>2022-04-15T15:59:01.000Z</time>
      </trkpt>
      <trkpt lat="50.45945" lon="3.49182">
        <ele>24</ele>
        <time>2022-04-15T15:59:02.000Z</time>
      </trkpt>
      <trkpt lat="50.45945" lon="3.49191">
        <ele>24</ele>
        <time>2022-04-15T15:59:03.000Z</time>
      </trkpt>
      <trkpt lat="50.45946" lon="3.492">
        <ele>24</ele>
        <time>2022-04-15T15:59:04.000Z</time>
      </trkpt>
      <trkpt lat="50.45947" lon="3.49208">
        <ele>24</ele>
        <time>2022-04-15T15:59:05.000Z</time>
      </trkpt>
      <trkpt lat="50.45948" lon="3.49216">
        <ele>24</ele>
        <time>2022-04-15T15:59:06.000Z</time>
      </trkpt>
      <trkpt lat="50.45949" lon="3.49225">
        <ele>24</ele>
        <time>2022-04-15T15:59:07.000Z</time>
      </trkpt>
      <trkpt lat="50.4595" lon="3.49232">
        <ele>24</ele>
        <time>2022-04-15T15:59:08.000Z</time>
      </trkpt>
      <trkpt lat="50.4595" lon="3.49241">
        <ele>24</ele>
        <time>2022-04-15T15:59:09.000Z</time>
      </trkpt>
      <trkpt lat="50.45951" lon="3.4925">
        <ele>24</ele>
        <time>2022-04-15T15:59:10.000Z</time>
      </trkpt>
      <trkpt lat="50.45952" lon="3.49258">
        <ele>24.1</ele>
        <time>2022-04-15T15:59:11.000Z</time>
      </trkpt>
      <trkpt lat="50.45953" lon="3.49267">
        <ele>24.2</ele>
        <time>2022-04-15T15:59:12.000Z</time>
      </trkpt>
      <trkpt lat="50.45954" lon="3.49275">
        <ele>24.3</ele>
        <time>2022-04-15T15:59:13.000Z</time>
      </trkpt>
      <trkpt lat="50.45955" lon="3.49284">
        <ele>24.4</ele>
        <time>2022-04-15T15:59:14.000Z</time>
      </trkpt>
      <trkpt lat="50.45956" lon="3.49293">
        <ele>24.4</ele>
        <time>2022-04-15T15:59:15.000Z</time>
      </trkpt>
      <trkpt lat="50.45957" lon="3.493">
        <ele>24.5</ele>
        <time>2022-04-15T15:59:16.000Z</time>
      </trkpt>
      <trkpt lat="50.45958" lon="3.49309">
        <ele>24.5</ele>
        <time>2022-04-15T15:59:17.000Z</time>
      </trkpt>
      <trkpt lat="50.45959" lon="3.49317">
        <ele>24.5</ele>
        <time>2022-04-15T15:59:18.000Z</time>
      </trkpt>
      <trkpt lat="50.4596" lon="3.49325">
        <ele>24.6</ele>
        <time>2022-04-15T15:59:19.000Z</time>
      </trkpt>
      <trkpt lat="50.45962" lon="3.49332">
        <ele>24.6</ele>
        <time>2022-04-15T15:59:20.000Z</time>
      </trkpt>
      <trkpt lat="50.45963" lon="3.49339">
        <ele>24.8</ele>
        <time>2022-04-15T15:59:21.000Z</time>
      </trkpt>
      <trkpt lat="50.45965" lon="3.49355">
        <ele>25.3</ele>
        <time>2022-04-15T15:59:23.000Z</time>
      </trkpt>
      <trkpt lat="50.45966" lon="3.49363">
        <ele>25.6</ele>
        <time>2022-04-15T15:59:24.000Z</time>
      </trkpt>
      <trkpt lat="50.45966" lon="3.4937">
        <ele>25.6</ele>
        <time>2022-04-15T15:59:25.000Z</time>
      </trkpt>
      <trkpt lat="50.45967" lon="3.49377">
        <ele>25.6</ele>
        <time>2022-04-15T15:59:26.000Z</time>
      </trkpt>
      <trkpt lat="50.45968" lon="3.49392">
        <ele>25.6</ele>
        <time>2022-04-15T15:59:28.000Z</time>
      </trkpt>
      <trkpt lat="50.45969" lon="3.494">
        <ele>25.4</ele>
        <time>2022-04-15T15:59:29.000Z</time>
      </trkpt>
      <trkpt lat="50.4597" lon="3.49407">
        <ele>25.2</ele>
        <time>2022-04-15T15:59:30.000Z</time>
      </trkpt>
      <trkpt lat="50.45971" lon="3.49414">
        <ele>25</ele>
        <time>2022-04-15T15:59:31.000Z</time>
      </trkpt>
      <trkpt lat="50.45972" lon="3.49421">
        <ele>25</ele>
        <time>2022-04-15T15:59:32.000Z</time>
      </trkpt>
      <trkpt lat="50.45972" lon="3.49438">
        <ele>25</ele>
        <time>2022-04-15T15:59:34.000Z</time>
      </trkpt>
      <trkpt lat="50.45972" lon="3.49445">
        <ele>25</ele>
        <time>2022-04-15T15:59:35.000Z</time>
      </trkpt>
      <trkpt lat="50.45971" lon="3.49453">
        <ele>25</ele>
        <time>2022-04-15T15:59:36.000Z</time>
      </trkpt>
      <trkpt lat="50.4597" lon="3.4946">
        <ele>25</ele>
        <time>2022-04-15T15:59:37.000Z</time>
      </trkpt>
      <trkpt lat="50.45969" lon="3.49468">
        <ele>25</ele>
        <time>2022-04-15T15:59:38.000Z</time>
      </trkpt>
      <trkpt lat="50.45968" lon="3.49475">
        <ele>25</ele>
        <time>2022-04-15T15:59:39.000Z</time>
      </trkpt>
      <trkpt lat="50.4597" lon="3.49487">
        <ele>25</ele>
        <time>2022-04-15T15:59:41.000Z</time>
      </trkpt>
      <trkpt lat="50.45974" lon="3.49496">
        <ele>25</ele>
        <time>2022-04-15T15:59:43.000Z</time>
      </trkpt>
      <trkpt lat="50.45978" lon="3.49501">
        <ele>25</ele>
        <time>2022-04-15T15:59:44.000Z</time>
      </trkpt>
      <trkpt lat="50.45982" lon="3.4951">
        <ele>25.1</ele>
        <time>2022-04-15T15:59:46.000Z</time>
      </trkpt>
      <trkpt lat="50.45986" lon="3.49525">
        <ele>25.4</ele>
        <time>2022-04-15T15:59:49.000Z</time>
      </trkpt>
      <trkpt lat="50.45986" lon="3.49532">
        <ele>25.4</ele>
        <time>2022-04-15T15:59:50.000Z</time>
      </trkpt>
      <trkpt lat="50.45987" lon="3.49542">
        <ele>25.3</ele>
        <time>2022-04-15T15:59:51.000Z</time>
      </trkpt>
      <trkpt lat="50.45988" lon="3.49555">
        <ele>25</ele>
        <time>2022-04-15T15:59:53.000Z</time>
      </trkpt>
      <trkpt lat="50.45989" lon="3.49562">
        <ele>25.1</ele>
        <time>2022-04-15T15:59:54.000Z</time>
      </trkpt>
      <trkpt lat="50.45991" lon="3.49575">
        <ele>25.5</ele>
        <time>2022-04-15T15:59:56.000Z</time>
      </trkpt>
      <trkpt lat="50.45992" lon="3.49583">
        <ele>25.7</ele>
        <time>2022-04-15T15:59:57.000Z</time>
      </trkpt>
      <trkpt lat="50.45994" lon="3.49596">
        <ele>25.4</ele>
        <time>2022-04-15T15:59:59.000Z</time>
      </trkpt>
      <trkpt lat="50.45996" lon="3.49609">
        <ele>25.1</ele>
        <time>2022-04-15T16:00:01.104Z</time>
      </trkpt>
      <trkpt lat="50.45998" lon="3.49619">
        <ele>25</ele>
        <time>2022-04-15T16:00:02.419Z</time>
      </trkpt>
      <trkpt lat="50.45999" lon="3.49626">
        <ele>25</ele>
        <time>2022-04-15T16:00:03.613Z</time>
      </trkpt>
      <trkpt lat="50.46001" lon="3.49643">
        <ele>25.2</ele>
        <time>2022-04-15T16:00:06.000Z</time>
      </trkpt>
      <trkpt lat="50.46004" lon="3.4966">
        <ele>25.8</ele>
        <time>2022-04-15T16:00:08.522Z</time>
      </trkpt>
      <trkpt lat="50.46006" lon="3.49678">
        <ele>26</ele>
        <time>2022-04-15T16:00:11.000Z</time>
      </trkpt>
      <trkpt lat="50.46006" lon="3.49688">
        <ele>26</ele>
        <time>2022-04-15T16:00:13.000Z</time>
      </trkpt>
      <trkpt lat="50.46007" lon="3.49695">
        <ele>26</ele>
        <time>2022-04-15T16:00:14.000Z</time>
      </trkpt>
      <trkpt lat="50.46008" lon="3.49704">
        <ele>26.1</ele>
        <time>2022-04-15T16:00:15.000Z</time>
      </trkpt>
      <trkpt lat="50.4601" lon="3.49716">
        <ele>26.3</ele>
        <time>2022-04-15T16:00:17.000Z</time>
      </trkpt>
      <trkpt lat="50.4601" lon="3.49731">
        <ele>26.4</ele>
        <time>2022-04-15T16:00:20.000Z</time>
      </trkpt>
      <trkpt lat="50.4601" lon="3.4974">
        <ele>26.4</ele>
        <time>2022-04-15T16:00:22.000Z</time>
      </trkpt>
      <trkpt lat="50.4601" lon="3.49748">
        <ele>26.4</ele>
        <time>2022-04-15T16:00:23.003Z</time>
      </trkpt>
      <trkpt lat="50.46009" lon="3.49768">
        <ele>26.3</ele>
        <time>2022-04-15T16:00:25.724Z</time>
      </trkpt>
      <trkpt lat="50.46006" lon="3.49784">
        <ele>26.2</ele>
        <time>2022-04-15T16:00:29.000Z</time>
      </trkpt>
      <trkpt lat="50.46004" lon="3.49795">
        <ele>26.1</ele>
        <time>2022-04-15T16:00:31.000Z</time>
      </trkpt>
      <trkpt lat="50.46002" lon="3.49806">
        <ele>26.1</ele>
        <time>2022-04-15T16:00:33.000Z</time>
      </trkpt>
      <trkpt lat="50.45999" lon="3.49817">
        <ele>26.4</ele>
        <time>2022-04-15T16:00:35.000Z</time>
      </trkpt>
      <trkpt lat="50.45995" lon="3.49832">
        <ele>26.8</ele>
        <time>2022-04-15T16:00:38.000Z</time>
      </trkpt>
      <trkpt lat="50.45993" lon="3.49839">
        <ele>26.7</ele>
        <time>2022-04-15T16:00:39.000Z</time>
      </trkpt>
      <trkpt lat="50.45991" lon="3.49846">
        <ele>26.7</ele>
        <time>2022-04-15T16:00:40.121Z</time>
      </trkpt>
      <trkpt lat="50.45989" lon="3.49855">
        <ele>26.6</ele>
        <time>2022-04-15T16:00:42.000Z</time>
      </trkpt>
      <trkpt lat="50.45986" lon="3.49864">
        <ele>26.5</ele>
        <time>2022-04-15T16:00:44.000Z</time>
      </trkpt>
      <trkpt lat="50.45985" lon="3.49873">
        <ele>26.7</ele>
        <time>2022-04-15T16:00:45.000Z</time>
      </trkpt>
      <trkpt lat="50.45982" lon="3.49885">
        <ele>26.9</ele>
        <time>2022-04-15T16:00:47.388Z</time>
      </trkpt>
      <trkpt lat="50.4598" lon="3.49895">
        <ele>27</ele>
        <time>2022-04-15T16:00:49.000Z</time>
      </trkpt>
      <trkpt lat="50.45978" lon="3.49904">
        <ele>27</ele>
        <time>2022-04-15T16:00:50.139Z</time>
      </trkpt>
      <trkpt lat="50.45976" lon="3.49912">
        <ele>27</ele>
        <time>2022-04-15T16:00:52.000Z</time>
      </trkpt>
      <trkpt lat="50.45975" lon="3.49922">
        <ele>27</ele>
        <time>2022-04-15T16:00:53.000Z</time>
      </trkpt>
      <trkpt lat="50.45971" lon="3.49936">
        <ele>27</ele>
        <time>2022-04-15T16:00:56.000Z</time>
      </trkpt>
      <trkpt lat="50.4597" lon="3.49945">
        <ele>27</ele>
        <time>2022-04-15T16:00:57.000Z</time>
      </trkpt>
      <trkpt lat="50.45968" lon="3.49954">
        <ele>27.3</ele>
        <time>2022-04-15T16:00:59.000Z</time>
      </trkpt>
      <trkpt lat="50.45966" lon="3.49962">
        <ele>27.5</ele>
        <time>2022-04-15T16:01:00.142Z</time>
      </trkpt>
      <trkpt lat="50.45963" lon="3.49973">
        <ele>27.7</ele>
        <time>2022-04-15T16:01:02.000Z</time>
      </trkpt>
      <trkpt lat="50.4596" lon="3.49987">
        <ele>27.8</ele>
        <time>2022-04-15T16:01:04.000Z</time>
      </trkpt>
      <trkpt lat="50.45958" lon="3.49995">
        <ele>27.9</ele>
        <time>2022-04-15T16:01:06.000Z</time>
      </trkpt>
      <trkpt lat="50.45956" lon="3.50006">
        <ele>28</ele>
        <time>2022-04-15T16:01:08.000Z</time>
      </trkpt>
      <trkpt lat="50.45952" lon="3.50019">
        <ele>28</ele>
        <time>2022-04-15T16:01:10.000Z</time>
      </trkpt>
      <trkpt lat="50.45949" lon="3.5003">
        <ele>28</ele>
        <time>2022-04-15T16:01:12.000Z</time>
      </trkpt>
      <trkpt lat="50.45947" lon="3.5004">
        <ele>28</ele>
        <time>2022-04-15T16:01:13.940Z</time>
      </trkpt>
      <trkpt lat="50.45944" lon="3.50053">
        <ele>28</ele>
        <time>2022-04-15T16:01:15.963Z</time>
      </trkpt>
      <trkpt lat="50.45941" lon="3.50065">
        <ele>28.3</ele>
        <time>2022-04-15T16:01:17.525Z</time>
      </trkpt>
      <trkpt lat="50.45939" lon="3.50073">
        <ele>28.5</ele>
        <time>2022-04-15T16:01:19.000Z</time>
      </trkpt>
      <trkpt lat="50.45936" lon="3.50084">
        <ele>28.7</ele>
        <time>2022-04-15T16:01:20.986Z</time>
      </trkpt>
      <trkpt lat="50.45934" lon="3.50095">
        <ele>28.6</ele>
        <time>2022-04-15T16:01:23.000Z</time>
      </trkpt>
      <trkpt lat="50.45931" lon="3.50107">
        <ele>28.5</ele>
        <time>2022-04-15T16:01:25.000Z</time>
      </trkpt>
      <trkpt lat="50.45927" lon="3.50125">
        <ele>28.4</ele>
        <time>2022-04-15T16:01:28.000Z</time>
      </trkpt>
      <trkpt lat="50.45925" lon="3.50137">
        <ele>28.3</ele>
        <time>2022-04-15T16:01:30.000Z</time>
      </trkpt>
      <trkpt lat="50.45922" lon="3.5015">
        <ele>28.5</ele>
        <time>2022-04-15T16:01:32.060Z</time>
      </trkpt>
      <trkpt lat="50.4592" lon="3.5016">
        <ele>28.8</ele>
        <time>2022-04-15T16:01:34.000Z</time>
      </trkpt>
      <trkpt lat="50.45917" lon="3.50173">
        <ele>29</ele>
        <time>2022-04-15T16:01:36.000Z</time>
      </trkpt>
      <trkpt lat="50.45914" lon="3.50182">
        <ele>29</ele>
        <time>2022-04-15T16:01:38.000Z</time>
      </trkpt>
      <trkpt lat="50.45911" lon="3.50193">
        <ele>29</ele>
        <time>2022-04-15T16:01:40.000Z</time>
      </trkpt>
      <trkpt lat="50.4591" lon="3.502">
        <ele>29.2</ele>
        <time>2022-04-15T16:01:41.000Z</time>
      </trkpt>
      <trkpt lat="50.45907" lon="3.50209">
        <ele>29.3</ele>
        <time>2022-04-15T16:01:42.966Z</time>
      </trkpt>
      <trkpt lat="50.45905" lon="3.5022">
        <ele>29.5</ele>
        <time>2022-04-15T16:01:45.000Z</time>
      </trkpt>
      <trkpt lat="50.45901" lon="3.50234">
        <ele>29.4</ele>
        <time>2022-04-15T16:01:47.000Z</time>
      </trkpt>
      <trkpt lat="50.45898" lon="3.50246">
        <ele>29.3</ele>
        <time>2022-04-15T16:01:49.000Z</time>
      </trkpt>
      <trkpt lat="50.45896" lon="3.50258">
        <ele>29.5</ele>
        <time>2022-04-15T16:01:51.000Z</time>
      </trkpt>
      <trkpt lat="50.45895" lon="3.50266">
        <ele>29.7</ele>
        <time>2022-04-15T16:01:53.000Z</time>
      </trkpt>
      <trkpt lat="50.45892" lon="3.50277">
        <ele>30</ele>
        <time>2022-04-15T16:01:55.000Z</time>
      </trkpt>
      <trkpt lat="50.4589" lon="3.50288">
        <ele>30</ele>
        <time>2022-04-15T16:01:57.000Z</time>
      </trkpt>
      <trkpt lat="50.45888" lon="3.50295">
        <ele>29.9</ele>
        <time>2022-04-15T16:01:58.000Z</time>
      </trkpt>
      <trkpt lat="50.45885" lon="3.50308">
        <ele>29.7</ele>
        <time>2022-04-15T16:02:00.000Z</time>
      </trkpt>
      <trkpt lat="50.45884" lon="3.50315">
        <ele>29.7</ele>
        <time>2022-04-15T16:02:01.000Z</time>
      </trkpt>
      <trkpt lat="50.45882" lon="3.50321">
        <ele>29.6</ele>
        <time>2022-04-15T16:02:02.000Z</time>
      </trkpt>
      <trkpt lat="50.45881" lon="3.50329">
        <ele>29.7</ele>
        <time>2022-04-15T16:02:03.000Z</time>
      </trkpt>
      <trkpt lat="50.45878" lon="3.50342">
        <ele>29.6</ele>
        <time>2022-04-15T16:02:05.000Z</time>
      </trkpt>
      <trkpt lat="50.45876" lon="3.5035">
        <ele>29.5</ele>
        <time>2022-04-15T16:02:06.000Z</time>
      </trkpt>
      <trkpt lat="50.45873" lon="3.50361">
        <ele>29.4</ele>
        <time>2022-04-15T16:02:08.000Z</time>
      </trkpt>
      <trkpt lat="50.4587" lon="3.5037">
        <ele>29.2</ele>
        <time>2022-04-15T16:02:10.000Z</time>
      </trkpt>
      <trkpt lat="50.45868" lon="3.50378">
        <ele>29.1</ele>
        <time>2022-04-15T16:02:11.000Z</time>
      </trkpt>
      <trkpt lat="50.45866" lon="3.5039">
        <ele>29</ele>
        <time>2022-04-15T16:02:13.000Z</time>
      </trkpt>
      <trkpt lat="50.45863" lon="3.50402">
        <ele>29</ele>
        <time>2022-04-15T16:02:15.000Z</time>
      </trkpt>
      <trkpt lat="50.4586" lon="3.50416">
        <ele>29</ele>
        <time>2022-04-15T16:02:17.000Z</time>
      </trkpt>
      <trkpt lat="50.45859" lon="3.50423">
        <ele>28.9</ele>
        <time>2022-04-15T16:02:18.000Z</time>
      </trkpt>
      <trkpt lat="50.45857" lon="3.5043">
        <ele>28.9</ele>
        <time>2022-04-15T16:02:19.301Z</time>
      </trkpt>
      <trkpt lat="50.45855" lon="3.50438">
        <ele>28.8</ele>
        <time>2022-04-15T16:02:20.641Z</time>
      </trkpt>
      <trkpt lat="50.45853" lon="3.50447">
        <ele>28.7</ele>
        <time>2022-04-15T16:02:22.080Z</time>
      </trkpt>
      <trkpt lat="50.45849" lon="3.50466">
        <ele>28.2</ele>
        <time>2022-04-15T16:02:25.052Z</time>
      </trkpt>
      <trkpt lat="50.45846" lon="3.50478">
        <ele>28</ele>
        <time>2022-04-15T16:02:27.000Z</time>
      </trkpt>
      <trkpt lat="50.45843" lon="3.50489">
        <ele>28.1</ele>
        <time>2022-04-15T16:02:29.000Z</time>
      </trkpt>
      <trkpt lat="50.45841" lon="3.50501">
        <ele>28.3</ele>
        <time>2022-04-15T16:02:31.000Z</time>
      </trkpt>
      <trkpt lat="50.45838" lon="3.50512">
        <ele>28.5</ele>
        <time>2022-04-15T16:02:33.000Z</time>
      </trkpt>
      <trkpt lat="50.45837" lon="3.50523">
        <ele>28.9</ele>
        <time>2022-04-15T16:02:35.000Z</time>
      </trkpt>
      <trkpt lat="50.45834" lon="3.50533">
        <ele>29</ele>
        <time>2022-04-15T16:02:36.949Z</time>
      </trkpt>
      <trkpt lat="50.45832" lon="3.50546">
        <ele>29</ele>
        <time>2022-04-15T16:02:39.023Z</time>
      </trkpt>
      <trkpt lat="50.45829" lon="3.50554">
        <ele>28.8</ele>
        <time>2022-04-15T16:02:41.000Z</time>
      </trkpt>
      <trkpt lat="50.45827" lon="3.50564">
        <ele>28.8</ele>
        <time>2022-04-15T16:02:43.000Z</time>
      </trkpt>
      <trkpt lat="50.45825" lon="3.50573">
        <ele>28.9</ele>
        <time>2022-04-15T16:02:44.000Z</time>
      </trkpt>
      <trkpt lat="50.45822" lon="3.50585">
        <ele>29</ele>
        <time>2022-04-15T16:02:47.000Z</time>
      </trkpt>
      <trkpt lat="50.4582" lon="3.50596">
        <ele>29.2</ele>
        <time>2022-04-15T16:02:49.000Z</time>
      </trkpt>
      <trkpt lat="50.45818" lon="3.50608">
        <ele>29.4</ele>
        <time>2022-04-15T16:02:51.000Z</time>
      </trkpt>
      <trkpt lat="50.45816" lon="3.50619">
        <ele>29.6</ele>
        <time>2022-04-15T16:02:53.000Z</time>
      </trkpt>
      <trkpt lat="50.45813" lon="3.50631">
        <ele>29.8</ele>
        <time>2022-04-15T16:02:55.000Z</time>
      </trkpt>
      <trkpt lat="50.45811" lon="3.50639">
        <ele>30</ele>
        <time>2022-04-15T16:02:56.000Z</time>
      </trkpt>
      <trkpt lat="50.45808" lon="3.5065">
        <ele>30</ele>
        <time>2022-04-15T16:02:58.000Z</time>
      </trkpt>
      <trkpt lat="50.45806" lon="3.5066">
        <ele>30</ele>
        <time>2022-04-15T16:03:00.000Z</time>
      </trkpt>
      <trkpt lat="50.45804" lon="3.50667">
        <ele>29.9</ele>
        <time>2022-04-15T16:03:01.000Z</time>
      </trkpt>
      <trkpt lat="50.45801" lon="3.5068">
        <ele>29.8</ele>
        <time>2022-04-15T16:03:03.000Z</time>
      </trkpt>
      <trkpt lat="50.45797" lon="3.50693">
        <ele>29.4</ele>
        <time>2022-04-15T16:03:05.000Z</time>
      </trkpt>
      <trkpt lat="50.45794" lon="3.50707">
        <ele>29.4</ele>
        <time>2022-04-15T16:03:07.000Z</time>
      </trkpt>
      <trkpt lat="50.45793" lon="3.50714">
        <ele>29.4</ele>
        <time>2022-04-15T16:03:08.000Z</time>
      </trkpt>
      <trkpt lat="50.45789" lon="3.50728">
        <ele>29.4</ele>
        <time>2022-04-15T16:03:10.000Z</time>
      </trkpt>
      <trkpt lat="50.45788" lon="3.50735">
        <ele>29.4</ele>
        <time>2022-04-15T16:03:11.000Z</time>
      </trkpt>
      <trkpt lat="50.45786" lon="3.50741">
        <ele>29.3</ele>
        <time>2022-04-15T16:03:12.000Z</time>
      </trkpt>
      <trkpt lat="50.45784" lon="3.50749">
        <ele>29.2</ele>
        <time>2022-04-15T16:03:13.000Z</time>
      </trkpt>
      <trkpt lat="50.45783" lon="3.50755">
        <ele>29.2</ele>
        <time>2022-04-15T16:03:14.000Z</time>
      </trkpt>
      <trkpt lat="50.4578" lon="3.5077">
        <ele>29.1</ele>
        <time>2022-04-15T16:03:16.000Z</time>
      </trkpt>
      <trkpt lat="50.45778" lon="3.50776">
        <ele>29</ele>
        <time>2022-04-15T16:03:17.000Z</time>
      </trkpt>
      <trkpt lat="50.45776" lon="3.50784">
        <ele>29.2</ele>
        <time>2022-04-15T16:03:18.000Z</time>
      </trkpt>
      <trkpt lat="50.45775" lon="3.50791">
        <ele>29.4</ele>
        <time>2022-04-15T16:03:19.000Z</time>
      </trkpt>
      <trkpt lat="50.45772" lon="3.50805">
        <ele>29.8</ele>
        <time>2022-04-15T16:03:21.000Z</time>
      </trkpt>
      <trkpt lat="50.45769" lon="3.50818">
        <ele>29.7</ele>
        <time>2022-04-15T16:03:23.000Z</time>
      </trkpt>
      <trkpt lat="50.45766" lon="3.50831">
        <ele>29.6</ele>
        <time>2022-04-15T16:03:25.000Z</time>
      </trkpt>
      <trkpt lat="50.45764" lon="3.50842">
        <ele>29.5</ele>
        <time>2022-04-15T16:03:27.000Z</time>
      </trkpt>
      <trkpt lat="50.45762" lon="3.50849">
        <ele>29.4</ele>
        <time>2022-04-15T16:03:28.000Z</time>
      </trkpt>
      <trkpt lat="50.45758" lon="3.50863">
        <ele>29.3</ele>
        <time>2022-04-15T16:03:30.000Z</time>
      </trkpt>
      <trkpt lat="50.45757" lon="3.50869">
        <ele>29.3</ele>
        <time>2022-04-15T16:03:31.000Z</time>
      </trkpt>
      <trkpt lat="50.45754" lon="3.50882">
        <ele>29.3</ele>
        <time>2022-04-15T16:03:33.000Z</time>
      </trkpt>
      <trkpt lat="50.45751" lon="3.50894">
        <ele>29.2</ele>
        <time>2022-04-15T16:03:35.134Z</time>
      </trkpt>
      <trkpt lat="50.45749" lon="3.50907">
        <ele>29.6</ele>
        <time>2022-04-15T16:03:37.000Z</time>
      </trkpt>
      <trkpt lat="50.45748" lon="3.5092">
        <ele>29.8</ele>
        <time>2022-04-15T16:03:39.000Z</time>
      </trkpt>
      <trkpt lat="50.45744" lon="3.5093">
        <ele>29.5</ele>
        <time>2022-04-15T16:03:41.000Z</time>
      </trkpt>
      <trkpt lat="50.45741" lon="3.50942">
        <ele>29.3</ele>
        <time>2022-04-15T16:03:43.000Z</time>
      </trkpt>
      <trkpt lat="50.4574" lon="3.50955">
        <ele>29.4</ele>
        <time>2022-04-15T16:03:45.000Z</time>
      </trkpt>
      <trkpt lat="50.45738" lon="3.50965">
        <ele>29.5</ele>
        <time>2022-04-15T16:03:47.000Z</time>
      </trkpt>
      <trkpt lat="50.45736" lon="3.50971">
        <ele>29.5</ele>
        <time>2022-04-15T16:03:48.000Z</time>
      </trkpt>
      <trkpt lat="50.45732" lon="3.50988">
        <ele>29.4</ele>
        <time>2022-04-15T16:03:51.034Z</time>
      </trkpt>
      <trkpt lat="50.4573" lon="3.50998">
        <ele>29.3</ele>
        <time>2022-04-15T16:03:53.000Z</time>
      </trkpt>
      <trkpt lat="50.45726" lon="3.5101">
        <ele>29.4</ele>
        <time>2022-04-15T16:03:55.000Z</time>
      </trkpt>
      <trkpt lat="50.45725" lon="3.51017">
        <ele>29.7</ele>
        <time>2022-04-15T16:03:56.000Z</time>
      </trkpt>
      <trkpt lat="50.45723" lon="3.51024">
        <ele>29.9</ele>
        <time>2022-04-15T16:03:57.114Z</time>
      </trkpt>
      <trkpt lat="50.45721" lon="3.51035">
        <ele>29.9</ele>
        <time>2022-04-15T16:03:59.013Z</time>
      </trkpt>
      <trkpt lat="50.45719" lon="3.51044">
        <ele>29.8</ele>
        <time>2022-04-15T16:04:00.675Z</time>
      </trkpt>
      <trkpt lat="50.45717" lon="3.51052">
        <ele>29.8</ele>
        <time>2022-04-15T16:04:01.958Z</time>
      </trkpt>
      <trkpt lat="50.45715" lon="3.51064">
        <ele>30</ele>
        <time>2022-04-15T16:04:04.000Z</time>
      </trkpt>
      <trkpt lat="50.45712" lon="3.51075">
        <ele>30.3</ele>
        <time>2022-04-15T16:04:06.000Z</time>
      </trkpt>
      <trkpt lat="50.4571" lon="3.51087">
        <ele>30.6</ele>
        <time>2022-04-15T16:04:08.000Z</time>
      </trkpt>
      <trkpt lat="50.45708" lon="3.51097">
        <ele>30.5</ele>
        <time>2022-04-15T16:04:09.755Z</time>
      </trkpt>
      <trkpt lat="50.45705" lon="3.51108">
        <ele>30.4</ele>
        <time>2022-04-15T16:04:11.813Z</time>
      </trkpt>
      <trkpt lat="50.45704" lon="3.51115">
        <ele>30.3</ele>
        <time>2022-04-15T16:04:13.096Z</time>
      </trkpt>
      <trkpt lat="50.457" lon="3.51127">
        <ele>30.2</ele>
        <time>2022-04-15T16:04:15.000Z</time>
      </trkpt>
      <trkpt lat="50.45698" lon="3.51141">
        <ele>30.2</ele>
        <time>2022-04-15T16:04:17.000Z</time>
      </trkpt>
      <trkpt lat="50.45697" lon="3.51149">
        <ele>30.5</ele>
        <time>2022-04-15T16:04:18.558Z</time>
      </trkpt>
      <trkpt lat="50.45694" lon="3.51157">
        <ele>30.6</ele>
        <time>2022-04-15T16:04:19.793Z</time>
      </trkpt>
      <trkpt lat="50.45693" lon="3.51164">
        <ele>30.8</ele>
        <time>2022-04-15T16:04:21.000Z</time>
      </trkpt>
      <trkpt lat="50.45689" lon="3.51177">
        <ele>30.7</ele>
        <time>2022-04-15T16:04:23.076Z</time>
      </trkpt>
      <trkpt lat="50.45687" lon="3.5119">
        <ele>30.7</ele>
        <time>2022-04-15T16:04:25.085Z</time>
      </trkpt>
      <trkpt lat="50.45684" lon="3.51198">
        <ele>30.6</ele>
        <time>2022-04-15T16:04:26.000Z</time>
      </trkpt>
      <trkpt lat="50.45683" lon="3.51205">
        <ele>30.6</ele>
        <time>2022-04-15T16:04:27.000Z</time>
      </trkpt>
      <trkpt lat="50.45681" lon="3.51213">
        <ele>30.5</ele>
        <time>2022-04-15T16:04:28.000Z</time>
      </trkpt>
      <trkpt lat="50.45677" lon="3.51226">
        <ele>30.4</ele>
        <time>2022-04-15T16:04:30.000Z</time>
      </trkpt>
      <trkpt lat="50.45675" lon="3.51233">
        <ele>30.3</ele>
        <time>2022-04-15T16:04:31.000Z</time>
      </trkpt>
      <trkpt lat="50.45674" lon="3.51241">
        <ele>30.3</ele>
        <time>2022-04-15T16:04:32.000Z</time>
      </trkpt>
      <trkpt lat="50.4567" lon="3.51255">
        <ele>30.1</ele>
        <time>2022-04-15T16:04:34.000Z</time>
      </trkpt>
      <trkpt lat="50.45669" lon="3.51263">
        <ele>30.1</ele>
        <time>2022-04-15T16:04:35.000Z</time>
      </trkpt>
      <trkpt lat="50.45669" lon="3.5127">
        <ele>30.1</ele>
        <time>2022-04-15T16:04:36.000Z</time>
      </trkpt>
      <trkpt lat="50.45668" lon="3.51278">
        <ele>30</ele>
        <time>2022-04-15T16:04:37.000Z</time>
      </trkpt>
      <trkpt lat="50.45666" lon="3.51288">
        <ele>30</ele>
        <time>2022-04-15T16:04:38.000Z</time>
      </trkpt>
      <trkpt lat="50.45662" lon="3.51302">
        <ele>30</ele>
        <time>2022-04-15T16:04:40.000Z</time>
      </trkpt>
      <trkpt lat="50.4566" lon="3.51309">
        <ele>30</ele>
        <time>2022-04-15T16:04:41.000Z</time>
      </trkpt>
      <trkpt lat="50.45657" lon="3.51317">
        <ele>30</ele>
        <time>2022-04-15T16:04:42.000Z</time>
      </trkpt>
      <trkpt lat="50.45654" lon="3.51323">
        <ele>30</ele>
        <time>2022-04-15T16:04:43.000Z</time>
      </trkpt>
      <trkpt lat="50.4565" lon="3.51331">
        <ele>30</ele>
        <time>2022-04-15T16:04:44.000Z</time>
      </trkpt>
      <trkpt lat="50.45644" lon="3.51342">
        <ele>30.1</ele>
        <time>2022-04-15T16:04:46.000Z</time>
      </trkpt>
      <trkpt lat="50.45641" lon="3.51348">
        <ele>30</ele>
        <time>2022-04-15T16:04:47.000Z</time>
      </trkpt>
      <trkpt lat="50.45637" lon="3.51355">
        <ele>29.9</ele>
        <time>2022-04-15T16:04:48.000Z</time>
      </trkpt>
      <trkpt lat="50.45634" lon="3.51361">
        <ele>29.8</ele>
        <time>2022-04-15T16:04:49.000Z</time>
      </trkpt>
      <trkpt lat="50.4563" lon="3.51368">
        <ele>29.7</ele>
        <time>2022-04-15T16:04:50.000Z</time>
      </trkpt>
      <trkpt lat="50.45626" lon="3.51376">
        <ele>29.5</ele>
        <time>2022-04-15T16:04:51.000Z</time>
      </trkpt>
      <trkpt lat="50.4562" lon="3.5139">
        <ele>29.3</ele>
        <time>2022-04-15T16:04:53.000Z</time>
      </trkpt>
      <trkpt lat="50.45617" lon="3.51396">
        <ele>29.2</ele>
        <time>2022-04-15T16:04:54.000Z</time>
      </trkpt>
      <trkpt lat="50.45614" lon="3.51402">
        <ele>29.1</ele>
        <time>2022-04-15T16:04:55.000Z</time>
      </trkpt>
      <trkpt lat="50.4561" lon="3.51409">
        <ele>29</ele>
        <time>2022-04-15T16:04:56.000Z</time>
      </trkpt>
      <trkpt lat="50.45608" lon="3.51415">
        <ele>28.9</ele>
        <time>2022-04-15T16:04:57.000Z</time>
      </trkpt>
      <trkpt lat="50.45604" lon="3.51424">
        <ele>29</ele>
        <time>2022-04-15T16:04:58.000Z</time>
      </trkpt>
      <trkpt lat="50.45601" lon="3.5143">
        <ele>29.1</ele>
        <time>2022-04-15T16:04:59.000Z</time>
      </trkpt>
      <trkpt lat="50.45595" lon="3.51443">
        <ele>29.4</ele>
        <time>2022-04-15T16:05:01.000Z</time>
      </trkpt>
      <trkpt lat="50.45593" lon="3.5145">
        <ele>29.3</ele>
        <time>2022-04-15T16:05:02.000Z</time>
      </trkpt>
      <trkpt lat="50.4559" lon="3.51457">
        <ele>29.2</ele>
        <time>2022-04-15T16:05:03.000Z</time>
      </trkpt>
      <trkpt lat="50.45588" lon="3.51464">
        <ele>29.2</ele>
        <time>2022-04-15T16:05:04.000Z</time>
      </trkpt>
      <trkpt lat="50.45585" lon="3.51473">
        <ele>29.1</ele>
        <time>2022-04-15T16:05:05.000Z</time>
      </trkpt>
      <trkpt lat="50.45581" lon="3.51486">
        <ele>28.9</ele>
        <time>2022-04-15T16:05:07.000Z</time>
      </trkpt>
      <trkpt lat="50.4558" lon="3.51492">
        <ele>28.9</ele>
        <time>2022-04-15T16:05:08.000Z</time>
      </trkpt>
      <trkpt lat="50.45578" lon="3.51501">
        <ele>28.8</ele>
        <time>2022-04-15T16:05:09.000Z</time>
      </trkpt>
      <trkpt lat="50.45576" lon="3.51509">
        <ele>28.7</ele>
        <time>2022-04-15T16:05:10.000Z</time>
      </trkpt>
      <trkpt lat="50.45573" lon="3.51516">
        <ele>28.6</ele>
        <time>2022-04-15T16:05:11.000Z</time>
      </trkpt>
      <trkpt lat="50.45571" lon="3.51524">
        <ele>28.6</ele>
        <time>2022-04-15T16:05:12.000Z</time>
      </trkpt>
      <trkpt lat="50.45568" lon="3.5153">
        <ele>28.5</ele>
        <time>2022-04-15T16:05:13.000Z</time>
      </trkpt>
      <trkpt lat="50.45564" lon="3.51538">
        <ele>28.4</ele>
        <time>2022-04-15T16:05:14.000Z</time>
      </trkpt>
      <trkpt lat="50.45561" lon="3.51545">
        <ele>28.3</ele>
        <time>2022-04-15T16:05:15.000Z</time>
      </trkpt>
      <trkpt lat="50.45558" lon="3.51552">
        <ele>28.2</ele>
        <time>2022-04-15T16:05:16.000Z</time>
      </trkpt>
      <trkpt lat="50.45555" lon="3.51559">
        <ele>28</ele>
        <time>2022-04-15T16:05:17.000Z</time>
      </trkpt>
      <trkpt lat="50.45552" lon="3.51567">
        <ele>27.9</ele>
        <time>2022-04-15T16:05:18.000Z</time>
      </trkpt>
      <trkpt lat="50.45549" lon="3.51574">
        <ele>27.8</ele>
        <time>2022-04-15T16:05:19.000Z</time>
      </trkpt>
      <trkpt lat="50.45546" lon="3.51582">
        <ele>27.7</ele>
        <time>2022-04-15T16:05:20.000Z</time>
      </trkpt>
      <trkpt lat="50.45543" lon="3.51588">
        <ele>27.6</ele>
        <time>2022-04-15T16:05:21.000Z</time>
      </trkpt>
      <trkpt lat="50.4554" lon="3.51595">
        <ele>27.6</ele>
        <time>2022-04-15T16:05:22.000Z</time>
      </trkpt>
      <trkpt lat="50.45537" lon="3.51602">
        <ele>27.6</ele>
        <time>2022-04-15T16:05:23.000Z</time>
      </trkpt>
      <trkpt lat="50.45533" lon="3.5161">
        <ele>27.4</ele>
        <time>2022-04-15T16:05:24.000Z</time>
      </trkpt>
      <trkpt lat="50.45529" lon="3.51617">
        <ele>27.3</ele>
        <time>2022-04-15T16:05:25.000Z</time>
      </trkpt>
      <trkpt lat="50.45526" lon="3.51624">
        <ele>27.4</ele>
        <time>2022-04-15T16:05:26.000Z</time>
      </trkpt>
      <trkpt lat="50.45519" lon="3.51638">
        <ele>27.7</ele>
        <time>2022-04-15T16:05:28.000Z</time>
      </trkpt>
      <trkpt lat="50.45515" lon="3.51646">
        <ele>27.5</ele>
        <time>2022-04-15T16:05:29.000Z</time>
      </trkpt>
      <trkpt lat="50.45512" lon="3.51654">
        <ele>27.4</ele>
        <time>2022-04-15T16:05:30.000Z</time>
      </trkpt>
      <trkpt lat="50.45508" lon="3.51662">
        <ele>27.3</ele>
        <time>2022-04-15T16:05:31.000Z</time>
      </trkpt>
      <trkpt lat="50.45505" lon="3.51669">
        <ele>27.3</ele>
        <time>2022-04-15T16:05:32.000Z</time>
      </trkpt>
      <trkpt lat="50.45502" lon="3.51676">
        <ele>27.4</ele>
        <time>2022-04-15T16:05:33.000Z</time>
      </trkpt>
      <trkpt lat="50.45499" lon="3.51683">
        <ele>27.5</ele>
        <time>2022-04-15T16:05:34.000Z</time>
      </trkpt>
      <trkpt lat="50.45496" lon="3.51691">
        <ele>27.6</ele>
        <time>2022-04-15T16:05:35.000Z</time>
      </trkpt>
      <trkpt lat="50.45493" lon="3.51699">
        <ele>27.5</ele>
        <time>2022-04-15T16:05:36.000Z</time>
      </trkpt>
      <trkpt lat="50.4549" lon="3.51705">
        <ele>27.3</ele>
        <time>2022-04-15T16:05:37.000Z</time>
      </trkpt>
      <trkpt lat="50.45488" lon="3.51712">
        <ele>27.1</ele>
        <time>2022-04-15T16:05:38.000Z</time>
      </trkpt>
      <trkpt lat="50.45486" lon="3.5172">
        <ele>27</ele>
        <time>2022-04-15T16:05:39.000Z</time>
      </trkpt>
      <trkpt lat="50.45485" lon="3.51728">
        <ele>27</ele>
        <time>2022-04-15T16:05:40.000Z</time>
      </trkpt>
      <trkpt lat="50.45484" lon="3.51737">
        <ele>27.2</ele>
        <time>2022-04-15T16:05:41.000Z</time>
      </trkpt>
      <trkpt lat="50.45483" lon="3.51745">
        <ele>27.3</ele>
        <time>2022-04-15T16:05:42.000Z</time>
      </trkpt>
      <trkpt lat="50.45482" lon="3.51754">
        <ele>27.4</ele>
        <time>2022-04-15T16:05:43.000Z</time>
      </trkpt>
      <trkpt lat="50.45481" lon="3.51763">
        <ele>27.3</ele>
        <time>2022-04-15T16:05:44.000Z</time>
      </trkpt>
      <trkpt lat="50.4548" lon="3.51771">
        <ele>27.3</ele>
        <time>2022-04-15T16:05:45.000Z</time>
      </trkpt>
      <trkpt lat="50.45479" lon="3.51779">
        <ele>27.2</ele>
        <time>2022-04-15T16:05:46.000Z</time>
      </trkpt>
      <trkpt lat="50.45479" lon="3.51789">
        <ele>26.9</ele>
        <time>2022-04-15T16:05:47.000Z</time>
      </trkpt>
      <trkpt lat="50.45478" lon="3.51797">
        <ele>26.7</ele>
        <time>2022-04-15T16:05:48.000Z</time>
      </trkpt>
      <trkpt lat="50.45477" lon="3.51808">
        <ele>26.3</ele>
        <time>2022-04-15T16:05:49.000Z</time>
      </trkpt>
      <trkpt lat="50.45477" lon="3.51815">
        <ele>26.3</ele>
        <time>2022-04-15T16:05:50.000Z</time>
      </trkpt>
      <trkpt lat="50.45476" lon="3.51824">
        <ele>26.3</ele>
        <time>2022-04-15T16:05:51.000Z</time>
      </trkpt>
      <trkpt lat="50.45474" lon="3.51835">
        <ele>26.1</ele>
        <time>2022-04-15T16:05:52.000Z</time>
      </trkpt>
      <trkpt lat="50.45473" lon="3.51843">
        <ele>26.1</ele>
        <time>2022-04-15T16:05:53.000Z</time>
      </trkpt>
      <trkpt lat="50.45472" lon="3.51852">
        <ele>26</ele>
        <time>2022-04-15T16:05:54.000Z</time>
      </trkpt>
      <trkpt lat="50.4547" lon="3.51864">
        <ele>25.9</ele>
        <time>2022-04-15T16:05:55.000Z</time>
      </trkpt>
      <trkpt lat="50.45469" lon="3.51872">
        <ele>25.9</ele>
        <time>2022-04-15T16:05:56.000Z</time>
      </trkpt>
      <trkpt lat="50.45468" lon="3.51884">
        <ele>25.8</ele>
        <time>2022-04-15T16:05:57.000Z</time>
      </trkpt>
      <trkpt lat="50.45467" lon="3.51891">
        <ele>25.8</ele>
        <time>2022-04-15T16:05:58.000Z</time>
      </trkpt>
      <trkpt lat="50.45466" lon="3.519">
        <ele>25.8</ele>
        <time>2022-04-15T16:05:59.000Z</time>
      </trkpt>
      <trkpt lat="50.45464" lon="3.51911">
        <ele>25.7</ele>
        <time>2022-04-15T16:06:00.000Z</time>
      </trkpt>
      <trkpt lat="50.45462" lon="3.51921">
        <ele>25.6</ele>
        <time>2022-04-15T16:06:01.000Z</time>
      </trkpt>
      <trkpt lat="50.45461" lon="3.51931">
        <ele>25.6</ele>
        <time>2022-04-15T16:06:02.000Z</time>
      </trkpt>
      <trkpt lat="50.45459" lon="3.51941">
        <ele>25.5</ele>
        <time>2022-04-15T16:06:03.000Z</time>
      </trkpt>
      <trkpt lat="50.45458" lon="3.5195">
        <ele>25.3</ele>
        <time>2022-04-15T16:06:04.000Z</time>
      </trkpt>
      <trkpt lat="50.45456" lon="3.5196">
        <ele>24.9</ele>
        <time>2022-04-15T16:06:05.000Z</time>
      </trkpt>
      <trkpt lat="50.45454" lon="3.5197">
        <ele>24.4</ele>
        <time>2022-04-15T16:06:06.000Z</time>
      </trkpt>
      <trkpt lat="50.45453" lon="3.5198">
        <ele>24.3</ele>
        <time>2022-04-15T16:06:07.000Z</time>
      </trkpt>
      <trkpt lat="50.45451" lon="3.51989">
        <ele>24.2</ele>
        <time>2022-04-15T16:06:08.000Z</time>
      </trkpt>
      <trkpt lat="50.45447" lon="3.51995">
        <ele>24.1</ele>
        <time>2022-04-15T16:06:09.000Z</time>
      </trkpt>
      <trkpt lat="50.45442" lon="3.52001">
        <ele>23.9</ele>
        <time>2022-04-15T16:06:10.000Z</time>
      </trkpt>
      <trkpt lat="50.45436" lon="3.52006">
        <ele>23.5</ele>
        <time>2022-04-15T16:06:11.000Z</time>
      </trkpt>
      <trkpt lat="50.45431" lon="3.52012">
        <ele>23.3</ele>
        <time>2022-04-15T16:06:12.000Z</time>
      </trkpt>
      <trkpt lat="50.45425" lon="3.52019">
        <ele>23.1</ele>
        <time>2022-04-15T16:06:13.000Z</time>
      </trkpt>
      <trkpt lat="50.45419" lon="3.52026">
        <ele>23</ele>
        <time>2022-04-15T16:06:14.000Z</time>
      </trkpt>
      <trkpt lat="50.45412" lon="3.52033">
        <ele>22.8</ele>
        <time>2022-04-15T16:06:15.000Z</time>
      </trkpt>
      <trkpt lat="50.45407" lon="3.52041">
        <ele>22.7</ele>
        <time>2022-04-15T16:06:16.000Z</time>
      </trkpt>
      <trkpt lat="50.45403" lon="3.52048">
        <ele>22.5</ele>
        <time>2022-04-15T16:06:17.000Z</time>
      </trkpt>
      <trkpt lat="50.45397" lon="3.52055">
        <ele>22.3</ele>
        <time>2022-04-15T16:06:18.000Z</time>
      </trkpt>
      <trkpt lat="50.45392" lon="3.52062">
        <ele>22.1</ele>
        <time>2022-04-15T16:06:19.000Z</time>
      </trkpt>
      <trkpt lat="50.45386" lon="3.5207">
        <ele>22</ele>
        <time>2022-04-15T16:06:20.000Z</time>
      </trkpt>
      <trkpt lat="50.45381" lon="3.52075">
        <ele>22</ele>
        <time>2022-04-15T16:06:21.000Z</time>
      </trkpt>
      <trkpt lat="50.45376" lon="3.52082">
        <ele>22</ele>
        <time>2022-04-15T16:06:22.000Z</time>
      </trkpt>
      <trkpt lat="50.45372" lon="3.5209">
        <ele>21.9</ele>
        <time>2022-04-15T16:06:23.000Z</time>
      </trkpt>
      <trkpt lat="50.45367" lon="3.52096">
        <ele>21.6</ele>
        <time>2022-04-15T16:06:24.000Z</time>
      </trkpt>
      <trkpt lat="50.45362" lon="3.52106">
        <ele>21.2</ele>
        <time>2022-04-15T16:06:25.000Z</time>
      </trkpt>
      <trkpt lat="50.45359" lon="3.52113">
        <ele>21</ele>
        <time>2022-04-15T16:06:26.000Z</time>
      </trkpt>
      <trkpt lat="50.45355" lon="3.52119">
        <ele>21</ele>
        <time>2022-04-15T16:06:27.000Z</time>
      </trkpt>
      <trkpt lat="50.45349" lon="3.52128">
        <ele>21</ele>
        <time>2022-04-15T16:06:28.000Z</time>
      </trkpt>
      <trkpt lat="50.45344" lon="3.52135">
        <ele>21</ele>
        <time>2022-04-15T16:06:29.000Z</time>
      </trkpt>
      <trkpt lat="50.45339" lon="3.52144">
        <ele>21</ele>
        <time>2022-04-15T16:06:30.000Z</time>
      </trkpt>
      <trkpt lat="50.45335" lon="3.5215">
        <ele>21</ele>
        <time>2022-04-15T16:06:31.000Z</time>
      </trkpt>
      <trkpt lat="50.45331" lon="3.52156">
        <ele>20.9</ele>
        <time>2022-04-15T16:06:32.000Z</time>
      </trkpt>
      <trkpt lat="50.45326" lon="3.52163">
        <ele>20.7</ele>
        <time>2022-04-15T16:06:33.000Z</time>
      </trkpt>
      <trkpt lat="50.45321" lon="3.52171">
        <ele>20.6</ele>
        <time>2022-04-15T16:06:34.000Z</time>
      </trkpt>
      <trkpt lat="50.45317" lon="3.52178">
        <ele>20.4</ele>
        <time>2022-04-15T16:06:35.000Z</time>
      </trkpt>
      <trkpt lat="50.45312" lon="3.52185">
        <ele>20.2</ele>
        <time>2022-04-15T16:06:36.000Z</time>
      </trkpt>
      <trkpt lat="50.45308" lon="3.52192">
        <ele>20.1</ele>
        <time>2022-04-15T16:06:37.000Z</time>
      </trkpt>
      <trkpt lat="50.45303" lon="3.522">
        <ele>20</ele>
        <time>2022-04-15T16:06:38.000Z</time>
      </trkpt>
      <trkpt lat="50.45298" lon="3.52207">
        <ele>20</ele>
        <time>2022-04-15T16:06:39.000Z</time>
      </trkpt>
      <trkpt lat="50.45294" lon="3.52214">
        <ele>20</ele>
        <time>2022-04-15T16:06:40.000Z</time>
      </trkpt>
      <trkpt lat="50.45285" lon="3.52229">
        <ele>20</ele>
        <time>2022-04-15T16:06:42.000Z</time>
      </trkpt>
      <trkpt lat="50.45281" lon="3.52236">
        <ele>20</ele>
        <time>2022-04-15T16:06:43.000Z</time>
      </trkpt>
      <trkpt lat="50.45276" lon="3.52244">
        <ele>19.9</ele>
        <time>2022-04-15T16:06:44.000Z</time>
      </trkpt>
      <trkpt lat="50.45271" lon="3.52252">
        <ele>19.7</ele>
        <time>2022-04-15T16:06:45.000Z</time>
      </trkpt>
      <trkpt lat="50.45266" lon="3.52258">
        <ele>19.4</ele>
        <time>2022-04-15T16:06:46.000Z</time>
      </trkpt>
      <trkpt lat="50.45261" lon="3.52266">
        <ele>19.2</ele>
        <time>2022-04-15T16:06:47.000Z</time>
      </trkpt>
      <trkpt lat="50.45255" lon="3.52275">
        <ele>19</ele>
        <time>2022-04-15T16:06:48.000Z</time>
      </trkpt>
      <trkpt lat="50.45252" lon="3.52281">
        <ele>19</ele>
        <time>2022-04-15T16:06:49.000Z</time>
      </trkpt>
      <trkpt lat="50.45247" lon="3.52287">
        <ele>19</ele>
        <time>2022-04-15T16:06:50.000Z</time>
      </trkpt>
      <trkpt lat="50.45241" lon="3.52294">
        <ele>19</ele>
        <time>2022-04-15T16:06:51.000Z</time>
      </trkpt>
      <trkpt lat="50.45237" lon="3.523">
        <ele>19</ele>
        <time>2022-04-15T16:06:52.000Z</time>
      </trkpt>
      <trkpt lat="50.45232" lon="3.52305">
        <ele>19</ele>
        <time>2022-04-15T16:06:53.000Z</time>
      </trkpt>
      <trkpt lat="50.45227" lon="3.52313">
        <ele>19</ele>
        <time>2022-04-15T16:06:54.000Z</time>
      </trkpt>
      <trkpt lat="50.45222" lon="3.52319">
        <ele>19</ele>
        <time>2022-04-15T16:06:55.000Z</time>
      </trkpt>
      <trkpt lat="50.45217" lon="3.52326">
        <ele>19</ele>
        <time>2022-04-15T16:06:56.000Z</time>
      </trkpt>
      <trkpt lat="50.45213" lon="3.52331">
        <ele>19</ele>
        <time>2022-04-15T16:06:57.000Z</time>
      </trkpt>
      <trkpt lat="50.45209" lon="3.52336">
        <ele>19</ele>
        <time>2022-04-15T16:06:58.000Z</time>
      </trkpt>
      <trkpt lat="50.45204" lon="3.52343">
        <ele>19</ele>
        <time>2022-04-15T16:06:59.000Z</time>
      </trkpt>
      <trkpt lat="50.452" lon="3.52348">
        <ele>19</ele>
        <time>2022-04-15T16:07:00.000Z</time>
      </trkpt>
      <trkpt lat="50.45196" lon="3.52354">
        <ele>19</ele>
        <time>2022-04-15T16:07:01.000Z</time>
      </trkpt>
      <trkpt lat="50.45191" lon="3.5236">
        <ele>19</ele>
        <time>2022-04-15T16:07:02.000Z</time>
      </trkpt>
      <trkpt lat="50.45188" lon="3.52365">
        <ele>19</ele>
        <time>2022-04-15T16:07:03.000Z</time>
      </trkpt>
      <trkpt lat="50.45183" lon="3.52372">
        <ele>19.2</ele>
        <time>2022-04-15T16:07:04.000Z</time>
      </trkpt>
      <trkpt lat="50.4518" lon="3.52377">
        <ele>19.3</ele>
        <time>2022-04-15T16:07:05.000Z</time>
      </trkpt>
      <trkpt lat="50.45177" lon="3.52381">
        <ele>19.4</ele>
        <time>2022-04-15T16:07:06.000Z</time>
      </trkpt>
      <trkpt lat="50.45173" lon="3.52386">
        <ele>19.7</ele>
        <time>2022-04-15T16:07:07.000Z</time>
      </trkpt>
      <trkpt lat="50.45168" lon="3.52391">
        <ele>20</ele>
        <time>2022-04-15T16:07:09.000Z</time>
      </trkpt>
      <trkpt lat="50.45164" lon="3.52396">
        <ele>20</ele>
        <time>2022-04-15T16:07:10.000Z</time>
      </trkpt>
      <trkpt lat="50.45158" lon="3.52406">
        <ele>20.2</ele>
        <time>2022-04-15T16:07:12.000Z</time>
      </trkpt>
      <trkpt lat="50.45152" lon="3.52412">
        <ele>20.4</ele>
        <time>2022-04-15T16:07:14.000Z</time>
      </trkpt>
      <trkpt lat="50.45145" lon="3.52419">
        <ele>20.8</ele>
        <time>2022-04-15T16:07:16.000Z</time>
      </trkpt>
      <trkpt lat="50.45142" lon="3.52424">
        <ele>20.9</ele>
        <time>2022-04-15T16:07:17.000Z</time>
      </trkpt>
      <trkpt lat="50.45137" lon="3.52432">
        <ele>21</ele>
        <time>2022-04-15T16:07:19.000Z</time>
      </trkpt>
      <trkpt lat="50.45133" lon="3.52441">
        <ele>21.2</ele>
        <time>2022-04-15T16:07:21.000Z</time>
      </trkpt>
      <trkpt lat="50.45128" lon="3.52448">
        <ele>21.5</ele>
        <time>2022-04-15T16:07:23.000Z</time>
      </trkpt>
      <trkpt lat="50.45123" lon="3.52456">
        <ele>22</ele>
        <time>2022-04-15T16:07:25.000Z</time>
      </trkpt>
      <trkpt lat="50.45118" lon="3.52463">
        <ele>22.4</ele>
        <time>2022-04-15T16:07:27.000Z</time>
      </trkpt>
      <trkpt lat="50.45114" lon="3.5247">
        <ele>22.8</ele>
        <time>2022-04-15T16:07:29.000Z</time>
      </trkpt>
      <trkpt lat="50.4511" lon="3.52476">
        <ele>23.2</ele>
        <time>2022-04-15T16:07:31.000Z</time>
      </trkpt>
      <trkpt lat="50.45107" lon="3.52482">
        <ele>23.4</ele>
        <time>2022-04-15T16:07:33.000Z</time>
      </trkpt>
      <trkpt lat="50.45104" lon="3.52489">
        <ele>23.7</ele>
        <time>2022-04-15T16:07:35.000Z</time>
      </trkpt>
      <trkpt lat="50.451" lon="3.52496">
        <ele>23.9</ele>
        <time>2022-04-15T16:07:37.000Z</time>
      </trkpt>
      <trkpt lat="50.45097" lon="3.52504">
        <ele>24.1</ele>
        <time>2022-04-15T16:07:39.000Z</time>
      </trkpt>
      <trkpt lat="50.45093" lon="3.52511">
        <ele>24.4</ele>
        <time>2022-04-15T16:07:41.000Z</time>
      </trkpt>
      <trkpt lat="50.45089" lon="3.52519">
        <ele>24.7</ele>
        <time>2022-04-15T16:07:44.000Z</time>
      </trkpt>
      <trkpt lat="50.45086" lon="3.52525">
        <ele>24.9</ele>
        <time>2022-04-15T16:07:46.000Z</time>
      </trkpt>
      <trkpt lat="50.45081" lon="3.52533">
        <ele>25.3</ele>
        <time>2022-04-15T16:07:49.000Z</time>
      </trkpt>
      <trkpt lat="50.45079" lon="3.52539">
        <ele>25.6</ele>
        <time>2022-04-15T16:07:51.000Z</time>
      </trkpt>
      <trkpt lat="50.45076" lon="3.52545">
        <ele>25.9</ele>
        <time>2022-04-15T16:07:53.000Z</time>
      </trkpt>
      <trkpt lat="50.45073" lon="3.5255">
        <ele>26.2</ele>
        <time>2022-04-15T16:07:55.000Z</time>
      </trkpt>
      <trkpt lat="50.4507" lon="3.52556">
        <ele>26.5</ele>
        <time>2022-04-15T16:07:57.000Z</time>
      </trkpt>
      <trkpt lat="50.45066" lon="3.52561">
        <ele>26.7</ele>
        <time>2022-04-15T16:07:59.000Z</time>
      </trkpt>
      <trkpt lat="50.45062" lon="3.52565">
        <ele>26.8</ele>
        <time>2022-04-15T16:08:01.000Z</time>
      </trkpt>
      <trkpt lat="50.45057" lon="3.5257">
        <ele>27</ele>
        <time>2022-04-15T16:08:03.000Z</time>
      </trkpt>
      <trkpt lat="50.45052" lon="3.52577">
        <ele>27.1</ele>
        <time>2022-04-15T16:08:06.000Z</time>
      </trkpt>
      <trkpt lat="50.45048" lon="3.5258">
        <ele>27.2</ele>
        <time>2022-04-15T16:08:08.000Z</time>
      </trkpt>
      <trkpt lat="50.45043" lon="3.52584">
        <ele>27.5</ele>
        <time>2022-04-15T16:08:10.000Z</time>
      </trkpt>
      <trkpt lat="50.45038" lon="3.52589">
        <ele>27.7</ele>
        <time>2022-04-15T16:08:12.000Z</time>
      </trkpt>
      <trkpt lat="50.45034" lon="3.52592">
        <ele>27.8</ele>
        <time>2022-04-15T16:08:14.000Z</time>
      </trkpt>
      <trkpt lat="50.45028" lon="3.52598">
        <ele>28</ele>
        <time>2022-04-15T16:08:17.000Z</time>
      </trkpt>
      <trkpt lat="50.45023" lon="3.526">
        <ele>28.1</ele>
        <time>2022-04-15T16:08:19.000Z</time>
      </trkpt>
      <trkpt lat="50.45017" lon="3.52605">
        <ele>28.3</ele>
        <time>2022-04-15T16:08:21.000Z</time>
      </trkpt>
      <trkpt lat="50.45012" lon="3.52609">
        <ele>28.5</ele>
        <time>2022-04-15T16:08:23.000Z</time>
      </trkpt>
      <trkpt lat="50.45006" lon="3.52614">
        <ele>28.8</ele>
        <time>2022-04-15T16:08:25.000Z</time>
      </trkpt>
      <trkpt lat="50.45001" lon="3.52618">
        <ele>29</ele>
        <time>2022-04-15T16:08:27.000Z</time>
      </trkpt>
    </trkseg>
  </trk>
</gpx>